<?xml version="1.0" encoding="utf-8"?>
<gpx xmlns:xsi="http://www.w3.org/2001/XMLSchema-instance" xmlns:xsd="http://www.w3.org/2001/XMLSchema" version="1.1" creator="Shapelink.com" xmlns="http://www.topografix.com/GPX/1/1" xmlns:gpxtpx="http://www.garmin.com/xmlschemas/TrackPointExtension/v1">
  <metadata>
    <name>Löpning 33.57 km, 2017-10-14</name>
    <desc></desc>
    <author><name>Bengt-Åke Forslund</name></author> 
    <time>2017-10-14T16:00:21Z</time>
  </metadata>
  <trk>
    <name>Löpning 33.57 km, 2017-10-14</name>
    <trkseg>
      <trkpt lat="59.84669391566" lon="17.600418142293">
        <ele>62.8</ele>
        <time>2017-10-14T16:00:21Z</time>
      </trkpt>
      <trkpt lat="59.846677570955" lon="17.600292832888">
        <ele>61.6</ele>
        <time>2017-10-14T16:00:22Z</time>
      </trkpt>
      <trkpt lat="59.84666374082" lon="17.600190908984">
        <ele>60.4</ele>
        <time>2017-10-14T16:00:23Z</time>
      </trkpt>
      <trkpt lat="59.846647563753" lon="17.60010155793">
        <ele>60.4</ele>
        <time>2017-10-14T16:00:24Z</time>
      </trkpt>
      <trkpt lat="59.846632560152" lon="17.59998421133">
        <ele>59.6</ele>
        <time>2017-10-14T16:00:25Z</time>
      </trkpt>
      <trkpt lat="59.84661847856" lon="17.599870385128">
        <ele>59.4</ele>
        <time>2017-10-14T16:00:26Z</time>
      </trkpt>
      <trkpt lat="59.846605486615" lon="17.59976963469">
        <ele>59.4</ele>
        <time>2017-10-14T16:00:27Z</time>
      </trkpt>
      <trkpt lat="59.846593081403" lon="17.599665112397">
        <ele>59.4</ele>
        <time>2017-10-14T16:00:28Z</time>
      </trkpt>
      <trkpt lat="59.846581514381" lon="17.599554890412">
        <ele>59.4</ele>
        <time>2017-10-14T16:00:29Z</time>
      </trkpt>
      <trkpt lat="59.846570031178" lon="17.599455732535">
        <ele>59.4</ele>
        <time>2017-10-14T16:00:30Z</time>
      </trkpt>
      <trkpt lat="59.846554608482" lon="17.599346851654">
        <ele>59.2</ele>
        <time>2017-10-14T16:00:31Z</time>
      </trkpt>
      <trkpt lat="59.846539604881" lon="17.599244843931">
        <ele>59</ele>
        <time>2017-10-14T16:00:32Z</time>
      </trkpt>
      <trkpt lat="59.846525271832" lon="17.599142333294">
        <ele>59</ele>
        <time>2017-10-14T16:00:33Z</time>
      </trkpt>
      <trkpt lat="59.846510938783" lon="17.599039822657">
        <ele>59</ele>
        <time>2017-10-14T16:00:34Z</time>
      </trkpt>
      <trkpt lat="59.84652208671" lon="17.599115259757">
        <ele>58.8</ele>
        <time>2017-10-14T16:00:35Z</time>
      </trkpt>
      <trkpt lat="59.846510854964" lon="17.598977042226">
        <ele>58.8</ele>
        <time>2017-10-14T16:00:36Z</time>
      </trkpt>
      <trkpt lat="59.846500880503" lon="17.598818624316">
        <ele>58.8</ele>
        <time>2017-10-14T16:00:37Z</time>
      </trkpt>
      <trkpt lat="59.846482188866" lon="17.598654339076">
        <ele>58.8</ele>
        <time>2017-10-14T16:00:38Z</time>
      </trkpt>
      <trkpt lat="59.846465425066" lon="17.598520480133">
        <ele>58.8</ele>
        <time>2017-10-14T16:00:39Z</time>
      </trkpt>
      <trkpt lat="59.846452014026" lon="17.598418891505">
        <ele>58.8</ele>
        <time>2017-10-14T16:00:40Z</time>
      </trkpt>
      <trkpt lat="59.846439776452" lon="17.598317973429">
        <ele>58.8</ele>
        <time>2017-10-14T16:00:41Z</time>
      </trkpt>
      <trkpt lat="59.846425275765" lon="17.598203141399">
        <ele>58.8</ele>
        <time>2017-10-14T16:00:42Z</time>
      </trkpt>
      <trkpt lat="59.84641060744" lon="17.598098367649">
        <ele>58.6</ele>
        <time>2017-10-14T16:00:43Z</time>
      </trkpt>
      <trkpt lat="59.846398369866" lon="17.597992001338">
        <ele>58.6</ele>
        <time>2017-10-14T16:00:44Z</time>
      </trkpt>
      <trkpt lat="59.846384455912" lon="17.597883371914">
        <ele>58.6</ele>
        <time>2017-10-14T16:00:45Z</time>
      </trkpt>
      <trkpt lat="59.84637540346" lon="17.597814305058">
        <ele>58.6</ele>
        <time>2017-10-14T16:00:46Z</time>
      </trkpt>
      <trkpt lat="59.846356628004" lon="17.597678602097">
        <ele>58.6</ele>
        <time>2017-10-14T16:00:47Z</time>
      </trkpt>
      <trkpt lat="59.846344138973" lon="17.597570559406">
        <ele>58.6</ele>
        <time>2017-10-14T16:00:48Z</time>
      </trkpt>
      <trkpt lat="59.846333242503" lon="17.597479029058">
        <ele>58.6</ele>
        <time>2017-10-14T16:00:49Z</time>
      </trkpt>
      <trkpt lat="59.846317987445" lon="17.597359503164">
        <ele>58.6</ele>
        <time>2017-10-14T16:00:50Z</time>
      </trkpt>
      <trkpt lat="59.846303654396" lon="17.597261937848">
        <ele>58.6</ele>
        <time>2017-10-14T16:00:51Z</time>
      </trkpt>
      <trkpt lat="59.846289488985" lon="17.597155906813">
        <ele>58.4</ele>
        <time>2017-10-14T16:00:52Z</time>
      </trkpt>
      <trkpt lat="59.846278257239" lon="17.59705138452">
        <ele>58.4</ele>
        <time>2017-10-14T16:00:53Z</time>
      </trkpt>
      <trkpt lat="59.846265181475" lon="17.596935211386">
        <ele>58.4</ele>
        <time>2017-10-14T16:00:54Z</time>
      </trkpt>
      <trkpt lat="59.846249339684" lon="17.59682758779">
        <ele>58.4</ele>
        <time>2017-10-14T16:00:55Z</time>
      </trkpt>
      <trkpt lat="59.846236599196" lon="17.596724993334">
        <ele>58.4</ele>
        <time>2017-10-14T16:00:56Z</time>
      </trkpt>
      <trkpt lat="59.846220841224" lon="17.596613514064">
        <ele>58.4</ele>
        <time>2017-10-14T16:00:57Z</time>
      </trkpt>
      <trkpt lat="59.846207933098" lon="17.596512093074">
        <ele>58.6</ele>
        <time>2017-10-14T16:00:58Z</time>
      </trkpt>
      <trkpt lat="59.846195024972" lon="17.596396590492">
        <ele>58.6</ele>
        <time>2017-10-14T16:00:59Z</time>
      </trkpt>
      <trkpt lat="59.846178931724" lon="17.59628611705">
        <ele>58.6</ele>
        <time>2017-10-14T16:01:00Z</time>
      </trkpt>
      <trkpt lat="59.846164011942" lon="17.596182013852">
        <ele>58.4</ele>
        <time>2017-10-14T16:01:01Z</time>
      </trkpt>
      <trkpt lat="59.846150684721" lon="17.596058548465">
        <ele>58.4</ele>
        <time>2017-10-14T16:01:02Z</time>
      </trkpt>
      <trkpt lat="59.846136938405" lon="17.595948913213">
        <ele>58.4</ele>
        <time>2017-10-14T16:01:03Z</time>
      </trkpt>
      <trkpt lat="59.846120845157" lon="17.595846654033">
        <ele>58.4</ele>
        <time>2017-10-14T16:01:04Z</time>
      </trkpt>
      <trkpt lat="59.846105590099" lon="17.595725535578">
        <ele>58.4</ele>
        <time>2017-10-14T16:01:05Z</time>
      </trkpt>
      <trkpt lat="59.846092849611" lon="17.595616319421">
        <ele>58.4</ele>
        <time>2017-10-14T16:01:06Z</time>
      </trkpt>
      <trkpt lat="59.846077091639" lon="17.595494111319">
        <ele>58.2</ele>
        <time>2017-10-14T16:01:07Z</time>
      </trkpt>
      <trkpt lat="59.846065440798" lon="17.595392438872">
        <ele>58.2</ele>
        <time>2017-10-14T16:01:08Z</time>
      </trkpt>
      <trkpt lat="59.846048425541" lon="17.595274170263">
        <ele>58.2</ele>
        <time>2017-10-14T16:01:09Z</time>
      </trkpt>
      <trkpt lat="59.846034092492" lon="17.595176018214">
        <ele>58</ele>
        <time>2017-10-14T16:01:10Z</time>
      </trkpt>
      <trkpt lat="59.846020765271" lon="17.595071663559">
        <ele>58</ele>
        <time>2017-10-14T16:01:11Z</time>
      </trkpt>
      <trkpt lat="59.846005845489" lon="17.594957082986">
        <ele>58</ele>
        <time>2017-10-14T16:01:12Z</time>
      </trkpt>
      <trkpt lat="59.845992434449" lon="17.594853147426">
        <ele>58</ele>
        <time>2017-10-14T16:01:13Z</time>
      </trkpt>
      <trkpt lat="59.845979107228" lon="17.594745942925">
        <ele>58</ele>
        <time>2017-10-14T16:01:14Z</time>
      </trkpt>
      <trkpt lat="59.845967288749" lon="17.594640163347">
        <ele>58</ele>
        <time>2017-10-14T16:01:15Z</time>
      </trkpt>
      <trkpt lat="59.845956727555" lon="17.594546369886">
        <ele>58</ele>
        <time>2017-10-14T16:01:16Z</time>
      </trkpt>
      <trkpt lat="59.845939041746" lon="17.594427514544">
        <ele>58</ele>
        <time>2017-10-14T16:01:17Z</time>
      </trkpt>
      <trkpt lat="59.845923116136" lon="17.594315616179">
        <ele>58</ele>
        <time>2017-10-14T16:01:18Z</time>
      </trkpt>
      <trkpt lat="59.845911130019" lon="17.594206986755">
        <ele>58.2</ele>
        <time>2017-10-14T16:01:19Z</time>
      </trkpt>
      <trkpt lat="59.845897383703" lon="17.59409592658">
        <ele>58.2</ele>
        <time>2017-10-14T16:01:20Z</time>
      </trkpt>
      <trkpt lat="59.84588422412" lon="17.593990147002">
        <ele>58.2</ele>
        <time>2017-10-14T16:01:21Z</time>
      </trkpt>
      <trkpt lat="59.845871148356" lon="17.593880344112">
        <ele>58</ele>
        <time>2017-10-14T16:01:22Z</time>
      </trkpt>
      <trkpt lat="59.845858324049" lon="17.593769786851">
        <ele>57.8</ele>
        <time>2017-10-14T16:01:23Z</time>
      </trkpt>
      <trkpt lat="59.845842482258" lon="17.593655373916">
        <ele>57.4</ele>
        <time>2017-10-14T16:01:24Z</time>
      </trkpt>
      <trkpt lat="59.845826556648" lon="17.593544313741">
        <ele>57.2</ele>
        <time>2017-10-14T16:01:25Z</time>
      </trkpt>
      <trkpt lat="59.845815911635" lon="17.593444904407">
        <ele>57</ele>
        <time>2017-10-14T16:01:26Z</time>
      </trkpt>
      <trkpt lat="59.845805015165" lon="17.593330910567">
        <ele>56.8</ele>
        <time>2017-10-14T16:01:27Z</time>
      </trkpt>
      <trkpt lat="59.84579118503" lon="17.593230746862">
        <ele>56.8</ele>
        <time>2017-10-14T16:01:28Z</time>
      </trkpt>
      <trkpt lat="59.84577274485" lon="17.593122536533">
        <ele>56.8</ele>
        <time>2017-10-14T16:01:29Z</time>
      </trkpt>
      <trkpt lat="59.845756903059" lon="17.593011057263">
        <ele>56.8</ele>
        <time>2017-10-14T16:01:30Z</time>
      </trkpt>
      <trkpt lat="59.845745000761" lon="17.592910558282">
        <ele>56.8</ele>
        <time>2017-10-14T16:01:31Z</time>
      </trkpt>
      <trkpt lat="59.845729494246" lon="17.5927950557">
        <ele>56.6</ele>
        <time>2017-10-14T16:01:32Z</time>
      </trkpt>
      <trkpt lat="59.845717172853" lon="17.592686677733">
        <ele>56.6</ele>
        <time>2017-10-14T16:01:33Z</time>
      </trkpt>
      <trkpt lat="59.845705102917" lon="17.592587436037">
        <ele>56.6</ele>
        <time>2017-10-14T16:01:34Z</time>
      </trkpt>
      <trkpt lat="59.845700492872" lon="17.592553405523">
        <ele>56.6</ele>
        <time>2017-10-14T16:01:35Z</time>
      </trkpt>
      <trkpt lat="59.845681214502" lon="17.592394484699">
        <ele>56.6</ele>
        <time>2017-10-14T16:01:36Z</time>
      </trkpt>
      <trkpt lat="59.845664869797" lon="17.592261799222">
        <ele>56.4</ele>
        <time>2017-10-14T16:01:37Z</time>
      </trkpt>
      <trkpt lat="59.84565036911" lon="17.592162808983">
        <ele>56.4</ele>
        <time>2017-10-14T16:01:38Z</time>
      </trkpt>
      <trkpt lat="59.845631342197" lon="17.592050323885">
        <ele>56.4</ele>
        <time>2017-10-14T16:01:39Z</time>
      </trkpt>
      <trkpt lat="59.84562019427" lon="17.591947897067">
        <ele>56.4</ele>
        <time>2017-10-14T16:01:40Z</time>
      </trkpt>
      <trkpt lat="59.845608794886" lon="17.591847565724">
        <ele>56.4</ele>
        <time>2017-10-14T16:01:41Z</time>
      </trkpt>
      <trkpt lat="59.845593623647" lon="17.591729800029">
        <ele>56.4</ele>
        <time>2017-10-14T16:01:42Z</time>
      </trkpt>
      <trkpt lat="59.845579458236" lon="17.591626786478">
        <ele>56.2</ele>
        <time>2017-10-14T16:01:43Z</time>
      </trkpt>
      <trkpt lat="59.845565376644" lon="17.59152687423">
        <ele>56.2</ele>
        <time>2017-10-14T16:01:44Z</time>
      </trkpt>
      <trkpt lat="59.845552217061" lon="17.591427548715">
        <ele>56</ele>
        <time>2017-10-14T16:01:45Z</time>
      </trkpt>
      <trkpt lat="59.845547104102" lon="17.591346411923">
        <ele>55.8</ele>
        <time>2017-10-14T16:01:46Z</time>
      </trkpt>
      <trkpt lat="59.845561604789" lon="17.591251444996">
        <ele>55.6</ele>
        <time>2017-10-14T16:01:47Z</time>
      </trkpt>
      <trkpt lat="59.845597730778" lon="17.591196124456">
        <ele>55.8</ele>
        <time>2017-10-14T16:01:48Z</time>
      </trkpt>
      <trkpt lat="59.845637125708" lon="17.591170978756">
        <ele>56.2</ele>
        <time>2017-10-14T16:01:49Z</time>
      </trkpt>
      <trkpt lat="59.845675263353" lon="17.591144743409">
        <ele>56.8</ele>
        <time>2017-10-14T16:01:50Z</time>
      </trkpt>
      <trkpt lat="59.845711305523" lon="17.591124207754">
        <ele>57.2</ele>
        <time>2017-10-14T16:01:51Z</time>
      </trkpt>
      <trkpt lat="59.845750784272" lon="17.591103001547">
        <ele>57.4</ele>
        <time>2017-10-14T16:01:52Z</time>
      </trkpt>
      <trkpt lat="59.845787748451" lon="17.591070479775">
        <ele>57.6</ele>
        <time>2017-10-14T16:01:53Z</time>
      </trkpt>
      <trkpt lat="59.845822281879" lon="17.591006693516">
        <ele>57.8</ele>
        <time>2017-10-14T16:01:54Z</time>
      </trkpt>
      <trkpt lat="59.845845751199" lon="17.590920276127">
        <ele>58</ele>
        <time>2017-10-14T16:01:55Z</time>
      </trkpt>
      <trkpt lat="59.845862934094" lon="17.590833439643">
        <ele>57.8</ele>
        <time>2017-10-14T16:01:56Z</time>
      </trkpt>
      <trkpt lat="59.845884978491" lon="17.590736041965">
        <ele>57.6</ele>
        <time>2017-10-14T16:01:57Z</time>
      </trkpt>
      <trkpt lat="59.84589092964" lon="17.590656330096">
        <ele>57.4</ele>
        <time>2017-10-14T16:01:58Z</time>
      </trkpt>
      <trkpt lat="59.845882296283" lon="17.590567062861">
        <ele>57.4</ele>
        <time>2017-10-14T16:01:59Z</time>
      </trkpt>
      <trkpt lat="59.845871902727" lon="17.590478633816">
        <ele>57.2</ele>
        <time>2017-10-14T16:02:00Z</time>
      </trkpt>
      <trkpt lat="59.845866286854" lon="17.590392970798">
        <ele>57.2</ele>
        <time>2017-10-14T16:02:01Z</time>
      </trkpt>
      <trkpt lat="59.845861509171" lon="17.590288197048">
        <ele>57.2</ele>
        <time>2017-10-14T16:02:02Z</time>
      </trkpt>
      <trkpt lat="59.845859162239" lon="17.590192978664">
        <ele>57.6</ele>
        <time>2017-10-14T16:02:03Z</time>
      </trkpt>
      <trkpt lat="59.84586159299" lon="17.590099185203">
        <ele>58.2</ele>
        <time>2017-10-14T16:02:04Z</time>
      </trkpt>
      <trkpt lat="59.845859246058" lon="17.590003380086">
        <ele>58.6</ele>
        <time>2017-10-14T16:02:05Z</time>
      </trkpt>
      <trkpt lat="59.845853462547" lon="17.589909921901">
        <ele>59</ele>
        <time>2017-10-14T16:02:06Z</time>
      </trkpt>
      <trkpt lat="59.845852037624" lon="17.589806824531">
        <ele>59.4</ele>
        <time>2017-10-14T16:02:07Z</time>
      </trkpt>
      <trkpt lat="59.84585321109" lon="17.589714875088">
        <ele>59</ele>
        <time>2017-10-14T16:02:08Z</time>
      </trkpt>
      <trkpt lat="59.845853965461" lon="17.589617728867">
        <ele>58</ele>
        <time>2017-10-14T16:02:09Z</time>
      </trkpt>
      <trkpt lat="59.845852205262" lon="17.58952779108">
        <ele>57.8</ele>
        <time>2017-10-14T16:02:10Z</time>
      </trkpt>
      <trkpt lat="59.845854468375" lon="17.589434416714">
        <ele>57.2</ele>
        <time>2017-10-14T16:02:11Z</time>
      </trkpt>
      <trkpt lat="59.845860587162" lon="17.58932746367">
        <ele>56.8</ele>
        <time>2017-10-14T16:02:12Z</time>
      </trkpt>
      <trkpt lat="59.845868047053" lon="17.589233670209">
        <ele>56.6</ele>
        <time>2017-10-14T16:02:13Z</time>
      </trkpt>
      <trkpt lat="59.84587668041" lon="17.589151779046">
        <ele>56.6</ele>
        <time>2017-10-14T16:02:14Z</time>
      </trkpt>
      <trkpt lat="59.845885481405" lon="17.589043401079">
        <ele>56.8</ele>
        <time>2017-10-14T16:02:15Z</time>
      </trkpt>
      <trkpt lat="59.845890510545" lon="17.588959330622">
        <ele>57</ele>
        <time>2017-10-14T16:02:16Z</time>
      </trkpt>
      <trkpt lat="59.845903753947" lon="17.588853970139">
        <ele>57.2</ele>
        <time>2017-10-14T16:02:17Z</time>
      </trkpt>
      <trkpt lat="59.845909453639" lon="17.588820610177">
        <ele>57.4</ele>
        <time>2017-10-14T16:02:18Z</time>
      </trkpt>
      <trkpt lat="59.845930492208" lon="17.588683566112">
        <ele>57.4</ele>
        <time>2017-10-14T16:02:19Z</time>
      </trkpt>
      <trkpt lat="59.845945328171" lon="17.588582648036">
        <ele>57.4</ele>
        <time>2017-10-14T16:02:20Z</time>
      </trkpt>
      <trkpt lat="59.845961505238" lon="17.588506121289">
        <ele>57.2</ele>
        <time>2017-10-14T16:02:21Z</time>
      </trkpt>
      <trkpt lat="59.84598815968" lon="17.588427582886">
        <ele>57.2</ele>
        <time>2017-10-14T16:02:22Z</time>
      </trkpt>
      <trkpt lat="59.84601498176" lon="17.58834342861">
        <ele>57.2</ele>
        <time>2017-10-14T16:02:23Z</time>
      </trkpt>
      <trkpt lat="59.846028225162" lon="17.588247204398">
        <ele>57.4</ele>
        <time>2017-10-14T16:02:24Z</time>
      </trkpt>
      <trkpt lat="59.846041217107" lon="17.588155087317">
        <ele>57.6</ele>
        <time>2017-10-14T16:02:25Z</time>
      </trkpt>
      <trkpt lat="59.846047922627" lon="17.588080404588">
        <ele>57.8</ele>
        <time>2017-10-14T16:02:26Z</time>
      </trkpt>
      <trkpt lat="59.84605856764" lon="17.58799809433">
        <ele>58.2</ele>
        <time>2017-10-14T16:02:27Z</time>
      </trkpt>
      <trkpt lat="59.846071894861" lon="17.587925087981">
        <ele>58.2</ele>
        <time>2017-10-14T16:02:28Z</time>
      </trkpt>
      <trkpt lat="59.846084300073" lon="17.587836826574">
        <ele>58.4</ele>
        <time>2017-10-14T16:02:29Z</time>
      </trkpt>
      <trkpt lat="59.846100980054" lon="17.587761054198">
        <ele>58.4</ele>
        <time>2017-10-14T16:02:30Z</time>
      </trkpt>
      <trkpt lat="59.846118498225" lon="17.587686036193">
        <ele>58.6</ele>
        <time>2017-10-14T16:02:31Z</time>
      </trkpt>
      <trkpt lat="59.846136016396" lon="17.58760079227">
        <ele>58.8</ele>
        <time>2017-10-14T16:02:32Z</time>
      </trkpt>
      <trkpt lat="59.846153953662" lon="17.587528372654">
        <ele>58.8</ele>
        <time>2017-10-14T16:02:33Z</time>
      </trkpt>
      <trkpt lat="59.8461708851" lon="17.587452935554">
        <ele>58.8</ele>
        <time>2017-10-14T16:02:34Z</time>
      </trkpt>
      <trkpt lat="59.846191085479" lon="17.587368948916">
        <ele>58.8</ele>
        <time>2017-10-14T16:02:35Z</time>
      </trkpt>
      <trkpt lat="59.846210950582" lon="17.58729066197">
        <ele>58.8</ele>
        <time>2017-10-14T16:02:36Z</time>
      </trkpt>
      <trkpt lat="59.846231067142" lon="17.587200053631">
        <ele>58.8</ele>
        <time>2017-10-14T16:02:37Z</time>
      </trkpt>
      <trkpt lat="59.846250345512" lon="17.587112043681">
        <ele>58.6</ele>
        <time>2017-10-14T16:02:38Z</time>
      </trkpt>
      <trkpt lat="59.846273395737" lon="17.587031242165">
        <ele>58.6</ele>
        <time>2017-10-14T16:02:39Z</time>
      </trkpt>
      <trkpt lat="59.846292087374" lon="17.586948428993">
        <ele>58.4</ele>
        <time>2017-10-14T16:02:40Z</time>
      </trkpt>
      <trkpt lat="59.846311449563" lon="17.586859245577">
        <ele>58.4</ele>
        <time>2017-10-14T16:02:41Z</time>
      </trkpt>
      <trkpt lat="59.846335840892" lon="17.586762434632">
        <ele>58.2</ele>
        <time>2017-10-14T16:02:42Z</time>
      </trkpt>
      <trkpt lat="59.846357633832" lon="17.586674424682">
        <ele>58.2</ele>
        <time>2017-10-14T16:02:43Z</time>
      </trkpt>
      <trkpt lat="59.846378588582" lon="17.586581804687">
        <ele>57.8</ele>
        <time>2017-10-14T16:02:44Z</time>
      </trkpt>
      <trkpt lat="59.846400800617" lon="17.586498740058">
        <ele>57.6</ele>
        <time>2017-10-14T16:02:45Z</time>
      </trkpt>
      <trkpt lat="59.846421252453" lon="17.586414250506">
        <ele>57.4</ele>
        <time>2017-10-14T16:02:46Z</time>
      </trkpt>
      <trkpt lat="59.846444554135" lon="17.586312326602">
        <ele>57</ele>
        <time>2017-10-14T16:02:47Z</time>
      </trkpt>
      <trkpt lat="59.846465257428" lon="17.586219790426">
        <ele>56.4</ele>
        <time>2017-10-14T16:02:48Z</time>
      </trkpt>
      <trkpt lat="59.846485960721" lon="17.586128679173">
        <ele>56.4</ele>
        <time>2017-10-14T16:02:49Z</time>
      </trkpt>
      <trkpt lat="59.84651035205" lon="17.58604092068">
        <ele>56.2</ele>
        <time>2017-10-14T16:02:50Z</time>
      </trkpt>
      <trkpt lat="59.84653214499" lon="17.585961544087">
        <ele>56</ele>
        <time>2017-10-14T16:02:51Z</time>
      </trkpt>
      <trkpt lat="59.846552429188" lon="17.585870181377">
        <ele>56</ele>
        <time>2017-10-14T16:02:52Z</time>
      </trkpt>
      <trkpt lat="59.846578832173" lon="17.585782339065">
        <ele>56</ele>
        <time>2017-10-14T16:02:53Z</time>
      </trkpt>
      <trkpt lat="59.846603055864" lon="17.585690724898">
        <ele>56</ele>
        <time>2017-10-14T16:02:54Z</time>
      </trkpt>
      <trkpt lat="59.846615461076" lon="17.585589471546">
        <ele>55.8</ele>
        <time>2017-10-14T16:02:55Z</time>
      </trkpt>
      <trkpt lat="59.846625770813" lon="17.585497103008">
        <ele>55.8</ele>
        <time>2017-10-14T16:02:56Z</time>
      </trkpt>
      <trkpt lat="59.846640774414" lon="17.58539719076">
        <ele>56</ele>
        <time>2017-10-14T16:02:57Z</time>
      </trkpt>
      <trkpt lat="59.846655526558" lon="17.585310102819">
        <ele>56</ele>
        <time>2017-10-14T16:02:58Z</time>
      </trkpt>
      <trkpt lat="59.846672793272" lon="17.585212537503">
        <ele>56</ele>
        <time>2017-10-14T16:02:59Z</time>
      </trkpt>
      <trkpt lat="59.846691652547" lon="17.585124108458">
        <ele>56.2</ele>
        <time>2017-10-14T16:03:00Z</time>
      </trkpt>
      <trkpt lat="59.846712607297" lon="17.585028638617">
        <ele>56</ele>
        <time>2017-10-14T16:03:01Z</time>
      </trkpt>
      <trkpt lat="59.846735154608" lon="17.584927217627">
        <ele>55.8</ele>
        <time>2017-10-14T16:03:02Z</time>
      </trkpt>
      <trkpt lat="59.846756193177" lon="17.584832166881">
        <ele>55.6</ele>
        <time>2017-10-14T16:03:03Z</time>
      </trkpt>
      <trkpt lat="59.846775387728" lon="17.584741390904">
        <ele>55.4</ele>
        <time>2017-10-14T16:03:04Z</time>
      </trkpt>
      <trkpt lat="59.846799862876" lon="17.584644663778">
        <ele>55.2</ele>
        <time>2017-10-14T16:03:05Z</time>
      </trkpt>
      <trkpt lat="59.846827523146" lon="17.584559252217">
        <ele>54.8</ele>
        <time>2017-10-14T16:03:06Z</time>
      </trkpt>
      <trkpt lat="59.846858871452" lon="17.584471158448">
        <ele>54.8</ele>
        <time>2017-10-14T16:03:07Z</time>
      </trkpt>
      <trkpt lat="59.846886280265" lon="17.58438717181">
        <ele>54.6</ele>
        <time>2017-10-14T16:03:08Z</time>
      </trkpt>
      <trkpt lat="59.846907737929" lon="17.584300754421">
        <ele>54.8</ele>
        <time>2017-10-14T16:03:09Z</time>
      </trkpt>
      <trkpt lat="59.846927854489" lon="17.584221461647">
        <ele>54.8</ele>
        <time>2017-10-14T16:03:10Z</time>
      </trkpt>
      <trkpt lat="59.846950904714" lon="17.584143509977">
        <ele>54.8</ele>
        <time>2017-10-14T16:03:11Z</time>
      </trkpt>
      <trkpt lat="59.846972530016" lon="17.58405608676">
        <ele>55</ele>
        <time>2017-10-14T16:03:12Z</time>
      </trkpt>
      <trkpt lat="59.846986024875" lon="17.583966065154">
        <ele>55.2</ele>
        <time>2017-10-14T16:03:13Z</time>
      </trkpt>
      <trkpt lat="59.846998430087" lon="17.58387839048">
        <ele>55.4</ele>
        <time>2017-10-14T16:03:14Z</time>
      </trkpt>
      <trkpt lat="59.847011505851" lon="17.58379708605">
        <ele>55.8</ele>
        <time>2017-10-14T16:03:15Z</time>
      </trkpt>
      <trkpt lat="59.847018965742" lon="17.583732964515">
        <ele>56</ele>
        <time>2017-10-14T16:03:16Z</time>
      </trkpt>
      <trkpt lat="59.847033969343" lon="17.583619725046">
        <ele>56</ele>
        <time>2017-10-14T16:03:17Z</time>
      </trkpt>
      <trkpt lat="59.84705349917" lon="17.583538839711">
        <ele>56.2</ele>
        <time>2017-10-14T16:03:18Z</time>
      </trkpt>
      <trkpt lat="59.847073783368" lon="17.583465330448">
        <ele>56</ele>
        <time>2017-10-14T16:03:19Z</time>
      </trkpt>
      <trkpt lat="59.847089792797" lon="17.583390228624">
        <ele>55.6</ele>
        <time>2017-10-14T16:03:20Z</time>
      </trkpt>
      <trkpt lat="59.847105047855" lon="17.583318898655">
        <ele>55.4</ele>
        <time>2017-10-14T16:03:21Z</time>
      </trkpt>
      <trkpt lat="59.847119883818" lon="17.583242791003">
        <ele>55.4</ele>
        <time>2017-10-14T16:03:22Z</time>
      </trkpt>
      <trkpt lat="59.847137485808" lon="17.583163665867">
        <ele>55.6</ele>
        <time>2017-10-14T16:03:23Z</time>
      </trkpt>
      <trkpt lat="59.847155506893" lon="17.583085798016">
        <ele>55.8</ele>
        <time>2017-10-14T16:03:24Z</time>
      </trkpt>
      <trkpt lat="59.847174030892" lon="17.583011199106">
        <ele>56</ele>
        <time>2017-10-14T16:03:25Z</time>
      </trkpt>
      <trkpt lat="59.847191968158" lon="17.582943557173">
        <ele>56.2</ele>
        <time>2017-10-14T16:03:26Z</time>
      </trkpt>
      <trkpt lat="59.847216862401" lon="17.582868958263">
        <ele>56.4</ele>
        <time>2017-10-14T16:03:27Z</time>
      </trkpt>
      <trkpt lat="59.847231866002" lon="17.582805423461">
        <ele>56.4</ele>
        <time>2017-10-14T16:03:28Z</time>
      </trkpt>
      <trkpt lat="59.847249970906" lon="17.582736440424">
        <ele>56.8</ele>
        <time>2017-10-14T16:03:29Z</time>
      </trkpt>
      <trkpt lat="59.847269249276" lon="17.582661673876">
        <ele>56.8</ele>
        <time>2017-10-14T16:03:30Z</time>
      </trkpt>
      <trkpt lat="59.847291209854" lon="17.58258422512">
        <ele>57</ele>
        <time>2017-10-14T16:03:31Z</time>
      </trkpt>
      <trkpt lat="59.847308811844" lon="17.582508368925">
        <ele>57</ele>
        <time>2017-10-14T16:03:32Z</time>
      </trkpt>
      <trkpt lat="59.847324653635" lon="17.582434692024">
        <ele>57.4</ele>
        <time>2017-10-14T16:03:33Z</time>
      </trkpt>
      <trkpt lat="59.84733680739" lon="17.582383730072">
        <ele>57.6</ele>
        <time>2017-10-14T16:03:34Z</time>
      </trkpt>
      <trkpt lat="59.847345859842" lon="17.582365373711">
        <ele>57.6</ele>
        <time>2017-10-14T16:03:35Z</time>
      </trkpt>
      <trkpt lat="59.84734602748" lon="17.582348190816">
        <ele>57.8</ele>
        <time>2017-10-14T16:03:36Z</time>
      </trkpt>
      <trkpt lat="59.847343261453" lon="17.582319776175">
        <ele>58.4</ele>
        <time>2017-10-14T16:03:37Z</time>
      </trkpt>
      <trkpt lat="59.847331610612" lon="17.582299911072">
        <ele>58.6</ele>
        <time>2017-10-14T16:03:38Z</time>
      </trkpt>
      <trkpt lat="59.847307973654" lon="17.582278872503">
        <ele>58.8</ele>
        <time>2017-10-14T16:03:39Z</time>
      </trkpt>
      <trkpt lat="59.847286432171" lon="17.582263030712">
        <ele>59.2</ele>
        <time>2017-10-14T16:03:40Z</time>
      </trkpt>
      <trkpt lat="59.847255754417" lon="17.582239142297">
        <ele>59.4</ele>
        <time>2017-10-14T16:03:41Z</time>
      </trkpt>
      <trkpt lat="59.847234464391" lon="17.582178373522">
        <ele>59.4</ele>
        <time>2017-10-14T16:03:42Z</time>
      </trkpt>
      <trkpt lat="59.847224070835" lon="17.582103523155">
        <ele>59.6</ele>
        <time>2017-10-14T16:03:43Z</time>
      </trkpt>
      <trkpt lat="59.847218874057" lon="17.582020542345">
        <ele>59.4</ele>
        <time>2017-10-14T16:03:44Z</time>
      </trkpt>
      <trkpt lat="59.847209570148" lon="17.581943764141">
        <ele>59.4</ele>
        <time>2017-10-14T16:03:45Z</time>
      </trkpt>
      <trkpt lat="59.847201523524" lon="17.581864303729">
        <ele>59.4</ele>
        <time>2017-10-14T16:03:46Z</time>
      </trkpt>
      <trkpt lat="59.847192890167" lon="17.581765564947">
        <ele>59</ele>
        <time>2017-10-14T16:03:47Z</time>
      </trkpt>
      <trkpt lat="59.847182328973" lon="17.581682835594">
        <ele>59</ele>
        <time>2017-10-14T16:03:48Z</time>
      </trkpt>
      <trkpt lat="59.847171432503" lon="17.581598681318">
        <ele>58.8</ele>
        <time>2017-10-14T16:03:49Z</time>
      </trkpt>
      <trkpt lat="59.84716581663" lon="17.581512766843">
        <ele>58.6</ele>
        <time>2017-10-14T16:03:50Z</time>
      </trkpt>
      <trkpt lat="59.847157853825" lon="17.581433725526">
        <ele>58.6</ele>
        <time>2017-10-14T16:03:51Z</time>
      </trkpt>
      <trkpt lat="59.847149555744" lon="17.581348984517">
        <ele>58.4</ele>
        <time>2017-10-14T16:03:52Z</time>
      </trkpt>
      <trkpt lat="59.847138826912" lon="17.581255442513">
        <ele>58.4</ele>
        <time>2017-10-14T16:03:53Z</time>
      </trkpt>
      <trkpt lat="59.847131199383" lon="17.581167432563">
        <ele>58.4</ele>
        <time>2017-10-14T16:03:54Z</time>
      </trkpt>
      <trkpt lat="59.847123488035" lon="17.581082440097">
        <ele>58.6</ele>
        <time>2017-10-14T16:03:55Z</time>
      </trkpt>
      <trkpt lat="59.847116614877" lon="17.581002141495">
        <ele>58.6</ele>
        <time>2017-10-14T16:03:56Z</time>
      </trkpt>
      <trkpt lat="59.847109238805" lon="17.580912706622">
        <ele>58.6</ele>
        <time>2017-10-14T16:03:57Z</time>
      </trkpt>
      <trkpt lat="59.847101527457" lon="17.580832575658">
        <ele>58.6</ele>
        <time>2017-10-14T16:03:58Z</time>
      </trkpt>
      <trkpt lat="59.847094319023" lon="17.580743056966">
        <ele>58.6</ele>
        <time>2017-10-14T16:03:59Z</time>
      </trkpt>
      <trkpt lat="59.847087948779" lon="17.580663428916">
        <ele>58.6</ele>
        <time>2017-10-14T16:04:00Z</time>
      </trkpt>
      <trkpt lat="59.847081327078" lon="17.580577514441">
        <ele>58.6</ele>
        <time>2017-10-14T16:04:01Z</time>
      </trkpt>
      <trkpt lat="59.847074118644" lon="17.580486151731">
        <ele>58.8</ele>
        <time>2017-10-14T16:04:02Z</time>
      </trkpt>
      <trkpt lat="59.847065736744" lon="17.580396968315">
        <ele>58.8</ele>
        <time>2017-10-14T16:04:03Z</time>
      </trkpt>
      <trkpt lat="59.847058276853" lon="17.580316753532">
        <ele>58.8</ele>
        <time>2017-10-14T16:04:04Z</time>
      </trkpt>
      <trkpt lat="59.847055007912" lon="17.580288506529">
        <ele>58.8</ele>
        <time>2017-10-14T16:04:05Z</time>
      </trkpt>
      <trkpt lat="59.847044698175" lon="17.580179541829">
        <ele>59</ele>
        <time>2017-10-14T16:04:06Z</time>
      </trkpt>
      <trkpt lat="59.847031287135" lon="17.580056495537">
        <ele>59</ele>
        <time>2017-10-14T16:04:07Z</time>
      </trkpt>
      <trkpt lat="59.847021731769" lon="17.579965049008">
        <ele>59</ele>
        <time>2017-10-14T16:04:08Z</time>
      </trkpt>
      <trkpt lat="59.847013601326" lon="17.579876703782">
        <ele>59.2</ele>
        <time>2017-10-14T16:04:09Z</time>
      </trkpt>
      <trkpt lat="59.847004381236" lon="17.579795818447">
        <ele>59.2</ele>
        <time>2017-10-14T16:04:10Z</time>
      </trkpt>
      <trkpt lat="59.846996418431" lon="17.579710155429">
        <ele>59.4</ele>
        <time>2017-10-14T16:04:11Z</time>
      </trkpt>
      <trkpt lat="59.846985689599" lon="17.579617619253">
        <ele>59.4</ele>
        <time>2017-10-14T16:04:12Z</time>
      </trkpt>
      <trkpt lat="59.846976637147" lon="17.579531453321">
        <ele>59.4</ele>
        <time>2017-10-14T16:04:13Z</time>
      </trkpt>
      <trkpt lat="59.84696884198" lon="17.579441264077">
        <ele>59.6</ele>
        <time>2017-10-14T16:04:14Z</time>
      </trkpt>
      <trkpt lat="59.846963393745" lon="17.579359792009">
        <ele>59.8</ele>
        <time>2017-10-14T16:04:15Z</time>
      </trkpt>
      <trkpt lat="59.846955598578" lon="17.579298185044">
        <ele>59.8</ele>
        <time>2017-10-14T16:04:16Z</time>
      </trkpt>
      <trkpt lat="59.846941433167" lon="17.579183269195">
        <ele>59.8</ele>
        <time>2017-10-14T16:04:17Z</time>
      </trkpt>
      <trkpt lat="59.846930788154" lon="17.579095007788">
        <ele>60</ele>
        <time>2017-10-14T16:04:18Z</time>
      </trkpt>
      <trkpt lat="59.846919891684" lon="17.579007416933">
        <ele>60.2</ele>
        <time>2017-10-14T16:04:19Z</time>
      </trkpt>
      <trkpt lat="59.846908911395" lon="17.578924352304">
        <ele>60.2</ele>
        <time>2017-10-14T16:04:20Z</time>
      </trkpt>
      <trkpt lat="59.846898014925" lon="17.578843299331">
        <ele>60.2</ele>
        <time>2017-10-14T16:04:21Z</time>
      </trkpt>
      <trkpt lat="59.846886950817" lon="17.578766102032">
        <ele>60.2</ele>
        <time>2017-10-14T16:04:22Z</time>
      </trkpt>
      <trkpt lat="59.846874294148" lon="17.578671638019">
        <ele>60.4</ele>
        <time>2017-10-14T16:04:23Z</time>
      </trkpt>
      <trkpt lat="59.846862559488" lon="17.578590501227">
        <ele>60.4</ele>
        <time>2017-10-14T16:04:24Z</time>
      </trkpt>
      <trkpt lat="59.846853423217" lon="17.578507771874">
        <ele>60.4</ele>
        <time>2017-10-14T16:04:25Z</time>
      </trkpt>
      <trkpt lat="59.846842107652" lon="17.578433592059">
        <ele>60.6</ele>
        <time>2017-10-14T16:04:26Z</time>
      </trkpt>
      <trkpt lat="59.846831965553" lon="17.578347258489">
        <ele>60.6</ele>
        <time>2017-10-14T16:04:27Z</time>
      </trkpt>
      <trkpt lat="59.846821823454" lon="17.578273330131">
        <ele>60.8</ele>
        <time>2017-10-14T16:04:28Z</time>
      </trkpt>
      <trkpt lat="59.846809502061" lon="17.57819127133">
        <ele>60.8</ele>
        <time>2017-10-14T16:04:29Z</time>
      </trkpt>
      <trkpt lat="59.846798354134" lon="17.578118851714">
        <ele>61</ele>
        <time>2017-10-14T16:04:30Z</time>
      </trkpt>
      <trkpt lat="59.846786200379" lon="17.57804542627">
        <ele>61.2</ele>
        <time>2017-10-14T16:04:31Z</time>
      </trkpt>
      <trkpt lat="59.8467743819" lon="17.577967893695">
        <ele>61.4</ele>
        <time>2017-10-14T16:04:32Z</time>
      </trkpt>
      <trkpt lat="59.846763066335" lon="17.577895809355">
        <ele>61.6</ele>
        <time>2017-10-14T16:04:33Z</time>
      </trkpt>
      <trkpt lat="59.846755690263" lon="17.57783839334">
        <ele>61.8</ele>
        <time>2017-10-14T16:04:34Z</time>
      </trkpt>
      <trkpt lat="59.846746805449" lon="17.577757675643">
        <ele>62</ele>
        <time>2017-10-14T16:04:35Z</time>
      </trkpt>
      <trkpt lat="59.846739010282" lon="17.577692464461">
        <ele>62.2</ele>
        <time>2017-10-14T16:04:36Z</time>
      </trkpt>
      <trkpt lat="59.846728532907" lon="17.577620044845">
        <ele>62.4</ele>
        <time>2017-10-14T16:04:37Z</time>
      </trkpt>
      <trkpt lat="59.84671989955" lon="17.577550726532">
        <ele>62.6</ele>
        <time>2017-10-14T16:04:38Z</time>
      </trkpt>
      <trkpt lat="59.846711350012" lon="17.577486856454">
        <ele>62.8</ele>
        <time>2017-10-14T16:04:39Z</time>
      </trkpt>
      <trkpt lat="59.846701207913" lon="17.577423573109">
        <ele>63</ele>
        <time>2017-10-14T16:04:40Z</time>
      </trkpt>
      <trkpt lat="59.84669643023" lon="17.577354338615">
        <ele>63.2</ele>
        <time>2017-10-14T16:04:41Z</time>
      </trkpt>
      <trkpt lat="59.846689221796" lon="17.577275381117">
        <ele>63.2</ele>
        <time>2017-10-14T16:04:42Z</time>
      </trkpt>
      <trkpt lat="59.846680839896" lon="17.57720053075">
        <ele>63.4</ele>
        <time>2017-10-14T16:04:43Z</time>
      </trkpt>
      <trkpt lat="59.846674721109" lon="17.577127105306">
        <ele>63.6</ele>
        <time>2017-10-14T16:04:44Z</time>
      </trkpt>
      <trkpt lat="59.846670027245" lon="17.577055859156">
        <ele>63.6</ele>
        <time>2017-10-14T16:04:45Z</time>
      </trkpt>
      <trkpt lat="59.846665249562" lon="17.576990061241">
        <ele>63.6</ele>
        <time>2017-10-14T16:04:46Z</time>
      </trkpt>
      <trkpt lat="59.846658627861" lon="17.576903560033">
        <ele>63.8</ele>
        <time>2017-10-14T16:04:47Z</time>
      </trkpt>
      <trkpt lat="59.846659298413" lon="17.576822255603">
        <ele>64</ele>
        <time>2017-10-14T16:04:48Z</time>
      </trkpt>
      <trkpt lat="59.846659633689" lon="17.576746734684">
        <ele>64.2</ele>
        <time>2017-10-14T16:04:49Z</time>
      </trkpt>
      <trkpt lat="59.846659633689" lon="17.576673141602">
        <ele>64.4</ele>
        <time>2017-10-14T16:04:50Z</time>
      </trkpt>
      <trkpt lat="59.846657622033" lon="17.576611786094">
        <ele>64.8</ele>
        <time>2017-10-14T16:04:51Z</time>
      </trkpt>
      <trkpt lat="59.846650162142" lon="17.576556717011">
        <ele>65</ele>
        <time>2017-10-14T16:04:52Z</time>
      </trkpt>
      <trkpt lat="59.846640103862" lon="17.576489326535">
        <ele>65.2</ele>
        <time>2017-10-14T16:04:53Z</time>
      </trkpt>
      <trkpt lat="59.846631470505" lon="17.57642855776">
        <ele>65.4</ele>
        <time>2017-10-14T16:04:54Z</time>
      </trkpt>
      <trkpt lat="59.846618143284" lon="17.576374410686">
        <ele>65.8</ele>
        <time>2017-10-14T16:04:55Z</time>
      </trkpt>
      <trkpt lat="59.846606576262" lon="17.576324119286">
        <ele>66</ele>
        <time>2017-10-14T16:04:56Z</time>
      </trkpt>
      <trkpt lat="59.846596350344" lon="17.576266619452">
        <ele>66.4</ele>
        <time>2017-10-14T16:04:57Z</time>
      </trkpt>
      <trkpt lat="59.846589644824" lon="17.576220351364">
        <ele>66.6</ele>
        <time>2017-10-14T16:04:58Z</time>
      </trkpt>
      <trkpt lat="59.846578329259" lon="17.576168383584">
        <ele>66.6</ele>
        <time>2017-10-14T16:04:59Z</time>
      </trkpt>
      <trkpt lat="59.84656734897" lon="17.576106944257">
        <ele>67</ele>
        <time>2017-10-14T16:05:00Z</time>
      </trkpt>
      <trkpt lat="59.846554692301" lon="17.576050114975">
        <ele>67.2</ele>
        <time>2017-10-14T16:05:01Z</time>
      </trkpt>
      <trkpt lat="59.846542706184" lon="17.575977862997">
        <ele>67.4</ele>
        <time>2017-10-14T16:05:02Z</time>
      </trkpt>
      <trkpt lat="59.846530720067" lon="17.575908628503">
        <ele>67.4</ele>
        <time>2017-10-14T16:05:03Z</time>
      </trkpt>
      <trkpt lat="59.846522757262" lon="17.57583595743">
        <ele>67.6</ele>
        <time>2017-10-14T16:05:04Z</time>
      </trkpt>
      <trkpt lat="59.846513285715" lon="17.575764124547">
        <ele>67.6</ele>
        <time>2017-10-14T16:05:05Z</time>
      </trkpt>
      <trkpt lat="59.84650280834" lon="17.575692207845">
        <ele>67.8</ele>
        <time>2017-10-14T16:05:06Z</time>
      </trkpt>
      <trkpt lat="59.846491492775" lon="17.575620877876">
        <ele>67.8</ele>
        <time>2017-10-14T16:05:07Z</time>
      </trkpt>
      <trkpt lat="59.846478919925" lon="17.575545021681">
        <ele>67.8</ele>
        <time>2017-10-14T16:05:08Z</time>
      </trkpt>
      <trkpt lat="59.846471208577" lon="17.575475032816">
        <ele>67.8</ele>
        <time>2017-10-14T16:05:09Z</time>
      </trkpt>
      <trkpt lat="59.846463497229" lon="17.57541015691">
        <ele>67.8</ele>
        <time>2017-10-14T16:05:10Z</time>
      </trkpt>
      <trkpt lat="59.846456037338" lon="17.575350813058">
        <ele>67.8</ele>
        <time>2017-10-14T16:05:11Z</time>
      </trkpt>
      <trkpt lat="59.846442626298" lon="17.575280740374">
        <ele>68</ele>
        <time>2017-10-14T16:05:12Z</time>
      </trkpt>
      <trkpt lat="59.846434495855" lon="17.575227180033">
        <ele>68.4</ele>
        <time>2017-10-14T16:05:13Z</time>
      </trkpt>
      <trkpt lat="59.846422258281" lon="17.575174960796">
        <ele>68.6</ele>
        <time>2017-10-14T16:05:14Z</time>
      </trkpt>
      <trkpt lat="59.846405243024" lon="17.575134476219">
        <ele>69</ele>
        <time>2017-10-14T16:05:15Z</time>
      </trkpt>
      <trkpt lat="59.846389568871" lon="17.575095248927">
        <ele>69.4</ele>
        <time>2017-10-14T16:05:16Z</time>
      </trkpt>
      <trkpt lat="59.846369871406" lon="17.575046550088">
        <ele>69.6</ele>
        <time>2017-10-14T16:05:17Z</time>
      </trkpt>
      <trkpt lat="59.846349335751" lon="17.57499441467">
        <ele>69.8</ele>
        <time>2017-10-14T16:05:18Z</time>
      </trkpt>
      <trkpt lat="59.846327039897" lon="17.574957115215">
        <ele>70.2</ele>
        <time>2017-10-14T16:05:19Z</time>
      </trkpt>
      <trkpt lat="59.846300385455" lon="17.574917636466">
        <ele>70.2</ele>
        <time>2017-10-14T16:05:20Z</time>
      </trkpt>
      <trkpt lat="59.846278760153" lon="17.574871368378">
        <ele>70.4</ele>
        <time>2017-10-14T16:05:21Z</time>
      </trkpt>
      <trkpt lat="59.846259649421" lon="17.574817472761">
        <ele>70.6</ele>
        <time>2017-10-14T16:05:22Z</time>
      </trkpt>
      <trkpt lat="59.846232156789" lon="17.574768522465">
        <ele>70.6</ele>
        <time>2017-10-14T16:05:23Z</time>
      </trkpt>
      <trkpt lat="59.846205921442" lon="17.574717644332">
        <ele>70.8</ele>
        <time>2017-10-14T16:05:24Z</time>
      </trkpt>
      <trkpt lat="59.846176500973" lon="17.574667269113">
        <ele>71</ele>
        <time>2017-10-14T16:05:25Z</time>
      </trkpt>
      <trkpt lat="59.84614909216" lon="17.574620079016">
        <ele>70.8</ele>
        <time>2017-10-14T16:05:26Z</time>
      </trkpt>
      <trkpt lat="59.846120761338" lon="17.574560986621">
        <ele>70.8</ele>
        <time>2017-10-14T16:05:27Z</time>
      </trkpt>
      <trkpt lat="59.846093268706" lon="17.574510946678">
        <ele>71</ele>
        <time>2017-10-14T16:05:28Z</time>
      </trkpt>
      <trkpt lat="59.846065692255" lon="17.574461074373">
        <ele>71</ele>
        <time>2017-10-14T16:05:29Z</time>
      </trkpt>
      <trkpt lat="59.846035601234" lon="17.574404412729">
        <ele>71</ele>
        <time>2017-10-14T16:05:30Z</time>
      </trkpt>
      <trkpt lat="59.846010874629" lon="17.574346242343">
        <ele>71</ele>
        <time>2017-10-14T16:05:31Z</time>
      </trkpt>
      <trkpt lat="59.845978855771" lon="17.574281701713">
        <ele>71.2</ele>
        <time>2017-10-14T16:05:32Z</time>
      </trkpt>
      <trkpt lat="59.845949938216" lon="17.574218083092">
        <ele>71.2</ele>
        <time>2017-10-14T16:05:33Z</time>
      </trkpt>
      <trkpt lat="59.845922194127" lon="17.574151027892">
        <ele>71.2</ele>
        <time>2017-10-14T16:05:34Z</time>
      </trkpt>
      <trkpt lat="59.845888582708" lon="17.574079362647">
        <ele>71.2</ele>
        <time>2017-10-14T16:05:35Z</time>
      </trkpt>
      <trkpt lat="59.845855055108" lon="17.574007781221">
        <ele>71.2</ele>
        <time>2017-10-14T16:05:36Z</time>
      </trkpt>
      <trkpt lat="59.845821024594" lon="17.573924381316">
        <ele>71</ele>
        <time>2017-10-14T16:05:37Z</time>
      </trkpt>
      <trkpt lat="59.845789760107" lon="17.573842573972">
        <ele>70.8</ele>
        <time>2017-10-14T16:05:38Z</time>
      </trkpt>
      <trkpt lat="59.845752293014" lon="17.5737681427">
        <ele>70.2</ele>
        <time>2017-10-14T16:05:39Z</time>
      </trkpt>
      <trkpt lat="59.845716753758" lon="17.573704021165">
        <ele>70</ele>
        <time>2017-10-14T16:05:40Z</time>
      </trkpt>
      <trkpt lat="59.845685740728" lon="17.573637971793">
        <ele>69.6</ele>
        <time>2017-10-14T16:05:41Z</time>
      </trkpt>
      <trkpt lat="59.845654476241" lon="17.57357116805">
        <ele>69.6</ele>
        <time>2017-10-14T16:05:42Z</time>
      </trkpt>
      <trkpt lat="59.845629833455" lon="17.573511153646">
        <ele>69.4</ele>
        <time>2017-10-14T16:05:43Z</time>
      </trkpt>
      <trkpt lat="59.845611057999" lon="17.573459353504">
        <ele>69.2</ele>
        <time>2017-10-14T16:05:44Z</time>
      </trkpt>
      <trkpt lat="59.845591528172" lon="17.573406296077">
        <ele>69</ele>
        <time>2017-10-14T16:05:45Z</time>
      </trkpt>
      <trkpt lat="59.84557744658" lon="17.573364889491">
        <ele>69</ele>
        <time>2017-10-14T16:05:46Z</time>
      </trkpt>
      <trkpt lat="59.845548026111" lon="17.573296996101">
        <ele>69.2</ele>
        <time>2017-10-14T16:05:47Z</time>
      </trkpt>
      <trkpt lat="59.845525394981" lon="17.573239663905">
        <ele>69</ele>
        <time>2017-10-14T16:05:48Z</time>
      </trkpt>
      <trkpt lat="59.845502680032" lon="17.573185181555">
        <ele>69.2</ele>
        <time>2017-10-14T16:05:49Z</time>
      </trkpt>
      <trkpt lat="59.845480719454" lon="17.573131034481">
        <ele>69.2</ele>
        <time>2017-10-14T16:05:50Z</time>
      </trkpt>
      <trkpt lat="59.845425231276" lon="17.573047131662">
        <ele>69.2</ele>
        <time>2017-10-14T16:05:52Z</time>
      </trkpt>
      <trkpt lat="59.84539807392" lon="17.573001953221">
        <ele>69.2</ele>
        <time>2017-10-14T16:05:53Z</time>
      </trkpt>
      <trkpt lat="59.845371838573" lon="17.572948225242">
        <ele>69.4</ele>
        <time>2017-10-14T16:05:54Z</time>
      </trkpt>
      <trkpt lat="59.845341663733" lon="17.572887121191">
        <ele>69.4</ele>
        <time>2017-10-14T16:05:55Z</time>
      </trkpt>
      <trkpt lat="59.845316182757" lon="17.572818808706">
        <ele>69.2</ele>
        <time>2017-10-14T16:05:56Z</time>
      </trkpt>
      <trkpt lat="59.84528491827" lon="17.572742533416">
        <ele>69.2</ele>
        <time>2017-10-14T16:05:57Z</time>
      </trkpt>
      <trkpt lat="59.845254827249" lon="17.572679752985">
        <ele>69.2</ele>
        <time>2017-10-14T16:05:58Z</time>
      </trkpt>
      <trkpt lat="59.84521786307" lon="17.572614457984">
        <ele>69</ele>
        <time>2017-10-14T16:05:59Z</time>
      </trkpt>
      <trkpt lat="59.84518685004" lon="17.572545726404">
        <ele>68.8</ele>
        <time>2017-10-14T16:06:00Z</time>
      </trkpt>
      <trkpt lat="59.845162039616" lon="17.572478000652">
        <ele>68.8</ele>
        <time>2017-10-14T16:06:01Z</time>
      </trkpt>
      <trkpt lat="59.845138737934" lon="17.572401557724">
        <ele>68.6</ele>
        <time>2017-10-14T16:06:02Z</time>
      </trkpt>
      <trkpt lat="59.845118034641" lon="17.572335173076">
        <ele>68.6</ele>
        <time>2017-10-14T16:06:03Z</time>
      </trkpt>
      <trkpt lat="59.845098672452" lon="17.57227029717">
        <ele>68.6</ele>
        <time>2017-10-14T16:06:04Z</time>
      </trkpt>
      <trkpt lat="59.845080819005" lon="17.572211875327">
        <ele>68.8</ele>
        <time>2017-10-14T16:06:05Z</time>
      </trkpt>
      <trkpt lat="59.845060450988" lon="17.572148089068">
        <ele>69</ele>
        <time>2017-10-14T16:06:06Z</time>
      </trkpt>
      <trkpt lat="59.845038322772" lon="17.572081872058">
        <ele>69.4</ele>
        <time>2017-10-14T16:06:07Z</time>
      </trkpt>
      <trkpt lat="59.845010411045" lon="17.572031999753">
        <ele>69.8</ele>
        <time>2017-10-14T16:06:08Z</time>
      </trkpt>
      <trkpt lat="59.844982750775" lon="17.571977685041">
        <ele>70.4</ele>
        <time>2017-10-14T16:06:09Z</time>
      </trkpt>
      <trkpt lat="59.844961041654" lon="17.5719073609">
        <ele>71</ele>
        <time>2017-10-14T16:06:10Z</time>
      </trkpt>
      <trkpt lat="59.844946708605" lon="17.571832175257">
        <ele>71</ele>
        <time>2017-10-14T16:06:11Z</time>
      </trkpt>
      <trkpt lat="59.844920640896" lon="17.571747098972">
        <ele>71.4</ele>
        <time>2017-10-14T16:06:12Z</time>
      </trkpt>
      <trkpt lat="59.844898931775" lon="17.571686330197">
        <ele>71.4</ele>
        <time>2017-10-14T16:06:13Z</time>
      </trkpt>
      <trkpt lat="59.844878982853" lon="17.57163411096">
        <ele>71.6</ele>
        <time>2017-10-14T16:06:14Z</time>
      </trkpt>
      <trkpt lat="59.844857860465" lon="17.571588764881">
        <ele>71.6</ele>
        <time>2017-10-14T16:06:15Z</time>
      </trkpt>
      <trkpt lat="59.844843611235" lon="17.571520284758">
        <ele>71.6</ele>
        <time>2017-10-14T16:06:16Z</time>
      </trkpt>
      <trkpt lat="59.844836989534" lon="17.571454570662">
        <ele>71.8</ele>
        <time>2017-10-14T16:06:17Z</time>
      </trkpt>
      <trkpt lat="59.844830870747" lon="17.571376954268">
        <ele>71.8</ele>
        <time>2017-10-14T16:06:18Z</time>
      </trkpt>
      <trkpt lat="59.844831625118" lon="17.571302522996">
        <ele>71.8</ele>
        <time>2017-10-14T16:06:19Z</time>
      </trkpt>
      <trkpt lat="59.844833385317" lon="17.571235635434">
        <ele>72</ele>
        <time>2017-10-14T16:06:20Z</time>
      </trkpt>
      <trkpt lat="59.844821483019" lon="17.571173441736">
        <ele>72.2</ele>
        <time>2017-10-14T16:06:21Z</time>
      </trkpt>
      <trkpt lat="59.844797343147" lon="17.571117283006">
        <ele>72.2</ele>
        <time>2017-10-14T16:06:22Z</time>
      </trkpt>
      <trkpt lat="59.84478116608" lon="17.571055089308">
        <ele>72.4</ele>
        <time>2017-10-14T16:06:23Z</time>
      </trkpt>
      <trkpt lat="59.844759624597" lon="17.570991303049">
        <ele>72.4</ele>
        <time>2017-10-14T16:06:24Z</time>
      </trkpt>
      <trkpt lat="59.844740178589" lon="17.570912177913">
        <ele>72.4</ele>
        <time>2017-10-14T16:06:25Z</time>
      </trkpt>
      <trkpt lat="59.844722995694" lon="17.570843949247">
        <ele>72.6</ele>
        <time>2017-10-14T16:06:26Z</time>
      </trkpt>
      <trkpt lat="59.84470153803" lon="17.570766919586">
        <ele>72.6</ele>
        <time>2017-10-14T16:06:27Z</time>
      </trkpt>
      <trkpt lat="59.844677146701" lon="17.570704222974">
        <ele>72.4</ele>
        <time>2017-10-14T16:06:28Z</time>
      </trkpt>
      <trkpt lat="59.844642110359" lon="17.570650578814">
        <ele>72</ele>
        <time>2017-10-14T16:06:29Z</time>
      </trkpt>
      <trkpt lat="59.844609001854" lon="17.570614452825">
        <ele>71.6</ele>
        <time>2017-10-14T16:06:30Z</time>
      </trkpt>
      <trkpt lat="59.844579916661" lon="17.570555695706">
        <ele>71.4</ele>
        <time>2017-10-14T16:06:31Z</time>
      </trkpt>
      <trkpt lat="59.844556698798" lon="17.570471289973">
        <ele>71</ele>
        <time>2017-10-14T16:06:32Z</time>
      </trkpt>
      <trkpt lat="59.844547059613" lon="17.5703818551">
        <ele>70.8</ele>
        <time>2017-10-14T16:06:33Z</time>
      </trkpt>
      <trkpt lat="59.844539851179" lon="17.570284792698">
        <ele>70.6</ele>
        <time>2017-10-14T16:06:34Z</time>
      </trkpt>
      <trkpt lat="59.844531050184" lon="17.570192759436">
        <ele>70.4</ele>
        <time>2017-10-14T16:06:35Z</time>
      </trkpt>
      <trkpt lat="59.844511520357" lon="17.570115394499">
        <ele>70.4</ele>
        <time>2017-10-14T16:06:36Z</time>
      </trkpt>
      <trkpt lat="59.844486458476" lon="17.57003149168">
        <ele>70.2</ele>
        <time>2017-10-14T16:06:37Z</time>
      </trkpt>
      <trkpt lat="59.844463408251" lon="17.569937195305">
        <ele>70</ele>
        <time>2017-10-14T16:06:38Z</time>
      </trkpt>
      <trkpt lat="59.844435077429" lon="17.56985547178">
        <ele>70</ele>
        <time>2017-10-14T16:06:39Z</time>
      </trkpt>
      <trkpt lat="59.844402639476" lon="17.569768886753">
        <ele>69.8</ele>
        <time>2017-10-14T16:06:40Z</time>
      </trkpt>
      <trkpt lat="59.844382271459" lon="17.569705771046">
        <ele>69.8</ele>
        <time>2017-10-14T16:06:41Z</time>
      </trkpt>
      <trkpt lat="59.84435871832" lon="17.569609546834">
        <ele>69.8</ele>
        <time>2017-10-14T16:06:42Z</time>
      </trkpt>
      <trkpt lat="59.844336422466" lon="17.569520363418">
        <ele>69.6</ele>
        <time>2017-10-14T16:06:43Z</time>
      </trkpt>
      <trkpt lat="59.844313539879" lon="17.569429419803">
        <ele>69.4</ele>
        <time>2017-10-14T16:06:44Z</time>
      </trkpt>
      <trkpt lat="59.844291495482" lon="17.569349037382">
        <ele>69.2</ele>
        <time>2017-10-14T16:06:45Z</time>
      </trkpt>
      <trkpt lat="59.844268445257" lon="17.569269996065">
        <ele>69.2</ele>
        <time>2017-10-14T16:06:46Z</time>
      </trkpt>
      <trkpt lat="59.844251178543" lon="17.569173939491">
        <ele>69</ele>
        <time>2017-10-14T16:06:47Z</time>
      </trkpt>
      <trkpt lat="59.844226535757" lon="17.569084672256">
        <ele>69</ele>
        <time>2017-10-14T16:06:48Z</time>
      </trkpt>
      <trkpt lat="59.844198707849" lon="17.569015102486">
        <ele>69.2</ele>
        <time>2017-10-14T16:06:49Z</time>
      </trkpt>
      <trkpt lat="59.844163671507" lon="17.568938659558">
        <ele>69.4</ele>
        <time>2017-10-14T16:06:50Z</time>
      </trkpt>
      <trkpt lat="59.8441340834" lon="17.568866072304">
        <ele>69.6</ele>
        <time>2017-10-14T16:06:51Z</time>
      </trkpt>
      <trkpt lat="59.844099969067" lon="17.56878258858">
        <ele>69.6</ele>
        <time>2017-10-14T16:06:52Z</time>
      </trkpt>
      <trkpt lat="59.844074907186" lon="17.568724334375">
        <ele>69.6</ele>
        <time>2017-10-14T16:06:53Z</time>
      </trkpt>
      <trkpt lat="59.844050767314" lon="17.568627020516">
        <ele>69.8</ele>
        <time>2017-10-14T16:06:54Z</time>
      </trkpt>
      <trkpt lat="59.844023023225" lon="17.568533729969">
        <ele>69.8</ele>
        <time>2017-10-14T16:06:55Z</time>
      </trkpt>
      <trkpt lat="59.844004499226" lon="17.568453850462">
        <ele>69.8</ele>
        <time>2017-10-14T16:06:56Z</time>
      </trkpt>
      <trkpt lat="59.843993770394" lon="17.568348070884">
        <ele>69.8</ele>
        <time>2017-10-14T16:06:57Z</time>
      </trkpt>
      <trkpt lat="59.844001900837" lon="17.568270957404">
        <ele>69.6</ele>
        <time>2017-10-14T16:06:58Z</time>
      </trkpt>
      <trkpt lat="59.843997123154" lon="17.568191413173">
        <ele>69.6</ele>
        <time>2017-10-14T16:06:59Z</time>
      </trkpt>
      <trkpt lat="59.843987651607" lon="17.568105498698">
        <ele>69.6</ele>
        <time>2017-10-14T16:07:00Z</time>
      </trkpt>
      <trkpt lat="59.843979102069" lon="17.568017572567">
        <ele>69.8</ele>
        <time>2017-10-14T16:07:01Z</time>
      </trkpt>
      <trkpt lat="59.843971558359" lon="17.567920510165">
        <ele>70</ele>
        <time>2017-10-14T16:07:02Z</time>
      </trkpt>
      <trkpt lat="59.843963008821" lon="17.567840630658">
        <ele>70.2</ele>
        <time>2017-10-14T16:07:03Z</time>
      </trkpt>
      <trkpt lat="59.843944149546" lon="17.5677583204">
        <ele>70.6</ele>
        <time>2017-10-14T16:07:04Z</time>
      </trkpt>
      <trkpt lat="59.843925541728" lon="17.567675507228">
        <ele>70.6</ele>
        <time>2017-10-14T16:07:05Z</time>
      </trkpt>
      <trkpt lat="59.843901150399" lon="17.567597052644">
        <ele>70.6</ele>
        <time>2017-10-14T16:07:06Z</time>
      </trkpt>
      <trkpt lat="59.843880866201" lon="17.567503175364">
        <ele>70.6</ele>
        <time>2017-10-14T16:07:07Z</time>
      </trkpt>
      <trkpt lat="59.843857732157" lon="17.567402844021">
        <ele>70.6</ele>
        <time>2017-10-14T16:07:08Z</time>
      </trkpt>
      <trkpt lat="59.843835939217" lon="17.567326904007">
        <ele>70.6</ele>
        <time>2017-10-14T16:07:09Z</time>
      </trkpt>
      <trkpt lat="59.843824958928" lon="17.567265045585">
        <ele>70.4</ele>
        <time>2017-10-14T16:07:10Z</time>
      </trkpt>
      <trkpt lat="59.843795538459" lon="17.567223638999">
        <ele>70.6</ele>
        <time>2017-10-14T16:07:11Z</time>
      </trkpt>
      <trkpt lat="59.843752455493" lon="17.567161193844">
        <ele>70.6</ele>
        <time>2017-10-14T16:07:12Z</time>
      </trkpt>
      <trkpt lat="59.843718592617" lon="17.567098413413">
        <ele>70.6</ele>
        <time>2017-10-14T16:07:13Z</time>
      </trkpt>
      <trkpt lat="59.843684897379" lon="17.567038901923">
        <ele>70.6</ele>
        <time>2017-10-14T16:07:14Z</time>
      </trkpt>
      <trkpt lat="59.843654303444" lon="17.566974445112">
        <ele>70.6</ele>
        <time>2017-10-14T16:07:15Z</time>
      </trkpt>
      <trkpt lat="59.843633516332" lon="17.566933876716">
        <ele>70.6</ele>
        <time>2017-10-14T16:07:16Z</time>
      </trkpt>
      <trkpt lat="59.843595713963" lon="17.566884339687">
        <ele>70.6</ele>
        <time>2017-10-14T16:07:17Z</time>
      </trkpt>
      <trkpt lat="59.84354986497" lon="17.566837903961">
        <ele>70.6</ele>
        <time>2017-10-14T16:07:18Z</time>
      </trkpt>
      <trkpt lat="59.843488425643" lon="17.566822313627">
        <ele>70.8</ele>
        <time>2017-10-14T16:07:19Z</time>
      </trkpt>
      <trkpt lat="59.843422711547" lon="17.566839747979">
        <ele>70.8</ele>
        <time>2017-10-14T16:07:20Z</time>
      </trkpt>
      <trkpt lat="59.84337300688" lon="17.566877550348">
        <ele>70.6</ele>
        <time>2017-10-14T16:07:21Z</time>
      </trkpt>
      <trkpt lat="59.843323050756" lon="17.566918873115">
        <ele>70.6</ele>
        <time>2017-10-14T16:07:22Z</time>
      </trkpt>
      <trkpt lat="59.84327577684" lon="17.566958351864">
        <ele>70.6</ele>
        <time>2017-10-14T16:07:23Z</time>
      </trkpt>
      <trkpt lat="59.843226491268" lon="17.567002105382">
        <ele>70.4</ele>
        <time>2017-10-14T16:07:24Z</time>
      </trkpt>
      <trkpt lat="59.843182905388" lon="17.567043092873">
        <ele>70.2</ele>
        <time>2017-10-14T16:07:25Z</time>
      </trkpt>
      <trkpt lat="59.843135882929" lon="17.56708860659">
        <ele>70</ele>
        <time>2017-10-14T16:07:26Z</time>
      </trkpt>
      <trkpt lat="59.843097493827" lon="17.567123056199">
        <ele>69.8</ele>
        <time>2017-10-14T16:07:27Z</time>
      </trkpt>
      <trkpt lat="59.843057679802" lon="17.56714727989">
        <ele>69.6</ele>
        <time>2017-10-14T16:07:28Z</time>
      </trkpt>
      <trkpt lat="59.843016105578" lon="17.567143256578">
        <ele>69.4</ele>
        <time>2017-10-14T16:07:29Z</time>
      </trkpt>
      <trkpt lat="59.842984589634" lon="17.567100760345">
        <ele>69.4</ele>
        <time>2017-10-14T16:07:30Z</time>
      </trkpt>
      <trkpt lat="59.842952319319" lon="17.567032196403">
        <ele>69.2</ele>
        <time>2017-10-14T16:07:31Z</time>
      </trkpt>
      <trkpt lat="59.842923569402" lon="17.566954160914">
        <ele>69.2</ele>
        <time>2017-10-14T16:07:32Z</time>
      </trkpt>
      <trkpt lat="59.842893394562" lon="17.566873359398">
        <ele>69.2</ele>
        <time>2017-10-14T16:07:33Z</time>
      </trkpt>
      <trkpt lat="59.84286590193" lon="17.566794653357">
        <ele>69.2</ele>
        <time>2017-10-14T16:07:34Z</time>
      </trkpt>
      <trkpt lat="59.842847126474" lon="17.566735644781">
        <ele>69.2</ele>
        <time>2017-10-14T16:07:35Z</time>
      </trkpt>
      <trkpt lat="59.842818795652" lon="17.566672948169">
        <ele>69.2</ele>
        <time>2017-10-14T16:07:36Z</time>
      </trkpt>
      <trkpt lat="59.842784429862" lon="17.566615951249">
        <ele>69.2</ele>
        <time>2017-10-14T16:07:37Z</time>
      </trkpt>
      <trkpt lat="59.842747465683" lon="17.566544872737">
        <ele>69.4</ele>
        <time>2017-10-14T16:07:38Z</time>
      </trkpt>
      <trkpt lat="59.842719637775" lon="17.56647002237">
        <ele>69.4</ele>
        <time>2017-10-14T16:07:39Z</time>
      </trkpt>
      <trkpt lat="59.842697509559" lon="17.566384275533">
        <ele>69.6</ele>
        <time>2017-10-14T16:07:40Z</time>
      </trkpt>
      <trkpt lat="59.842673369687" lon="17.566284279466">
        <ele>69.4</ele>
        <time>2017-10-14T16:07:41Z</time>
      </trkpt>
      <trkpt lat="59.842650319462" lon="17.566193168213">
        <ele>69.4</ele>
        <time>2017-10-14T16:07:42Z</time>
      </trkpt>
      <trkpt lat="59.842630035264" lon="17.566103062788">
        <ele>69.4</ele>
        <time>2017-10-14T16:07:43Z</time>
      </trkpt>
      <trkpt lat="59.842610673075" lon="17.566020920168">
        <ele>69.2</ele>
        <time>2017-10-14T16:07:44Z</time>
      </trkpt>
      <trkpt lat="59.842594747465" lon="17.565968617112">
        <ele>69</ele>
        <time>2017-10-14T16:07:45Z</time>
      </trkpt>
      <trkpt lat="59.84256331534" lon="17.56588831851">
        <ele>68.6</ele>
        <time>2017-10-14T16:07:46Z</time>
      </trkpt>
      <trkpt lat="59.842537750545" lon="17.565835177264">
        <ele>68.2</ele>
        <time>2017-10-14T16:07:47Z</time>
      </trkpt>
      <trkpt lat="59.84251134756" lon="17.565799386551">
        <ele>68</ele>
        <time>2017-10-14T16:07:48Z</time>
      </trkpt>
      <trkpt lat="59.842484022566" lon="17.565791759022">
        <ele>67.8</ele>
        <time>2017-10-14T16:07:49Z</time>
      </trkpt>
      <trkpt lat="59.842459547418" lon="17.565804415691">
        <ele>67.6</ele>
        <time>2017-10-14T16:07:50Z</time>
      </trkpt>
      <trkpt lat="59.842431216596" lon="17.565833752341">
        <ele>67.4</ele>
        <time>2017-10-14T16:07:51Z</time>
      </trkpt>
      <trkpt lat="59.84239651553" lon="17.565880439524">
        <ele>67</ele>
        <time>2017-10-14T16:07:52Z</time>
      </trkpt>
      <trkpt lat="59.842368436165" lon="17.565933496951">
        <ele>66.8</ele>
        <time>2017-10-14T16:07:53Z</time>
      </trkpt>
      <trkpt lat="59.842339686248" lon="17.565981692876">
        <ele>66.6</ele>
        <time>2017-10-14T16:07:54Z</time>
      </trkpt>
      <trkpt lat="59.84231437291" lon="17.566032654828">
        <ele>66.2</ele>
        <time>2017-10-14T16:07:55Z</time>
      </trkpt>
      <trkpt lat="59.842289813943" lon="17.566089148834">
        <ele>66</ele>
        <time>2017-10-14T16:07:56Z</time>
      </trkpt>
      <trkpt lat="59.842263830053" lon="17.566150588161">
        <ele>65.6</ele>
        <time>2017-10-14T16:07:57Z</time>
      </trkpt>
      <trkpt lat="59.842237929982" lon="17.56621772718">
        <ele>65.2</ele>
        <time>2017-10-14T16:07:58Z</time>
      </trkpt>
      <trkpt lat="59.842213706291" lon="17.566306910596">
        <ele>64.8</ele>
        <time>2017-10-14T16:07:59Z</time>
      </trkpt>
      <trkpt lat="59.842190488428" lon="17.56638871794">
        <ele>64.4</ele>
        <time>2017-10-14T16:08:00Z</time>
      </trkpt>
      <trkpt lat="59.84216852785" lon="17.56649516807">
        <ele>64</ele>
        <time>2017-10-14T16:08:01Z</time>
      </trkpt>
      <trkpt lat="59.842158804846" lon="17.566596924336">
        <ele>63.4</ele>
        <time>2017-10-14T16:08:02Z</time>
      </trkpt>
      <trkpt lat="59.842155955" lon="17.566693148548">
        <ele>62.8</ele>
        <time>2017-10-14T16:08:03Z</time>
      </trkpt>
      <trkpt lat="59.842155619724" lon="17.56678937276">
        <ele>62.2</ele>
        <time>2017-10-14T16:08:04Z</time>
      </trkpt>
      <trkpt lat="59.842154865353" lon="17.566887692447">
        <ele>61.6</ele>
        <time>2017-10-14T16:08:05Z</time>
      </trkpt>
      <trkpt lat="59.842161235597" lon="17.566989364894">
        <ele>61</ele>
        <time>2017-10-14T16:08:06Z</time>
      </trkpt>
      <trkpt lat="59.842167102927" lon="17.567109980435">
        <ele>60.6</ele>
        <time>2017-10-14T16:08:07Z</time>
      </trkpt>
      <trkpt lat="59.842171964429" lon="17.567216765841">
        <ele>60</ele>
        <time>2017-10-14T16:08:08Z</time>
      </trkpt>
      <trkpt lat="59.842175820103" lon="17.567304608153">
        <ele>59.8</ele>
        <time>2017-10-14T16:08:09Z</time>
      </trkpt>
      <trkpt lat="59.842184285822" lon="17.567445926987">
        <ele>59.4</ele>
        <time>2017-10-14T16:08:10Z</time>
      </trkpt>
      <trkpt lat="59.842186381297" lon="17.567587664916">
        <ele>59</ele>
        <time>2017-10-14T16:08:11Z</time>
      </trkpt>
      <trkpt lat="59.842193841188" lon="17.567709873018">
        <ele>58.4</ele>
        <time>2017-10-14T16:08:12Z</time>
      </trkpt>
      <trkpt lat="59.842200546708" lon="17.567835098604">
        <ele>57.8</ele>
        <time>2017-10-14T16:08:13Z</time>
      </trkpt>
      <trkpt lat="59.842203061278" lon="17.567938363612">
        <ele>57.2</ele>
        <time>2017-10-14T16:08:14Z</time>
      </trkpt>
      <trkpt lat="59.842206414038" lon="17.568044646104">
        <ele>57</ele>
        <time>2017-10-14T16:08:15Z</time>
      </trkpt>
      <trkpt lat="59.842207336047" lon="17.568160819238">
        <ele>56.6</ele>
        <time>2017-10-14T16:08:16Z</time>
      </trkpt>
      <trkpt lat="59.842209515341" lon="17.568256791993">
        <ele>56.4</ele>
        <time>2017-10-14T16:08:17Z</time>
      </trkpt>
      <trkpt lat="59.842206078762" lon="17.568331055627">
        <ele>56.4</ele>
        <time>2017-10-14T16:08:18Z</time>
      </trkpt>
      <trkpt lat="59.842201887812" lon="17.568422418337">
        <ele>56.2</ele>
        <time>2017-10-14T16:08:19Z</time>
      </trkpt>
      <trkpt lat="59.842201468717" lon="17.568501878749">
        <ele>56.4</ele>
        <time>2017-10-14T16:08:20Z</time>
      </trkpt>
      <trkpt lat="59.842197613043" lon="17.568571616157">
        <ele>56.4</ele>
        <time>2017-10-14T16:08:21Z</time>
      </trkpt>
      <trkpt lat="59.842193505912" lon="17.568658452641">
        <ele>56.8</ele>
        <time>2017-10-14T16:08:22Z</time>
      </trkpt>
      <trkpt lat="59.842184704917" lon="17.568756017957">
        <ele>57</ele>
        <time>2017-10-14T16:08:23Z</time>
      </trkpt>
      <trkpt lat="59.842169449859" lon="17.568847548305">
        <ele>57.2</ele>
        <time>2017-10-14T16:08:24Z</time>
      </trkpt>
      <trkpt lat="59.842154110982" lon="17.568931283486">
        <ele>57.4</ele>
        <time>2017-10-14T16:08:25Z</time>
      </trkpt>
      <trkpt lat="59.842131060757" lon="17.569019544893">
        <ele>57.4</ele>
        <time>2017-10-14T16:08:26Z</time>
      </trkpt>
      <trkpt lat="59.842112536758" lon="17.569085761903">
        <ele>57.2</ele>
        <time>2017-10-14T16:08:27Z</time>
      </trkpt>
      <trkpt lat="59.842096862605" lon="17.56915223037">
        <ele>57</ele>
        <time>2017-10-14T16:08:28Z</time>
      </trkpt>
      <trkpt lat="59.842078506244" lon="17.569226913099">
        <ele>57</ele>
        <time>2017-10-14T16:08:29Z</time>
      </trkpt>
      <trkpt lat="59.842065095204" lon="17.569303272208">
        <ele>56.8</ele>
        <time>2017-10-14T16:08:30Z</time>
      </trkpt>
      <trkpt lat="59.842052103259" lon="17.569397736221">
        <ele>56.6</ele>
        <time>2017-10-14T16:08:31Z</time>
      </trkpt>
      <trkpt lat="59.842043888997" lon="17.569482561049">
        <ele>56.2</ele>
        <time>2017-10-14T16:08:32Z</time>
      </trkpt>
      <trkpt lat="59.842040955332" lon="17.569542407815">
        <ele>55.8</ele>
        <time>2017-10-14T16:08:33Z</time>
      </trkpt>
      <trkpt lat="59.842038021667" lon="17.569588256808">
        <ele>55.6</ele>
        <time>2017-10-14T16:08:34Z</time>
      </trkpt>
      <trkpt lat="59.842034585088" lon="17.569627903195">
        <ele>55.4</ele>
        <time>2017-10-14T16:08:35Z</time>
      </trkpt>
      <trkpt lat="59.842029304491" lon="17.569660676424">
        <ele>55</ele>
        <time>2017-10-14T16:08:36Z</time>
      </trkpt>
      <trkpt lat="59.842020503496" lon="17.569687749961">
        <ele>54.6</ele>
        <time>2017-10-14T16:08:37Z</time>
      </trkpt>
      <trkpt lat="59.842007679189" lon="17.569708620892">
        <ele>54.6</ele>
        <time>2017-10-14T16:08:38Z</time>
      </trkpt>
      <trkpt lat="59.841992340312" lon="17.569715829326">
        <ele>54.4</ele>
        <time>2017-10-14T16:08:39Z</time>
      </trkpt>
      <trkpt lat="59.841979516005" lon="17.569715074955">
        <ele>54.2</ele>
        <time>2017-10-14T16:08:40Z</time>
      </trkpt>
      <trkpt lat="59.84195898035" lon="17.569719852638">
        <ele>54.2</ele>
        <time>2017-10-14T16:08:41Z</time>
      </trkpt>
      <trkpt lat="59.84193718741" lon="17.569718092439">
        <ele>54.2</ele>
        <time>2017-10-14T16:08:42Z</time>
      </trkpt>
      <trkpt lat="59.841913885728" lon="17.569712308928">
        <ele>54</ele>
        <time>2017-10-14T16:08:43Z</time>
      </trkpt>
      <trkpt lat="59.841883291793" lon="17.569698646431">
        <ele>54</ele>
        <time>2017-10-14T16:08:44Z</time>
      </trkpt>
      <trkpt lat="59.841865605984" lon="17.569675931482">
        <ele>54</ele>
        <time>2017-10-14T16:08:45Z</time>
      </trkpt>
      <trkpt lat="59.841839286818" lon="17.569615330345">
        <ele>54</ele>
        <time>2017-10-14T16:08:46Z</time>
      </trkpt>
      <trkpt lat="59.841822523018" lon="17.569553388104">
        <ele>54</ele>
        <time>2017-10-14T16:08:47Z</time>
      </trkpt>
      <trkpt lat="59.841814979308" lon="17.569485075619">
        <ele>54</ele>
        <time>2017-10-14T16:08:48Z</time>
      </trkpt>
      <trkpt lat="59.841808609064" lon="17.569411650175">
        <ele>54</ele>
        <time>2017-10-14T16:08:49Z</time>
      </trkpt>
      <trkpt lat="59.841814392575" lon="17.569344930251">
        <ele>54</ele>
        <time>2017-10-14T16:08:50Z</time>
      </trkpt>
      <trkpt lat="59.841822103923" lon="17.569282820372">
        <ele>54</ele>
        <time>2017-10-14T16:08:51Z</time>
      </trkpt>
      <trkpt lat="59.841826965425" lon="17.569221213407">
        <ele>54.2</ele>
        <time>2017-10-14T16:08:52Z</time>
      </trkpt>
      <trkpt lat="59.841840041189" lon="17.56917150874">
        <ele>54.2</ele>
        <time>2017-10-14T16:08:53Z</time>
      </trkpt>
      <trkpt lat="59.841848423089" lon="17.569118116037">
        <ele>54.4</ele>
        <time>2017-10-14T16:08:54Z</time>
      </trkpt>
      <trkpt lat="59.841860744482" lon="17.569071009759">
        <ele>54.6</ele>
        <time>2017-10-14T16:08:55Z</time>
      </trkpt>
      <trkpt lat="59.841866863269" lon="17.569013593744">
        <ele>54.6</ele>
        <time>2017-10-14T16:08:56Z</time>
      </trkpt>
      <trkpt lat="59.841869042563" lon="17.568962883249">
        <ele>55</ele>
        <time>2017-10-14T16:08:57Z</time>
      </trkpt>
      <trkpt lat="59.841868120554" lon="17.568918794455">
        <ele>55.2</ele>
        <time>2017-10-14T16:08:58Z</time>
      </trkpt>
      <trkpt lat="59.841865186889" lon="17.568874202747">
        <ele>55.6</ele>
        <time>2017-10-14T16:08:59Z</time>
      </trkpt>
      <trkpt lat="59.841861247396" lon="17.568831035962">
        <ele>55.8</ele>
        <time>2017-10-14T16:09:00Z</time>
      </trkpt>
      <trkpt lat="59.841853116953" lon="17.568783678227">
        <ele>56.2</ele>
        <time>2017-10-14T16:09:01Z</time>
      </trkpt>
      <trkpt lat="59.841857391722" lon="17.568744199478">
        <ele>56.6</ele>
        <time>2017-10-14T16:09:02Z</time>
      </trkpt>
      <trkpt lat="59.841849428917" lon="17.568709330774">
        <ele>57</ele>
        <time>2017-10-14T16:09:03Z</time>
      </trkpt>
      <trkpt lat="59.841839873551" lon="17.56868284397">
        <ele>57.2</ele>
        <time>2017-10-14T16:09:04Z</time>
      </trkpt>
      <trkpt lat="59.84183073728" lon="17.568657949727">
        <ele>57.8</ele>
        <time>2017-10-14T16:09:05Z</time>
      </trkpt>
      <trkpt lat="59.841821852466" lon="17.568634731864">
        <ele>58.2</ele>
        <time>2017-10-14T16:09:06Z</time>
      </trkpt>
      <trkpt lat="59.841810704539" lon="17.568605479033">
        <ele>58.4</ele>
        <time>2017-10-14T16:09:07Z</time>
      </trkpt>
      <trkpt lat="59.841800981535" lon="17.56857471746">
        <ele>58.8</ele>
        <time>2017-10-14T16:09:08Z</time>
      </trkpt>
      <trkpt lat="59.841787402857" lon="17.568546219">
        <ele>59</ele>
        <time>2017-10-14T16:09:09Z</time>
      </trkpt>
      <trkpt lat="59.841776506387" lon="17.568515876522">
        <ele>59.2</ele>
        <time>2017-10-14T16:09:10Z</time>
      </trkpt>
      <trkpt lat="59.841763598261" lon="17.568469692253">
        <ele>59.4</ele>
        <time>2017-10-14T16:09:11Z</time>
      </trkpt>
      <trkpt lat="59.841753372343" lon="17.568436248472">
        <ele>59.6</ele>
        <time>2017-10-14T16:09:12Z</time>
      </trkpt>
      <trkpt lat="59.841742811149" lon="17.568403223786">
        <ele>59.8</ele>
        <time>2017-10-14T16:09:13Z</time>
      </trkpt>
      <trkpt lat="59.841734680706" lon="17.568368187444">
        <ele>59.8</ele>
        <time>2017-10-14T16:09:14Z</time>
      </trkpt>
      <trkpt lat="59.841722778408" lon="17.568329379247">
        <ele>60</ele>
        <time>2017-10-14T16:09:15Z</time>
      </trkpt>
      <trkpt lat="59.841713223042" lon="17.568286715376">
        <ele>60</ele>
        <time>2017-10-14T16:09:16Z</time>
      </trkpt>
      <trkpt lat="59.841706014608" lon="17.568238100356">
        <ele>60.2</ele>
        <time>2017-10-14T16:09:17Z</time>
      </trkpt>
      <trkpt lat="59.841700231097" lon="17.568200130349">
        <ele>60.4</ele>
        <time>2017-10-14T16:09:18Z</time>
      </trkpt>
      <trkpt lat="59.841695872509" lon="17.568163082351">
        <ele>60.6</ele>
        <time>2017-10-14T16:09:19Z</time>
      </trkpt>
      <trkpt lat="59.841693860853" lon="17.568136008814">
        <ele>61</ele>
        <time>2017-10-14T16:09:20Z</time>
      </trkpt>
      <trkpt lat="59.841693106482" lon="17.568105498698">
        <ele>61.4</ele>
        <time>2017-10-14T16:09:21Z</time>
      </trkpt>
      <trkpt lat="59.841690424274" lon="17.568072725469">
        <ele>62</ele>
        <time>2017-10-14T16:09:22Z</time>
      </trkpt>
      <trkpt lat="59.841685646591" lon="17.568035342195">
        <ele>62.4</ele>
        <time>2017-10-14T16:09:23Z</time>
      </trkpt>
      <trkpt lat="59.841685227496" lon="17.568006340821">
        <ele>63</ele>
        <time>2017-10-14T16:09:24Z</time>
      </trkpt>
      <trkpt lat="59.841683802573" lon="17.567981027483">
        <ele>63.4</ele>
        <time>2017-10-14T16:09:25Z</time>
      </trkpt>
      <trkpt lat="59.841685143677" lon="17.567945655865">
        <ele>63.6</ele>
        <time>2017-10-14T16:09:26Z</time>
      </trkpt>
      <trkpt lat="59.841685143677" lon="17.567906763849">
        <ele>64</ele>
        <time>2017-10-14T16:09:27Z</time>
      </trkpt>
      <trkpt lat="59.841686233324" lon="17.567872900973">
        <ele>64.2</ele>
        <time>2017-10-14T16:09:28Z</time>
      </trkpt>
      <trkpt lat="59.841693357939" lon="17.56782705198">
        <ele>64.4</ele>
        <time>2017-10-14T16:09:29Z</time>
      </trkpt>
      <trkpt lat="59.841696123966" lon="17.567792015638">
        <ele>64.4</ele>
        <time>2017-10-14T16:09:30Z</time>
      </trkpt>
      <trkpt lat="59.841699728183" lon="17.567756727839">
        <ele>64.6</ele>
        <time>2017-10-14T16:09:31Z</time>
      </trkpt>
      <trkpt lat="59.841699812002" lon="17.567715069796">
        <ele>64.8</ele>
        <time>2017-10-14T16:09:32Z</time>
      </trkpt>
      <trkpt lat="59.841701069287" lon="17.567676848332">
        <ele>65</ele>
        <time>2017-10-14T16:09:33Z</time>
      </trkpt>
      <trkpt lat="59.841701823658" lon="17.567643907465">
        <ele>65.2</ele>
        <time>2017-10-14T16:09:34Z</time>
      </trkpt>
      <trkpt lat="59.84170165602" lon="17.567609374037">
        <ele>65.4</ele>
        <time>2017-10-14T16:09:35Z</time>
      </trkpt>
      <trkpt lat="59.841700985468" lon="17.567567045442">
        <ele>65.6</ele>
        <time>2017-10-14T16:09:36Z</time>
      </trkpt>
      <trkpt lat="59.841700985468" lon="17.567522202277">
        <ele>65.8</ele>
        <time>2017-10-14T16:09:37Z</time>
      </trkpt>
      <trkpt lat="59.84169997964" lon="17.567467217013">
        <ele>66</ele>
        <time>2017-10-14T16:09:38Z</time>
      </trkpt>
      <trkpt lat="59.84169830326" lon="17.567404101306">
        <ele>66.4</ele>
        <time>2017-10-14T16:09:39Z</time>
      </trkpt>
      <trkpt lat="59.841698470898" lon="17.567360431607">
        <ele>66.6</ele>
        <time>2017-10-14T16:09:40Z</time>
      </trkpt>
      <trkpt lat="59.841697800346" lon="17.567274014218">
        <ele>66.6</ele>
        <time>2017-10-14T16:09:41Z</time>
      </trkpt>
      <trkpt lat="59.841698554717" lon="17.567206288466">
        <ele>66.8</ele>
        <time>2017-10-14T16:09:42Z</time>
      </trkpt>
      <trkpt lat="59.841699057631" lon="17.567135796687">
        <ele>66.8</ele>
        <time>2017-10-14T16:09:43Z</time>
      </trkpt>
      <trkpt lat="59.841694782862" lon="17.567069244401">
        <ele>66.6</ele>
        <time>2017-10-14T16:09:44Z</time>
      </trkpt>
      <trkpt lat="59.841697045975" lon="17.567009984368">
        <ele>66.6</ele>
        <time>2017-10-14T16:09:45Z</time>
      </trkpt>
      <trkpt lat="59.841695201957" lon="17.566950221421">
        <ele>66.6</ele>
        <time>2017-10-14T16:09:46Z</time>
      </trkpt>
      <trkpt lat="59.841694363767" lon="17.566892889225">
        <ele>66.6</ele>
        <time>2017-10-14T16:09:47Z</time>
      </trkpt>
      <trkpt lat="59.841694279948" lon="17.566832874821">
        <ele>66.6</ele>
        <time>2017-10-14T16:09:48Z</time>
      </trkpt>
      <trkpt lat="59.841695285776" lon="17.56676757982">
        <ele>66.8</ele>
        <time>2017-10-14T16:09:49Z</time>
      </trkpt>
      <trkpt lat="59.841691011007" lon="17.566699434973">
        <ele>67</ele>
        <time>2017-10-14T16:09:50Z</time>
      </trkpt>
      <trkpt lat="59.841690843369" lon="17.566634726705">
        <ele>67</ele>
        <time>2017-10-14T16:09:51Z</time>
      </trkpt>
      <trkpt lat="59.841686149505" lon="17.56656725241">
        <ele>67.2</ele>
        <time>2017-10-14T16:09:52Z</time>
      </trkpt>
      <trkpt lat="59.841675169216" lon="17.566499778115">
        <ele>67.2</ele>
        <time>2017-10-14T16:09:53Z</time>
      </trkpt>
      <trkpt lat="59.841660081796" lon="17.566434064019">
        <ele>67.4</ele>
        <time>2017-10-14T16:09:54Z</time>
      </trkpt>
      <trkpt lat="59.841643485634" lon="17.566382599153">
        <ele>67.4</ele>
        <time>2017-10-14T16:09:55Z</time>
      </trkpt>
      <trkpt lat="59.841624710178" lon="17.566333229762">
        <ele>67.4</ele>
        <time>2017-10-14T16:09:56Z</time>
      </trkpt>
      <trkpt lat="59.841602917238" lon="17.566295762669">
        <ele>67.4</ele>
        <time>2017-10-14T16:09:57Z</time>
      </trkpt>
      <trkpt lat="59.841577687719" lon="17.566258630852">
        <ele>67.4</ele>
        <time>2017-10-14T16:09:58Z</time>
      </trkpt>
      <trkpt lat="59.841547512879" lon="17.566237508464">
        <ele>67.6</ele>
        <time>2017-10-14T16:09:59Z</time>
      </trkpt>
      <trkpt lat="59.841521864265" lon="17.56623197641">
        <ele>67.8</ele>
        <time>2017-10-14T16:10:00Z</time>
      </trkpt>
      <trkpt lat="59.841495880375" lon="17.566244046346">
        <ele>68</ele>
        <time>2017-10-14T16:10:01Z</time>
      </trkpt>
      <trkpt lat="59.841476434367" lon="17.566258295576">
        <ele>68.4</ele>
        <time>2017-10-14T16:10:02Z</time>
      </trkpt>
      <trkpt lat="59.841452797409" lon="17.566270616969">
        <ele>68.6</ele>
        <time>2017-10-14T16:10:03Z</time>
      </trkpt>
      <trkpt lat="59.841432680849" lon="17.56628142962">
        <ele>68.8</ele>
        <time>2017-10-14T16:10:04Z</time>
      </trkpt>
      <trkpt lat="59.841409211529" lon="17.566294589203">
        <ele>69</ele>
        <time>2017-10-14T16:10:05Z</time>
      </trkpt>
      <trkpt lat="59.841390855168" lon="17.566314035211">
        <ele>69.2</ele>
        <time>2017-10-14T16:10:06Z</time>
      </trkpt>
      <trkpt lat="59.841365625649" lon="17.566338929454">
        <ele>69.4</ele>
        <time>2017-10-14T16:10:07Z</time>
      </trkpt>
      <trkpt lat="59.841339641759" lon="17.566361392946">
        <ele>69.4</ele>
        <time>2017-10-14T16:10:08Z</time>
      </trkpt>
      <trkpt lat="59.84132363233" lon="17.566390729596">
        <ele>69.6</ele>
        <time>2017-10-14T16:10:09Z</time>
      </trkpt>
      <trkpt lat="59.84130854491" lon="17.566412773993">
        <ele>69.8</ele>
        <time>2017-10-14T16:10:10Z</time>
      </trkpt>
      <trkpt lat="59.841288344531" lon="17.566457533339">
        <ele>70</ele>
        <time>2017-10-14T16:10:11Z</time>
      </trkpt>
      <trkpt lat="59.841271077817" lon="17.566491396215">
        <ele>70.2</ele>
        <time>2017-10-14T16:10:12Z</time>
      </trkpt>
      <trkpt lat="59.841258504967" lon="17.566526935471">
        <ele>70.4</ele>
        <time>2017-10-14T16:10:13Z</time>
      </trkpt>
      <trkpt lat="59.841245848298" lon="17.566566749496">
        <ele>70.6</ele>
        <time>2017-10-14T16:10:14Z</time>
      </trkpt>
      <trkpt lat="59.841235454742" lon="17.566597091974">
        <ele>71</ele>
        <time>2017-10-14T16:10:15Z</time>
      </trkpt>
      <trkpt lat="59.841224222996" lon="17.56663346942">
        <ele>71.4</ele>
        <time>2017-10-14T16:10:16Z</time>
      </trkpt>
      <trkpt lat="59.841212655974" lon="17.566675211282">
        <ele>71.6</ele>
        <time>2017-10-14T16:10:17Z</time>
      </trkpt>
      <trkpt lat="59.841198574382" lon="17.566715360583">
        <ele>72</ele>
        <time>2017-10-14T16:10:18Z</time>
      </trkpt>
      <trkpt lat="59.841178374003" lon="17.566759784653">
        <ele>72.2</ele>
        <time>2017-10-14T16:10:19Z</time>
      </trkpt>
      <trkpt lat="59.841158257443" lon="17.566803873447">
        <ele>72.4</ele>
        <time>2017-10-14T16:10:20Z</time>
      </trkpt>
      <trkpt lat="59.841135626313" lon="17.566846537318">
        <ele>72.4</ele>
        <time>2017-10-14T16:10:21Z</time>
      </trkpt>
      <trkpt lat="59.841105786749" lon="17.56687989728">
        <ele>72.6</ele>
        <time>2017-10-14T16:10:22Z</time>
      </trkpt>
      <trkpt lat="59.841069828398" lon="17.566912921966">
        <ele>72.8</ele>
        <time>2017-10-14T16:10:23Z</time>
      </trkpt>
      <trkpt lat="59.841030852563" lon="17.566945108462">
        <ele>72.6</ele>
        <time>2017-10-14T16:10:24Z</time>
      </trkpt>
      <trkpt lat="59.84099506185" lon="17.566970924714">
        <ele>72.6</ele>
        <time>2017-10-14T16:10:25Z</time>
      </trkpt>
      <trkpt lat="59.840956672748" lon="17.566999087898">
        <ele>72.6</ele>
        <time>2017-10-14T16:10:26Z</time>
      </trkpt>
      <trkpt lat="59.840924318614" lon="17.567043931063">
        <ele>72.6</ele>
        <time>2017-10-14T16:10:27Z</time>
      </trkpt>
      <trkpt lat="59.840902944769" lon="17.567094138644">
        <ele>72.4</ele>
        <time>2017-10-14T16:10:28Z</time>
      </trkpt>
      <trkpt lat="59.840877128517" lon="17.567157002894">
        <ele>72.2</ele>
        <time>2017-10-14T16:10:29Z</time>
      </trkpt>
      <trkpt lat="59.840855419396" lon="17.567224309551">
        <ele>72.2</ele>
        <time>2017-10-14T16:10:30Z</time>
      </trkpt>
      <trkpt lat="59.840825998927" lon="17.5673056978">
        <ele>72.2</ele>
        <time>2017-10-14T16:10:31Z</time>
      </trkpt>
      <trkpt lat="59.840797751924" lon="17.56737526757">
        <ele>72.2</ele>
        <time>2017-10-14T16:10:32Z</time>
      </trkpt>
      <trkpt lat="59.840768499093" lon="17.567444334426">
        <ele>72</ele>
        <time>2017-10-14T16:10:33Z</time>
      </trkpt>
      <trkpt lat="59.840739330081" lon="17.567514826205">
        <ele>72</ele>
        <time>2017-10-14T16:10:34Z</time>
      </trkpt>
      <trkpt lat="59.840718207693" lon="17.567579869749">
        <ele>72</ele>
        <time>2017-10-14T16:10:35Z</time>
      </trkpt>
      <trkpt lat="59.840698091133" lon="17.567641979628">
        <ele>72</ele>
        <time>2017-10-14T16:10:36Z</time>
      </trkpt>
      <trkpt lat="59.840679650953" lon="17.567695875245">
        <ele>71.8</ele>
        <time>2017-10-14T16:10:37Z</time>
      </trkpt>
      <trkpt lat="59.840659618212" lon="17.567729905759">
        <ele>71.6</ele>
        <time>2017-10-14T16:10:38Z</time>
      </trkpt>
      <trkpt lat="59.840635897435" lon="17.567743903532">
        <ele>71.4</ele>
        <time>2017-10-14T16:10:39Z</time>
      </trkpt>
      <trkpt lat="59.840612176658" lon="17.567739209668">
        <ele>71.2</ele>
        <time>2017-10-14T16:10:40Z</time>
      </trkpt>
      <trkpt lat="59.84058518694" lon="17.567709537742">
        <ele>70.8</ele>
        <time>2017-10-14T16:10:41Z</time>
      </trkpt>
      <trkpt lat="59.840567920226" lon="17.567660755084">
        <ele>70.6</ele>
        <time>2017-10-14T16:10:42Z</time>
      </trkpt>
      <trkpt lat="59.840557610489" lon="17.567603674345">
        <ele>70.2</ele>
        <time>2017-10-14T16:10:43Z</time>
      </trkpt>
      <trkpt lat="59.840543696535" lon="17.567539217534">
        <ele>70</ele>
        <time>2017-10-14T16:10:44Z</time>
      </trkpt>
      <trkpt lat="59.840531961875" lon="17.567474844542">
        <ele>70</ele>
        <time>2017-10-14T16:10:45Z</time>
      </trkpt>
      <trkpt lat="59.84051645536" lon="17.567393540112">
        <ele>69.8</ele>
        <time>2017-10-14T16:10:46Z</time>
      </trkpt>
      <trkpt lat="59.840495249153" lon="17.5673224616">
        <ele>69.8</ele>
        <time>2017-10-14T16:10:47Z</time>
      </trkpt>
      <trkpt lat="59.840477228068" lon="17.567240402799">
        <ele>69.6</ele>
        <time>2017-10-14T16:10:48Z</time>
      </trkpt>
      <trkpt lat="59.840459961354" lon="17.567158846912">
        <ele>69.4</ele>
        <time>2017-10-14T16:10:49Z</time>
      </trkpt>
      <trkpt lat="59.840439593337" lon="17.567084248002">
        <ele>69.4</ele>
        <time>2017-10-14T16:10:50Z</time>
      </trkpt>
      <trkpt lat="59.840418135673" lon="17.56699892026">
        <ele>69.2</ele>
        <time>2017-10-14T16:10:51Z</time>
      </trkpt>
      <trkpt lat="59.840395756" lon="17.566905629713">
        <ele>69</ele>
        <time>2017-10-14T16:10:52Z</time>
      </trkpt>
      <trkpt lat="59.840373041051" lon="17.566819799057">
        <ele>68.8</ele>
        <time>2017-10-14T16:10:53Z</time>
      </trkpt>
      <trkpt lat="59.840353427405" lon="17.566730364184">
        <ele>68.8</ele>
        <time>2017-10-14T16:10:54Z</time>
      </trkpt>
      <trkpt lat="59.840336076872" lon="17.566646126089">
        <ele>68.6</ele>
        <time>2017-10-14T16:10:55Z</time>
      </trkpt>
      <trkpt lat="59.840316714683" lon="17.566547052031">
        <ele>68.4</ele>
        <time>2017-10-14T16:10:56Z</time>
      </trkpt>
      <trkpt lat="59.840297939227" lon="17.566460047909">
        <ele>68</ele>
        <time>2017-10-14T16:10:57Z</time>
      </trkpt>
      <trkpt lat="59.840282097436" lon="17.566385197542">
        <ele>67.8</ele>
        <time>2017-10-14T16:10:58Z</time>
      </trkpt>
      <trkpt lat="59.840258628116" lon="17.56627556229">
        <ele>67.6</ele>
        <time>2017-10-14T16:10:59Z</time>
      </trkpt>
      <trkpt lat="59.840240942307" lon="17.566191240376">
        <ele>67.6</ele>
        <time>2017-10-14T16:11:00Z</time>
      </trkpt>
      <trkpt lat="59.840223675593" lon="17.566096021992">
        <ele>68</ele>
        <time>2017-10-14T16:11:01Z</time>
      </trkpt>
      <trkpt lat="59.840210767467" lon="17.565999211047">
        <ele>68.4</ele>
        <time>2017-10-14T16:11:02Z</time>
      </trkpt>
      <trkpt lat="59.840197440246" lon="17.565908854165">
        <ele>68.6</ele>
        <time>2017-10-14T16:11:03Z</time>
      </trkpt>
      <trkpt lat="59.840180005894" lon="17.565809612469">
        <ele>68.6</ele>
        <time>2017-10-14T16:11:04Z</time>
      </trkpt>
      <trkpt lat="59.840161817171" lon="17.565722021614">
        <ele>68.6</ele>
        <time>2017-10-14T16:11:05Z</time>
      </trkpt>
      <trkpt lat="59.840141952068" lon="17.565627976696">
        <ele>68.6</ele>
        <time>2017-10-14T16:11:06Z</time>
      </trkpt>
      <trkpt lat="59.84012250606" lon="17.565528735">
        <ele>68.4</ele>
        <time>2017-10-14T16:11:07Z</time>
      </trkpt>
      <trkpt lat="59.840103311509" lon="17.565432259331">
        <ele>68.4</ele>
        <time>2017-10-14T16:11:08Z</time>
      </trkpt>
      <trkpt lat="59.840084200777" lon="17.565342070087">
        <ele>68.2</ele>
        <time>2017-10-14T16:11:09Z</time>
      </trkpt>
      <trkpt lat="59.840064000398" lon="17.565247606074">
        <ele>68.2</ele>
        <time>2017-10-14T16:11:10Z</time>
      </trkpt>
      <trkpt lat="59.840042375096" lon="17.565146185084">
        <ele>68.2</ele>
        <time>2017-10-14T16:11:11Z</time>
      </trkpt>
      <trkpt lat="59.840022258536" lon="17.565053313632">
        <ele>68.4</ele>
        <time>2017-10-14T16:11:12Z</time>
      </trkpt>
      <trkpt lat="59.840003902175" lon="17.56496630951">
        <ele>68.2</ele>
        <time>2017-10-14T16:11:13Z</time>
      </trkpt>
      <trkpt lat="59.839983617977" lon="17.564869750022">
        <ele>68.2</ele>
        <time>2017-10-14T16:11:14Z</time>
      </trkpt>
      <trkpt lat="59.839967357091" lon="17.564788445592">
        <ele>68</ele>
        <time>2017-10-14T16:11:15Z</time>
      </trkpt>
      <trkpt lat="59.839946318522" lon="17.564684342394">
        <ele>68</ele>
        <time>2017-10-14T16:11:16Z</time>
      </trkpt>
      <trkpt lat="59.839927878342" lon="17.56458828582">
        <ele>68</ele>
        <time>2017-10-14T16:11:17Z</time>
      </trkpt>
      <trkpt lat="59.839910024895" lon="17.564492229246">
        <ele>68.2</ele>
        <time>2017-10-14T16:11:18Z</time>
      </trkpt>
      <trkpt lat="59.839891752353" lon="17.564397262319">
        <ele>68.6</ele>
        <time>2017-10-14T16:11:19Z</time>
      </trkpt>
      <trkpt lat="59.839873982725" lon="17.564308917093">
        <ele>68.4</ele>
        <time>2017-10-14T16:11:20Z</time>
      </trkpt>
      <trkpt lat="59.839856296916" lon="17.564213363433">
        <ele>68.4</ele>
        <time>2017-10-14T16:11:21Z</time>
      </trkpt>
      <trkpt lat="59.839837772917" lon="17.564108505864">
        <ele>68.2</ele>
        <time>2017-10-14T16:11:22Z</time>
      </trkpt>
      <trkpt lat="59.83982159585" lon="17.564009515625">
        <ele>68.2</ele>
        <time>2017-10-14T16:11:23Z</time>
      </trkpt>
      <trkpt lat="59.839804748231" lon="17.563910022472">
        <ele>68</ele>
        <time>2017-10-14T16:11:24Z</time>
      </trkpt>
      <trkpt lat="59.839787481517" lon="17.563818659762">
        <ele>68</ele>
        <time>2017-10-14T16:11:25Z</time>
      </trkpt>
      <trkpt lat="59.839769292794" lon="17.563713718374">
        <ele>68.2</ele>
        <time>2017-10-14T16:11:26Z</time>
      </trkpt>
      <trkpt lat="59.839752277537" lon="17.563623445311">
        <ele>68.4</ele>
        <time>2017-10-14T16:11:27Z</time>
      </trkpt>
      <trkpt lat="59.839734172633" lon="17.563517246638">
        <ele>68.4</ele>
        <time>2017-10-14T16:11:28Z</time>
      </trkpt>
      <trkpt lat="59.839718163204" lon="17.563419429865">
        <ele>68.4</ele>
        <time>2017-10-14T16:11:29Z</time>
      </trkpt>
      <trkpt lat="59.839703830155" lon="17.563328653888">
        <ele>68.4</ele>
        <time>2017-10-14T16:11:30Z</time>
      </trkpt>
      <trkpt lat="59.839687233993" lon="17.563219437731">
        <ele>68.2</ele>
        <time>2017-10-14T16:11:31Z</time>
      </trkpt>
      <trkpt lat="59.839672649487" lon="17.563114580162">
        <ele>68</ele>
        <time>2017-10-14T16:11:32Z</time>
      </trkpt>
      <trkpt lat="59.839658819352" lon="17.563015170828">
        <ele>68</ele>
        <time>2017-10-14T16:11:33Z</time>
      </trkpt>
      <trkpt lat="59.839643648113" lon="17.562909139793">
        <ele>67.8</ele>
        <time>2017-10-14T16:11:34Z</time>
      </trkpt>
      <trkpt lat="59.839629482702" lon="17.562815346332">
        <ele>68</ele>
        <time>2017-10-14T16:11:35Z</time>
      </trkpt>
      <trkpt lat="59.839614479101" lon="17.562714428256">
        <ele>68</ele>
        <time>2017-10-14T16:11:36Z</time>
      </trkpt>
      <trkpt lat="59.839600984242" lon="17.562608564859">
        <ele>68</ele>
        <time>2017-10-14T16:11:37Z</time>
      </trkpt>
      <trkpt lat="59.839589333401" lon="17.562506389498">
        <ele>68.4</ele>
        <time>2017-10-14T16:11:38Z</time>
      </trkpt>
      <trkpt lat="59.83957852075" lon="17.562409494734">
        <ele>68.2</ele>
        <time>2017-10-14T16:11:39Z</time>
      </trkpt>
      <trkpt lat="59.839565528805" lon="17.562311426504">
        <ele>68.2</ele>
        <time>2017-10-14T16:11:40Z</time>
      </trkpt>
      <trkpt lat="59.839552788317" lon="17.562201791252">
        <ele>68.4</ele>
        <time>2017-10-14T16:11:41Z</time>
      </trkpt>
      <trkpt lat="59.839539042001" lon="17.562101543728">
        <ele>68.4</ele>
        <time>2017-10-14T16:11:42Z</time>
      </trkpt>
      <trkpt lat="59.839527474979" lon="17.562005570973">
        <ele>68.4</ele>
        <time>2017-10-14T16:11:43Z</time>
      </trkpt>
      <trkpt lat="59.839515572681" lon="17.561897779739">
        <ele>68</ele>
        <time>2017-10-14T16:11:44Z</time>
      </trkpt>
      <trkpt lat="59.839509370075" lon="17.561830808358">
        <ele>68.2</ele>
        <time>2017-10-14T16:11:45Z</time>
      </trkpt>
      <trkpt lat="59.839497300139" lon="17.561699463985">
        <ele>68.2</ele>
        <time>2017-10-14T16:11:46Z</time>
      </trkpt>
      <trkpt lat="59.839488415325" lon="17.561599887013">
        <ele>68.2</ele>
        <time>2017-10-14T16:11:47Z</time>
      </trkpt>
      <trkpt lat="59.839478943778" lon="17.561503998077">
        <ele>68.2</ele>
        <time>2017-10-14T16:11:48Z</time>
      </trkpt>
      <trkpt lat="59.839469053136" lon="17.56140903115">
        <ele>68.4</ele>
        <time>2017-10-14T16:11:49Z</time>
      </trkpt>
      <trkpt lat="59.839460587417" lon="17.561322110847">
        <ele>68.6</ele>
        <time>2017-10-14T16:11:50Z</time>
      </trkpt>
      <trkpt lat="59.839452456974" lon="17.561230077585">
        <ele>69</ele>
        <time>2017-10-14T16:11:51Z</time>
      </trkpt>
      <trkpt lat="59.839443320703" lon="17.561129410966">
        <ele>69.2</ele>
        <time>2017-10-14T16:11:52Z</time>
      </trkpt>
      <trkpt lat="59.839434938803" lon="17.5610360366">
        <ele>69.4</ele>
        <time>2017-10-14T16:11:53Z</time>
      </trkpt>
      <trkpt lat="59.839426975998" lon="17.560942410777">
        <ele>69.6</ele>
        <time>2017-10-14T16:11:54Z</time>
      </trkpt>
      <trkpt lat="59.839420773392" lon="17.560853562637">
        <ele>69.6</ele>
        <time>2017-10-14T16:11:55Z</time>
      </trkpt>
      <trkpt lat="59.839411972397" lon="17.560753398932">
        <ele>69.6</ele>
        <time>2017-10-14T16:11:56Z</time>
      </trkpt>
      <trkpt lat="59.839403003764" lon="17.560665472801">
        <ele>69.8</ele>
        <time>2017-10-14T16:11:57Z</time>
      </trkpt>
      <trkpt lat="59.839389508905" lon="17.560574110091">
        <ele>70</ele>
        <time>2017-10-14T16:11:58Z</time>
      </trkpt>
      <trkpt lat="59.839378696254" lon="17.560472940558">
        <ele>70.2</ele>
        <time>2017-10-14T16:11:59Z</time>
      </trkpt>
      <trkpt lat="59.83937232601" lon="17.560384092418">
        <ele>70.6</ele>
        <time>2017-10-14T16:12:00Z</time>
      </trkpt>
      <trkpt lat="59.839369979078" lon="17.560280575953">
        <ele>71</ele>
        <time>2017-10-14T16:12:01Z</time>
      </trkpt>
      <trkpt lat="59.839371571639" lon="17.560188542691">
        <ele>71</ele>
        <time>2017-10-14T16:12:02Z</time>
      </trkpt>
      <trkpt lat="59.839368386517" lon="17.560101706207">
        <ele>71.2</ele>
        <time>2017-10-14T16:12:03Z</time>
      </trkpt>
      <trkpt lat="59.839364530843" lon="17.560004643805">
        <ele>71.2</ele>
        <time>2017-10-14T16:12:04Z</time>
      </trkpt>
      <trkpt lat="59.83936142954" lon="17.559912862">
        <ele>71.4</ele>
        <time>2017-10-14T16:12:05Z</time>
      </trkpt>
      <trkpt lat="59.839358579694" lon="17.559813201209">
        <ele>71.4</ele>
        <time>2017-10-14T16:12:06Z</time>
      </trkpt>
      <trkpt lat="59.839353299097" lon="17.559719575386">
        <ele>71.4</ele>
        <time>2017-10-14T16:12:07Z</time>
      </trkpt>
      <trkpt lat="59.839347264129" lon="17.559627290667">
        <ele>71.2</ele>
        <time>2017-10-14T16:12:08Z</time>
      </trkpt>
      <trkpt lat="59.839342570265" lon="17.559538861622">
        <ele>71.2</ele>
        <time>2017-10-14T16:12:09Z</time>
      </trkpt>
      <trkpt lat="59.839337373487" lon="17.559454120613">
        <ele>71</ele>
        <time>2017-10-14T16:12:10Z</time>
      </trkpt>
      <trkpt lat="59.839333098718" lon="17.559347167569">
        <ele>71.2</ele>
        <time>2017-10-14T16:12:11Z</time>
      </trkpt>
      <trkpt lat="59.839328572492" lon="17.559254296117">
        <ele>71.2</ele>
        <time>2017-10-14T16:12:12Z</time>
      </trkpt>
      <trkpt lat="59.83932454918" lon="17.559172991687">
        <ele>71.2</ele>
        <time>2017-10-14T16:12:13Z</time>
      </trkpt>
      <trkpt lat="59.839322621343" lon="17.55907299562">
        <ele>71.4</ele>
        <time>2017-10-14T16:12:14Z</time>
      </trkpt>
      <trkpt lat="59.839322621343" lon="17.558991942647">
        <ele>71.6</ele>
        <time>2017-10-14T16:12:15Z</time>
      </trkpt>
      <trkpt lat="59.839320022954" lon="17.558892281856">
        <ele>71.8</ele>
        <time>2017-10-14T16:12:16Z</time>
      </trkpt>
      <trkpt lat="59.839320442049" lon="17.558793710712">
        <ele>71.8</ele>
        <time>2017-10-14T16:12:17Z</time>
      </trkpt>
      <trkpt lat="59.839318346574" lon="17.558697905595">
        <ele>72</ele>
        <time>2017-10-14T16:12:18Z</time>
      </trkpt>
      <trkpt lat="59.839316754013" lon="17.558601010831">
        <ele>72</ele>
        <time>2017-10-14T16:12:19Z</time>
      </trkpt>
      <trkpt lat="59.839317424565" lon="17.558511324501">
        <ele>72.2</ele>
        <time>2017-10-14T16:12:20Z</time>
      </trkpt>
      <trkpt lat="59.839316334918" lon="17.558411076977">
        <ele>72.2</ele>
        <time>2017-10-14T16:12:21Z</time>
      </trkpt>
      <trkpt lat="59.839314909995" lon="17.558321558285">
        <ele>72.2</ele>
        <time>2017-10-14T16:12:22Z</time>
      </trkpt>
      <trkpt lat="59.839316083461" lon="17.558217706544">
        <ele>72.2</ele>
        <time>2017-10-14T16:12:23Z</time>
      </trkpt>
      <trkpt lat="59.83931365271" lon="17.55812081178">
        <ele>72.2</ele>
        <time>2017-10-14T16:12:24Z</time>
      </trkpt>
      <trkpt lat="59.839312898339" lon="17.558030622536">
        <ele>72.2</ele>
        <time>2017-10-14T16:12:25Z</time>
      </trkpt>
      <trkpt lat="59.839313149796" lon="17.55792718989">
        <ele>72.4</ele>
        <time>2017-10-14T16:12:26Z</time>
      </trkpt>
      <trkpt lat="59.839313568891" lon="17.557835659542">
        <ele>72.4</ele>
        <time>2017-10-14T16:12:27Z</time>
      </trkpt>
      <trkpt lat="59.839313065977" lon="17.5577419499">
        <ele>72.6</ele>
        <time>2017-10-14T16:12:28Z</time>
      </trkpt>
      <trkpt lat="59.839313904167" lon="17.557634158666">
        <ele>72.6</ele>
        <time>2017-10-14T16:12:29Z</time>
      </trkpt>
      <trkpt lat="59.8393144909" lon="17.557543969422">
        <ele>72.8</ele>
        <time>2017-10-14T16:12:30Z</time>
      </trkpt>
      <trkpt lat="59.839313987986" lon="17.557442632251">
        <ele>72.8</ele>
        <time>2017-10-14T16:12:31Z</time>
      </trkpt>
      <trkpt lat="59.839312982158" lon="17.55734716241">
        <ele>72.8</ele>
        <time>2017-10-14T16:12:32Z</time>
      </trkpt>
      <trkpt lat="59.839313401253" lon="17.557259236279">
        <ele>73</ele>
        <time>2017-10-14T16:12:33Z</time>
      </trkpt>
      <trkpt lat="59.839312730701" lon="17.557164856085">
        <ele>73</ele>
        <time>2017-10-14T16:12:34Z</time>
      </trkpt>
      <trkpt lat="59.839314239443" lon="17.557069470063">
        <ele>73.2</ele>
        <time>2017-10-14T16:12:35Z</time>
      </trkpt>
      <trkpt lat="59.8393144909" lon="17.556963606666">
        <ele>73.4</ele>
        <time>2017-10-14T16:12:36Z</time>
      </trkpt>
      <trkpt lat="59.839316418737" lon="17.556863275323">
        <ele>73.8</ele>
        <time>2017-10-14T16:12:37Z</time>
      </trkpt>
      <trkpt lat="59.839317676022" lon="17.556765039455">
        <ele>74</ele>
        <time>2017-10-14T16:12:38Z</time>
      </trkpt>
      <trkpt lat="59.839318514212" lon="17.556667809415">
        <ele>74</ele>
        <time>2017-10-14T16:12:39Z</time>
      </trkpt>
      <trkpt lat="59.839317089289" lon="17.556572171936">
        <ele>74</ele>
        <time>2017-10-14T16:12:40Z</time>
      </trkpt>
      <trkpt lat="59.839316670194" lon="17.556460776485">
        <ele>74</ele>
        <time>2017-10-14T16:12:41Z</time>
      </trkpt>
      <trkpt lat="59.839318011298" lon="17.556359858409">
        <ele>74.2</ele>
        <time>2017-10-14T16:12:42Z</time>
      </trkpt>
      <trkpt lat="59.83931952004" lon="17.556263215102">
        <ele>74.2</ele>
        <time>2017-10-14T16:12:43Z</time>
      </trkpt>
      <trkpt lat="59.839319855316" lon="17.5561577708">
        <ele>74.2</ele>
        <time>2017-10-14T16:12:44Z</time>
      </trkpt>
      <trkpt lat="59.839319855316" lon="17.556069593212">
        <ele>74.2</ele>
        <time>2017-10-14T16:12:45Z</time>
      </trkpt>
      <trkpt lat="59.839317759841" lon="17.55596582529">
        <ele>74.4</ele>
        <time>2017-10-14T16:12:46Z</time>
      </trkpt>
      <trkpt lat="59.839318598031" lon="17.555864655757">
        <ele>74.4</ele>
        <time>2017-10-14T16:12:47Z</time>
      </trkpt>
      <trkpt lat="59.839315999642" lon="17.555765246423">
        <ele>74.4</ele>
        <time>2017-10-14T16:12:48Z</time>
      </trkpt>
      <trkpt lat="59.839316502556" lon="17.555667513469">
        <ele>74.6</ele>
        <time>2017-10-14T16:12:49Z</time>
      </trkpt>
      <trkpt lat="59.839313987986" lon="17.55557690513">
        <ele>74.6</ele>
        <time>2017-10-14T16:12:50Z</time>
      </trkpt>
      <trkpt lat="59.839313568891" lon="17.555477411977">
        <ele>74.6</ele>
        <time>2017-10-14T16:12:51Z</time>
      </trkpt>
      <trkpt lat="59.839310132312" lon="17.555381858317">
        <ele>74.6</ele>
        <time>2017-10-14T16:12:52Z</time>
      </trkpt>
      <trkpt lat="59.839310048493" lon="17.555281107879">
        <ele>74.8</ele>
        <time>2017-10-14T16:12:53Z</time>
      </trkpt>
      <trkpt lat="59.839310383769" lon="17.555183374925">
        <ele>74.8</ele>
        <time>2017-10-14T16:12:54Z</time>
      </trkpt>
      <trkpt lat="59.839310886683" lon="17.555091928396">
        <ele>74.8</ele>
        <time>2017-10-14T16:12:55Z</time>
      </trkpt>
      <trkpt lat="59.839307953018" lon="17.55498765756">
        <ele>75.2</ele>
        <time>2017-10-14T16:12:56Z</time>
      </trkpt>
      <trkpt lat="59.839303175335" lon="17.554896211031">
        <ele>75.4</ele>
        <time>2017-10-14T16:12:57Z</time>
      </trkpt>
      <trkpt lat="59.839301331317" lon="17.554806021787">
        <ele>75.2</ele>
        <time>2017-10-14T16:12:58Z</time>
      </trkpt>
      <trkpt lat="59.839297559462" lon="17.554702002408">
        <ele>75.4</ele>
        <time>2017-10-14T16:12:59Z</time>
      </trkpt>
      <trkpt lat="59.839293871426" lon="17.554611813164">
        <ele>75.2</ele>
        <time>2017-10-14T16:13:00Z</time>
      </trkpt>
      <trkpt lat="59.839288004096" lon="17.554508129061">
        <ele>75.2</ele>
        <time>2017-10-14T16:13:01Z</time>
      </trkpt>
      <trkpt lat="59.8392809633" lon="17.554410060831">
        <ele>75.4</ele>
        <time>2017-10-14T16:13:02Z</time>
      </trkpt>
      <trkpt lat="59.839275850341" lon="17.55431542918">
        <ele>75.4</ele>
        <time>2017-10-14T16:13:03Z</time>
      </trkpt>
      <trkpt lat="59.839269815373" lon="17.554215433113">
        <ele>75.6</ele>
        <time>2017-10-14T16:13:04Z</time>
      </trkpt>
      <trkpt lat="59.839263864224" lon="17.554118119254">
        <ele>75.6</ele>
        <time>2017-10-14T16:13:05Z</time>
      </trkpt>
      <trkpt lat="59.839257745437" lon="17.554012255857">
        <ele>75.8</ele>
        <time>2017-10-14T16:13:06Z</time>
      </trkpt>
      <trkpt lat="59.839251542831" lon="17.55391477436">
        <ele>75.8</ele>
        <time>2017-10-14T16:13:07Z</time>
      </trkpt>
      <trkpt lat="59.839243747664" lon="17.553818633967">
        <ele>75.8</ele>
        <time>2017-10-14T16:13:08Z</time>
      </trkpt>
      <trkpt lat="59.839236455411" lon="17.553724589049">
        <ele>75.8</ele>
        <time>2017-10-14T16:13:09Z</time>
      </trkpt>
      <trkpt lat="59.839229163158" lon="17.55363314252">
        <ele>75.8</ele>
        <time>2017-10-14T16:13:10Z</time>
      </trkpt>
      <trkpt lat="59.839218769602" lon="17.553525183648">
        <ele>75.8</ele>
        <time>2017-10-14T16:13:11Z</time>
      </trkpt>
      <trkpt lat="59.839206867304" lon="17.553424265572">
        <ele>75.8</ele>
        <time>2017-10-14T16:13:12Z</time>
      </trkpt>
      <trkpt lat="59.839196054653" lon="17.553325275333">
        <ele>76</ele>
        <time>2017-10-14T16:13:13Z</time>
      </trkpt>
      <trkpt lat="59.839184487631" lon="17.553217651737">
        <ele>76</ele>
        <time>2017-10-14T16:13:14Z</time>
      </trkpt>
      <trkpt lat="59.839174680808" lon="17.553123858276">
        <ele>76.2</ele>
        <time>2017-10-14T16:13:15Z</time>
      </trkpt>
      <trkpt lat="59.83915942575" lon="17.553015145033">
        <ele>76.4</ele>
        <time>2017-10-14T16:13:16Z</time>
      </trkpt>
      <trkpt lat="59.839145679434" lon="17.552911041835">
        <ele>76.4</ele>
        <time>2017-10-14T16:13:17Z</time>
      </trkpt>
      <trkpt lat="59.839134028593" lon="17.552809872302">
        <ele>76.4</ele>
        <time>2017-10-14T16:13:18Z</time>
      </trkpt>
      <trkpt lat="59.839121036648" lon="17.552702164887">
        <ele>76.6</ele>
        <time>2017-10-14T16:13:19Z</time>
      </trkpt>
      <trkpt lat="59.839106116866" lon="17.552607533236">
        <ele>76.6</ele>
        <time>2017-10-14T16:13:20Z</time>
      </trkpt>
      <trkpt lat="59.839091113265" lon="17.552494545224">
        <ele>76.6</ele>
        <time>2017-10-14T16:13:21Z</time>
      </trkpt>
      <trkpt lat="59.839075942026" lon="17.552394213881">
        <ele>76.4</ele>
        <time>2017-10-14T16:13:22Z</time>
      </trkpt>
      <trkpt lat="59.839059597321" lon="17.552279549489">
        <ele>76.6</ele>
        <time>2017-10-14T16:13:23Z</time>
      </trkpt>
      <trkpt lat="59.839040486589" lon="17.5521763683">
        <ele>76.6</ele>
        <time>2017-10-14T16:13:24Z</time>
      </trkpt>
      <trkpt lat="59.839018358373" lon="17.552086933427">
        <ele>76.4</ele>
        <time>2017-10-14T16:13:25Z</time>
      </trkpt>
      <trkpt lat="59.838996565433" lon="17.551981321487">
        <ele>76.4</ele>
        <time>2017-10-14T16:13:26Z</time>
      </trkpt>
      <trkpt lat="59.838978879624" lon="17.551884929637">
        <ele>76.4</ele>
        <time>2017-10-14T16:13:27Z</time>
      </trkpt>
      <trkpt lat="59.8389624511" lon="17.551798931343">
        <ele>76.4</ele>
        <time>2017-10-14T16:13:28Z</time>
      </trkpt>
      <trkpt lat="59.838937724495" lon="17.551677812888">
        <ele>76.4</ele>
        <time>2017-10-14T16:13:29Z</time>
      </trkpt>
      <trkpt lat="59.838918613763" lon="17.551581169581">
        <ele>76.6</ele>
        <time>2017-10-14T16:13:30Z</time>
      </trkpt>
      <trkpt lat="59.838896820823" lon="17.551471953424">
        <ele>76.6</ele>
        <time>2017-10-14T16:13:31Z</time>
      </trkpt>
      <trkpt lat="59.838874608788" lon="17.551368604597">
        <ele>76.6</ele>
        <time>2017-10-14T16:13:32Z</time>
      </trkpt>
      <trkpt lat="59.838855330418" lon="17.55126693215">
        <ele>76.4</ele>
        <time>2017-10-14T16:13:33Z</time>
      </trkpt>
      <trkpt lat="59.838834291849" lon="17.551160314382">
        <ele>76.4</ele>
        <time>2017-10-14T16:13:34Z</time>
      </trkpt>
      <trkpt lat="59.838817108954" lon="17.55105738465">
        <ele>76.4</ele>
        <time>2017-10-14T16:13:35Z</time>
      </trkpt>
      <trkpt lat="59.83879816586" lon="17.550944480457">
        <ele>76.4</ele>
        <time>2017-10-14T16:13:36Z</time>
      </trkpt>
      <trkpt lat="59.838776792015" lon="17.550845657856">
        <ele>76.8</ele>
        <time>2017-10-14T16:13:37Z</time>
      </trkpt>
      <trkpt lat="59.838752149229" lon="17.550745326513">
        <ele>77</ele>
        <time>2017-10-14T16:13:38Z</time>
      </trkpt>
      <trkpt lat="59.838728847547" lon="17.550650946319">
        <ele>77</ele>
        <time>2017-10-14T16:13:39Z</time>
      </trkpt>
      <trkpt lat="59.838705042951" lon="17.550550028243">
        <ele>77.2</ele>
        <time>2017-10-14T16:13:40Z</time>
      </trkpt>
      <trkpt lat="59.838678975242" lon="17.550441063543">
        <ele>77.4</ele>
        <time>2017-10-14T16:13:41Z</time>
      </trkpt>
      <trkpt lat="59.838654248637" lon="17.550342576218">
        <ele>77.2</ele>
        <time>2017-10-14T16:13:42Z</time>
      </trkpt>
      <trkpt lat="59.838628600023" lon="17.550248782757">
        <ele>77</ele>
        <time>2017-10-14T16:13:43Z</time>
      </trkpt>
      <trkpt lat="59.838600436839" lon="17.550146775034">
        <ele>76.8</ele>
        <time>2017-10-14T16:13:44Z</time>
      </trkpt>
      <trkpt lat="59.838576380786" lon="17.550061112016">
        <ele>76.6</ele>
        <time>2017-10-14T16:13:45Z</time>
      </trkpt>
      <trkpt lat="59.838544781023" lon="17.549953153144">
        <ele>76.6</ele>
        <time>2017-10-14T16:13:46Z</time>
      </trkpt>
      <trkpt lat="59.838517120753" lon="17.549860700787">
        <ele>76.2</ele>
        <time>2017-10-14T16:13:47Z</time>
      </trkpt>
      <trkpt lat="59.83848887375" lon="17.549768416068">
        <ele>76.2</ele>
        <time>2017-10-14T16:13:48Z</time>
      </trkpt>
      <trkpt lat="59.838458950367" lon="17.549672778589">
        <ele>76</ele>
        <time>2017-10-14T16:13:49Z</time>
      </trkpt>
      <trkpt lat="59.838431122459" lon="17.549587031752">
        <ele>76</ele>
        <time>2017-10-14T16:13:50Z</time>
      </trkpt>
      <trkpt lat="59.838399690334" lon="17.549487706237">
        <ele>76</ele>
        <time>2017-10-14T16:13:51Z</time>
      </trkpt>
      <trkpt lat="59.838365911277" lon="17.549388213084">
        <ele>76</ele>
        <time>2017-10-14T16:13:52Z</time>
      </trkpt>
      <trkpt lat="59.83833129403" lon="17.549293329976">
        <ele>76</ele>
        <time>2017-10-14T16:13:53Z</time>
      </trkpt>
      <trkpt lat="59.838297514973" lon="17.549203895103">
        <ele>76</ele>
        <time>2017-10-14T16:13:54Z</time>
      </trkpt>
      <trkpt lat="59.838266082848" lon="17.549119573189">
        <ele>76</ele>
        <time>2017-10-14T16:13:55Z</time>
      </trkpt>
      <trkpt lat="59.838229789221" lon="17.54902561209">
        <ele>75.8</ele>
        <time>2017-10-14T16:13:56Z</time>
      </trkpt>
      <trkpt lat="59.838196764535" lon="17.548936177217">
        <ele>75.6</ele>
        <time>2017-10-14T16:13:57Z</time>
      </trkpt>
      <trkpt lat="59.838162901659" lon="17.548851184751">
        <ele>75.4</ele>
        <time>2017-10-14T16:13:58Z</time>
      </trkpt>
      <trkpt lat="59.838124512557" lon="17.5487565531">
        <ele>75.6</ele>
        <time>2017-10-14T16:13:59Z</time>
      </trkpt>
      <trkpt lat="59.838092661337" lon="17.548675500127">
        <ele>75.6</ele>
        <time>2017-10-14T16:14:00Z</time>
      </trkpt>
      <trkpt lat="59.838057876452" lon="17.548583550684">
        <ele>75.4</ele>
        <time>2017-10-14T16:14:01Z</time>
      </trkpt>
      <trkpt lat="59.838020493178" lon="17.54849336144">
        <ele>75.6</ele>
        <time>2017-10-14T16:14:02Z</time>
      </trkpt>
      <trkpt lat="59.837984702465" lon="17.548406357318">
        <ele>75.8</ele>
        <time>2017-10-14T16:14:03Z</time>
      </trkpt>
      <trkpt lat="59.837949582304" lon="17.548315832798">
        <ele>75.8</ele>
        <time>2017-10-14T16:14:04Z</time>
      </trkpt>
      <trkpt lat="59.837915384152" lon="17.548234779825">
        <ele>75.8</ele>
        <time>2017-10-14T16:14:05Z</time>
      </trkpt>
      <trkpt lat="59.837876408317" lon="17.54814383621">
        <ele>75.8</ele>
        <time>2017-10-14T16:14:06Z</time>
      </trkpt>
      <trkpt lat="59.837839779414" lon="17.548055490984">
        <ele>75.8</ele>
        <time>2017-10-14T16:14:07Z</time>
      </trkpt>
      <trkpt lat="59.837801474131" lon="17.547963457722">
        <ele>75.8</ele>
        <time>2017-10-14T16:14:08Z</time>
      </trkpt>
      <trkpt lat="59.837766270151" lon="17.547878716713">
        <ele>75.8</ele>
        <time>2017-10-14T16:14:09Z</time>
      </trkpt>
      <trkpt lat="59.837731401447" lon="17.547793891885">
        <ele>75.8</ele>
        <time>2017-10-14T16:14:10Z</time>
      </trkpt>
      <trkpt lat="59.837689491947" lon="17.547695823655">
        <ele>75.6</ele>
        <time>2017-10-14T16:14:11Z</time>
      </trkpt>
      <trkpt lat="59.837651941035" lon="17.547606975515">
        <ele>75.6</ele>
        <time>2017-10-14T16:14:12Z</time>
      </trkpt>
      <trkpt lat="59.837615312132" lon="17.547523491791">
        <ele>75.4</ele>
        <time>2017-10-14T16:14:13Z</time>
      </trkpt>
      <trkpt lat="59.837575330469" lon="17.547432883452">
        <ele>75.2</ele>
        <time>2017-10-14T16:14:14Z</time>
      </trkpt>
      <trkpt lat="59.837542808697" lon="17.547355267058">
        <ele>75.2</ele>
        <time>2017-10-14T16:14:15Z</time>
      </trkpt>
      <trkpt lat="59.837503665224" lon="17.547262814701">
        <ele>75.2</ele>
        <time>2017-10-14T16:14:16Z</time>
      </trkpt>
      <trkpt lat="59.837465611398" lon="17.547175307665">
        <ele>75.2</ele>
        <time>2017-10-14T16:14:17Z</time>
      </trkpt>
      <trkpt lat="59.83743023978" lon="17.547086208068">
        <ele>75.6</ele>
        <time>2017-10-14T16:14:18Z</time>
      </trkpt>
      <trkpt lat="59.837392353592" lon="17.546997108471">
        <ele>75.8</ele>
        <time>2017-10-14T16:14:19Z</time>
      </trkpt>
      <trkpt lat="59.837357736345" lon="17.546916223136">
        <ele>76</ele>
        <time>2017-10-14T16:14:20Z</time>
      </trkpt>
      <trkpt lat="59.837321526537" lon="17.546829638109">
        <ele>76</ele>
        <time>2017-10-14T16:14:21Z</time>
      </trkpt>
      <trkpt lat="59.837281293417" lon="17.546740789969">
        <ele>76.2</ele>
        <time>2017-10-14T16:14:22Z</time>
      </trkpt>
      <trkpt lat="59.837245670342" lon="17.546651355096">
        <ele>76.2</ele>
        <time>2017-10-14T16:14:23Z</time>
      </trkpt>
      <trkpt lat="59.837208706163" lon="17.546561082033">
        <ele>76</ele>
        <time>2017-10-14T16:14:24Z</time>
      </trkpt>
      <trkpt lat="59.83717459183" lon="17.546479693784">
        <ele>75.8</ele>
        <time>2017-10-14T16:14:25Z</time>
      </trkpt>
      <trkpt lat="59.837136538004" lon="17.546387409065">
        <ele>75.6</ele>
        <time>2017-10-14T16:14:26Z</time>
      </trkpt>
      <trkpt lat="59.837100579653" lon="17.546302668056">
        <ele>75.6</ele>
        <time>2017-10-14T16:14:27Z</time>
      </trkpt>
      <trkpt lat="59.837064369845" lon="17.546218932875">
        <ele>75.6</ele>
        <time>2017-10-14T16:14:28Z</time>
      </trkpt>
      <trkpt lat="59.837023801449" lon="17.546122457206">
        <ele>75.4</ele>
        <time>2017-10-14T16:14:29Z</time>
      </trkpt>
      <trkpt lat="59.836989268021" lon="17.546040314586">
        <ele>75.4</ele>
        <time>2017-10-14T16:14:30Z</time>
      </trkpt>
      <trkpt lat="59.836949034901" lon="17.545944174193">
        <ele>75.6</ele>
        <time>2017-10-14T16:14:31Z</time>
      </trkpt>
      <trkpt lat="59.836911903084" lon="17.545856080424">
        <ele>75.6</ele>
        <time>2017-10-14T16:14:32Z</time>
      </trkpt>
      <trkpt lat="59.836874016896" lon="17.545769579216">
        <ele>75.8</ele>
        <time>2017-10-14T16:14:33Z</time>
      </trkpt>
      <trkpt lat="59.836834035233" lon="17.545677629773">
        <ele>75.8</ele>
        <time>2017-10-14T16:14:34Z</time>
      </trkpt>
      <trkpt lat="59.836796149045" lon="17.545592553488">
        <ele>76</ele>
        <time>2017-10-14T16:14:35Z</time>
      </trkpt>
      <trkpt lat="59.836757005572" lon="17.545497921837">
        <ele>75.8</ele>
        <time>2017-10-14T16:14:36Z</time>
      </trkpt>
      <trkpt lat="59.836718700289" lon="17.545411839724">
        <ele>75.8</ele>
        <time>2017-10-14T16:14:37Z</time>
      </trkpt>
      <trkpt lat="59.836680562644" lon="17.545319638824">
        <ele>75.6</ele>
        <time>2017-10-14T16:14:38Z</time>
      </trkpt>
      <trkpt lat="59.836642089723" lon="17.545241770973">
        <ele>75.6</ele>
        <time>2017-10-14T16:14:39Z</time>
      </trkpt>
      <trkpt lat="59.836604035897" lon="17.545157700516">
        <ele>75.6</ele>
        <time>2017-10-14T16:14:40Z</time>
      </trkpt>
      <trkpt lat="59.836564640967" lon="17.545068433281">
        <ele>75.6</ele>
        <time>2017-10-14T16:14:41Z</time>
      </trkpt>
      <trkpt lat="59.836524407847" lon="17.544986793575">
        <ele>75.6</ele>
        <time>2017-10-14T16:14:42Z</time>
      </trkpt>
      <trkpt lat="59.836487192211" lon="17.544901801109">
        <ele>75.4</ele>
        <time>2017-10-14T16:14:43Z</time>
      </trkpt>
      <trkpt lat="59.836444779797" lon="17.54480784001">
        <ele>75.2</ele>
        <time>2017-10-14T16:14:44Z</time>
      </trkpt>
      <trkpt lat="59.836415862242" lon="17.544740449534">
        <ele>75.2</ele>
        <time>2017-10-14T16:14:45Z</time>
      </trkpt>
      <trkpt lat="59.836368420688" lon="17.544625701323">
        <ele>75</ele>
        <time>2017-10-14T16:14:46Z</time>
      </trkpt>
      <trkpt lat="59.836329528672" lon="17.544535009165">
        <ele>74.8</ele>
        <time>2017-10-14T16:14:47Z</time>
      </trkpt>
      <trkpt lat="59.836288541181" lon="17.544441718618">
        <ele>74.8</ele>
        <time>2017-10-14T16:14:48Z</time>
      </trkpt>
      <trkpt lat="59.836251912278" lon="17.54435521741">
        <ele>74.6</ele>
        <time>2017-10-14T16:14:49Z</time>
      </trkpt>
      <trkpt lat="59.836216289203" lon="17.544268800021">
        <ele>74.6</ele>
        <time>2017-10-14T16:14:50Z</time>
      </trkpt>
      <trkpt lat="59.836175301712" lon="17.544174252189">
        <ele>74.6</ele>
        <time>2017-10-14T16:14:51Z</time>
      </trkpt>
      <trkpt lat="59.836134733316" lon="17.54408448204">
        <ele>74.4</ele>
        <time>2017-10-14T16:14:52Z</time>
      </trkpt>
      <trkpt lat="59.836094835472" lon="17.543993454606">
        <ele>74.2</ele>
        <time>2017-10-14T16:14:53Z</time>
      </trkpt>
      <trkpt lat="59.83605728456" lon="17.543914580927">
        <ele>74.2</ele>
        <time>2017-10-14T16:14:54Z</time>
      </trkpt>
      <trkpt lat="59.836020068924" lon="17.543823134398">
        <ele>74.2</ele>
        <time>2017-10-14T16:14:55Z</time>
      </trkpt>
      <trkpt lat="59.835985535496" lon="17.543733950982">
        <ele>74.2</ele>
        <time>2017-10-14T16:14:56Z</time>
      </trkpt>
      <trkpt lat="59.835952259353" lon="17.543653400923">
        <ele>74.6</ele>
        <time>2017-10-14T16:14:57Z</time>
      </trkpt>
      <trkpt lat="59.835919905219" lon="17.543591793958">
        <ele>74.6</ele>
        <time>2017-10-14T16:14:58Z</time>
      </trkpt>
      <trkpt lat="59.835880342651" lon="17.543546531698">
        <ele>74.8</ele>
        <time>2017-10-14T16:14:59Z</time>
      </trkpt>
      <trkpt lat="59.835844635757" lon="17.543530354631">
        <ele>74.8</ele>
        <time>2017-10-14T16:15:00Z</time>
      </trkpt>
      <trkpt lat="59.835808509768" lon="17.543541502558">
        <ele>74.8</ele>
        <time>2017-10-14T16:15:01Z</time>
      </trkpt>
      <trkpt lat="59.835778251109" lon="17.54357067157">
        <ele>74.4</ele>
        <time>2017-10-14T16:15:02Z</time>
      </trkpt>
      <trkpt lat="59.835744974966" lon="17.543605707912">
        <ele>74.2</ele>
        <time>2017-10-14T16:15:03Z</time>
      </trkpt>
      <trkpt lat="59.835710106262" lon="17.543643510281">
        <ele>74.4</ele>
        <time>2017-10-14T16:15:04Z</time>
      </trkpt>
      <trkpt lat="59.835670962789" lon="17.543673098388">
        <ele>74.4</ele>
        <time>2017-10-14T16:15:05Z</time>
      </trkpt>
      <trkpt lat="59.835628550375" lon="17.54369220912">
        <ele>74.4</ele>
        <time>2017-10-14T16:15:06Z</time>
      </trkpt>
      <trkpt lat="59.83559041273" lon="17.543682486116">
        <ele>74.2</ele>
        <time>2017-10-14T16:15:07Z</time>
      </trkpt>
      <trkpt lat="59.835561159899" lon="17.543639570788">
        <ele>74.2</ele>
        <time>2017-10-14T16:15:08Z</time>
      </trkpt>
      <trkpt lat="59.835537522941" lon="17.543590871949">
        <ele>74.2</ele>
        <time>2017-10-14T16:15:09Z</time>
      </trkpt>
      <trkpt lat="59.835525788281" lon="17.543538149798">
        <ele>74.2</ele>
        <time>2017-10-14T16:15:10Z</time>
      </trkpt>
      <trkpt lat="59.835521010598" lon="17.543462377422">
        <ele>74.2</ele>
        <time>2017-10-14T16:15:11Z</time>
      </trkpt>
      <trkpt lat="59.835531152697" lon="17.543386018313">
        <ele>74</ele>
        <time>2017-10-14T16:15:12Z</time>
      </trkpt>
      <trkpt lat="59.835547078307" lon="17.5433083181">
        <ele>74.2</ele>
        <time>2017-10-14T16:15:13Z</time>
      </trkpt>
      <trkpt lat="59.835556633673" lon="17.543215446648">
        <ele>74.4</ele>
        <time>2017-10-14T16:15:14Z</time>
      </trkpt>
      <trkpt lat="59.835556968949" lon="17.543125927956">
        <ele>74.4</ele>
        <time>2017-10-14T16:15:15Z</time>
      </trkpt>
      <trkpt lat="59.835550095791" lon="17.543025261337">
        <ele>74.4</ele>
        <time>2017-10-14T16:15:16Z</time>
      </trkpt>
      <trkpt lat="59.835537439122" lon="17.542921577234">
        <ele>74.2</ele>
        <time>2017-10-14T16:15:17Z</time>
      </trkpt>
      <trkpt lat="59.835519250399" lon="17.54282971161">
        <ele>74</ele>
        <time>2017-10-14T16:15:18Z</time>
      </trkpt>
      <trkpt lat="59.835498463287" lon="17.542757878727">
        <ele>73.6</ele>
        <time>2017-10-14T16:15:19Z</time>
      </trkpt>
      <trkpt lat="59.835481196573" lon="17.542705072757">
        <ele>73.4</ele>
        <time>2017-10-14T16:15:20Z</time>
      </trkpt>
      <trkpt lat="59.835458146348" lon="17.542625109431">
        <ele>73.2</ele>
        <time>2017-10-14T16:15:21Z</time>
      </trkpt>
      <trkpt lat="59.835438616521" lon="17.542543553544">
        <ele>73.2</ele>
        <time>2017-10-14T16:15:22Z</time>
      </trkpt>
      <trkpt lat="59.835417661771" lon="17.542460405096">
        <ele>73.4</ele>
        <time>2017-10-14T16:15:23Z</time>
      </trkpt>
      <trkpt lat="59.835385139999" lon="17.542389075127">
        <ele>73.4</ele>
        <time>2017-10-14T16:15:24Z</time>
      </trkpt>
      <trkpt lat="59.8353498522" lon="17.542332497302">
        <ele>73.2</ele>
        <time>2017-10-14T16:15:25Z</time>
      </trkpt>
      <trkpt lat="59.835305009035" lon="17.542271812346">
        <ele>73</ele>
        <time>2017-10-14T16:15:26Z</time>
      </trkpt>
      <trkpt lat="59.835263686268" lon="17.542225125163">
        <ele>72.6</ele>
        <time>2017-10-14T16:15:27Z</time>
      </trkpt>
      <trkpt lat="59.835218926922" lon="17.542182880387">
        <ele>72.4</ele>
        <time>2017-10-14T16:15:28Z</time>
      </trkpt>
      <trkpt lat="59.835168467884" lon="17.542128649494">
        <ele>72.2</ele>
        <time>2017-10-14T16:15:29Z</time>
      </trkpt>
      <trkpt lat="59.835121613063" lon="17.542072155488">
        <ele>72.2</ele>
        <time>2017-10-14T16:15:30Z</time>
      </trkpt>
      <trkpt lat="59.835067298351" lon="17.5420258874">
        <ele>72</ele>
        <time>2017-10-14T16:15:31Z</time>
      </trkpt>
      <trkpt lat="59.835015162933" lon="17.541991940705">
        <ele>71.8</ele>
        <time>2017-10-14T16:15:32Z</time>
      </trkpt>
      <trkpt lat="59.834966464094" lon="17.541954222155">
        <ele>71.8</ele>
        <time>2017-10-14T16:15:33Z</time>
      </trkpt>
      <trkpt lat="59.834922542938" lon="17.541894626846">
        <ele>71.8</ele>
        <time>2017-10-14T16:15:34Z</time>
      </trkpt>
      <trkpt lat="59.834884824388" lon="17.541833438976">
        <ele>71.6</ele>
        <time>2017-10-14T16:15:35Z</time>
      </trkpt>
      <trkpt lat="59.834840400318" lon="17.541753978564">
        <ele>71.6</ele>
        <time>2017-10-14T16:15:36Z</time>
      </trkpt>
      <trkpt lat="59.834799915741" lon="17.541681642767">
        <ele>71.6</ele>
        <time>2017-10-14T16:15:37Z</time>
      </trkpt>
      <trkpt lat="59.834758425336" lon="17.54162020344">
        <ele>71.6</ele>
        <time>2017-10-14T16:15:38Z</time>
      </trkpt>
      <trkpt lat="59.834716432017" lon="17.541568990031">
        <ele>71.8</ele>
        <time>2017-10-14T16:15:39Z</time>
      </trkpt>
      <trkpt lat="59.83467427106" lon="17.541516100242">
        <ele>71.8</ele>
        <time>2017-10-14T16:15:40Z</time>
      </trkpt>
      <trkpt lat="59.834632864474" lon="17.54145005087">
        <ele>71.8</ele>
        <time>2017-10-14T16:15:41Z</time>
      </trkpt>
      <trkpt lat="59.834589446232" lon="17.541395484701">
        <ele>71.6</ele>
        <time>2017-10-14T16:15:42Z</time>
      </trkpt>
      <trkpt lat="59.834546698542" lon="17.541338739238">
        <ele>71.8</ele>
        <time>2017-10-14T16:15:43Z</time>
      </trkpt>
      <trkpt lat="59.834500681911" lon="17.541285514173">
        <ele>71.6</ele>
        <time>2017-10-14T16:15:44Z</time>
      </trkpt>
      <trkpt lat="59.834458269497" lon="17.541244945777">
        <ele>71.6</ele>
        <time>2017-10-14T16:15:45Z</time>
      </trkpt>
      <trkpt lat="59.83440688845" lon="17.541186943029">
        <ele>71.8</ele>
        <time>2017-10-14T16:15:46Z</time>
      </trkpt>
      <trkpt lat="59.834363805484" lon="17.541136148715">
        <ele>71.8</ele>
        <time>2017-10-14T16:15:47Z</time>
      </trkpt>
      <trkpt lat="59.834320051966" lon="17.541088539523">
        <ele>71.8</ele>
        <time>2017-10-14T16:15:48Z</time>
      </trkpt>
      <trkpt lat="59.834275376439" lon="17.541058029407">
        <ele>71.8</ele>
        <time>2017-10-14T16:15:49Z</time>
      </trkpt>
      <trkpt lat="59.834234808043" lon="17.541031123508">
        <ele>71.6</ele>
        <time>2017-10-14T16:15:50Z</time>
      </trkpt>
      <trkpt lat="59.834178397856" lon="17.540996925356">
        <ele>71.4</ele>
        <time>2017-10-14T16:15:51Z</time>
      </trkpt>
      <trkpt lat="59.834126430076" lon="17.540964068308">
        <ele>71.4</ele>
        <time>2017-10-14T16:15:52Z</time>
      </trkpt>
      <trkpt lat="59.834072199183" lon="17.540935066934">
        <ele>71.4</ele>
        <time>2017-10-14T16:15:53Z</time>
      </trkpt>
      <trkpt lat="59.834020734317" lon="17.540912854899">
        <ele>71.4</ele>
        <time>2017-10-14T16:15:54Z</time>
      </trkpt>
      <trkpt lat="59.833971951659" lon="17.540897096927">
        <ele>71.6</ele>
        <time>2017-10-14T16:15:55Z</time>
      </trkpt>
      <trkpt lat="59.833912523988" lon="17.540877399462">
        <ele>71.6</ele>
        <time>2017-10-14T16:15:56Z</time>
      </trkpt>
      <trkpt lat="59.833858376914" lon="17.540857869635">
        <ele>71.8</ele>
        <time>2017-10-14T16:15:57Z</time>
      </trkpt>
      <trkpt lat="59.833803056374" lon="17.540844710052">
        <ele>71.8</ele>
        <time>2017-10-14T16:15:58Z</time>
      </trkpt>
      <trkpt lat="59.833745640359" lon="17.540824844949">
        <ele>71.8</ele>
        <time>2017-10-14T16:15:59Z</time>
      </trkpt>
      <trkpt lat="59.83369275057" lon="17.540800788896">
        <ele>71.8</ele>
        <time>2017-10-14T16:16:00Z</time>
      </trkpt>
      <trkpt lat="59.833632903804" lon="17.540776229929">
        <ele>71.8</ele>
        <time>2017-10-14T16:16:01Z</time>
      </trkpt>
      <trkpt lat="59.833576577436" lon="17.540755526636">
        <ele>71.8</ele>
        <time>2017-10-14T16:16:02Z</time>
      </trkpt>
      <trkpt lat="59.83352343619" lon="17.540735410076">
        <ele>71.8</ele>
        <time>2017-10-14T16:16:03Z</time>
      </trkpt>
      <trkpt lat="59.833467948012" lon="17.540710599652">
        <ele>71.4</ele>
        <time>2017-10-14T16:16:04Z</time>
      </trkpt>
      <trkpt lat="59.833420841734" lon="17.540683526115">
        <ele>71.6</ele>
        <time>2017-10-14T16:16:05Z</time>
      </trkpt>
      <trkpt lat="59.833363425719" lon="17.54064622666">
        <ele>71.2</ele>
        <time>2017-10-14T16:16:06Z</time>
      </trkpt>
      <trkpt lat="59.833312799043" lon="17.540621667693">
        <ele>71.4</ele>
        <time>2017-10-14T16:16:07Z</time>
      </trkpt>
      <trkpt lat="59.833262842919" lon="17.540586882808">
        <ele>71.6</ele>
        <time>2017-10-14T16:16:08Z</time>
      </trkpt>
      <trkpt lat="59.833218670306" lon="17.540529466793">
        <ele>71.6</ele>
        <time>2017-10-14T16:16:09Z</time>
      </trkpt>
      <trkpt lat="59.833177012263" lon="17.540476493185">
        <ele>71.6</ele>
        <time>2017-10-14T16:16:10Z</time>
      </trkpt>
      <trkpt lat="59.833125463578" lon="17.540427039975">
        <ele>71.8</ele>
        <time>2017-10-14T16:16:11Z</time>
      </trkpt>
      <trkpt lat="59.833078273481" lon="17.540378508774">
        <ele>71.8</ele>
        <time>2017-10-14T16:16:12Z</time>
      </trkpt>
      <trkpt lat="59.833032843583" lon="17.540323607329">
        <ele>71.8</ele>
        <time>2017-10-14T16:16:13Z</time>
      </trkpt>
      <trkpt lat="59.832986324038" lon="17.540268957341">
        <ele>71.6</ele>
        <time>2017-10-14T16:16:14Z</time>
      </trkpt>
      <trkpt lat="59.832946090918" lon="17.540219085036">
        <ele>71.6</ele>
        <time>2017-10-14T16:16:15Z</time>
      </trkpt>
      <trkpt lat="59.832898062631" lon="17.540147755067">
        <ele>71.6</ele>
        <time>2017-10-14T16:16:16Z</time>
      </trkpt>
      <trkpt lat="59.832861098452" lon="17.540067624103">
        <ele>71.4</ele>
        <time>2017-10-14T16:16:17Z</time>
      </trkpt>
      <trkpt lat="59.832826313567" lon="17.539988834243">
        <ele>71.4</ele>
        <time>2017-10-14T16:16:18Z</time>
      </trkpt>
      <trkpt lat="59.832785745171" lon="17.539931502047">
        <ele>71.4</ele>
        <time>2017-10-14T16:16:19Z</time>
      </trkpt>
      <trkpt lat="59.832745176775" lon="17.539907613632">
        <ele>71.2</ele>
        <time>2017-10-14T16:16:20Z</time>
      </trkpt>
      <trkpt lat="59.832696310298" lon="17.539897974447">
        <ele>71.2</ele>
        <time>2017-10-14T16:16:21Z</time>
      </trkpt>
      <trkpt lat="59.832651299495" lon="17.539863776295">
        <ele>71.4</ele>
        <time>2017-10-14T16:16:22Z</time>
      </trkpt>
      <trkpt lat="59.832611820746" lon="17.5398046839">
        <ele>71.6</ele>
        <time>2017-10-14T16:16:23Z</time>
      </trkpt>
      <trkpt lat="59.832573264006" lon="17.539744837134">
        <ele>71.8</ele>
        <time>2017-10-14T16:16:24Z</time>
      </trkpt>
      <trkpt lat="59.832538982035" lon="17.539692198802">
        <ele>72</ele>
        <time>2017-10-14T16:16:25Z</time>
      </trkpt>
      <trkpt lat="59.832495479974" lon="17.539635872434">
        <ele>72</ele>
        <time>2017-10-14T16:16:26Z</time>
      </trkpt>
      <trkpt lat="59.832450050076" lon="17.539604691766">
        <ele>72</ele>
        <time>2017-10-14T16:16:27Z</time>
      </trkpt>
      <trkpt lat="59.832399255762" lon="17.539604272671">
        <ele>71.8</ele>
        <time>2017-10-14T16:16:28Z</time>
      </trkpt>
      <trkpt lat="59.832347287982" lon="17.539615085322">
        <ele>71.4</ele>
        <time>2017-10-14T16:16:29Z</time>
      </trkpt>
      <trkpt lat="59.832300684618" lon="17.539635704796">
        <ele>71.4</ele>
        <time>2017-10-14T16:16:30Z</time>
      </trkpt>
      <trkpt lat="59.832249890304" lon="17.539670238224">
        <ele>71.2</ele>
        <time>2017-10-14T16:16:31Z</time>
      </trkpt>
      <trkpt lat="59.832200688551" lon="17.539697060304">
        <ele>71.4</ele>
        <time>2017-10-14T16:16:32Z</time>
      </trkpt>
      <trkpt lat="59.832152744083" lon="17.539725977859">
        <ele>71.4</ele>
        <time>2017-10-14T16:16:33Z</time>
      </trkpt>
      <trkpt lat="59.832098345552" lon="17.539759673097">
        <ele>71.6</ele>
        <time>2017-10-14T16:16:34Z</time>
      </trkpt>
      <trkpt lat="59.832050149627" lon="17.539793033059">
        <ele>71.8</ele>
        <time>2017-10-14T16:16:35Z</time>
      </trkpt>
      <trkpt lat="59.831994409992" lon="17.53984407883">
        <ele>71.8</ele>
        <time>2017-10-14T16:16:36Z</time>
      </trkpt>
      <trkpt lat="59.831957529632" lon="17.53991029584">
        <ele>72</ele>
        <time>2017-10-14T16:16:37Z</time>
      </trkpt>
      <trkpt lat="59.831930288457" lon="17.539991516451">
        <ele>72</ele>
        <time>2017-10-14T16:16:38Z</time>
      </trkpt>
      <trkpt lat="59.831906148585" lon="17.540057146728">
        <ele>71.8</ele>
        <time>2017-10-14T16:16:39Z</time>
      </trkpt>
      <trkpt lat="59.831881086704" lon="17.540115987666">
        <ele>71.8</ele>
        <time>2017-10-14T16:16:40Z</time>
      </trkpt>
      <trkpt lat="59.831854348443" lon="17.54021372062">
        <ele>71.6</ele>
        <time>2017-10-14T16:16:41Z</time>
      </trkpt>
      <trkpt lat="59.831840602127" lon="17.540311034479">
        <ele>71.6</ele>
        <time>2017-10-14T16:16:42Z</time>
      </trkpt>
      <trkpt lat="59.831824005965" lon="17.540401307542">
        <ele>71.4</ele>
        <time>2017-10-14T16:16:43Z</time>
      </trkpt>
      <trkpt lat="59.831797435342" lon="17.540468614199">
        <ele>71.4</ele>
        <time>2017-10-14T16:16:44Z</time>
      </trkpt>
      <trkpt lat="59.831768350149" lon="17.540511110432">
        <ele>71.6</ele>
        <time>2017-10-14T16:16:45Z</time>
      </trkpt>
      <trkpt lat="59.831737169481" lon="17.540575231967">
        <ele>71.8</ele>
        <time>2017-10-14T16:16:46Z</time>
      </trkpt>
      <trkpt lat="59.831717220559" lon="17.540636503656">
        <ele>72</ele>
        <time>2017-10-14T16:16:47Z</time>
      </trkpt>
      <trkpt lat="59.831697690732" lon="17.540687968522">
        <ele>72.4</ele>
        <time>2017-10-14T16:16:48Z</time>
      </trkpt>
      <trkpt lat="59.83166852172" lon="17.540731219126">
        <ele>72.8</ele>
        <time>2017-10-14T16:16:49Z</time>
      </trkpt>
      <trkpt lat="59.83163583231" lon="17.540758376482">
        <ele>73</ele>
        <time>2017-10-14T16:16:50Z</time>
      </trkpt>
      <trkpt lat="59.831592749344" lon="17.540784192734">
        <ele>73.4</ele>
        <time>2017-10-14T16:16:51Z</time>
      </trkpt>
      <trkpt lat="59.831550169292" lon="17.540799950706">
        <ele>73.6</ele>
        <time>2017-10-14T16:16:52Z</time>
      </trkpt>
      <trkpt lat="59.831503063014" lon="17.540817720334">
        <ele>74</ele>
        <time>2017-10-14T16:16:53Z</time>
      </trkpt>
      <trkpt lat="59.831457214021" lon="17.540828281528">
        <ele>74.4</ele>
        <time>2017-10-14T16:16:54Z</time>
      </trkpt>
      <trkpt lat="59.831413544322" lon="17.540828197709">
        <ele>74.6</ele>
        <time>2017-10-14T16:16:55Z</time>
      </trkpt>
      <trkpt lat="59.831362917646" lon="17.540826521329">
        <ele>74.6</ele>
        <time>2017-10-14T16:16:56Z</time>
      </trkpt>
      <trkpt lat="59.831311201323" lon="17.540822581836">
        <ele>74.8</ele>
        <time>2017-10-14T16:16:57Z</time>
      </trkpt>
      <trkpt lat="59.831255713145" lon="17.540816630687">
        <ele>74.8</ele>
        <time>2017-10-14T16:16:58Z</time>
      </trkpt>
      <trkpt lat="59.831194860551" lon="17.540816295411">
        <ele>74.6</ele>
        <time>2017-10-14T16:16:59Z</time>
      </trkpt>
      <trkpt lat="59.831139959106" lon="17.540827191881">
        <ele>74.4</ele>
        <time>2017-10-14T16:17:00Z</time>
      </trkpt>
      <trkpt lat="59.831079022693" lon="17.540845632061">
        <ele>74.2</ele>
        <time>2017-10-14T16:17:01Z</time>
      </trkpt>
      <trkpt lat="59.831020349393" lon="17.540859546015">
        <ele>74</ele>
        <time>2017-10-14T16:17:02Z</time>
      </trkpt>
      <trkpt lat="59.830962262826" lon="17.540877650919">
        <ele>73.4</ele>
        <time>2017-10-14T16:17:03Z</time>
      </trkpt>
      <trkpt lat="59.830912306702" lon="17.540898438031">
        <ele>73</ele>
        <time>2017-10-14T16:17:04Z</time>
      </trkpt>
      <trkpt lat="59.83086302113" lon="17.540926601215">
        <ele>72.6</ele>
        <time>2017-10-14T16:17:05Z</time>
      </trkpt>
      <trkpt lat="59.830803761097" lon="17.540962978661">
        <ele>72.4</ele>
        <time>2017-10-14T16:17:06Z</time>
      </trkpt>
      <trkpt lat="59.830752128593" lon="17.540993740234">
        <ele>72.6</ele>
        <time>2017-10-14T16:17:07Z</time>
      </trkpt>
      <trkpt lat="59.830698652071" lon="17.541027016377">
        <ele>72.6</ele>
        <time>2017-10-14T16:17:08Z</time>
      </trkpt>
      <trkpt lat="59.830644169721" lon="17.541061214529">
        <ele>72.8</ele>
        <time>2017-10-14T16:17:09Z</time>
      </trkpt>
      <trkpt lat="59.830592621036" lon="17.541084935306">
        <ele>72.8</ele>
        <time>2017-10-14T16:17:10Z</time>
      </trkpt>
      <trkpt lat="59.830532271356" lon="17.541119049639">
        <ele>72.6</ele>
        <time>2017-10-14T16:17:11Z</time>
      </trkpt>
      <trkpt lat="59.830478627196" lon="17.541147045185">
        <ele>72.4</ele>
        <time>2017-10-14T16:17:12Z</time>
      </trkpt>
      <trkpt lat="59.830426743235" lon="17.541178309672">
        <ele>72.4</ele>
        <time>2017-10-14T16:17:13Z</time>
      </trkpt>
      <trkpt lat="59.830376535654" lon="17.541199934974">
        <ele>72.2</ele>
        <time>2017-10-14T16:17:14Z</time>
      </trkpt>
      <trkpt lat="59.830330519023" lon="17.541208065417">
        <ele>72.2</ele>
        <time>2017-10-14T16:17:15Z</time>
      </trkpt>
      <trkpt lat="59.83027712632" lon="17.541211082901">
        <ele>72.2</ele>
        <time>2017-10-14T16:17:16Z</time>
      </trkpt>
      <trkpt lat="59.830224068893" lon="17.541208484512">
        <ele>72.2</ele>
        <time>2017-10-14T16:17:17Z</time>
      </trkpt>
      <trkpt lat="59.830172520208" lon="17.54120110844">
        <ele>72.4</ele>
        <time>2017-10-14T16:17:18Z</time>
      </trkpt>
      <trkpt lat="59.830119714238" lon="17.541190295789">
        <ele>72.6</ele>
        <time>2017-10-14T16:17:19Z</time>
      </trkpt>
      <trkpt lat="59.830072524141" lon="17.541174453998">
        <ele>72.6</ele>
        <time>2017-10-14T16:17:20Z</time>
      </trkpt>
      <trkpt lat="59.830013012651" lon="17.541154002162">
        <ele>72.8</ele>
        <time>2017-10-14T16:17:21Z</time>
      </trkpt>
      <trkpt lat="59.82995945231" lon="17.541135478163">
        <ele>73</ele>
        <time>2017-10-14T16:17:22Z</time>
      </trkpt>
      <trkpt lat="59.829898683535" lon="17.54111393668">
        <ele>73</ele>
        <time>2017-10-14T16:17:23Z</time>
      </trkpt>
      <trkpt lat="59.829842357167" lon="17.54109717288">
        <ele>73</ele>
        <time>2017-10-14T16:17:24Z</time>
      </trkpt>
      <trkpt lat="59.829787874817" lon="17.541080576718">
        <ele>73</ele>
        <time>2017-10-14T16:17:25Z</time>
      </trkpt>
      <trkpt lat="59.829726519309" lon="17.541065070203">
        <ele>72.8</ele>
        <time>2017-10-14T16:17:26Z</time>
      </trkpt>
      <trkpt lat="59.829671617864" lon="17.541058951416">
        <ele>72.8</ele>
        <time>2017-10-14T16:17:27Z</time>
      </trkpt>
      <trkpt lat="59.829615291496" lon="17.541055179561">
        <ele>72.6</ele>
        <time>2017-10-14T16:17:28Z</time>
      </trkpt>
      <trkpt lat="59.829555360911" lon="17.541057358855">
        <ele>72.4</ele>
        <time>2017-10-14T16:17:29Z</time>
      </trkpt>
      <trkpt lat="59.829502135846" lon="17.541068842058">
        <ele>72.4</ele>
        <time>2017-10-14T16:17:30Z</time>
      </trkpt>
      <trkpt lat="59.82944312727" lon="17.541088288066">
        <ele>72.6</ele>
        <time>2017-10-14T16:17:31Z</time>
      </trkpt>
      <trkpt lat="59.829390908033" lon="17.541112176481">
        <ele>72.8</ele>
        <time>2017-10-14T16:17:32Z</time>
      </trkpt>
      <trkpt lat="59.82934505904" lon="17.541139669113">
        <ele>73</ele>
        <time>2017-10-14T16:17:33Z</time>
      </trkpt>
      <trkpt lat="59.829297366029" lon="17.541174537817">
        <ele>73</ele>
        <time>2017-10-14T16:17:34Z</time>
      </trkpt>
      <trkpt lat="59.829254702158" lon="17.541209909435">
        <ele>72.8</ele>
        <time>2017-10-14T16:17:35Z</time>
      </trkpt>
      <trkpt lat="59.829199716894" lon="17.541260955206">
        <ele>72.8</ele>
        <time>2017-10-14T16:17:36Z</time>
      </trkpt>
      <trkpt lat="59.829156047195" lon="17.541302445611">
        <ele>73</ele>
        <time>2017-10-14T16:17:37Z</time>
      </trkpt>
      <trkpt lat="59.829116652265" lon="17.541333877736">
        <ele>73</ele>
        <time>2017-10-14T16:17:38Z</time>
      </trkpt>
      <trkpt lat="59.829084633407" lon="17.541369249354">
        <ele>73</ele>
        <time>2017-10-14T16:17:39Z</time>
      </trkpt>
      <trkpt lat="59.829052949825" lon="17.54140478861">
        <ele>73.2</ele>
        <time>2017-10-14T16:17:40Z</time>
      </trkpt>
      <trkpt lat="59.829012465248" lon="17.541441417513">
        <ele>73.2</ele>
        <time>2017-10-14T16:17:41Z</time>
      </trkpt>
      <trkpt lat="59.828975584888" lon="17.541475364208">
        <ele>73.4</ele>
        <time>2017-10-14T16:17:42Z</time>
      </trkpt>
      <trkpt lat="59.828936692872" lon="17.541512579844">
        <ele>73.4</ele>
        <time>2017-10-14T16:17:43Z</time>
      </trkpt>
      <trkpt lat="59.828899058141" lon="17.541546777996">
        <ele>73.4</ele>
        <time>2017-10-14T16:17:44Z</time>
      </trkpt>
      <trkpt lat="59.828874247717" lon="17.541568151841">
        <ele>73.2</ele>
        <time>2017-10-14T16:17:45Z</time>
      </trkpt>
      <trkpt lat="59.82882538124" lon="17.541614252291">
        <ele>73.4</ele>
        <time>2017-10-14T16:17:46Z</time>
      </trkpt>
      <trkpt lat="59.828782885007" lon="17.541656077972">
        <ele>73.4</ele>
        <time>2017-10-14T16:17:47Z</time>
      </trkpt>
      <trkpt lat="59.828739131489" lon="17.541692706875">
        <ele>73.4</ele>
        <time>2017-10-14T16:17:48Z</time>
      </trkpt>
      <trkpt lat="59.828695042695" lon="17.541732437081">
        <ele>73.2</ele>
        <time>2017-10-14T16:17:49Z</time>
      </trkpt>
      <trkpt lat="59.828654222842" lon="17.541768060156">
        <ele>73.4</ele>
        <time>2017-10-14T16:17:50Z</time>
      </trkpt>
      <trkpt lat="59.828604015261" lon="17.541811394579">
        <ele>73.4</ele>
        <time>2017-10-14T16:17:51Z</time>
      </trkpt>
      <trkpt lat="59.828555986974" lon="17.541851627699">
        <ele>73.4</ele>
        <time>2017-10-14T16:17:52Z</time>
      </trkpt>
      <trkpt lat="59.828506952859" lon="17.54189512976">
        <ele>73.2</ele>
        <time>2017-10-14T16:17:53Z</time>
      </trkpt>
      <trkpt lat="59.828458673115" lon="17.541934608509">
        <ele>73.2</ele>
        <time>2017-10-14T16:17:54Z</time>
      </trkpt>
      <trkpt lat="59.828415757787" lon="17.541972997611">
        <ele>73.2</ele>
        <time>2017-10-14T16:17:55Z</time>
      </trkpt>
      <trkpt lat="59.828363873826" lon="17.54202840197">
        <ele>73.2</ele>
        <time>2017-10-14T16:17:56Z</time>
      </trkpt>
      <trkpt lat="59.828318360109" lon="17.542081878492">
        <ele>73.2</ele>
        <time>2017-10-14T16:17:57Z</time>
      </trkpt>
      <trkpt lat="59.828268906899" lon="17.542129990598">
        <ele>73.2</ele>
        <time>2017-10-14T16:17:58Z</time>
      </trkpt>
      <trkpt lat="59.828216939119" lon="17.542178521799">
        <ele>73.4</ele>
        <time>2017-10-14T16:17:59Z</time>
      </trkpt>
      <trkpt lat="59.828171676859" lon="17.542217162358">
        <ele>73.6</ele>
        <time>2017-10-14T16:18:00Z</time>
      </trkpt>
      <trkpt lat="59.828119206165" lon="17.542267537577">
        <ele>73.6</ele>
        <time>2017-10-14T16:18:01Z</time>
      </trkpt>
      <trkpt lat="59.828068663308" lon="17.542308776525">
        <ele>73.6</ele>
        <time>2017-10-14T16:18:02Z</time>
      </trkpt>
      <trkpt lat="59.828019964469" lon="17.542339538098">
        <ele>73.6</ele>
        <time>2017-10-14T16:18:03Z</time>
      </trkpt>
      <trkpt lat="59.827968583422" lon="17.542378262476">
        <ele>73.6</ele>
        <time>2017-10-14T16:18:04Z</time>
      </trkpt>
      <trkpt lat="59.827925668094" lon="17.542419249967">
        <ele>73.6</ele>
        <time>2017-10-14T16:18:05Z</time>
      </trkpt>
      <trkpt lat="59.827871185744" lon="17.542468032625">
        <ele>73.6</ele>
        <time>2017-10-14T16:18:06Z</time>
      </trkpt>
      <trkpt lat="59.827822822181" lon="17.54252293407">
        <ele>73.6</ele>
        <time>2017-10-14T16:18:07Z</time>
      </trkpt>
      <trkpt lat="59.827774039523" lon="17.54256987271">
        <ele>73.4</ele>
        <time>2017-10-14T16:18:08Z</time>
      </trkpt>
      <trkpt lat="59.827725005408" lon="17.542606417794">
        <ele>73.4</ele>
        <time>2017-10-14T16:18:09Z</time>
      </trkpt>
      <trkpt lat="59.827679072596" lon="17.542635754444">
        <ele>73.4</ele>
        <time>2017-10-14T16:18:10Z</time>
      </trkpt>
      <trkpt lat="59.827620483115" lon="17.542677663944">
        <ele>73.4</ele>
        <time>2017-10-14T16:18:11Z</time>
      </trkpt>
      <trkpt lat="59.827567677145" lon="17.542720663091">
        <ele>73.4</ele>
        <time>2017-10-14T16:18:12Z</time>
      </trkpt>
      <trkpt lat="59.827516379917" lon="17.542750418836">
        <ele>73.4</ele>
        <time>2017-10-14T16:18:13Z</time>
      </trkpt>
      <trkpt lat="59.827464747413" lon="17.542777492373">
        <ele>73.6</ele>
        <time>2017-10-14T16:18:14Z</time>
      </trkpt>
      <trkpt lat="59.827420910076" lon="17.542800626417">
        <ele>73.6</ele>
        <time>2017-10-14T16:18:15Z</time>
      </trkpt>
      <trkpt lat="59.827371708323" lon="17.542822838452">
        <ele>73.4</ele>
        <time>2017-10-14T16:18:16Z</time>
      </trkpt>
      <trkpt lat="59.827323428579" lon="17.542841194813">
        <ele>73.2</ele>
        <time>2017-10-14T16:18:17Z</time>
      </trkpt>
      <trkpt lat="59.827278501595" lon="17.542860557002">
        <ele>73.2</ele>
        <time>2017-10-14T16:18:18Z</time>
      </trkpt>
      <trkpt lat="59.827234412801" lon="17.542876398793">
        <ele>73.2</ele>
        <time>2017-10-14T16:18:19Z</time>
      </trkpt>
      <trkpt lat="59.827198119174" lon="17.542890480385">
        <ele>73.4</ele>
        <time>2017-10-14T16:18:20Z</time>
      </trkpt>
      <trkpt lat="59.827154365656" lon="17.542892156765">
        <ele>73.4</ele>
        <time>2017-10-14T16:18:21Z</time>
      </trkpt>
      <trkpt lat="59.827115054545" lon="17.542894503697">
        <ele>73.4</ele>
        <time>2017-10-14T16:18:22Z</time>
      </trkpt>
      <trkpt lat="59.827072642131" lon="17.54290263414">
        <ele>73.6</ele>
        <time>2017-10-14T16:18:23Z</time>
      </trkpt>
      <trkpt lat="59.827029056251" lon="17.542919062664">
        <ele>73.6</ele>
        <time>2017-10-14T16:18:24Z</time>
      </trkpt>
      <trkpt lat="59.826986895294" lon="17.542931719333">
        <ele>73.6</ele>
        <time>2017-10-14T16:18:25Z</time>
      </trkpt>
      <trkpt lat="59.82693693917" lon="17.542949237504">
        <ele>73.6</ele>
        <time>2017-10-14T16:18:26Z</time>
      </trkpt>
      <trkpt lat="59.826890754901" lon="17.542961977992">
        <ele>73.6</ele>
        <time>2017-10-14T16:18:27Z</time>
      </trkpt>
      <trkpt lat="59.826845408822" lon="17.54297890943">
        <ele>73.6</ele>
        <time>2017-10-14T16:18:28Z</time>
      </trkpt>
      <trkpt lat="59.826797296716" lon="17.543001037646">
        <ele>73.6</ele>
        <time>2017-10-14T16:18:29Z</time>
      </trkpt>
      <trkpt lat="59.826756141587" lon="17.543021740939">
        <ele>73.4</ele>
        <time>2017-10-14T16:18:30Z</time>
      </trkpt>
      <trkpt lat="59.826715740829" lon="17.543038840015">
        <ele>73.2</ele>
        <time>2017-10-14T16:18:31Z</time>
      </trkpt>
      <trkpt lat="59.826677854641" lon="17.543053340702">
        <ele>73.2</ele>
        <time>2017-10-14T16:18:32Z</time>
      </trkpt>
      <trkpt lat="59.826644494679" lon="17.543072032339">
        <ele>73.2</ele>
        <time>2017-10-14T16:18:33Z</time>
      </trkpt>
      <trkpt lat="59.826613649287" lon="17.543093238546">
        <ele>73</ele>
        <time>2017-10-14T16:18:34Z</time>
      </trkpt>
      <trkpt lat="59.826574338176" lon="17.543120395902">
        <ele>73</ele>
        <time>2017-10-14T16:18:35Z</time>
      </trkpt>
      <trkpt lat="59.826527315717" lon="17.543144116679">
        <ele>73.2</ele>
        <time>2017-10-14T16:18:36Z</time>
      </trkpt>
      <trkpt lat="59.826484065113" lon="17.543156354253">
        <ele>73</ele>
        <time>2017-10-14T16:18:37Z</time>
      </trkpt>
      <trkpt lat="59.826437545568" lon="17.543178482469">
        <ele>73</ele>
        <time>2017-10-14T16:18:38Z</time>
      </trkpt>
      <trkpt lat="59.826392199489" lon="17.54319600064">
        <ele>73</ele>
        <time>2017-10-14T16:18:39Z</time>
      </trkpt>
      <trkpt lat="59.826349032704" lon="17.543217625942">
        <ele>73</ele>
        <time>2017-10-14T16:18:40Z</time>
      </trkpt>
      <trkpt lat="59.826297986933" lon="17.54323874833">
        <ele>73</ele>
        <time>2017-10-14T16:18:41Z</time>
      </trkpt>
      <trkpt lat="59.826254065777" lon="17.543260373632">
        <ele>73</ele>
        <time>2017-10-14T16:18:42Z</time>
      </trkpt>
      <trkpt lat="59.826203942015" lon="17.543284932599">
        <ele>73</ele>
        <time>2017-10-14T16:18:43Z</time>
      </trkpt>
      <trkpt lat="59.826154321167" lon="17.543308401919">
        <ele>73</ele>
        <time>2017-10-14T16:18:44Z</time>
      </trkpt>
      <trkpt lat="59.826117524626" lon="17.543327428832">
        <ele>73</ele>
        <time>2017-10-14T16:18:45Z</time>
      </trkpt>
      <trkpt lat="59.826058851326" lon="17.543358358043">
        <ele>72.8</ele>
        <time>2017-10-14T16:18:46Z</time>
      </trkpt>
      <trkpt lat="59.826008057012" lon="17.543385515399">
        <ele>72.8</ele>
        <time>2017-10-14T16:18:47Z</time>
      </trkpt>
      <trkpt lat="59.825968326806" lon="17.543406973063">
        <ele>72.8</ele>
        <time>2017-10-14T16:18:48Z</time>
      </trkpt>
      <trkpt lat="59.825925746754" lon="17.543436644989">
        <ele>72.6</ele>
        <time>2017-10-14T16:18:49Z</time>
      </trkpt>
      <trkpt lat="59.825886854738" lon="17.543463131793">
        <ele>72.6</ele>
        <time>2017-10-14T16:18:50Z</time>
      </trkpt>
      <trkpt lat="59.825840251374" lon="17.543493809547">
        <ele>72.8</ele>
        <time>2017-10-14T16:18:51Z</time>
      </trkpt>
      <trkpt lat="59.8257944862" lon="17.543525828405">
        <ele>72.8</ele>
        <time>2017-10-14T16:18:52Z</time>
      </trkpt>
      <trkpt lat="59.825744781533" lon="17.543560361833">
        <ele>73</ele>
        <time>2017-10-14T16:18:53Z</time>
      </trkpt>
      <trkpt lat="59.825694490133" lon="17.543599589125">
        <ele>73</ele>
        <time>2017-10-14T16:18:54Z</time>
      </trkpt>
      <trkpt lat="59.825647970588" lon="17.543634876924">
        <ele>73</ele>
        <time>2017-10-14T16:18:55Z</time>
      </trkpt>
      <trkpt lat="59.825597343912" lon="17.543673349845">
        <ele>73</ele>
        <time>2017-10-14T16:18:56Z</time>
      </trkpt>
      <trkpt lat="59.825549986177" lon="17.543709140558">
        <ele>72.6</ele>
        <time>2017-10-14T16:18:57Z</time>
      </trkpt>
      <trkpt lat="59.825504137184" lon="17.543746440013">
        <ele>72.6</ele>
        <time>2017-10-14T16:18:58Z</time>
      </trkpt>
      <trkpt lat="59.825454013422" lon="17.543787008409">
        <ele>72.6</ele>
        <time>2017-10-14T16:18:59Z</time>
      </trkpt>
      <trkpt lat="59.825409840809" lon="17.543818859629">
        <ele>72.6</ele>
        <time>2017-10-14T16:19:00Z</time>
      </trkpt>
      <trkpt lat="59.825361477246" lon="17.543854566523">
        <ele>72.6</ele>
        <time>2017-10-14T16:19:01Z</time>
      </trkpt>
      <trkpt lat="59.82531587971" lon="17.543890105779">
        <ele>72.6</ele>
        <time>2017-10-14T16:19:02Z</time>
      </trkpt>
      <trkpt lat="59.825271623278" lon="17.543920951171">
        <ele>72.6</ele>
        <time>2017-10-14T16:19:03Z</time>
      </trkpt>
      <trkpt lat="59.82522786976" lon="17.543950874554">
        <ele>72.8</ele>
        <time>2017-10-14T16:19:04Z</time>
      </trkpt>
      <trkpt lat="59.825186295536" lon="17.543980714118">
        <ele>72.8</ele>
        <time>2017-10-14T16:19:05Z</time>
      </trkpt>
      <trkpt lat="59.825137093783" lon="17.5440123977">
        <ele>73</ele>
        <time>2017-10-14T16:19:06Z</time>
      </trkpt>
      <trkpt lat="59.825096357749" lon="17.544036956667">
        <ele>73</ele>
        <time>2017-10-14T16:19:07Z</time>
      </trkpt>
      <trkpt lat="59.825056124629" lon="17.544062270005">
        <ele>73.2</ele>
        <time>2017-10-14T16:19:08Z</time>
      </trkpt>
      <trkpt lat="59.82501664588" lon="17.544092444845">
        <ele>73.4</ele>
        <time>2017-10-14T16:19:09Z</time>
      </trkpt>
      <trkpt lat="59.824977837683" lon="17.544120356572">
        <ele>73.6</ele>
        <time>2017-10-14T16:19:10Z</time>
      </trkpt>
      <trkpt lat="59.824930731405" lon="17.54415740457">
        <ele>73.8</ele>
        <time>2017-10-14T16:19:11Z</time>
      </trkpt>
      <trkpt lat="59.824884463317" lon="17.544196045129">
        <ele>73.8</ele>
        <time>2017-10-14T16:19:12Z</time>
      </trkpt>
      <trkpt lat="59.824837440858" lon="17.54423703262">
        <ele>73.6</ele>
        <time>2017-10-14T16:19:13Z</time>
      </trkpt>
      <trkpt lat="59.824790502218" lon="17.544280367043">
        <ele>73.6</ele>
        <time>2017-10-14T16:19:14Z</time>
      </trkpt>
      <trkpt lat="59.824748173623" lon="17.544317666498">
        <ele>73.2</ele>
        <time>2017-10-14T16:19:15Z</time>
      </trkpt>
      <trkpt lat="59.824699223327" lon="17.544359743636">
        <ele>73.2</ele>
        <time>2017-10-14T16:19:16Z</time>
      </trkpt>
      <trkpt lat="59.824649602479" lon="17.544402239869">
        <ele>73</ele>
        <time>2017-10-14T16:19:17Z</time>
      </trkpt>
      <trkpt lat="59.824601406554" lon="17.544443646455">
        <ele>72.8</ele>
        <time>2017-10-14T16:19:18Z</time>
      </trkpt>
      <trkpt lat="59.824553042991" lon="17.544477341693">
        <ele>72.8</ele>
        <time>2017-10-14T16:19:19Z</time>
      </trkpt>
      <trkpt lat="59.824508535102" lon="17.54450776799">
        <ele>72.8</ele>
        <time>2017-10-14T16:19:20Z</time>
      </trkpt>
      <trkpt lat="59.824454723304" lon="17.544544815988">
        <ele>72.8</ele>
        <time>2017-10-14T16:19:21Z</time>
      </trkpt>
      <trkpt lat="59.824405353913" lon="17.54456644129">
        <ele>72.8</ele>
        <time>2017-10-14T16:19:22Z</time>
      </trkpt>
      <trkpt lat="59.824353805228" lon="17.544589575334">
        <ele>73</ele>
        <time>2017-10-14T16:19:23Z</time>
      </trkpt>
      <trkpt lat="59.824304687294" lon="17.544616984147">
        <ele>73</ele>
        <time>2017-10-14T16:19:24Z</time>
      </trkpt>
      <trkpt lat="59.824258000111" lon="17.544645482607">
        <ele>73.2</ele>
        <time>2017-10-14T16:19:25Z</time>
      </trkpt>
      <trkpt lat="59.824205194141" lon="17.544670125393">
        <ele>73.2</ele>
        <time>2017-10-14T16:19:26Z</time>
      </trkpt>
      <trkpt lat="59.824157165854" lon="17.544687392107">
        <ele>73.2</ele>
        <time>2017-10-14T16:19:27Z</time>
      </trkpt>
      <trkpt lat="59.82410804792" lon="17.544700719328">
        <ele>73.4</ele>
        <time>2017-10-14T16:19:28Z</time>
      </trkpt>
      <trkpt lat="59.824055661045" lon="17.544711029065">
        <ele>73.2</ele>
        <time>2017-10-14T16:19:29Z</time>
      </trkpt>
      <trkpt lat="59.824008890043" lon="17.544719997698">
        <ele>73.4</ele>
        <time>2017-10-14T16:19:30Z</time>
      </trkpt>
      <trkpt lat="59.823954407693" lon="17.544728547236">
        <ele>73.2</ele>
        <time>2017-10-14T16:19:31Z</time>
      </trkpt>
      <trkpt lat="59.82390436775" lon="17.544736174765">
        <ele>73.2</ele>
        <time>2017-10-14T16:19:32Z</time>
      </trkpt>
      <trkpt lat="59.823857010015" lon="17.54474665214">
        <ele>73.4</ele>
        <time>2017-10-14T16:19:33Z</time>
      </trkpt>
      <trkpt lat="59.823810406651" lon="17.544744389027">
        <ele>73.4</ele>
        <time>2017-10-14T16:19:34Z</time>
      </trkpt>
      <trkpt lat="59.823766988409" lon="17.544738186421">
        <ele>73.4</ele>
        <time>2017-10-14T16:19:35Z</time>
      </trkpt>
      <trkpt lat="59.823717116104" lon="17.544724356286">
        <ele>73.6</ele>
        <time>2017-10-14T16:19:36Z</time>
      </trkpt>
      <trkpt lat="59.823675206604" lon="17.544712705445">
        <ele>73.6</ele>
        <time>2017-10-14T16:19:37Z</time>
      </trkpt>
      <trkpt lat="59.823635141122" lon="17.54469049341">
        <ele>73.6</ele>
        <time>2017-10-14T16:19:38Z</time>
      </trkpt>
      <trkpt lat="59.823599350409" lon="17.544672723782">
        <ele>73.6</ele>
        <time>2017-10-14T16:19:39Z</time>
      </trkpt>
      <trkpt lat="59.82356657718" lon="17.544653948326">
        <ele>73.6</ele>
        <time>2017-10-14T16:19:40Z</time>
      </trkpt>
      <trkpt lat="59.823525841146" lon="17.544634083223">
        <ele>73.6</ele>
        <time>2017-10-14T16:19:41Z</time>
      </trkpt>
      <trkpt lat="59.823492313546" lon="17.544618073794">
        <ele>73.6</ele>
        <time>2017-10-14T16:19:42Z</time>
      </trkpt>
      <trkpt lat="59.823452918616" lon="17.544607847876">
        <ele>73.6</ele>
        <time>2017-10-14T16:19:43Z</time>
      </trkpt>
      <trkpt lat="59.823413775143" lon="17.544596532311">
        <ele>73.6</ele>
        <time>2017-10-14T16:19:44Z</time>
      </trkpt>
      <trkpt lat="59.823380079905" lon="17.544587815135">
        <ele>73.8</ele>
        <time>2017-10-14T16:19:45Z</time>
      </trkpt>
      <trkpt lat="59.823341690803" lon="17.544580439063">
        <ele>73.6</ele>
        <time>2017-10-14T16:19:46Z</time>
      </trkpt>
      <trkpt lat="59.82330338552" lon="17.544568872041">
        <ele>73.8</ele>
        <time>2017-10-14T16:19:47Z</time>
      </trkpt>
      <trkpt lat="59.823269438825" lon="17.544552862612">
        <ele>73.8</ele>
        <time>2017-10-14T16:19:48Z</time>
      </trkpt>
      <trkpt lat="59.823233648112" lon="17.544544732169">
        <ele>73.8</ele>
        <time>2017-10-14T16:19:49Z</time>
      </trkpt>
      <trkpt lat="59.823203808548" lon="17.544531572586">
        <ele>73.8</ele>
        <time>2017-10-14T16:19:50Z</time>
      </trkpt>
      <trkpt lat="59.823161815229" lon="17.544519418831">
        <ele>74</ele>
        <time>2017-10-14T16:19:51Z</time>
      </trkpt>
      <trkpt lat="59.823122168842" lon="17.54450609161">
        <ele>74</ele>
        <time>2017-10-14T16:19:52Z</time>
      </trkpt>
      <trkpt lat="59.823079924066" lon="17.544490585095">
        <ele>74.2</ele>
        <time>2017-10-14T16:19:53Z</time>
      </trkpt>
      <trkpt lat="59.823043043706" lon="17.544476252046">
        <ele>74.4</ele>
        <time>2017-10-14T16:19:54Z</time>
      </trkpt>
      <trkpt lat="59.823004906061" lon="17.544463427739">
        <ele>74.4</ele>
        <time>2017-10-14T16:19:55Z</time>
      </trkpt>
      <trkpt lat="59.822966936054" lon="17.544452112174">
        <ele>74.4</ele>
        <time>2017-10-14T16:19:56Z</time>
      </trkpt>
      <trkpt lat="59.822928379314" lon="17.544434929279">
        <ele>74.4</ele>
        <time>2017-10-14T16:19:57Z</time>
      </trkpt>
      <trkpt lat="59.822892253325" lon="17.544411208502">
        <ele>74.4</ele>
        <time>2017-10-14T16:19:58Z</time>
      </trkpt>
      <trkpt lat="59.822853109852" lon="17.544383045318">
        <ele>74.4</ele>
        <time>2017-10-14T16:19:59Z</time>
      </trkpt>
      <trkpt lat="59.822816229492" lon="17.544359995093">
        <ele>74.6</ele>
        <time>2017-10-14T16:20:00Z</time>
      </trkpt>
      <trkpt lat="59.822775577277" lon="17.544326886588">
        <ele>74.6</ele>
        <time>2017-10-14T16:20:01Z</time>
      </trkpt>
      <trkpt lat="59.822736601442" lon="17.544290592961">
        <ele>74.8</ele>
        <time>2017-10-14T16:20:02Z</time>
      </trkpt>
      <trkpt lat="59.822698128521" lon="17.54424876728">
        <ele>75</ele>
        <time>2017-10-14T16:20:03Z</time>
      </trkpt>
      <trkpt lat="59.822659152686" lon="17.544198056785">
        <ele>75.2</ele>
        <time>2017-10-14T16:20:04Z</time>
      </trkpt>
      <trkpt lat="59.822626211819" lon="17.544144999358">
        <ele>75.2</ele>
        <time>2017-10-14T16:20:05Z</time>
      </trkpt>
      <trkpt lat="59.822587738898" lon="17.544074256122">
        <ele>75.4</ele>
        <time>2017-10-14T16:20:06Z</time>
      </trkpt>
      <trkpt lat="59.822557983153" lon="17.544006614189">
        <ele>75.6</ele>
        <time>2017-10-14T16:20:07Z</time>
      </trkpt>
      <trkpt lat="59.822535016747" lon="17.54393779879">
        <ele>75.8</ele>
        <time>2017-10-14T16:20:08Z</time>
      </trkpt>
      <trkpt lat="59.822517750033" lon="17.543871078866">
        <ele>75.8</ele>
        <time>2017-10-14T16:20:09Z</time>
      </trkpt>
      <trkpt lat="59.82250626683" lon="17.543812154109">
        <ele>75.8</ele>
        <time>2017-10-14T16:20:10Z</time>
      </trkpt>
      <trkpt lat="59.822490005944" lon="17.543742584339">
        <ele>75.8</ele>
        <time>2017-10-14T16:20:11Z</time>
      </trkpt>
      <trkpt lat="59.822476762542" lon="17.543677540795">
        <ele>76</ele>
        <time>2017-10-14T16:20:12Z</time>
      </trkpt>
      <trkpt lat="59.82246351914" lon="17.543613922174">
        <ele>76</ele>
        <time>2017-10-14T16:20:13Z</time>
      </trkpt>
      <trkpt lat="59.822453293222" lon="17.543553321037">
        <ele>76.2</ele>
        <time>2017-10-14T16:20:14Z</time>
      </trkpt>
      <trkpt lat="59.822443151123" lon="17.543496827031">
        <ele>76.2</ele>
        <time>2017-10-14T16:20:15Z</time>
      </trkpt>
      <trkpt lat="59.822431835558" lon="17.543429185098">
        <ele>76.8</ele>
        <time>2017-10-14T16:20:16Z</time>
      </trkpt>
      <trkpt lat="59.822422028735" lon="17.543361543165">
        <ele>77</ele>
        <time>2017-10-14T16:20:17Z</time>
      </trkpt>
      <trkpt lat="59.822409539704" lon="17.543292308671">
        <ele>77.4</ele>
        <time>2017-10-14T16:20:18Z</time>
      </trkpt>
      <trkpt lat="59.822398224139" lon="17.543217961218">
        <ele>77.4</ele>
        <time>2017-10-14T16:20:19Z</time>
      </trkpt>
      <trkpt lat="59.82238556747" lon="17.543152247122">
        <ele>77.6</ele>
        <time>2017-10-14T16:20:20Z</time>
      </trkpt>
      <trkpt lat="59.822369055127" lon="17.54306272843">
        <ele>77.6</ele>
        <time>2017-10-14T16:20:21Z</time>
      </trkpt>
      <trkpt lat="59.822355895544" lon="17.542980501991">
        <ele>77.6</ele>
        <time>2017-10-14T16:20:22Z</time>
      </trkpt>
      <trkpt lat="59.822340808124" lon="17.542894671335">
        <ele>77.6</ele>
        <time>2017-10-14T16:20:23Z</time>
      </trkpt>
      <trkpt lat="59.822326475075" lon="17.542811187611">
        <ele>77.6</ele>
        <time>2017-10-14T16:20:24Z</time>
      </trkpt>
      <trkpt lat="59.822312225845" lon="17.542730302276">
        <ele>77.6</ele>
        <time>2017-10-14T16:20:25Z</time>
      </trkpt>
      <trkpt lat="59.822297054606" lon="17.542639777756">
        <ele>77.6</ele>
        <time>2017-10-14T16:20:26Z</time>
      </trkpt>
      <trkpt lat="59.822280877539" lon="17.542559311516">
        <ele>77.6</ele>
        <time>2017-10-14T16:20:27Z</time>
      </trkpt>
      <trkpt lat="59.822261347712" lon="17.542466607702">
        <ele>77.6</ele>
        <time>2017-10-14T16:20:28Z</time>
      </trkpt>
      <trkpt lat="59.822245003007" lon="17.542378262476">
        <ele>77.6</ele>
        <time>2017-10-14T16:20:29Z</time>
      </trkpt>
      <trkpt lat="59.822228490664" lon="17.542295952218">
        <ele>77.4</ele>
        <time>2017-10-14T16:20:30Z</time>
      </trkpt>
      <trkpt lat="59.822209044656" lon="17.542200817653">
        <ele>77.6</ele>
        <time>2017-10-14T16:20:31Z</time>
      </trkpt>
      <trkpt lat="59.822186581164" lon="17.542110125495">
        <ele>77.6</ele>
        <time>2017-10-14T16:20:32Z</time>
      </trkpt>
      <trkpt lat="59.822164872043" lon="17.542021780269">
        <ele>77.4</ele>
        <time>2017-10-14T16:20:33Z</time>
      </trkpt>
      <trkpt lat="59.822142660008" lon="17.541935195242">
        <ele>77.2</ele>
        <time>2017-10-14T16:20:34Z</time>
      </trkpt>
      <trkpt lat="59.82212069943" lon="17.541870654612">
        <ele>77.2</ele>
        <time>2017-10-14T16:20:35Z</time>
      </trkpt>
      <trkpt lat="59.822094296445" lon="17.541790020734">
        <ele>77.4</ele>
        <time>2017-10-14T16:20:36Z</time>
      </trkpt>
      <trkpt lat="59.82206789346" lon="17.541732437081">
        <ele>77.4</ele>
        <time>2017-10-14T16:20:37Z</time>
      </trkpt>
      <trkpt lat="59.822039814095" lon="17.541679212016">
        <ele>77.8</ele>
        <time>2017-10-14T16:20:38Z</time>
      </trkpt>
      <trkpt lat="59.82201257292" lon="17.54163277629">
        <ele>78</ele>
        <time>2017-10-14T16:20:39Z</time>
      </trkpt>
      <trkpt lat="59.821986421392" lon="17.541587262573">
        <ele>78.4</ele>
        <time>2017-10-14T16:20:40Z</time>
      </trkpt>
      <trkpt lat="59.821956078914" lon="17.541536468259">
        <ele>78.4</ele>
        <time>2017-10-14T16:20:41Z</time>
      </trkpt>
      <trkpt lat="59.821927999549" lon="17.541491289818">
        <ele>78.4</ele>
        <time>2017-10-14T16:20:42Z</time>
      </trkpt>
      <trkpt lat="59.821898076166" lon="17.541447871576">
        <ele>78.4</ele>
        <time>2017-10-14T16:20:43Z</time>
      </trkpt>
      <trkpt lat="59.821869074792" lon="17.541401687307">
        <ele>78.6</ele>
        <time>2017-10-14T16:20:44Z</time>
      </trkpt>
      <trkpt lat="59.821842336531" lon="17.541358017608">
        <ele>78.6</ele>
        <time>2017-10-14T16:20:45Z</time>
      </trkpt>
      <trkpt lat="59.821809982397" lon="17.541303283801">
        <ele>78.8</ele>
        <time>2017-10-14T16:20:46Z</time>
      </trkpt>
      <trkpt lat="59.821777795901" lon="17.541245867786">
        <ele>78.8</ele>
        <time>2017-10-14T16:20:47Z</time>
      </trkpt>
      <trkpt lat="59.821748123975" lon="17.541183841726">
        <ele>78.8</ele>
        <time>2017-10-14T16:20:48Z</time>
      </trkpt>
      <trkpt lat="59.821718619687" lon="17.541116199793">
        <ele>79</ele>
        <time>2017-10-14T16:20:49Z</time>
      </trkpt>
      <trkpt lat="59.82169489891" lon="17.541061717443">
        <ele>78.8</ele>
        <time>2017-10-14T16:20:50Z</time>
      </trkpt>
      <trkpt lat="59.821666148993" lon="17.540988711094">
        <ele>78.8</ele>
        <time>2017-10-14T16:20:51Z</time>
      </trkpt>
      <trkpt lat="59.821642344397" lon="17.540918303134">
        <ele>78.8</ele>
        <time>2017-10-14T16:20:52Z</time>
      </trkpt>
      <trkpt lat="59.821620719095" lon="17.540849152459">
        <ele>78.8</ele>
        <time>2017-10-14T16:20:53Z</time>
      </trkpt>
      <trkpt lat="59.821605715494" lon="17.5407769843">
        <ele>78.8</ele>
        <time>2017-10-14T16:20:54Z</time>
      </trkpt>
      <trkpt lat="59.82159431611" lon="17.540706911616">
        <ele>78.8</ele>
        <time>2017-10-14T16:20:55Z</time>
      </trkpt>
      <trkpt lat="59.821587191495" lon="17.540623260254">
        <ele>78.8</ele>
        <time>2017-10-14T16:20:56Z</time>
      </trkpt>
      <trkpt lat="59.821584509287" lon="17.54055151119">
        <ele>78.8</ele>
        <time>2017-10-14T16:20:57Z</time>
      </trkpt>
      <trkpt lat="59.821578725776" lon="17.540462998326">
        <ele>78.8</ele>
        <time>2017-10-14T16:20:58Z</time>
      </trkpt>
      <trkpt lat="59.821572104075" lon="17.540371635616">
        <ele>78.8</ele>
        <time>2017-10-14T16:20:59Z</time>
      </trkpt>
      <trkpt lat="59.821566069107" lon="17.540286056417">
        <ele>78.8</ele>
        <time>2017-10-14T16:21:00Z</time>
      </trkpt>
      <trkpt lat="59.82155659756" lon="17.540189664567">
        <ele>78.6</ele>
        <time>2017-10-14T16:21:01Z</time>
      </trkpt>
      <trkpt lat="59.821548970031" lon="17.54009972678">
        <ele>78.4</ele>
        <time>2017-10-14T16:21:02Z</time>
      </trkpt>
      <trkpt lat="59.821543437977" lon="17.540013728486">
        <ele>78.2</ele>
        <time>2017-10-14T16:21:03Z</time>
      </trkpt>
      <trkpt lat="59.821538911751" lon="17.539930747676">
        <ele>78.2</ele>
        <time>2017-10-14T16:21:04Z</time>
      </trkpt>
      <trkpt lat="59.82153396643" lon="17.539858998612">
        <ele>78.2</ele>
        <time>2017-10-14T16:21:05Z</time>
      </trkpt>
      <trkpt lat="59.821529104928" lon="17.539774341422">
        <ele>78.4</ele>
        <time>2017-10-14T16:21:06Z</time>
      </trkpt>
      <trkpt lat="59.821524411064" lon="17.539705274566">
        <ele>78.6</ele>
        <time>2017-10-14T16:21:07Z</time>
      </trkpt>
      <trkpt lat="59.821520303933" lon="17.539638554642">
        <ele>78.6</ele>
        <time>2017-10-14T16:21:08Z</time>
      </trkpt>
      <trkpt lat="59.82151217349" lon="17.539572169994">
        <ele>78.8</ele>
        <time>2017-10-14T16:21:09Z</time>
      </trkpt>
      <trkpt lat="59.821499516821" lon="17.539507294088">
        <ele>79.2</ele>
        <time>2017-10-14T16:21:10Z</time>
      </trkpt>
      <trkpt lat="59.821474538759" lon="17.539447531141">
        <ele>79.4</ele>
        <time>2017-10-14T16:21:11Z</time>
      </trkpt>
      <trkpt lat="59.821449560697" lon="17.53940319089">
        <ele>79.6</ele>
        <time>2017-10-14T16:21:12Z</time>
      </trkpt>
      <trkpt lat="59.821420559323" lon="17.539366059073">
        <ele>79.8</ele>
        <time>2017-10-14T16:21:13Z</time>
      </trkpt>
      <trkpt lat="59.82139063594" lon="17.539341416287">
        <ele>80</ele>
        <time>2017-10-14T16:21:14Z</time>
      </trkpt>
      <trkpt lat="59.821361466928" lon="17.539326496505">
        <ele>80</ele>
        <time>2017-10-14T16:21:15Z</time>
      </trkpt>
      <trkpt lat="59.8213269335" lon="17.539309229791">
        <ele>80.2</ele>
        <time>2017-10-14T16:21:16Z</time>
      </trkpt>
      <trkpt lat="59.821291813339" lon="17.539292382172">
        <ele>80</ele>
        <time>2017-10-14T16:21:17Z</time>
      </trkpt>
      <trkpt lat="59.821260967947" lon="17.539273522897">
        <ele>80</ele>
        <time>2017-10-14T16:21:18Z</time>
      </trkpt>
      <trkpt lat="59.821227524166" lon="17.53925399307">
        <ele>80</ele>
        <time>2017-10-14T16:21:19Z</time>
      </trkpt>
      <trkpt lat="59.821197768421" lon="17.539235804347">
        <ele>80.2</ele>
        <time>2017-10-14T16:21:20Z</time>
      </trkpt>
      <trkpt lat="59.821160720423" lon="17.539205461869">
        <ele>80.6</ele>
        <time>2017-10-14T16:21:21Z</time>
      </trkpt>
      <trkpt lat="59.821126103176" lon="17.539175706124">
        <ele>81</ele>
        <time>2017-10-14T16:21:22Z</time>
      </trkpt>
      <trkpt lat="59.821085199504" lon="17.53915341027">
        <ele>81.2</ele>
        <time>2017-10-14T16:21:23Z</time>
      </trkpt>
      <trkpt lat="59.821046223669" lon="17.539132204063">
        <ele>81.4</ele>
        <time>2017-10-14T16:21:24Z</time>
      </trkpt>
      <trkpt lat="59.821011438784" lon="17.539112003684">
        <ele>81.2</ele>
        <time>2017-10-14T16:21:25Z</time>
      </trkpt>
      <trkpt lat="59.820971373302" lon="17.539088953459">
        <ele>81.2</ele>
        <time>2017-10-14T16:21:26Z</time>
      </trkpt>
      <trkpt lat="59.820937510426" lon="17.539069842727">
        <ele>81.2</ele>
        <time>2017-10-14T16:21:27Z</time>
      </trkpt>
      <trkpt lat="59.820900462428" lon="17.539049390891">
        <ele>81</ele>
        <time>2017-10-14T16:21:28Z</time>
      </trkpt>
      <trkpt lat="59.820862660059" lon="17.539027011218">
        <ele>81.2</ele>
        <time>2017-10-14T16:21:29Z</time>
      </trkpt>
      <trkpt lat="59.82082904864" lon="17.539011253246">
        <ele>81.2</ele>
        <time>2017-10-14T16:21:30Z</time>
      </trkpt>
      <trkpt lat="59.820794347574" lon="17.538993483618">
        <ele>81.2</ele>
        <time>2017-10-14T16:21:31Z</time>
      </trkpt>
      <trkpt lat="59.820761406707" lon="17.538977977103">
        <ele>81.2</ele>
        <time>2017-10-14T16:21:32Z</time>
      </trkpt>
      <trkpt lat="59.820730728953" lon="17.538958447276">
        <ele>81.4</ele>
        <time>2017-10-14T16:21:33Z</time>
      </trkpt>
      <trkpt lat="59.82069661462" lon="17.538935313232">
        <ele>81.6</ele>
        <time>2017-10-14T16:21:34Z</time>
      </trkpt>
      <trkpt lat="59.820661662097" lon="17.538918214156">
        <ele>81.6</ele>
        <time>2017-10-14T16:21:35Z</time>
      </trkpt>
      <trkpt lat="59.820621009882" lon="17.538897594682">
        <ele>81.6</ele>
        <time>2017-10-14T16:21:36Z</time>
      </trkpt>
      <trkpt lat="59.820584213341" lon="17.538872365163">
        <ele>81.6</ele>
        <time>2017-10-14T16:21:37Z</time>
      </trkpt>
      <trkpt lat="59.820546327153" lon="17.538849063481">
        <ele>81.6</ele>
        <time>2017-10-14T16:21:38Z</time>
      </trkpt>
      <trkpt lat="59.820510955535" lon="17.538829701292">
        <ele>82</ele>
        <time>2017-10-14T16:21:39Z</time>
      </trkpt>
      <trkpt lat="59.820478014668" lon="17.538811764026">
        <ele>81.8</ele>
        <time>2017-10-14T16:21:40Z</time>
      </trkpt>
      <trkpt lat="59.820440547575" lon="17.538794748769">
        <ele>82</ele>
        <time>2017-10-14T16:21:41Z</time>
      </trkpt>
      <trkpt lat="59.820407941984" lon="17.538779745168">
        <ele>82.2</ele>
        <time>2017-10-14T16:21:42Z</time>
      </trkpt>
      <trkpt lat="59.820373492375" lon="17.538758287504">
        <ele>82.4</ele>
        <time>2017-10-14T16:21:43Z</time>
      </trkpt>
      <trkpt lat="59.820339880956" lon="17.538741104609">
        <ele>82.4</ele>
        <time>2017-10-14T16:21:44Z</time>
      </trkpt>
      <trkpt lat="59.820314651437" lon="17.538727777388">
        <ele>82.6</ele>
        <time>2017-10-14T16:21:45Z</time>
      </trkpt>
      <trkpt lat="59.82027249048" lon="17.538702799326">
        <ele>82.6</ele>
        <time>2017-10-14T16:21:46Z</time>
      </trkpt>
      <trkpt lat="59.820238711423" lon="17.538682431309">
        <ele>82.8</ele>
        <time>2017-10-14T16:21:47Z</time>
      </trkpt>
      <trkpt lat="59.820205267642" lon="17.538661141283">
        <ele>83.2</ele>
        <time>2017-10-14T16:21:48Z</time>
      </trkpt>
      <trkpt lat="59.820170818033" lon="17.538637504325">
        <ele>83.2</ele>
        <time>2017-10-14T16:21:49Z</time>
      </trkpt>
      <trkpt lat="59.820141062288" lon="17.538613951186">
        <ele>83.4</ele>
        <time>2017-10-14T16:21:50Z</time>
      </trkpt>
      <trkpt lat="59.820105103937" lon="17.538591739151">
        <ele>83.6</ele>
        <time>2017-10-14T16:21:51Z</time>
      </trkpt>
      <trkpt lat="59.820068558853" lon="17.538571035858">
        <ele>83.8</ele>
        <time>2017-10-14T16:21:52Z</time>
      </trkpt>
      <trkpt lat="59.820033271054" lon="17.538551254574">
        <ele>83.8</ele>
        <time>2017-10-14T16:21:53Z</time>
      </trkpt>
      <trkpt lat="59.82000007873" lon="17.538536586249">
        <ele>83.8</ele>
        <time>2017-10-14T16:21:54Z</time>
      </trkpt>
      <trkpt lat="59.819963868922" lon="17.538520660639">
        <ele>83.8</ele>
        <time>2017-10-14T16:21:55Z</time>
      </trkpt>
      <trkpt lat="59.819918355205" lon="17.538488390324">
        <ele>83.8</ele>
        <time>2017-10-14T16:21:56Z</time>
      </trkpt>
      <trkpt lat="59.819877786809" lon="17.538465759194">
        <ele>83.8</ele>
        <time>2017-10-14T16:21:57Z</time>
      </trkpt>
      <trkpt lat="59.81982908797" lon="17.538439104752">
        <ele>83.8</ele>
        <time>2017-10-14T16:21:58Z</time>
      </trkpt>
      <trkpt lat="59.81978550209" lon="17.538414713423">
        <ele>83.4</ele>
        <time>2017-10-14T16:21:59Z</time>
      </trkpt>
      <trkpt lat="59.819752142128" lon="17.538395099777">
        <ele>83</ele>
        <time>2017-10-14T16:22:00Z</time>
      </trkpt>
      <trkpt lat="59.819717524881" lon="17.538375402312">
        <ele>82.8</ele>
        <time>2017-10-14T16:22:01Z</time>
      </trkpt>
      <trkpt lat="59.819687517679" lon="17.538357045951">
        <ele>82.4</ele>
        <time>2017-10-14T16:22:02Z</time>
      </trkpt>
      <trkpt lat="59.819658767762" lon="17.538339276323">
        <ele>82.2</ele>
        <time>2017-10-14T16:22:03Z</time>
      </trkpt>
      <trkpt lat="59.819632616234" lon="17.53832863131">
        <ele>82.2</ele>
        <time>2017-10-14T16:22:04Z</time>
      </trkpt>
      <trkpt lat="59.819609566009" lon="17.538321422876">
        <ele>82.4</ele>
        <time>2017-10-14T16:22:05Z</time>
      </trkpt>
      <trkpt lat="59.819583330662" lon="17.53830516199">
        <ele>82.2</ele>
        <time>2017-10-14T16:22:06Z</time>
      </trkpt>
      <trkpt lat="59.819561034808" lon="17.538279094281">
        <ele>82.2</ele>
        <time>2017-10-14T16:22:07Z</time>
      </trkpt>
      <trkpt lat="59.819539325687" lon="17.538252523658">
        <ele>82</ele>
        <time>2017-10-14T16:22:08Z</time>
      </trkpt>
      <trkpt lat="59.819514599082" lon="17.538229892528">
        <ele>82</ele>
        <time>2017-10-14T16:22:09Z</time>
      </trkpt>
      <trkpt lat="59.819486100622" lon="17.538208853959">
        <ele>82</ele>
        <time>2017-10-14T16:22:10Z</time>
      </trkpt>
      <trkpt lat="59.8194493879" lon="17.53819200634">
        <ele>82</ele>
        <time>2017-10-14T16:22:11Z</time>
      </trkpt>
      <trkpt lat="59.819416782309" lon="17.538184211173">
        <ele>82</ele>
        <time>2017-10-14T16:22:12Z</time>
      </trkpt>
      <trkpt lat="59.819375710999" lon="17.538162585871">
        <ele>82</ele>
        <time>2017-10-14T16:22:13Z</time>
      </trkpt>
      <trkpt lat="59.81933707044" lon="17.538139451827">
        <ele>82</ele>
        <time>2017-10-14T16:22:14Z</time>
      </trkpt>
      <trkpt lat="59.819299938623" lon="17.538117575068">
        <ele>81.8</ele>
        <time>2017-10-14T16:22:15Z</time>
      </trkpt>
      <trkpt lat="59.819256855657" lon="17.538084801839">
        <ele>81.8</ele>
        <time>2017-10-14T16:22:16Z</time>
      </trkpt>
      <trkpt lat="59.819209581741" lon="17.53805454318">
        <ele>81.8</ele>
        <time>2017-10-14T16:22:17Z</time>
      </trkpt>
      <trkpt lat="59.819166163499" lon="17.538025625625">
        <ele>81.8</ele>
        <time>2017-10-14T16:22:18Z</time>
      </trkpt>
      <trkpt lat="59.819123499628" lon="17.537995534604">
        <ele>81.6</ele>
        <time>2017-10-14T16:22:19Z</time>
      </trkpt>
      <trkpt lat="59.819086367811" lon="17.537968963981">
        <ele>81.4</ele>
        <time>2017-10-14T16:22:20Z</time>
      </trkpt>
      <trkpt lat="59.819046469967" lon="17.53792546192">
        <ele>81.2</ele>
        <time>2017-10-14T16:22:21Z</time>
      </trkpt>
      <trkpt lat="59.819012104177" lon="17.537875338158">
        <ele>81.2</ele>
        <time>2017-10-14T16:22:22Z</time>
      </trkpt>
      <trkpt lat="59.818986539382" lon="17.537802415628">
        <ele>81</ele>
        <time>2017-10-14T16:22:23Z</time>
      </trkpt>
      <trkpt lat="59.81897497236" lon="17.537725805062">
        <ele>80.8</ele>
        <time>2017-10-14T16:22:24Z</time>
      </trkpt>
      <trkpt lat="59.818974637084" lon="17.5376505356">
        <ele>80.6</ele>
        <time>2017-10-14T16:22:25Z</time>
      </trkpt>
      <trkpt lat="59.81898167788" lon="17.537563950573">
        <ele>80.6</ele>
        <time>2017-10-14T16:22:26Z</time>
      </trkpt>
      <trkpt lat="59.81899005978" lon="17.537485076894">
        <ele>80.4</ele>
        <time>2017-10-14T16:22:27Z</time>
      </trkpt>
      <trkpt lat="59.819001375345" lon="17.537395055288">
        <ele>80.4</ele>
        <time>2017-10-14T16:22:28Z</time>
      </trkpt>
      <trkpt lat="59.81901436729" lon="17.537303022026">
        <ele>80.6</ele>
        <time>2017-10-14T16:22:29Z</time>
      </trkpt>
      <trkpt lat="59.819023252104" lon="17.537222555786">
        <ele>80.6</ele>
        <time>2017-10-14T16:22:30Z</time>
      </trkpt>
      <trkpt lat="59.819036076411" lon="17.537132617999">
        <ele>80.6</ele>
        <time>2017-10-14T16:22:31Z</time>
      </trkpt>
      <trkpt lat="59.819049068356" lon="17.537049469551">
        <ele>80.6</ele>
        <time>2017-10-14T16:22:32Z</time>
      </trkpt>
      <trkpt lat="59.819057366437" lon="17.536962046334">
        <ele>80.6</ele>
        <time>2017-10-14T16:22:33Z</time>
      </trkpt>
      <trkpt lat="59.81906549688" lon="17.536871186538">
        <ele>80.6</ele>
        <time>2017-10-14T16:22:34Z</time>
      </trkpt>
      <trkpt lat="59.819070609839" lon="17.536773705041">
        <ele>80.8</ele>
        <time>2017-10-14T16:22:35Z</time>
      </trkpt>
      <trkpt lat="59.819076477169" lon="17.536661890495">
        <ele>80.8</ele>
        <time>2017-10-14T16:22:36Z</time>
      </trkpt>
      <trkpt lat="59.819078572644" lon="17.536549740673">
        <ele>80.8</ele>
        <time>2017-10-14T16:22:37Z</time>
      </trkpt>
      <trkpt lat="59.819079075558" lon="17.536437087937">
        <ele>80.8</ele>
        <time>2017-10-14T16:22:38Z</time>
      </trkpt>
      <trkpt lat="59.819077902092" lon="17.536328542332">
        <ele>80.8</ele>
        <time>2017-10-14T16:22:39Z</time>
      </trkpt>
      <trkpt lat="59.819076644807" lon="17.536226702247">
        <ele>80.8</ele>
        <time>2017-10-14T16:22:40Z</time>
      </trkpt>
      <trkpt lat="59.819071028934" lon="17.536130478035">
        <ele>80.6</ele>
        <time>2017-10-14T16:22:41Z</time>
      </trkpt>
      <trkpt lat="59.819066754165" lon="17.536049341243">
        <ele>80.4</ele>
        <time>2017-10-14T16:22:42Z</time>
      </trkpt>
      <trkpt lat="59.819064239595" lon="17.535959738732">
        <ele>80.2</ele>
        <time>2017-10-14T16:22:43Z</time>
      </trkpt>
      <trkpt lat="59.81906130593" lon="17.535878015207">
        <ele>79.8</ele>
        <time>2017-10-14T16:22:44Z</time>
      </trkpt>
      <trkpt lat="59.819059713369" lon="17.535800566451">
        <ele>79.4</ele>
        <time>2017-10-14T16:22:45Z</time>
      </trkpt>
      <trkpt lat="59.819056192971" lon="17.535716076899">
        <ele>79.4</ele>
        <time>2017-10-14T16:22:46Z</time>
      </trkpt>
      <trkpt lat="59.819048900718" lon="17.535634772469">
        <ele>79.4</ele>
        <time>2017-10-14T16:22:47Z</time>
      </trkpt>
      <trkpt lat="59.819038590981" lon="17.535555395876">
        <ele>79.6</ele>
        <time>2017-10-14T16:22:48Z</time>
      </trkpt>
      <trkpt lat="59.81902694014" lon="17.535477192749">
        <ele>79.8</ele>
        <time>2017-10-14T16:22:49Z</time>
      </trkpt>
      <trkpt lat="59.819018390602" lon="17.535404940771">
        <ele>80</ele>
        <time>2017-10-14T16:22:50Z</time>
      </trkpt>
      <trkpt lat="59.819009757245" lon="17.535324306893">
        <ele>80.2</ele>
        <time>2017-10-14T16:22:51Z</time>
      </trkpt>
      <trkpt lat="59.819001291526" lon="17.535246439042">
        <ele>80.4</ele>
        <time>2017-10-14T16:22:52Z</time>
      </trkpt>
      <trkpt lat="59.818993496359" lon="17.535163290594">
        <ele>80.4</ele>
        <time>2017-10-14T16:22:53Z</time>
      </trkpt>
      <trkpt lat="59.818985449735" lon="17.535084584553">
        <ele>80.6</ele>
        <time>2017-10-14T16:22:54Z</time>
      </trkpt>
      <trkpt lat="59.81897916331" lon="17.53500856072">
        <ele>80.8</ele>
        <time>2017-10-14T16:22:55Z</time>
      </trkpt>
      <trkpt lat="59.818974301808" lon="17.534922143331">
        <ele>81</ele>
        <time>2017-10-14T16:22:56Z</time>
      </trkpt>
      <trkpt lat="59.818967177193" lon="17.534847376783">
        <ele>81.2</ele>
        <time>2017-10-14T16:22:57Z</time>
      </trkpt>
      <trkpt lat="59.818960052578" lon="17.534762635774">
        <ele>81.2</ele>
        <time>2017-10-14T16:22:58Z</time>
      </trkpt>
      <trkpt lat="59.818958962931" lon="17.534679906421">
        <ele>81.4</ele>
        <time>2017-10-14T16:22:59Z</time>
      </trkpt>
      <trkpt lat="59.818957035094" lon="17.534602625303">
        <ele>81.6</ele>
        <time>2017-10-14T16:23:00Z</time>
      </trkpt>
      <trkpt lat="59.818957789465" lon="17.534514363896">
        <ele>82</ele>
        <time>2017-10-14T16:23:01Z</time>
      </trkpt>
      <trkpt lat="59.818962650967" lon="17.53443440057">
        <ele>82</ele>
        <time>2017-10-14T16:23:02Z</time>
      </trkpt>
      <trkpt lat="59.818974385627" lon="17.534363908791">
        <ele>82.4</ele>
        <time>2017-10-14T16:23:03Z</time>
      </trkpt>
      <trkpt lat="59.818976564921" lon="17.534288471691">
        <ele>82.6</ele>
        <time>2017-10-14T16:23:04Z</time>
      </trkpt>
      <trkpt lat="59.818976816378" lon="17.534209933288">
        <ele>82.8</ele>
        <time>2017-10-14T16:23:05Z</time>
      </trkpt>
      <trkpt lat="59.818978828034" lon="17.53412510846">
        <ele>82.8</ele>
        <time>2017-10-14T16:23:06Z</time>
      </trkpt>
      <trkpt lat="59.818980252957" lon="17.534044055487">
        <ele>83</ele>
        <time>2017-10-14T16:23:07Z</time>
      </trkpt>
      <trkpt lat="59.818980504414" lon="17.533961074677">
        <ele>83</ele>
        <time>2017-10-14T16:23:08Z</time>
      </trkpt>
      <trkpt lat="59.818981342604" lon="17.533888068328">
        <ele>83</ele>
        <time>2017-10-14T16:23:09Z</time>
      </trkpt>
      <trkpt lat="59.818984108631" lon="17.533817828006">
        <ele>83</ele>
        <time>2017-10-14T16:23:10Z</time>
      </trkpt>
      <trkpt lat="59.818985952649" lon="17.53373283554">
        <ele>83</ele>
        <time>2017-10-14T16:23:11Z</time>
      </trkpt>
      <trkpt lat="59.818985952649" lon="17.533660332105">
        <ele>82.8</ele>
        <time>2017-10-14T16:23:12Z</time>
      </trkpt>
      <trkpt lat="59.818986204106" lon="17.533583218625">
        <ele>82.8</ele>
        <time>2017-10-14T16:23:13Z</time>
      </trkpt>
      <trkpt lat="59.81898503064" lon="17.533513900312">
        <ele>82.8</ele>
        <time>2017-10-14T16:23:14Z</time>
      </trkpt>
      <trkpt lat="59.818985785011" lon="17.533456316659">
        <ele>82.8</ele>
        <time>2017-10-14T16:23:15Z</time>
      </trkpt>
      <trkpt lat="59.818987293753" lon="17.533388590907">
        <ele>83</ele>
        <time>2017-10-14T16:23:16Z</time>
      </trkpt>
      <trkpt lat="59.818991819979" lon="17.533329330874">
        <ele>83</ele>
        <time>2017-10-14T16:23:17Z</time>
      </trkpt>
      <trkpt lat="59.818996597662" lon="17.533270825212">
        <ele>83.2</ele>
        <time>2017-10-14T16:23:18Z</time>
      </trkpt>
      <trkpt lat="59.818998944594" lon="17.533211816636">
        <ele>83.4</ele>
        <time>2017-10-14T16:23:19Z</time>
      </trkpt>
      <trkpt lat="59.818999950422" lon="17.533156915191">
        <ele>83.4</ele>
        <time>2017-10-14T16:23:20Z</time>
      </trkpt>
      <trkpt lat="59.819000034241" lon="17.533093464208">
        <ele>83.4</ele>
        <time>2017-10-14T16:23:21Z</time>
      </trkpt>
      <trkpt lat="59.819001710621" lon="17.533034036537">
        <ele>83.6</ele>
        <time>2017-10-14T16:23:22Z</time>
      </trkpt>
      <trkpt lat="59.819002716449" lon="17.532972513391">
        <ele>83.6</ele>
        <time>2017-10-14T16:23:23Z</time>
      </trkpt>
      <trkpt lat="59.819003135544" lon="17.532915684109">
        <ele>83.6</ele>
        <time>2017-10-14T16:23:24Z</time>
      </trkpt>
      <trkpt lat="59.819003722277" lon="17.532862207587">
        <ele>83.6</ele>
        <time>2017-10-14T16:23:25Z</time>
      </trkpt>
      <trkpt lat="59.819004392829" lon="17.53279993007">
        <ele>83.6</ele>
        <time>2017-10-14T16:23:26Z</time>
      </trkpt>
      <trkpt lat="59.819006236847" lon="17.53274544772">
        <ele>83.6</ele>
        <time>2017-10-14T16:23:27Z</time>
      </trkpt>
      <trkpt lat="59.819008164684" lon="17.532679314529">
        <ele>83.6</ele>
        <time>2017-10-14T16:23:28Z</time>
      </trkpt>
      <trkpt lat="59.819007577951" lon="17.532619467763">
        <ele>83.8</ele>
        <time>2017-10-14T16:23:29Z</time>
      </trkpt>
      <trkpt lat="59.819010260159" lon="17.53257026601">
        <ele>83.8</ele>
        <time>2017-10-14T16:23:30Z</time>
      </trkpt>
      <trkpt lat="59.819011265987" lon="17.532514526375">
        <ele>83.8</ele>
        <time>2017-10-14T16:23:31Z</time>
      </trkpt>
      <trkpt lat="59.819012607091" lon="17.532460295482">
        <ele>83.8</ele>
        <time>2017-10-14T16:23:32Z</time>
      </trkpt>
      <trkpt lat="59.819012271815" lon="17.532405477856">
        <ele>83.8</ele>
        <time>2017-10-14T16:23:33Z</time>
      </trkpt>
      <trkpt lat="59.819014283471" lon="17.532351414601">
        <ele>83.8</ele>
        <time>2017-10-14T16:23:34Z</time>
      </trkpt>
      <trkpt lat="59.819016546584" lon="17.532306990531">
        <ele>84</ele>
        <time>2017-10-14T16:23:35Z</time>
      </trkpt>
      <trkpt lat="59.819014032014" lon="17.532249574516">
        <ele>84.2</ele>
        <time>2017-10-14T16:23:36Z</time>
      </trkpt>
      <trkpt lat="59.819013361462" lon="17.53219559508">
        <ele>84.2</ele>
        <time>2017-10-14T16:23:37Z</time>
      </trkpt>
      <trkpt lat="59.819012187996" lon="17.532145555137">
        <ele>84.4</ele>
        <time>2017-10-14T16:23:38Z</time>
      </trkpt>
      <trkpt lat="59.819010511616" lon="17.532094341728">
        <ele>84.6</ele>
        <time>2017-10-14T16:23:39Z</time>
      </trkpt>
      <trkpt lat="59.819008332322" lon="17.532045391432">
        <ele>84.8</ele>
        <time>2017-10-14T16:23:40Z</time>
      </trkpt>
      <trkpt lat="59.819005817752" lon="17.531987556322">
        <ele>85</ele>
        <time>2017-10-14T16:23:41Z</time>
      </trkpt>
      <trkpt lat="59.819003387001" lon="17.531934247438">
        <ele>85.2</ele>
        <time>2017-10-14T16:23:42Z</time>
      </trkpt>
      <trkpt lat="59.819001878259" lon="17.531869874446">
        <ele>85.2</ele>
        <time>2017-10-14T16:23:43Z</time>
      </trkpt>
      <trkpt lat="59.819003554639" lon="17.531799885581">
        <ele>85.4</ele>
        <time>2017-10-14T16:23:44Z</time>
      </trkpt>
      <trkpt lat="59.8190051472" lon="17.531737021331">
        <ele>85.6</ele>
        <time>2017-10-14T16:23:45Z</time>
      </trkpt>
      <trkpt lat="59.819006572123" lon="17.531662087145">
        <ele>85.8</ele>
        <time>2017-10-14T16:23:46Z</time>
      </trkpt>
      <trkpt lat="59.819003973734" lon="17.531581620905">
        <ele>85.6</ele>
        <time>2017-10-14T16:23:47Z</time>
      </trkpt>
      <trkpt lat="59.819003973734" lon="17.531498304819">
        <ele>85.6</ele>
        <time>2017-10-14T16:23:48Z</time>
      </trkpt>
      <trkpt lat="59.819002800268" lon="17.531411552154">
        <ele>85.4</ele>
        <time>2017-10-14T16:23:49Z</time>
      </trkpt>
      <trkpt lat="59.818998860775" lon="17.531321530548">
        <ele>85</ele>
        <time>2017-10-14T16:23:50Z</time>
      </trkpt>
      <trkpt lat="59.818996597662" lon="17.53121658916">
        <ele>84.8</ele>
        <time>2017-10-14T16:23:51Z</time>
      </trkpt>
      <trkpt lat="59.818993580178" lon="17.531117598921">
        <ele>84.2</ele>
        <time>2017-10-14T16:23:52Z</time>
      </trkpt>
      <trkpt lat="59.818986120287" lon="17.53101458537">
        <ele>83.8</ele>
        <time>2017-10-14T16:23:53Z</time>
      </trkpt>
      <trkpt lat="59.818976313464" lon="17.530925401954">
        <ele>83.4</ele>
        <time>2017-10-14T16:23:54Z</time>
      </trkpt>
      <trkpt lat="59.818965668451" lon="17.530844768076">
        <ele>83.2</ele>
        <time>2017-10-14T16:23:55Z</time>
      </trkpt>
      <trkpt lat="59.818952927963" lon="17.530763882741">
        <ele>82.8</ele>
        <time>2017-10-14T16:23:56Z</time>
      </trkpt>
      <trkpt lat="59.818945551891" lon="17.530701689043">
        <ele>82.6</ele>
        <time>2017-10-14T16:23:57Z</time>
      </trkpt>
      <trkpt lat="59.818936667077" lon="17.530625749029">
        <ele>82.6</ele>
        <time>2017-10-14T16:23:58Z</time>
      </trkpt>
      <trkpt lat="59.81892468096" lon="17.530542852038">
        <ele>82.4</ele>
        <time>2017-10-14T16:23:59Z</time>
      </trkpt>
      <trkpt lat="59.818915293232" lon="17.530465487101">
        <ele>82.4</ele>
        <time>2017-10-14T16:24:00Z</time>
      </trkpt>
      <trkpt lat="59.818901295459" lon="17.530382003377">
        <ele>82.4</ele>
        <time>2017-10-14T16:24:01Z</time>
      </trkpt>
      <trkpt lat="59.818888974066" lon="17.530302542965">
        <ele>82.4</ele>
        <time>2017-10-14T16:24:02Z</time>
      </trkpt>
      <trkpt lat="59.818875814483" lon="17.530228111693">
        <ele>82.4</ele>
        <time>2017-10-14T16:24:03Z</time>
      </trkpt>
      <trkpt lat="59.818863744547" lon="17.530153345145">
        <ele>82.4</ele>
        <time>2017-10-14T16:24:04Z</time>
      </trkpt>
      <trkpt lat="59.818850584964" lon="17.53008251809">
        <ele>82.6</ele>
        <time>2017-10-14T16:24:05Z</time>
      </trkpt>
      <trkpt lat="59.818834491716" lon="17.530007248628">
        <ele>82.6</ele>
        <time>2017-10-14T16:24:06Z</time>
      </trkpt>
      <trkpt lat="59.818824014341" lon="17.529933236451">
        <ele>82.6</ele>
        <time>2017-10-14T16:24:07Z</time>
      </trkpt>
      <trkpt lat="59.818814291337" lon="17.529864504871">
        <ele>82.8</ele>
        <time>2017-10-14T16:24:08Z</time>
      </trkpt>
      <trkpt lat="59.818805825618" lon="17.529798204042">
        <ele>83</ele>
        <time>2017-10-14T16:24:09Z</time>
      </trkpt>
      <trkpt lat="59.818795767338" lon="17.529738944009">
        <ele>83.4</ele>
        <time>2017-10-14T16:24:10Z</time>
      </trkpt>
      <trkpt lat="59.818785373782" lon="17.529666859669">
        <ele>83.6</ele>
        <time>2017-10-14T16:24:11Z</time>
      </trkpt>
      <trkpt lat="59.81877296857" lon="17.529604833609">
        <ele>84</ele>
        <time>2017-10-14T16:24:12Z</time>
      </trkpt>
      <trkpt lat="59.818759138435" lon="17.52953518002">
        <ele>84</ele>
        <time>2017-10-14T16:24:13Z</time>
      </trkpt>
      <trkpt lat="59.818748493422" lon="17.529470220295">
        <ele>84.2</ele>
        <time>2017-10-14T16:24:14Z</time>
      </trkpt>
      <trkpt lat="59.818741284988" lon="17.529410205891">
        <ele>84.4</ele>
        <time>2017-10-14T16:24:15Z</time>
      </trkpt>
      <trkpt lat="59.818727203396" lon="17.529342731596">
        <ele>84.4</ele>
        <time>2017-10-14T16:24:16Z</time>
      </trkpt>
      <trkpt lat="59.818710188139" lon="17.5292770175">
        <ele>84.4</ele>
        <time>2017-10-14T16:24:17Z</time>
      </trkpt>
      <trkpt lat="59.818690574493" lon="17.529206860997">
        <ele>84.4</ele>
        <time>2017-10-14T16:24:18Z</time>
      </trkpt>
      <trkpt lat="59.818672134313" lon="17.529137375046">
        <ele>84.6</ele>
        <time>2017-10-14T16:24:19Z</time>
      </trkpt>
      <trkpt lat="59.818652101572" lon="17.529073002054">
        <ele>84.6</ele>
        <time>2017-10-14T16:24:20Z</time>
      </trkpt>
      <trkpt lat="59.818630727727" lon="17.529005863035">
        <ele>84.6</ele>
        <time>2017-10-14T16:24:21Z</time>
      </trkpt>
      <trkpt lat="59.818607593683" lon="17.528943753156">
        <ele>84.8</ele>
        <time>2017-10-14T16:24:22Z</time>
      </trkpt>
      <trkpt lat="59.818584878734" lon="17.528873680472">
        <ele>84.6</ele>
        <time>2017-10-14T16:24:23Z</time>
      </trkpt>
      <trkpt lat="59.818563001975" lon="17.52881266024">
        <ele>84.8</ele>
        <time>2017-10-14T16:24:24Z</time>
      </trkpt>
      <trkpt lat="59.818540119388" lon="17.52875231056">
        <ele>84.8</ele>
        <time>2017-10-14T16:24:25Z</time>
      </trkpt>
      <trkpt lat="59.818513297308" lon="17.528679974763">
        <ele>84.8</ele>
        <time>2017-10-14T16:24:26Z</time>
      </trkpt>
      <trkpt lat="59.818487732513" lon="17.528624151309">
        <ele>84.8</ele>
        <time>2017-10-14T16:24:27Z</time>
      </trkpt>
      <trkpt lat="59.818456300388" lon="17.52857209971">
        <ele>84.8</ele>
        <time>2017-10-14T16:24:28Z</time>
      </trkpt>
      <trkpt lat="59.818424197711" lon="17.528522897957">
        <ele>84.8</ele>
        <time>2017-10-14T16:24:29Z</time>
      </trkpt>
      <trkpt lat="59.818393017043" lon="17.528485095588">
        <ele>84.6</ele>
        <time>2017-10-14T16:24:30Z</time>
      </trkpt>
      <trkpt lat="59.818355801407" lon="17.528450645979">
        <ele>84.4</ele>
        <time>2017-10-14T16:24:31Z</time>
      </trkpt>
      <trkpt lat="59.818315903563" lon="17.528423991537">
        <ele>84.4</ele>
        <time>2017-10-14T16:24:32Z</time>
      </trkpt>
      <trkpt lat="59.818273155873" lon="17.528399013475">
        <ele>84.4</ele>
        <time>2017-10-14T16:24:33Z</time>
      </trkpt>
      <trkpt lat="59.818233844762" lon="17.528381579123">
        <ele>84.4</ele>
        <time>2017-10-14T16:24:34Z</time>
      </trkpt>
      <trkpt lat="59.818189336873" lon="17.528359367088">
        <ele>84.4</ele>
        <time>2017-10-14T16:24:35Z</time>
      </trkpt>
      <trkpt lat="59.818144828984" lon="17.528342351831">
        <ele>84.4</ele>
        <time>2017-10-14T16:24:36Z</time>
      </trkpt>
      <trkpt lat="59.818100572552" lon="17.528320894167">
        <ele>84.4</ele>
        <time>2017-10-14T16:24:37Z</time>
      </trkpt>
      <trkpt lat="59.818053047179" lon="17.528299185046">
        <ele>84.2</ele>
        <time>2017-10-14T16:24:38Z</time>
      </trkpt>
      <trkpt lat="59.818005940901" lon="17.528277811201">
        <ele>84.2</ele>
        <time>2017-10-14T16:24:39Z</time>
      </trkpt>
      <trkpt lat="59.817957661157" lon="17.528272111509">
        <ele>84</ele>
        <time>2017-10-14T16:24:40Z</time>
      </trkpt>
      <trkpt lat="59.817899071676" lon="17.528266914731">
        <ele>83.8</ele>
        <time>2017-10-14T16:24:41Z</time>
      </trkpt>
      <trkpt lat="59.817849618466" lon="17.528255682985">
        <ele>83.8</ele>
        <time>2017-10-14T16:24:42Z</time>
      </trkpt>
      <trkpt lat="59.817790861347" lon="17.528241433755">
        <ele>83.6</ele>
        <time>2017-10-14T16:24:43Z</time>
      </trkpt>
      <trkpt lat="59.817736378997" lon="17.528227016887">
        <ele>83.2</ele>
        <time>2017-10-14T16:24:44Z</time>
      </trkpt>
      <trkpt lat="59.817697738438" lon="17.5282125162">
        <ele>83.2</ele>
        <time>2017-10-14T16:24:45Z</time>
      </trkpt>
      <trkpt lat="59.817665803399" lon="17.528198853703">
        <ele>83</ele>
        <time>2017-10-14T16:24:46Z</time>
      </trkpt>
      <trkpt lat="59.817617020741" lon="17.5281789886">
        <ele>82.6</ele>
        <time>2017-10-14T16:24:47Z</time>
      </trkpt>
      <trkpt lat="59.817579721286" lon="17.528160045506">
        <ele>82.4</ele>
        <time>2017-10-14T16:24:48Z</time>
      </trkpt>
      <trkpt lat="59.817543511478" lon="17.528137582014">
        <ele>81.8</ele>
        <time>2017-10-14T16:24:49Z</time>
      </trkpt>
      <trkpt lat="59.817508391317" lon="17.528118471282">
        <ele>81.6</ele>
        <time>2017-10-14T16:24:50Z</time>
      </trkpt>
      <trkpt lat="59.817470086034" lon="17.528096343066">
        <ele>81.4</ele>
        <time>2017-10-14T16:24:51Z</time>
      </trkpt>
      <trkpt lat="59.817435636425" lon="17.528078573438">
        <ele>81.4</ele>
        <time>2017-10-14T16:24:52Z</time>
      </trkpt>
      <trkpt lat="59.817391966726" lon="17.528051332263">
        <ele>81.4</ele>
        <time>2017-10-14T16:24:53Z</time>
      </trkpt>
      <trkpt lat="59.817348548484" lon="17.528020654509">
        <ele>81.4</ele>
        <time>2017-10-14T16:24:54Z</time>
      </trkpt>
      <trkpt lat="59.81730278331" lon="17.527992156049">
        <ele>81.4</ele>
        <time>2017-10-14T16:24:55Z</time>
      </trkpt>
      <trkpt lat="59.81725249191" lon="17.527962819399">
        <ele>81.2</ele>
        <time>2017-10-14T16:24:56Z</time>
      </trkpt>
      <trkpt lat="59.817208738392" lon="17.527934740034">
        <ele>80.8</ele>
        <time>2017-10-14T16:24:57Z</time>
      </trkpt>
      <trkpt lat="59.817160542467" lon="17.527905403384">
        <ele>80.4</ele>
        <time>2017-10-14T16:24:58Z</time>
      </trkpt>
      <trkpt lat="59.817106814488" lon="17.527875982915">
        <ele>80.2</ele>
        <time>2017-10-14T16:24:59Z</time>
      </trkpt>
      <trkpt lat="59.817059792029" lon="17.527853435604">
        <ele>80.2</ele>
        <time>2017-10-14T16:25:00Z</time>
      </trkpt>
      <trkpt lat="59.817010757914" lon="17.527823344583">
        <ele>79.8</ele>
        <time>2017-10-14T16:25:01Z</time>
      </trkpt>
      <trkpt lat="59.816967255853" lon="17.52779677396">
        <ele>79.6</ele>
        <time>2017-10-14T16:25:02Z</time>
      </trkpt>
      <trkpt lat="59.816926603638" lon="17.527760983247">
        <ele>79.6</ele>
        <time>2017-10-14T16:25:03Z</time>
      </trkpt>
      <trkpt lat="59.816890058554" lon="17.527723683792">
        <ele>79.8</ele>
        <time>2017-10-14T16:25:04Z</time>
      </trkpt>
      <trkpt lat="59.816851753271" lon="17.527684121224">
        <ele>79.6</ele>
        <time>2017-10-14T16:25:05Z</time>
      </trkpt>
      <trkpt lat="59.816812609798" lon="17.527652018547">
        <ele>79.4</ele>
        <time>2017-10-14T16:25:06Z</time>
      </trkpt>
      <trkpt lat="59.816778998379" lon="17.527622849535">
        <ele>79.4</ele>
        <time>2017-10-14T16:25:07Z</time>
      </trkpt>
      <trkpt lat="59.816745889874" lon="17.527579179836">
        <ele>79.4</ele>
        <time>2017-10-14T16:25:08Z</time>
      </trkpt>
      <trkpt lat="59.816713619559" lon="17.527534504309">
        <ele>79.4</ele>
        <time>2017-10-14T16:25:09Z</time>
      </trkpt>
      <trkpt lat="59.816684534366" lon="17.52748496728">
        <ele>79.6</ele>
        <time>2017-10-14T16:25:10Z</time>
      </trkpt>
      <trkpt lat="59.816650839128" lon="17.527427635084">
        <ele>79.6</ele>
        <time>2017-10-14T16:25:11Z</time>
      </trkpt>
      <trkpt lat="59.816626699256" lon="17.52737264982">
        <ele>79.6</ele>
        <time>2017-10-14T16:25:12Z</time>
      </trkpt>
      <trkpt lat="59.816596775873" lon="17.52731397652">
        <ele>79.8</ele>
        <time>2017-10-14T16:25:13Z</time>
      </trkpt>
      <trkpt lat="59.816571294897" lon="17.527261422007">
        <ele>80</ele>
        <time>2017-10-14T16:25:14Z</time>
      </trkpt>
      <trkpt lat="59.816551597432" lon="17.527219177231">
        <ele>80</ele>
        <time>2017-10-14T16:25:15Z</time>
      </trkpt>
      <trkpt lat="59.816532402881" lon="17.527170981306">
        <ele>80</ele>
        <time>2017-10-14T16:25:16Z</time>
      </trkpt>
      <trkpt lat="59.816520332945" lon="17.527118342974">
        <ele>80.2</ele>
        <time>2017-10-14T16:25:17Z</time>
      </trkpt>
      <trkpt lat="59.816508598285" lon="17.527074421818">
        <ele>80</ele>
        <time>2017-10-14T16:25:18Z</time>
      </trkpt>
      <trkpt lat="59.816489990467" lon="17.527026142074">
        <ele>80</ele>
        <time>2017-10-14T16:25:19Z</time>
      </trkpt>
      <trkpt lat="59.816470293002" lon="17.526976856502">
        <ele>80</ele>
        <time>2017-10-14T16:25:20Z</time>
      </trkpt>
      <trkpt lat="59.816448248605" lon="17.52692002722">
        <ele>80</ele>
        <time>2017-10-14T16:25:21Z</time>
      </trkpt>
      <trkpt lat="59.816427293855" lon="17.5268630303">
        <ele>80</ele>
        <time>2017-10-14T16:25:22Z</time>
      </trkpt>
      <trkpt lat="59.816405584734" lon="17.526810727244">
        <ele>80</ele>
        <time>2017-10-14T16:25:23Z</time>
      </trkpt>
      <trkpt lat="59.816385635812" lon="17.526758172731">
        <ele>80.2</ele>
        <time>2017-10-14T16:25:24Z</time>
      </trkpt>
      <trkpt lat="59.816369374926" lon="17.526706875503">
        <ele>80.2</ele>
        <time>2017-10-14T16:25:25Z</time>
      </trkpt>
      <trkpt lat="59.816348755452" lon="17.526650549135">
        <ele>80.2</ele>
        <time>2017-10-14T16:25:26Z</time>
      </trkpt>
      <trkpt lat="59.816327716883" lon="17.526600173916">
        <ele>80.2</ele>
        <time>2017-10-14T16:25:27Z</time>
      </trkpt>
      <trkpt lat="59.816303996106" lon="17.526542674082">
        <ele>80.2</ele>
        <time>2017-10-14T16:25:28Z</time>
      </trkpt>
      <trkpt lat="59.816282454623" lon="17.526486096257">
        <ele>80.4</ele>
        <time>2017-10-14T16:25:29Z</time>
      </trkpt>
      <trkpt lat="59.816266612832" lon="17.526429769889">
        <ele>80.2</ele>
        <time>2017-10-14T16:25:30Z</time>
      </trkpt>
      <trkpt lat="59.816244903711" lon="17.526370677494">
        <ele>80.2</ele>
        <time>2017-10-14T16:25:31Z</time>
      </trkpt>
      <trkpt lat="59.816226044436" lon="17.526317200972">
        <ele>80.4</ele>
        <time>2017-10-14T16:25:32Z</time>
      </trkpt>
      <trkpt lat="59.816207520437" lon="17.526261377518">
        <ele>80.4</ele>
        <time>2017-10-14T16:25:33Z</time>
      </trkpt>
      <trkpt lat="59.816188242067" lon="17.52620253658">
        <ele>80.6</ele>
        <time>2017-10-14T16:25:34Z</time>
      </trkpt>
      <trkpt lat="59.816167203498" lon="17.526147970411">
        <ele>80.8</ele>
        <time>2017-10-14T16:25:35Z</time>
      </trkpt>
      <trkpt lat="59.816144907644" lon="17.526086447265">
        <ele>81.2</ele>
        <time>2017-10-14T16:25:36Z</time>
      </trkpt>
      <trkpt lat="59.816125210179" lon="17.526030204716">
        <ele>81.6</ele>
        <time>2017-10-14T16:25:37Z</time>
      </trkpt>
      <trkpt lat="59.816106015628" lon="17.525975051814">
        <ele>82</ele>
        <time>2017-10-14T16:25:38Z</time>
      </trkpt>
      <trkpt lat="59.816088581276" lon="17.525918557808">
        <ele>82.2</ele>
        <time>2017-10-14T16:25:39Z</time>
      </trkpt>
      <trkpt lat="59.816072571847" lon="17.52586139325">
        <ele>82.4</ele>
        <time>2017-10-14T16:25:40Z</time>
      </trkpt>
      <trkpt lat="59.816050778907" lon="17.525796433525">
        <ele>82.8</ele>
        <time>2017-10-14T16:25:41Z</time>
      </trkpt>
      <trkpt lat="59.816028483053" lon="17.525734156008">
        <ele>83</ele>
        <time>2017-10-14T16:25:42Z</time>
      </trkpt>
      <trkpt lat="59.816003504991" lon="17.525660814383">
        <ele>83</ele>
        <time>2017-10-14T16:25:43Z</time>
      </trkpt>
      <trkpt lat="59.815984058983" lon="17.525586634568">
        <ele>83</ele>
        <time>2017-10-14T16:25:44Z</time>
      </trkpt>
      <trkpt lat="59.815966289355" lon="17.525518908816">
        <ele>83.2</ele>
        <time>2017-10-14T16:25:45Z</time>
      </trkpt>
      <trkpt lat="59.815943406768" lon="17.525437939662">
        <ele>83.2</ele>
        <time>2017-10-14T16:25:46Z</time>
      </trkpt>
      <trkpt lat="59.81592144619" lon="17.525364849494">
        <ele>83.2</ele>
        <time>2017-10-14T16:25:47Z</time>
      </trkpt>
      <trkpt lat="59.81589797687" lon="17.525286814005">
        <ele>83.2</ele>
        <time>2017-10-14T16:25:48Z</time>
      </trkpt>
      <trkpt lat="59.815874256093" lon="17.525209197611">
        <ele>83.2</ele>
        <time>2017-10-14T16:25:49Z</time>
      </trkpt>
      <trkpt lat="59.81585271461" lon="17.52514138804">
        <ele>83.4</ele>
        <time>2017-10-14T16:25:50Z</time>
      </trkpt>
      <trkpt lat="59.815830586394" lon="17.525065364207">
        <ele>83.4</ele>
        <time>2017-10-14T16:25:51Z</time>
      </trkpt>
      <trkpt lat="59.815807200893" lon="17.524992609315">
        <ele>83.4</ele>
        <time>2017-10-14T16:25:52Z</time>
      </trkpt>
      <trkpt lat="59.815784737401" lon="17.524922201355">
        <ele>83.6</ele>
        <time>2017-10-14T16:25:53Z</time>
      </trkpt>
      <trkpt lat="59.815762525366" lon="17.524849446463">
        <ele>83.8</ele>
        <time>2017-10-14T16:25:54Z</time>
      </trkpt>
      <trkpt lat="59.815739894236" lon="17.524781385435">
        <ele>84</ele>
        <time>2017-10-14T16:25:55Z</time>
      </trkpt>
      <trkpt lat="59.815716173459" lon="17.524701589747">
        <ele>84.2</ele>
        <time>2017-10-14T16:25:56Z</time>
      </trkpt>
      <trkpt lat="59.815695302528" lon="17.524638054945">
        <ele>84.6</ele>
        <time>2017-10-14T16:25:57Z</time>
      </trkpt>
      <trkpt lat="59.815674263959" lon="17.524572676125">
        <ele>84.6</ele>
        <time>2017-10-14T16:25:58Z</time>
      </trkpt>
      <trkpt lat="59.815655907598" lon="17.524514757196">
        <ele>84.8</ele>
        <time>2017-10-14T16:25:59Z</time>
      </trkpt>
      <trkpt lat="59.815640568721" lon="17.524467148004">
        <ele>84.8</ele>
        <time>2017-10-14T16:26:00Z</time>
      </trkpt>
      <trkpt lat="59.815624475473" lon="17.524418449165">
        <ele>85</ele>
        <time>2017-10-14T16:26:01Z</time>
      </trkpt>
      <trkpt lat="59.815609220415" lon="17.524375869113">
        <ele>84.8</ele>
        <time>2017-10-14T16:26:02Z</time>
      </trkpt>
      <trkpt lat="59.815592791891" lon="17.524333791975">
        <ele>84.8</ele>
        <time>2017-10-14T16:26:03Z</time>
      </trkpt>
      <trkpt lat="59.815578207385" lon="17.524295989606">
        <ele>84.8</ele>
        <time>2017-10-14T16:26:04Z</time>
      </trkpt>
      <trkpt lat="59.815563203784" lon="17.524249134785">
        <ele>84.8</ele>
        <time>2017-10-14T16:26:05Z</time>
      </trkpt>
      <trkpt lat="59.815546691441" lon="17.524205548905">
        <ele>85</ele>
        <time>2017-10-14T16:26:06Z</time>
      </trkpt>
      <trkpt lat="59.815520204637" lon="17.524149725451">
        <ele>85</ele>
        <time>2017-10-14T16:26:07Z</time>
      </trkpt>
      <trkpt lat="59.815492041453" lon="17.52410370882">
        <ele>85</ele>
        <time>2017-10-14T16:26:08Z</time>
      </trkpt>
      <trkpt lat="59.8154596035" lon="17.524059033293">
        <ele>85</ele>
        <time>2017-10-14T16:26:09Z</time>
      </trkpt>
      <trkpt lat="59.815423477511" lon="17.524018381078">
        <ele>84.8</ele>
        <time>2017-10-14T16:26:10Z</time>
      </trkpt>
      <trkpt lat="59.815374611034" lon="17.523977393587">
        <ele>84.8</ele>
        <time>2017-10-14T16:26:11Z</time>
      </trkpt>
      <trkpt lat="59.815326918023" lon="17.523944536539">
        <ele>84.6</ele>
        <time>2017-10-14T16:26:12Z</time>
      </trkpt>
      <trkpt lat="59.815269753465" lon="17.523908662007">
        <ele>84.4</ele>
        <time>2017-10-14T16:26:13Z</time>
      </trkpt>
      <trkpt lat="59.815212421269" lon="17.523873877122">
        <ele>84</ele>
        <time>2017-10-14T16:26:14Z</time>
      </trkpt>
      <trkpt lat="59.8151578551" lon="17.52383884078">
        <ele>83.6</ele>
        <time>2017-10-14T16:26:15Z</time>
      </trkpt>
      <trkpt lat="59.815087028045" lon="17.52379274033">
        <ele>82.8</ele>
        <time>2017-10-14T16:26:16Z</time>
      </trkpt>
      <trkpt lat="59.815018967017" lon="17.523751501382">
        <ele>82</ele>
        <time>2017-10-14T16:26:17Z</time>
      </trkpt>
      <trkpt lat="59.814955264577" lon="17.523711016805">
        <ele>81</ele>
        <time>2017-10-14T16:26:18Z</time>
      </trkpt>
      <trkpt lat="59.814897680924" lon="17.523675980463">
        <ele>80.4</ele>
        <time>2017-10-14T16:26:19Z</time>
      </trkpt>
      <trkpt lat="59.814837415063" lon="17.523647062908">
        <ele>80</ele>
        <time>2017-10-14T16:26:20Z</time>
      </trkpt>
      <trkpt lat="59.814781423971" lon="17.523620492285">
        <ele>79.8</ele>
        <time>2017-10-14T16:26:21Z</time>
      </trkpt>
      <trkpt lat="59.814726522526" lon="17.523589982169">
        <ele>79.4</ele>
        <time>2017-10-14T16:26:22Z</time>
      </trkpt>
      <trkpt lat="59.814678158963" lon="17.523561651347">
        <ele>79.4</ele>
        <time>2017-10-14T16:26:23Z</time>
      </trkpt>
      <trkpt lat="59.814629292486" lon="17.523532817611">
        <ele>79.4</ele>
        <time>2017-10-14T16:26:24Z</time>
      </trkpt>
      <trkpt lat="59.814588053538" lon="17.523507839549">
        <ele>79.4</ele>
        <time>2017-10-14T16:26:25Z</time>
      </trkpt>
      <trkpt lat="59.814546144038" lon="17.523482442392">
        <ele>79.2</ele>
        <time>2017-10-14T16:26:26Z</time>
      </trkpt>
      <trkpt lat="59.814511526791" lon="17.523456709959">
        <ele>79.2</ele>
        <time>2017-10-14T16:26:27Z</time>
      </trkpt>
      <trkpt lat="59.814475652259" lon="17.523430726069">
        <ele>79.2</ele>
        <time>2017-10-14T16:26:28Z</time>
      </trkpt>
      <trkpt lat="59.81444204084" lon="17.523409268405">
        <ele>79.2</ele>
        <time>2017-10-14T16:26:29Z</time>
      </trkpt>
      <trkpt lat="59.814412117457" lon="17.523391666415">
        <ele>79.2</ele>
        <time>2017-10-14T16:26:30Z</time>
      </trkpt>
      <trkpt lat="59.814378003124" lon="17.523373226235">
        <ele>79.2</ele>
        <time>2017-10-14T16:26:31Z</time>
      </trkpt>
      <trkpt lat="59.81434900175" lon="17.52335436696">
        <ele>79</ele>
        <time>2017-10-14T16:26:32Z</time>
      </trkpt>
      <trkpt lat="59.814320000376" lon="17.523336429694">
        <ele>79.2</ele>
        <time>2017-10-14T16:26:33Z</time>
      </trkpt>
      <trkpt lat="59.814290915183" lon="17.523318492428">
        <ele>79.2</ele>
        <time>2017-10-14T16:26:34Z</time>
      </trkpt>
      <trkpt lat="59.814260237429" lon="17.523300052248">
        <ele>79.2</ele>
        <time>2017-10-14T16:26:35Z</time>
      </trkpt>
      <trkpt lat="59.814228386209" lon="17.523281695887">
        <ele>79.2</ele>
        <time>2017-10-14T16:26:36Z</time>
      </trkpt>
      <trkpt lat="59.814196199713" lon="17.52326300425">
        <ele>79.4</ele>
        <time>2017-10-14T16:26:37Z</time>
      </trkpt>
      <trkpt lat="59.814165521959" lon="17.523242133319">
        <ele>79.4</ele>
        <time>2017-10-14T16:26:38Z</time>
      </trkpt>
      <trkpt lat="59.814132161997" lon="17.523223944596">
        <ele>79.4</ele>
        <time>2017-10-14T16:26:39Z</time>
      </trkpt>
      <trkpt lat="59.814098299121" lon="17.523205839692">
        <ele>79.4</ele>
        <time>2017-10-14T16:26:40Z</time>
      </trkpt>
      <trkpt lat="59.814055132336" lon="17.52318421439">
        <ele>79.2</ele>
        <time>2017-10-14T16:26:41Z</time>
      </trkpt>
      <trkpt lat="59.81401875489" lon="17.523162086174">
        <ele>79.2</ele>
        <time>2017-10-14T16:26:42Z</time>
      </trkpt>
      <trkpt lat="59.813979611417" lon="17.523140293234">
        <ele>79.2</ele>
        <time>2017-10-14T16:26:43Z</time>
      </trkpt>
      <trkpt lat="59.813944910351" lon="17.523122272149">
        <ele>79.4</ele>
        <time>2017-10-14T16:26:44Z</time>
      </trkpt>
      <trkpt lat="59.813911550389" lon="17.52310626272">
        <ele>79.6</ele>
        <time>2017-10-14T16:26:45Z</time>
      </trkpt>
      <trkpt lat="59.813872490735" lon="17.523081787572">
        <ele>79.6</ele>
        <time>2017-10-14T16:26:46Z</time>
      </trkpt>
      <trkpt lat="59.813833850176" lon="17.5230576477">
        <ele>80</ele>
        <time>2017-10-14T16:26:47Z</time>
      </trkpt>
      <trkpt lat="59.813795544893" lon="17.523029819792">
        <ele>80</ele>
        <time>2017-10-14T16:26:48Z</time>
      </trkpt>
      <trkpt lat="59.813760089456" lon="17.522990424862">
        <ele>80.2</ele>
        <time>2017-10-14T16:26:49Z</time>
      </trkpt>
      <trkpt lat="59.813722119449" lon="17.522936780702">
        <ele>80.2</ele>
        <time>2017-10-14T16:26:50Z</time>
      </trkpt>
      <trkpt lat="59.813684987632" lon="17.522868049122">
        <ele>80.2</ele>
        <time>2017-10-14T16:26:51Z</time>
      </trkpt>
      <trkpt lat="59.813648107272" lon="17.522789259262">
        <ele>80.2</ele>
        <time>2017-10-14T16:26:52Z</time>
      </trkpt>
      <trkpt lat="59.813611729826" lon="17.522716755827">
        <ele>80.2</ele>
        <time>2017-10-14T16:26:53Z</time>
      </trkpt>
      <trkpt lat="59.813579710968" lon="17.522657328156">
        <ele>80</ele>
        <time>2017-10-14T16:26:54Z</time>
      </trkpt>
      <trkpt lat="59.813549117033" lon="17.522597816666">
        <ele>79.6</ele>
        <time>2017-10-14T16:26:55Z</time>
      </trkpt>
      <trkpt lat="59.813522630229" lon="17.522544172506">
        <ele>79.4</ele>
        <time>2017-10-14T16:26:56Z</time>
      </trkpt>
      <trkpt lat="59.813499663823" lon="17.52249522221">
        <ele>79.2</ele>
        <time>2017-10-14T16:26:57Z</time>
      </trkpt>
      <trkpt lat="59.813475440132" lon="17.522443338249">
        <ele>79.2</ele>
        <time>2017-10-14T16:26:58Z</time>
      </trkpt>
      <trkpt lat="59.813451551717" lon="17.522389526451">
        <ele>79.2</ele>
        <time>2017-10-14T16:26:59Z</time>
      </trkpt>
      <trkpt lat="59.813427747121" lon="17.522339989422">
        <ele>79.6</ele>
        <time>2017-10-14T16:27:00Z</time>
      </trkpt>
      <trkpt lat="59.813394219521" lon="17.522287686366">
        <ele>79.8</ele>
        <time>2017-10-14T16:27:01Z</time>
      </trkpt>
      <trkpt lat="59.813361949206" lon="17.522235299491">
        <ele>80</ele>
        <time>2017-10-14T16:27:02Z</time>
      </trkpt>
      <trkpt lat="59.81333227728" lon="17.522181906788">
        <ele>80</ele>
        <time>2017-10-14T16:27:03Z</time>
      </trkpt>
      <trkpt lat="59.813299252594" lon="17.522128514085">
        <ele>80</ele>
        <time>2017-10-14T16:27:04Z</time>
      </trkpt>
      <trkpt lat="59.813264216252" lon="17.522071014251">
        <ele>80.2</ele>
        <time>2017-10-14T16:27:05Z</time>
      </trkpt>
      <trkpt lat="59.813227335892" lon="17.522009742562">
        <ele>80.4</ele>
        <time>2017-10-14T16:27:06Z</time>
      </trkpt>
      <trkpt lat="59.813189114428" lon="17.521949979615">
        <ele>80.4</ele>
        <time>2017-10-14T16:27:07Z</time>
      </trkpt>
      <trkpt lat="59.813147204928" lon="17.521894910532">
        <ele>80.4</ele>
        <time>2017-10-14T16:27:08Z</time>
      </trkpt>
      <trkpt lat="59.813107223265" lon="17.521840847277">
        <ele>80.4</ele>
        <time>2017-10-14T16:27:09Z</time>
      </trkpt>
      <trkpt lat="59.813070678181" lon="17.521791896981">
        <ele>80.4</ele>
        <time>2017-10-14T16:27:10Z</time>
      </trkpt>
      <trkpt lat="59.813027679034" lon="17.521735402975">
        <ele>80.2</ele>
        <time>2017-10-14T16:27:11Z</time>
      </trkpt>
      <trkpt lat="59.812986356267" lon="17.521680920625">
        <ele>80.2</ele>
        <time>2017-10-14T16:27:12Z</time>
      </trkpt>
      <trkpt lat="59.812940758731" lon="17.521634987813">
        <ele>80</ele>
        <time>2017-10-14T16:27:13Z</time>
      </trkpt>
      <trkpt lat="59.812893568634" lon="17.521601544032">
        <ele>80.2</ele>
        <time>2017-10-14T16:27:14Z</time>
      </trkpt>
      <trkpt lat="59.812849144564" lon="17.521566004776">
        <ele>80.2</ele>
        <time>2017-10-14T16:27:15Z</time>
      </trkpt>
      <trkpt lat="59.812803882304" lon="17.521531136072">
        <ele>80</ele>
        <time>2017-10-14T16:27:16Z</time>
      </trkpt>
      <trkpt lat="59.812761972804" lon="17.521494758626">
        <ele>80</ele>
        <time>2017-10-14T16:27:17Z</time>
      </trkpt>
      <trkpt lat="59.812724840987" lon="17.521466846899">
        <ele>80</ele>
        <time>2017-10-14T16:27:18Z</time>
      </trkpt>
      <trkpt lat="59.812688044446" lon="17.521449915461">
        <ele>79.8</ele>
        <time>2017-10-14T16:27:19Z</time>
      </trkpt>
      <trkpt lat="59.812650493534" lon="17.521426781417">
        <ele>79.8</ele>
        <time>2017-10-14T16:27:20Z</time>
      </trkpt>
      <trkpt lat="59.81261143388" lon="17.521393253817">
        <ele>79.8</ele>
        <time>2017-10-14T16:27:21Z</time>
      </trkpt>
      <trkpt lat="59.812577654823" lon="17.521369784497">
        <ele>79.8</ele>
        <time>2017-10-14T16:27:22Z</time>
      </trkpt>
      <trkpt lat="59.812537924617" lon="17.521349165023">
        <ele>79.8</ele>
        <time>2017-10-14T16:27:23Z</time>
      </trkpt>
      <trkpt lat="59.812498110592" lon="17.521325695703">
        <ele>79.8</ele>
        <time>2017-10-14T16:27:24Z</time>
      </trkpt>
      <trkpt lat="59.81245385416" lon="17.521310608283">
        <ele>80</ele>
        <time>2017-10-14T16:27:25Z</time>
      </trkpt>
      <trkpt lat="59.812404820045" lon="17.521293425388">
        <ele>80.2</ele>
        <time>2017-10-14T16:27:26Z</time>
      </trkpt>
      <trkpt lat="59.812364838382" lon="17.521273225009">
        <ele>80.2</ele>
        <time>2017-10-14T16:27:27Z</time>
      </trkpt>
      <trkpt lat="59.812317899742" lon="17.521259562512">
        <ele>80.4</ele>
        <time>2017-10-14T16:27:28Z</time>
      </trkpt>
      <trkpt lat="59.812272469844" lon="17.521243720721">
        <ele>80.4</ele>
        <time>2017-10-14T16:27:29Z</time>
      </trkpt>
      <trkpt lat="59.812233158733" lon="17.521228214206">
        <ele>80.6</ele>
        <time>2017-10-14T16:27:30Z</time>
      </trkpt>
      <trkpt lat="59.812175826537" lon="17.521218742659">
        <ele>80.6</ele>
        <time>2017-10-14T16:27:31Z</time>
      </trkpt>
      <trkpt lat="59.812122098558" lon="17.521208181465">
        <ele>80.8</ele>
        <time>2017-10-14T16:27:32Z</time>
      </trkpt>
      <trkpt lat="59.812068202941" lon="17.521194435149">
        <ele>80.8</ele>
        <time>2017-10-14T16:27:33Z</time>
      </trkpt>
      <trkpt lat="59.812019420283" lon="17.521187813448">
        <ele>80.8</ele>
        <time>2017-10-14T16:27:34Z</time>
      </trkpt>
      <trkpt lat="59.811964183562" lon="17.521187813448">
        <ele>81</ele>
        <time>2017-10-14T16:27:35Z</time>
      </trkpt>
      <trkpt lat="59.811904755891" lon="17.521185717973">
        <ele>80.8</ele>
        <time>2017-10-14T16:27:36Z</time>
      </trkpt>
      <trkpt lat="59.811855973233" lon="17.521177755168">
        <ele>80.8</ele>
        <time>2017-10-14T16:27:37Z</time>
      </trkpt>
      <trkpt lat="59.811805849471" lon="17.521157973884">
        <ele>80.8</ele>
        <time>2017-10-14T16:27:38Z</time>
      </trkpt>
      <trkpt lat="59.811756647718" lon="17.521140036618">
        <ele>80.8</ele>
        <time>2017-10-14T16:27:39Z</time>
      </trkpt>
      <trkpt lat="59.811708451793" lon="17.521121009705">
        <ele>80.8</ele>
        <time>2017-10-14T16:27:40Z</time>
      </trkpt>
      <trkpt lat="59.811659836773" lon="17.52109544491">
        <ele>80.8</ele>
        <time>2017-10-14T16:27:41Z</time>
      </trkpt>
      <trkpt lat="59.811619184558" lon="17.521069712477">
        <ele>80.8</ele>
        <time>2017-10-14T16:27:42Z</time>
      </trkpt>
      <trkpt lat="59.811575263402" lon="17.521056385256">
        <ele>80.6</ele>
        <time>2017-10-14T16:27:43Z</time>
      </trkpt>
      <trkpt lat="59.811529917323" lon="17.521038196533">
        <ele>80.6</ele>
        <time>2017-10-14T16:27:44Z</time>
      </trkpt>
      <trkpt lat="59.811487337271" lon="17.521030736642">
        <ele>80.6</ele>
        <time>2017-10-14T16:27:45Z</time>
      </trkpt>
      <trkpt lat="59.811447942341" lon="17.521043896225">
        <ele>80.4</ele>
        <time>2017-10-14T16:27:46Z</time>
      </trkpt>
      <trkpt lat="59.811421623175" lon="17.521052278125">
        <ele>80.4</ele>
        <time>2017-10-14T16:27:47Z</time>
      </trkpt>
      <trkpt lat="59.811388766127" lon="17.52105102084">
        <ele>80.2</ele>
        <time>2017-10-14T16:27:48Z</time>
      </trkpt>
      <trkpt lat="59.811363201332" lon="17.521029479357">
        <ele>80.2</ele>
        <time>2017-10-14T16:27:49Z</time>
      </trkpt>
      <trkpt lat="59.811331936845" lon="17.521002573458">
        <ele>80</ele>
        <time>2017-10-14T16:27:50Z</time>
      </trkpt>
      <trkpt lat="59.811287177499" lon="17.520983211269">
        <ele>80</ele>
        <time>2017-10-14T16:27:51Z</time>
      </trkpt>
      <trkpt lat="59.811240825592" lon="17.520960831596">
        <ele>79.8</ele>
        <time>2017-10-14T16:27:52Z</time>
      </trkpt>
      <trkpt lat="59.811185421233" lon="17.520939290113">
        <ele>79.6</ele>
        <time>2017-10-14T16:27:53Z</time>
      </trkpt>
      <trkpt lat="59.81113035215" lon="17.520923448322">
        <ele>79.4</ele>
        <time>2017-10-14T16:27:54Z</time>
      </trkpt>
      <trkpt lat="59.811075953619" lon="17.520910875472">
        <ele>79.2</ele>
        <time>2017-10-14T16:27:55Z</time>
      </trkpt>
      <trkpt lat="59.811013759921" lon="17.520895368957">
        <ele>79</ele>
        <time>2017-10-14T16:27:56Z</time>
      </trkpt>
      <trkpt lat="59.810955421897" lon="17.520873492198">
        <ele>78.8</ele>
        <time>2017-10-14T16:27:57Z</time>
      </trkpt>
      <trkpt lat="59.810893814932" lon="17.520846753937">
        <ele>78.4</ele>
        <time>2017-10-14T16:27:58Z</time>
      </trkpt>
      <trkpt lat="59.810831872691" lon="17.520822865522">
        <ele>78</ele>
        <time>2017-10-14T16:27:59Z</time>
      </trkpt>
      <trkpt lat="59.810777557979" lon="17.520793612691">
        <ele>77.4</ele>
        <time>2017-10-14T16:28:00Z</time>
      </trkpt>
      <trkpt lat="59.810715364281" lon="17.520752960476">
        <ele>77.2</ele>
        <time>2017-10-14T16:28:01Z</time>
      </trkpt>
      <trkpt lat="59.810648895814" lon="17.5207190976">
        <ele>76.8</ele>
        <time>2017-10-14T16:28:02Z</time>
      </trkpt>
      <trkpt lat="59.810580583329" lon="17.520688587484">
        <ele>76.6</ele>
        <time>2017-10-14T16:28:03Z</time>
      </trkpt>
      <trkpt lat="59.810512522301" lon="17.520662184499">
        <ele>76</ele>
        <time>2017-10-14T16:28:04Z</time>
      </trkpt>
      <trkpt lat="59.810438761581" lon="17.520626729062">
        <ele>75.6</ele>
        <time>2017-10-14T16:28:05Z</time>
      </trkpt>
      <trkpt lat="59.810360139359" lon="17.520586579761">
        <ele>75</ele>
        <time>2017-10-14T16:28:06Z</time>
      </trkpt>
      <trkpt lat="59.810286462458" lon="17.520554141808">
        <ele>74.4</ele>
        <time>2017-10-14T16:28:07Z</time>
      </trkpt>
      <trkpt lat="59.810209851892" lon="17.520521368579">
        <ele>73.8</ele>
        <time>2017-10-14T16:28:08Z</time>
      </trkpt>
      <trkpt lat="59.810133408964" lon="17.520487170427">
        <ele>73.4</ele>
        <time>2017-10-14T16:28:09Z</time>
      </trkpt>
      <trkpt lat="59.810058726235" lon="17.520446518212">
        <ele>73</ele>
        <time>2017-10-14T16:28:10Z</time>
      </trkpt>
      <trkpt lat="59.809972141208" lon="17.520394047518">
        <ele>72.2</ele>
        <time>2017-10-14T16:28:11Z</time>
      </trkpt>
      <trkpt lat="59.809892261701" lon="17.520347527973">
        <ele>71.4</ele>
        <time>2017-10-14T16:28:12Z</time>
      </trkpt>
      <trkpt lat="59.809810119081" lon="17.520305953749">
        <ele>70.8</ele>
        <time>2017-10-14T16:28:13Z</time>
      </trkpt>
      <trkpt lat="59.809731077764" lon="17.52026228405">
        <ele>70.4</ele>
        <time>2017-10-14T16:28:14Z</time>
      </trkpt>
      <trkpt lat="59.809662178546" lon="17.520218111437">
        <ele>69.8</ele>
        <time>2017-10-14T16:28:15Z</time>
      </trkpt>
      <trkpt lat="59.809589004559" lon="17.520164383458">
        <ele>69.2</ele>
        <time>2017-10-14T16:28:16Z</time>
      </trkpt>
      <trkpt lat="59.809523877196" lon="17.520120294664">
        <ele>68.8</ele>
        <time>2017-10-14T16:28:17Z</time>
      </trkpt>
      <trkpt lat="59.809459755661" lon="17.520089868367">
        <ele>68.4</ele>
        <time>2017-10-14T16:28:18Z</time>
      </trkpt>
      <trkpt lat="59.809401752913" lon="17.520061202269">
        <ele>68</ele>
        <time>2017-10-14T16:28:19Z</time>
      </trkpt>
      <trkpt lat="59.809347270563" lon="17.52002423809">
        <ele>68</ele>
        <time>2017-10-14T16:28:20Z</time>
      </trkpt>
      <trkpt lat="59.809299493733" lon="17.519977970002">
        <ele>67.6</ele>
        <time>2017-10-14T16:28:21Z</time>
      </trkpt>
      <trkpt lat="59.809260434079" lon="17.519936563416">
        <ele>67.6</ele>
        <time>2017-10-14T16:28:22Z</time>
      </trkpt>
      <trkpt lat="59.80922011714" lon="17.519919380521">
        <ele>67.8</ele>
        <time>2017-10-14T16:28:23Z</time>
      </trkpt>
      <trkpt lat="59.809180051658" lon="17.519938575072">
        <ele>68</ele>
        <time>2017-10-14T16:28:24Z</time>
      </trkpt>
      <trkpt lat="59.809143422755" lon="17.519993392698">
        <ele>68.2</ele>
        <time>2017-10-14T16:28:25Z</time>
      </trkpt>
      <trkpt lat="59.809107380585" lon="17.520082324657">
        <ele>68.4</ele>
        <time>2017-10-14T16:28:26Z</time>
      </trkpt>
      <trkpt lat="59.809074858813" lon="17.520172849177">
        <ele>68.6</ele>
        <time>2017-10-14T16:28:27Z</time>
      </trkpt>
      <trkpt lat="59.809030937657" lon="17.520277036194">
        <ele>68.6</ele>
        <time>2017-10-14T16:28:28Z</time>
      </trkpt>
      <trkpt lat="59.808989866347" lon="17.520386671446">
        <ele>68.4</ele>
        <time>2017-10-14T16:28:29Z</time>
      </trkpt>
      <trkpt lat="59.808953153625" lon="17.52049194811">
        <ele>68.2</ele>
        <time>2017-10-14T16:28:30Z</time>
      </trkpt>
      <trkpt lat="59.808910741211" lon="17.520619520628">
        <ele>68</ele>
        <time>2017-10-14T16:28:31Z</time>
      </trkpt>
      <trkpt lat="59.808873022661" lon="17.520743908024">
        <ele>67.6</ele>
        <time>2017-10-14T16:28:32Z</time>
      </trkpt>
      <trkpt lat="59.8088379025" lon="17.520869720343">
        <ele>67.6</ele>
        <time>2017-10-14T16:28:33Z</time>
      </trkpt>
      <trkpt lat="59.808798088475" lon="17.520993101911">
        <ele>67.2</ele>
        <time>2017-10-14T16:28:34Z</time>
      </trkpt>
      <trkpt lat="59.808755340785" lon="17.521125452112">
        <ele>67.2</ele>
        <time>2017-10-14T16:28:35Z</time>
      </trkpt>
      <trkpt lat="59.808713682742" lon="17.521271548629">
        <ele>66.8</ele>
        <time>2017-10-14T16:28:36Z</time>
      </trkpt>
      <trkpt lat="59.808673365803" lon="17.52140976616">
        <ele>66.6</ele>
        <time>2017-10-14T16:28:37Z</time>
      </trkpt>
      <trkpt lat="59.808632629769" lon="17.521545972035">
        <ele>66.4</ele>
        <time>2017-10-14T16:28:38Z</time>
      </trkpt>
      <trkpt lat="59.808593653934" lon="17.521677567865">
        <ele>66</ele>
        <time>2017-10-14T16:28:39Z</time>
      </trkpt>
      <trkpt lat="59.808554845737" lon="17.521813354645">
        <ele>65.6</ele>
        <time>2017-10-14T16:28:40Z</time>
      </trkpt>
      <trkpt lat="59.808511092219" lon="17.521971185822">
        <ele>65.2</ele>
        <time>2017-10-14T16:28:41Z</time>
      </trkpt>
      <trkpt lat="59.808469517995" lon="17.522113091389">
        <ele>65.2</ele>
        <time>2017-10-14T16:28:42Z</time>
      </trkpt>
      <trkpt lat="59.808426267391" lon="17.522259104087">
        <ele>65</ele>
        <time>2017-10-14T16:28:43Z</time>
      </trkpt>
      <trkpt lat="59.80838192714" lon="17.52240134493">
        <ele>65</ele>
        <time>2017-10-14T16:28:44Z</time>
      </trkpt>
      <trkpt lat="59.808344040952" lon="17.522530174733">
        <ele>65</ele>
        <time>2017-10-14T16:28:45Z</time>
      </trkpt>
      <trkpt lat="59.808297940502" lon="17.522688676462">
        <ele>64.6</ele>
        <time>2017-10-14T16:28:46Z</time>
      </trkpt>
      <trkpt lat="59.808253097337" lon="17.522837874282">
        <ele>64.4</ele>
        <time>2017-10-14T16:28:47Z</time>
      </trkpt>
      <trkpt lat="59.808210601104" lon="17.522984054618">
        <ele>64</ele>
        <time>2017-10-14T16:28:48Z</time>
      </trkpt>
      <trkpt lat="59.808171709088" lon="17.52312218833">
        <ele>63.8</ele>
        <time>2017-10-14T16:28:49Z</time>
      </trkpt>
      <trkpt lat="59.808132062701" lon="17.523264596811">
        <ele>63.4</ele>
        <time>2017-10-14T16:28:50Z</time>
      </trkpt>
      <trkpt lat="59.808088979735" lon="17.52341136388">
        <ele>63.2</ele>
        <time>2017-10-14T16:28:51Z</time>
      </trkpt>
      <trkpt lat="59.808046399683" lon="17.523553437085">
        <ele>63</ele>
        <time>2017-10-14T16:28:52Z</time>
      </trkpt>
      <trkpt lat="59.808002897622" lon="17.523706490579">
        <ele>62.8</ele>
        <time>2017-10-14T16:28:53Z</time>
      </trkpt>
      <trkpt lat="59.807962664502" lon="17.523847055042">
        <ele>62.8</ele>
        <time>2017-10-14T16:28:54Z</time>
      </trkpt>
      <trkpt lat="59.807924862133" lon="17.523973454094">
        <ele>62.8</ele>
        <time>2017-10-14T16:28:55Z</time>
      </trkpt>
      <trkpt lat="59.807882701176" lon="17.524120053525">
        <ele>62.8</ele>
        <time>2017-10-14T16:28:56Z</time>
      </trkpt>
      <trkpt lat="59.807858561304" lon="17.524207812018">
        <ele>62.8</ele>
        <time>2017-10-14T16:28:57Z</time>
      </trkpt>
      <trkpt lat="59.807806342067" lon="17.524394896026">
        <ele>62.8</ele>
        <time>2017-10-14T16:28:58Z</time>
      </trkpt>
      <trkpt lat="59.807766947137" lon="17.524531772453">
        <ele>62.8</ele>
        <time>2017-10-14T16:28:59Z</time>
      </trkpt>
      <trkpt lat="59.807732078433" lon="17.524654986383">
        <ele>62.6</ele>
        <time>2017-10-14T16:29:00Z</time>
      </trkpt>
      <trkpt lat="59.807693186417" lon="17.524788593869">
        <ele>62.6</ele>
        <time>2017-10-14T16:29:01Z</time>
      </trkpt>
      <trkpt lat="59.807653456211" lon="17.524922955726">
        <ele>62.4</ele>
        <time>2017-10-14T16:29:02Z</time>
      </trkpt>
      <trkpt lat="59.807630154529" lon="17.52500308669">
        <ele>62.4</ele>
        <time>2017-10-14T16:29:03Z</time>
      </trkpt>
      <trkpt lat="59.8075806175" lon="17.525180866789">
        <ele>62.4</ele>
        <time>2017-10-14T16:29:04Z</time>
      </trkpt>
      <trkpt lat="59.807543150407" lon="17.525315312465">
        <ele>62.2</ele>
        <time>2017-10-14T16:29:05Z</time>
      </trkpt>
      <trkpt lat="59.807503336382" lon="17.525458726774">
        <ele>62</ele>
        <time>2017-10-14T16:29:06Z</time>
      </trkpt>
      <trkpt lat="59.807463857633" lon="17.525592250441">
        <ele>61.8</ele>
        <time>2017-10-14T16:29:07Z</time>
      </trkpt>
      <trkpt lat="59.807423959789" lon="17.52572476828">
        <ele>61.8</ele>
        <time>2017-10-14T16:29:08Z</time>
      </trkpt>
      <trkpt lat="59.80738615742" lon="17.525850915875">
        <ele>61.6</ele>
        <time>2017-10-14T16:29:09Z</time>
      </trkpt>
      <trkpt lat="59.807348271232" lon="17.525977985479">
        <ele>61.6</ele>
        <time>2017-10-14T16:29:10Z</time>
      </trkpt>
      <trkpt lat="59.80730569118" lon="17.526125506919">
        <ele>61.4</ele>
        <time>2017-10-14T16:29:11Z</time>
      </trkpt>
      <trkpt lat="59.80726545806" lon="17.526261964251">
        <ele>61.4</ele>
        <time>2017-10-14T16:29:12Z</time>
      </trkpt>
      <trkpt lat="59.807226314587" lon="17.526400433239">
        <ele>61.4</ele>
        <time>2017-10-14T16:29:13Z</time>
      </trkpt>
      <trkpt lat="59.807187171114" lon="17.526539740417">
        <ele>61.4</ele>
        <time>2017-10-14T16:29:14Z</time>
      </trkpt>
      <trkpt lat="59.807153224419" lon="17.526662451433">
        <ele>61.4</ele>
        <time>2017-10-14T16:29:15Z</time>
      </trkpt>
      <trkpt lat="59.807110644367" lon="17.526816594574">
        <ele>61.4</ele>
        <time>2017-10-14T16:29:16Z</time>
      </trkpt>
      <trkpt lat="59.807068231953" lon="17.52696109853">
        <ele>61.4</ele>
        <time>2017-10-14T16:29:17Z</time>
      </trkpt>
      <trkpt lat="59.807025651901" lon="17.527099483699">
        <ele>61.4</ele>
        <time>2017-10-14T16:29:18Z</time>
      </trkpt>
      <trkpt lat="59.806986089333" lon="17.527230828072">
        <ele>61.4</ele>
        <time>2017-10-14T16:29:19Z</time>
      </trkpt>
      <trkpt lat="59.806946191489" lon="17.527369129422">
        <ele>61.4</ele>
        <time>2017-10-14T16:29:20Z</time>
      </trkpt>
      <trkpt lat="59.806906293645" lon="17.527511705541">
        <ele>61.4</ele>
        <time>2017-10-14T16:29:21Z</time>
      </trkpt>
      <trkpt lat="59.806866395801" lon="17.527654533117">
        <ele>61.4</ele>
        <time>2017-10-14T16:29:22Z</time>
      </trkpt>
      <trkpt lat="59.806825324491" lon="17.527796606322">
        <ele>61.4</ele>
        <time>2017-10-14T16:29:23Z</time>
      </trkpt>
      <trkpt lat="59.806786516294" lon="17.527931219636">
        <ele>61.4</ele>
        <time>2017-10-14T16:29:24Z</time>
      </trkpt>
      <trkpt lat="59.806749719753" lon="17.528056529041">
        <ele>61.4</ele>
        <time>2017-10-14T16:29:25Z</time>
      </trkpt>
      <trkpt lat="59.806707139701" lon="17.52820078154">
        <ele>61.4</ele>
        <time>2017-10-14T16:29:26Z</time>
      </trkpt>
      <trkpt lat="59.806672103359" lon="17.528322654366">
        <ele>61.4</ele>
        <time>2017-10-14T16:29:27Z</time>
      </trkpt>
      <trkpt lat="59.806634468628" lon="17.528454836929">
        <ele>61.6</ele>
        <time>2017-10-14T16:29:28Z</time>
      </trkpt>
      <trkpt lat="59.806600354295" lon="17.528559107765">
        <ele>61.8</ele>
        <time>2017-10-14T16:29:29Z</time>
      </trkpt>
      <trkpt lat="59.806559199166" lon="17.52870118097">
        <ele>62</ele>
        <time>2017-10-14T16:29:30Z</time>
      </trkpt>
      <trkpt lat="59.806518882227" lon="17.528832273886">
        <ele>62</ele>
        <time>2017-10-14T16:29:31Z</time>
      </trkpt>
      <trkpt lat="59.80648175041" lon="17.528952218875">
        <ele>62.4</ele>
        <time>2017-10-14T16:29:32Z</time>
      </trkpt>
      <trkpt lat="59.806449061" lon="17.529063362869">
        <ele>62.4</ele>
        <time>2017-10-14T16:29:33Z</time>
      </trkpt>
      <trkpt lat="59.806414946667" lon="17.529179116908">
        <ele>62.6</ele>
        <time>2017-10-14T16:29:34Z</time>
      </trkpt>
      <trkpt lat="59.806380748515" lon="17.529292440196">
        <ele>62.8</ele>
        <time>2017-10-14T16:29:35Z</time>
      </trkpt>
      <trkpt lat="59.806343951974" lon="17.5294111279">
        <ele>63</ele>
        <time>2017-10-14T16:29:36Z</time>
      </trkpt>
      <trkpt lat="59.806309334727" lon="17.529521517523">
        <ele>63.2</ele>
        <time>2017-10-14T16:29:37Z</time>
      </trkpt>
      <trkpt lat="59.806274549842" lon="17.529633332069">
        <ele>63.4</ele>
        <time>2017-10-14T16:29:38Z</time>
      </trkpt>
      <trkpt lat="59.806241860432" lon="17.529740033656">
        <ele>63.8</ele>
        <time>2017-10-14T16:29:39Z</time>
      </trkpt>
      <trkpt lat="59.806207410823" lon="17.529850423279">
        <ele>64</ele>
        <time>2017-10-14T16:29:40Z</time>
      </trkpt>
      <trkpt lat="59.806170949558" lon="17.529967937517">
        <ele>64.2</ele>
        <time>2017-10-14T16:29:41Z</time>
      </trkpt>
      <trkpt lat="59.806131806085" lon="17.53009341456">
        <ele>64.4</ele>
        <time>2017-10-14T16:29:42Z</time>
      </trkpt>
      <trkpt lat="59.806092746431" lon="17.530216544671">
        <ele>64.6</ele>
        <time>2017-10-14T16:29:43Z</time>
      </trkpt>
      <trkpt lat="59.806053183863" lon="17.530344117189">
        <ele>64.6</ele>
        <time>2017-10-14T16:29:44Z</time>
      </trkpt>
      <trkpt lat="59.806015549132" lon="17.530462637255">
        <ele>64.6</ele>
        <time>2017-10-14T16:29:45Z</time>
      </trkpt>
      <trkpt lat="59.805967017931" lon="17.530605297193">
        <ele>64.4</ele>
        <time>2017-10-14T16:29:46Z</time>
      </trkpt>
      <trkpt lat="59.805918738187" lon="17.53074133543">
        <ele>64.2</ele>
        <time>2017-10-14T16:29:47Z</time>
      </trkpt>
      <trkpt lat="59.805868782063" lon="17.530875110554">
        <ele>64</ele>
        <time>2017-10-14T16:29:48Z</time>
      </trkpt>
      <trkpt lat="59.805820837595" lon="17.531005700556">
        <ele>63.4</ele>
        <time>2017-10-14T16:29:49Z</time>
      </trkpt>
      <trkpt lat="59.805770713833" lon="17.531139391861">
        <ele>62.8</ele>
        <time>2017-10-14T16:29:50Z</time>
      </trkpt>
      <trkpt lat="59.805717572587" lon="17.531277609392">
        <ele>62.4</ele>
        <time>2017-10-14T16:29:51Z</time>
      </trkpt>
      <trkpt lat="59.805664096065" lon="17.531417587122">
        <ele>62</ele>
        <time>2017-10-14T16:29:52Z</time>
      </trkpt>
      <trkpt lat="59.805615732502" lon="17.531549434409">
        <ele>61.8</ele>
        <time>2017-10-14T16:29:53Z</time>
      </trkpt>
      <trkpt lat="59.805568626224" lon="17.531683796266">
        <ele>61.6</ele>
        <time>2017-10-14T16:29:54Z</time>
      </trkpt>
      <trkpt lat="59.805521939041" lon="17.531814721544">
        <ele>61.6</ele>
        <time>2017-10-14T16:29:55Z</time>
      </trkpt>
      <trkpt lat="59.805471396184" lon="17.531952017066">
        <ele>61.6</ele>
        <time>2017-10-14T16:29:56Z</time>
      </trkpt>
      <trkpt lat="59.805428061761" lon="17.532070034218">
        <ele>61.6</ele>
        <time>2017-10-14T16:29:57Z</time>
      </trkpt>
      <trkpt lat="59.805377351266" lon="17.53220984431">
        <ele>61.6</ele>
        <time>2017-10-14T16:29:58Z</time>
      </trkpt>
      <trkpt lat="59.805329322979" lon="17.532346134004">
        <ele>61.6</ele>
        <time>2017-10-14T16:29:59Z</time>
      </trkpt>
      <trkpt lat="59.805286240013" lon="17.53247387416">
        <ele>61.8</ele>
        <time>2017-10-14T16:30:00Z</time>
      </trkpt>
      <trkpt lat="59.805236954441" lon="17.532621814695">
        <ele>61.8</ele>
        <time>2017-10-14T16:30:01Z</time>
      </trkpt>
      <trkpt lat="59.805191356905" lon="17.532763468805">
        <ele>61.8</ele>
        <time>2017-10-14T16:30:02Z</time>
      </trkpt>
      <trkpt lat="59.805147771025" lon="17.532901518698">
        <ele>61.8</ele>
        <time>2017-10-14T16:30:03Z</time>
      </trkpt>
      <trkpt lat="59.805103095498" lon="17.533042083161">
        <ele>61.8</ele>
        <time>2017-10-14T16:30:04Z</time>
      </trkpt>
      <trkpt lat="59.805055234849" lon="17.533187676764">
        <ele>61.8</ele>
        <time>2017-10-14T16:30:05Z</time>
      </trkpt>
      <trkpt lat="59.805003518526" lon="17.533347854873">
        <ele>61.6</ele>
        <time>2017-10-14T16:30:06Z</time>
      </trkpt>
      <trkpt lat="59.804956328429" lon="17.53350233329">
        <ele>61.4</ele>
        <time>2017-10-14T16:30:07Z</time>
      </trkpt>
      <trkpt lat="59.80491014416" lon="17.533652620757">
        <ele>61.4</ele>
        <time>2017-10-14T16:30:08Z</time>
      </trkpt>
      <trkpt lat="59.804865887728" lon="17.533787569347">
        <ele>61</ele>
        <time>2017-10-14T16:30:09Z</time>
      </trkpt>
      <trkpt lat="59.804817440346" lon="17.533929642552">
        <ele>60.4</ele>
        <time>2017-10-14T16:30:10Z</time>
      </trkpt>
      <trkpt lat="59.804765724023" lon="17.53407733163">
        <ele>60</ele>
        <time>2017-10-14T16:30:11Z</time>
      </trkpt>
      <trkpt lat="59.80471233132" lon="17.534226613269">
        <ele>59.8</ele>
        <time>2017-10-14T16:30:12Z</time>
      </trkpt>
      <trkpt lat="59.80466287811" lon="17.534366423361">
        <ele>59.4</ele>
        <time>2017-10-14T16:30:13Z</time>
      </trkpt>
      <trkpt lat="59.80461258671" lon="17.534501371951">
        <ele>59.2</ele>
        <time>2017-10-14T16:30:14Z</time>
      </trkpt>
      <trkpt lat="59.804566150984" lon="17.534619724379">
        <ele>59.4</ele>
        <time>2017-10-14T16:30:15Z</time>
      </trkpt>
      <trkpt lat="59.804508902607" lon="17.534761210851">
        <ele>59.4</ele>
        <time>2017-10-14T16:30:16Z</time>
      </trkpt>
      <trkpt lat="59.80445500699" lon="17.53489037593">
        <ele>59.6</ele>
        <time>2017-10-14T16:30:17Z</time>
      </trkpt>
      <trkpt lat="59.804402033382" lon="17.535019373371">
        <ele>59.6</ele>
        <time>2017-10-14T16:30:18Z</time>
      </trkpt>
      <trkpt lat="59.804351658163" lon="17.535149041364">
        <ele>59.8</ele>
        <time>2017-10-14T16:30:19Z</time>
      </trkpt>
      <trkpt lat="59.804305054799" lon="17.535272674389">
        <ele>59.6</ele>
        <time>2017-10-14T16:30:20Z</time>
      </trkpt>
      <trkpt lat="59.80425467958" lon="17.535411478653">
        <ele>59.6</ele>
        <time>2017-10-14T16:30:21Z</time>
      </trkpt>
      <trkpt lat="59.804206316017" lon="17.535550115279">
        <ele>59.6</ele>
        <time>2017-10-14T16:30:22Z</time>
      </trkpt>
      <trkpt lat="59.804160467024" lon="17.535690428285">
        <ele>59.6</ele>
        <time>2017-10-14T16:30:23Z</time>
      </trkpt>
      <trkpt lat="59.804117551696" lon="17.535831244205">
        <ele>59.6</ele>
        <time>2017-10-14T16:30:24Z</time>
      </trkpt>
      <trkpt lat="59.804078240585" lon="17.535962840035">
        <ele>59.4</ele>
        <time>2017-10-14T16:30:25Z</time>
      </trkpt>
      <trkpt lat="59.804036079628" lon="17.536106505801">
        <ele>59.6</ele>
        <time>2017-10-14T16:30:26Z</time>
      </trkpt>
      <trkpt lat="59.803993331938" lon="17.536254362517">
        <ele>59.6</ele>
        <time>2017-10-14T16:30:27Z</time>
      </trkpt>
      <trkpt lat="59.803957289768" lon="17.536396351903">
        <ele>59.6</ele>
        <time>2017-10-14T16:30:28Z</time>
      </trkpt>
      <trkpt lat="59.803924013625" lon="17.536533647425">
        <ele>59.6</ele>
        <time>2017-10-14T16:30:29Z</time>
      </trkpt>
      <trkpt lat="59.803891659491" lon="17.536668763653">
        <ele>59.6</ele>
        <time>2017-10-14T16:30:30Z</time>
      </trkpt>
      <trkpt lat="59.803854527674" lon="17.53681988931">
        <ele>59.6</ele>
        <time>2017-10-14T16:30:31Z</time>
      </trkpt>
      <trkpt lat="59.803820832436" lon="17.536960621411">
        <ele>60</ele>
        <time>2017-10-14T16:30:32Z</time>
      </trkpt>
      <trkpt lat="59.803790070863" lon="17.537092971612">
        <ele>60</ele>
        <time>2017-10-14T16:30:33Z</time>
      </trkpt>
      <trkpt lat="59.803755872711" lon="17.537237978482">
        <ele>60</ele>
        <time>2017-10-14T16:30:34Z</time>
      </trkpt>
      <trkpt lat="59.803724189129" lon="17.537375441642">
        <ele>60.2</ele>
        <time>2017-10-14T16:30:35Z</time>
      </trkpt>
      <trkpt lat="59.803693008461" lon="17.537525561471">
        <ele>60.2</ele>
        <time>2017-10-14T16:30:36Z</time>
      </trkpt>
      <trkpt lat="59.803664845277" lon="17.537666880305">
        <ele>60.2</ele>
        <time>2017-10-14T16:30:37Z</time>
      </trkpt>
      <trkpt lat="59.803634670437" lon="17.537807780044">
        <ele>60.2</ele>
        <time>2017-10-14T16:30:38Z</time>
      </trkpt>
      <trkpt lat="59.803606423434" lon="17.537942560996">
        <ele>60.4</ele>
        <time>2017-10-14T16:30:39Z</time>
      </trkpt>
      <trkpt lat="59.803578092612" lon="17.538082454907">
        <ele>60.2</ele>
        <time>2017-10-14T16:30:40Z</time>
      </trkpt>
      <trkpt lat="59.803548336867" lon="17.538229892528">
        <ele>60.2</ele>
        <time>2017-10-14T16:30:41Z</time>
      </trkpt>
      <trkpt lat="59.803517491475" lon="17.538387556067">
        <ele>60</ele>
        <time>2017-10-14T16:30:42Z</time>
      </trkpt>
      <trkpt lat="59.80348941211" lon="17.538536586249">
        <ele>60</ele>
        <time>2017-10-14T16:30:43Z</time>
      </trkpt>
      <trkpt lat="59.803462506211" lon="17.538678827092">
        <ele>59.8</ele>
        <time>2017-10-14T16:30:44Z</time>
      </trkpt>
      <trkpt lat="59.803433504837" lon="17.538818553365">
        <ele>59.6</ele>
        <time>2017-10-14T16:30:45Z</time>
      </trkpt>
      <trkpt lat="59.803399474323" lon="17.538978731474">
        <ele>59.4</ele>
        <time>2017-10-14T16:30:46Z</time>
      </trkpt>
      <trkpt lat="59.803366784913" lon="17.539133209891">
        <ele>59.4</ele>
        <time>2017-10-14T16:30:47Z</time>
      </trkpt>
      <trkpt lat="59.803333257313" lon="17.539283916453">
        <ele>59.4</ele>
        <time>2017-10-14T16:30:48Z</time>
      </trkpt>
      <trkpt lat="59.803297634238" lon="17.539429510056">
        <ele>59.2</ele>
        <time>2017-10-14T16:30:49Z</time>
      </trkpt>
      <trkpt lat="59.803263352267" lon="17.539566135026">
        <ele>59</ele>
        <time>2017-10-14T16:30:50Z</time>
      </trkpt>
      <trkpt lat="59.803224208794" lon="17.539713907923">
        <ele>59</ele>
        <time>2017-10-14T16:30:51Z</time>
      </trkpt>
      <trkpt lat="59.803185819692" lon="17.539857657508">
        <ele>59</ele>
        <time>2017-10-14T16:30:52Z</time>
      </trkpt>
      <trkpt lat="59.803143910192" lon="17.540002999654">
        <ele>58.8</ele>
        <time>2017-10-14T16:30:53Z</time>
      </trkpt>
      <trkpt lat="59.803102671244" lon="17.540143228841">
        <ele>58.6</ele>
        <time>2017-10-14T16:30:54Z</time>
      </trkpt>
      <trkpt lat="59.803065204151" lon="17.540274321757">
        <ele>58.6</ele>
        <time>2017-10-14T16:30:55Z</time>
      </trkpt>
      <trkpt lat="59.803026312135" lon="17.54041488622">
        <ele>58.2</ele>
        <time>2017-10-14T16:30:56Z</time>
      </trkpt>
      <trkpt lat="59.802986330472" lon="17.540557881434">
        <ele>58.2</ele>
        <time>2017-10-14T16:30:57Z</time>
      </trkpt>
      <trkpt lat="59.802947438456" lon="17.54069567987">
        <ele>58</ele>
        <time>2017-10-14T16:30:58Z</time>
      </trkpt>
      <trkpt lat="59.802907540612" lon="17.540836663428">
        <ele>58</ele>
        <time>2017-10-14T16:30:59Z</time>
      </trkpt>
      <trkpt lat="59.802871079347" lon="17.540963481575">
        <ele>58</ele>
        <time>2017-10-14T16:31:00Z</time>
      </trkpt>
      <trkpt lat="59.802830427132" lon="17.541109158997">
        <ele>58</ele>
        <time>2017-10-14T16:31:01Z</time>
      </trkpt>
      <trkpt lat="59.80279287622" lon="17.541246286881">
        <ele>58</ele>
        <time>2017-10-14T16:31:02Z</time>
      </trkpt>
      <trkpt lat="59.802756163498" lon="17.541373691761">
        <ele>58</ele>
        <time>2017-10-14T16:31:03Z</time>
      </trkpt>
      <trkpt lat="59.802716433292" lon="17.541512747482">
        <ele>58</ele>
        <time>2017-10-14T16:31:04Z</time>
      </trkpt>
      <trkpt lat="59.802680810217" lon="17.54164534914">
        <ele>58.2</ele>
        <time>2017-10-14T16:31:05Z</time>
      </trkpt>
      <trkpt lat="59.802641666744" lon="17.54179370877">
        <ele>58.2</ele>
        <time>2017-10-14T16:31:06Z</time>
      </trkpt>
      <trkpt lat="59.802604534927" lon="17.541928741179">
        <ele>58</ele>
        <time>2017-10-14T16:31:07Z</time>
      </trkpt>
      <trkpt lat="59.802567151653" lon="17.542063941226">
        <ele>58</ele>
        <time>2017-10-14T16:31:08Z</time>
      </trkpt>
      <trkpt lat="59.80253052275" lon="17.542192184296">
        <ele>58</ele>
        <time>2017-10-14T16:31:09Z</time>
      </trkpt>
      <trkpt lat="59.802493810028" lon="17.542323277212">
        <ele>58</ele>
        <time>2017-10-14T16:31:10Z</time>
      </trkpt>
      <trkpt lat="59.802454163641" lon="17.542463925494">
        <ele>58</ele>
        <time>2017-10-14T16:31:11Z</time>
      </trkpt>
      <trkpt lat="59.80241485253" lon="17.54261345859">
        <ele>58</ele>
        <time>2017-10-14T16:31:12Z</time>
      </trkpt>
      <trkpt lat="59.802377553075" lon="17.542754358329">
        <ele>58</ele>
        <time>2017-10-14T16:31:13Z</time>
      </trkpt>
      <trkpt lat="59.802338996335" lon="17.542891821489">
        <ele>58</ele>
        <time>2017-10-14T16:31:14Z</time>
      </trkpt>
      <trkpt lat="59.802303540898" lon="17.54301243703">
        <ele>58</ele>
        <time>2017-10-14T16:31:15Z</time>
      </trkpt>
      <trkpt lat="59.802260541751" lon="17.543160629022">
        <ele>58</ele>
        <time>2017-10-14T16:31:16Z</time>
      </trkpt>
      <trkpt lat="59.802218380794" lon="17.543301361123">
        <ele>57.8</ele>
        <time>2017-10-14T16:31:17Z</time>
      </trkpt>
      <trkpt lat="59.80217596838" lon="17.543434214238">
        <ele>57.6</ele>
        <time>2017-10-14T16:31:18Z</time>
      </trkpt>
      <trkpt lat="59.802132885414" lon="17.543565558611">
        <ele>57.4</ele>
        <time>2017-10-14T16:31:19Z</time>
      </trkpt>
      <trkpt lat="59.802092317018" lon="17.543688521084">
        <ele>57.4</ele>
        <time>2017-10-14T16:31:20Z</time>
      </trkpt>
      <trkpt lat="59.802047809129" lon="17.543820955104">
        <ele>57.2</ele>
        <time>2017-10-14T16:31:21Z</time>
      </trkpt>
      <trkpt lat="59.802003804154" lon="17.54395288621">
        <ele>57.2</ele>
        <time>2017-10-14T16:31:22Z</time>
      </trkpt>
      <trkpt lat="59.801959296265" lon="17.544087080429">
        <ele>57.2</ele>
        <time>2017-10-14T16:31:23Z</time>
      </trkpt>
      <trkpt lat="59.801915878023" lon="17.544218676259">
        <ele>57.4</ele>
        <time>2017-10-14T16:31:24Z</time>
      </trkpt>
      <trkpt lat="59.801876399274" lon="17.54434264456">
        <ele>57.4</ele>
        <time>2017-10-14T16:31:25Z</time>
      </trkpt>
      <trkpt lat="59.801833567765" lon="17.544475665313">
        <ele>57.6</ele>
        <time>2017-10-14T16:31:26Z</time>
      </trkpt>
      <trkpt lat="59.801787132039" lon="17.544607177324">
        <ele>57.8</ele>
        <time>2017-10-14T16:31:27Z</time>
      </trkpt>
      <trkpt lat="59.801739439028" lon="17.54473407929">
        <ele>57.8</ele>
        <time>2017-10-14T16:31:28Z</time>
      </trkpt>
      <trkpt lat="59.801695350234" lon="17.544862909093">
        <ele>57.8</ele>
        <time>2017-10-14T16:31:29Z</time>
      </trkpt>
      <trkpt lat="59.801656625856" lon="17.544985033376">
        <ele>57.8</ele>
        <time>2017-10-14T16:31:30Z</time>
      </trkpt>
      <trkpt lat="59.801614045804" lon="17.545123921459">
        <ele>57.8</ele>
        <time>2017-10-14T16:31:31Z</time>
      </trkpt>
      <trkpt lat="59.801575069969" lon="17.545254427642">
        <ele>57.6</ele>
        <time>2017-10-14T16:31:32Z</time>
      </trkpt>
      <trkpt lat="59.801537938152" lon="17.545380156142">
        <ele>57.8</ele>
        <time>2017-10-14T16:31:33Z</time>
      </trkpt>
      <trkpt lat="59.801499046136" lon="17.545512673981">
        <ele>57.6</ele>
        <time>2017-10-14T16:31:34Z</time>
      </trkpt>
      <trkpt lat="59.801463171604" lon="17.545635720273">
        <ele>57.6</ele>
        <time>2017-10-14T16:31:35Z</time>
      </trkpt>
      <trkpt lat="59.801424028131" lon="17.545772931976">
        <ele>57.6</ele>
        <time>2017-10-14T16:31:36Z</time>
      </trkpt>
      <trkpt lat="59.801387315409" lon="17.545900420675">
        <ele>57.8</ele>
        <time>2017-10-14T16:31:37Z</time>
      </trkpt>
      <trkpt lat="59.801351357058" lon="17.546030004849">
        <ele>58.2</ele>
        <time>2017-10-14T16:31:38Z</time>
      </trkpt>
      <trkpt lat="59.801317745639" lon="17.546149949838">
        <ele>58.2</ele>
        <time>2017-10-14T16:31:39Z</time>
      </trkpt>
      <trkpt lat="59.80128161965" lon="17.54627299613">
        <ele>58.4</ele>
        <time>2017-10-14T16:31:40Z</time>
      </trkpt>
      <trkpt lat="59.801244906928" lon="17.546401406838">
        <ele>58.6</ele>
        <time>2017-10-14T16:31:41Z</time>
      </trkpt>
      <trkpt lat="59.801204338532" lon="17.54653786417">
        <ele>58.6</ele>
        <time>2017-10-14T16:31:42Z</time>
      </trkpt>
      <trkpt lat="59.801166117068" lon="17.546668957086">
        <ele>58.6</ele>
        <time>2017-10-14T16:31:43Z</time>
      </trkpt>
      <trkpt lat="59.801127308871" lon="17.546799630907">
        <ele>58.6</ele>
        <time>2017-10-14T16:31:44Z</time>
      </trkpt>
      <trkpt lat="59.801092021072" lon="17.546918570068">
        <ele>58.6</ele>
        <time>2017-10-14T16:31:45Z</time>
      </trkpt>
      <trkpt lat="59.801045585346" lon="17.547061062368">
        <ele>58.6</ele>
        <time>2017-10-14T16:31:46Z</time>
      </trkpt>
      <trkpt lat="59.800999568715" lon="17.547191149456">
        <ele>58.4</ele>
        <time>2017-10-14T16:31:47Z</time>
      </trkpt>
      <trkpt lat="59.800951875704" lon="17.547317213232">
        <ele>58.4</ele>
        <time>2017-10-14T16:31:48Z</time>
      </trkpt>
      <trkpt lat="59.800902590132" lon="17.5474405948">
        <ele>58.4</ele>
        <time>2017-10-14T16:31:49Z</time>
      </trkpt>
      <trkpt lat="59.800855064759" lon="17.547554421002">
        <ele>58.4</ele>
        <time>2017-10-14T16:31:50Z</time>
      </trkpt>
      <trkpt lat="59.800802510246" lon="17.547673024887">
        <ele>58.2</ele>
        <time>2017-10-14T16:31:51Z</time>
      </trkpt>
      <trkpt lat="59.800748111715" lon="17.547792969876">
        <ele>58.2</ele>
        <time>2017-10-14T16:31:52Z</time>
      </trkpt>
      <trkpt lat="59.800692204442" lon="17.547911070847">
        <ele>58.2</ele>
        <time>2017-10-14T16:31:53Z</time>
      </trkpt>
      <trkpt lat="59.800638225006" lon="17.548026070515">
        <ele>58.2</ele>
        <time>2017-10-14T16:31:54Z</time>
      </trkpt>
      <trkpt lat="59.800587933606" lon="17.548135538129">
        <ele>58</ele>
        <time>2017-10-14T16:31:55Z</time>
      </trkpt>
      <trkpt lat="59.800536636378" lon="17.548255650756">
        <ele>57.8</ele>
        <time>2017-10-14T16:31:56Z</time>
      </trkpt>
      <trkpt lat="59.800486847892" lon="17.548381965989">
        <ele>57.8</ele>
        <time>2017-10-14T16:31:57Z</time>
      </trkpt>
      <trkpt lat="59.80043756232" lon="17.548518255683">
        <ele>57.6</ele>
        <time>2017-10-14T16:31:58Z</time>
      </trkpt>
      <trkpt lat="59.800390539861" lon="17.548652198445">
        <ele>57.4</ele>
        <time>2017-10-14T16:31:59Z</time>
      </trkpt>
      <trkpt lat="59.800348378904" lon="17.54877666966">
        <ele>57.4</ele>
        <time>2017-10-14T16:32:00Z</time>
      </trkpt>
      <trkpt lat="59.800303703377" lon="17.548922095625">
        <ele>57.2</ele>
        <time>2017-10-14T16:32:01Z</time>
      </trkpt>
      <trkpt lat="59.800263470257" lon="17.549059642604">
        <ele>57</ele>
        <time>2017-10-14T16:32:02Z</time>
      </trkpt>
      <trkpt lat="59.800225164974" lon="17.54919157371">
        <ele>57</ele>
        <time>2017-10-14T16:32:03Z</time>
      </trkpt>
      <trkpt lat="59.800185183311" lon="17.549333060182">
        <ele>57</ele>
        <time>2017-10-14T16:32:04Z</time>
      </trkpt>
      <trkpt lat="59.800147297123" lon="17.549466583849">
        <ele>57</ele>
        <time>2017-10-14T16:32:05Z</time>
      </trkpt>
      <trkpt lat="59.800104884709" lon="17.549614189108">
        <ele>57.2</ele>
        <time>2017-10-14T16:32:06Z</time>
      </trkpt>
      <trkpt lat="59.800063142847" lon="17.549752155182">
        <ele>57.2</ele>
        <time>2017-10-14T16:32:07Z</time>
      </trkpt>
      <trkpt lat="59.800022406813" lon="17.549890875627">
        <ele>57</ele>
        <time>2017-10-14T16:32:08Z</time>
      </trkpt>
      <trkpt lat="59.799983766254" lon="17.550028003511">
        <ele>57</ele>
        <time>2017-10-14T16:32:09Z</time>
      </trkpt>
      <trkpt lat="59.79994638298" lon="17.550159264065">
        <ele>57</ele>
        <time>2017-10-14T16:32:10Z</time>
      </trkpt>
      <trkpt lat="59.799903300014" lon="17.550306198772">
        <ele>57</ele>
        <time>2017-10-14T16:32:11Z</time>
      </trkpt>
      <trkpt lat="59.799858624487" lon="17.550457324429">
        <ele>56.8</ele>
        <time>2017-10-14T16:32:12Z</time>
      </trkpt>
      <trkpt lat="59.79981562534" lon="17.550607611896">
        <ele>56.8</ele>
        <time>2017-10-14T16:32:13Z</time>
      </trkpt>
      <trkpt lat="59.79977539222" lon="17.550750690929">
        <ele>56.6</ele>
        <time>2017-10-14T16:32:14Z</time>
      </trkpt>
      <trkpt lat="59.799740774973" lon="17.550868875719">
        <ele>56.4</ele>
        <time>2017-10-14T16:32:15Z</time>
      </trkpt>
      <trkpt lat="59.799695428894" lon="17.551024527602">
        <ele>56.2</ele>
        <time>2017-10-14T16:32:16Z</time>
      </trkpt>
      <trkpt lat="59.79965385467" lon="17.551175066526">
        <ele>56.2</ele>
        <time>2017-10-14T16:32:17Z</time>
      </trkpt>
      <trkpt lat="59.799614208283" lon="17.551314625161">
        <ele>56.2</ele>
        <time>2017-10-14T16:32:18Z</time>
      </trkpt>
      <trkpt lat="59.799572047326" lon="17.5514639068">
        <ele>56</ele>
        <time>2017-10-14T16:32:19Z</time>
      </trkpt>
      <trkpt lat="59.799532903853" lon="17.551600280313">
        <ele>56.2</ele>
        <time>2017-10-14T16:32:20Z</time>
      </trkpt>
      <trkpt lat="59.79948705486" lon="17.551757692395">
        <ele>56.4</ele>
        <time>2017-10-14T16:32:21Z</time>
      </trkpt>
      <trkpt lat="59.799444055713" lon="17.551908650414">
        <ele>56.6</ele>
        <time>2017-10-14T16:32:22Z</time>
      </trkpt>
      <trkpt lat="59.799401727118" lon="17.552057680596">
        <ele>56.6</ele>
        <time>2017-10-14T16:32:23Z</time>
      </trkpt>
      <trkpt lat="59.799358895609" lon="17.552207046054">
        <ele>56.6</ele>
        <time>2017-10-14T16:32:24Z</time>
      </trkpt>
      <trkpt lat="59.799320171231" lon="17.552349622173">
        <ele>56.4</ele>
        <time>2017-10-14T16:32:25Z</time>
      </trkpt>
      <trkpt lat="59.799278513188" lon="17.552501250744">
        <ele>56.4</ele>
        <time>2017-10-14T16:32:26Z</time>
      </trkpt>
      <trkpt lat="59.799234592032" lon="17.55265162203">
        <ele>56.4</ele>
        <time>2017-10-14T16:32:27Z</time>
      </trkpt>
      <trkpt lat="59.799202405536" lon="17.552763185119">
        <ele>56.4</ele>
        <time>2017-10-14T16:32:28Z</time>
      </trkpt>
      <trkpt lat="59.799148593738" lon="17.552952616059">
        <ele>56.4</ele>
        <time>2017-10-14T16:32:29Z</time>
      </trkpt>
      <trkpt lat="59.79911070755" lon="17.553087397011">
        <ele>56.2</ele>
        <time>2017-10-14T16:32:30Z</time>
      </trkpt>
      <trkpt lat="59.799068630412" lon="17.553240785781">
        <ele>56.2</ele>
        <time>2017-10-14T16:32:31Z</time>
      </trkpt>
      <trkpt lat="59.799031582414" lon="17.553385708832">
        <ele>56.2</ele>
        <time>2017-10-14T16:32:32Z</time>
      </trkpt>
      <trkpt lat="59.79899922828" lon="17.553524513096">
        <ele>56.2</ele>
        <time>2017-10-14T16:32:33Z</time>
      </trkpt>
      <trkpt lat="59.7989640243" lon="17.553671531622">
        <ele>56.4</ele>
        <time>2017-10-14T16:32:34Z</time>
      </trkpt>
      <trkpt lat="59.798932424537" lon="17.553809916791">
        <ele>56.4</ele>
        <time>2017-10-14T16:32:35Z</time>
      </trkpt>
      <trkpt lat="59.798899316032" lon="17.553961796819">
        <ele>56.2</ele>
        <time>2017-10-14T16:32:36Z</time>
      </trkpt>
      <trkpt lat="59.798869727925" lon="17.554102780377">
        <ele>56.4</ele>
        <time>2017-10-14T16:32:37Z</time>
      </trkpt>
      <trkpt lat="59.798841145646" lon="17.554242255193">
        <ele>56.4</ele>
        <time>2017-10-14T16:32:38Z</time>
      </trkpt>
      <trkpt lat="59.798814407385" lon="17.554373096652">
        <ele>56.6</ele>
        <time>2017-10-14T16:32:39Z</time>
      </trkpt>
      <trkpt lat="59.798787920581" lon="17.554506285043">
        <ele>56.8</ele>
        <time>2017-10-14T16:32:40Z</time>
      </trkpt>
      <trkpt lat="59.798757913379" lon="17.554646178954">
        <ele>57.2</ele>
        <time>2017-10-14T16:32:41Z</time>
      </trkpt>
      <trkpt lat="59.79872681653" lon="17.554789341806">
        <ele>57.4</ele>
        <time>2017-10-14T16:32:42Z</time>
      </trkpt>
      <trkpt lat="59.79869831807" lon="17.554923200749">
        <ele>57.8</ele>
        <time>2017-10-14T16:32:43Z</time>
      </trkpt>
      <trkpt lat="59.798670825438" lon="17.555055299493">
        <ele>58</ele>
        <time>2017-10-14T16:32:44Z</time>
      </trkpt>
      <trkpt lat="59.798645260643" lon="17.555172729912">
        <ele>58.2</ele>
        <time>2017-10-14T16:32:45Z</time>
      </trkpt>
      <trkpt lat="59.798615923993" lon="17.555312204728">
        <ele>58.2</ele>
        <time>2017-10-14T16:32:46Z</time>
      </trkpt>
      <trkpt lat="59.798588850456" lon="17.555445560757">
        <ele>58.4</ele>
        <time>2017-10-14T16:32:47Z</time>
      </trkpt>
      <trkpt lat="59.798561776919" lon="17.555574809655">
        <ele>58.6</ele>
        <time>2017-10-14T16:32:48Z</time>
      </trkpt>
      <trkpt lat="59.798535290115" lon="17.555704561467">
        <ele>58.6</ele>
        <time>2017-10-14T16:32:49Z</time>
      </trkpt>
      <trkpt lat="59.79851056351" lon="17.555825763741">
        <ele>58.6</ele>
        <time>2017-10-14T16:32:50Z</time>
      </trkpt>
      <trkpt lat="59.798482316507" lon="17.555963226901">
        <ele>58.8</ele>
        <time>2017-10-14T16:32:51Z</time>
      </trkpt>
      <trkpt lat="59.798454740056" lon="17.556096415292">
        <ele>58.8</ele>
        <time>2017-10-14T16:32:52Z</time>
      </trkpt>
      <trkpt lat="59.798425487225" lon="17.556239997239">
        <ele>59</ele>
        <time>2017-10-14T16:32:53Z</time>
      </trkpt>
      <trkpt lat="59.798395647661" lon="17.556382238082">
        <ele>59</ele>
        <time>2017-10-14T16:32:54Z</time>
      </trkpt>
      <trkpt lat="59.798367903572" lon="17.556518276319">
        <ele>58.8</ele>
        <time>2017-10-14T16:32:55Z</time>
      </trkpt>
      <trkpt lat="59.798336722904" lon="17.556670659261">
        <ele>58.8</ele>
        <time>2017-10-14T16:32:56Z</time>
      </trkpt>
      <trkpt lat="59.798305458417" lon="17.556823209841">
        <ele>58.6</ele>
        <time>2017-10-14T16:32:57Z</time>
      </trkpt>
      <trkpt lat="59.798273858654" lon="17.556973413489">
        <ele>58.4</ele>
        <time>2017-10-14T16:32:58Z</time>
      </trkpt>
      <trkpt lat="59.798241588339" lon="17.557132501951">
        <ele>58.2</ele>
        <time>2017-10-14T16:32:59Z</time>
      </trkpt>
      <trkpt lat="59.798212503146" lon="17.557277927916">
        <ele>57.8</ele>
        <time>2017-10-14T16:33:00Z</time>
      </trkpt>
      <trkpt lat="59.798179143184" lon="17.557442548432">
        <ele>57.4</ele>
        <time>2017-10-14T16:33:01Z</time>
      </trkpt>
      <trkpt lat="59.798147794878" lon="17.557598284134">
        <ele>57</ele>
        <time>2017-10-14T16:33:02Z</time>
      </trkpt>
      <trkpt lat="59.798117117124" lon="17.557747565773">
        <ele>56.6</ele>
        <time>2017-10-14T16:33:03Z</time>
      </trkpt>
      <trkpt lat="59.798083673343" lon="17.557904055846">
        <ele>56.6</ele>
        <time>2017-10-14T16:33:04Z</time>
      </trkpt>
      <trkpt lat="59.798050481019" lon="17.558058282806">
        <ele>56.4</ele>
        <time>2017-10-14T16:33:05Z</time>
      </trkpt>
      <trkpt lat="59.798017456333" lon="17.558221981313">
        <ele>56.4</ele>
        <time>2017-10-14T16:33:06Z</time>
      </trkpt>
      <trkpt lat="59.797987030036" lon="17.558378890481">
        <ele>56.2</ele>
        <time>2017-10-14T16:33:07Z</time>
      </trkpt>
      <trkpt lat="59.797956352282" lon="17.558537056934">
        <ele>56.2</ele>
        <time>2017-10-14T16:33:08Z</time>
      </trkpt>
      <trkpt lat="59.797926931813" lon="17.558686003297">
        <ele>56.2</ele>
        <time>2017-10-14T16:33:09Z</time>
      </trkpt>
      <trkpt lat="59.797897259887" lon="17.558829585244">
        <ele>56</ele>
        <time>2017-10-14T16:33:10Z</time>
      </trkpt>
      <trkpt lat="59.797865576305" lon="17.55897995653">
        <ele>56</ele>
        <time>2017-10-14T16:33:11Z</time>
      </trkpt>
      <trkpt lat="59.797832216343" lon="17.559147762168">
        <ele>56</ele>
        <time>2017-10-14T16:33:12Z</time>
      </trkpt>
      <trkpt lat="59.797804975168" lon="17.559302324404">
        <ele>56</ele>
        <time>2017-10-14T16:33:13Z</time>
      </trkpt>
      <trkpt lat="59.797779158916" lon="17.559455461717">
        <ele>56</ele>
        <time>2017-10-14T16:33:14Z</time>
      </trkpt>
      <trkpt lat="59.79775619251" lon="17.55959267342">
        <ele>56</ele>
        <time>2017-10-14T16:33:15Z</time>
      </trkpt>
      <trkpt lat="59.797728029326" lon="17.559752432434">
        <ele>56.2</ele>
        <time>2017-10-14T16:33:16Z</time>
      </trkpt>
      <trkpt lat="59.797699949961" lon="17.559904228643">
        <ele>56.2</ele>
        <time>2017-10-14T16:33:17Z</time>
      </trkpt>
      <trkpt lat="59.797672541148" lon="17.560051498626">
        <ele>56.2</ele>
        <time>2017-10-14T16:33:18Z</time>
      </trkpt>
      <trkpt lat="59.797644880878" lon="17.560198349514">
        <ele>56.4</ele>
        <time>2017-10-14T16:33:19Z</time>
      </trkpt>
      <trkpt lat="59.797618477893" lon="17.560337740511">
        <ele>56.4</ele>
        <time>2017-10-14T16:33:20Z</time>
      </trkpt>
      <trkpt lat="59.797590398528" lon="17.560487441245">
        <ele>56.4</ele>
        <time>2017-10-14T16:33:21Z</time>
      </trkpt>
      <trkpt lat="59.797558295851" lon="17.560641752024">
        <ele>56.6</ele>
        <time>2017-10-14T16:33:22Z</time>
      </trkpt>
      <trkpt lat="59.79752820483" lon="17.560797739183">
        <ele>56.6</ele>
        <time>2017-10-14T16:33:23Z</time>
      </trkpt>
      <trkpt lat="59.797500628379" lon="17.560952049962">
        <ele>56.6</ele>
        <time>2017-10-14T16:33:24Z</time>
      </trkpt>
      <trkpt lat="59.797473973937" lon="17.561094039348">
        <ele>56.6</ele>
        <time>2017-10-14T16:33:25Z</time>
      </trkpt>
      <trkpt lat="59.797445810753" lon="17.561245416462">
        <ele>56.4</ele>
        <time>2017-10-14T16:33:26Z</time>
      </trkpt>
      <trkpt lat="59.797418653397" lon="17.561401990354">
        <ele>56.4</ele>
        <time>2017-10-14T16:33:27Z</time>
      </trkpt>
      <trkpt lat="59.797393004783" lon="17.561550098527">
        <ele>56.4</ele>
        <time>2017-10-14T16:33:28Z</time>
      </trkpt>
      <trkpt lat="59.797365847427" lon="17.56170910317">
        <ele>56.2</ele>
        <time>2017-10-14T16:33:29Z</time>
      </trkpt>
      <trkpt lat="59.797341875193" lon="17.561852852755">
        <ele>56.2</ele>
        <time>2017-10-14T16:33:30Z</time>
      </trkpt>
      <trkpt lat="59.797315472208" lon="17.562021580402">
        <ele>56</ele>
        <time>2017-10-14T16:33:31Z</time>
      </trkpt>
      <trkpt lat="59.797293092535" lon="17.56217932776">
        <ele>56</ele>
        <time>2017-10-14T16:33:32Z</time>
      </trkpt>
      <trkpt lat="59.797272473061" lon="17.562330788693">
        <ele>56</ele>
        <time>2017-10-14T16:33:33Z</time>
      </trkpt>
      <trkpt lat="59.797252188863" lon="17.562488200775">
        <ele>55.8</ele>
        <time>2017-10-14T16:33:34Z</time>
      </trkpt>
      <trkpt lat="59.797234419235" lon="17.562637063319">
        <ele>55.6</ele>
        <time>2017-10-14T16:33:35Z</time>
      </trkpt>
      <trkpt lat="59.797215643779" lon="17.562804785138">
        <ele>55.4</ele>
        <time>2017-10-14T16:33:36Z</time>
      </trkpt>
      <trkpt lat="59.797198544703" lon="17.5629638736">
        <ele>55.6</ele>
        <time>2017-10-14T16:33:37Z</time>
      </trkpt>
      <trkpt lat="59.797180858894" lon="17.563123884071">
        <ele>55.6</ele>
        <time>2017-10-14T16:33:38Z</time>
      </trkpt>
      <trkpt lat="59.797163173085" lon="17.563271824606">
        <ele>55.4</ele>
        <time>2017-10-14T16:33:39Z</time>
      </trkpt>
      <trkpt lat="59.797144146172" lon="17.563419681322">
        <ele>55.4</ele>
        <time>2017-10-14T16:33:40Z</time>
      </trkpt>
      <trkpt lat="59.797121850318" lon="17.563580362345">
        <ele>55.4</ele>
        <time>2017-10-14T16:33:41Z</time>
      </trkpt>
      <trkpt lat="59.797096034066" lon="17.563745569594">
        <ele>55.4</ele>
        <time>2017-10-14T16:33:42Z</time>
      </trkpt>
      <trkpt lat="59.79707055309" lon="17.563899628916">
        <ele>55.6</ele>
        <time>2017-10-14T16:33:43Z</time>
      </trkpt>
      <trkpt lat="59.797042138449" lon="17.564049916383">
        <ele>55.4</ele>
        <time>2017-10-14T16:33:44Z</time>
      </trkpt>
      <trkpt lat="59.79701439436" lon="17.564183188593">
        <ele>55.6</ele>
        <time>2017-10-14T16:33:45Z</time>
      </trkpt>
      <trkpt lat="59.796981118217" lon="17.564341103589">
        <ele>55.6</ele>
        <time>2017-10-14T16:33:46Z</time>
      </trkpt>
      <trkpt lat="59.79694817735" lon="17.564491642513">
        <ele>55.6</ele>
        <time>2017-10-14T16:33:47Z</time>
      </trkpt>
      <trkpt lat="59.796915404121" lon="17.564638158125">
        <ele>55.6</ele>
        <time>2017-10-14T16:33:48Z</time>
      </trkpt>
      <trkpt lat="59.796882630892" lon="17.564782494443">
        <ele>55.4</ele>
        <time>2017-10-14T16:33:49Z</time>
      </trkpt>
      <trkpt lat="59.796851114948" lon="17.564917862128">
        <ele>55.4</ele>
        <time>2017-10-14T16:33:50Z</time>
      </trkpt>
      <trkpt lat="59.796827142714" lon="17.565022384421">
        <ele>55.4</ele>
        <time>2017-10-14T16:33:51Z</time>
      </trkpt>
      <trkpt lat="59.796783389196" lon="17.565211312447">
        <ele>55.2</ele>
        <time>2017-10-14T16:33:52Z</time>
      </trkpt>
      <trkpt lat="59.796750113053" lon="17.565353469471">
        <ele>55.4</ele>
        <time>2017-10-14T16:33:53Z</time>
      </trkpt>
      <trkpt lat="59.796716417815" lon="17.565490010622">
        <ele>55.4</ele>
        <time>2017-10-14T16:33:54Z</time>
      </trkpt>
      <trkpt lat="59.796684063681" lon="17.565615571484">
        <ele>55.6</ele>
        <time>2017-10-14T16:33:55Z</time>
      </trkpt>
      <trkpt lat="59.796651122814" lon="17.565747921685">
        <ele>55.6</ele>
        <time>2017-10-14T16:33:56Z</time>
      </trkpt>
      <trkpt lat="59.796618684861" lon="17.565882534999">
        <ele>55.8</ele>
        <time>2017-10-14T16:33:57Z</time>
      </trkpt>
      <trkpt lat="59.796587252736" lon="17.566008934051">
        <ele>55.8</ele>
        <time>2017-10-14T16:33:58Z</time>
      </trkpt>
      <trkpt lat="59.796556994077" lon="17.566140194605">
        <ele>56</ele>
        <time>2017-10-14T16:33:59Z</time>
      </trkpt>
      <trkpt lat="59.796531010187" lon="17.566259469042">
        <ele>56.2</ele>
        <time>2017-10-14T16:34:00Z</time>
      </trkpt>
      <trkpt lat="59.796500919166" lon="17.56639793803">
        <ele>56.2</ele>
        <time>2017-10-14T16:34:01Z</time>
      </trkpt>
      <trkpt lat="59.79647124724" lon="17.56653204843">
        <ele>56.4</ele>
        <time>2017-10-14T16:34:02Z</time>
      </trkpt>
      <trkpt lat="59.796443503151" lon="17.566663141346">
        <ele>56.6</ele>
        <time>2017-10-14T16:34:03Z</time>
      </trkpt>
      <trkpt lat="59.796413831225" lon="17.566810159872">
        <ele>57</ele>
        <time>2017-10-14T16:34:04Z</time>
      </trkpt>
      <trkpt lat="59.796384578394" lon="17.566948712679">
        <ele>57</ele>
        <time>2017-10-14T16:34:05Z</time>
      </trkpt>
      <trkpt lat="59.796352810993" lon="17.56710620858">
        <ele>57.2</ele>
        <time>2017-10-14T16:34:06Z</time>
      </trkpt>
      <trkpt lat="59.796323306705" lon="17.567259178255">
        <ele>57</ele>
        <time>2017-10-14T16:34:07Z</time>
      </trkpt>
      <trkpt lat="59.796293802417" lon="17.567411645016">
        <ele>56.8</ele>
        <time>2017-10-14T16:34:08Z</time>
      </trkpt>
      <trkpt lat="59.796261783559" lon="17.567555981334">
        <ele>56.2</ele>
        <time>2017-10-14T16:34:09Z</time>
      </trkpt>
      <trkpt lat="59.796229429425" lon="17.567695791426">
        <ele>56.2</ele>
        <time>2017-10-14T16:34:10Z</time>
      </trkpt>
      <trkpt lat="59.796194560721" lon="17.5678505213">
        <ele>56</ele>
        <time>2017-10-14T16:34:11Z</time>
      </trkpt>
      <trkpt lat="59.796158770008" lon="17.568009693581">
        <ele>55.8</ele>
        <time>2017-10-14T16:34:12Z</time>
      </trkpt>
      <trkpt lat="59.796123733666" lon="17.568158891401">
        <ele>55.8</ele>
        <time>2017-10-14T16:34:13Z</time>
      </trkpt>
      <trkpt lat="59.796085931297" lon="17.568308089221">
        <ele>55.6</ele>
        <time>2017-10-14T16:34:14Z</time>
      </trkpt>
      <trkpt lat="59.796052319878" lon="17.568444127458">
        <ele>55.6</ele>
        <time>2017-10-14T16:34:15Z</time>
      </trkpt>
      <trkpt lat="59.796016026251" lon="17.568598857332">
        <ele>55.4</ele>
        <time>2017-10-14T16:34:16Z</time>
      </trkpt>
      <trkpt lat="59.795981157547" lon="17.568748390428">
        <ele>55.2</ele>
        <time>2017-10-14T16:34:17Z</time>
      </trkpt>
      <trkpt lat="59.795946456481" lon="17.568888871072">
        <ele>55.2</ele>
        <time>2017-10-14T16:34:18Z</time>
      </trkpt>
      <trkpt lat="59.795911755415" lon="17.569029686992">
        <ele>55</ele>
        <time>2017-10-14T16:34:19Z</time>
      </trkpt>
      <trkpt lat="59.795879652738" lon="17.569158684433">
        <ele>54.8</ele>
        <time>2017-10-14T16:34:20Z</time>
      </trkpt>
      <trkpt lat="59.795844197301" lon="17.569300003267">
        <ele>54.8</ele>
        <time>2017-10-14T16:34:21Z</time>
      </trkpt>
      <trkpt lat="59.795808155131" lon="17.569443836671">
        <ele>54.8</ele>
        <time>2017-10-14T16:34:22Z</time>
      </trkpt>
      <trkpt lat="59.795774627531" lon="17.569577108881">
        <ele>54.8</ele>
        <time>2017-10-14T16:34:23Z</time>
      </trkpt>
      <trkpt lat="59.795739926465" lon="17.569718511534">
        <ele>54.8</ele>
        <time>2017-10-14T16:34:24Z</time>
      </trkpt>
      <trkpt lat="59.795708913435" lon="17.56984792807">
        <ele>55</ele>
        <time>2017-10-14T16:34:25Z</time>
      </trkpt>
      <trkpt lat="59.79567496674" lon="17.569986816153">
        <ele>55</ele>
        <time>2017-10-14T16:34:26Z</time>
      </trkpt>
      <trkpt lat="59.795639176027" lon="17.57012536896">
        <ele>55</ele>
        <time>2017-10-14T16:34:27Z</time>
      </trkpt>
      <trkpt lat="59.795605229332" lon="17.570259144084">
        <ele>54.8</ele>
        <time>2017-10-14T16:34:28Z</time>
      </trkpt>
      <trkpt lat="59.7955693548" lon="17.57040364804">
        <ele>54.8</ele>
        <time>2017-10-14T16:34:29Z</time>
      </trkpt>
      <trkpt lat="59.795538090313" lon="17.570528119255">
        <ele>54.8</ele>
        <time>2017-10-14T16:34:30Z</time>
      </trkpt>
      <trkpt lat="59.795499533573" lon="17.570670108641">
        <ele>54.8</ele>
        <time>2017-10-14T16:34:31Z</time>
      </trkpt>
      <trkpt lat="59.795463323765" lon="17.570806482154">
        <ele>54.8</ele>
        <time>2017-10-14T16:34:32Z</time>
      </trkpt>
      <trkpt lat="59.79543189164" lon="17.570925588953">
        <ele>54.8</ele>
        <time>2017-10-14T16:34:33Z</time>
      </trkpt>
      <trkpt lat="59.795395765651" lon="17.571058525887">
        <ele>55</ele>
        <time>2017-10-14T16:34:34Z</time>
      </trkpt>
      <trkpt lat="59.795359388205" lon="17.571192301011">
        <ele>55</ele>
        <time>2017-10-14T16:34:35Z</time>
      </trkpt>
      <trkpt lat="59.795319825637" lon="17.571331943465">
        <ele>55</ele>
        <time>2017-10-14T16:34:36Z</time>
      </trkpt>
      <trkpt lat="59.795283112915" lon="17.571464042209">
        <ele>55</ele>
        <time>2017-10-14T16:34:37Z</time>
      </trkpt>
      <trkpt lat="59.795247741297" lon="17.571599577532">
        <ele>55.2</ele>
        <time>2017-10-14T16:34:38Z</time>
      </trkpt>
      <trkpt lat="59.795213207869" lon="17.571730418991">
        <ele>55.2</ele>
        <time>2017-10-14T16:34:39Z</time>
      </trkpt>
      <trkpt lat="59.795180015545" lon="17.571855309301">
        <ele>55.2</ele>
        <time>2017-10-14T16:34:40Z</time>
      </trkpt>
      <trkpt lat="59.795142548452" lon="17.57199872361">
        <ele>55.2</ele>
        <time>2017-10-14T16:34:41Z</time>
      </trkpt>
      <trkpt lat="59.795106757739" lon="17.572143227566">
        <ele>55.2</ele>
        <time>2017-10-14T16:34:42Z</time>
      </trkpt>
      <trkpt lat="59.795076247623" lon="17.572285133133">
        <ele>55.2</ele>
        <time>2017-10-14T16:34:43Z</time>
      </trkpt>
      <trkpt lat="59.795045737507" lon="17.572430223822">
        <ele>55.2</ele>
        <time>2017-10-14T16:34:44Z</time>
      </trkpt>
      <trkpt lat="59.795019753617" lon="17.572564166584">
        <ele>55.2</ele>
        <time>2017-10-14T16:34:45Z</time>
      </trkpt>
      <trkpt lat="59.794989075863" lon="17.572726523987">
        <ele>55.2</ele>
        <time>2017-10-14T16:34:46Z</time>
      </trkpt>
      <trkpt lat="59.794959320118" lon="17.572875805626">
        <ele>55.2</ele>
        <time>2017-10-14T16:34:47Z</time>
      </trkpt>
      <trkpt lat="59.794933000952" lon="17.573011843863">
        <ele>55</ele>
        <time>2017-10-14T16:34:48Z</time>
      </trkpt>
      <trkpt lat="59.794902071741" lon="17.573175207094">
        <ele>54.8</ele>
        <time>2017-10-14T16:34:49Z</time>
      </trkpt>
      <trkpt lat="59.794871645444" lon="17.573321890344">
        <ele>54.4</ele>
        <time>2017-10-14T16:34:50Z</time>
      </trkpt>
      <trkpt lat="59.794835184179" lon="17.573472429268">
        <ele>54.4</ele>
        <time>2017-10-14T16:34:51Z</time>
      </trkpt>
      <trkpt lat="59.794796208344" lon="17.573607294039">
        <ele>54.2</ele>
        <time>2017-10-14T16:34:52Z</time>
      </trkpt>
      <trkpt lat="59.794754466482" lon="17.573739811878">
        <ele>54.2</ele>
        <time>2017-10-14T16:34:53Z</time>
      </trkpt>
      <trkpt lat="59.794707611661" lon="17.573873838459">
        <ele>54.2</ele>
        <time>2017-10-14T16:34:54Z</time>
      </trkpt>
      <trkpt lat="59.794660673021" lon="17.573990179231">
        <ele>54</ele>
        <time>2017-10-14T16:34:55Z</time>
      </trkpt>
      <trkpt lat="59.79460375992" lon="17.574115572455">
        <ele>54</ele>
        <time>2017-10-14T16:34:56Z</time>
      </trkpt>
      <trkpt lat="59.794552714149" lon="17.57422244168">
        <ele>54</ele>
        <time>2017-10-14T16:34:57Z</time>
      </trkpt>
      <trkpt lat="59.794497896523" lon="17.574336603158">
        <ele>54</ele>
        <time>2017-10-14T16:34:58Z</time>
      </trkpt>
      <trkpt lat="59.794443414173" lon="17.574452524835">
        <ele>54</ele>
        <time>2017-10-14T16:34:59Z</time>
      </trkpt>
      <trkpt lat="59.794395302067" lon="17.574553191454">
        <ele>54</ele>
        <time>2017-10-14T16:35:00Z</time>
      </trkpt>
      <trkpt lat="59.794340149165" lon="17.574667352932">
        <ele>54</ele>
        <time>2017-10-14T16:35:01Z</time>
      </trkpt>
      <trkpt lat="59.794290863593" lon="17.574772629596">
        <ele>54</ele>
        <time>2017-10-14T16:35:02Z</time>
      </trkpt>
      <trkpt lat="59.794248954093" lon="17.574863740849">
        <ele>54.2</ele>
        <time>2017-10-14T16:35:03Z</time>
      </trkpt>
      <trkpt lat="59.794197740684" lon="17.57497848906">
        <ele>54.2</ele>
        <time>2017-10-14T16:35:04Z</time>
      </trkpt>
      <trkpt lat="59.794154825356" lon="17.575072533978">
        <ele>54.4</ele>
        <time>2017-10-14T16:35:05Z</time>
      </trkpt>
      <trkpt lat="59.794109646915" lon="17.57517965466">
        <ele>54.6</ele>
        <time>2017-10-14T16:35:06Z</time>
      </trkpt>
      <trkpt lat="59.794068072691" lon="17.575279147813">
        <ele>54.6</ele>
        <time>2017-10-14T16:35:07Z</time>
      </trkpt>
      <trkpt lat="59.794026414648" lon="17.575374617654">
        <ele>55</ele>
        <time>2017-10-14T16:35:08Z</time>
      </trkpt>
      <trkpt lat="59.793989450469" lon="17.575466148002">
        <ele>55.4</ele>
        <time>2017-10-14T16:35:09Z</time>
      </trkpt>
      <trkpt lat="59.79395332448" lon="17.575562036938">
        <ele>55.8</ele>
        <time>2017-10-14T16:35:10Z</time>
      </trkpt>
      <trkpt lat="59.793911582618" lon="17.575666223955">
        <ele>56.2</ele>
        <time>2017-10-14T16:35:11Z</time>
      </trkpt>
      <trkpt lat="59.793873947887" lon="17.575763370176">
        <ele>56.8</ele>
        <time>2017-10-14T16:35:12Z</time>
      </trkpt>
      <trkpt lat="59.79383765426" lon="17.575862947148">
        <ele>57</ele>
        <time>2017-10-14T16:35:13Z</time>
      </trkpt>
      <trkpt lat="59.793801444452" lon="17.575962021206">
        <ele>57.2</ele>
        <time>2017-10-14T16:35:14Z</time>
      </trkpt>
      <trkpt lat="59.793769844689" lon="17.576052126631">
        <ele>57.4</ele>
        <time>2017-10-14T16:35:15Z</time>
      </trkpt>
      <trkpt lat="59.793731707044" lon="17.57616620429">
        <ele>57.4</ele>
        <time>2017-10-14T16:35:16Z</time>
      </trkpt>
      <trkpt lat="59.793696754521" lon="17.576272989696">
        <ele>57.4</ele>
        <time>2017-10-14T16:35:17Z</time>
      </trkpt>
      <trkpt lat="59.793664484206" lon="17.576374829781">
        <ele>57.6</ele>
        <time>2017-10-14T16:35:18Z</time>
      </trkpt>
      <trkpt lat="59.793630453692" lon="17.576493517485">
        <ele>57.8</ele>
        <time>2017-10-14T16:35:19Z</time>
      </trkpt>
      <trkpt lat="59.793602709603" lon="17.576602314547">
        <ele>58</ele>
        <time>2017-10-14T16:35:20Z</time>
      </trkpt>
      <trkpt lat="59.793573121496" lon="17.576719744966">
        <ele>58</ele>
        <time>2017-10-14T16:35:21Z</time>
      </trkpt>
      <trkpt lat="59.793542695199" lon="17.576840779602">
        <ele>57.8</ele>
        <time>2017-10-14T16:35:22Z</time>
      </trkpt>
      <trkpt lat="59.7935157893" lon="17.576959718763">
        <ele>58</ele>
        <time>2017-10-14T16:35:23Z</time>
      </trkpt>
      <trkpt lat="59.793489973048" lon="17.577079244657">
        <ele>58</ele>
        <time>2017-10-14T16:35:24Z</time>
      </trkpt>
      <trkpt lat="59.793464994986" lon="17.577188125538">
        <ele>58.2</ele>
        <time>2017-10-14T16:35:25Z</time>
      </trkpt>
      <trkpt lat="59.793439765467" lon="17.577312932029">
        <ele>58.2</ele>
        <time>2017-10-14T16:35:26Z</time>
      </trkpt>
      <trkpt lat="59.793417553432" lon="17.577421477634">
        <ele>58.2</ele>
        <time>2017-10-14T16:35:27Z</time>
      </trkpt>
      <trkpt lat="59.793393916474" lon="17.577543434279">
        <ele>58.4</ele>
        <time>2017-10-14T16:35:28Z</time>
      </trkpt>
      <trkpt lat="59.793370614792" lon="17.57765985887">
        <ele>58.6</ele>
        <time>2017-10-14T16:35:29Z</time>
      </trkpt>
      <trkpt lat="59.793348654214" lon="17.577765806086">
        <ele>58.8</ele>
        <time>2017-10-14T16:35:30Z</time>
      </trkpt>
      <trkpt lat="59.793323759971" lon="17.577889439111">
        <ele>59</ele>
        <time>2017-10-14T16:35:31Z</time>
      </trkpt>
      <trkpt lat="59.793299787737" lon="17.578006701892">
        <ele>59</ele>
        <time>2017-10-14T16:35:32Z</time>
      </trkpt>
      <trkpt lat="59.793276988969" lon="17.578112816746">
        <ele>59.2</ele>
        <time>2017-10-14T16:35:33Z</time>
      </trkpt>
      <trkpt lat="59.79324421574" lon="17.578246088956">
        <ele>59.2</ele>
        <time>2017-10-14T16:35:34Z</time>
      </trkpt>
      <trkpt lat="59.793216639289" lon="17.578358993149">
        <ele>59.2</ele>
        <time>2017-10-14T16:35:35Z</time>
      </trkpt>
      <trkpt lat="59.79318805701" lon="17.57847793231">
        <ele>59.2</ele>
        <time>2017-10-14T16:35:36Z</time>
      </trkpt>
      <trkpt lat="59.793158301265" lon="17.578600140412">
        <ele>59</ele>
        <time>2017-10-14T16:35:37Z</time>
      </trkpt>
      <trkpt lat="59.793127539692" lon="17.578714385709">
        <ele>59</ele>
        <time>2017-10-14T16:35:38Z</time>
      </trkpt>
      <trkpt lat="59.793098789775" lon="17.578823350409">
        <ele>58.8</ele>
        <time>2017-10-14T16:35:39Z</time>
      </trkpt>
      <trkpt lat="59.793068698754" lon="17.578937428068">
        <ele>58.8</ele>
        <time>2017-10-14T16:35:40Z</time>
      </trkpt>
      <trkpt lat="59.793035841706" lon="17.57906215074">
        <ele>58.8</ele>
        <time>2017-10-14T16:35:41Z</time>
      </trkpt>
      <trkpt lat="59.793003068477" lon="17.579178742969">
        <ele>58.8</ele>
        <time>2017-10-14T16:35:42Z</time>
      </trkpt>
      <trkpt lat="59.792968786506" lon="17.579296927759">
        <ele>58.6</ele>
        <time>2017-10-14T16:35:43Z</time>
      </trkpt>
      <trkpt lat="59.792933666345" lon="17.579417375662">
        <ele>58.8</ele>
        <time>2017-10-14T16:35:44Z</time>
      </trkpt>
      <trkpt lat="59.792894606691" lon="17.579537069194">
        <ele>58.8</ele>
        <time>2017-10-14T16:35:45Z</time>
      </trkpt>
      <trkpt lat="59.792846159309" lon="17.579650224844">
        <ele>58.8</ele>
        <time>2017-10-14T16:35:46Z</time>
      </trkpt>
      <trkpt lat="59.792790922588" lon="17.579738905346">
        <ele>58.6</ele>
        <time>2017-10-14T16:35:47Z</time>
      </trkpt>
      <trkpt lat="59.792730740546" lon="17.579802104872">
        <ele>58.4</ele>
        <time>2017-10-14T16:35:48Z</time>
      </trkpt>
      <trkpt lat="59.792662008966" lon="17.579847199494">
        <ele>58.4</ele>
        <time>2017-10-14T16:35:49Z</time>
      </trkpt>
      <trkpt lat="59.792601240191" lon="17.579858934154">
        <ele>58.2</ele>
        <time>2017-10-14T16:35:50Z</time>
      </trkpt>
      <trkpt lat="59.792530329317" lon="17.579857425412">
        <ele>58</ele>
        <time>2017-10-14T16:35:51Z</time>
      </trkpt>
      <trkpt lat="59.792470314913" lon="17.57985088753">
        <ele>57.8</ele>
        <time>2017-10-14T16:35:52Z</time>
      </trkpt>
      <trkpt lat="59.792410803423" lon="17.579840996888">
        <ele>57.8</ele>
        <time>2017-10-14T16:35:53Z</time>
      </trkpt>
      <trkpt lat="59.792349950829" lon="17.579836470662">
        <ele>57.8</ele>
        <time>2017-10-14T16:35:54Z</time>
      </trkpt>
      <trkpt lat="59.792289936425" lon="17.579833956092">
        <ele>57.8</ele>
        <time>2017-10-14T16:35:55Z</time>
      </trkpt>
      <trkpt lat="59.792220534293" lon="17.579853485919">
        <ele>57.6</ele>
        <time>2017-10-14T16:35:56Z</time>
      </trkpt>
      <trkpt lat="59.792157250948" lon="17.579901262749">
        <ele>57.2</ele>
        <time>2017-10-14T16:35:57Z</time>
      </trkpt>
      <trkpt lat="59.792094889612" lon="17.579981226075">
        <ele>56.8</ele>
        <time>2017-10-14T16:35:58Z</time>
      </trkpt>
      <trkpt lat="59.792035042846" lon="17.580088011481">
        <ele>56.2</ele>
        <time>2017-10-14T16:35:59Z</time>
      </trkpt>
      <trkpt lat="59.791988690939" lon="17.58020795647">
        <ele>55.8</ele>
        <time>2017-10-14T16:36:00Z</time>
      </trkpt>
      <trkpt lat="59.79194585943" lon="17.580364698">
        <ele>54.8</ele>
        <time>2017-10-14T16:36:01Z</time>
      </trkpt>
      <trkpt lat="59.791917863884" lon="17.580525881937">
        <ele>54.2</ele>
        <time>2017-10-14T16:36:02Z</time>
      </trkpt>
      <trkpt lat="59.791898417876" lon="17.580675917947">
        <ele>53.6</ele>
        <time>2017-10-14T16:36:03Z</time>
      </trkpt>
      <trkpt lat="59.791874780918" lon="17.580841460472">
        <ele>53</ele>
        <time>2017-10-14T16:36:04Z</time>
      </trkpt>
      <trkpt lat="59.791852317426" lon="17.581006080988">
        <ele>52.2</ele>
        <time>2017-10-14T16:36:05Z</time>
      </trkpt>
      <trkpt lat="59.791829853934" lon="17.581181514155">
        <ele>51.6</ele>
        <time>2017-10-14T16:36:06Z</time>
      </trkpt>
      <trkpt lat="59.791808899184" lon="17.581348230146">
        <ele>51.2</ele>
        <time>2017-10-14T16:36:07Z</time>
      </trkpt>
      <trkpt lat="59.791790039909" lon="17.581515616689">
        <ele>51</ele>
        <time>2017-10-14T16:36:08Z</time>
      </trkpt>
      <trkpt lat="59.791772773195" lon="17.581676968264">
        <ele>50.6</ele>
        <time>2017-10-14T16:36:09Z</time>
      </trkpt>
      <trkpt lat="59.791756009395" lon="17.581842007875">
        <ele>50.4</ele>
        <time>2017-10-14T16:36:10Z</time>
      </trkpt>
      <trkpt lat="59.791738658862" lon="17.582033953385">
        <ele>50</ele>
        <time>2017-10-14T16:36:11Z</time>
      </trkpt>
      <trkpt lat="59.791730193143" lon="17.582210727656">
        <ele>49.8</ele>
        <time>2017-10-14T16:36:12Z</time>
      </trkpt>
      <trkpt lat="59.791724241994" lon="17.582391189963">
        <ele>49.6</ele>
        <time>2017-10-14T16:36:13Z</time>
      </trkpt>
      <trkpt lat="59.791719464311" lon="17.582571065537">
        <ele>49.4</ele>
        <time>2017-10-14T16:36:14Z</time>
      </trkpt>
      <trkpt lat="59.791709406031" lon="17.582732333293">
        <ele>49</ele>
        <time>2017-10-14T16:36:15Z</time>
      </trkpt>
      <trkpt lat="59.791679566467" lon="17.582907515003">
        <ele>48.6</ele>
        <time>2017-10-14T16:36:16Z</time>
      </trkpt>
      <trkpt lat="59.79163489094" lon="17.583054198253">
        <ele>48</ele>
        <time>2017-10-14T16:36:17Z</time>
      </trkpt>
      <trkpt lat="59.79159717239" lon="17.583186129359">
        <ele>47.8</ele>
        <time>2017-10-14T16:36:18Z</time>
      </trkpt>
      <trkpt lat="59.791562974238" lon="17.583340775414">
        <ele>48</ele>
        <time>2017-10-14T16:36:19Z</time>
      </trkpt>
      <trkpt lat="59.7915376609" lon="17.583479998773">
        <ele>48</ele>
        <time>2017-10-14T16:36:20Z</time>
      </trkpt>
      <trkpt lat="59.791511928467" lon="17.583635147742">
        <ele>48</ele>
        <time>2017-10-14T16:36:21Z</time>
      </trkpt>
      <trkpt lat="59.791486950405" lon="17.583787530684">
        <ele>48.4</ele>
        <time>2017-10-14T16:36:22Z</time>
      </trkpt>
      <trkpt lat="59.791459960687" lon="17.583942009101">
        <ele>48.6</ele>
        <time>2017-10-14T16:36:23Z</time>
      </trkpt>
      <trkpt lat="59.791435485539" lon="17.584086093962">
        <ele>48.6</ele>
        <time>2017-10-14T16:36:24Z</time>
      </trkpt>
      <trkpt lat="59.791409920744" lon="17.584225484959">
        <ele>48.4</ele>
        <time>2017-10-14T16:36:25Z</time>
      </trkpt>
      <trkpt lat="59.791380248818" lon="17.584368983087">
        <ele>48.4</ele>
        <time>2017-10-14T16:36:26Z</time>
      </trkpt>
      <trkpt lat="59.791345799209" lon="17.584502339116">
        <ele>48.4</ele>
        <time>2017-10-14T16:36:27Z</time>
      </trkpt>
      <trkpt lat="59.791306069003" lon="17.584628319073">
        <ele>48.2</ele>
        <time>2017-10-14T16:36:28Z</time>
      </trkpt>
      <trkpt lat="59.791258795087" lon="17.584755304858">
        <ele>48.2</ele>
        <time>2017-10-14T16:36:29Z</time>
      </trkpt>
      <trkpt lat="59.79121244318" lon="17.584866784128">
        <ele>48.2</ele>
        <time>2017-10-14T16:36:30Z</time>
      </trkpt>
      <trkpt lat="59.791159385753" lon="17.584988237859">
        <ele>48.2</ele>
        <time>2017-10-14T16:36:31Z</time>
      </trkpt>
      <trkpt lat="59.791104400489" lon="17.585103405165">
        <ele>48.4</ele>
        <time>2017-10-14T16:36:32Z</time>
      </trkpt>
      <trkpt lat="59.791056120745" lon="17.58520356887">
        <ele>48.6</ele>
        <time>2017-10-14T16:36:33Z</time>
      </trkpt>
      <trkpt lat="59.790996525436" lon="17.585332063397">
        <ele>48.8</ele>
        <time>2017-10-14T16:36:34Z</time>
      </trkpt>
      <trkpt lat="59.790942713638" lon="17.585447063065">
        <ele>48.8</ele>
        <time>2017-10-14T16:36:35Z</time>
      </trkpt>
      <trkpt lat="59.790880855216" lon="17.585570025538">
        <ele>48.8</ele>
        <time>2017-10-14T16:36:36Z</time>
      </trkpt>
      <trkpt lat="59.790823103925" lon="17.58568636631">
        <ele>48.2</ele>
        <time>2017-10-14T16:36:37Z</time>
      </trkpt>
      <trkpt lat="59.790766358462" lon="17.58580622748">
        <ele>48</ele>
        <time>2017-10-14T16:36:38Z</time>
      </trkpt>
      <trkpt lat="59.79071204375" lon="17.585919299311">
        <ele>47.2</ele>
        <time>2017-10-14T16:36:39Z</time>
      </trkpt>
      <trkpt lat="59.790657142305" lon="17.586032874056">
        <ele>46.8</ele>
        <time>2017-10-14T16:36:40Z</time>
      </trkpt>
      <trkpt lat="59.790595367702" lon="17.586164637524">
        <ele>46.4</ele>
        <time>2017-10-14T16:36:41Z</time>
      </trkpt>
      <trkpt lat="59.790537951687" lon="17.586284331056">
        <ele>46.2</ele>
        <time>2017-10-14T16:36:42Z</time>
      </trkpt>
      <trkpt lat="59.790481373862" lon="17.586403605493">
        <ele>46</ele>
        <time>2017-10-14T16:36:43Z</time>
      </trkpt>
      <trkpt lat="59.790425131313" lon="17.586522544654">
        <ele>45.8</ele>
        <time>2017-10-14T16:36:44Z</time>
      </trkpt>
      <trkpt lat="59.790376348655" lon="17.586627066947">
        <ele>45.8</ele>
        <time>2017-10-14T16:36:45Z</time>
      </trkpt>
      <trkpt lat="59.790314993147" lon="17.586755980569">
        <ele>45.6</ele>
        <time>2017-10-14T16:36:46Z</time>
      </trkpt>
      <trkpt lat="59.790256738942" lon="17.586874835911">
        <ele>45.6</ele>
        <time>2017-10-14T16:36:47Z</time>
      </trkpt>
      <trkpt lat="59.790203932972" lon="17.586980615489">
        <ele>45.6</ele>
        <time>2017-10-14T16:36:48Z</time>
      </trkpt>
      <trkpt lat="59.790145092034" lon="17.587104332333">
        <ele>45.4</ele>
        <time>2017-10-14T16:36:49Z</time>
      </trkpt>
      <trkpt lat="59.790094465358" lon="17.587212291205">
        <ele>45.4</ele>
        <time>2017-10-14T16:36:50Z</time>
      </trkpt>
      <trkpt lat="59.790040234465" lon="17.587328883434">
        <ele>45.4</ele>
        <time>2017-10-14T16:36:51Z</time>
      </trkpt>
      <trkpt lat="59.789998911698" lon="17.587416222832">
        <ele>45.4</ele>
        <time>2017-10-14T16:36:52Z</time>
      </trkpt>
      <trkpt lat="59.789927833186" lon="17.587562822263">
        <ele>45.4</ele>
        <time>2017-10-14T16:36:53Z</time>
      </trkpt>
      <trkpt lat="59.789872680284" lon="17.587674469171">
        <ele>45.4</ele>
        <time>2017-10-14T16:36:54Z</time>
      </trkpt>
      <trkpt lat="59.789821802151" lon="17.587778572369">
        <ele>45.2</ele>
        <time>2017-10-14T16:36:55Z</time>
      </trkpt>
      <trkpt lat="59.789763045032" lon="17.587898684996">
        <ele>45.2</ele>
        <time>2017-10-14T16:36:56Z</time>
      </trkpt>
      <trkpt lat="59.789712502175" lon="17.588004883669">
        <ele>45.2</ele>
        <time>2017-10-14T16:36:57Z</time>
      </trkpt>
      <trkpt lat="59.789657013997" lon="17.588123487554">
        <ele>45.2</ele>
        <time>2017-10-14T16:36:58Z</time>
      </trkpt>
      <trkpt lat="59.789603202199" lon="17.58823949305">
        <ele>45</ele>
        <time>2017-10-14T16:36:59Z</time>
      </trkpt>
      <trkpt lat="59.78955282698" lon="17.588346110818">
        <ele>45</ele>
        <time>2017-10-14T16:37:00Z</time>
      </trkpt>
      <trkpt lat="59.789494656594" lon="17.588466307264">
        <ele>44.8</ele>
        <time>2017-10-14T16:37:01Z</time>
      </trkpt>
      <trkpt lat="59.789439838968" lon="17.588579882009">
        <ele>44.8</ele>
        <time>2017-10-14T16:37:02Z</time>
      </trkpt>
      <trkpt lat="59.789392397414" lon="17.588677195868">
        <ele>44.6</ele>
        <time>2017-10-14T16:37:03Z</time>
      </trkpt>
      <trkpt lat="59.789332969743" lon="17.588799739246">
        <ele>44.6</ele>
        <time>2017-10-14T16:37:04Z</time>
      </trkpt>
      <trkpt lat="59.789280079954" lon="17.588908117213">
        <ele>44.6</ele>
        <time>2017-10-14T16:37:05Z</time>
      </trkpt>
      <trkpt lat="59.789222496301" lon="17.589027894564">
        <ele>44.6</ele>
        <time>2017-10-14T16:37:06Z</time>
      </trkpt>
      <trkpt lat="59.789168013951" lon="17.589141301671">
        <ele>44.4</ele>
        <time>2017-10-14T16:37:07Z</time>
      </trkpt>
      <trkpt lat="59.789115459438" lon="17.589255798425">
        <ele>44.4</ele>
        <time>2017-10-14T16:37:08Z</time>
      </trkpt>
      <trkpt lat="59.789064748943" lon="17.58936266765">
        <ele>44.4</ele>
        <time>2017-10-14T16:37:09Z</time>
      </trkpt>
      <trkpt lat="59.789013200258" lon="17.589468447228">
        <ele>44.4</ele>
        <time>2017-10-14T16:37:10Z</time>
      </trkpt>
      <trkpt lat="59.78895268294" lon="17.58959149352">
        <ele>44.4</ele>
        <time>2017-10-14T16:37:11Z</time>
      </trkpt>
      <trkpt lat="59.788898284409" lon="17.589702721333">
        <ele>44.2</ele>
        <time>2017-10-14T16:37:12Z</time>
      </trkpt>
      <trkpt lat="59.788845226982" lon="17.589817134268">
        <ele>44.4</ele>
        <time>2017-10-14T16:37:13Z</time>
      </trkpt>
      <trkpt lat="59.78879175046" lon="17.589932469212">
        <ele>44.4</ele>
        <time>2017-10-14T16:37:14Z</time>
      </trkpt>
      <trkpt lat="59.788743638354" lon="17.590034309297">
        <ele>44.4</ele>
        <time>2017-10-14T16:37:15Z</time>
      </trkpt>
      <trkpt lat="59.788683121036" lon="17.590155846847">
        <ele>44.4</ele>
        <time>2017-10-14T16:37:16Z</time>
      </trkpt>
      <trkpt lat="59.788624615374" lon="17.590271852343">
        <ele>44.4</ele>
        <time>2017-10-14T16:37:17Z</time>
      </trkpt>
      <trkpt lat="59.788573066689" lon="17.590380649405">
        <ele>44.4</ele>
        <time>2017-10-14T16:37:18Z</time>
      </trkpt>
      <trkpt lat="59.788515566855" lon="17.590504533887">
        <ele>44.4</ele>
        <time>2017-10-14T16:37:19Z</time>
      </trkpt>
      <trkpt lat="59.788463682894" lon="17.590611906026">
        <ele>44.4</ele>
        <time>2017-10-14T16:37:20Z</time>
      </trkpt>
      <trkpt lat="59.788406853612" lon="17.590729587902">
        <ele>44.6</ele>
        <time>2017-10-14T16:37:21Z</time>
      </trkpt>
      <trkpt lat="59.788350527244" lon="17.590848527063">
        <ele>44.8</ele>
        <time>2017-10-14T16:37:22Z</time>
      </trkpt>
      <trkpt lat="59.788293781781" lon="17.590968472052">
        <ele>44.8</ele>
        <time>2017-10-14T16:37:23Z</time>
      </trkpt>
      <trkpt lat="59.788238209784" lon="17.591082884987">
        <ele>44.8</ele>
        <time>2017-10-14T16:37:24Z</time>
      </trkpt>
      <trkpt lat="59.788186493461" lon="17.591190173307">
        <ele>44.6</ele>
        <time>2017-10-14T16:37:25Z</time>
      </trkpt>
      <trkpt lat="59.788128490713" lon="17.591311878495">
        <ele>44.4</ele>
        <time>2017-10-14T16:37:26Z</time>
      </trkpt>
      <trkpt lat="59.788077696399" lon="17.591419502091">
        <ele>44.2</ele>
        <time>2017-10-14T16:37:27Z</time>
      </trkpt>
      <trkpt lat="59.788022124402" lon="17.59153190337">
        <ele>44</ele>
        <time>2017-10-14T16:37:28Z</time>
      </trkpt>
      <trkpt lat="59.787964373111" lon="17.591643634097">
        <ele>44</ele>
        <time>2017-10-14T16:37:29Z</time>
      </trkpt>
      <trkpt lat="59.787911315684" lon="17.591743881621">
        <ele>44.2</ele>
        <time>2017-10-14T16:37:30Z</time>
      </trkpt>
      <trkpt lat="59.787851468918" lon="17.591858043099">
        <ele>44.4</ele>
        <time>2017-10-14T16:37:31Z</time>
      </trkpt>
      <trkpt lat="59.787793969084" lon="17.591960972831">
        <ele>44.4</ele>
        <time>2017-10-14T16:37:32Z</time>
      </trkpt>
      <trkpt lat="59.787743761503" lon="17.592053928102">
        <ele>44.6</ele>
        <time>2017-10-14T16:37:33Z</time>
      </trkpt>
      <trkpt lat="59.787683411823" lon="17.592167754304">
        <ele>44.6</ele>
        <time>2017-10-14T16:37:34Z</time>
      </trkpt>
      <trkpt lat="59.787629683844" lon="17.592267331276">
        <ele>44.8</ele>
        <time>2017-10-14T16:37:35Z</time>
      </trkpt>
      <trkpt lat="59.787571764915" lon="17.592378726727">
        <ele>44.8</ele>
        <time>2017-10-14T16:37:36Z</time>
      </trkpt>
      <trkpt lat="59.787520551506" lon="17.592482829925">
        <ele>44.6</ele>
        <time>2017-10-14T16:37:37Z</time>
      </trkpt>
      <trkpt lat="59.787470511563" lon="17.59259724286">
        <ele>44.6</ele>
        <time>2017-10-14T16:37:38Z</time>
      </trkpt>
      <trkpt lat="59.787429356434" lon="17.592710901424">
        <ele>44.6</ele>
        <time>2017-10-14T16:37:39Z</time>
      </trkpt>
      <trkpt lat="59.78739364954" lon="17.592837300476">
        <ele>44.6</ele>
        <time>2017-10-14T16:37:40Z</time>
      </trkpt>
      <trkpt lat="59.787362385053" lon="17.592971327057">
        <ele>44.6</ele>
        <time>2017-10-14T16:37:41Z</time>
      </trkpt>
      <trkpt lat="59.787333970412" lon="17.593108622579">
        <ele>44.6</ele>
        <time>2017-10-14T16:37:42Z</time>
      </trkpt>
      <trkpt lat="59.787307399789" lon="17.593246421015">
        <ele>44.8</ele>
        <time>2017-10-14T16:37:43Z</time>
      </trkpt>
      <trkpt lat="59.787282002632" lon="17.59338597965">
        <ele>44.8</ele>
        <time>2017-10-14T16:37:44Z</time>
      </trkpt>
      <trkpt lat="59.787260293511" lon="17.593514474177">
        <ele>44.8</ele>
        <time>2017-10-14T16:37:45Z</time>
      </trkpt>
      <trkpt lat="59.787235063992" lon="17.593666689481">
        <ele>45</ele>
        <time>2017-10-14T16:37:46Z</time>
      </trkpt>
      <trkpt lat="59.787208241912" lon="17.593821503174">
        <ele>45</ele>
        <time>2017-10-14T16:37:47Z</time>
      </trkpt>
      <trkpt lat="59.78718577842" lon="17.593943292181">
        <ele>45</ele>
        <time>2017-10-14T16:37:48Z</time>
      </trkpt>
      <trkpt lat="59.787160800358" lon="17.594091651811">
        <ele>44.8</ele>
        <time>2017-10-14T16:37:49Z</time>
      </trkpt>
      <trkpt lat="59.787137666314" lon="17.59422584603">
        <ele>44.6</ele>
        <time>2017-10-14T16:37:50Z</time>
      </trkpt>
      <trkpt lat="59.787111430967" lon="17.594377726058">
        <ele>44.6</ele>
        <time>2017-10-14T16:37:51Z</time>
      </trkpt>
      <trkpt lat="59.787084944163" lon="17.594516195046">
        <ele>44.4</ele>
        <time>2017-10-14T16:37:52Z</time>
      </trkpt>
      <trkpt lat="59.787058541178" lon="17.594649551075">
        <ele>44.4</ele>
        <time>2017-10-14T16:37:53Z</time>
      </trkpt>
      <trkpt lat="59.787030042718" lon="17.594781314543">
        <ele>44.6</ele>
        <time>2017-10-14T16:37:54Z</time>
      </trkpt>
      <trkpt lat="59.787002382448" lon="17.594899666971">
        <ele>44.6</ele>
        <time>2017-10-14T16:37:55Z</time>
      </trkpt>
      <trkpt lat="59.786966256459" lon="17.595047523687">
        <ele>44.8</ele>
        <time>2017-10-14T16:37:56Z</time>
      </trkpt>
      <trkpt lat="59.786934824334" lon="17.595172916911">
        <ele>44.8</ele>
        <time>2017-10-14T16:37:57Z</time>
      </trkpt>
      <trkpt lat="59.786902218743" lon="17.595301662895">
        <ele>45</ele>
        <time>2017-10-14T16:37:58Z</time>
      </trkpt>
      <trkpt lat="59.78686558984" lon="17.595436276209">
        <ele>45</ele>
        <time>2017-10-14T16:37:59Z</time>
      </trkpt>
      <trkpt lat="59.786834325353" lon="17.595556221198">
        <ele>45</ele>
        <time>2017-10-14T16:38:00Z</time>
      </trkpt>
      <trkpt lat="59.78679937283" lon="17.595693600539">
        <ele>45</ele>
        <time>2017-10-14T16:38:01Z</time>
      </trkpt>
      <trkpt lat="59.786766851058" lon="17.595820837781">
        <ele>44.8</ele>
        <time>2017-10-14T16:38:02Z</time>
      </trkpt>
      <trkpt lat="59.786736676218" lon="17.595939190209">
        <ele>44.8</ele>
        <time>2017-10-14T16:38:03Z</time>
      </trkpt>
      <trkpt lat="59.786703148618" lon="17.59607154041">
        <ele>44.6</ele>
        <time>2017-10-14T16:38:04Z</time>
      </trkpt>
      <trkpt lat="59.786673476692" lon="17.596188384096">
        <ele>44.6</ele>
        <time>2017-10-14T16:38:05Z</time>
      </trkpt>
      <trkpt lat="59.786641457834" lon="17.596321237211">
        <ele>44.6</ele>
        <time>2017-10-14T16:38:06Z</time>
      </trkpt>
      <trkpt lat="59.786611282994" lon="17.596445037874">
        <ele>44.6</ele>
        <time>2017-10-14T16:38:07Z</time>
      </trkpt>
      <trkpt lat="59.786581359611" lon="17.596564731406">
        <ele>44.8</ele>
        <time>2017-10-14T16:38:08Z</time>
      </trkpt>
      <trkpt lat="59.786552358237" lon="17.59668006635">
        <ele>44.8</ele>
        <time>2017-10-14T16:38:09Z</time>
      </trkpt>
      <trkpt lat="59.786525619976" lon="17.596784337186">
        <ele>44.8</ele>
        <time>2017-10-14T16:38:10Z</time>
      </trkpt>
      <trkpt lat="59.786489326349" lon="17.596926242753">
        <ele>45</ele>
        <time>2017-10-14T16:38:11Z</time>
      </trkpt>
      <trkpt lat="59.786458061862" lon="17.597048702312">
        <ele>45</ele>
        <time>2017-10-14T16:38:12Z</time>
      </trkpt>
      <trkpt lat="59.786428138479" lon="17.597173676441">
        <ele>45</ele>
        <time>2017-10-14T16:38:13Z</time>
      </trkpt>
      <trkpt lat="59.786399472381" lon="17.597301584235">
        <ele>45.2</ele>
        <time>2017-10-14T16:38:14Z</time>
      </trkpt>
      <trkpt lat="59.786371979749" lon="17.597419098473">
        <ele>45.2</ele>
        <time>2017-10-14T16:38:15Z</time>
      </trkpt>
      <trkpt lat="59.786339709434" lon="17.597560501126">
        <ele>45.2</ele>
        <time>2017-10-14T16:38:16Z</time>
      </trkpt>
      <trkpt lat="59.786311965345" lon="17.597694527707">
        <ele>45.4</ele>
        <time>2017-10-14T16:38:17Z</time>
      </trkpt>
      <trkpt lat="59.786285981455" lon="17.597820759121">
        <ele>45.2</ele>
        <time>2017-10-14T16:38:18Z</time>
      </trkpt>
      <trkpt lat="59.786259829927" lon="17.597962245593">
        <ele>45.2</ele>
        <time>2017-10-14T16:38:19Z</time>
      </trkpt>
      <trkpt lat="59.786239797186" lon="17.598089734292">
        <ele>45.2</ele>
        <time>2017-10-14T16:38:20Z</time>
      </trkpt>
      <trkpt lat="59.786219093893" lon="17.598232897144">
        <ele>45.2</ele>
        <time>2017-10-14T16:38:21Z</time>
      </trkpt>
      <trkpt lat="59.786203168283" lon="17.5983690192">
        <ele>45.2</ele>
        <time>2017-10-14T16:38:22Z</time>
      </trkpt>
      <trkpt lat="59.786192271813" lon="17.598516875916">
        <ele>45</ele>
        <time>2017-10-14T16:38:23Z</time>
      </trkpt>
      <trkpt lat="59.786185650112" lon="17.59865819475">
        <ele>45</ele>
        <time>2017-10-14T16:38:24Z</time>
      </trkpt>
      <trkpt lat="59.786180704791" lon="17.598781492499">
        <ele>45.2</ele>
        <time>2017-10-14T16:38:25Z</time>
      </trkpt>
      <trkpt lat="59.786173580176" lon="17.598946783567">
        <ele>45.2</ele>
        <time>2017-10-14T16:38:26Z</time>
      </trkpt>
      <trkpt lat="59.786171903796" lon="17.599090868428">
        <ele>45.2</ele>
        <time>2017-10-14T16:38:27Z</time>
      </trkpt>
      <trkpt lat="59.786173831633" lon="17.59923486947">
        <ele>45.4</ele>
        <time>2017-10-14T16:38:28Z</time>
      </trkpt>
      <trkpt lat="59.786177100574" lon="17.599378786693">
        <ele>45.4</ele>
        <time>2017-10-14T16:38:29Z</time>
      </trkpt>
      <trkpt lat="59.786180369515" lon="17.599505940116">
        <ele>45.4</ele>
        <time>2017-10-14T16:38:30Z</time>
      </trkpt>
      <trkpt lat="59.786186404483" lon="17.599639379964">
        <ele>45.4</ele>
        <time>2017-10-14T16:38:31Z</time>
      </trkpt>
      <trkpt lat="59.786194954021" lon="17.59977885478">
        <ele>45.4</ele>
        <time>2017-10-14T16:38:32Z</time>
      </trkpt>
      <trkpt lat="59.786202749188" lon="17.5999029069">
        <ele>45.2</ele>
        <time>2017-10-14T16:38:33Z</time>
      </trkpt>
      <trkpt lat="59.786213394201" lon="17.600046153571">
        <ele>45.2</ele>
        <time>2017-10-14T16:38:34Z</time>
      </trkpt>
      <trkpt lat="59.786225715594" lon="17.600172887899">
        <ele>45.2</ele>
        <time>2017-10-14T16:38:35Z</time>
      </trkpt>
      <trkpt lat="59.786239964824" lon="17.600318230045">
        <ele>45.2</ele>
        <time>2017-10-14T16:38:36Z</time>
      </trkpt>
      <trkpt lat="59.786252370036" lon="17.60044856859">
        <ele>45.4</ele>
        <time>2017-10-14T16:38:37Z</time>
      </trkpt>
      <trkpt lat="59.786267373637" lon="17.600577733669">
        <ele>45.4</ele>
        <time>2017-10-14T16:38:38Z</time>
      </trkpt>
      <trkpt lat="59.786283466885" lon="17.600702121065">
        <ele>45.4</ele>
        <time>2017-10-14T16:38:39Z</time>
      </trkpt>
      <trkpt lat="59.786300314504" lon="17.600818126561">
        <ele>45.4</ele>
        <time>2017-10-14T16:38:40Z</time>
      </trkpt>
      <trkpt lat="59.786320598702" lon="17.600962630517">
        <ele>45.6</ele>
        <time>2017-10-14T16:38:41Z</time>
      </trkpt>
      <trkpt lat="59.786338033054" lon="17.601086850275">
        <ele>45.8</ele>
        <time>2017-10-14T16:38:42Z</time>
      </trkpt>
      <trkpt lat="59.78635429394" lon="17.60120545416">
        <ele>45.8</ele>
        <time>2017-10-14T16:38:43Z</time>
      </trkpt>
      <trkpt lat="59.786372650301" lon="17.601329422461">
        <ele>45.8</ele>
        <time>2017-10-14T16:38:44Z</time>
      </trkpt>
      <trkpt lat="59.786390168472" lon="17.6014367946">
        <ele>45.8</ele>
        <time>2017-10-14T16:38:45Z</time>
      </trkpt>
      <trkpt lat="59.786414392163" lon="17.601565792041">
        <ele>46</ele>
        <time>2017-10-14T16:38:46Z</time>
      </trkpt>
      <trkpt lat="59.786440543691" lon="17.601686742858">
        <ele>45.8</ele>
        <time>2017-10-14T16:38:47Z</time>
      </trkpt>
      <trkpt lat="59.786465857029" lon="17.601800736698">
        <ele>46</ele>
        <time>2017-10-14T16:38:48Z</time>
      </trkpt>
      <trkpt lat="59.78649594805" lon="17.601928309216">
        <ele>46</ele>
        <time>2017-10-14T16:38:49Z</time>
      </trkpt>
      <trkpt lat="59.786523189225" lon="17.602046661644">
        <ele>46</ele>
        <time>2017-10-14T16:38:50Z</time>
      </trkpt>
      <trkpt lat="59.786551520047" lon="17.602176581094">
        <ele>45.8</ele>
        <time>2017-10-14T16:38:51Z</time>
      </trkpt>
      <trkpt lat="59.786581778706" lon="17.602309098933">
        <ele>45.6</ele>
        <time>2017-10-14T16:38:52Z</time>
      </trkpt>
      <trkpt lat="59.786612121184" lon="17.602443879885">
        <ele>45.4</ele>
        <time>2017-10-14T16:38:53Z</time>
      </trkpt>
      <trkpt lat="59.786642296024" lon="17.602574637525">
        <ele>45.2</ele>
        <time>2017-10-14T16:38:54Z</time>
      </trkpt>
      <trkpt lat="59.786667860819" lon="17.602685781519">
        <ele>45</ele>
        <time>2017-10-14T16:38:55Z</time>
      </trkpt>
      <trkpt lat="59.786701639876" lon="17.602835649891">
        <ele>44.8</ele>
        <time>2017-10-14T16:38:56Z</time>
      </trkpt>
      <trkpt lat="59.786726617938" lon="17.602959366735">
        <ele>44.8</ele>
        <time>2017-10-14T16:38:57Z</time>
      </trkpt>
      <trkpt lat="59.78675327238" lon="17.603092136031">
        <ele>44.6</ele>
        <time>2017-10-14T16:38:58Z</time>
      </trkpt>
      <trkpt lat="59.786782441392" lon="17.603223061309">
        <ele>44.6</ele>
        <time>2017-10-14T16:38:59Z</time>
      </trkpt>
      <trkpt lat="59.786806832721" lon="17.60334200047">
        <ele>44.6</ele>
        <time>2017-10-14T16:39:00Z</time>
      </trkpt>
      <trkpt lat="59.78683122405" lon="17.603482900209">
        <ele>44.4</ele>
        <time>2017-10-14T16:39:01Z</time>
      </trkpt>
      <trkpt lat="59.786850921515" lon="17.603614998953">
        <ele>44.4</ele>
        <time>2017-10-14T16:39:02Z</time>
      </trkpt>
      <trkpt lat="59.786867182401" lon="17.603737709969">
        <ele>44.4</ele>
        <time>2017-10-14T16:39:03Z</time>
      </trkpt>
      <trkpt lat="59.786881347812" lon="17.603873664387">
        <ele>44.6</ele>
        <time>2017-10-14T16:39:04Z</time>
      </trkpt>
      <trkpt lat="59.786891406092" lon="17.603999811982">
        <ele>44.8</ele>
        <time>2017-10-14T16:39:05Z</time>
      </trkpt>
      <trkpt lat="59.78690079382" lon="17.604134592934">
        <ele>44.8</ele>
        <time>2017-10-14T16:39:06Z</time>
      </trkpt>
      <trkpt lat="59.786908086073" lon="17.604264428565">
        <ele>45</ele>
        <time>2017-10-14T16:39:07Z</time>
      </trkpt>
      <trkpt lat="59.786913701946" lon="17.604395521481">
        <ele>45.2</ele>
        <time>2017-10-14T16:39:08Z</time>
      </trkpt>
      <trkpt lat="59.786919150181" lon="17.604502306887">
        <ele>45.2</ele>
        <time>2017-10-14T16:39:09Z</time>
      </trkpt>
      <trkpt lat="59.78692342495" lon="17.604605655714">
        <ele>45.2</ele>
        <time>2017-10-14T16:39:10Z</time>
      </trkpt>
      <trkpt lat="59.786928286452" lon="17.604753177154">
        <ele>45.2</ele>
        <time>2017-10-14T16:39:11Z</time>
      </trkpt>
      <trkpt lat="59.786932225945" lon="17.60486666808">
        <ele>45.2</ele>
        <time>2017-10-14T16:39:12Z</time>
      </trkpt>
      <trkpt lat="59.786937757999" lon="17.604975213685">
        <ele>45.6</ele>
        <time>2017-10-14T16:39:13Z</time>
      </trkpt>
      <trkpt lat="59.786948989745" lon="17.605078143417">
        <ele>46</ele>
        <time>2017-10-14T16:39:14Z</time>
      </trkpt>
      <trkpt lat="59.786962736061" lon="17.605163638797">
        <ele>46.4</ele>
        <time>2017-10-14T16:39:15Z</time>
      </trkpt>
      <trkpt lat="59.786982852621" lon="17.605255504421">
        <ele>46.6</ele>
        <time>2017-10-14T16:39:16Z</time>
      </trkpt>
      <trkpt lat="59.787004813199" lon="17.605333456091">
        <ele>46.8</ele>
        <time>2017-10-14T16:39:17Z</time>
      </trkpt>
      <trkpt lat="59.787028031062" lon="17.605395649789">
        <ele>47.2</ele>
        <time>2017-10-14T16:39:18Z</time>
      </trkpt>
      <trkpt lat="59.787056529522" lon="17.605454742184">
        <ele>47.4</ele>
        <time>2017-10-14T16:39:19Z</time>
      </trkpt>
      <trkpt lat="59.787086620543" lon="17.605495226761">
        <ele>47.6</ele>
        <time>2017-10-14T16:39:20Z</time>
      </trkpt>
      <trkpt lat="59.787119393772" lon="17.605531771845">
        <ele>47.8</ele>
        <time>2017-10-14T16:39:21Z</time>
      </trkpt>
      <trkpt lat="59.787147892232" lon="17.60555985121">
        <ele>48</ele>
        <time>2017-10-14T16:39:22Z</time>
      </trkpt>
      <trkpt lat="59.787177564158" lon="17.605588936403">
        <ele>48.2</ele>
        <time>2017-10-14T16:39:23Z</time>
      </trkpt>
      <trkpt lat="59.787203799505" lon="17.605613663008">
        <ele>48.4</ele>
        <time>2017-10-14T16:39:24Z</time>
      </trkpt>
      <trkpt lat="59.787224418979" lon="17.60563864107">
        <ele>48.8</ele>
        <time>2017-10-14T16:39:25Z</time>
      </trkpt>
      <trkpt lat="59.787249648498" lon="17.605668899729">
        <ele>49</ele>
        <time>2017-10-14T16:39:26Z</time>
      </trkpt>
      <trkpt lat="59.787275129474" lon="17.605685831167">
        <ele>49.6</ele>
        <time>2017-10-14T16:39:27Z</time>
      </trkpt>
      <trkpt lat="59.787299856079" lon="17.605710473953">
        <ele>50</ele>
        <time>2017-10-14T16:39:28Z</time>
      </trkpt>
      <trkpt lat="59.787325001779" lon="17.605737631309">
        <ele>50.4</ele>
        <time>2017-10-14T16:39:29Z</time>
      </trkpt>
      <trkpt lat="59.787348638737" lon="17.605758083145">
        <ele>50.8</ele>
        <time>2017-10-14T16:39:30Z</time>
      </trkpt>
      <trkpt lat="59.787376718102" lon="17.605782223017">
        <ele>51.2</ele>
        <time>2017-10-14T16:39:31Z</time>
      </trkpt>
      <trkpt lat="59.787403791639" lon="17.605804435052">
        <ele>51.6</ele>
        <time>2017-10-14T16:39:32Z</time>
      </trkpt>
      <trkpt lat="59.787428182968" lon="17.605829329295">
        <ele>51.8</ele>
        <time>2017-10-14T16:39:33Z</time>
      </trkpt>
      <trkpt lat="59.787453412487" lon="17.605856821927">
        <ele>52</ele>
        <time>2017-10-14T16:39:34Z</time>
      </trkpt>
      <trkpt lat="59.787478139092" lon="17.605882386722">
        <ele>52.2</ele>
        <time>2017-10-14T16:39:35Z</time>
      </trkpt>
      <trkpt lat="59.787508062475" lon="17.605906610413">
        <ele>52.6</ele>
        <time>2017-10-14T16:39:36Z</time>
      </trkpt>
      <trkpt lat="59.787535052193" lon="17.605930834104">
        <ele>52.8</ele>
        <time>2017-10-14T16:39:37Z</time>
      </trkpt>
      <trkpt lat="59.787561371359" lon="17.605956147442">
        <ele>53</ele>
        <time>2017-10-14T16:39:38Z</time>
      </trkpt>
      <trkpt lat="59.787591210923" lon="17.605983891531">
        <ele>53</ele>
        <time>2017-10-14T16:39:39Z</time>
      </trkpt>
      <trkpt lat="59.787616775718" lon="17.606004511005">
        <ele>53.2</ele>
        <time>2017-10-14T16:39:40Z</time>
      </trkpt>
      <trkpt lat="59.787649968042" lon="17.606032338913">
        <ele>53.4</ele>
        <time>2017-10-14T16:39:41Z</time>
      </trkpt>
      <trkpt lat="59.78767444319" lon="17.606062262296">
        <ele>53.4</ele>
        <time>2017-10-14T16:39:42Z</time>
      </trkpt>
      <trkpt lat="59.787705288582" lon="17.606092772412">
        <ele>53.6</ele>
        <time>2017-10-14T16:39:43Z</time>
      </trkpt>
      <trkpt lat="59.787736636888" lon="17.606119678311">
        <ele>53.8</ele>
        <time>2017-10-14T16:39:44Z</time>
      </trkpt>
      <trkpt lat="59.787767817556" lon="17.606140968337">
        <ele>53.8</ele>
        <time>2017-10-14T16:39:45Z</time>
      </trkpt>
      <trkpt lat="59.787802350984" lon="17.606169131521">
        <ele>54</ele>
        <time>2017-10-14T16:39:46Z</time>
      </trkpt>
      <trkpt lat="59.78783621386" lon="17.606201150379">
        <ele>54</ele>
        <time>2017-10-14T16:39:47Z</time>
      </trkpt>
      <trkpt lat="59.787866221062" lon="17.606235516169">
        <ele>54.2</ele>
        <time>2017-10-14T16:39:48Z</time>
      </trkpt>
      <trkpt lat="59.787898659015" lon="17.606267032113">
        <ele>54.4</ele>
        <time>2017-10-14T16:39:49Z</time>
      </trkpt>
      <trkpt lat="59.787928750036" lon="17.606293099822">
        <ele>54.6</ele>
        <time>2017-10-14T16:39:50Z</time>
      </trkpt>
      <trkpt lat="59.787963534921" lon="17.60632428049">
        <ele>54.8</ele>
        <time>2017-10-14T16:39:51Z</time>
      </trkpt>
      <trkpt lat="59.787996811064" lon="17.606362250497">
        <ele>55</ele>
        <time>2017-10-14T16:39:52Z</time>
      </trkpt>
      <trkpt lat="59.788023884601" lon="17.60639133569">
        <ele>55</ele>
        <time>2017-10-14T16:39:53Z</time>
      </trkpt>
      <trkpt lat="59.788069901232" lon="17.606440034529">
        <ele>55.2</ele>
        <time>2017-10-14T16:39:54Z</time>
      </trkpt>
      <trkpt lat="59.788103261194" lon="17.6064743165">
        <ele>55.2</ele>
        <time>2017-10-14T16:39:55Z</time>
      </trkpt>
      <trkpt lat="59.788149445463" lon="17.606515555448">
        <ele>55.2</ele>
        <time>2017-10-14T16:39:56Z</time>
      </trkpt>
      <trkpt lat="59.788191522601" lon="17.606544975917">
        <ele>55.2</ele>
        <time>2017-10-14T16:39:57Z</time>
      </trkpt>
      <trkpt lat="59.788239215612" lon="17.606580598992">
        <ele>55.2</ele>
        <time>2017-10-14T16:39:58Z</time>
      </trkpt>
      <trkpt lat="59.788285316062" lon="17.606624268691">
        <ele>55</ele>
        <time>2017-10-14T16:39:59Z</time>
      </trkpt>
      <trkpt lat="59.788329153399" lon="17.606661484327">
        <ele>54.8</ele>
        <time>2017-10-14T16:40:00Z</time>
      </trkpt>
      <trkpt lat="59.788379947713" lon="17.606701046895">
        <ele>54.6</ele>
        <time>2017-10-14T16:40:01Z</time>
      </trkpt>
      <trkpt lat="59.788427976" lon="17.606733820124">
        <ele>54.4</ele>
        <time>2017-10-14T16:40:02Z</time>
      </trkpt>
      <trkpt lat="59.788457731745" lon="17.606750583924">
        <ele>54.4</ele>
        <time>2017-10-14T16:40:03Z</time>
      </trkpt>
      <trkpt lat="59.788524954583" lon="17.606789811216">
        <ele>54.2</ele>
        <time>2017-10-14T16:40:04Z</time>
      </trkpt>
      <trkpt lat="59.788570552119" lon="17.606820237513">
        <ele>54.2</ele>
        <time>2017-10-14T16:40:05Z</time>
      </trkpt>
      <trkpt lat="59.788620843519" lon="17.606853094561">
        <ele>54.2</ele>
        <time>2017-10-14T16:40:06Z</time>
      </trkpt>
      <trkpt lat="59.788666692512" lon="17.606880168098">
        <ele>54.2</ele>
        <time>2017-10-14T16:40:07Z</time>
      </trkpt>
      <trkpt lat="59.788712792962" lon="17.606900703753">
        <ele>54.2</ele>
        <time>2017-10-14T16:40:08Z</time>
      </trkpt>
      <trkpt lat="59.788757719946" lon="17.606921742322">
        <ele>54.4</ele>
        <time>2017-10-14T16:40:09Z</time>
      </trkpt>
      <trkpt lat="59.788798120704" lon="17.606942277977">
        <ele>54.6</ele>
        <time>2017-10-14T16:40:10Z</time>
      </trkpt>
      <trkpt lat="59.788851178131" lon="17.606964741469">
        <ele>54.8</ele>
        <time>2017-10-14T16:40:11Z</time>
      </trkpt>
      <trkpt lat="59.788897194762" lon="17.606981169993">
        <ele>55</ele>
        <time>2017-10-14T16:40:12Z</time>
      </trkpt>
      <trkpt lat="59.788941535013" lon="17.606994581033">
        <ele>55</ele>
        <time>2017-10-14T16:40:13Z</time>
      </trkpt>
      <trkpt lat="59.788985875264" lon="17.607009584634">
        <ele>55.2</ele>
        <time>2017-10-14T16:40:14Z</time>
      </trkpt>
      <trkpt lat="59.789026611298" lon="17.607021486932">
        <ele>55.2</ele>
        <time>2017-10-14T16:40:15Z</time>
      </trkpt>
      <trkpt lat="59.789077405612" lon="17.607039005103">
        <ele>55.4</ele>
        <time>2017-10-14T16:40:16Z</time>
      </trkpt>
      <trkpt lat="59.789124176614" lon="17.607052835238">
        <ele>55.4</ele>
        <time>2017-10-14T16:40:17Z</time>
      </trkpt>
      <trkpt lat="59.789167762494" lon="17.607061552414">
        <ele>55.6</ele>
        <time>2017-10-14T16:40:18Z</time>
      </trkpt>
      <trkpt lat="59.789212940935" lon="17.607067922658">
        <ele>55.8</ele>
        <time>2017-10-14T16:40:19Z</time>
      </trkpt>
      <trkpt lat="59.789250575666" lon="17.607076639834">
        <ele>55.8</ele>
        <time>2017-10-14T16:40:20Z</time>
      </trkpt>
      <trkpt lat="59.78928963532" lon="17.607079741137">
        <ele>56</ele>
        <time>2017-10-14T16:40:21Z</time>
      </trkpt>
      <trkpt lat="59.78932651568" lon="17.60708032787">
        <ele>56</ele>
        <time>2017-10-14T16:40:22Z</time>
      </trkpt>
      <trkpt lat="59.78936255785" lon="17.607080579327">
        <ele>56.2</ele>
        <time>2017-10-14T16:40:23Z</time>
      </trkpt>
      <trkpt lat="59.789396839821" lon="17.607084267363">
        <ele>56.4</ele>
        <time>2017-10-14T16:40:24Z</time>
      </trkpt>
      <trkpt lat="59.789425757376" lon="17.607088542132">
        <ele>56.6</ele>
        <time>2017-10-14T16:40:25Z</time>
      </trkpt>
      <trkpt lat="59.789462218641" lon="17.607089799417">
        <ele>56.8</ele>
        <time>2017-10-14T16:40:26Z</time>
      </trkpt>
      <trkpt lat="59.789493064033" lon="17.607089212684">
        <ele>57.2</ele>
        <time>2017-10-14T16:40:27Z</time>
      </trkpt>
      <trkpt lat="59.789526675452" lon="17.607084267363">
        <ele>57.4</ele>
        <time>2017-10-14T16:40:28Z</time>
      </trkpt>
      <trkpt lat="59.78956288526" lon="17.607081249879">
        <ele>57.8</ele>
        <time>2017-10-14T16:40:29Z</time>
      </trkpt>
      <trkpt lat="59.789596077584" lon="17.607068090296">
        <ele>58</ele>
        <time>2017-10-14T16:40:30Z</time>
      </trkpt>
      <trkpt lat="59.789634550505" lon="17.607052080867">
        <ele>58.2</ele>
        <time>2017-10-14T16:40:31Z</time>
      </trkpt>
      <trkpt lat="59.789675370358" lon="17.607032970135">
        <ele>58.6</ele>
        <time>2017-10-14T16:40:32Z</time>
      </trkpt>
      <trkpt lat="59.789713508003" lon="17.607013105032">
        <ele>58.8</ele>
        <time>2017-10-14T16:40:33Z</time>
      </trkpt>
      <trkpt lat="59.789758351168" lon="17.606989719531">
        <ele>58.8</ele>
        <time>2017-10-14T16:40:34Z</time>
      </trkpt>
      <trkpt lat="59.789801266496" lon="17.606964909107">
        <ele>58.6</ele>
        <time>2017-10-14T16:40:35Z</time>
      </trkpt>
      <trkpt lat="59.789851390258" lon="17.606938254665">
        <ele>58.6</ele>
        <time>2017-10-14T16:40:36Z</time>
      </trkpt>
      <trkpt lat="59.789900172916" lon="17.606914533888">
        <ele>58.4</ele>
        <time>2017-10-14T16:40:37Z</time>
      </trkpt>
      <trkpt lat="59.789950045221" lon="17.606888633817">
        <ele>58.2</ele>
        <time>2017-10-14T16:40:38Z</time>
      </trkpt>
      <trkpt lat="59.789998995517" lon="17.606863571936">
        <ele>57.8</ele>
        <time>2017-10-14T16:40:39Z</time>
      </trkpt>
      <trkpt lat="59.790041407931" lon="17.606841946634">
        <ele>57.8</ele>
        <time>2017-10-14T16:40:40Z</time>
      </trkpt>
      <trkpt lat="59.79010519419" lon="17.606808838129">
        <ele>57.4</ele>
        <time>2017-10-14T16:40:41Z</time>
      </trkpt>
      <trkpt lat="59.790162526386" lon="17.606780172031">
        <ele>57.2</ele>
        <time>2017-10-14T16:40:42Z</time>
      </trkpt>
      <trkpt lat="59.790223295161" lon="17.606750751562">
        <ele>57</ele>
        <time>2017-10-14T16:40:43Z</time>
      </trkpt>
      <trkpt lat="59.79028456685" lon="17.606717643057">
        <ele>56.8</ele>
        <time>2017-10-14T16:40:44Z</time>
      </trkpt>
      <trkpt lat="59.790338713924" lon="17.606687635855">
        <ele>56.6</ele>
        <time>2017-10-14T16:40:45Z</time>
      </trkpt>
      <trkpt lat="59.790404511839" lon="17.606652180418">
        <ele>56.4</ele>
        <time>2017-10-14T16:40:46Z</time>
      </trkpt>
      <trkpt lat="59.790467124632" lon="17.60661848518">
        <ele>56.2</ele>
        <time>2017-10-14T16:40:47Z</time>
      </trkpt>
      <trkpt lat="59.790525546475" lon="17.606587555969">
        <ele>56</ele>
        <time>2017-10-14T16:40:48Z</time>
      </trkpt>
      <trkpt lat="59.790580783196" lon="17.606560230975">
        <ele>55.8</ele>
        <time>2017-10-14T16:40:49Z</time>
      </trkpt>
      <trkpt lat="59.790630068768" lon="17.606533744171">
        <ele>55.8</ele>
        <time>2017-10-14T16:40:50Z</time>
      </trkpt>
      <trkpt lat="59.790679605797" lon="17.606501892951">
        <ele>55.6</ele>
        <time>2017-10-14T16:40:51Z</time>
      </trkpt>
      <trkpt lat="59.790724532781" lon="17.606475238509">
        <ele>55.6</ele>
        <time>2017-10-14T16:40:52Z</time>
      </trkpt>
      <trkpt lat="59.790765771729" lon="17.606445398945">
        <ele>55.8</ele>
        <time>2017-10-14T16:40:53Z</time>
      </trkpt>
      <trkpt lat="59.790803657917" lon="17.606421007616">
        <ele>56.2</ele>
        <time>2017-10-14T16:40:54Z</time>
      </trkpt>
      <trkpt lat="59.790833748938" lon="17.60639804121">
        <ele>56.8</ele>
        <time>2017-10-14T16:40:55Z</time>
      </trkpt>
      <trkpt lat="59.790870294022" lon="17.606362501954">
        <ele>57.6</ele>
        <time>2017-10-14T16:40:56Z</time>
      </trkpt>
      <trkpt lat="59.790902229061" lon="17.606331237467">
        <ele>58.4</ele>
        <time>2017-10-14T16:40:57Z</time>
      </trkpt>
      <trkpt lat="59.790937265403" lon="17.606305169758">
        <ele>59</ele>
        <time>2017-10-14T16:40:58Z</time>
      </trkpt>
      <trkpt lat="59.790971547374" lon="17.606276922755">
        <ele>59.4</ele>
        <time>2017-10-14T16:40:59Z</time>
      </trkpt>
      <trkpt lat="59.791003398594" lon="17.606252615245">
        <ele>59.6</ele>
        <time>2017-10-14T16:41:00Z</time>
      </trkpt>
      <trkpt lat="59.791039021669" lon="17.606223027138">
        <ele>60</ele>
        <time>2017-10-14T16:41:01Z</time>
      </trkpt>
      <trkpt lat="59.791071040527" lon="17.606194780135">
        <ele>60.2</ele>
        <time>2017-10-14T16:41:02Z</time>
      </trkpt>
      <trkpt lat="59.791102305014" lon="17.60616753896">
        <ele>60.4</ele>
        <time>2017-10-14T16:41:03Z</time>
      </trkpt>
      <trkpt lat="59.791133485682" lon="17.606141219794">
        <ele>60.4</ele>
        <time>2017-10-14T16:41:04Z</time>
      </trkpt>
      <trkpt lat="59.791162906151" lon="17.606116074094">
        <ele>60.6</ele>
        <time>2017-10-14T16:41:05Z</time>
      </trkpt>
      <trkpt lat="59.791195344104" lon="17.606094364973">
        <ele>60.8</ele>
        <time>2017-10-14T16:41:06Z</time>
      </trkpt>
      <trkpt lat="59.791224596935" lon="17.606074751327">
        <ele>61</ele>
        <time>2017-10-14T16:41:07Z</time>
      </trkpt>
      <trkpt lat="59.791256196698" lon="17.606057149337">
        <ele>61.2</ele>
        <time>2017-10-14T16:41:08Z</time>
      </trkpt>
      <trkpt lat="59.791283605511" lon="17.60603678132">
        <ele>61.4</ele>
        <time>2017-10-14T16:41:09Z</time>
      </trkpt>
      <trkpt lat="59.791307745383" lon="17.606015491294">
        <ele>61.6</ele>
        <time>2017-10-14T16:41:10Z</time>
      </trkpt>
      <trkpt lat="59.791336746757" lon="17.605986909015">
        <ele>61.8</ele>
        <time>2017-10-14T16:41:11Z</time>
      </trkpt>
      <trkpt lat="59.791365580493" lon="17.605958662012">
        <ele>62</ele>
        <time>2017-10-14T16:41:12Z</time>
      </trkpt>
      <trkpt lat="59.791395671514" lon="17.605933264855">
        <ele>62.2</ele>
        <time>2017-10-14T16:41:13Z</time>
      </trkpt>
      <trkpt lat="59.791428277105" lon="17.605909124983">
        <ele>62.6</ele>
        <time>2017-10-14T16:41:14Z</time>
      </trkpt>
      <trkpt lat="59.791458451945" lon="17.605883141093">
        <ele>62.8</ele>
        <time>2017-10-14T16:41:15Z</time>
      </trkpt>
      <trkpt lat="59.791494577934" lon="17.605850200226">
        <ele>63.2</ele>
        <time>2017-10-14T16:41:16Z</time>
      </trkpt>
      <trkpt lat="59.791533553769" lon="17.605817426997">
        <ele>63.4</ele>
        <time>2017-10-14T16:41:17Z</time>
      </trkpt>
      <trkpt lat="59.791571691414" lon="17.605791862202">
        <ele>63.8</ele>
        <time>2017-10-14T16:41:18Z</time>
      </trkpt>
      <trkpt lat="59.791612678905" lon="17.605765878312">
        <ele>63.8</ele>
        <time>2017-10-14T16:41:19Z</time>
      </trkpt>
      <trkpt lat="59.791652912025" lon="17.605741151707">
        <ele>64</ele>
        <time>2017-10-14T16:41:20Z</time>
      </trkpt>
      <trkpt lat="59.791699850665" lon="17.605713407618">
        <ele>63.8</ele>
        <time>2017-10-14T16:41:21Z</time>
      </trkpt>
      <trkpt lat="59.791748214228" lon="17.60568725609">
        <ele>63.8</ele>
        <time>2017-10-14T16:41:22Z</time>
      </trkpt>
      <trkpt lat="59.791805714062" lon="17.605666971892">
        <ele>63.6</ele>
        <time>2017-10-14T16:41:23Z</time>
      </trkpt>
      <trkpt lat="59.791860699326" lon="17.605641910011">
        <ele>63.4</ele>
        <time>2017-10-14T16:41:24Z</time>
      </trkpt>
      <trkpt lat="59.791911828916" lon="17.605619530338">
        <ele>63.2</ele>
        <time>2017-10-14T16:41:25Z</time>
      </trkpt>
      <trkpt lat="59.791981566324" lon="17.605589104041">
        <ele>63</ele>
        <time>2017-10-14T16:41:26Z</time>
      </trkpt>
      <trkpt lat="59.792047867153" lon="17.605560018848">
        <ele>62.8</ele>
        <time>2017-10-14T16:41:27Z</time>
      </trkpt>
      <trkpt lat="59.792114251801" lon="17.605531268931">
        <ele>62.4</ele>
        <time>2017-10-14T16:41:28Z</time>
      </trkpt>
      <trkpt lat="59.792190862367" lon="17.605501429367">
        <ele>62.2</ele>
        <time>2017-10-14T16:41:29Z</time>
      </trkpt>
      <trkpt lat="59.792265377458" lon="17.605471673622">
        <ele>61.8</ele>
        <time>2017-10-14T16:41:30Z</time>
      </trkpt>
      <trkpt lat="59.792346598069" lon="17.60543831366">
        <ele>61.4</ele>
        <time>2017-10-14T16:41:31Z</time>
      </trkpt>
      <trkpt lat="59.792427567223" lon="17.605392967581">
        <ele>60.8</ele>
        <time>2017-10-14T16:41:32Z</time>
      </trkpt>
      <trkpt lat="59.792500573572" lon="17.605332114987">
        <ele>60</ele>
        <time>2017-10-14T16:41:33Z</time>
      </trkpt>
      <trkpt lat="59.792562180537" lon="17.605258773362">
        <ele>59</ele>
        <time>2017-10-14T16:41:34Z</time>
      </trkpt>
      <trkpt lat="59.792609119177" lon="17.60516841648">
        <ele>58</ele>
        <time>2017-10-14T16:41:35Z</time>
      </trkpt>
      <trkpt lat="59.792651699229" lon="17.605068923327">
        <ele>57.2</ele>
        <time>2017-10-14T16:41:36Z</time>
      </trkpt>
      <trkpt lat="59.792689585417" lon="17.604987535078">
        <ele>56.8</ele>
        <time>2017-10-14T16:41:37Z</time>
      </trkpt>
      <trkpt lat="59.792725124673" lon="17.604907404114">
        <ele>57</ele>
        <time>2017-10-14T16:41:38Z</time>
      </trkpt>
      <trkpt lat="59.792758316997" lon="17.604835235955">
        <ele>57.8</ele>
        <time>2017-10-14T16:41:39Z</time>
      </trkpt>
      <trkpt lat="59.792785139077" lon="17.604759295941">
        <ele>58.2</ele>
        <time>2017-10-14T16:41:40Z</time>
      </trkpt>
      <trkpt lat="59.792814056632" lon="17.604664077557">
        <ele>58.8</ele>
        <time>2017-10-14T16:41:41Z</time>
      </trkpt>
      <trkpt lat="59.792838615599" lon="17.604584617145">
        <ele>59.4</ele>
        <time>2017-10-14T16:41:42Z</time>
      </trkpt>
      <trkpt lat="59.792869293353" lon="17.604512784262">
        <ele>59.6</ele>
        <time>2017-10-14T16:41:43Z</time>
      </trkpt>
      <trkpt lat="59.792906508989" lon="17.604451596392">
        <ele>60</ele>
        <time>2017-10-14T16:41:44Z</time>
      </trkpt>
      <trkpt lat="59.792945401005" lon="17.604394180377">
        <ele>60.2</ele>
        <time>2017-10-14T16:41:45Z</time>
      </trkpt>
      <trkpt lat="59.792996614414" lon="17.60433525562">
        <ele>60.4</ele>
        <time>2017-10-14T16:41:46Z</time>
      </trkpt>
      <trkpt lat="59.793050677669" lon="17.604290580093">
        <ele>60.8</ele>
        <time>2017-10-14T16:41:47Z</time>
      </trkpt>
      <trkpt lat="59.793109434788" lon="17.604256968674">
        <ele>60.8</ele>
        <time>2017-10-14T16:41:48Z</time>
      </trkpt>
      <trkpt lat="59.79317045502" lon="17.604242300349">
        <ele>60.8</ele>
        <time>2017-10-14T16:41:49Z</time>
      </trkpt>
      <trkpt lat="59.793227619578" lon="17.604244647281">
        <ele>60.8</ele>
        <time>2017-10-14T16:41:50Z</time>
      </trkpt>
      <trkpt lat="59.793292998398" lon="17.604249508783">
        <ele>60.6</ele>
        <time>2017-10-14T16:41:51Z</time>
      </trkpt>
      <trkpt lat="59.793354102449" lon="17.604258309778">
        <ele>60.4</ele>
        <time>2017-10-14T16:41:52Z</time>
      </trkpt>
      <trkpt lat="59.793419900364" lon="17.604266104945">
        <ele>60.2</ele>
        <time>2017-10-14T16:41:53Z</time>
      </trkpt>
      <trkpt lat="59.793475137085" lon="17.604269373886">
        <ele>60</ele>
        <time>2017-10-14T16:41:54Z</time>
      </trkpt>
      <trkpt lat="59.79352668577" lon="17.60426820042">
        <ele>59.6</ele>
        <time>2017-10-14T16:41:55Z</time>
      </trkpt>
      <trkpt lat="59.793590304391" lon="17.604267865144">
        <ele>59.6</ele>
        <time>2017-10-14T16:41:56Z</time>
      </trkpt>
      <trkpt lat="59.793644702922" lon="17.604265518212">
        <ele>59.6</ele>
        <time>2017-10-14T16:41:57Z</time>
      </trkpt>
      <trkpt lat="59.793697592711" lon="17.604258393597">
        <ele>59.8</ele>
        <time>2017-10-14T16:41:58Z</time>
      </trkpt>
      <trkpt lat="59.793748889939" lon="17.604255208475">
        <ele>60</ele>
        <time>2017-10-14T16:41:59Z</time>
      </trkpt>
      <trkpt lat="59.793790799439" lon="17.604255711389">
        <ele>60.4</ele>
        <time>2017-10-14T16:42:00Z</time>
      </trkpt>
      <trkpt lat="59.793836480794" lon="17.604268870972">
        <ele>60.6</ele>
        <time>2017-10-14T16:42:01Z</time>
      </trkpt>
      <trkpt lat="59.793878390294" lon="17.60427742051">
        <ele>61</ele>
        <time>2017-10-14T16:42:02Z</time>
      </trkpt>
      <trkpt lat="59.793918623414" lon="17.604283623116">
        <ele>61.4</ele>
        <time>2017-10-14T16:42:03Z</time>
      </trkpt>
      <trkpt lat="59.793957599249" lon="17.604286137686">
        <ele>61.6</ele>
        <time>2017-10-14T16:42:04Z</time>
      </trkpt>
      <trkpt lat="59.793995569256" lon="17.604280689451">
        <ele>61.8</ele>
        <time>2017-10-14T16:42:05Z</time>
      </trkpt>
      <trkpt lat="59.794036724385" lon="17.604274319207">
        <ele>62.2</ele>
        <time>2017-10-14T16:42:06Z</time>
      </trkpt>
      <trkpt lat="59.794070168166" lon="17.604273313379">
        <ele>62.2</ele>
        <time>2017-10-14T16:42:07Z</time>
      </trkpt>
      <trkpt lat="59.794107886716" lon="17.60425646576">
        <ele>62.4</ele>
        <time>2017-10-14T16:42:08Z</time>
      </trkpt>
      <trkpt lat="59.794148036017" lon="17.604237019752">
        <ele>62.4</ele>
        <time>2017-10-14T16:42:09Z</time>
      </trkpt>
      <trkpt lat="59.794184245825" lon="17.604218914848">
        <ele>62.6</ele>
        <time>2017-10-14T16:42:10Z</time>
      </trkpt>
      <trkpt lat="59.794228669895" lon="17.604193769148">
        <ele>62.8</ele>
        <time>2017-10-14T16:42:11Z</time>
      </trkpt>
      <trkpt lat="59.794266304626" lon="17.604154374218">
        <ele>63</ele>
        <time>2017-10-14T16:42:12Z</time>
      </trkpt>
      <trkpt lat="59.79430117333" lon="17.604117745315">
        <ele>63</ele>
        <time>2017-10-14T16:42:13Z</time>
      </trkpt>
      <trkpt lat="59.794339394794" lon="17.604086145552">
        <ele>63.2</ele>
        <time>2017-10-14T16:42:14Z</time>
      </trkpt>
      <trkpt lat="59.794364959589" lon="17.604064101155">
        <ele>63.4</ele>
        <time>2017-10-14T16:42:15Z</time>
      </trkpt>
      <trkpt lat="59.794395721162" lon="17.604049768106">
        <ele>63.6</ele>
        <time>2017-10-14T16:42:16Z</time>
      </trkpt>
      <trkpt lat="59.794424806355" lon="17.604061586585">
        <ele>64</ele>
        <time>2017-10-14T16:42:17Z</time>
      </trkpt>
      <trkpt lat="59.794453304815" lon="17.604101819705">
        <ele>64.2</ele>
        <time>2017-10-14T16:42:18Z</time>
      </trkpt>
      <trkpt lat="59.794487838243" lon="17.60413995735">
        <ele>64.8</ele>
        <time>2017-10-14T16:42:19Z</time>
      </trkpt>
      <trkpt lat="59.794517677807" lon="17.604200977582">
        <ele>65</ele>
        <time>2017-10-14T16:42:20Z</time>
      </trkpt>
      <trkpt lat="59.794546260086" lon="17.604262752185">
        <ele>65</ele>
        <time>2017-10-14T16:42:21Z</time>
      </trkpt>
      <trkpt lat="59.794570735234" lon="17.604313714137">
        <ele>65</ele>
        <time>2017-10-14T16:42:22Z</time>
      </trkpt>
      <trkpt lat="59.794601580626" lon="17.60437548874">
        <ele>64.6</ele>
        <time>2017-10-14T16:42:23Z</time>
      </trkpt>
      <trkpt lat="59.794629576172" lon="17.604444304139">
        <ele>64.2</ele>
        <time>2017-10-14T16:42:24Z</time>
      </trkpt>
      <trkpt lat="59.7946557277" lon="17.604485375449">
        <ele>63.8</ele>
        <time>2017-10-14T16:42:25Z</time>
      </trkpt>
      <trkpt lat="59.794685315807" lon="17.604533236098">
        <ele>63.6</ele>
        <time>2017-10-14T16:42:26Z</time>
      </trkpt>
      <trkpt lat="59.794708952765" lon="17.604564668223">
        <ele>63.2</ele>
        <time>2017-10-14T16:42:27Z</time>
      </trkpt>
      <trkpt lat="59.794730494248" lon="17.604582856946">
        <ele>62.8</ele>
        <time>2017-10-14T16:42:28Z</time>
      </trkpt>
      <trkpt lat="59.794753376835" lon="17.604597106176">
        <ele>62.6</ele>
        <time>2017-10-14T16:42:29Z</time>
      </trkpt>
      <trkpt lat="59.794775169775" lon="17.604614037614">
        <ele>62.4</ele>
        <time>2017-10-14T16:42:30Z</time>
      </trkpt>
      <trkpt lat="59.794800986027" lon="17.604634657088">
        <ele>62.2</ele>
        <time>2017-10-14T16:42:31Z</time>
      </trkpt>
      <trkpt lat="59.794828227202" lon="17.604631807242">
        <ele>62.2</ele>
        <time>2017-10-14T16:42:32Z</time>
      </trkpt>
      <trkpt lat="59.79485354054" lon="17.604620491677">
        <ele>62</ele>
        <time>2017-10-14T16:42:33Z</time>
      </trkpt>
      <trkpt lat="59.794875165842" lon="17.604598028185">
        <ele>61.8</ele>
        <time>2017-10-14T16:42:34Z</time>
      </trkpt>
      <trkpt lat="59.794904418673" lon="17.604575480874">
        <ele>61.6</ele>
        <time>2017-10-14T16:42:35Z</time>
      </trkpt>
      <trkpt lat="59.794931156934" lon="17.604571038467">
        <ele>61.6</ele>
        <time>2017-10-14T16:42:36Z</time>
      </trkpt>
      <trkpt lat="59.794984381999" lon="17.604588137543">
        <ele>61.4</ele>
        <time>2017-10-14T16:42:37Z</time>
      </trkpt>
      <trkpt lat="59.795030817725" lon="17.604593921054">
        <ele>61.2</ele>
        <time>2017-10-14T16:42:38Z</time>
      </trkpt>
      <trkpt lat="59.795077169632" lon="17.604605571895">
        <ele>60.8</ele>
        <time>2017-10-14T16:42:39Z</time>
      </trkpt>
      <trkpt lat="59.795136681122" lon="17.60461102013">
        <ele>60.4</ele>
        <time>2017-10-14T16:42:40Z</time>
      </trkpt>
      <trkpt lat="59.795197114621" lon="17.604636333468">
        <ele>59.8</ele>
        <time>2017-10-14T16:42:41Z</time>
      </trkpt>
      <trkpt lat="59.795255368826" lon="17.604634657088">
        <ele>59</ele>
        <time>2017-10-14T16:42:42Z</time>
      </trkpt>
      <trkpt lat="59.795307336606" lon="17.604631807242">
        <ele>58.4</ele>
        <time>2017-10-14T16:42:43Z</time>
      </trkpt>
      <trkpt lat="59.795347318269" lon="17.604634908545">
        <ele>58</ele>
        <time>2017-10-14T16:42:44Z</time>
      </trkpt>
      <trkpt lat="59.795383108982" lon="17.60464957687">
        <ele>58</ele>
        <time>2017-10-14T16:42:45Z</time>
      </trkpt>
      <trkpt lat="59.795415044021" lon="17.604652761992">
        <ele>58</ele>
        <time>2017-10-14T16:42:46Z</time>
      </trkpt>
      <trkpt lat="59.795449912725" lon="17.604661562987">
        <ele>58.2</ele>
        <time>2017-10-14T16:42:47Z</time>
      </trkpt>
      <trkpt lat="59.79549140313" lon="17.604659216055">
        <ele>58.4</ele>
        <time>2017-10-14T16:42:48Z</time>
      </trkpt>
      <trkpt lat="59.795527612938" lon="17.60466214972">
        <ele>58.6</ele>
        <time>2017-10-14T16:42:49Z</time>
      </trkpt>
      <trkpt lat="59.79556684023" lon="17.604666089213">
        <ele>58.8</ele>
        <time>2017-10-14T16:42:50Z</time>
      </trkpt>
      <trkpt lat="59.795609671739" lon="17.604675476941">
        <ele>58.8</ele>
        <time>2017-10-14T16:42:51Z</time>
      </trkpt>
      <trkpt lat="59.795655520732" lon="17.604675057846">
        <ele>58.8</ele>
        <time>2017-10-14T16:42:52Z</time>
      </trkpt>
      <trkpt lat="59.795703884295" lon="17.60465460601">
        <ele>59</ele>
        <time>2017-10-14T16:42:53Z</time>
      </trkpt>
      <trkpt lat="59.795743614501" lon="17.60462610755">
        <ele>59</ele>
        <time>2017-10-14T16:42:54Z</time>
      </trkpt>
      <trkpt lat="59.795776639187" lon="17.604593166683">
        <ele>59</ele>
        <time>2017-10-14T16:42:55Z</time>
      </trkpt>
      <trkpt lat="59.795821733809" lon="17.604545389853">
        <ele>59.2</ele>
        <time>2017-10-14T16:42:56Z</time>
      </trkpt>
      <trkpt lat="59.795859955273" lon="17.604521669076">
        <ele>59.4</ele>
        <time>2017-10-14T16:42:57Z</time>
      </trkpt>
      <trkpt lat="59.795897254728" lon="17.604522591085">
        <ele>59.6</ele>
        <time>2017-10-14T16:42:58Z</time>
      </trkpt>
      <trkpt lat="59.795937487848" lon="17.60451965742">
        <ele>59.8</ele>
        <time>2017-10-14T16:42:59Z</time>
      </trkpt>
      <trkpt lat="59.795966740679" lon="17.604534325745">
        <ele>60.2</ele>
        <time>2017-10-14T16:43:00Z</time>
      </trkpt>
      <trkpt lat="59.796006135609" lon="17.604556034866">
        <ele>60.8</ele>
        <time>2017-10-14T16:43:01Z</time>
      </trkpt>
      <trkpt lat="59.796041171951" lon="17.604573553037">
        <ele>61</ele>
        <time>2017-10-14T16:43:02Z</time>
      </trkpt>
      <trkpt lat="59.796072101162" lon="17.604561064006">
        <ele>61.4</ele>
        <time>2017-10-14T16:43:03Z</time>
      </trkpt>
      <trkpt lat="59.796104874391" lon="17.604551257183">
        <ele>61.6</ele>
        <time>2017-10-14T16:43:04Z</time>
      </trkpt>
      <trkpt lat="59.796162458044" lon="17.604537929962">
        <ele>61.8</ele>
        <time>2017-10-14T16:43:05Z</time>
      </trkpt>
      <trkpt lat="59.796215850747" lon="17.604520998524">
        <ele>61.8</ele>
        <time>2017-10-14T16:43:06Z</time>
      </trkpt>
      <trkpt lat="59.796255916229" lon="17.604506581656">
        <ele>61.8</ele>
        <time>2017-10-14T16:43:07Z</time>
      </trkpt>
      <trkpt lat="59.796305704715" lon="17.604478837567">
        <ele>61.8</ele>
        <time>2017-10-14T16:43:08Z</time>
      </trkpt>
      <trkpt lat="59.796362450178" lon="17.604437263343">
        <ele>61.6</ele>
        <time>2017-10-14T16:43:09Z</time>
      </trkpt>
      <trkpt lat="59.796407209524" lon="17.604399209517">
        <ele>61.6</ele>
        <time>2017-10-14T16:43:10Z</time>
      </trkpt>
      <trkpt lat="59.796462781521" lon="17.60433777019">
        <ele>61.8</ele>
        <time>2017-10-14T16:43:11Z</time>
      </trkpt>
      <trkpt lat="59.796508630514" lon="17.60429334612">
        <ele>61.8</ele>
        <time>2017-10-14T16:43:12Z</time>
      </trkpt>
      <trkpt lat="59.796550204738" lon="17.604260489072">
        <ele>61.6</ele>
        <time>2017-10-14T16:43:13Z</time>
      </trkpt>
      <trkpt lat="59.796592198057" lon="17.604236516838">
        <ele>61.6</ele>
        <time>2017-10-14T16:43:14Z</time>
      </trkpt>
      <trkpt lat="59.796635783937" lon="17.604236265381">
        <ele>61.6</ele>
        <time>2017-10-14T16:43:15Z</time>
      </trkpt>
      <trkpt lat="59.796694708694" lon="17.604226458558">
        <ele>61.4</ele>
        <time>2017-10-14T16:43:16Z</time>
      </trkpt>
      <trkpt lat="59.79675371727" lon="17.604216903192">
        <ele>61.4</ele>
        <time>2017-10-14T16:43:17Z</time>
      </trkpt>
      <trkpt lat="59.796810630371" lon="17.60421371807">
        <ele>61.2</ele>
        <time>2017-10-14T16:43:18Z</time>
      </trkpt>
      <trkpt lat="59.796867208196" lon="17.604211622595">
        <ele>61</ele>
        <time>2017-10-14T16:43:19Z</time>
      </trkpt>
      <trkpt lat="59.796916745225" lon="17.604219333943">
        <ele>60.8</ele>
        <time>2017-10-14T16:43:20Z</time>
      </trkpt>
      <trkpt lat="59.796970137928" lon="17.604228470214">
        <ele>60.8</ele>
        <time>2017-10-14T16:43:21Z</time>
      </trkpt>
      <trkpt lat="59.797018166215" lon="17.604229476042">
        <ele>60.6</ele>
        <time>2017-10-14T16:43:22Z</time>
      </trkpt>
      <trkpt lat="59.797066781235" lon="17.604248670593">
        <ele>60.4</ele>
        <time>2017-10-14T16:43:23Z</time>
      </trkpt>
      <trkpt lat="59.797107852545" lon="17.604294351948">
        <ele>60.2</ele>
        <time>2017-10-14T16:43:24Z</time>
      </trkpt>
      <trkpt lat="59.797152276615" lon="17.604317402173">
        <ele>60</ele>
        <time>2017-10-14T16:43:25Z</time>
      </trkpt>
      <trkpt lat="59.797197538875" lon="17.604348918117">
        <ele>59.6</ele>
        <time>2017-10-14T16:43:26Z</time>
      </trkpt>
      <trkpt lat="59.797232072303" lon="17.604399460974">
        <ele>59.4</ele>
        <time>2017-10-14T16:43:27Z</time>
      </trkpt>
      <trkpt lat="59.79724992575" lon="17.604455619704">
        <ele>59.2</ele>
        <time>2017-10-14T16:43:28Z</time>
      </trkpt>
      <trkpt lat="59.797267192464" lon="17.604546060405">
        <ele>58.8</ele>
        <time>2017-10-14T16:43:29Z</time>
      </trkpt>
      <trkpt lat="59.797279513857" lon="17.604623509161">
        <ele>58.6</ele>
        <time>2017-10-14T16:43:30Z</time>
      </trkpt>
      <trkpt lat="59.797292924897" lon="17.604704729772">
        <ele>58.4</ele>
        <time>2017-10-14T16:43:31Z</time>
      </trkpt>
      <trkpt lat="59.797311700353" lon="17.604782597623">
        <ele>58</ele>
        <time>2017-10-14T16:43:32Z</time>
      </trkpt>
      <trkpt lat="59.797322932099" lon="17.604851664479">
        <ele>57.4</ele>
        <time>2017-10-14T16:43:33Z</time>
      </trkpt>
      <trkpt lat="59.797338522433" lon="17.604916708023">
        <ele>56.8</ele>
        <time>2017-10-14T16:43:34Z</time>
      </trkpt>
      <trkpt lat="59.797360063916" lon="17.604979488454">
        <ele>56.6</ele>
        <time>2017-10-14T16:43:35Z</time>
      </trkpt>
      <trkpt lat="59.797389400566" lon="17.605064397101">
        <ele>56</ele>
        <time>2017-10-14T16:43:36Z</time>
      </trkpt>
      <trkpt lat="59.797423850175" lon="17.605129189188">
        <ele>55.8</ele>
        <time>2017-10-14T16:43:37Z</time>
      </trkpt>
      <trkpt lat="59.797459221793" lon="17.605160369856">
        <ele>55.4</ele>
        <time>2017-10-14T16:43:38Z</time>
      </trkpt>
      <trkpt lat="59.79749635361" lon="17.605163722616">
        <ele>55</ele>
        <time>2017-10-14T16:43:39Z</time>
      </trkpt>
      <trkpt lat="59.797521415491" lon="17.60515081449">
        <ele>54.8</ele>
        <time>2017-10-14T16:43:40Z</time>
      </trkpt>
      <trkpt lat="59.797555278367" lon="17.605130362654">
        <ele>54.6</ele>
        <time>2017-10-14T16:43:41Z</time>
      </trkpt>
      <trkpt lat="59.797575814022" lon="17.605100103995">
        <ele>54.4</ele>
        <time>2017-10-14T16:43:42Z</time>
      </trkpt>
      <trkpt lat="59.797591991089" lon="17.605073533372">
        <ele>54.2</ele>
        <time>2017-10-14T16:43:43Z</time>
      </trkpt>
      <trkpt lat="59.797613867848" lon="17.605042185066">
        <ele>54.2</ele>
        <time>2017-10-14T16:43:44Z</time>
      </trkpt>
      <trkpt lat="59.797635660788" lon="17.605016368814">
        <ele>54.6</ele>
        <time>2017-10-14T16:43:45Z</time>
      </trkpt>
      <trkpt lat="59.797659633022" lon="17.604979907549">
        <ele>55</ele>
        <time>2017-10-14T16:43:46Z</time>
      </trkpt>
      <trkpt lat="59.797672708786" lon="17.604927688312">
        <ele>55.6</ele>
        <time>2017-10-14T16:43:47Z</time>
      </trkpt>
      <trkpt lat="59.797699447047" lon="17.604896088549">
        <ele>56</ele>
        <time>2017-10-14T16:43:48Z</time>
      </trkpt>
      <trkpt lat="59.797715791752" lon="17.604843701674">
        <ele>56.2</ele>
        <time>2017-10-14T16:43:49Z</time>
      </trkpt>
      <trkpt lat="59.797735824493" lon="17.604809754979">
        <ele>56.4</ele>
        <time>2017-10-14T16:43:50Z</time>
      </trkpt>
      <trkpt lat="59.797753929397" lon="17.604754518258">
        <ele>56.4</ele>
        <time>2017-10-14T16:43:51Z</time>
      </trkpt>
      <trkpt lat="59.797776728165" lon="17.604709255998">
        <ele>56.4</ele>
        <time>2017-10-14T16:43:52Z</time>
      </trkpt>
      <trkpt lat="59.79780229296" lon="17.604665670118">
        <ele>56.4</ele>
        <time>2017-10-14T16:43:53Z</time>
      </trkpt>
      <trkpt lat="59.79782995323" lon="17.604644212454">
        <ele>56.6</ele>
        <time>2017-10-14T16:43:54Z</time>
      </trkpt>
      <trkpt lat="59.797857278224" lon="17.604628873577">
        <ele>56.8</ele>
        <time>2017-10-14T16:43:55Z</time>
      </trkpt>
      <trkpt lat="59.797884854675" lon="17.604574810322">
        <ele>57</ele>
        <time>2017-10-14T16:43:56Z</time>
      </trkpt>
      <trkpt lat="59.79791293404" lon="17.604524602741">
        <ele>57.4</ele>
        <time>2017-10-14T16:43:57Z</time>
      </trkpt>
      <trkpt lat="59.797945539631" lon="17.604471126219">
        <ele>57.4</ele>
        <time>2017-10-14T16:43:58Z</time>
      </trkpt>
      <trkpt lat="59.797982000896" lon="17.604424690493">
        <ele>57.6</ele>
        <time>2017-10-14T16:43:59Z</time>
      </trkpt>
      <trkpt lat="59.798017959247" lon="17.604385127925">
        <ele>57.6</ele>
        <time>2017-10-14T16:44:00Z</time>
      </trkpt>
      <trkpt lat="59.79805794091" lon="17.604335423258">
        <ele>57.8</ele>
        <time>2017-10-14T16:44:01Z</time>
      </trkpt>
      <trkpt lat="59.798095156546" lon="17.604293597577">
        <ele>57.8</ele>
        <time>2017-10-14T16:44:02Z</time>
      </trkpt>
      <trkpt lat="59.798127343042" lon="17.604253196819">
        <ele>57.8</ele>
        <time>2017-10-14T16:44:03Z</time>
      </trkpt>
      <trkpt lat="59.798161960289" lon="17.604217489925">
        <ele>58</ele>
        <time>2017-10-14T16:44:04Z</time>
      </trkpt>
      <trkpt lat="59.798193811509" lon="17.604189494379">
        <ele>58</ele>
        <time>2017-10-14T16:44:05Z</time>
      </trkpt>
      <trkpt lat="59.798221807055" lon="17.604174742235">
        <ele>58.2</ele>
        <time>2017-10-14T16:44:06Z</time>
      </trkpt>
      <trkpt lat="59.798257597768" lon="17.604163594308">
        <ele>58.4</ele>
        <time>2017-10-14T16:44:07Z</time>
      </trkpt>
      <trkpt lat="59.798307134797" lon="17.604136520771">
        <ele>58.4</ele>
        <time>2017-10-14T16:44:08Z</time>
      </trkpt>
      <trkpt lat="59.7983521456" lon="17.604093521624">
        <ele>58.6</ele>
        <time>2017-10-14T16:44:09Z</time>
      </trkpt>
      <trkpt lat="59.798386427571" lon="17.604040883292">
        <ele>58.6</ele>
        <time>2017-10-14T16:44:10Z</time>
      </trkpt>
      <trkpt lat="59.798411405633" lon="17.603955304093">
        <ele>58.6</ele>
        <time>2017-10-14T16:44:11Z</time>
      </trkpt>
      <trkpt lat="59.798438227713" lon="17.60388766216">
        <ele>58.6</ele>
        <time>2017-10-14T16:44:12Z</time>
      </trkpt>
      <trkpt lat="59.798478963747" lon="17.603850446524">
        <ele>58.8</ele>
        <time>2017-10-14T16:44:13Z</time>
      </trkpt>
      <trkpt lat="59.798511820795" lon="17.603826558109">
        <ele>59</ele>
        <time>2017-10-14T16:44:14Z</time>
      </trkpt>
      <trkpt lat="59.798540654531" lon="17.603806609187">
        <ele>59</ele>
        <time>2017-10-14T16:44:15Z</time>
      </trkpt>
      <trkpt lat="59.798576193787" lon="17.603779787107">
        <ele>59.2</ele>
        <time>2017-10-14T16:44:16Z</time>
      </trkpt>
      <trkpt lat="59.798612906509" lon="17.603751707742">
        <ele>59.4</ele>
        <time>2017-10-14T16:44:17Z</time>
      </trkpt>
      <trkpt lat="59.798656743846" lon="17.603724969481">
        <ele>59.6</ele>
        <time>2017-10-14T16:44:18Z</time>
      </trkpt>
      <trkpt lat="59.798704436857" lon="17.603695549012">
        <ele>59.8</ele>
        <time>2017-10-14T16:44:19Z</time>
      </trkpt>
      <trkpt lat="59.798753973886" lon="17.603666631457">
        <ele>60</ele>
        <time>2017-10-14T16:44:20Z</time>
      </trkpt>
      <trkpt lat="59.79881566467" lon="17.603646011983">
        <ele>60</ele>
        <time>2017-10-14T16:44:21Z</time>
      </trkpt>
      <trkpt lat="59.798866123708" lon="17.603620866283">
        <ele>59.8</ele>
        <time>2017-10-14T16:44:22Z</time>
      </trkpt>
      <trkpt lat="59.798920354601" lon="17.603596726411">
        <ele>59.6</ele>
        <time>2017-10-14T16:44:23Z</time>
      </trkpt>
      <trkpt lat="59.798981207195" lon="17.603530425582">
        <ele>59.2</ele>
        <time>2017-10-14T16:44:24Z</time>
      </trkpt>
      <trkpt lat="59.799033761708" lon="17.603475356499">
        <ele>58.6</ele>
        <time>2017-10-14T16:44:25Z</time>
      </trkpt>
      <trkpt lat="59.79909226737" lon="17.603416347923">
        <ele>57.8</ele>
        <time>2017-10-14T16:44:26Z</time>
      </trkpt>
      <trkpt lat="59.799139373648" lon="17.603376282441">
        <ele>57.2</ele>
        <time>2017-10-14T16:44:27Z</time>
      </trkpt>
      <trkpt lat="59.799191676704" lon="17.60334200047">
        <ele>56.6</ele>
        <time>2017-10-14T16:44:28Z</time>
      </trkpt>
      <trkpt lat="59.799249092719" lon="17.603298833685">
        <ele>56.4</ele>
        <time>2017-10-14T16:44:29Z</time>
      </trkpt>
      <trkpt lat="59.799297540101" lon="17.603258935841">
        <ele>56.4</ele>
        <time>2017-10-14T16:44:30Z</time>
      </trkpt>
      <trkpt lat="59.799354704659" lon="17.603227419897">
        <ele>56.6</ele>
        <time>2017-10-14T16:44:31Z</time>
      </trkpt>
      <trkpt lat="59.799405079878" lon="17.603201016912">
        <ele>56.8</ele>
        <time>2017-10-14T16:44:32Z</time>
      </trkpt>
      <trkpt lat="59.799457550572" lon="17.60317520066">
        <ele>56.8</ele>
        <time>2017-10-14T16:44:33Z</time>
      </trkpt>
      <trkpt lat="59.799503148108" lon="17.603150474055">
        <ele>57</ele>
        <time>2017-10-14T16:44:34Z</time>
      </trkpt>
      <trkpt lat="59.799543381228" lon="17.603128094382">
        <ele>57</ele>
        <time>2017-10-14T16:44:35Z</time>
      </trkpt>
      <trkpt lat="59.799580177769" lon="17.603107139632">
        <ele>57.2</ele>
        <time>2017-10-14T16:44:36Z</time>
      </trkpt>
      <trkpt lat="59.799611023161" lon="17.603075539869">
        <ele>57.4</ele>
        <time>2017-10-14T16:44:37Z</time>
      </trkpt>
      <trkpt lat="59.799642371467" lon="17.603039078604">
        <ele>57.6</ele>
        <time>2017-10-14T16:44:38Z</time>
      </trkpt>
      <trkpt lat="59.799676821076" lon="17.60300001895">
        <ele>57.6</ele>
        <time>2017-10-14T16:44:39Z</time>
      </trkpt>
      <trkpt lat="59.799703056423" lon="17.602957857993">
        <ele>58</ele>
        <time>2017-10-14T16:44:40Z</time>
      </trkpt>
      <trkpt lat="59.79974018824" lon="17.602905219661">
        <ele>58</ele>
        <time>2017-10-14T16:44:41Z</time>
      </trkpt>
      <trkpt lat="59.799777403876" lon="17.602857275193">
        <ele>58.2</ele>
        <time>2017-10-14T16:44:42Z</time>
      </trkpt>
      <trkpt lat="59.799804477413" lon="17.602816958254">
        <ele>58.4</ele>
        <time>2017-10-14T16:44:43Z</time>
      </trkpt>
      <trkpt lat="59.799832892054" lon="17.60277286946">
        <ele>58.6</ele>
        <time>2017-10-14T16:44:44Z</time>
      </trkpt>
      <trkpt lat="59.799849320578" lon="17.602715704902">
        <ele>58.8</ele>
        <time>2017-10-14T16:44:45Z</time>
      </trkpt>
      <trkpt lat="59.799864156541" lon="17.602653678842">
        <ele>59.2</ele>
        <time>2017-10-14T16:44:46Z</time>
      </trkpt>
      <trkpt lat="59.79987346045" lon="17.602602130157">
        <ele>59.6</ele>
        <time>2017-10-14T16:44:47Z</time>
      </trkpt>
      <trkpt lat="59.799881758531" lon="17.602570111299">
        <ele>60.2</ele>
        <time>2017-10-14T16:44:48Z</time>
      </trkpt>
      <trkpt lat="59.799888380232" lon="17.602519065528">
        <ele>60.8</ele>
        <time>2017-10-14T16:44:49Z</time>
      </trkpt>
      <trkpt lat="59.799895504847" lon="17.602476736933">
        <ele>61.4</ele>
        <time>2017-10-14T16:44:50Z</time>
      </trkpt>
      <trkpt lat="59.799904557299" lon="17.602423008954">
        <ele>62</ele>
        <time>2017-10-14T16:44:51Z</time>
      </trkpt>
      <trkpt lat="59.799917465425" lon="17.602379339255">
        <ele>62.4</ele>
        <time>2017-10-14T16:44:52Z</time>
      </trkpt>
      <trkpt lat="59.799928110438" lon="17.602339692868">
        <ele>62.8</ele>
        <time>2017-10-14T16:44:53Z</time>
      </trkpt>
      <trkpt lat="59.799949065188" lon="17.602297783368">
        <ele>63</ele>
        <time>2017-10-14T16:44:54Z</time>
      </trkpt>
      <trkpt lat="59.799964320246" lon="17.602260986827">
        <ele>63.2</ele>
        <time>2017-10-14T16:44:55Z</time>
      </trkpt>
      <trkpt lat="59.79998074877" lon="17.602232739824">
        <ele>63.4</ele>
        <time>2017-10-14T16:44:56Z</time>
      </trkpt>
      <trkpt lat="59.799992902525" lon="17.602214802558">
        <ele>63.8</ele>
        <time>2017-10-14T16:44:57Z</time>
      </trkpt>
      <trkpt lat="59.800005307737" lon="17.602194937455">
        <ele>64</ele>
        <time>2017-10-14T16:44:58Z</time>
      </trkpt>
      <trkpt lat="59.800024418469" lon="17.602162834778">
        <ele>64.2</ele>
        <time>2017-10-14T16:44:59Z</time>
      </trkpt>
      <trkpt lat="59.800043026287" lon="17.60213165411">
        <ele>64.4</ele>
        <time>2017-10-14T16:45:00Z</time>
      </trkpt>
      <trkpt lat="59.80006540596" lon="17.602103407107">
        <ele>64.6</ele>
        <time>2017-10-14T16:45:01Z</time>
      </trkpt>
      <trkpt lat="59.800086528348" lon="17.602077926131">
        <ele>64.8</ele>
        <time>2017-10-14T16:45:02Z</time>
      </trkpt>
      <trkpt lat="59.800106225813" lon="17.602045404359">
        <ele>65</ele>
        <time>2017-10-14T16:45:03Z</time>
      </trkpt>
      <trkpt lat="59.800123827803" lon="17.60201179294">
        <ele>65.2</ele>
        <time>2017-10-14T16:45:04Z</time>
      </trkpt>
      <trkpt lat="59.800138747585" lon="17.601972314191">
        <ele>65.4</ele>
        <time>2017-10-14T16:45:05Z</time>
      </trkpt>
      <trkpt lat="59.80015006315" lon="17.601938451315">
        <ele>65.4</ele>
        <time>2017-10-14T16:45:06Z</time>
      </trkpt>
      <trkpt lat="59.800159869973" lon="17.601901738593">
        <ele>65.6</ele>
        <time>2017-10-14T16:45:07Z</time>
      </trkpt>
      <trkpt lat="59.800172023728" lon="17.601862092206">
        <ele>66</ele>
        <time>2017-10-14T16:45:08Z</time>
      </trkpt>
      <trkpt lat="59.800180657085" lon="17.601828816063">
        <ele>66.4</ele>
        <time>2017-10-14T16:45:09Z</time>
      </trkpt>
      <trkpt lat="59.800194822496" lon="17.601801826345">
        <ele>66.8</ele>
        <time>2017-10-14T16:45:10Z</time>
      </trkpt>
      <trkpt lat="59.800212256848" lon="17.601780536319">
        <ele>67.2</ele>
        <time>2017-10-14T16:45:11Z</time>
      </trkpt>
      <trkpt lat="59.800228433915" lon="17.601757486094">
        <ele>67.8</ele>
        <time>2017-10-14T16:45:12Z</time>
      </trkpt>
      <trkpt lat="59.800246706457" lon="17.601730831652">
        <ele>68.2</ele>
        <time>2017-10-14T16:45:13Z</time>
      </trkpt>
      <trkpt lat="59.800261961515" lon="17.601704763943">
        <ele>68.4</ele>
        <time>2017-10-14T16:45:14Z</time>
      </trkpt>
      <trkpt lat="59.800281826618" lon="17.601679199148">
        <ele>68.6</ele>
        <time>2017-10-14T16:45:15Z</time>
      </trkpt>
      <trkpt lat="59.800301524083" lon="17.601654724">
        <ele>68.8</ele>
        <time>2017-10-14T16:45:16Z</time>
      </trkpt>
      <trkpt lat="59.800322478833" lon="17.60161784364">
        <ele>69</ele>
        <time>2017-10-14T16:45:17Z</time>
      </trkpt>
      <trkpt lat="59.80035374332" lon="17.601597307985">
        <ele>69</ele>
        <time>2017-10-14T16:45:18Z</time>
      </trkpt>
      <trkpt lat="59.800374195156" lon="17.601546094576">
        <ele>68.8</ele>
        <time>2017-10-14T16:45:19Z</time>
      </trkpt>
      <trkpt lat="59.800389869309" lon="17.601498317746">
        <ele>69</ele>
        <time>2017-10-14T16:45:20Z</time>
      </trkpt>
      <trkpt lat="59.800408980041" lon="17.601442242835">
        <ele>69</ele>
        <time>2017-10-14T16:45:21Z</time>
      </trkpt>
      <trkpt lat="59.800421469072" lon="17.601390442693">
        <ele>69</ele>
        <time>2017-10-14T16:45:22Z</time>
      </trkpt>
      <trkpt lat="59.80043337137" lon="17.601328332814">
        <ele>69.2</ele>
        <time>2017-10-14T16:45:23Z</time>
      </trkpt>
      <trkpt lat="59.80045013517" lon="17.601274018102">
        <ele>69.2</ele>
        <time>2017-10-14T16:45:24Z</time>
      </trkpt>
      <trkpt lat="59.800470000273" lon="17.601224229616">
        <ele>69.4</ele>
        <time>2017-10-14T16:45:25Z</time>
      </trkpt>
      <trkpt lat="59.800491877032" lon="17.601179973184">
        <ele>69.6</ele>
        <time>2017-10-14T16:45:26Z</time>
      </trkpt>
      <trkpt lat="59.800515346352" lon="17.601146194127">
        <ele>69.8</ele>
        <time>2017-10-14T16:45:27Z</time>
      </trkpt>
      <trkpt lat="59.800535714369" lon="17.601111660699">
        <ele>70.2</ele>
        <time>2017-10-14T16:45:28Z</time>
      </trkpt>
      <trkpt lat="59.800561279164" lon="17.601079055108">
        <ele>70.4</ele>
        <time>2017-10-14T16:45:29Z</time>
      </trkpt>
      <trkpt lat="59.800582988285" lon="17.601048880268">
        <ele>70.8</ele>
        <time>2017-10-14T16:45:30Z</time>
      </trkpt>
      <trkpt lat="59.800608301623" lon="17.601020549446">
        <ele>70.8</ele>
        <time>2017-10-14T16:45:31Z</time>
      </trkpt>
      <trkpt lat="59.800638644101" lon="17.601000684343">
        <ele>71.2</ele>
        <time>2017-10-14T16:45:32Z</time>
      </trkpt>
      <trkpt lat="59.800672339339" lon="17.600988195312">
        <ele>71.4</ele>
        <time>2017-10-14T16:45:33Z</time>
      </trkpt>
      <trkpt lat="59.800706369853" lon="17.60099339209">
        <ele>71.4</ele>
        <time>2017-10-14T16:45:34Z</time>
      </trkpt>
      <trkpt lat="59.800741741471" lon="17.601008730967">
        <ele>71.4</ele>
        <time>2017-10-14T16:45:35Z</time>
      </trkpt>
      <trkpt lat="59.800780046754" lon="17.601030020993">
        <ele>71.4</ele>
        <time>2017-10-14T16:45:36Z</time>
      </trkpt>
      <trkpt lat="59.800817178571" lon="17.601037397065">
        <ele>71.4</ele>
        <time>2017-10-14T16:45:37Z</time>
      </trkpt>
      <trkpt lat="59.800855986768" lon="17.601019040704">
        <ele>71.2</ele>
        <time>2017-10-14T16:45:38Z</time>
      </trkpt>
      <trkpt lat="59.800887418893" lon="17.601001271076">
        <ele>71</ele>
        <time>2017-10-14T16:45:39Z</time>
      </trkpt>
      <trkpt lat="59.800921700864" lon="17.600975538643">
        <ele>71</ele>
        <time>2017-10-14T16:45:40Z</time>
      </trkpt>
      <trkpt lat="59.800962939812" lon="17.600960870318">
        <ele>70.8</ele>
        <time>2017-10-14T16:45:41Z</time>
      </trkpt>
      <trkpt lat="59.801006860968" lon="17.600961457051">
        <ele>70.8</ele>
        <time>2017-10-14T16:45:42Z</time>
      </trkpt>
      <trkpt lat="59.801052877599" lon="17.600968749304">
        <ele>70.6</ele>
        <time>2017-10-14T16:45:43Z</time>
      </trkpt>
      <trkpt lat="59.801095876746" lon="17.600996074298">
        <ele>70.6</ele>
        <time>2017-10-14T16:45:44Z</time>
      </trkpt>
      <trkpt lat="59.801141809558" lon="17.601029350441">
        <ele>70.4</ele>
        <time>2017-10-14T16:45:45Z</time>
      </trkpt>
      <trkpt lat="59.801191514225" lon="17.601079390384">
        <ele>70.2</ele>
        <time>2017-10-14T16:45:46Z</time>
      </trkpt>
      <trkpt lat="59.801230741517" lon="17.601128675956">
        <ele>70</ele>
        <time>2017-10-14T16:45:47Z</time>
      </trkpt>
      <trkpt lat="59.801265358764" lon="17.60117360294">
        <ele>69.8</ele>
        <time>2017-10-14T16:45:48Z</time>
      </trkpt>
      <trkpt lat="59.801299054002" lon="17.601222888512">
        <ele>69.6</ele>
        <time>2017-10-14T16:45:49Z</time>
      </trkpt>
      <trkpt lat="59.801328725928" lon="17.601265552383">
        <ele>69.2</ele>
        <time>2017-10-14T16:45:50Z</time>
      </trkpt>
      <trkpt lat="59.801358230216" lon="17.601316262878">
        <ele>69</ele>
        <time>2017-10-14T16:45:51Z</time>
      </trkpt>
      <trkpt lat="59.801386644857" lon="17.601361860414">
        <ele>68.4</ele>
        <time>2017-10-14T16:45:52Z</time>
      </trkpt>
      <trkpt lat="59.801419753362" lon="17.601428077424">
        <ele>68</ele>
        <time>2017-10-14T16:45:53Z</time>
      </trkpt>
      <trkpt lat="59.801448335641" lon="17.60150301161">
        <ele>67.2</ele>
        <time>2017-10-14T16:45:54Z</time>
      </trkpt>
      <trkpt lat="59.801477169377" lon="17.601576688511">
        <ele>66.6</ele>
        <time>2017-10-14T16:45:55Z</time>
      </trkpt>
      <trkpt lat="59.801504662009" lon="17.601673080361">
        <ele>65.8</ele>
        <time>2017-10-14T16:45:56Z</time>
      </trkpt>
      <trkpt lat="59.801525868216" lon="17.601758743379">
        <ele>65.2</ele>
        <time>2017-10-14T16:45:57Z</time>
      </trkpt>
      <trkpt lat="59.801544224577" lon="17.601847926795">
        <ele>64.8</ele>
        <time>2017-10-14T16:45:58Z</time>
      </trkpt>
      <trkpt lat="59.801556713608" lon="17.601945743568">
        <ele>64.4</ele>
        <time>2017-10-14T16:45:59Z</time>
      </trkpt>
      <trkpt lat="59.80156492787" lon="17.602032580052">
        <ele>64.4</ele>
        <time>2017-10-14T16:46:00Z</time>
      </trkpt>
      <trkpt lat="59.801567610078" lon="17.6021324923">
        <ele>64.2</ele>
        <time>2017-10-14T16:46:01Z</time>
      </trkpt>
      <trkpt lat="59.801571968666" lon="17.602215892205">
        <ele>64</ele>
        <time>2017-10-14T16:46:02Z</time>
      </trkpt>
      <trkpt lat="59.801587726638" lon="17.602300800852">
        <ele>64</ele>
        <time>2017-10-14T16:46:03Z</time>
      </trkpt>
      <trkpt lat="59.801616644193" lon="17.602359977066">
        <ele>64</ele>
        <time>2017-10-14T16:46:04Z</time>
      </trkpt>
      <trkpt lat="59.80164790868" lon="17.602391828286">
        <ele>63.8</ele>
        <time>2017-10-14T16:46:05Z</time>
      </trkpt>
      <trkpt lat="59.801698535356" lon="17.602453602889">
        <ele>63.8</ele>
        <time>2017-10-14T16:46:06Z</time>
      </trkpt>
      <trkpt lat="59.801739103752" lon="17.602520071356">
        <ele>63.6</ele>
        <time>2017-10-14T16:46:07Z</time>
      </trkpt>
      <trkpt lat="59.801771290248" lon="17.60261109879">
        <ele>63.4</ele>
        <time>2017-10-14T16:46:08Z</time>
      </trkpt>
      <trkpt lat="59.801788808419" lon="17.602716123997">
        <ele>63.4</ele>
        <time>2017-10-14T16:46:09Z</time>
      </trkpt>
      <trkpt lat="59.801798028509" lon="17.60282735181">
        <ele>63.2</ele>
        <time>2017-10-14T16:46:10Z</time>
      </trkpt>
      <trkpt lat="59.801811523368" lon="17.602957522717">
        <ele>63</ele>
        <time>2017-10-14T16:46:11Z</time>
      </trkpt>
      <trkpt lat="59.801826107874" lon="17.603092471307">
        <ele>62.6</ele>
        <time>2017-10-14T16:46:12Z</time>
      </trkpt>
      <trkpt lat="59.801844128959" lon="17.603229934467">
        <ele>62</ele>
        <time>2017-10-14T16:46:13Z</time>
      </trkpt>
      <trkpt lat="59.801872627419" lon="17.603379802839">
        <ele>61.4</ele>
        <time>2017-10-14T16:46:14Z</time>
      </trkpt>
      <trkpt lat="59.801899030404" lon="17.603496395068">
        <ele>60.4</ele>
        <time>2017-10-14T16:46:15Z</time>
      </trkpt>
      <trkpt lat="59.801934234384" lon="17.603636875712">
        <ele>59.2</ele>
        <time>2017-10-14T16:46:16Z</time>
      </trkpt>
      <trkpt lat="59.801973210219" lon="17.603768220085">
        <ele>58</ele>
        <time>2017-10-14T16:46:17Z</time>
      </trkpt>
      <trkpt lat="59.802020484135" lon="17.603903001037">
        <ele>57.2</ele>
        <time>2017-10-14T16:46:18Z</time>
      </trkpt>
      <trkpt lat="59.802072368096" lon="17.604027136976">
        <ele>56.6</ele>
        <time>2017-10-14T16:46:19Z</time>
      </trkpt>
      <trkpt lat="59.802124168238" lon="17.604133587106">
        <ele>55.8</ele>
        <time>2017-10-14T16:46:20Z</time>
      </trkpt>
      <trkpt lat="59.80218686485" lon="17.604243389996">
        <ele>55.2</ele>
        <time>2017-10-14T16:46:21Z</time>
      </trkpt>
      <trkpt lat="59.802254255326" lon="17.604345230081">
        <ele>54.8</ele>
        <time>2017-10-14T16:46:22Z</time>
      </trkpt>
      <trkpt lat="59.802330111521" lon="17.604430557823">
        <ele>54.4</ele>
        <time>2017-10-14T16:46:23Z</time>
      </trkpt>
      <trkpt lat="59.802409069019" lon="17.604506497837">
        <ele>54.4</ele>
        <time>2017-10-14T16:46:24Z</time>
      </trkpt>
      <trkpt lat="59.802486769232" lon="17.604559974359">
        <ele>54.2</ele>
        <time>2017-10-14T16:46:25Z</time>
      </trkpt>
      <trkpt lat="59.802583496358" lon="17.604597776728">
        <ele>54</ele>
        <time>2017-10-14T16:46:26Z</time>
      </trkpt>
      <trkpt lat="59.802670165204" lon="17.604614037614">
        <ele>53.8</ele>
        <time>2017-10-14T16:46:27Z</time>
      </trkpt>
      <trkpt lat="59.802757001688" lon="17.604619485849">
        <ele>53.6</ele>
        <time>2017-10-14T16:46:28Z</time>
      </trkpt>
      <trkpt lat="59.802864206189" lon="17.604611439225">
        <ele>53.2</ele>
        <time>2017-10-14T16:46:29Z</time>
      </trkpt>
      <trkpt lat="59.80294291223" lon="17.6045967709">
        <ele>52.8</ele>
        <time>2017-10-14T16:46:30Z</time>
      </trkpt>
      <trkpt lat="59.803037040967" lon="17.604571038467">
        <ele>52.4</ele>
        <time>2017-10-14T16:46:31Z</time>
      </trkpt>
      <trkpt lat="59.803129660962" lon="17.604545306034">
        <ele>51.8</ele>
        <time>2017-10-14T16:46:32Z</time>
      </trkpt>
      <trkpt lat="59.803223119147" lon="17.6045213338">
        <ele>51.2</ele>
        <time>2017-10-14T16:46:33Z</time>
      </trkpt>
      <trkpt lat="59.803308027794" lon="17.604494595539">
        <ele>50.2</ele>
        <time>2017-10-14T16:46:34Z</time>
      </trkpt>
      <trkpt lat="59.803394026088" lon="17.604469282201">
        <ele>49.6</ele>
        <time>2017-10-14T16:46:35Z</time>
      </trkpt>
      <trkpt lat="59.80348438297" lon="17.604441789569">
        <ele>49</ele>
        <time>2017-10-14T16:46:36Z</time>
      </trkpt>
      <trkpt lat="59.803568369608" lon="17.604413291109">
        <ele>48.6</ele>
        <time>2017-10-14T16:46:37Z</time>
      </trkpt>
      <trkpt lat="59.803648081477" lon="17.604382780993">
        <ele>48.4</ele>
        <time>2017-10-14T16:46:38Z</time>
      </trkpt>
      <trkpt lat="59.803717567428" lon="17.604365179003">
        <ele>48.4</ele>
        <time>2017-10-14T16:46:39Z</time>
      </trkpt>
      <trkpt lat="59.803796860202" lon="17.604347157918">
        <ele>48.6</ele>
        <time>2017-10-14T16:46:40Z</time>
      </trkpt>
      <trkpt lat="59.803871542931" lon="17.604337351095">
        <ele>48.6</ele>
        <time>2017-10-14T16:46:41Z</time>
      </trkpt>
      <trkpt lat="59.803945555108" lon="17.604340368579">
        <ele>48.6</ele>
        <time>2017-10-14T16:46:42Z</time>
      </trkpt>
      <trkpt lat="59.804016214525" lon="17.604357383836">
        <ele>48.6</ele>
        <time>2017-10-14T16:46:43Z</time>
      </trkpt>
      <trkpt lat="59.804081090431" lon="17.604398538965">
        <ele>48.6</ele>
        <time>2017-10-14T16:46:44Z</time>
      </trkpt>
      <trkpt lat="59.80413398022" lon="17.604455200609">
        <ele>48.8</ele>
        <time>2017-10-14T16:46:45Z</time>
      </trkpt>
      <trkpt lat="59.804184858353" lon="17.604538349057">
        <ele>48.8</ele>
        <time>2017-10-14T16:46:46Z</time>
      </trkpt>
      <trkpt lat="59.804228444233" lon="17.604640189142">
        <ele>49.2</ele>
        <time>2017-10-14T16:46:47Z</time>
      </trkpt>
      <trkpt lat="59.804261301281" lon="17.604736161897">
        <ele>49.2</ele>
        <time>2017-10-14T16:46:48Z</time>
      </trkpt>
      <trkpt lat="59.804289296827" lon="17.604840265095">
        <ele>49.2</ele>
        <time>2017-10-14T16:46:49Z</time>
      </trkpt>
      <trkpt lat="59.80430413279" lon="17.604934812927">
        <ele>49.2</ele>
        <time>2017-10-14T16:46:50Z</time>
      </trkpt>
      <trkpt lat="59.804312849966" lon="17.605022403782">
        <ele>49.2</ele>
        <time>2017-10-14T16:46:51Z</time>
      </trkpt>
      <trkpt lat="59.804316370364" lon="17.605095326312">
        <ele>49.2</ele>
        <time>2017-10-14T16:46:52Z</time>
      </trkpt>
      <trkpt lat="59.804322237694" lon="17.605153161422">
        <ele>49.2</ele>
        <time>2017-10-14T16:46:53Z</time>
      </trkpt>
      <trkpt lat="59.8043284403" lon="17.605208817238">
        <ele>49.4</ele>
        <time>2017-10-14T16:46:54Z</time>
      </trkpt>
      <trkpt lat="59.804335313458" lon="17.605247960711">
        <ele>49.4</ele>
        <time>2017-10-14T16:46:55Z</time>
      </trkpt>
      <trkpt lat="59.804328607938" lon="17.6053008505">
        <ele>49.6</ele>
        <time>2017-10-14T16:46:56Z</time>
      </trkpt>
      <trkpt lat="59.804309581025" lon="17.605340748344">
        <ele>49.6</ele>
        <time>2017-10-14T16:46:57Z</time>
      </trkpt>
      <trkpt lat="59.804287285171" lon="17.605370671727">
        <ele>49.8</ele>
        <time>2017-10-14T16:46:58Z</time>
      </trkpt>
      <trkpt lat="59.804264318765" lon="17.605399924558">
        <ele>50</ele>
        <time>2017-10-14T16:46:59Z</time>
      </trkpt>
      <trkpt lat="59.80424210673" lon="17.60541987348">
        <ele>50</ele>
        <time>2017-10-14T16:47:00Z</time>
      </trkpt>
      <trkpt lat="59.804203382352" lon="17.605430099398">
        <ele>50</ele>
        <time>2017-10-14T16:47:01Z</time>
      </trkpt>
      <trkpt lat="59.804160718481" lon="17.605433871253">
        <ele>50.2</ele>
        <time>2017-10-14T16:47:02Z</time>
      </trkpt>
      <trkpt lat="59.804113947479" lon="17.605427836285">
        <ele>50.2</ele>
        <time>2017-10-14T16:47:03Z</time>
      </trkpt>
      <trkpt lat="59.804066505925" lon="17.605436888737">
        <ele>50.2</ele>
        <time>2017-10-14T16:47:04Z</time>
      </trkpt>
      <trkpt lat="59.804020908389" lon="17.605454071632">
        <ele>50.2</ele>
        <time>2017-10-14T16:47:05Z</time>
      </trkpt>
      <trkpt lat="59.803968689152" lon="17.605475780753">
        <ele>50.2</ele>
        <time>2017-10-14T16:47:06Z</time>
      </trkpt>
      <trkpt lat="59.80391688901" lon="17.605496903141">
        <ele>50</ele>
        <time>2017-10-14T16:47:07Z</time>
      </trkpt>
      <trkpt lat="59.803863999221" lon="17.605519785728">
        <ele>49.8</ele>
        <time>2017-10-14T16:47:08Z</time>
      </trkpt>
      <trkpt lat="59.803817479676" lon="17.605545769618">
        <ele>49.8</ele>
        <time>2017-10-14T16:47:09Z</time>
      </trkpt>
      <trkpt lat="59.803769032294" lon="17.605574770992">
        <ele>49.6</ele>
        <time>2017-10-14T16:47:10Z</time>
      </trkpt>
      <trkpt lat="59.803712622107" lon="17.605609220601">
        <ele>49.6</ele>
        <time>2017-10-14T16:47:11Z</time>
      </trkpt>
      <trkpt lat="59.803662414526" lon="17.605641574735">
        <ele>49.6</ele>
        <time>2017-10-14T16:47:12Z</time>
      </trkpt>
      <trkpt lat="59.803612542221" lon="17.60567468324">
        <ele>49.6</ele>
        <time>2017-10-14T16:47:13Z</time>
      </trkpt>
      <trkpt lat="59.803562167002" lon="17.605705109537">
        <ele>49.6</ele>
        <time>2017-10-14T16:47:14Z</time>
      </trkpt>
      <trkpt lat="59.803514893086" lon="17.605736625481">
        <ele>49.6</ele>
        <time>2017-10-14T16:47:15Z</time>
      </trkpt>
      <trkpt lat="59.803463009125" lon="17.605775685135">
        <ele>49.8</ele>
        <time>2017-10-14T16:47:16Z</time>
      </trkpt>
      <trkpt lat="59.80340894587" lon="17.60581382278">
        <ele>49.8</ele>
        <time>2017-10-14T16:47:17Z</time>
      </trkpt>
      <trkpt lat="59.803360917583" lon="17.605860929058">
        <ele>50</ele>
        <time>2017-10-14T16:47:18Z</time>
      </trkpt>
      <trkpt lat="59.803310374726" lon="17.605902168006">
        <ele>50</ele>
        <time>2017-10-14T16:47:19Z</time>
      </trkpt>
      <trkpt lat="59.803265866837" lon="17.605950699207">
        <ele>50</ele>
        <time>2017-10-14T16:47:20Z</time>
      </trkpt>
      <trkpt lat="59.803220436939" lon="17.605996380562">
        <ele>50.2</ele>
        <time>2017-10-14T16:47:21Z</time>
      </trkpt>
      <trkpt lat="59.803180874371" lon="17.606043822116">
        <ele>50.6</ele>
        <time>2017-10-14T16:47:22Z</time>
      </trkpt>
      <trkpt lat="59.803135863568" lon="17.606099477932">
        <ele>50.8</ele>
        <time>2017-10-14T16:47:23Z</time>
      </trkpt>
      <trkpt lat="59.803101497778" lon="17.606141974165">
        <ele>51</ele>
        <time>2017-10-14T16:47:24Z</time>
      </trkpt>
      <trkpt lat="59.80305271512" lon="17.60620190475">
        <ele>51.2</ele>
        <time>2017-10-14T16:47:25Z</time>
      </trkpt>
      <trkpt lat="59.803000831159" lon="17.606272145072">
        <ele>51.2</ele>
        <time>2017-10-14T16:47:26Z</time>
      </trkpt>
      <trkpt lat="59.802950204483" lon="17.606337859168">
        <ele>51</ele>
        <time>2017-10-14T16:47:27Z</time>
      </trkpt>
      <trkpt lat="59.802898739617" lon="17.606410781698">
        <ele>51</ele>
        <time>2017-10-14T16:47:28Z</time>
      </trkpt>
      <trkpt lat="59.802851968615" lon="17.606484039504">
        <ele>51</ele>
        <time>2017-10-14T16:47:29Z</time>
      </trkpt>
      <trkpt lat="59.802805951984" lon="17.606556962034">
        <ele>51</ele>
        <time>2017-10-14T16:47:30Z</time>
      </trkpt>
      <trkpt lat="59.802752978376" lon="17.606638853197">
        <ele>50.8</ele>
        <time>2017-10-14T16:47:31Z</time>
      </trkpt>
      <trkpt lat="59.802703022252" lon="17.606712194822">
        <ele>50.8</ele>
        <time>2017-10-14T16:47:32Z</time>
      </trkpt>
      <trkpt lat="59.802654993965" lon="17.606780842583">
        <ele>50.8</ele>
        <time>2017-10-14T16:47:33Z</time>
      </trkpt>
      <trkpt lat="59.802607720049" lon="17.606852004914">
        <ele>50.8</ele>
        <time>2017-10-14T16:47:34Z</time>
      </trkpt>
      <trkpt lat="59.802562960703" lon="17.60691688082">
        <ele>50.6</ele>
        <time>2017-10-14T16:47:35Z</time>
      </trkpt>
      <trkpt lat="59.802516860253" lon="17.606989635712">
        <ele>50.4</ele>
        <time>2017-10-14T16:47:36Z</time>
      </trkpt>
      <trkpt lat="59.802475537486" lon="17.607055098351">
        <ele>50.4</ele>
        <time>2017-10-14T16:47:37Z</time>
      </trkpt>
      <trkpt lat="59.802436561651" lon="17.607118800791">
        <ele>50.6</ele>
        <time>2017-10-14T16:47:38Z</time>
      </trkpt>
      <trkpt lat="59.802400016567" lon="17.607175462435">
        <ele>50.8</ele>
        <time>2017-10-14T16:47:39Z</time>
      </trkpt>
      <trkpt lat="59.80236120837" lon="17.607232543174">
        <ele>51</ele>
        <time>2017-10-14T16:47:40Z</time>
      </trkpt>
      <trkpt lat="59.802320388517" lon="17.607291719388">
        <ele>51.4</ele>
        <time>2017-10-14T16:47:41Z</time>
      </trkpt>
      <trkpt lat="59.802284430166" lon="17.607351482335">
        <ele>51.6</ele>
        <time>2017-10-14T16:47:42Z</time>
      </trkpt>
      <trkpt lat="59.802252159851" lon="17.607408311617">
        <ele>51.8</ele>
        <time>2017-10-14T16:47:43Z</time>
      </trkpt>
      <trkpt lat="59.802219470441" lon="17.607461369044">
        <ele>51.8</ele>
        <time>2017-10-14T16:47:44Z</time>
      </trkpt>
      <trkpt lat="59.802188457411" lon="17.607508391503">
        <ele>52</ele>
        <time>2017-10-14T16:47:45Z</time>
      </trkpt>
      <trkpt lat="59.802153169612" lon="17.607558599084">
        <ele>52.2</ele>
        <time>2017-10-14T16:47:46Z</time>
      </trkpt>
      <trkpt lat="59.802127437179" lon="17.607611405054">
        <ele>52.6</ele>
        <time>2017-10-14T16:47:47Z</time>
      </trkpt>
      <trkpt lat="59.802096675606" lon="17.607660858264">
        <ele>52.8</ele>
        <time>2017-10-14T16:47:48Z</time>
      </trkpt>
      <trkpt lat="59.802068763879" lon="17.607712909863">
        <ele>53</ele>
        <time>2017-10-14T16:47:49Z</time>
      </trkpt>
      <trkpt lat="59.802045965111" lon="17.607758926494">
        <ele>53</ele>
        <time>2017-10-14T16:47:50Z</time>
      </trkpt>
      <trkpt lat="59.8020150359" lon="17.607814666129">
        <ele>53.2</ele>
        <time>2017-10-14T16:47:51Z</time>
      </trkpt>
      <trkpt lat="59.80198569925" lon="17.607864119339">
        <ele>53.4</ele>
        <time>2017-10-14T16:47:52Z</time>
      </trkpt>
      <trkpt lat="59.80195384803" lon="17.60791348873">
        <ele>53.4</ele>
        <time>2017-10-14T16:47:53Z</time>
      </trkpt>
      <trkpt lat="59.801925517208" lon="17.607959002447">
        <ele>53.6</ele>
        <time>2017-10-14T16:47:54Z</time>
      </trkpt>
      <trkpt lat="59.801895929101" lon="17.60801155696">
        <ele>53.6</ele>
        <time>2017-10-14T16:47:55Z</time>
      </trkpt>
      <trkpt lat="59.801864580795" lon="17.608069811165">
        <ele>53.6</ele>
        <time>2017-10-14T16:47:56Z</time>
      </trkpt>
      <trkpt lat="59.801835244145" lon="17.608128233008">
        <ele>53.8</ele>
        <time>2017-10-14T16:47:57Z</time>
      </trkpt>
      <trkpt lat="59.801804231115" lon="17.608186151937">
        <ele>54</ele>
        <time>2017-10-14T16:47:58Z</time>
      </trkpt>
      <trkpt lat="59.801766009651" lon="17.608253961508">
        <ele>54</ele>
        <time>2017-10-14T16:47:59Z</time>
      </trkpt>
      <trkpt lat="59.801732817327" lon="17.608313221541">
        <ele>54</ele>
        <time>2017-10-14T16:48:00Z</time>
      </trkpt>
      <trkpt lat="59.801691997474" lon="17.608382707492">
        <ele>54.2</ele>
        <time>2017-10-14T16:48:01Z</time>
      </trkpt>
      <trkpt lat="59.801654027467" lon="17.608450936158">
        <ele>54</ele>
        <time>2017-10-14T16:48:02Z</time>
      </trkpt>
      <trkpt lat="59.801622008609" lon="17.608519835376">
        <ele>54</ele>
        <time>2017-10-14T16:48:03Z</time>
      </trkpt>
      <trkpt lat="59.801584541516" lon="17.608596781218">
        <ele>54</ele>
        <time>2017-10-14T16:48:04Z</time>
      </trkpt>
      <trkpt lat="59.801547828794" lon="17.608669619929">
        <ele>54</ele>
        <time>2017-10-14T16:48:05Z</time>
      </trkpt>
      <trkpt lat="59.801508014769" lon="17.608755115309">
        <ele>54</ele>
        <time>2017-10-14T16:48:06Z</time>
      </trkpt>
      <trkpt lat="59.80147105059" lon="17.608844298725">
        <ele>54</ele>
        <time>2017-10-14T16:48:07Z</time>
      </trkpt>
      <trkpt lat="59.801432410031" lon="17.608934907064">
        <ele>54</ele>
        <time>2017-10-14T16:48:08Z</time>
      </trkpt>
      <trkpt lat="59.801395278214" lon="17.60902157591">
        <ele>53.8</ele>
        <time>2017-10-14T16:48:09Z</time>
      </trkpt>
      <trkpt lat="59.801361750614" lon="17.609119308864">
        <ele>53.8</ele>
        <time>2017-10-14T16:48:10Z</time>
      </trkpt>
      <trkpt lat="59.801324870254" lon="17.609224753166">
        <ele>53.6</ele>
        <time>2017-10-14T16:48:11Z</time>
      </trkpt>
      <trkpt lat="59.801290420645" lon="17.609326006518">
        <ele>53.6</ele>
        <time>2017-10-14T16:48:12Z</time>
      </trkpt>
      <trkpt lat="59.801256641588" lon="17.609432959562">
        <ele>53.4</ele>
        <time>2017-10-14T16:48:13Z</time>
      </trkpt>
      <trkpt lat="59.80123049006" lon="17.609548713601">
        <ele>53.4</ele>
        <time>2017-10-14T16:48:14Z</time>
      </trkpt>
      <trkpt lat="59.801206517826" lon="17.609654493179">
        <ele>53.2</ele>
        <time>2017-10-14T16:48:15Z</time>
      </trkpt>
      <trkpt lat="59.801171732941" lon="17.609776701281">
        <ele>53</ele>
        <time>2017-10-14T16:48:16Z</time>
      </trkpt>
      <trkpt lat="59.801134768762" lon="17.609893628786">
        <ele>53</ele>
        <time>2017-10-14T16:48:17Z</time>
      </trkpt>
      <trkpt lat="59.801099397144" lon="17.61000980192">
        <ele>52.8</ele>
        <time>2017-10-14T16:48:18Z</time>
      </trkpt>
      <trkpt lat="59.801064612259" lon="17.610124969226">
        <ele>52.6</ele>
        <time>2017-10-14T16:48:19Z</time>
      </trkpt>
      <trkpt lat="59.801039969473" lon="17.610239717437">
        <ele>52.4</ele>
        <time>2017-10-14T16:48:20Z</time>
      </trkpt>
      <trkpt lat="59.801013063574" lon="17.610364607747">
        <ele>52.2</ele>
        <time>2017-10-14T16:48:21Z</time>
      </trkpt>
      <trkpt lat="59.800985906218" lon="17.61048421746">
        <ele>51.8</ele>
        <time>2017-10-14T16:48:22Z</time>
      </trkpt>
      <trkpt lat="59.800958413586" lon="17.610607599028">
        <ele>51.6</ele>
        <time>2017-10-14T16:48:23Z</time>
      </trkpt>
      <trkpt lat="59.800933267886" lon="17.610715976995">
        <ele>51.2</ele>
        <time>2017-10-14T16:48:24Z</time>
      </trkpt>
      <trkpt lat="59.80091113967" lon="17.610828545912">
        <ele>51.2</ele>
        <time>2017-10-14T16:48:25Z</time>
      </trkpt>
      <trkpt lat="59.800888005626" lon="17.610951759842">
        <ele>51.2</ele>
        <time>2017-10-14T16:48:26Z</time>
      </trkpt>
      <trkpt lat="59.800867889066" lon="17.611054521936">
        <ele>51.2</ele>
        <time>2017-10-14T16:48:27Z</time>
      </trkpt>
      <trkpt lat="59.800845844669" lon="17.611158625134">
        <ele>51.4</ele>
        <time>2017-10-14T16:48:28Z</time>
      </trkpt>
      <trkpt lat="59.80082145334" lon="17.611263817979">
        <ele>51.6</ele>
        <time>2017-10-14T16:48:29Z</time>
      </trkpt>
      <trkpt lat="59.800802510246" lon="17.611354593956">
        <ele>52</ele>
        <time>2017-10-14T16:48:30Z</time>
      </trkpt>
      <trkpt lat="59.800782142229" lon="17.611455344394">
        <ele>52.2</ele>
        <time>2017-10-14T16:48:31Z</time>
      </trkpt>
      <trkpt lat="59.800765965162" lon="17.611545449819">
        <ele>52.6</ele>
        <time>2017-10-14T16:48:32Z</time>
      </trkpt>
      <trkpt lat="59.800750039552" lon="17.611627592439">
        <ele>53</ele>
        <time>2017-10-14T16:48:33Z</time>
      </trkpt>
      <trkpt lat="59.800733024295" lon="17.611705879385">
        <ele>53.2</ele>
        <time>2017-10-14T16:48:34Z</time>
      </trkpt>
      <trkpt lat="59.800716847228" lon="17.611782070856">
        <ele>53.4</ele>
        <time>2017-10-14T16:48:35Z</time>
      </trkpt>
      <trkpt lat="59.800702597998" lon="17.611862872372">
        <ele>53.6</ele>
        <time>2017-10-14T16:48:36Z</time>
      </trkpt>
      <trkpt lat="59.800690779519" lon="17.611941410775">
        <ele>54</ele>
        <time>2017-10-14T16:48:37Z</time>
      </trkpt>
      <trkpt lat="59.800675021547" lon="17.612015003857">
        <ele>54.2</ele>
        <time>2017-10-14T16:48:38Z</time>
      </trkpt>
      <trkpt lat="59.800659934127" lon="17.612081053229">
        <ele>54.6</ele>
        <time>2017-10-14T16:48:39Z</time>
      </trkpt>
      <trkpt lat="59.80064375706" lon="17.612150874456">
        <ele>55</ele>
        <time>2017-10-14T16:48:40Z</time>
      </trkpt>
      <trkpt lat="59.800626741803" lon="17.612227401203">
        <ele>55.2</ele>
        <time>2017-10-14T16:48:41Z</time>
      </trkpt>
      <trkpt lat="59.800613330763" lon="17.612300239914">
        <ele>55.8</ele>
        <time>2017-10-14T16:48:42Z</time>
      </trkpt>
      <trkpt lat="59.800595896411" lon="17.612372408073">
        <ele>56</ele>
        <time>2017-10-14T16:48:43Z</time>
      </trkpt>
      <trkpt lat="59.800577623869" lon="17.612443654223">
        <ele>56.4</ele>
        <time>2017-10-14T16:48:44Z</time>
      </trkpt>
      <trkpt lat="59.800560608612" lon="17.612506434654">
        <ele>56.8</ele>
        <time>2017-10-14T16:48:45Z</time>
      </trkpt>
      <trkpt lat="59.800545102097" lon="17.61258639798">
        <ele>57</ele>
        <time>2017-10-14T16:48:46Z</time>
      </trkpt>
      <trkpt lat="59.800530098496" lon="17.612658566139">
        <ele>57.2</ele>
        <time>2017-10-14T16:48:47Z</time>
      </trkpt>
      <trkpt lat="59.800512496506" lon="17.612727800633">
        <ele>57.6</ele>
        <time>2017-10-14T16:48:48Z</time>
      </trkpt>
      <trkpt lat="59.800495481249" lon="17.612789994331">
        <ele>57.8</ele>
        <time>2017-10-14T16:48:49Z</time>
      </trkpt>
      <trkpt lat="59.800482740761" lon="17.612856043703">
        <ele>57.8</ele>
        <time>2017-10-14T16:48:50Z</time>
      </trkpt>
      <trkpt lat="59.800467234246" lon="17.612930139699">
        <ele>58</ele>
        <time>2017-10-14T16:48:51Z</time>
      </trkpt>
      <trkpt lat="59.800450889541" lon="17.61300214022">
        <ele>58</ele>
        <time>2017-10-14T16:48:52Z</time>
      </trkpt>
      <trkpt lat="59.800435550664" lon="17.613076403854">
        <ele>58</ele>
        <time>2017-10-14T16:48:53Z</time>
      </trkpt>
      <trkpt lat="59.800420463244" lon="17.613143626692">
        <ele>58.2</ele>
        <time>2017-10-14T16:48:54Z</time>
      </trkpt>
      <trkpt lat="59.800405962557" lon="17.613211436263">
        <ele>58.4</ele>
        <time>2017-10-14T16:48:55Z</time>
      </trkpt>
      <trkpt lat="59.800392802974" lon="17.613291986322">
        <ele>58.4</ele>
        <time>2017-10-14T16:48:56Z</time>
      </trkpt>
      <trkpt lat="59.800382996151" lon="17.61336256192">
        <ele>58.4</ele>
        <time>2017-10-14T16:48:57Z</time>
      </trkpt>
      <trkpt lat="59.800369082197" lon="17.613433975708">
        <ele>58.8</ele>
        <time>2017-10-14T16:48:58Z</time>
      </trkpt>
      <trkpt lat="59.800352569854" lon="17.613517207975">
        <ele>59</ele>
        <time>2017-10-14T16:48:59Z</time>
      </trkpt>
      <trkpt lat="59.800340416099" lon="17.613587364478">
        <ele>59.2</ele>
        <time>2017-10-14T16:49:00Z</time>
      </trkpt>
      <trkpt lat="59.800324239032" lon="17.613666321976">
        <ele>59.6</ele>
        <time>2017-10-14T16:49:01Z</time>
      </trkpt>
      <trkpt lat="59.800305715033" lon="17.613743854551">
        <ele>59.6</ele>
        <time>2017-10-14T16:49:02Z</time>
      </trkpt>
      <trkpt lat="59.8002883645" lon="17.613823482601">
        <ele>60</ele>
        <time>2017-10-14T16:49:03Z</time>
      </trkpt>
      <trkpt lat="59.800271516881" lon="17.613905289945">
        <ele>60</ele>
        <time>2017-10-14T16:49:04Z</time>
      </trkpt>
      <trkpt lat="59.800259782221" lon="17.613966226358">
        <ele>60.2</ele>
        <time>2017-10-14T16:49:05Z</time>
      </trkpt>
      <trkpt lat="59.800238743652" lon="17.614064629864">
        <ele>60.4</ele>
        <time>2017-10-14T16:49:06Z</time>
      </trkpt>
      <trkpt lat="59.800220806386" lon="17.614141994801">
        <ele>60.6</ele>
        <time>2017-10-14T16:49:07Z</time>
      </trkpt>
      <trkpt lat="59.800201611835" lon="17.61421667753">
        <ele>60.8</ele>
        <time>2017-10-14T16:49:08Z</time>
      </trkpt>
      <trkpt lat="59.800182417284" lon="17.614288007499">
        <ele>60.8</ele>
        <time>2017-10-14T16:49:09Z</time>
      </trkpt>
      <trkpt lat="59.800162300724" lon="17.614364031332">
        <ele>61</ele>
        <time>2017-10-14T16:49:10Z</time>
      </trkpt>
      <trkpt lat="59.800138579947" lon="17.614446676866">
        <ele>61</ele>
        <time>2017-10-14T16:49:11Z</time>
      </trkpt>
      <trkpt lat="59.800116367912" lon="17.614525047631">
        <ele>61.2</ele>
        <time>2017-10-14T16:49:12Z</time>
      </trkpt>
      <trkpt lat="59.800092060402" lon="17.614598808351">
        <ele>61.4</ele>
        <time>2017-10-14T16:49:13Z</time>
      </trkpt>
      <trkpt lat="59.800067585254" lon="17.61467265289">
        <ele>61.4</ele>
        <time>2017-10-14T16:49:14Z</time>
      </trkpt>
      <trkpt lat="59.800044702667" lon="17.614739372814">
        <ele>61.6</ele>
        <time>2017-10-14T16:49:15Z</time>
      </trkpt>
      <trkpt lat="59.800022155356" lon="17.61481933614">
        <ele>61.6</ele>
        <time>2017-10-14T16:49:16Z</time>
      </trkpt>
      <trkpt lat="59.800005810651" lon="17.614899299466">
        <ele>61.8</ele>
        <time>2017-10-14T16:49:17Z</time>
      </trkpt>
      <trkpt lat="59.79998410153" lon="17.614976161489">
        <ele>61.8</ele>
        <time>2017-10-14T16:49:18Z</time>
      </trkpt>
      <trkpt lat="59.799957950002" lon="17.615049670752">
        <ele>62</ele>
        <time>2017-10-14T16:49:19Z</time>
      </trkpt>
      <trkpt lat="59.79993129556" lon="17.615113624649">
        <ele>62.2</ele>
        <time>2017-10-14T16:49:20Z</time>
      </trkpt>
      <trkpt lat="59.799898438512" lon="17.615175147795">
        <ele>62.4</ele>
        <time>2017-10-14T16:49:21Z</time>
      </trkpt>
      <trkpt lat="59.799868179853" lon="17.615230384516">
        <ele>62.6</ele>
        <time>2017-10-14T16:49:22Z</time>
      </trkpt>
      <trkpt lat="59.799838424108" lon="17.615287800531">
        <ele>62.8</ele>
        <time>2017-10-14T16:49:23Z</time>
      </trkpt>
      <trkpt lat="59.799811518209" lon="17.615346641469">
        <ele>63</ele>
        <time>2017-10-14T16:49:24Z</time>
      </trkpt>
      <trkpt lat="59.799785366681" lon="17.615411601194">
        <ele>63.2</ele>
        <time>2017-10-14T16:49:25Z</time>
      </trkpt>
      <trkpt lat="59.799756030031" lon="17.615484439905">
        <ele>63.4</ele>
        <time>2017-10-14T16:49:26Z</time>
      </trkpt>
      <trkpt lat="59.799734572367" lon="17.615555015503">
        <ele>63.4</ele>
        <time>2017-10-14T16:49:27Z</time>
      </trkpt>
      <trkpt lat="59.799714036712" lon="17.615630033508">
        <ele>63.4</ele>
        <time>2017-10-14T16:49:28Z</time>
      </trkpt>
      <trkpt lat="59.799693836333" lon="17.615710080653">
        <ele>63.4</ele>
        <time>2017-10-14T16:49:29Z</time>
      </trkpt>
      <trkpt lat="59.799671121384" lon="17.615781997355">
        <ele>63.4</ele>
        <time>2017-10-14T16:49:30Z</time>
      </trkpt>
      <trkpt lat="59.799643628752" lon="17.615871096952">
        <ele>63.6</ele>
        <time>2017-10-14T16:49:31Z</time>
      </trkpt>
      <trkpt lat="59.799610855523" lon="17.615953574848">
        <ele>63.6</ele>
        <time>2017-10-14T16:49:32Z</time>
      </trkpt>
      <trkpt lat="59.799569532756" lon="17.616033454355">
        <ele>63.6</ele>
        <time>2017-10-14T16:49:33Z</time>
      </trkpt>
      <trkpt lat="59.799522677935" lon="17.616110819292">
        <ele>63.4</ele>
        <time>2017-10-14T16:49:34Z</time>
      </trkpt>
      <trkpt lat="59.79947448201" lon="17.616178461225">
        <ele>63.2</ele>
        <time>2017-10-14T16:49:35Z</time>
      </trkpt>
      <trkpt lat="59.799417820366" lon="17.616245516425">
        <ele>63.2</ele>
        <time>2017-10-14T16:49:36Z</time>
      </trkpt>
      <trkpt lat="59.799363254197" lon="17.616307877761">
        <ele>62.8</ele>
        <time>2017-10-14T16:49:37Z</time>
      </trkpt>
      <trkpt lat="59.799307095467" lon="17.616371580201">
        <ele>62.6</ele>
        <time>2017-10-14T16:49:38Z</time>
      </trkpt>
      <trkpt lat="59.799255295325" lon="17.616428074207">
        <ele>62.4</ele>
        <time>2017-10-14T16:49:39Z</time>
      </trkpt>
      <trkpt lat="59.799201567346" lon="17.616485574041">
        <ele>62.2</ele>
        <time>2017-10-14T16:49:40Z</time>
      </trkpt>
      <trkpt lat="59.799144402788" lon="17.616548354472">
        <ele>62</ele>
        <time>2017-10-14T16:49:41Z</time>
      </trkpt>
      <trkpt lat="59.79909310556" lon="17.616602082451">
        <ele>61.6</ele>
        <time>2017-10-14T16:49:42Z</time>
      </trkpt>
      <trkpt lat="59.799037365925" lon="17.616657235353">
        <ele>61.6</ele>
        <time>2017-10-14T16:49:43Z</time>
      </trkpt>
      <trkpt lat="59.798981458652" lon="17.616715992472">
        <ele>61.6</ele>
        <time>2017-10-14T16:49:44Z</time>
      </trkpt>
      <trkpt lat="59.798930077605" lon="17.616763014931">
        <ele>61.6</ele>
        <time>2017-10-14T16:49:45Z</time>
      </trkpt>
      <trkpt lat="59.79887014702" lon="17.616820598584">
        <ele>61.4</ele>
        <time>2017-10-14T16:49:46Z</time>
      </trkpt>
      <trkpt lat="59.798810384073" lon="17.616880612988">
        <ele>61.2</ele>
        <time>2017-10-14T16:49:47Z</time>
      </trkpt>
      <trkpt lat="59.798753722429" lon="17.616938531917">
        <ele>61.2</ele>
        <time>2017-10-14T16:49:48Z</time>
      </trkpt>
      <trkpt lat="59.798696390233" lon="17.616998043407">
        <ele>61</ele>
        <time>2017-10-14T16:49:49Z</time>
      </trkpt>
      <trkpt lat="59.798641237331" lon="17.617052944852">
        <ele>61</ele>
        <time>2017-10-14T16:49:50Z</time>
      </trkpt>
      <trkpt lat="59.798580887651" lon="17.617116395835">
        <ele>61.2</ele>
        <time>2017-10-14T16:49:51Z</time>
      </trkpt>
      <trkpt lat="59.798518358677" lon="17.617185881786">
        <ele>61.2</ele>
        <time>2017-10-14T16:49:52Z</time>
      </trkpt>
      <trkpt lat="59.798459014825" lon="17.617249835683">
        <ele>61.2</ele>
        <time>2017-10-14T16:49:53Z</time>
      </trkpt>
      <trkpt lat="59.798399754792" lon="17.617303060748">
        <ele>61.2</ele>
        <time>2017-10-14T16:49:54Z</time>
      </trkpt>
      <trkpt lat="59.798335214162" lon="17.617363326609">
        <ele>61</ele>
        <time>2017-10-14T16:49:55Z</time>
      </trkpt>
      <trkpt lat="59.798267236953" lon="17.617427196687">
        <ele>60.8</ele>
        <time>2017-10-14T16:49:56Z</time>
      </trkpt>
      <trkpt lat="59.798207222549" lon="17.617482517227">
        <ele>60.6</ele>
        <time>2017-10-14T16:49:57Z</time>
      </trkpt>
      <trkpt lat="59.798144609756" lon="17.617540687613">
        <ele>60.4</ele>
        <time>2017-10-14T16:49:58Z</time>
      </trkpt>
      <trkpt lat="59.798083589524" lon="17.617603132768">
        <ele>60.4</ele>
        <time>2017-10-14T16:49:59Z</time>
      </trkpt>
      <trkpt lat="59.798031621744" lon="17.617651915426">
        <ele>60.6</ele>
        <time>2017-10-14T16:50:00Z</time>
      </trkpt>
      <trkpt lat="59.797969176589" lon="17.617704637577">
        <ele>60.6</ele>
        <time>2017-10-14T16:50:01Z</time>
      </trkpt>
      <trkpt lat="59.797912012031" lon="17.617756689176">
        <ele>60.6</ele>
        <time>2017-10-14T16:50:02Z</time>
      </trkpt>
      <trkpt lat="59.797859457518" lon="17.617807399671">
        <ele>60.8</ele>
        <time>2017-10-14T16:50:03Z</time>
      </trkpt>
      <trkpt lat="59.797802460598" lon="17.617859199813">
        <ele>61</ele>
        <time>2017-10-14T16:50:04Z</time>
      </trkpt>
      <trkpt lat="59.797749319352" lon="17.617907982471">
        <ele>61.2</ele>
        <time>2017-10-14T16:50:05Z</time>
      </trkpt>
      <trkpt lat="59.797688131482" lon="17.61796171045">
        <ele>61.4</ele>
        <time>2017-10-14T16:50:06Z</time>
      </trkpt>
      <trkpt lat="59.797632643304" lon="17.61801954556">
        <ele>61.6</ele>
        <time>2017-10-14T16:50:07Z</time>
      </trkpt>
      <trkpt lat="59.797573886185" lon="17.618073022082">
        <ele>61.6</ele>
        <time>2017-10-14T16:50:08Z</time>
      </trkpt>
      <trkpt lat="59.797526193174" lon="17.618116943238">
        <ele>62</ele>
        <time>2017-10-14T16:50:09Z</time>
      </trkpt>
      <trkpt lat="59.797468106607" lon="17.618176790004">
        <ele>62</ele>
        <time>2017-10-14T16:50:10Z</time>
      </trkpt>
      <trkpt lat="59.797400045579" lon="17.618241498272">
        <ele>62.2</ele>
        <time>2017-10-14T16:50:11Z</time>
      </trkpt>
      <trkpt lat="59.797337181329" lon="17.618303524332">
        <ele>62.2</ele>
        <time>2017-10-14T16:50:12Z</time>
      </trkpt>
      <trkpt lat="59.797272473061" lon="17.61836068889">
        <ele>62</ele>
        <time>2017-10-14T16:50:13Z</time>
      </trkpt>
      <trkpt lat="59.797207513336" lon="17.618418104905">
        <ele>61.8</ele>
        <time>2017-10-14T16:50:14Z</time>
      </trkpt>
      <trkpt lat="59.797147750389" lon="17.618470743237">
        <ele>61.6</ele>
        <time>2017-10-14T16:50:15Z</time>
      </trkpt>
      <trkpt lat="59.79707725861" lon="17.618529584175">
        <ele>61</ele>
        <time>2017-10-14T16:50:16Z</time>
      </trkpt>
      <trkpt lat="59.797010957781" lon="17.618581803412">
        <ele>60.4</ele>
        <time>2017-10-14T16:50:17Z</time>
      </trkpt>
      <trkpt lat="59.796945746599" lon="17.618625305473">
        <ele>60.2</ele>
        <time>2017-10-14T16:50:18Z</time>
      </trkpt>
      <trkpt lat="59.796880200141" lon="17.618661012367">
        <ele>59.6</ele>
        <time>2017-10-14T16:50:19Z</time>
      </trkpt>
      <trkpt lat="59.796820185737" lon="17.618693701777">
        <ele>59.6</ele>
        <time>2017-10-14T16:50:20Z</time>
      </trkpt>
      <trkpt lat="59.796756399478" lon="17.618743154987">
        <ele>59.6</ele>
        <time>2017-10-14T16:50:21Z</time>
      </trkpt>
      <trkpt lat="59.796694121961" lon="17.618800068088">
        <ele>59.4</ele>
        <time>2017-10-14T16:50:22Z</time>
      </trkpt>
      <trkpt lat="59.796633101729" lon="17.618853293153">
        <ele>59.4</ele>
        <time>2017-10-14T16:50:23Z</time>
      </trkpt>
      <trkpt lat="59.79657685918" lon="17.618902411087">
        <ele>59.4</ele>
        <time>2017-10-14T16:50:24Z</time>
      </trkpt>
      <trkpt lat="59.796519778441" lon="17.618952786306">
        <ele>59.4</ele>
        <time>2017-10-14T16:50:25Z</time>
      </trkpt>
      <trkpt lat="59.796460769865" lon="17.619004251172">
        <ele>59.6</ele>
        <time>2017-10-14T16:50:26Z</time>
      </trkpt>
      <trkpt lat="59.796409975551" lon="17.619051692726">
        <ele>59.6</ele>
        <time>2017-10-14T16:50:27Z</time>
      </trkpt>
      <trkpt lat="59.796356750486" lon="17.619103073773">
        <ele>59.8</ele>
        <time>2017-10-14T16:50:28Z</time>
      </trkpt>
      <trkpt lat="59.796301262308" lon="17.619154538639">
        <ele>60.2</ele>
        <time>2017-10-14T16:50:29Z</time>
      </trkpt>
      <trkpt lat="59.796251892917" lon="17.619199297985">
        <ele>60.6</ele>
        <time>2017-10-14T16:50:30Z</time>
      </trkpt>
      <trkpt lat="59.796194225445" lon="17.619233999051">
        <ele>61</ele>
        <time>2017-10-14T16:50:31Z</time>
      </trkpt>
      <trkpt lat="59.796131947928" lon="17.619254786163">
        <ele>61.4</ele>
        <time>2017-10-14T16:50:32Z</time>
      </trkpt>
      <trkpt lat="59.796075453922" lon="17.619275657094">
        <ele>61.6</ele>
        <time>2017-10-14T16:50:33Z</time>
      </trkpt>
      <trkpt lat="59.796019211373" lon="17.619314632929">
        <ele>61.8</ele>
        <time>2017-10-14T16:50:34Z</time>
      </trkpt>
      <trkpt lat="59.795965902489" lon="17.61936148775">
        <ele>61.8</ele>
        <time>2017-10-14T16:50:35Z</time>
      </trkpt>
      <trkpt lat="59.795907564465" lon="17.619414964272">
        <ele>61.6</ele>
        <time>2017-10-14T16:50:36Z</time>
      </trkpt>
      <trkpt lat="59.795855429047" lon="17.619468189337">
        <ele>61.6</ele>
        <time>2017-10-14T16:50:37Z</time>
      </trkpt>
      <trkpt lat="59.795801952525" lon="17.619519235108">
        <ele>61.6</ele>
        <time>2017-10-14T16:50:38Z</time>
      </trkpt>
      <trkpt lat="59.795750655297" lon="17.619564832644">
        <ele>61.4</ele>
        <time>2017-10-14T16:50:39Z</time>
      </trkpt>
      <trkpt lat="59.795696508223" lon="17.619609675809">
        <ele>61.4</ele>
        <time>2017-10-14T16:50:40Z</time>
      </trkpt>
      <trkpt lat="59.795633811611" lon="17.619662817055">
        <ele>61.4</ele>
        <time>2017-10-14T16:50:41Z</time>
      </trkpt>
      <trkpt lat="59.795575473587" lon="17.619712102627">
        <ele>61.6</ele>
        <time>2017-10-14T16:50:42Z</time>
      </trkpt>
      <trkpt lat="59.795519985409" lon="17.61976381895">
        <ele>61.6</ele>
        <time>2017-10-14T16:50:43Z</time>
      </trkpt>
      <trkpt lat="59.795465167783" lon="17.619812936884">
        <ele>61.6</ele>
        <time>2017-10-14T16:50:44Z</time>
      </trkpt>
      <trkpt lat="59.795412026537" lon="17.619860462257">
        <ele>61.6</ele>
        <time>2017-10-14T16:50:45Z</time>
      </trkpt>
      <trkpt lat="59.795350335753" lon="17.619914106417">
        <ele>61.6</ele>
        <time>2017-10-14T16:50:46Z</time>
      </trkpt>
      <trkpt lat="59.795285795123" lon="17.619973114993">
        <ele>61.6</ele>
        <time>2017-10-14T16:50:47Z</time>
      </trkpt>
      <trkpt lat="59.795225948357" lon="17.620029608999">
        <ele>61.4</ele>
        <time>2017-10-14T16:50:48Z</time>
      </trkpt>
      <trkpt lat="59.795163922297" lon="17.62009322762">
        <ele>61.4</ele>
        <time>2017-10-14T16:50:49Z</time>
      </trkpt>
      <trkpt lat="59.795111619241" lon="17.620138992794">
        <ele>61.4</ele>
        <time>2017-10-14T16:50:50Z</time>
      </trkpt>
      <trkpt lat="59.795048335896" lon="17.620198252827">
        <ele>61.2</ele>
        <time>2017-10-14T16:50:51Z</time>
      </trkpt>
      <trkpt lat="59.794988656768" lon="17.620257177584">
        <ele>61</ele>
        <time>2017-10-14T16:50:52Z</time>
      </trkpt>
      <trkpt lat="59.794926379251" lon="17.620315431789">
        <ele>60.8</ele>
        <time>2017-10-14T16:50:53Z</time>
      </trkpt>
      <trkpt lat="59.794863934096" lon="17.620370836148">
        <ele>60.6</ele>
        <time>2017-10-14T16:50:54Z</time>
      </trkpt>
      <trkpt lat="59.79480744009" lon="17.62042095991">
        <ele>60.4</ele>
        <time>2017-10-14T16:50:55Z</time>
      </trkpt>
      <trkpt lat="59.794741390718" lon="17.620482734513">
        <ele>60.2</ele>
        <time>2017-10-14T16:50:56Z</time>
      </trkpt>
      <trkpt lat="59.794679364658" lon="17.620538390329">
        <ele>60</ele>
        <time>2017-10-14T16:50:57Z</time>
      </trkpt>
      <trkpt lat="59.794613650562" lon="17.620590944842">
        <ele>60</ele>
        <time>2017-10-14T16:50:58Z</time>
      </trkpt>
      <trkpt lat="59.794547517371" lon="17.620646768296">
        <ele>59.8</ele>
        <time>2017-10-14T16:50:59Z</time>
      </trkpt>
      <trkpt lat="59.79448725151" lon="17.620700831551">
        <ele>59.8</ele>
        <time>2017-10-14T16:51:00Z</time>
      </trkpt>
      <trkpt lat="59.79442271088" lon="17.620760678317">
        <ele>59.8</ele>
        <time>2017-10-14T16:51:01Z</time>
      </trkpt>
      <trkpt lat="59.7943539793" lon="17.620825554223">
        <ele>59.8</ele>
        <time>2017-10-14T16:51:02Z</time>
      </trkpt>
      <trkpt lat="59.794311315429" lon="17.620865368248">
        <ele>59.6</ele>
        <time>2017-10-14T16:51:03Z</time>
      </trkpt>
      <trkpt lat="59.794222551108" lon="17.620944158108">
        <ele>59.6</ele>
        <time>2017-10-14T16:51:04Z</time>
      </trkpt>
      <trkpt lat="59.794160273591" lon="17.620998556639">
        <ele>59.4</ele>
        <time>2017-10-14T16:51:05Z</time>
      </trkpt>
      <trkpt lat="59.794089195079" lon="17.621064270735">
        <ele>59.4</ele>
        <time>2017-10-14T16:51:06Z</time>
      </trkpt>
      <trkpt lat="59.794023648621" lon="17.621126045338">
        <ele>59.2</ele>
        <time>2017-10-14T16:51:07Z</time>
      </trkpt>
      <trkpt lat="59.793958102163" lon="17.621186311199">
        <ele>59</ele>
        <time>2017-10-14T16:51:08Z</time>
      </trkpt>
      <trkpt lat="59.793896243741" lon="17.621248001983">
        <ele>58.8</ele>
        <time>2017-10-14T16:51:09Z</time>
      </trkpt>
      <trkpt lat="59.793834469138" lon="17.621315979192">
        <ele>58.6</ele>
        <time>2017-10-14T16:51:10Z</time>
      </trkpt>
      <trkpt lat="59.793761714246" lon="17.621396780708">
        <ele>58.4</ele>
        <time>2017-10-14T16:51:11Z</time>
      </trkpt>
      <trkpt lat="59.793696251607" lon="17.62146199189">
        <ele>58</ele>
        <time>2017-10-14T16:51:12Z</time>
      </trkpt>
      <trkpt lat="59.793629112588" lon="17.621527538348">
        <ele>57.8</ele>
        <time>2017-10-14T16:51:13Z</time>
      </trkpt>
      <trkpt lat="59.793565493967" lon="17.621593755358">
        <ele>57.6</ele>
        <time>2017-10-14T16:51:14Z</time>
      </trkpt>
      <trkpt lat="59.79350321645" lon="17.621662486938">
        <ele>57.4</ele>
        <time>2017-10-14T16:51:15Z</time>
      </trkpt>
      <trkpt lat="59.793433479042" lon="17.62173608002">
        <ele>56.8</ele>
        <time>2017-10-14T16:51:16Z</time>
      </trkpt>
      <trkpt lat="59.793357455209" lon="17.62181906083">
        <ele>56.4</ele>
        <time>2017-10-14T16:51:17Z</time>
      </trkpt>
      <trkpt lat="59.79328696343" lon="17.621895168482">
        <ele>55.8</ele>
        <time>2017-10-14T16:51:18Z</time>
      </trkpt>
      <trkpt lat="59.793217226022" lon="17.621968091012">
        <ele>55.4</ele>
        <time>2017-10-14T16:51:19Z</time>
      </trkpt>
      <trkpt lat="59.793151260469" lon="17.62203782842">
        <ele>55</ele>
        <time>2017-10-14T16:51:20Z</time>
      </trkpt>
      <trkpt lat="59.793077248292" lon="17.622117205013">
        <ele>54.6</ele>
        <time>2017-10-14T16:51:21Z</time>
      </trkpt>
      <trkpt lat="59.793007678522" lon="17.62219624633">
        <ele>54.4</ele>
        <time>2017-10-14T16:51:22Z</time>
      </trkpt>
      <trkpt lat="59.792936348553" lon="17.622276125837">
        <ele>54.2</ele>
        <time>2017-10-14T16:51:23Z</time>
      </trkpt>
      <trkpt lat="59.792867616973" lon="17.62235214967">
        <ele>54</ele>
        <time>2017-10-14T16:51:24Z</time>
      </trkpt>
      <trkpt lat="59.79280081323" lon="17.622426329485">
        <ele>53.8</ele>
        <time>2017-10-14T16:51:25Z</time>
      </trkpt>
      <trkpt lat="59.792728225976" lon="17.622511741046">
        <ele>53.4</ele>
        <time>2017-10-14T16:51:26Z</time>
      </trkpt>
      <trkpt lat="59.792661506052" lon="17.622590363268">
        <ele>53.2</ele>
        <time>2017-10-14T16:51:27Z</time>
      </trkpt>
      <trkpt lat="59.792591517187" lon="17.62266479454">
        <ele>53</ele>
        <time>2017-10-14T16:51:28Z</time>
      </trkpt>
      <trkpt lat="59.792520103399" lon="17.622736124509">
        <ele>52.8</ele>
        <time>2017-10-14T16:51:29Z</time>
      </trkpt>
      <trkpt lat="59.792454892217" lon="17.62280309589">
        <ele>52.4</ele>
        <time>2017-10-14T16:51:30Z</time>
      </trkpt>
      <trkpt lat="59.792386076818" lon="17.622879790275">
        <ele>52.2</ele>
        <time>2017-10-14T16:51:31Z</time>
      </trkpt>
      <trkpt lat="59.792317596695" lon="17.622957155212">
        <ele>52</ele>
        <time>2017-10-14T16:51:32Z</time>
      </trkpt>
      <trkpt lat="59.792251714961" lon="17.623027395534">
        <ele>51.8</ele>
        <time>2017-10-14T16:51:33Z</time>
      </trkpt>
      <trkpt lat="59.792184240666" lon="17.623099060779">
        <ele>51.6</ele>
        <time>2017-10-14T16:51:34Z</time>
      </trkpt>
      <trkpt lat="59.792119532398" lon="17.623168798187">
        <ele>51.4</ele>
        <time>2017-10-14T16:51:35Z</time>
      </trkpt>
      <trkpt lat="59.7920489568" lon="17.62324482202">
        <ele>51.4</ele>
        <time>2017-10-14T16:51:36Z</time>
      </trkpt>
      <trkpt lat="59.791984248532" lon="17.623316571084">
        <ele>51.2</ele>
        <time>2017-10-14T16:51:37Z</time>
      </trkpt>
      <trkpt lat="59.791920881368" lon="17.623392594917">
        <ele>51.2</ele>
        <time>2017-10-14T16:51:38Z</time>
      </trkpt>
      <trkpt lat="59.791859106765" lon="17.623462835239">
        <ele>51.4</ele>
        <time>2017-10-14T16:51:39Z</time>
      </trkpt>
      <trkpt lat="59.791799008542" lon="17.623528800792">
        <ele>51.4</ele>
        <time>2017-10-14T16:51:40Z</time>
      </trkpt>
      <trkpt lat="59.791731115152" lon="17.623605578996">
        <ele>51.4</ele>
        <time>2017-10-14T16:51:41Z</time>
      </trkpt>
      <trkpt lat="59.791668586178" lon="17.623671293092">
        <ele>51.6</ele>
        <time>2017-10-14T16:51:42Z</time>
      </trkpt>
      <trkpt lat="59.791606224842" lon="17.623738851206">
        <ele>51.6</ele>
        <time>2017-10-14T16:51:43Z</time>
      </trkpt>
      <trkpt lat="59.791548976465" lon="17.623801044904">
        <ele>51.6</ele>
        <time>2017-10-14T16:51:44Z</time>
      </trkpt>
      <trkpt lat="59.79149239864" lon="17.623868686837">
        <ele>51.6</ele>
        <time>2017-10-14T16:51:45Z</time>
      </trkpt>
      <trkpt lat="59.791437748652" lon="17.623955355683">
        <ele>51.4</ele>
        <time>2017-10-14T16:51:46Z</time>
      </trkpt>
      <trkpt lat="59.791390558555" lon="17.624060464709">
        <ele>51.4</ele>
        <time>2017-10-14T16:51:47Z</time>
      </trkpt>
      <trkpt lat="59.791334232187" lon="17.624145792451">
        <ele>51.2</ele>
        <time>2017-10-14T16:51:48Z</time>
      </trkpt>
      <trkpt lat="59.791274888335" lon="17.624215948954">
        <ele>51</ele>
        <time>2017-10-14T16:51:49Z</time>
      </trkpt>
      <trkpt lat="59.791221244175" lon="17.624282417421">
        <ele>51</ele>
        <time>2017-10-14T16:51:50Z</time>
      </trkpt>
      <trkpt lat="59.791160140124" lon="17.62435039463">
        <ele>50.8</ele>
        <time>2017-10-14T16:51:51Z</time>
      </trkpt>
      <trkpt lat="59.791099958082" lon="17.624414851441">
        <ele>50.6</ele>
        <time>2017-10-14T16:51:52Z</time>
      </trkpt>
      <trkpt lat="59.791036674737" lon="17.62448618141">
        <ele>50.6</ele>
        <time>2017-10-14T16:51:53Z</time>
      </trkpt>
      <trkpt lat="59.790976325057" lon="17.62455491299">
        <ele>50.4</ele>
        <time>2017-10-14T16:51:54Z</time>
      </trkpt>
      <trkpt lat="59.790916897386" lon="17.624615765584">
        <ele>50.4</ele>
        <time>2017-10-14T16:51:55Z</time>
      </trkpt>
      <trkpt lat="59.790848752539" lon="17.624682736965">
        <ele>50.4</ele>
        <time>2017-10-14T16:51:56Z</time>
      </trkpt>
      <trkpt lat="59.790785301556" lon="17.624743757197">
        <ele>50.4</ele>
        <time>2017-10-14T16:51:57Z</time>
      </trkpt>
      <trkpt lat="59.790722353487" lon="17.62481223732">
        <ele>50.2</ele>
        <time>2017-10-14T16:51:58Z</time>
      </trkpt>
      <trkpt lat="59.790657309943" lon="17.624878873425">
        <ele>50.2</ele>
        <time>2017-10-14T16:51:59Z</time>
      </trkpt>
      <trkpt lat="59.790596457349" lon="17.624939474562">
        <ele>50</ele>
        <time>2017-10-14T16:52:00Z</time>
      </trkpt>
      <trkpt lat="59.790532503452" lon="17.625004350468">
        <ele>50</ele>
        <time>2017-10-14T16:52:01Z</time>
      </trkpt>
      <trkpt lat="59.790467459908" lon="17.625081128672">
        <ele>49.8</ele>
        <time>2017-10-14T16:52:02Z</time>
      </trkpt>
      <trkpt lat="59.790407110228" lon="17.625141478352">
        <ele>49.8</ele>
        <time>2017-10-14T16:52:03Z</time>
      </trkpt>
      <trkpt lat="59.790341479951" lon="17.625205180792">
        <ele>49.6</ele>
        <time>2017-10-14T16:52:04Z</time>
      </trkpt>
      <trkpt lat="59.790283141927" lon="17.625268715594">
        <ele>49.8</ele>
        <time>2017-10-14T16:52:05Z</time>
      </trkpt>
      <trkpt lat="59.790217344012" lon="17.625340380839">
        <ele>49.8</ele>
        <time>2017-10-14T16:52:06Z</time>
      </trkpt>
      <trkpt lat="59.790154228305" lon="17.625405424383">
        <ele>49.8</ele>
        <time>2017-10-14T16:52:07Z</time>
      </trkpt>
      <trkpt lat="59.790091196417" lon="17.625470970841">
        <ele>49.8</ele>
        <time>2017-10-14T16:52:08Z</time>
      </trkpt>
      <trkpt lat="59.79003143347" lon="17.625539031869">
        <ele>49.8</ele>
        <time>2017-10-14T16:52:09Z</time>
      </trkpt>
      <trkpt lat="59.789973095446" lon="17.625605248879">
        <ele>49.8</ele>
        <time>2017-10-14T16:52:10Z</time>
      </trkpt>
      <trkpt lat="59.789906124065" lon="17.625675908296">
        <ele>49.8</ele>
        <time>2017-10-14T16:52:11Z</time>
      </trkpt>
      <trkpt lat="59.789843427453" lon="17.625738269632">
        <ele>49.6</ele>
        <time>2017-10-14T16:52:12Z</time>
      </trkpt>
      <trkpt lat="59.789782574859" lon="17.625802810262">
        <ele>49.4</ele>
        <time>2017-10-14T16:52:13Z</time>
      </trkpt>
      <trkpt lat="59.789725577939" lon="17.625867769987">
        <ele>49.4</ele>
        <time>2017-10-14T16:52:14Z</time>
      </trkpt>
      <trkpt lat="59.789672771969" lon="17.625927365296">
        <ele>49.2</ele>
        <time>2017-10-14T16:52:15Z</time>
      </trkpt>
      <trkpt lat="59.789608818072" lon="17.625996013057">
        <ele>49</ele>
        <time>2017-10-14T16:52:16Z</time>
      </trkpt>
      <trkpt lat="59.789541762872" lon="17.626066504836">
        <ele>49</ele>
        <time>2017-10-14T16:52:17Z</time>
      </trkpt>
      <trkpt lat="59.789479820631" lon="17.626133476217">
        <ele>49</ele>
        <time>2017-10-14T16:52:18Z</time>
      </trkpt>
      <trkpt lat="59.789418548942" lon="17.626206314928">
        <ele>49</ele>
        <time>2017-10-14T16:52:19Z</time>
      </trkpt>
      <trkpt lat="59.789362893126" lon="17.626275381784">
        <ele>48.8</ele>
        <time>2017-10-14T16:52:20Z</time>
      </trkpt>
      <trkpt lat="59.789300615609" lon="17.626347130848">
        <ele>48.8</ele>
        <time>2017-10-14T16:52:21Z</time>
      </trkpt>
      <trkpt lat="59.789235069151" lon="17.6264148566">
        <ele>48.6</ele>
        <time>2017-10-14T16:52:22Z</time>
      </trkpt>
      <trkpt lat="59.789170779978" lon="17.626483169085">
        <ele>48.6</ele>
        <time>2017-10-14T16:52:23Z</time>
      </trkpt>
      <trkpt lat="59.789108418642" lon="17.626549134638">
        <ele>48.4</ele>
        <time>2017-10-14T16:52:24Z</time>
      </trkpt>
      <trkpt lat="59.789048571876" lon="17.626607975576">
        <ele>48.4</ele>
        <time>2017-10-14T16:52:25Z</time>
      </trkpt>
      <trkpt lat="59.78898201959" lon="17.626675952785">
        <ele>48.4</ele>
        <time>2017-10-14T16:52:26Z</time>
      </trkpt>
      <trkpt lat="59.788921921367" lon="17.626742337433">
        <ele>48.4</ele>
        <time>2017-10-14T16:52:27Z</time>
      </trkpt>
      <trkpt lat="59.788861739325" lon="17.626813248307">
        <ele>48.4</ele>
        <time>2017-10-14T16:52:28Z</time>
      </trkpt>
      <trkpt lat="59.788799964722" lon="17.626889439778">
        <ele>48.4</ele>
        <time>2017-10-14T16:52:29Z</time>
      </trkpt>
      <trkpt lat="59.788742716345" lon="17.626958087539">
        <ele>48.6</ele>
        <time>2017-10-14T16:52:30Z</time>
      </trkpt>
      <trkpt lat="59.78867775662" lon="17.627036123028">
        <ele>48.6</ele>
        <time>2017-10-14T16:52:31Z</time>
      </trkpt>
      <trkpt lat="59.788608689764" lon="17.627116170173">
        <ele>48.6</ele>
        <time>2017-10-14T16:52:32Z</time>
      </trkpt>
      <trkpt lat="59.788542640392" lon="17.627191439635">
        <ele>48.6</ele>
        <time>2017-10-14T16:52:33Z</time>
      </trkpt>
      <trkpt lat="59.788476758658" lon="17.627265535631">
        <ele>48.4</ele>
        <time>2017-10-14T16:52:34Z</time>
      </trkpt>
      <trkpt lat="59.788413642951" lon="17.627330914451">
        <ele>48</ele>
        <time>2017-10-14T16:52:35Z</time>
      </trkpt>
      <trkpt lat="59.788344576095" lon="17.62740308261">
        <ele>47.6</ele>
        <time>2017-10-14T16:52:36Z</time>
      </trkpt>
      <trkpt lat="59.788281125112" lon="17.627470389267">
        <ele>47.2</ele>
        <time>2017-10-14T16:52:37Z</time>
      </trkpt>
      <trkpt lat="59.788219685785" lon="17.627537109191">
        <ele>47</ele>
        <time>2017-10-14T16:52:38Z</time>
      </trkpt>
      <trkpt lat="59.788162437408" lon="17.627601146907">
        <ele>47.2</ele>
        <time>2017-10-14T16:52:39Z</time>
      </trkpt>
      <trkpt lat="59.78810527285" lon="17.627663508243">
        <ele>47.6</ele>
        <time>2017-10-14T16:52:40Z</time>
      </trkpt>
      <trkpt lat="59.788036205994" lon="17.627739532076">
        <ele>47.8</ele>
        <time>2017-10-14T16:52:41Z</time>
      </trkpt>
      <trkpt lat="59.787972503554" lon="17.627808682751">
        <ele>48</ele>
        <time>2017-10-14T16:52:42Z</time>
      </trkpt>
      <trkpt lat="59.787906286544" lon="17.62787582177">
        <ele>48.2</ele>
        <time>2017-10-14T16:52:43Z</time>
      </trkpt>
      <trkpt lat="59.78784291938" lon="17.627938015468">
        <ele>48</ele>
        <time>2017-10-14T16:52:44Z</time>
      </trkpt>
      <trkpt lat="59.787783994623" lon="17.627997778415">
        <ele>47.8</ele>
        <time>2017-10-14T16:52:45Z</time>
      </trkpt>
      <trkpt lat="59.787717526156" lon="17.62806525271">
        <ele>47.8</ele>
        <time>2017-10-14T16:52:46Z</time>
      </trkpt>
      <trkpt lat="59.78764510654" lon="17.628139432525">
        <ele>47.4</ele>
        <time>2017-10-14T16:52:47Z</time>
      </trkpt>
      <trkpt lat="59.787580062996" lon="17.628206403906">
        <ele>47.4</ele>
        <time>2017-10-14T16:52:48Z</time>
      </trkpt>
      <trkpt lat="59.787522227886" lon="17.628262897912">
        <ele>47.2</ele>
        <time>2017-10-14T16:52:49Z</time>
      </trkpt>
      <trkpt lat="59.787458022532" lon="17.628333138234">
        <ele>47.2</ele>
        <time>2017-10-14T16:52:50Z</time>
      </trkpt>
      <trkpt lat="59.787396583205" lon="17.628405725488">
        <ele>47.2</ele>
        <time>2017-10-14T16:52:51Z</time>
      </trkpt>
      <trkpt lat="59.787335898249" lon="17.628477390733">
        <ele>47.2</ele>
        <time>2017-10-14T16:52:52Z</time>
      </trkpt>
      <trkpt lat="59.787275045655" lon="17.628541596087">
        <ele>47</ele>
        <time>2017-10-14T16:52:53Z</time>
      </trkpt>
      <trkpt lat="59.787212935776" lon="17.628594318238">
        <ele>47.2</ele>
        <time>2017-10-14T16:52:54Z</time>
      </trkpt>
      <trkpt lat="59.787158537245" lon="17.628657350126">
        <ele>47.2</ele>
        <time>2017-10-14T16:52:55Z</time>
      </trkpt>
      <trkpt lat="59.787105479818" lon="17.628747036456">
        <ele>47.4</ele>
        <time>2017-10-14T16:52:56Z</time>
      </trkpt>
      <trkpt lat="59.787059295549" lon="17.628838482985">
        <ele>47.4</ele>
        <time>2017-10-14T16:52:57Z</time>
      </trkpt>
      <trkpt lat="59.787012692185" lon="17.628934539559">
        <ele>47.4</ele>
        <time>2017-10-14T16:52:58Z</time>
      </trkpt>
      <trkpt lat="59.786967346106" lon="17.629030596133">
        <ele>47.4</ele>
        <time>2017-10-14T16:52:59Z</time>
      </trkpt>
      <trkpt lat="59.786926526253" lon="17.629117851712">
        <ele>47.2</ele>
        <time>2017-10-14T16:53:00Z</time>
      </trkpt>
      <trkpt lat="59.786886376952" lon="17.629216674313">
        <ele>47</ele>
        <time>2017-10-14T16:53:01Z</time>
      </trkpt>
      <trkpt lat="59.786844383633" lon="17.629328907954">
        <ele>46.8</ele>
        <time>2017-10-14T16:53:02Z</time>
      </trkpt>
      <trkpt lat="59.786806162169" lon="17.629427395279">
        <ele>46.6</ele>
        <time>2017-10-14T16:53:03Z</time>
      </trkpt>
      <trkpt lat="59.786767102515" lon="17.62953124702">
        <ele>46.4</ele>
        <time>2017-10-14T16:53:04Z</time>
      </trkpt>
      <trkpt lat="59.786732988182" lon="17.629631578363">
        <ele>46.2</ele>
        <time>2017-10-14T16:53:05Z</time>
      </trkpt>
      <trkpt lat="59.78669879003" lon="17.629747835316">
        <ele>45.8</ele>
        <time>2017-10-14T16:53:06Z</time>
      </trkpt>
      <trkpt lat="59.786668866647" lon="17.629856548559">
        <ele>45.4</ele>
        <time>2017-10-14T16:53:07Z</time>
      </trkpt>
      <trkpt lat="59.786642547481" lon="17.629968279286">
        <ele>45.4</ele>
        <time>2017-10-14T16:53:08Z</time>
      </trkpt>
      <trkpt lat="59.786620754541" lon="17.630069281181">
        <ele>45.4</ele>
        <time>2017-10-14T16:53:09Z</time>
      </trkpt>
      <trkpt lat="59.786601057076" lon="17.630165924488">
        <ele>45.4</ele>
        <time>2017-10-14T16:53:10Z</time>
      </trkpt>
      <trkpt lat="59.786579850869" lon="17.630277319939">
        <ele>45.4</ele>
        <time>2017-10-14T16:53:11Z</time>
      </trkpt>
      <trkpt lat="59.786561159232" lon="17.630372035409">
        <ele>45.6</ele>
        <time>2017-10-14T16:53:12Z</time>
      </trkpt>
      <trkpt lat="59.786544646889" lon="17.630469349268">
        <ele>46</ele>
        <time>2017-10-14T16:53:13Z</time>
      </trkpt>
      <trkpt lat="59.786528469822" lon="17.630566327851">
        <ele>46.4</ele>
        <time>2017-10-14T16:53:14Z</time>
      </trkpt>
      <trkpt lat="59.78651438823" lon="17.630651739412">
        <ele>46.6</ele>
        <time>2017-10-14T16:53:15Z</time>
      </trkpt>
      <trkpt lat="59.786498211163" lon="17.630747795986">
        <ele>46.6</ele>
        <time>2017-10-14T16:53:16Z</time>
      </trkpt>
      <trkpt lat="59.786482872286" lon="17.630844271655">
        <ele>46.8</ele>
        <time>2017-10-14T16:53:17Z</time>
      </trkpt>
      <trkpt lat="59.786470383255" lon="17.630930018492">
        <ele>47</ele>
        <time>2017-10-14T16:53:18Z</time>
      </trkpt>
      <trkpt lat="59.786460576432" lon="17.631019453365">
        <ele>47.2</ele>
        <time>2017-10-14T16:53:19Z</time>
      </trkpt>
      <trkpt lat="59.78645236217" lon="17.631097991768">
        <ele>47.4</ele>
        <time>2017-10-14T16:53:20Z</time>
      </trkpt>
      <trkpt lat="59.786443644994" lon="17.631178541827">
        <ele>47.6</ele>
        <time>2017-10-14T16:53:21Z</time>
      </trkpt>
      <trkpt lat="59.786435933646" lon="17.631256828773">
        <ele>47.8</ele>
        <time>2017-10-14T16:53:22Z</time>
      </trkpt>
      <trkpt lat="59.786429647221" lon="17.631343329981">
        <ele>48</ele>
        <time>2017-10-14T16:53:23Z</time>
      </trkpt>
      <trkpt lat="59.786422271149" lon="17.63142220366">
        <ele>48.2</ele>
        <time>2017-10-14T16:53:24Z</time>
      </trkpt>
      <trkpt lat="59.786419169846" lon="17.631495880561">
        <ele>48.6</ele>
        <time>2017-10-14T16:53:25Z</time>
      </trkpt>
      <trkpt lat="59.78642051095" lon="17.63158229795">
        <ele>48.8</ele>
        <time>2017-10-14T16:53:26Z</time>
      </trkpt>
      <trkpt lat="59.786420678588" lon="17.63166360238">
        <ele>49</ele>
        <time>2017-10-14T16:53:27Z</time>
      </trkpt>
      <trkpt lat="59.786417409647" lon="17.631749265398">
        <ele>49.2</ele>
        <time>2017-10-14T16:53:28Z</time>
      </trkpt>
      <trkpt lat="59.786410201213" lon="17.631833252036">
        <ele>49.2</ele>
        <time>2017-10-14T16:53:29Z</time>
      </trkpt>
      <trkpt lat="59.786404752978" lon="17.631906006928">
        <ele>49.4</ele>
        <time>2017-10-14T16:53:30Z</time>
      </trkpt>
      <trkpt lat="59.786400645847" lon="17.631984964426">
        <ele>49.4</ele>
        <time>2017-10-14T16:53:31Z</time>
      </trkpt>
      <trkpt lat="59.786399137105" lon="17.632060317707">
        <ele>49.6</ele>
        <time>2017-10-14T16:53:32Z</time>
      </trkpt>
      <trkpt lat="59.786400813485" lon="17.632134162246">
        <ele>49.8</ele>
        <time>2017-10-14T16:53:33Z</time>
      </trkpt>
      <trkpt lat="59.786401567856" lon="17.632207168595">
        <ele>50</ele>
        <time>2017-10-14T16:53:34Z</time>
      </trkpt>
      <trkpt lat="59.786401903132" lon="17.632277576555">
        <ele>50.2</ele>
        <time>2017-10-14T16:53:35Z</time>
      </trkpt>
      <trkpt lat="59.786404166245" lon="17.632356450234">
        <ele>50.2</ele>
        <time>2017-10-14T16:53:36Z</time>
      </trkpt>
      <trkpt lat="59.786407351367" lon="17.632429372764">
        <ele>50.6</ele>
        <time>2017-10-14T16:53:37Z</time>
      </trkpt>
      <trkpt lat="59.786410871765" lon="17.632503384941">
        <ele>50.8</ele>
        <time>2017-10-14T16:53:38Z</time>
      </trkpt>
      <trkpt lat="59.786415900905" lon="17.632575217824">
        <ele>51</ele>
        <time>2017-10-14T16:53:39Z</time>
      </trkpt>
      <trkpt lat="59.786423444615" lon="17.632643949404">
        <ele>51.2</ele>
        <time>2017-10-14T16:53:40Z</time>
      </trkpt>
      <trkpt lat="59.786429228126" lon="17.632727097852">
        <ele>51.4</ele>
        <time>2017-10-14T16:53:41Z</time>
      </trkpt>
      <trkpt lat="59.786432413248" lon="17.632803792237">
        <ele>51.8</ele>
        <time>2017-10-14T16:53:42Z</time>
      </trkpt>
      <trkpt lat="59.786435430732" lon="17.632879313156">
        <ele>52</ele>
        <time>2017-10-14T16:53:43Z</time>
      </trkpt>
      <trkpt lat="59.786440543691" lon="17.632954163523">
        <ele>52.2</ele>
        <time>2017-10-14T16:53:44Z</time>
      </trkpt>
      <trkpt lat="59.786448338858" lon="17.633024990578">
        <ele>52.4</ele>
        <time>2017-10-14T16:53:45Z</time>
      </trkpt>
      <trkpt lat="59.786456217844" lon="17.633102523153">
        <ele>52.6</ele>
        <time>2017-10-14T16:53:46Z</time>
      </trkpt>
      <trkpt lat="59.786467198133" lon="17.633181899746">
        <ele>52.8</ele>
        <time>2017-10-14T16:53:47Z</time>
      </trkpt>
      <trkpt lat="59.786477004956" lon="17.633257923579">
        <ele>52.8</ele>
        <time>2017-10-14T16:53:48Z</time>
      </trkpt>
      <trkpt lat="59.78648840434" lon="17.633335288516">
        <ele>53</ele>
        <time>2017-10-14T16:53:49Z</time>
      </trkpt>
      <trkpt lat="59.786499384629" lon="17.633409216874">
        <ele>53.2</ele>
        <time>2017-10-14T16:53:50Z</time>
      </trkpt>
      <trkpt lat="59.786511789841" lon="17.63348750382">
        <ele>53.2</ele>
        <time>2017-10-14T16:53:51Z</time>
      </trkpt>
      <trkpt lat="59.78652444651" lon="17.633565958404">
        <ele>53.4</ele>
        <time>2017-10-14T16:53:52Z</time>
      </trkpt>
      <trkpt lat="59.786537270817" lon="17.633639132391">
        <ele>53.4</ele>
        <time>2017-10-14T16:53:53Z</time>
      </trkpt>
      <trkpt lat="59.78655126859" lon="17.633715240043">
        <ele>53.4</ele>
        <time>2017-10-14T16:53:54Z</time>
      </trkpt>
      <trkpt lat="59.786564763449" lon="17.633785983279">
        <ele>53.6</ele>
        <time>2017-10-14T16:53:55Z</time>
      </trkpt>
      <trkpt lat="59.786580856697" lon="17.633866281881">
        <ele>53.6</ele>
        <time>2017-10-14T16:53:56Z</time>
      </trkpt>
      <trkpt lat="59.786595776479" lon="17.63394264099">
        <ele>53.6</ele>
        <time>2017-10-14T16:53:57Z</time>
      </trkpt>
      <trkpt lat="59.786612624098" lon="17.634019000099">
        <ele>53.8</ele>
        <time>2017-10-14T16:53:58Z</time>
      </trkpt>
      <trkpt lat="59.786630393726" lon="17.634102316185">
        <ele>54</ele>
        <time>2017-10-14T16:53:59Z</time>
      </trkpt>
      <trkpt lat="59.786645732603" lon="17.634179429665">
        <ele>54.2</ele>
        <time>2017-10-14T16:54:00Z</time>
      </trkpt>
      <trkpt lat="59.786662915498" lon="17.634262745751">
        <ele>54.4</ele>
        <time>2017-10-14T16:54:01Z</time>
      </trkpt>
      <trkpt lat="59.786682193868" lon="17.63435083952">
        <ele>54.4</ele>
        <time>2017-10-14T16:54:02Z</time>
      </trkpt>
      <trkpt lat="59.786694515261" lon="17.634412530304">
        <ele>54.6</ele>
        <time>2017-10-14T16:54:03Z</time>
      </trkpt>
      <trkpt lat="59.786718319857" lon="17.634518728977">
        <ele>54.6</ele>
        <time>2017-10-14T16:54:04Z</time>
      </trkpt>
      <trkpt lat="59.78673650858" lon="17.634600703959">
        <ele>54.8</ele>
        <time>2017-10-14T16:54:05Z</time>
      </trkpt>
      <trkpt lat="59.786755870769" lon="17.634691647574">
        <ele>55</ele>
        <time>2017-10-14T16:54:06Z</time>
      </trkpt>
      <trkpt lat="59.786773556578" lon="17.63477747823">
        <ele>55.4</ele>
        <time>2017-10-14T16:54:07Z</time>
      </trkpt>
      <trkpt lat="59.786791493844" lon="17.634861129592">
        <ele>55.6</ele>
        <time>2017-10-14T16:54:08Z</time>
      </trkpt>
      <trkpt lat="59.786811275128" lon="17.634944361859">
        <ele>55.8</ele>
        <time>2017-10-14T16:54:09Z</time>
      </trkpt>
      <trkpt lat="59.786830469679" lon="17.635025163375">
        <ele>55.8</ele>
        <time>2017-10-14T16:54:10Z</time>
      </trkpt>
      <trkpt lat="59.786853519904" lon="17.635118118646">
        <ele>56</ele>
        <time>2017-10-14T16:54:11Z</time>
      </trkpt>
      <trkpt lat="59.786876989224" lon="17.635200345085">
        <ele>56</ele>
        <time>2017-10-14T16:54:12Z</time>
      </trkpt>
      <trkpt lat="59.78690163201" lon="17.635281649515">
        <ele>56</ele>
        <time>2017-10-14T16:54:13Z</time>
      </trkpt>
      <trkpt lat="59.786925771882" lon="17.635363037764">
        <ele>56</ele>
        <time>2017-10-14T16:54:14Z</time>
      </trkpt>
      <trkpt lat="59.786947648641" lon="17.635437804312">
        <ele>56</ele>
        <time>2017-10-14T16:54:15Z</time>
      </trkpt>
      <trkpt lat="59.786973129617" lon="17.635519946932">
        <ele>56</ele>
        <time>2017-10-14T16:54:16Z</time>
      </trkpt>
      <trkpt lat="59.787001041344" lon="17.635606029045">
        <ele>56</ele>
        <time>2017-10-14T16:54:17Z</time>
      </trkpt>
      <trkpt lat="59.78702652232" lon="17.635685824733">
        <ele>56.2</ele>
        <time>2017-10-14T16:54:18Z</time>
      </trkpt>
      <trkpt lat="59.78705250621" lon="17.635763441127">
        <ele>56</ele>
        <time>2017-10-14T16:54:19Z</time>
      </trkpt>
      <trkpt lat="59.787077819548" lon="17.635834100544">
        <ele>56.2</ele>
        <time>2017-10-14T16:54:20Z</time>
      </trkpt>
      <trkpt lat="59.78710531218" lon="17.6359115493">
        <ele>56.4</ele>
        <time>2017-10-14T16:54:21Z</time>
      </trkpt>
      <trkpt lat="59.787136073753" lon="17.635980113242">
        <ele>56.6</ele>
        <time>2017-10-14T16:54:22Z</time>
      </trkpt>
      <trkpt lat="59.787168092611" lon="17.636054628333">
        <ele>57</ele>
        <time>2017-10-14T16:54:23Z</time>
      </trkpt>
      <trkpt lat="59.787195166148" lon="17.636129311062">
        <ele>57.2</ele>
        <time>2017-10-14T16:54:24Z</time>
      </trkpt>
      <trkpt lat="59.787217378183" lon="17.63618982838">
        <ele>57.4</ele>
        <time>2017-10-14T16:54:25Z</time>
      </trkpt>
      <trkpt lat="59.78725199543" lon="17.636276329588">
        <ele>57.4</ele>
        <time>2017-10-14T16:54:26Z</time>
      </trkpt>
      <trkpt lat="59.787277811682" lon="17.636345480263">
        <ele>57.6</ele>
        <time>2017-10-14T16:54:27Z</time>
      </trkpt>
      <trkpt lat="59.787308237979" lon="17.636411864911">
        <ele>57.8</ele>
        <time>2017-10-14T16:54:28Z</time>
      </trkpt>
      <trkpt lat="59.787339921561" lon="17.636478584835">
        <ele>58</ele>
        <time>2017-10-14T16:54:29Z</time>
      </trkpt>
      <trkpt lat="59.787367749469" lon="17.636536671402">
        <ele>58.2</ele>
        <time>2017-10-14T16:54:30Z</time>
      </trkpt>
      <trkpt lat="59.787398175766" lon="17.636595931435">
        <ele>58.4</ele>
        <time>2017-10-14T16:54:31Z</time>
      </trkpt>
      <trkpt lat="59.78742969171" lon="17.636655945839">
        <ele>58.8</ele>
        <time>2017-10-14T16:54:32Z</time>
      </trkpt>
      <trkpt lat="59.787453915401" lon="17.63671034437">
        <ele>59</ele>
        <time>2017-10-14T16:54:33Z</time>
      </trkpt>
      <trkpt lat="59.787478139092" lon="17.636766670738">
        <ele>59.2</ele>
        <time>2017-10-14T16:54:34Z</time>
      </trkpt>
      <trkpt lat="59.787502781878" lon="17.636824505848">
        <ele>59.2</ele>
        <time>2017-10-14T16:54:35Z</time>
      </trkpt>
      <trkpt lat="59.787530106872" lon="17.636888208288">
        <ele>59.4</ele>
        <time>2017-10-14T16:54:36Z</time>
      </trkpt>
      <trkpt lat="59.787555755486" lon="17.636940678982">
        <ele>59.6</ele>
        <time>2017-10-14T16:54:37Z</time>
      </trkpt>
      <trkpt lat="59.787581236462" lon="17.636993736409">
        <ele>59.8</ele>
        <time>2017-10-14T16:54:38Z</time>
      </trkpt>
      <trkpt lat="59.787610070198" lon="17.637049559863">
        <ele>60</ele>
        <time>2017-10-14T16:54:39Z</time>
      </trkpt>
      <trkpt lat="59.787638065744" lon="17.637102365833">
        <ele>60</ele>
        <time>2017-10-14T16:54:40Z</time>
      </trkpt>
      <trkpt lat="59.78766773767" lon="17.637167074101">
        <ele>60.2</ele>
        <time>2017-10-14T16:54:41Z</time>
      </trkpt>
      <trkpt lat="59.787696319949" lon="17.6372275076">
        <ele>60.4</ele>
        <time>2017-10-14T16:54:42Z</time>
      </trkpt>
      <trkpt lat="59.787726662427" lon="17.637285761805">
        <ele>60.4</ele>
        <time>2017-10-14T16:54:43Z</time>
      </trkpt>
      <trkpt lat="59.787754406516" lon="17.637345860028">
        <ele>60.6</ele>
        <time>2017-10-14T16:54:44Z</time>
      </trkpt>
      <trkpt lat="59.787778127293" lon="17.637398833636">
        <ele>60.6</ele>
        <time>2017-10-14T16:54:45Z</time>
      </trkpt>
      <trkpt lat="59.787805703744" lon="17.637458764221">
        <ele>60.8</ele>
        <time>2017-10-14T16:54:46Z</time>
      </trkpt>
      <trkpt lat="59.787836884412" lon="17.637519449177">
        <ele>61</ele>
        <time>2017-10-14T16:54:47Z</time>
      </trkpt>
      <trkpt lat="59.787864796139" lon="17.637572506604">
        <ele>61.2</ele>
        <time>2017-10-14T16:54:48Z</time>
      </trkpt>
      <trkpt lat="59.787891031486" lon="17.637627408049">
        <ele>61.4</ele>
        <time>2017-10-14T16:54:49Z</time>
      </trkpt>
      <trkpt lat="59.787916093367" lon="17.637681136028">
        <ele>61.6</ele>
        <time>2017-10-14T16:54:50Z</time>
      </trkpt>
      <trkpt lat="59.787943250723" lon="17.637740228423">
        <ele>61.8</ele>
        <time>2017-10-14T16:54:51Z</time>
      </trkpt>
      <trkpt lat="59.787970827174" lon="17.637798901723">
        <ele>62</ele>
        <time>2017-10-14T16:54:52Z</time>
      </trkpt>
      <trkpt lat="59.787999493272" lon="17.637859251403">
        <ele>62.2</ele>
        <time>2017-10-14T16:54:53Z</time>
      </trkpt>
      <trkpt lat="59.788028327008" lon="17.637918930531">
        <ele>62.4</ele>
        <time>2017-10-14T16:54:54Z</time>
      </trkpt>
      <trkpt lat="59.788055065269" lon="17.637980621315">
        <ele>62.6</ele>
        <time>2017-10-14T16:54:55Z</time>
      </trkpt>
      <trkpt lat="59.78808599448" lon="17.638047341239">
        <ele>62.8</ele>
        <time>2017-10-14T16:54:56Z</time>
      </trkpt>
      <trkpt lat="59.788113151836" lon="17.638107355643">
        <ele>62.8</ele>
        <time>2017-10-14T16:54:57Z</time>
      </trkpt>
      <trkpt lat="59.788143913409" lon="17.638169800798">
        <ele>63</ele>
        <time>2017-10-14T16:54:58Z</time>
      </trkpt>
      <trkpt lat="59.78817400443" lon="17.638232413591">
        <ele>63</ele>
        <time>2017-10-14T16:54:59Z</time>
      </trkpt>
      <trkpt lat="59.788202083795" lon="17.638297624773">
        <ele>63.2</ele>
        <time>2017-10-14T16:55:00Z</time>
      </trkpt>
      <trkpt lat="59.788235527576" lon="17.63836493143">
        <ele>63.2</ele>
        <time>2017-10-14T16:55:01Z</time>
      </trkpt>
      <trkpt lat="59.788272827031" lon="17.638431818992">
        <ele>63.4</ele>
        <time>2017-10-14T16:55:02Z</time>
      </trkpt>
      <trkpt lat="59.788301660767" lon="17.638495772889">
        <ele>63.4</ele>
        <time>2017-10-14T16:55:03Z</time>
      </trkpt>
      <trkpt lat="59.788333511987" lon="17.638571377627">
        <ele>63.6</ele>
        <time>2017-10-14T16:55:04Z</time>
      </trkpt>
      <trkpt lat="59.788362932456" lon="17.638645054528">
        <ele>63.8</ele>
        <time>2017-10-14T16:55:05Z</time>
      </trkpt>
      <trkpt lat="59.788396376237" lon="17.63871697123">
        <ele>63.8</ele>
        <time>2017-10-14T16:55:06Z</time>
      </trkpt>
      <trkpt lat="59.788430239113" lon="17.638789474665">
        <ele>64</ele>
        <time>2017-10-14T16:55:07Z</time>
      </trkpt>
      <trkpt lat="59.788463347618" lon="17.63885527258">
        <ele>64</ele>
        <time>2017-10-14T16:55:08Z</time>
      </trkpt>
      <trkpt lat="59.78850089853" lon="17.63892735692">
        <ele>64</ele>
        <time>2017-10-14T16:55:09Z</time>
      </trkpt>
      <trkpt lat="59.788534593768" lon="17.638993993025">
        <ele>64</ele>
        <time>2017-10-14T16:55:10Z</time>
      </trkpt>
      <trkpt lat="59.788570719757" lon="17.639072196152">
        <ele>64.2</ele>
        <time>2017-10-14T16:55:11Z</time>
      </trkpt>
      <trkpt lat="59.7886039959" lon="17.639146627424">
        <ele>64.2</ele>
        <time>2017-10-14T16:55:12Z</time>
      </trkpt>
      <trkpt lat="59.788636350034" lon="17.639223908542">
        <ele>64.2</ele>
        <time>2017-10-14T16:55:13Z</time>
      </trkpt>
      <trkpt lat="59.78866937472" lon="17.639291299018">
        <ele>64.4</ele>
        <time>2017-10-14T16:55:14Z</time>
      </trkpt>
      <trkpt lat="59.788701812673" lon="17.639344524083">
        <ele>64.4</ele>
        <time>2017-10-14T16:55:15Z</time>
      </trkpt>
      <trkpt lat="59.788741123784" lon="17.639394983121">
        <ele>64.6</ele>
        <time>2017-10-14T16:55:16Z</time>
      </trkpt>
      <trkpt lat="59.788778507058" lon="17.639428091626">
        <ele>64.6</ele>
        <time>2017-10-14T16:55:17Z</time>
      </trkpt>
      <trkpt lat="59.788814549228" lon="17.639474024438">
        <ele>64.6</ele>
        <time>2017-10-14T16:55:18Z</time>
      </trkpt>
      <trkpt lat="59.788842377136" lon="17.639530686082">
        <ele>64.8</ele>
        <time>2017-10-14T16:55:19Z</time>
      </trkpt>
      <trkpt lat="59.788861655506" lon="17.639592376866">
        <ele>65</ele>
        <time>2017-10-14T16:55:20Z</time>
      </trkpt>
      <trkpt lat="59.788879928048" lon="17.639666891957">
        <ele>65</ele>
        <time>2017-10-14T16:55:21Z</time>
      </trkpt>
      <trkpt lat="59.788896188934" lon="17.639736880822">
        <ele>65</ele>
        <time>2017-10-14T16:55:22Z</time>
      </trkpt>
      <trkpt lat="59.788914796752" lon="17.639802930194">
        <ele>65.2</ele>
        <time>2017-10-14T16:55:23Z</time>
      </trkpt>
      <trkpt lat="59.788939020443" lon="17.639876439457">
        <ele>65.4</ele>
        <time>2017-10-14T16:55:24Z</time>
      </trkpt>
      <trkpt lat="59.788963076496" lon="17.639940980087">
        <ele>65.6</ele>
        <time>2017-10-14T16:55:25Z</time>
      </trkpt>
      <trkpt lat="59.788990904404" lon="17.640017339196">
        <ele>65.6</ele>
        <time>2017-10-14T16:55:26Z</time>
      </trkpt>
      <trkpt lat="59.789016217742" lon="17.640090010269">
        <ele>65.8</ele>
        <time>2017-10-14T16:55:27Z</time>
      </trkpt>
      <trkpt lat="59.789037591587" lon="17.640169051586">
        <ele>65.8</ele>
        <time>2017-10-14T16:55:28Z</time>
      </trkpt>
      <trkpt lat="59.789057037595" lon="17.640256474803">
        <ele>66</ele>
        <time>2017-10-14T16:55:29Z</time>
      </trkpt>
      <trkpt lat="59.789075226318" lon="17.640336102853">
        <ele>66</ele>
        <time>2017-10-14T16:55:30Z</time>
      </trkpt>
      <trkpt lat="59.789096683982" lon="17.640425118631">
        <ele>66.2</ele>
        <time>2017-10-14T16:55:31Z</time>
      </trkpt>
      <trkpt lat="59.789115794714" lon="17.640516397522">
        <ele>66.2</ele>
        <time>2017-10-14T16:55:32Z</time>
      </trkpt>
      <trkpt lat="59.789132558514" lon="17.640604491291">
        <ele>66.4</ele>
        <time>2017-10-14T16:55:33Z</time>
      </trkpt>
      <trkpt lat="59.789146807744" lon="17.64069929058">
        <ele>66.2</ele>
        <time>2017-10-14T16:55:34Z</time>
      </trkpt>
      <trkpt lat="59.789160302603" lon="17.640793000222">
        <ele>66</ele>
        <time>2017-10-14T16:55:35Z</time>
      </trkpt>
      <trkpt lat="59.789171031435" lon="17.640893666841">
        <ele>66</ele>
        <time>2017-10-14T16:55:36Z</time>
      </trkpt>
      <trkpt lat="59.789178575145" lon="17.640988717587">
        <ele>65.8</ele>
        <time>2017-10-14T16:55:37Z</time>
      </trkpt>
      <trkpt lat="59.789183520466" lon="17.641077649546">
        <ele>65.8</ele>
        <time>2017-10-14T16:55:38Z</time>
      </trkpt>
      <trkpt lat="59.789190812719" lon="17.641182423296">
        <ele>65.8</ele>
        <time>2017-10-14T16:55:39Z</time>
      </trkpt>
      <trkpt lat="59.789196847687" lon="17.641280323888">
        <ele>65.8</ele>
        <time>2017-10-14T16:55:40Z</time>
      </trkpt>
      <trkpt lat="59.789200116628" lon="17.641395658832">
        <ele>65.8</ele>
        <time>2017-10-14T16:55:41Z</time>
      </trkpt>
      <trkpt lat="59.789197015325" lon="17.64149808565">
        <ele>65.8</ele>
        <time>2017-10-14T16:55:42Z</time>
      </trkpt>
      <trkpt lat="59.789193746384" lon="17.641606547436">
        <ele>65.8</ele>
        <time>2017-10-14T16:55:43Z</time>
      </trkpt>
      <trkpt lat="59.789189220158" lon="17.641708974254">
        <ele>65.8</ele>
        <time>2017-10-14T16:55:44Z</time>
      </trkpt>
      <trkpt lat="59.789181844086" lon="17.641802180982">
        <ele>65.6</ele>
        <time>2017-10-14T16:55:45Z</time>
      </trkpt>
      <trkpt lat="59.789173713643" lon="17.641915923365">
        <ele>65.6</ele>
        <time>2017-10-14T16:55:46Z</time>
      </trkpt>
      <trkpt lat="59.78916390682" lon="17.64202865992">
        <ele>65.6</ele>
        <time>2017-10-14T16:55:47Z</time>
      </trkpt>
      <trkpt lat="59.78915636311" lon="17.642138127534">
        <ele>65.4</ele>
        <time>2017-10-14T16:55:48Z</time>
      </trkpt>
      <trkpt lat="59.789149322314" lon="17.642248768614">
        <ele>65.4</ele>
        <time>2017-10-14T16:55:49Z</time>
      </trkpt>
      <trkpt lat="59.789141862423" lon="17.642350105785">
        <ele>65.2</ele>
        <time>2017-10-14T16:55:50Z</time>
      </trkpt>
      <trkpt lat="59.789130546858" lon="17.642461501236">
        <ele>65.2</ele>
        <time>2017-10-14T16:55:51Z</time>
      </trkpt>
      <trkpt lat="59.789121326768" lon="17.642572142316">
        <ele>65.2</ele>
        <time>2017-10-14T16:55:52Z</time>
      </trkpt>
      <trkpt lat="59.789114369791" lon="17.642675658781">
        <ele>65.2</ele>
        <time>2017-10-14T16:55:53Z</time>
      </trkpt>
      <trkpt lat="59.789106826081" lon="17.642799627082">
        <ele>65.2</ele>
        <time>2017-10-14T16:55:54Z</time>
      </trkpt>
      <trkpt lat="59.789097941267" lon="17.642903814099">
        <ele>65.2</ele>
        <time>2017-10-14T16:55:55Z</time>
      </trkpt>
      <trkpt lat="59.789087128616" lon="17.64302610602">
        <ele>65.2</ele>
        <time>2017-10-14T16:55:56Z</time>
      </trkpt>
      <trkpt lat="59.789078998173" lon="17.64313423253">
        <ele>65.2</ele>
        <time>2017-10-14T16:55:57Z</time>
      </trkpt>
      <trkpt lat="59.789074052852" lon="17.643246885266">
        <ele>65.2</ele>
        <time>2017-10-14T16:55:58Z</time>
      </trkpt>
      <trkpt lat="59.789063407839" lon="17.643366662617">
        <ele>65</ele>
        <time>2017-10-14T16:55:59Z</time>
      </trkpt>
      <trkpt lat="59.789051673179" lon="17.643475878774">
        <ele>64.8</ele>
        <time>2017-10-14T16:56:00Z</time>
      </trkpt>
      <trkpt lat="59.789038262139" lon="17.643602110188">
        <ele>64.8</ele>
        <time>2017-10-14T16:56:01Z</time>
      </trkpt>
      <trkpt lat="59.789026946574" lon="17.643710488155">
        <ele>64.8</ele>
        <time>2017-10-14T16:56:02Z</time>
      </trkpt>
      <trkpt lat="59.789016720656" lon="17.643824481995">
        <ele>64.6</ele>
        <time>2017-10-14T16:56:03Z</time>
      </trkpt>
      <trkpt lat="59.789007416747" lon="17.643940990405">
        <ele>64.6</ele>
        <time>2017-10-14T16:56:04Z</time>
      </trkpt>
      <trkpt lat="59.788994089526" lon="17.644049703648">
        <ele>64.6</ele>
        <time>2017-10-14T16:56:05Z</time>
      </trkpt>
      <trkpt lat="59.788981013762" lon="17.644177024709">
        <ele>64.6</ele>
        <time>2017-10-14T16:56:06Z</time>
      </trkpt>
      <trkpt lat="59.78897699045" lon="17.644295460956">
        <ele>64.4</ele>
        <time>2017-10-14T16:56:07Z</time>
      </trkpt>
      <trkpt lat="59.788966429256" lon="17.644405347665">
        <ele>64.4</ele>
        <time>2017-10-14T16:56:08Z</time>
      </trkpt>
      <trkpt lat="59.788961232478" lon="17.644522358989">
        <ele>64.4</ele>
        <time>2017-10-14T16:56:09Z</time>
      </trkpt>
      <trkpt lat="59.788955365148" lon="17.644630317861">
        <ele>64.4</ele>
        <time>2017-10-14T16:56:10Z</time>
      </trkpt>
      <trkpt lat="59.788942289384" lon="17.644756465456">
        <ele>64.4</ele>
        <time>2017-10-14T16:56:11Z</time>
      </trkpt>
      <trkpt lat="59.788933739846" lon="17.644865681613">
        <ele>64.8</ele>
        <time>2017-10-14T16:56:12Z</time>
      </trkpt>
      <trkpt lat="59.788925693222" lon="17.644975819779">
        <ele>64.6</ele>
        <time>2017-10-14T16:56:13Z</time>
      </trkpt>
      <trkpt lat="59.788916473132" lon="17.645088975429">
        <ele>64.6</ele>
        <time>2017-10-14T16:56:14Z</time>
      </trkpt>
      <trkpt lat="59.788908845603" lon="17.645180421958">
        <ele>64.6</ele>
        <time>2017-10-14T16:56:15Z</time>
      </trkpt>
      <trkpt lat="59.788898032952" lon="17.645280418025">
        <ele>64.8</ele>
        <time>2017-10-14T16:56:16Z</time>
      </trkpt>
      <trkpt lat="59.78889233326" lon="17.64537974354">
        <ele>64.8</ele>
        <time>2017-10-14T16:56:17Z</time>
      </trkpt>
      <trkpt lat="59.788890153966" lon="17.645456605563">
        <ele>65</ele>
        <time>2017-10-14T16:56:18Z</time>
      </trkpt>
      <trkpt lat="59.788887974672" lon="17.645537407079">
        <ele>65.2</ele>
        <time>2017-10-14T16:56:19Z</time>
      </trkpt>
      <trkpt lat="59.788882191161" lon="17.645611670713">
        <ele>65.2</ele>
        <time>2017-10-14T16:56:20Z</time>
      </trkpt>
      <trkpt lat="59.788878000211" lon="17.64569490298">
        <ele>65.2</ele>
        <time>2017-10-14T16:56:21Z</time>
      </trkpt>
      <trkpt lat="59.788886382111" lon="17.645771345908">
        <ele>65.2</ele>
        <time>2017-10-14T16:56:22Z</time>
      </trkpt>
      <trkpt lat="59.788910354345" lon="17.645830857398">
        <ele>65.2</ele>
        <time>2017-10-14T16:56:23Z</time>
      </trkpt>
      <trkpt lat="59.788948659628" lon="17.64586505555">
        <ele>65.2</ele>
        <time>2017-10-14T16:56:24Z</time>
      </trkpt>
      <trkpt lat="59.788991323499" lon="17.64587679021">
        <ele>65.2</ele>
        <time>2017-10-14T16:56:25Z</time>
      </trkpt>
      <trkpt lat="59.789042453089" lon="17.645877293124">
        <ele>65</ele>
        <time>2017-10-14T16:56:26Z</time>
      </trkpt>
      <trkpt lat="59.789090649014" lon="17.645875449106">
        <ele>65</ele>
        <time>2017-10-14T16:56:27Z</time>
      </trkpt>
      <trkpt lat="59.78913959931" lon="17.645868743586">
        <ele>64.8</ele>
        <time>2017-10-14T16:56:28Z</time>
      </trkpt>
      <trkpt lat="59.789191399452" lon="17.64586170279">
        <ele>64.8</ele>
        <time>2017-10-14T16:56:29Z</time>
      </trkpt>
      <trkpt lat="59.789239427739" lon="17.645858182392">
        <ele>64.6</ele>
        <time>2017-10-14T16:56:30Z</time>
      </trkpt>
      <trkpt lat="59.789293407175" lon="17.645851225415">
        <ele>64.4</ele>
        <time>2017-10-14T16:56:31Z</time>
      </trkpt>
      <trkpt lat="59.789344201489" lon="17.64583990985">
        <ele>64.2</ele>
        <time>2017-10-14T16:56:32Z</time>
      </trkpt>
      <trkpt lat="59.789394744346" lon="17.645829767751">
        <ele>64.2</ele>
        <time>2017-10-14T16:56:33Z</time>
      </trkpt>
      <trkpt lat="59.789442102081" lon="17.645809818829">
        <ele>64</ele>
        <time>2017-10-14T16:56:34Z</time>
      </trkpt>
      <trkpt lat="59.78948912454" lon="17.645785259862">
        <ele>64.2</ele>
        <time>2017-10-14T16:56:35Z</time>
      </trkpt>
      <trkpt lat="59.789541679053" lon="17.645758689239">
        <ele>64.2</ele>
        <time>2017-10-14T16:56:36Z</time>
      </trkpt>
      <trkpt lat="59.789590880806" lon="17.645729352589">
        <ele>64.4</ele>
        <time>2017-10-14T16:56:37Z</time>
      </trkpt>
      <trkpt lat="59.789635640152" lon="17.645699261568">
        <ele>64.4</ele>
        <time>2017-10-14T16:56:38Z</time>
      </trkpt>
      <trkpt lat="59.789684841905" lon="17.645659782819">
        <ele>64.4</ele>
        <time>2017-10-14T16:56:39Z</time>
      </trkpt>
      <trkpt lat="59.789728595423" lon="17.645622734821">
        <ele>64.4</ele>
        <time>2017-10-14T16:56:40Z</time>
      </trkpt>
      <trkpt lat="59.789778803004" lon="17.645578478389">
        <ele>64.6</ele>
        <time>2017-10-14T16:56:41Z</time>
      </trkpt>
      <trkpt lat="59.78982440054" lon="17.645535814518">
        <ele>64.6</ele>
        <time>2017-10-14T16:56:42Z</time>
      </trkpt>
      <trkpt lat="59.789869243705" lon="17.645494072656">
        <ele>64.6</ele>
        <time>2017-10-14T16:56:43Z</time>
      </trkpt>
      <trkpt lat="59.789913500137" lon="17.645461215608">
        <ele>64.8</ele>
        <time>2017-10-14T16:56:44Z</time>
      </trkpt>
      <trkpt lat="59.789954487628" lon="17.645421317764">
        <ele>64.8</ele>
        <time>2017-10-14T16:56:45Z</time>
      </trkpt>
      <trkpt lat="59.790002851191" lon="17.645378402436">
        <ele>64.8</ele>
        <time>2017-10-14T16:56:46Z</time>
      </trkpt>
      <trkpt lat="59.790048700184" lon="17.645342611723">
        <ele>64.8</ele>
        <time>2017-10-14T16:56:47Z</time>
      </trkpt>
      <trkpt lat="59.790094381539" lon="17.645308078295">
        <ele>65</ele>
        <time>2017-10-14T16:56:48Z</time>
      </trkpt>
      <trkpt lat="59.790134614659" lon="17.645265917338">
        <ele>65</ele>
        <time>2017-10-14T16:56:49Z</time>
      </trkpt>
      <trkpt lat="59.790173003761" lon="17.645227109141">
        <ele>65.4</ele>
        <time>2017-10-14T16:56:50Z</time>
      </trkpt>
      <trkpt lat="59.790215751451" lon="17.645187043659">
        <ele>65.6</ele>
        <time>2017-10-14T16:56:51Z</time>
      </trkpt>
      <trkpt lat="59.790242238255" lon="17.645161646502">
        <ele>65.6</ele>
        <time>2017-10-14T16:56:52Z</time>
      </trkpt>
      <trkpt lat="59.790289847447" lon="17.645117892984">
        <ele>65.8</ele>
        <time>2017-10-14T16:56:53Z</time>
      </trkpt>
      <trkpt lat="59.79032647635" lon="17.64508050971">
        <ele>66</ele>
        <time>2017-10-14T16:56:54Z</time>
      </trkpt>
      <trkpt lat="59.790358243751" lon="17.645053939087">
        <ele>66.2</ele>
        <time>2017-10-14T16:56:55Z</time>
      </trkpt>
      <trkpt lat="59.790390681704" lon="17.645025440627">
        <ele>66.2</ele>
        <time>2017-10-14T16:56:56Z</time>
      </trkpt>
      <trkpt lat="59.790419934535" lon="17.64499585252">
        <ele>66.6</ele>
        <time>2017-10-14T16:56:57Z</time>
      </trkpt>
      <trkpt lat="59.790449103547" lon="17.644968862802">
        <ele>66.6</ele>
        <time>2017-10-14T16:56:58Z</time>
      </trkpt>
      <trkpt lat="59.790477015274" lon="17.644938520324">
        <ele>66.8</ele>
        <time>2017-10-14T16:56:59Z</time>
      </trkpt>
      <trkpt lat="59.790502663888" lon="17.644909351312">
        <ele>67</ele>
        <time>2017-10-14T16:57:00Z</time>
      </trkpt>
      <trkpt lat="59.790534515108" lon="17.644878925015">
        <ele>67.2</ele>
        <time>2017-10-14T16:57:01Z</time>
      </trkpt>
      <trkpt lat="59.790567623613" lon="17.644848750175">
        <ele>67.2</ele>
        <time>2017-10-14T16:57:02Z</time>
      </trkpt>
      <trkpt lat="59.790602324679" lon="17.644816563679">
        <ele>67.4</ele>
        <time>2017-10-14T16:57:03Z</time>
      </trkpt>
      <trkpt lat="59.790643982722" lon="17.644780605328">
        <ele>67.4</ele>
        <time>2017-10-14T16:57:04Z</time>
      </trkpt>
      <trkpt lat="59.790687149507" lon="17.644749676117">
        <ele>67.4</ele>
        <time>2017-10-14T16:57:05Z</time>
      </trkpt>
      <trkpt lat="59.790737105631" lon="17.644726458254">
        <ele>67.4</ele>
        <time>2017-10-14T16:57:06Z</time>
      </trkpt>
      <trkpt lat="59.790783206081" lon="17.644702821296">
        <ele>67.4</ele>
        <time>2017-10-14T16:57:07Z</time>
      </trkpt>
      <trkpt lat="59.790822601011" lon="17.644676585949">
        <ele>67.4</ele>
        <time>2017-10-14T16:57:08Z</time>
      </trkpt>
      <trkpt lat="59.790865600158" lon="17.644642723073">
        <ele>67.2</ele>
        <time>2017-10-14T16:57:09Z</time>
      </trkpt>
      <trkpt lat="59.790904324536" lon="17.644619337572">
        <ele>67.2</ele>
        <time>2017-10-14T16:57:10Z</time>
      </trkpt>
      <trkpt lat="59.790947826597" lon="17.64459938865">
        <ele>67.2</ele>
        <time>2017-10-14T16:57:11Z</time>
      </trkpt>
      <trkpt lat="59.790986550975" lon="17.644583379221">
        <ele>67.2</ele>
        <time>2017-10-14T16:57:12Z</time>
      </trkpt>
      <trkpt lat="59.791024437163" lon="17.64456418467">
        <ele>67.4</ele>
        <time>2017-10-14T16:57:13Z</time>
      </trkpt>
      <trkpt lat="59.791060563152" lon="17.64454071535">
        <ele>67.6</ele>
        <time>2017-10-14T16:57:14Z</time>
      </trkpt>
      <trkpt lat="59.791092665829" lon="17.644517832763">
        <ele>68</ele>
        <time>2017-10-14T16:57:15Z</time>
      </trkpt>
      <trkpt lat="59.791129713827" lon="17.64448707119">
        <ele>68.6</ele>
        <time>2017-10-14T16:57:16Z</time>
      </trkpt>
      <trkpt lat="59.791164917807" lon="17.644459159463">
        <ele>69</ele>
        <time>2017-10-14T16:57:17Z</time>
      </trkpt>
      <trkpt lat="59.79120070852" lon="17.644439629636">
        <ele>69.2</ele>
        <time>2017-10-14T16:57:18Z</time>
      </trkpt>
      <trkpt lat="59.791238846165" lon="17.644422865836">
        <ele>69.4</ele>
        <time>2017-10-14T16:57:19Z</time>
      </trkpt>
      <trkpt lat="59.791274972154" lon="17.644408532787">
        <ele>69.6</ele>
        <time>2017-10-14T16:57:20Z</time>
      </trkpt>
      <trkpt lat="59.791316630197" lon="17.644389757331">
        <ele>69.8</ele>
        <time>2017-10-14T16:57:21Z</time>
      </trkpt>
      <trkpt lat="59.791354264928" lon="17.644373496445">
        <ele>70</ele>
        <time>2017-10-14T16:57:22Z</time>
      </trkpt>
      <trkpt lat="59.791394078953" lon="17.644351871143">
        <ele>70</ele>
        <time>2017-10-14T16:57:23Z</time>
      </trkpt>
      <trkpt lat="59.791437748652" lon="17.644322702131">
        <ele>70.2</ele>
        <time>2017-10-14T16:57:24Z</time>
      </trkpt>
      <trkpt lat="59.791476975944" lon="17.644298981354">
        <ele>70.2</ele>
        <time>2017-10-14T16:57:25Z</time>
      </trkpt>
      <trkpt lat="59.791521902928" lon="17.644277272233">
        <ele>70.4</ele>
        <time>2017-10-14T16:57:26Z</time>
      </trkpt>
      <trkpt lat="59.791564985894" lon="17.644251204524">
        <ele>70.6</ele>
        <time>2017-10-14T16:57:27Z</time>
      </trkpt>
      <trkpt lat="59.791607985041" lon="17.644226058824">
        <ele>70.6</ele>
        <time>2017-10-14T16:57:28Z</time>
      </trkpt>
      <trkpt lat="59.791648804894" lon="17.644196554536">
        <ele>70.6</ele>
        <time>2017-10-14T16:57:29Z</time>
      </trkpt>
      <trkpt lat="59.791698090466" lon="17.644166714972">
        <ele>70.6</ele>
        <time>2017-10-14T16:57:30Z</time>
      </trkpt>
      <trkpt lat="59.791749555332" lon="17.644135953399">
        <ele>70.6</ele>
        <time>2017-10-14T16:57:31Z</time>
      </trkpt>
      <trkpt lat="59.791798924723" lon="17.644106113835">
        <ele>70.6</ele>
        <time>2017-10-14T16:57:32Z</time>
      </trkpt>
      <trkpt lat="59.791848461752" lon="17.644079291755">
        <ele>70.4</ele>
        <time>2017-10-14T16:57:33Z</time>
      </trkpt>
      <trkpt lat="59.791898753152" lon="17.644049200734">
        <ele>70.2</ele>
        <time>2017-10-14T16:57:34Z</time>
      </trkpt>
      <trkpt lat="59.791947954905" lon="17.644017600971">
        <ele>70</ele>
        <time>2017-10-14T16:57:35Z</time>
      </trkpt>
      <trkpt lat="59.792003107807" lon="17.643975188557">
        <ele>69.8</ele>
        <time>2017-10-14T16:57:36Z</time>
      </trkpt>
      <trkpt lat="59.792056584329" lon="17.643934033428">
        <ele>69.6</ele>
        <time>2017-10-14T16:57:37Z</time>
      </trkpt>
      <trkpt lat="59.792104947892" lon="17.643889274082">
        <ele>69.2</ele>
        <time>2017-10-14T16:57:38Z</time>
      </trkpt>
      <trkpt lat="59.792158172957" lon="17.643834707913">
        <ele>69</ele>
        <time>2017-10-14T16:57:39Z</time>
      </trkpt>
      <trkpt lat="59.792207039434" lon="17.64378131521">
        <ele>68.8</ele>
        <time>2017-10-14T16:57:40Z</time>
      </trkpt>
      <trkpt lat="59.792262192336" lon="17.643724485928">
        <ele>68.4</ele>
        <time>2017-10-14T16:57:41Z</time>
      </trkpt>
      <trkpt lat="59.792312819012" lon="17.64367235051">
        <ele>68.2</ele>
        <time>2017-10-14T16:57:42Z</time>
      </trkpt>
      <trkpt lat="59.792363026593" lon="17.643622645843">
        <ele>68</ele>
        <time>2017-10-14T16:57:43Z</time>
      </trkpt>
      <trkpt lat="59.792414156183" lon="17.643575539565">
        <ele>67.8</ele>
        <time>2017-10-14T16:57:44Z</time>
      </trkpt>
      <trkpt lat="59.792459753719" lon="17.643531953685">
        <ele>67.8</ele>
        <time>2017-10-14T16:57:45Z</time>
      </trkpt>
      <trkpt lat="59.792512894965" lon="17.643477136059">
        <ele>67.6</ele>
        <time>2017-10-14T16:57:46Z</time>
      </trkpt>
      <trkpt lat="59.792563102546" lon="17.643428940134">
        <ele>67.6</ele>
        <time>2017-10-14T16:57:47Z</time>
      </trkpt>
      <trkpt lat="59.792609622091" lon="17.643381750037">
        <ele>67.6</ele>
        <time>2017-10-14T16:57:48Z</time>
      </trkpt>
      <trkpt lat="59.79265580636" lon="17.643340259632">
        <ele>67.6</ele>
        <time>2017-10-14T16:57:49Z</time>
      </trkpt>
      <trkpt lat="59.792698302593" lon="17.643305810023">
        <ele>67.4</ele>
        <time>2017-10-14T16:57:50Z</time>
      </trkpt>
      <trkpt lat="59.792741972292" lon="17.643264068161">
        <ele>67.4</ele>
        <time>2017-10-14T16:57:51Z</time>
      </trkpt>
      <trkpt lat="59.79278321124" lon="17.643221991023">
        <ele>67.4</ele>
        <time>2017-10-14T16:57:52Z</time>
      </trkpt>
      <trkpt lat="59.792823192903" lon="17.643188128147">
        <ele>67.6</ele>
        <time>2017-10-14T16:57:53Z</time>
      </trkpt>
      <trkpt lat="59.79286703024" lon="17.643155271099">
        <ele>67.6</ele>
        <time>2017-10-14T16:57:54Z</time>
      </trkpt>
      <trkpt lat="59.792903826781" lon="17.643124844802">
        <ele>67.8</ele>
        <time>2017-10-14T16:57:55Z</time>
      </trkpt>
      <trkpt lat="59.792943808444" lon="17.643087712985">
        <ele>68</ele>
        <time>2017-10-14T16:57:56Z</time>
      </trkpt>
      <trkpt lat="59.792980102071" lon="17.643055107394">
        <ele>68.2</ele>
        <time>2017-10-14T16:57:57Z</time>
      </trkpt>
      <trkpt lat="59.793015725146" lon="17.643021244518">
        <ele>68.8</ele>
        <time>2017-10-14T16:57:58Z</time>
      </trkpt>
      <trkpt lat="59.79305227023" lon="17.642987800737">
        <ele>69.2</ele>
        <time>2017-10-14T16:57:59Z</time>
      </trkpt>
      <trkpt lat="59.793086049287" lon="17.642960224286">
        <ele>69.6</ele>
        <time>2017-10-14T16:58:00Z</time>
      </trkpt>
      <trkpt lat="59.793123684018" lon="17.642928959799">
        <ele>70</ele>
        <time>2017-10-14T16:58:01Z</time>
      </trkpt>
      <trkpt lat="59.79315872036" lon="17.642900880434">
        <ele>70.4</ele>
        <time>2017-10-14T16:58:02Z</time>
      </trkpt>
      <trkpt lat="59.793191661227" lon="17.642872549612">
        <ele>70.6</ele>
        <time>2017-10-14T16:58:03Z</time>
      </trkpt>
      <trkpt lat="59.793231475252" lon="17.642843045324">
        <ele>70.8</ele>
        <time>2017-10-14T16:58:04Z</time>
      </trkpt>
      <trkpt lat="59.793266427775" lon="17.642814630683">
        <ele>70.8</ele>
        <time>2017-10-14T16:58:05Z</time>
      </trkpt>
      <trkpt lat="59.793304481601" lon="17.642778337056">
        <ele>71</ele>
        <time>2017-10-14T16:58:06Z</time>
      </trkpt>
      <trkpt lat="59.793342451608" lon="17.642741037601">
        <ele>71.4</ele>
        <time>2017-10-14T16:58:07Z</time>
      </trkpt>
      <trkpt lat="59.793377739407" lon="17.642710611304">
        <ele>71.4</ele>
        <time>2017-10-14T16:58:08Z</time>
      </trkpt>
      <trkpt lat="59.793417301975" lon="17.642674988229">
        <ele>71.6</ele>
        <time>2017-10-14T16:58:09Z</time>
      </trkpt>
      <trkpt lat="59.793453847059" lon="17.642642131181">
        <ele>71.8</ele>
        <time>2017-10-14T16:58:10Z</time>
      </trkpt>
      <trkpt lat="59.793496259473" lon="17.642605167002">
        <ele>71.8</ele>
        <time>2017-10-14T16:58:11Z</time>
      </trkpt>
      <trkpt lat="59.793535570584" lon="17.642567951366">
        <ele>72</ele>
        <time>2017-10-14T16:58:12Z</time>
      </trkpt>
      <trkpt lat="59.793576306618" lon="17.642533166481">
        <ele>72</ele>
        <time>2017-10-14T16:58:13Z</time>
      </trkpt>
      <trkpt lat="59.793617461747" lon="17.642496453759">
        <ele>72.2</ele>
        <time>2017-10-14T16:58:14Z</time>
      </trkpt>
      <trkpt lat="59.79365660522" lon="17.642464267263">
        <ele>72.2</ele>
        <time>2017-10-14T16:58:15Z</time>
      </trkpt>
      <trkpt lat="59.793704046774" lon="17.642422525401">
        <ele>72.4</ele>
        <time>2017-10-14T16:58:16Z</time>
      </trkpt>
      <trkpt lat="59.793746962102" lon="17.642382459919">
        <ele>72.4</ele>
        <time>2017-10-14T16:58:17Z</time>
      </trkpt>
      <trkpt lat="59.79378903924" lon="17.642347423577">
        <ele>72.4</ele>
        <time>2017-10-14T16:58:18Z</time>
      </trkpt>
      <trkpt lat="59.793829691455" lon="17.642311800502">
        <ele>72.4</ele>
        <time>2017-10-14T16:58:19Z</time>
      </trkpt>
      <trkpt lat="59.793867577643" lon="17.642278859635">
        <ele>72.2</ele>
        <time>2017-10-14T16:58:20Z</time>
      </trkpt>
      <trkpt lat="59.793909570962" lon="17.64224323656">
        <ele>72</ele>
        <time>2017-10-14T16:58:21Z</time>
      </trkpt>
      <trkpt lat="59.793951396643" lon="17.642207864942">
        <ele>71.8</ele>
        <time>2017-10-14T16:58:22Z</time>
      </trkpt>
      <trkpt lat="59.793991965039" lon="17.642170397849">
        <ele>71.6</ele>
        <time>2017-10-14T16:58:23Z</time>
      </trkpt>
      <trkpt lat="59.794036975842" lon="17.64212840453">
        <ele>71.4</ele>
        <time>2017-10-14T16:58:24Z</time>
      </trkpt>
      <trkpt lat="59.794076370772" lon="17.642090602161">
        <ele>71.6</ele>
        <time>2017-10-14T16:58:25Z</time>
      </trkpt>
      <trkpt lat="59.794121549213" lon="17.642046597186">
        <ele>71.4</ele>
        <time>2017-10-14T16:58:26Z</time>
      </trkpt>
      <trkpt lat="59.794164380722" lon="17.642002256935">
        <ele>71.4</ele>
        <time>2017-10-14T16:58:27Z</time>
      </trkpt>
      <trkpt lat="59.794207128412" lon="17.641961185625">
        <ele>71.4</ele>
        <time>2017-10-14T16:58:28Z</time>
      </trkpt>
      <trkpt lat="59.794250462835" lon="17.64191382789">
        <ele>71.4</ele>
        <time>2017-10-14T16:58:29Z</time>
      </trkpt>
      <trkpt lat="59.79428943867" lon="17.64187443296">
        <ele>71.4</ele>
        <time>2017-10-14T16:58:30Z</time>
      </trkpt>
      <trkpt lat="59.794344423934" lon="17.641834283659">
        <ele>71.6</ele>
        <time>2017-10-14T16:58:31Z</time>
      </trkpt>
      <trkpt lat="59.79439672699" lon="17.641800169326">
        <ele>71.6</ele>
        <time>2017-10-14T16:58:32Z</time>
      </trkpt>
      <trkpt lat="59.794449616779" lon="17.641762786052">
        <ele>71.6</ele>
        <time>2017-10-14T16:58:33Z</time>
      </trkpt>
      <trkpt lat="59.794502925663" lon="17.641721547104">
        <ele>71.6</ele>
        <time>2017-10-14T16:58:34Z</time>
      </trkpt>
      <trkpt lat="59.794554977262" lon="17.641680559613">
        <ele>71.8</ele>
        <time>2017-10-14T16:58:35Z</time>
      </trkpt>
      <trkpt lat="59.79461717096" lon="17.641631441679">
        <ele>71.6</ele>
        <time>2017-10-14T16:58:36Z</time>
      </trkpt>
      <trkpt lat="59.794671569491" lon="17.641584754496">
        <ele>71.6</ele>
        <time>2017-10-14T16:58:37Z</time>
      </trkpt>
      <trkpt lat="59.794719597778" lon="17.641546030118">
        <ele>71.4</ele>
        <time>2017-10-14T16:58:38Z</time>
      </trkpt>
      <trkpt lat="59.794773325757" lon="17.64150311479">
        <ele>71.2</ele>
        <time>2017-10-14T16:58:39Z</time>
      </trkpt>
      <trkpt lat="59.794823114243" lon="17.641461792023">
        <ele>71</ele>
        <time>2017-10-14T16:58:40Z</time>
      </trkpt>
      <trkpt lat="59.794873992376" lon="17.64142097217">
        <ele>70.8</ele>
        <time>2017-10-14T16:58:41Z</time>
      </trkpt>
      <trkpt lat="59.794923780862" lon="17.641378727394">
        <ele>71</ele>
        <time>2017-10-14T16:58:42Z</time>
      </trkpt>
      <trkpt lat="59.794971306235" lon="17.641335979704">
        <ele>71</ele>
        <time>2017-10-14T16:58:43Z</time>
      </trkpt>
      <trkpt lat="59.795016568495" lon="17.641293818747">
        <ele>71</ele>
        <time>2017-10-14T16:58:44Z</time>
      </trkpt>
      <trkpt lat="59.795055628149" lon="17.641257944215">
        <ele>71.2</ele>
        <time>2017-10-14T16:58:45Z</time>
      </trkpt>
      <trkpt lat="59.795106757739" lon="17.641215699439">
        <ele>71.4</ele>
        <time>2017-10-14T16:58:46Z</time>
      </trkpt>
      <trkpt lat="59.795151181809" lon="17.641185943694">
        <ele>71.4</ele>
        <time>2017-10-14T16:58:47Z</time>
      </trkpt>
      <trkpt lat="59.79519384568" lon="17.641163899297">
        <ele>71.4</ele>
        <time>2017-10-14T16:58:48Z</time>
      </trkpt>
      <trkpt lat="59.795238102112" lon="17.6411502368">
        <ele>71.4</ele>
        <time>2017-10-14T16:58:49Z</time>
      </trkpt>
      <trkpt lat="59.795280849802" lon="17.641144285651">
        <ele>71.6</ele>
        <time>2017-10-14T16:58:50Z</time>
      </trkpt>
      <trkpt lat="59.795330722107" lon="17.641140932891">
        <ele>71.6</ele>
        <time>2017-10-14T16:58:51Z</time>
      </trkpt>
      <trkpt lat="59.795380426774" lon="17.641140094701">
        <ele>71.6</ele>
        <time>2017-10-14T16:58:52Z</time>
      </trkpt>
      <trkpt lat="59.795428371242" lon="17.641141268167">
        <ele>71.8</ele>
        <time>2017-10-14T16:58:53Z</time>
      </trkpt>
      <trkpt lat="59.795480339022" lon="17.641148979515">
        <ele>71.8</ele>
        <time>2017-10-14T16:58:54Z</time>
      </trkpt>
      <trkpt lat="59.795526523291" lon="17.64116197146">
        <ele>71.8</ele>
        <time>2017-10-14T16:58:55Z</time>
      </trkpt>
      <trkpt lat="59.795580586546" lon="17.641178064708">
        <ele>71.8</ele>
        <time>2017-10-14T16:58:56Z</time>
      </trkpt>
      <trkpt lat="59.795629788299" lon="17.6411921463">
        <ele>71.8</ele>
        <time>2017-10-14T16:58:57Z</time>
      </trkpt>
      <trkpt lat="59.79568083407" lon="17.641208742462">
        <ele>71.8</ele>
        <time>2017-10-14T16:58:58Z</time>
      </trkpt>
      <trkpt lat="59.795731879841" lon="17.641230283945">
        <ele>71.8</ele>
        <time>2017-10-14T16:58:59Z</time>
      </trkpt>
      <trkpt lat="59.79577471135" lon="17.641250232867">
        <ele>71.8</ele>
        <time>2017-10-14T16:59:00Z</time>
      </trkpt>
      <trkpt lat="59.79583422284" lon="17.641272109626">
        <ele>71.6</ele>
        <time>2017-10-14T16:59:01Z</time>
      </trkpt>
      <trkpt lat="59.795887280267" lon="17.641289460159">
        <ele>71.4</ele>
        <time>2017-10-14T16:59:02Z</time>
      </trkpt>
      <trkpt lat="59.795940086237" lon="17.641311672194">
        <ele>71.4</ele>
        <time>2017-10-14T16:59:03Z</time>
      </trkpt>
      <trkpt lat="59.795992137836" lon="17.641335560609">
        <ele>71.2</ele>
        <time>2017-10-14T16:59:04Z</time>
      </trkpt>
      <trkpt lat="59.796044692349" lon="17.641354419884">
        <ele>71.2</ele>
        <time>2017-10-14T16:59:05Z</time>
      </trkpt>
      <trkpt lat="59.796107137504" lon="17.641377051014">
        <ele>71.4</ele>
        <time>2017-10-14T16:59:06Z</time>
      </trkpt>
      <trkpt lat="59.796162960958" lon="17.641395910289">
        <ele>71.4</ele>
        <time>2017-10-14T16:59:07Z</time>
      </trkpt>
      <trkpt lat="59.796219622602" lon="17.641410830071">
        <ele>71.4</ele>
        <time>2017-10-14T16:59:08Z</time>
      </trkpt>
      <trkpt lat="59.796272763848" lon="17.641425246939">
        <ele>71.2</ele>
        <time>2017-10-14T16:59:09Z</time>
      </trkpt>
      <trkpt lat="59.796324647809" lon="17.641444944404">
        <ele>71.2</ele>
        <time>2017-10-14T16:59:10Z</time>
      </trkpt>
      <trkpt lat="59.79638156091" lon="17.641468246086">
        <ele>71</ele>
        <time>2017-10-14T16:59:11Z</time>
      </trkpt>
      <trkpt lat="59.796435037432" lon="17.64148467461">
        <ele>71</ele>
        <time>2017-10-14T16:59:12Z</time>
      </trkpt>
      <trkpt lat="59.7964829819" lon="17.64150060022">
        <ele>70.8</ele>
        <time>2017-10-14T16:59:13Z</time>
      </trkpt>
      <trkpt lat="59.796535955508" lon="17.641517699296">
        <ele>70.8</ele>
        <time>2017-10-14T16:59:14Z</time>
      </trkpt>
      <trkpt lat="59.796575098981" lon="17.64153161325">
        <ele>71</ele>
        <time>2017-10-14T16:59:15Z</time>
      </trkpt>
      <trkpt lat="59.796627234399" lon="17.641552568">
        <ele>71</ele>
        <time>2017-10-14T16:59:16Z</time>
      </trkpt>
      <trkpt lat="59.796668557166" lon="17.641569499438">
        <ele>71.2</ele>
        <time>2017-10-14T16:59:17Z</time>
      </trkpt>
      <trkpt lat="59.796712394503" lon="17.641582323745">
        <ele>71.6</ele>
        <time>2017-10-14T16:59:18Z</time>
      </trkpt>
      <trkpt lat="59.796755561288" lon="17.641593974586">
        <ele>71.8</ele>
        <time>2017-10-14T16:59:19Z</time>
      </trkpt>
      <trkpt lat="59.796794285666" lon="17.641609062006">
        <ele>72</ele>
        <time>2017-10-14T16:59:20Z</time>
      </trkpt>
      <trkpt lat="59.796837117175" lon="17.641628088919">
        <ele>72.4</ele>
        <time>2017-10-14T16:59:21Z</time>
      </trkpt>
      <trkpt lat="59.796880200141" lon="17.641642589606">
        <ele>72.8</ele>
        <time>2017-10-14T16:59:22Z</time>
      </trkpt>
      <trkpt lat="59.796922361098" lon="17.641663460537">
        <ele>73</ele>
        <time>2017-10-14T16:59:23Z</time>
      </trkpt>
      <trkpt lat="59.796964522055" lon="17.641678631776">
        <ele>73.6</ele>
        <time>2017-10-14T16:59:24Z</time>
      </trkpt>
      <trkpt lat="59.797006766831" lon="17.641684750563">
        <ele>73.8</ele>
        <time>2017-10-14T16:59:25Z</time>
      </trkpt>
      <trkpt lat="59.79705630386" lon="17.641696066128">
        <ele>74.2</ele>
        <time>2017-10-14T16:59:26Z</time>
      </trkpt>
      <trkpt lat="59.797103326319" lon="17.641713919575">
        <ele>74.2</ele>
        <time>2017-10-14T16:59:27Z</time>
      </trkpt>
      <trkpt lat="59.797151270787" lon="17.641730934832">
        <ele>74.2</ele>
        <time>2017-10-14T16:59:28Z</time>
      </trkpt>
      <trkpt lat="59.797203573843" lon="17.641750045564">
        <ele>74</ele>
        <time>2017-10-14T16:59:29Z</time>
      </trkpt>
      <trkpt lat="59.79724908756" lon="17.641765132984">
        <ele>73.8</ele>
        <time>2017-10-14T16:59:30Z</time>
      </trkpt>
      <trkpt lat="59.797309688697" lon="17.641782148241">
        <ele>73.6</ele>
        <time>2017-10-14T16:59:31Z</time>
      </trkpt>
      <trkpt lat="59.797363835771" lon="17.641795224005">
        <ele>73.6</ele>
        <time>2017-10-14T16:59:32Z</time>
      </trkpt>
      <trkpt lat="59.797414630085" lon="17.641807461579">
        <ele>73.4</ele>
        <time>2017-10-14T16:59:33Z</time>
      </trkpt>
      <trkpt lat="59.797469280073" lon="17.641820453524">
        <ele>73.2</ele>
        <time>2017-10-14T16:59:34Z</time>
      </trkpt>
      <trkpt lat="59.797520996396" lon="17.641837301143">
        <ele>73</ele>
        <time>2017-10-14T16:59:35Z</time>
      </trkpt>
      <trkpt lat="59.797576736031" lon="17.641862111567">
        <ele>73</ele>
        <time>2017-10-14T16:59:36Z</time>
      </trkpt>
      <trkpt lat="59.797631050743" lon="17.641866386336">
        <ele>72.8</ele>
        <time>2017-10-14T16:59:37Z</time>
      </trkpt>
      <trkpt lat="59.797684862541" lon="17.641868900906">
        <ele>72.8</ele>
        <time>2017-10-14T16:59:38Z</time>
      </trkpt>
      <trkpt lat="59.797733812837" lon="17.641879545919">
        <ele>72.8</ele>
        <time>2017-10-14T16:59:39Z</time>
      </trkpt>
      <trkpt lat="59.797774381233" lon="17.64189203495">
        <ele>72.6</ele>
        <time>2017-10-14T16:59:40Z</time>
      </trkpt>
      <trkpt lat="59.797817045104" lon="17.641904775438">
        <ele>72.6</ele>
        <time>2017-10-14T16:59:41Z</time>
      </trkpt>
      <trkpt lat="59.797852249084" lon="17.641898991927">
        <ele>72.6</ele>
        <time>2017-10-14T16:59:42Z</time>
      </trkpt>
      <trkpt lat="59.797883513571" lon="17.641887089629">
        <ele>72.4</ele>
        <time>2017-10-14T16:59:43Z</time>
      </trkpt>
      <trkpt lat="59.797910335651" lon="17.641869068544">
        <ele>72.4</ele>
        <time>2017-10-14T16:59:44Z</time>
      </trkpt>
      <trkpt lat="59.797929949297" lon="17.641834618935">
        <ele>72.4</ele>
        <time>2017-10-14T16:59:45Z</time>
      </trkpt>
      <trkpt lat="59.7979498144" lon="17.641771167952">
        <ele>72.4</ele>
        <time>2017-10-14T16:59:46Z</time>
      </trkpt>
      <trkpt lat="59.797966745838" lon="17.641707046417">
        <ele>72.4</ele>
        <time>2017-10-14T16:59:47Z</time>
      </trkpt>
      <trkpt lat="59.797989963701" lon="17.641648205479">
        <ele>72.4</ele>
        <time>2017-10-14T16:59:48Z</time>
      </trkpt>
      <trkpt lat="59.798018629799" lon="17.641595064233">
        <ele>72.4</ele>
        <time>2017-10-14T16:59:49Z</time>
      </trkpt>
      <trkpt lat="59.798047966449" lon="17.64154753886">
        <ele>72.4</ele>
        <time>2017-10-14T16:59:50Z</time>
      </trkpt>
      <trkpt lat="59.798081326411" lon="17.641489200836">
        <ele>72.4</ele>
        <time>2017-10-14T16:59:51Z</time>
      </trkpt>
      <trkpt lat="59.798113596726" lon="17.641430527536">
        <ele>72.4</ele>
        <time>2017-10-14T16:59:52Z</time>
      </trkpt>
      <trkpt lat="59.798148297792" lon="17.641367914743">
        <ele>72.4</ele>
        <time>2017-10-14T16:59:53Z</time>
      </trkpt>
      <trkpt lat="59.79818199303" lon="17.641309409081">
        <ele>72.4</ele>
        <time>2017-10-14T16:59:54Z</time>
      </trkpt>
      <trkpt lat="59.798212838422" lon="17.641257944215">
        <ele>72.4</ele>
        <time>2017-10-14T16:59:55Z</time>
      </trkpt>
      <trkpt lat="59.798249551144" lon="17.641209413014">
        <ele>72.2</ele>
        <time>2017-10-14T16:59:56Z</time>
      </trkpt>
      <trkpt lat="59.798278636337" lon="17.641191559567">
        <ele>72.4</ele>
        <time>2017-10-14T16:59:57Z</time>
      </trkpt>
      <trkpt lat="59.798300345458" lon="17.641173287025">
        <ele>72.2</ele>
        <time>2017-10-14T16:59:58Z</time>
      </trkpt>
      <trkpt lat="59.798318282724" lon="17.641156355587">
        <ele>72.2</ele>
        <time>2017-10-14T16:59:59Z</time>
      </trkpt>
      <trkpt lat="59.798324401511" lon="17.64113598757">
        <ele>72.2</ele>
        <time>2017-10-14T17:00:00Z</time>
      </trkpt>
      <trkpt lat="59.798320462018" lon="17.641107405291">
        <ele>72.2</ele>
        <time>2017-10-14T17:00:01Z</time>
      </trkpt>
      <trkpt lat="59.798307218616" lon="17.641110422775">
        <ele>72.4</ele>
        <time>2017-10-14T17:00:02Z</time>
      </trkpt>
      <trkpt lat="59.798292466472" lon="17.641134478828">
        <ele>72.4</ele>
        <time>2017-10-14T17:00:03Z</time>
      </trkpt>
      <trkpt lat="59.798277127595" lon="17.641167754971">
        <ele>72.4</ele>
        <time>2017-10-14T17:00:04Z</time>
      </trkpt>
      <trkpt lat="59.798263129822" lon="17.641199857648">
        <ele>72.4</ele>
        <time>2017-10-14T17:00:05Z</time>
      </trkpt>
      <trkpt lat="59.79824569547" lon="17.641235313085">
        <ele>72.4</ele>
        <time>2017-10-14T17:00:06Z</time>
      </trkpt>
      <trkpt lat="59.798226165643" lon="17.641262386622">
        <ele>72.4</ele>
        <time>2017-10-14T17:00:07Z</time>
      </trkpt>
      <trkpt lat="59.79821216787" lon="17.641281078259">
        <ele>72.4</ele>
        <time>2017-10-14T17:00:08Z</time>
      </trkpt>
      <trkpt lat="59.798197331907" lon="17.641301530095">
        <ele>72.4</ele>
        <time>2017-10-14T17:00:09Z</time>
      </trkpt>
      <trkpt lat="59.798186100161" lon="17.641321311379">
        <ele>72.4</ele>
        <time>2017-10-14T17:00:10Z</time>
      </trkpt>
      <trkpt lat="59.798171012741" lon="17.641341008844">
        <ele>72.4</ele>
        <time>2017-10-14T17:00:11Z</time>
      </trkpt>
      <trkpt lat="59.798157182606" lon="17.641356934454">
        <ele>72.4</ele>
        <time>2017-10-14T17:00:12Z</time>
      </trkpt>
      <trkpt lat="59.798143352471" lon="17.641377302471">
        <ele>72.4</ele>
        <time>2017-10-14T17:00:13Z</time>
      </trkpt>
      <trkpt lat="59.798128265051" lon="17.641407058216">
        <ele>72.4</ele>
        <time>2017-10-14T17:00:14Z</time>
      </trkpt>
      <trkpt lat="59.798115273106" lon="17.641433964115">
        <ele>72.4</ele>
        <time>2017-10-14T17:00:15Z</time>
      </trkpt>
      <trkpt lat="59.798097503478" lon="17.641475705977">
        <ele>72.4</ele>
        <time>2017-10-14T17:00:16Z</time>
      </trkpt>
      <trkpt lat="59.798077973651" lon="17.641516022916">
        <ele>72.4</ele>
        <time>2017-10-14T17:00:17Z</time>
      </trkpt>
      <trkpt lat="59.798056767444" lon="17.641557345683">
        <ele>72.4</ele>
        <time>2017-10-14T17:00:18Z</time>
      </trkpt>
      <trkpt lat="59.798033298124" lon="17.641597327346">
        <ele>72.4</ele>
        <time>2017-10-14T17:00:19Z</time>
      </trkpt>
      <trkpt lat="59.798012930107" lon="17.641637476647">
        <ele>72.4</ele>
        <time>2017-10-14T17:00:20Z</time>
      </trkpt>
      <trkpt lat="59.797989628425" lon="17.641681984536">
        <ele>72.4</ele>
        <time>2017-10-14T17:00:21Z</time>
      </trkpt>
      <trkpt lat="59.797967667847" lon="17.641726324787">
        <ele>72.4</ele>
        <time>2017-10-14T17:00:22Z</time>
      </trkpt>
      <trkpt lat="59.797945539631" lon="17.641768988658">
        <ele>72.4</ele>
        <time>2017-10-14T17:00:23Z</time>
      </trkpt>
      <trkpt lat="59.797927602365" lon="17.641800336964">
        <ele>72.4</ele>
        <time>2017-10-14T17:00:24Z</time>
      </trkpt>
      <trkpt lat="59.797919052827" lon="17.641828416329">
        <ele>72.2</ele>
        <time>2017-10-14T17:00:25Z</time>
      </trkpt>
      <trkpt lat="59.797920561569" lon="17.641862530662">
        <ele>72.2</ele>
        <time>2017-10-14T17:00:26Z</time>
      </trkpt>
      <trkpt lat="59.797932799143" lon="17.641899327203">
        <ele>72.2</ele>
        <time>2017-10-14T17:00:27Z</time>
      </trkpt>
      <trkpt lat="59.797944701441" lon="17.641929418224">
        <ele>72.4</ele>
        <time>2017-10-14T17:00:28Z</time>
      </trkpt>
      <trkpt lat="59.79796993096" lon="17.641969483706">
        <ele>72.4</ele>
        <time>2017-10-14T17:00:29Z</time>
      </trkpt>
      <trkpt lat="59.797988538778" lon="17.641988007705">
        <ele>72.4</ele>
        <time>2017-10-14T17:00:30Z</time>
      </trkpt>
      <trkpt lat="59.798009577347" lon="17.642013404862">
        <ele>72.4</ele>
        <time>2017-10-14T17:00:31Z</time>
      </trkpt>
      <trkpt lat="59.798027933708" lon="17.64204123277">
        <ele>72.4</ele>
        <time>2017-10-14T17:00:32Z</time>
      </trkpt>
      <trkpt lat="59.798048469363" lon="17.642067803393">
        <ele>72.4</ele>
        <time>2017-10-14T17:00:33Z</time>
      </trkpt>
      <trkpt lat="59.798067496276" lon="17.642097475319">
        <ele>72.4</ele>
        <time>2017-10-14T17:00:34Z</time>
      </trkpt>
      <trkpt lat="59.798087529017" lon="17.642130332367">
        <ele>72.4</ele>
        <time>2017-10-14T17:00:35Z</time>
      </trkpt>
      <trkpt lat="59.798110495423" lon="17.642166290718">
        <ele>72.4</ele>
        <time>2017-10-14T17:00:36Z</time>
      </trkpt>
      <trkpt lat="59.798132456001" lon="17.642199902137">
        <ele>72.4</ele>
        <time>2017-10-14T17:00:37Z</time>
      </trkpt>
      <trkpt lat="59.798154668036" lon="17.64223569285">
        <ele>72.4</ele>
        <time>2017-10-14T17:00:38Z</time>
      </trkpt>
      <trkpt lat="59.798175706605" lon="17.642274584866">
        <ele>72.4</ele>
        <time>2017-10-14T17:00:39Z</time>
      </trkpt>
      <trkpt lat="59.798195320251" lon="17.642310794674">
        <ele>72.4</ele>
        <time>2017-10-14T17:00:40Z</time>
      </trkpt>
      <trkpt lat="59.798221136503" lon="17.642358403866">
        <ele>72.2</ele>
        <time>2017-10-14T17:00:41Z</time>
      </trkpt>
      <trkpt lat="59.798242677986" lon="17.642426213437">
        <ele>72.4</ele>
        <time>2017-10-14T17:00:42Z</time>
      </trkpt>
      <trkpt lat="59.79826497384" lon="17.642502740184">
        <ele>72.2</ele>
        <time>2017-10-14T17:00:43Z</time>
      </trkpt>
      <trkpt lat="59.798297830888" lon="17.64257599799">
        <ele>72.2</ele>
        <time>2017-10-14T17:00:44Z</time>
      </trkpt>
      <trkpt lat="59.798331023212" lon="17.642633581643">
        <ele>72.2</ele>
        <time>2017-10-14T17:00:45Z</time>
      </trkpt>
      <trkpt lat="59.798381146974" lon="17.64271346115">
        <ele>72.2</ele>
        <time>2017-10-14T17:00:46Z</time>
      </trkpt>
      <trkpt lat="59.798427331243" lon="17.642784288205">
        <ele>72.2</ele>
        <time>2017-10-14T17:00:47Z</time>
      </trkpt>
      <trkpt lat="59.798476281539" lon="17.64285511526">
        <ele>72</ele>
        <time>2017-10-14T17:00:48Z</time>
      </trkpt>
      <trkpt lat="59.798524645102" lon="17.642925104125">
        <ele>71.8</ele>
        <time>2017-10-14T17:00:49Z</time>
      </trkpt>
      <trkpt lat="59.798573511579" lon="17.642992326963">
        <ele>71.6</ele>
        <time>2017-10-14T17:00:50Z</time>
      </trkpt>
      <trkpt lat="59.798627323377" lon="17.643067847882">
        <ele>71.4</ele>
        <time>2017-10-14T17:00:51Z</time>
      </trkpt>
      <trkpt lat="59.798679961709" lon="17.643145045181">
        <ele>71.4</ele>
        <time>2017-10-14T17:00:52Z</time>
      </trkpt>
      <trkpt lat="59.798732935317" lon="17.643218554444">
        <ele>71.2</ele>
        <time>2017-10-14T17:00:53Z</time>
      </trkpt>
      <trkpt lat="59.798784567821" lon="17.643290387327">
        <ele>71.2</ele>
        <time>2017-10-14T17:00:54Z</time>
      </trkpt>
      <trkpt lat="59.798833015203" lon="17.643357610165">
        <ele>71.2</ele>
        <time>2017-10-14T17:00:55Z</time>
      </trkpt>
      <trkpt lat="59.798887329915" lon="17.64343095179">
        <ele>71.2</ele>
        <time>2017-10-14T17:00:56Z</time>
      </trkpt>
      <trkpt lat="59.798923372085" lon="17.643475124403">
        <ele>71.2</ele>
        <time>2017-10-14T17:00:57Z</time>
      </trkpt>
      <trkpt lat="59.79899252276" lon="17.643557015566">
        <ele>71.2</ele>
        <time>2017-10-14T17:00:58Z</time>
      </trkpt>
      <trkpt lat="59.799050190232" lon="17.643618790169">
        <ele>71.2</ele>
        <time>2017-10-14T17:00:59Z</time>
      </trkpt>
      <trkpt lat="59.799097967062" lon="17.643671260863">
        <ele>71.2</ele>
        <time>2017-10-14T17:01:00Z</time>
      </trkpt>
      <trkpt lat="59.799158735837" lon="17.643721887539">
        <ele>71.4</ele>
        <time>2017-10-14T17:01:01Z</time>
      </trkpt>
      <trkpt lat="59.799217576775" lon="17.64374527304">
        <ele>71.4</ele>
        <time>2017-10-14T17:01:02Z</time>
      </trkpt>
      <trkpt lat="59.799273400229" lon="17.64377460969">
        <ele>71.4</ele>
        <time>2017-10-14T17:01:03Z</time>
      </trkpt>
      <trkpt lat="59.799328888407" lon="17.643819955769">
        <ele>71.6</ele>
        <time>2017-10-14T17:01:04Z</time>
      </trkpt>
      <trkpt lat="59.799377084332" lon="17.643861027079">
        <ele>71.6</ele>
        <time>2017-10-14T17:01:05Z</time>
      </trkpt>
      <trkpt lat="59.799428046284" lon="17.643904361502">
        <ele>71.8</ele>
        <time>2017-10-14T17:01:06Z</time>
      </trkpt>
      <trkpt lat="59.799467022119" lon="17.643942080052">
        <ele>71.8</ele>
        <time>2017-10-14T17:01:07Z</time>
      </trkpt>
      <trkpt lat="59.799504070117" lon="17.643983235181">
        <ele>72.2</ele>
        <time>2017-10-14T17:01:08Z</time>
      </trkpt>
      <trkpt lat="59.799542123943" lon="17.644028078346">
        <ele>72.4</ele>
        <time>2017-10-14T17:01:09Z</time>
      </trkpt>
      <trkpt lat="59.799580010131" lon="17.644077615375">
        <ele>72.6</ele>
        <time>2017-10-14T17:01:10Z</time>
      </trkpt>
      <trkpt lat="59.799621919631" lon="17.644146849869">
        <ele>73</ele>
        <time>2017-10-14T17:01:11Z</time>
      </trkpt>
      <trkpt lat="59.799660392552" lon="17.644222370788">
        <ele>73.2</ele>
        <time>2017-10-14T17:01:12Z</time>
      </trkpt>
      <trkpt lat="59.799699200749" lon="17.64430266939">
        <ele>73.2</ele>
        <time>2017-10-14T17:01:13Z</time>
      </trkpt>
      <trkpt lat="59.799738008946" lon="17.644390260245">
        <ele>73.2</ele>
        <time>2017-10-14T17:01:14Z</time>
      </trkpt>
      <trkpt lat="59.799775643677" lon="17.644460165291">
        <ele>73.2</ele>
        <time>2017-10-14T17:01:15Z</time>
      </trkpt>
      <trkpt lat="59.799828533466" lon="17.64453400983">
        <ele>73</ele>
        <time>2017-10-14T17:01:16Z</time>
      </trkpt>
      <trkpt lat="59.799885111291" lon="17.644594862424">
        <ele>72.8</ele>
        <time>2017-10-14T17:01:17Z</time>
      </trkpt>
      <trkpt lat="59.799941605297" lon="17.644653284267">
        <ele>72.6</ele>
        <time>2017-10-14T17:01:18Z</time>
      </trkpt>
      <trkpt lat="59.800000110959" lon="17.644699468536">
        <ele>72.6</ele>
        <time>2017-10-14T17:01:19Z</time>
      </trkpt>
      <trkpt lat="59.800053755119" lon="17.644729391919">
        <ele>72.4</ele>
        <time>2017-10-14T17:01:20Z</time>
      </trkpt>
      <trkpt lat="59.800114942989" lon="17.64475277742">
        <ele>72.2</ele>
        <time>2017-10-14T17:01:21Z</time>
      </trkpt>
      <trkpt lat="59.800172945737" lon="17.644767278107">
        <ele>72.2</ele>
        <time>2017-10-14T17:01:22Z</time>
      </trkpt>
      <trkpt lat="59.80023304396" lon="17.644775492369">
        <ele>72</ele>
        <time>2017-10-14T17:01:23Z</time>
      </trkpt>
      <trkpt lat="59.800291884898" lon="17.644779264224">
        <ele>72</ele>
        <time>2017-10-14T17:01:24Z</time>
      </trkpt>
      <trkpt lat="59.800345109963" lon="17.644775743826">
        <ele>72</ele>
        <time>2017-10-14T17:01:25Z</time>
      </trkpt>
      <trkpt lat="59.800407303661" lon="17.644767110469">
        <ele>72</ele>
        <time>2017-10-14T17:01:26Z</time>
      </trkpt>
      <trkpt lat="59.800463378572" lon="17.644763757709">
        <ele>72.2</ele>
        <time>2017-10-14T17:01:27Z</time>
      </trkpt>
      <trkpt lat="59.800519034388" lon="17.644754286162">
        <ele>72.2</ele>
        <time>2017-10-14T17:01:28Z</time>
      </trkpt>
      <trkpt lat="59.800577875326" lon="17.644743641149">
        <ele>72.2</ele>
        <time>2017-10-14T17:01:29Z</time>
      </trkpt>
      <trkpt lat="59.800626238889" lon="17.644738360552">
        <ele>72.2</ele>
        <time>2017-10-14T17:01:30Z</time>
      </trkpt>
      <trkpt lat="59.800687929673" lon="17.644736935629">
        <ele>72.4</ele>
        <time>2017-10-14T17:01:31Z</time>
      </trkpt>
      <trkpt lat="59.800743920765" lon="17.644731738851">
        <ele>72.4</ele>
        <time>2017-10-14T17:01:32Z</time>
      </trkpt>
      <trkpt lat="59.800798989848" lon="17.644717741078">
        <ele>72.4</ele>
        <time>2017-10-14T17:01:33Z</time>
      </trkpt>
      <trkpt lat="59.800848862153" lon="17.644696451052">
        <ele>72.6</ele>
        <time>2017-10-14T17:01:34Z</time>
      </trkpt>
      <trkpt lat="59.800901416666" lon="17.644659235416">
        <ele>72.6</ele>
        <time>2017-10-14T17:01:35Z</time>
      </trkpt>
      <trkpt lat="59.800952630075" lon="17.64461699064">
        <ele>72.8</ele>
        <time>2017-10-14T17:01:36Z</time>
      </trkpt>
      <trkpt lat="59.80100417876" lon="17.644575667873">
        <ele>72.8</ele>
        <time>2017-10-14T17:01:37Z</time>
      </trkpt>
      <trkpt lat="59.80105530835" lon="17.644539625703">
        <ele>72.8</ele>
        <time>2017-10-14T17:01:38Z</time>
      </trkpt>
      <trkpt lat="59.801105515931" lon="17.644498638212">
        <ele>72.8</ele>
        <time>2017-10-14T17:01:39Z</time>
      </trkpt>
      <trkpt lat="59.801150191458" lon="17.644452873038">
        <ele>72.8</ele>
        <time>2017-10-14T17:01:40Z</time>
      </trkpt>
      <trkpt lat="59.801197297736" lon="17.644408868063">
        <ele>72.8</ele>
        <time>2017-10-14T17:01:41Z</time>
      </trkpt>
      <trkpt lat="59.801241721806" lon="17.644372742074">
        <ele>72.8</ele>
        <time>2017-10-14T17:01:42Z</time>
      </trkpt>
      <trkpt lat="59.801280949098" lon="17.644335694076">
        <ele>72.8</ele>
        <time>2017-10-14T17:01:43Z</time>
      </trkpt>
      <trkpt lat="59.801319841114" lon="17.644299065173">
        <ele>73</ele>
        <time>2017-10-14T17:01:44Z</time>
      </trkpt>
      <trkpt lat="59.801353787809" lon="17.644270985808">
        <ele>73.2</ele>
        <time>2017-10-14T17:01:45Z</time>
      </trkpt>
      <trkpt lat="59.801395529671" lon="17.644234943638">
        <ele>73.6</ele>
        <time>2017-10-14T17:01:46Z</time>
      </trkpt>
      <trkpt lat="59.801426291244" lon="17.644204517341">
        <ele>74</ele>
        <time>2017-10-14T17:01:47Z</time>
      </trkpt>
      <trkpt lat="59.801467865468" lon="17.644165122411">
        <ele>74.6</ele>
        <time>2017-10-14T17:01:48Z</time>
      </trkpt>
      <trkpt lat="59.801504326733" lon="17.644129834612">
        <ele>75.2</ele>
        <time>2017-10-14T17:01:49Z</time>
      </trkpt>
      <trkpt lat="59.801539279256" lon="17.644098570125">
        <ele>75.8</ele>
        <time>2017-10-14T17:01:50Z</time>
      </trkpt>
      <trkpt lat="59.801578841824" lon="17.644063617602">
        <ele>76.4</ele>
        <time>2017-10-14T17:01:51Z</time>
      </trkpt>
      <trkpt lat="59.801617985297" lon="17.644032604572">
        <ele>76.6</ele>
        <time>2017-10-14T17:01:52Z</time>
      </trkpt>
      <trkpt lat="59.801659894797" lon="17.643998825515">
        <ele>76.8</ele>
        <time>2017-10-14T17:01:53Z</time>
      </trkpt>
      <trkpt lat="59.801703983591" lon="17.643967309571">
        <ele>76.8</ele>
        <time>2017-10-14T17:01:54Z</time>
      </trkpt>
      <trkpt lat="59.801744216711" lon="17.643940403672">
        <ele>76.8</ele>
        <time>2017-10-14T17:01:55Z</time>
      </trkpt>
      <trkpt lat="59.80179291555" lon="17.643911318479">
        <ele>76.8</ele>
        <time>2017-10-14T17:01:56Z</time>
      </trkpt>
      <trkpt lat="59.801840524742" lon="17.643885753684">
        <ele>76.8</ele>
        <time>2017-10-14T17:01:57Z</time>
      </trkpt>
      <trkpt lat="59.801889055943" lon="17.643862871097">
        <ele>76.8</ele>
        <time>2017-10-14T17:01:58Z</time>
      </trkpt>
      <trkpt lat="59.801943370655" lon="17.643844598555">
        <ele>76.8</ele>
        <time>2017-10-14T17:01:59Z</time>
      </trkpt>
      <trkpt lat="59.8019898902" lon="17.643833618266">
        <ele>76.6</ele>
        <time>2017-10-14T17:02:00Z</time>
      </trkpt>
      <trkpt lat="59.802051161889" lon="17.643825320185">
        <ele>76.6</ele>
        <time>2017-10-14T17:02:01Z</time>
      </trkpt>
      <trkpt lat="59.802107655895" lon="17.643828505307">
        <ele>76.6</ele>
        <time>2017-10-14T17:02:02Z</time>
      </trkpt>
      <trkpt lat="59.80216674829" lon="17.643832947714">
        <ele>76.6</ele>
        <time>2017-10-14T17:02:03Z</time>
      </trkpt>
      <trkpt lat="59.802229780178" lon="17.643843928003">
        <ele>76.4</ele>
        <time>2017-10-14T17:02:04Z</time>
      </trkpt>
      <trkpt lat="59.802294404627" lon="17.643861027079">
        <ele>76.4</ele>
        <time>2017-10-14T17:02:05Z</time>
      </trkpt>
      <trkpt lat="59.802365147863" lon="17.643889776996">
        <ele>76.2</ele>
        <time>2017-10-14T17:02:06Z</time>
      </trkpt>
      <trkpt lat="59.802433627986" lon="17.64392380751">
        <ele>75.6</ele>
        <time>2017-10-14T17:02:07Z</time>
      </trkpt>
      <trkpt lat="59.802505041774" lon="17.643957586567">
        <ele>75</ele>
        <time>2017-10-14T17:02:08Z</time>
      </trkpt>
      <trkpt lat="59.802573102802" lon="17.643987845226">
        <ele>74.2</ele>
        <time>2017-10-14T17:02:09Z</time>
      </trkpt>
      <trkpt lat="59.802641247649" lon="17.644020115541">
        <ele>73.6</ele>
        <time>2017-10-14T17:02:10Z</time>
      </trkpt>
      <trkpt lat="59.80271492455" lon="17.644054648969">
        <ele>73</ele>
        <time>2017-10-14T17:02:11Z</time>
      </trkpt>
      <trkpt lat="59.802783572311" lon="17.644072083321">
        <ele>72.4</ele>
        <time>2017-10-14T17:02:12Z</time>
      </trkpt>
      <trkpt lat="59.802849537864" lon="17.644086332551">
        <ele>72.4</ele>
        <time>2017-10-14T17:02:13Z</time>
      </trkpt>
      <trkpt lat="59.802915419598" lon="17.644103850722">
        <ele>72.4</ele>
        <time>2017-10-14T17:02:14Z</time>
      </trkpt>
      <trkpt lat="59.802973170889" lon="17.644114998649">
        <ele>72.2</ele>
        <time>2017-10-14T17:02:15Z</time>
      </trkpt>
      <trkpt lat="59.8030460096" lon="17.644128744965">
        <ele>72.2</ele>
        <time>2017-10-14T17:02:16Z</time>
      </trkpt>
      <trkpt lat="59.803113819171" lon="17.644140563444">
        <ele>72.2</ele>
        <time>2017-10-14T17:02:17Z</time>
      </trkpt>
      <trkpt lat="59.803179030353" lon="17.644150202629">
        <ele>72</ele>
        <time>2017-10-14T17:02:18Z</time>
      </trkpt>
      <trkpt lat="59.803241475508" lon="17.644159171262">
        <ele>72</ele>
        <time>2017-10-14T17:02:19Z</time>
      </trkpt>
      <trkpt lat="59.803297801876" lon="17.644172163207">
        <ele>71.8</ele>
        <time>2017-10-14T17:02:20Z</time>
      </trkpt>
      <trkpt lat="59.803350104932" lon="17.644187166808">
        <ele>71.4</ele>
        <time>2017-10-14T17:02:21Z</time>
      </trkpt>
      <trkpt lat="59.803399139047" lon="17.64420376297">
        <ele>71.2</ele>
        <time>2017-10-14T17:02:22Z</time>
      </trkpt>
      <trkpt lat="59.803449095171" lon="17.64420543935">
        <ele>71</ele>
        <time>2017-10-14T17:02:23Z</time>
      </trkpt>
      <trkpt lat="59.803497710191" lon="17.644182053849">
        <ele>70.8</ele>
        <time>2017-10-14T17:02:24Z</time>
      </trkpt>
      <trkpt lat="59.803537943311" lon="17.644134863752">
        <ele>70.6</ele>
        <time>2017-10-14T17:02:25Z</time>
      </trkpt>
      <trkpt lat="59.803579182259" lon="17.64405540334">
        <ele>70.4</ele>
        <time>2017-10-14T17:02:26Z</time>
      </trkpt>
      <trkpt lat="59.803608770366" lon="17.643962531888">
        <ele>70.4</ele>
        <time>2017-10-14T17:02:27Z</time>
      </trkpt>
      <trkpt lat="59.803638274654" lon="17.643867481142">
        <ele>70.2</ele>
        <time>2017-10-14T17:02:28Z</time>
      </trkpt>
      <trkpt lat="59.803673562453" lon="17.643765808695">
        <ele>70</ele>
        <time>2017-10-14T17:02:29Z</time>
      </trkpt>
      <trkpt lat="59.803706670958" lon="17.643684168989">
        <ele>69.8</ele>
        <time>2017-10-14T17:02:30Z</time>
      </trkpt>
      <trkpt lat="59.803750005381" lon="17.643584592017">
        <ele>69.8</ele>
        <time>2017-10-14T17:02:31Z</time>
      </trkpt>
      <trkpt lat="59.803792669252" lon="17.643500856836">
        <ele>69.6</ele>
        <time>2017-10-14T17:02:32Z</time>
      </trkpt>
      <trkpt lat="59.803834578752" lon="17.643419049492">
        <ele>69.6</ele>
        <time>2017-10-14T17:02:33Z</time>
      </trkpt>
      <trkpt lat="59.803879002822" lon="17.643332213008">
        <ele>69.6</ele>
        <time>2017-10-14T17:02:34Z</time>
      </trkpt>
      <trkpt lat="59.803922337245" lon="17.643256021537">
        <ele>69.4</ele>
        <time>2017-10-14T17:02:35Z</time>
      </trkpt>
      <trkpt lat="59.803970281713" lon="17.643169268872">
        <ele>69.4</ele>
        <time>2017-10-14T17:02:36Z</time>
      </trkpt>
      <trkpt lat="59.804016382163" lon="17.643082097112">
        <ele>69.4</ele>
        <time>2017-10-14T17:02:37Z</time>
      </trkpt>
      <trkpt lat="59.804062566432" lon="17.642996517913">
        <ele>69.4</ele>
        <time>2017-10-14T17:02:38Z</time>
      </trkpt>
      <trkpt lat="59.804108750701" lon="17.642909765248">
        <ele>69.4</ele>
        <time>2017-10-14T17:02:39Z</time>
      </trkpt>
      <trkpt lat="59.804151246934" lon="17.642824353687">
        <ele>69.4</ele>
        <time>2017-10-14T17:02:40Z</time>
      </trkpt>
      <trkpt lat="59.804201203058" lon="17.642722513602">
        <ele>69.4</ele>
        <time>2017-10-14T17:02:41Z</time>
      </trkpt>
      <trkpt lat="59.804244202205" lon="17.642627379037">
        <ele>69.2</ele>
        <time>2017-10-14T17:02:42Z</time>
      </trkpt>
      <trkpt lat="59.804287201352" lon="17.642529310807">
        <ele>69.2</ele>
        <time>2017-10-14T17:02:43Z</time>
      </trkpt>
      <trkpt lat="59.804330451956" lon="17.64242847655">
        <ele>69.2</ele>
        <time>2017-10-14T17:02:44Z</time>
      </trkpt>
      <trkpt lat="59.804369343972" lon="17.642335102184">
        <ele>69.2</ele>
        <time>2017-10-14T17:02:45Z</time>
      </trkpt>
      <trkpt lat="59.804411085834" lon="17.6422315019">
        <ele>69</ele>
        <time>2017-10-14T17:02:46Z</time>
      </trkpt>
      <trkpt lat="59.80445081604" lon="17.642128655987">
        <ele>68.8</ele>
        <time>2017-10-14T17:02:47Z</time>
      </trkpt>
      <trkpt lat="59.804489456599" lon="17.642026396807">
        <ele>68.8</ele>
        <time>2017-10-14T17:02:48Z</time>
      </trkpt>
      <trkpt lat="59.804528851529" lon="17.641918186478">
        <ele>68.8</ele>
        <time>2017-10-14T17:02:49Z</time>
      </trkpt>
      <trkpt lat="59.80456564807" lon="17.64182246518">
        <ele>68.6</ele>
        <time>2017-10-14T17:02:50Z</time>
      </trkpt>
      <trkpt lat="59.804607306113" lon="17.641716601783">
        <ele>68.6</ele>
        <time>2017-10-14T17:02:51Z</time>
      </trkpt>
      <trkpt lat="59.80464527612" lon="17.641617695363">
        <ele>68.4</ele>
        <time>2017-10-14T17:02:52Z</time>
      </trkpt>
      <trkpt lat="59.804687437077" lon="17.641509485034">
        <ele>68.4</ele>
        <time>2017-10-14T17:02:53Z</time>
      </trkpt>
      <trkpt lat="59.804725826179" lon="17.641414350469">
        <ele>68.2</ele>
        <time>2017-10-14T17:02:54Z</time>
      </trkpt>
      <trkpt lat="59.804762287444" lon="17.641319299723">
        <ele>68.2</ele>
        <time>2017-10-14T17:02:55Z</time>
      </trkpt>
      <trkpt lat="59.804800676546" lon="17.641215531801">
        <ele>68.2</ele>
        <time>2017-10-14T17:02:56Z</time>
      </trkpt>
      <trkpt lat="59.804836467259" lon="17.641118972313">
        <ele>68.2</ele>
        <time>2017-10-14T17:02:57Z</time>
      </trkpt>
      <trkpt lat="59.804874185809" lon="17.641022245187">
        <ele>68.2</ele>
        <time>2017-10-14T17:02:58Z</time>
      </trkpt>
      <trkpt lat="59.804911904359" lon="17.640924931328">
        <ele>68.4</ele>
        <time>2017-10-14T17:02:59Z</time>
      </trkpt>
      <trkpt lat="59.804947359796" lon="17.640839435948">
        <ele>68.4</ele>
        <time>2017-10-14T17:03:00Z</time>
      </trkpt>
      <trkpt lat="59.804984826889" lon="17.640749414342">
        <ele>68.6</ele>
        <time>2017-10-14T17:03:01Z</time>
      </trkpt>
      <trkpt lat="59.805017851575" lon="17.640666768808">
        <ele>68.8</ele>
        <time>2017-10-14T17:03:02Z</time>
      </trkpt>
      <trkpt lat="59.805048529329" lon="17.640586721663">
        <ele>69</ele>
        <time>2017-10-14T17:03:03Z</time>
      </trkpt>
      <trkpt lat="59.805076776332" lon="17.640517822445">
        <ele>69.2</ele>
        <time>2017-10-14T17:03:04Z</time>
      </trkpt>
      <trkpt lat="59.805099491281" lon="17.640462837181">
        <ele>69.4</ele>
        <time>2017-10-14T17:03:05Z</time>
      </trkpt>
      <trkpt lat="59.805121954773" lon="17.640404499157">
        <ele>69.6</ele>
        <time>2017-10-14T17:03:06Z</time>
      </trkpt>
      <trkpt lat="59.805142993342" lon="17.640355967956">
        <ele>69.8</ele>
        <time>2017-10-14T17:03:07Z</time>
      </trkpt>
      <trkpt lat="59.805165959748" lon="17.640300898873">
        <ele>69.8</ele>
        <time>2017-10-14T17:03:08Z</time>
      </trkpt>
      <trkpt lat="59.805188758516" lon="17.640248428179">
        <ele>70</ele>
        <time>2017-10-14T17:03:09Z</time>
      </trkpt>
      <trkpt lat="59.805210886732" lon="17.64019805296">
        <ele>70</ele>
        <time>2017-10-14T17:03:10Z</time>
      </trkpt>
      <trkpt lat="59.805239971925" lon="17.640132338864">
        <ele>70.2</ele>
        <time>2017-10-14T17:03:11Z</time>
      </trkpt>
      <trkpt lat="59.805268973299" lon="17.640067211501">
        <ele>70.2</ele>
        <time>2017-10-14T17:03:12Z</time>
      </trkpt>
      <trkpt lat="59.805299734872" lon="17.639996635903">
        <ele>70.2</ele>
        <time>2017-10-14T17:03:13Z</time>
      </trkpt>
      <trkpt lat="59.805335274128" lon="17.63992564121">
        <ele>70.2</ele>
        <time>2017-10-14T17:03:14Z</time>
      </trkpt>
      <trkpt lat="59.805367125348" lon="17.639860513847">
        <ele>70.2</ele>
        <time>2017-10-14T17:03:15Z</time>
      </trkpt>
      <trkpt lat="59.80540802902" lon="17.639776527209">
        <ele>70.2</ele>
        <time>2017-10-14T17:03:16Z</time>
      </trkpt>
      <trkpt lat="59.805446753398" lon="17.639701090109">
        <ele>70</ele>
        <time>2017-10-14T17:03:17Z</time>
      </trkpt>
      <trkpt lat="59.805487237975" lon="17.639624479543">
        <ele>70</ele>
        <time>2017-10-14T17:03:18Z</time>
      </trkpt>
      <trkpt lat="59.805529063656" lon="17.639546863149">
        <ele>70</ele>
        <time>2017-10-14T17:03:19Z</time>
      </trkpt>
      <trkpt lat="59.805567536577" lon="17.639474527352">
        <ele>69.8</ele>
        <time>2017-10-14T17:03:20Z</time>
      </trkpt>
      <trkpt lat="59.805610954819" lon="17.639392133275">
        <ele>69.8</ele>
        <time>2017-10-14T17:03:21Z</time>
      </trkpt>
      <trkpt lat="59.805651607034" lon="17.639319378383">
        <ele>69.8</ele>
        <time>2017-10-14T17:03:22Z</time>
      </trkpt>
      <trkpt lat="59.805699802959" lon="17.639236900487">
        <ele>69.8</ele>
        <time>2017-10-14T17:03:23Z</time>
      </trkpt>
      <trkpt lat="59.80574414321" lon="17.639160709016">
        <ele>69.8</ele>
        <time>2017-10-14T17:03:24Z</time>
      </trkpt>
      <trkpt lat="59.805785633615" lon="17.639090887789">
        <ele>69.8</ele>
        <time>2017-10-14T17:03:25Z</time>
      </trkpt>
      <trkpt lat="59.805835170644" lon="17.63900949954">
        <ele>69.8</ele>
        <time>2017-10-14T17:03:26Z</time>
      </trkpt>
      <trkpt lat="59.805878337429" lon="17.638940181227">
        <ele>69.8</ele>
        <time>2017-10-14T17:03:27Z</time>
      </trkpt>
      <trkpt lat="59.805923934965" lon="17.638870862914">
        <ele>69.8</ele>
        <time>2017-10-14T17:03:28Z</time>
      </trkpt>
      <trkpt lat="59.805970705967" lon="17.638798862393">
        <ele>69.8</ele>
        <time>2017-10-14T17:03:29Z</time>
      </trkpt>
      <trkpt lat="59.806012783105" lon="17.63873457322">
        <ele>69.8</ele>
        <time>2017-10-14T17:03:30Z</time>
      </trkpt>
      <trkpt lat="59.806060643754" lon="17.638662405061">
        <ele>69.8</ele>
        <time>2017-10-14T17:03:31Z</time>
      </trkpt>
      <trkpt lat="59.806107247118" lon="17.638597612974">
        <ele>69.8</ele>
        <time>2017-10-14T17:03:32Z</time>
      </trkpt>
      <trkpt lat="59.806152677016" lon="17.63853592219">
        <ele>69.8</ele>
        <time>2017-10-14T17:03:33Z</time>
      </trkpt>
      <trkpt lat="59.806199196561" lon="17.638474482863">
        <ele>69.8</ele>
        <time>2017-10-14T17:03:34Z</time>
      </trkpt>
      <trkpt lat="59.806243285355" lon="17.638415809563">
        <ele>69.8</ele>
        <time>2017-10-14T17:03:35Z</time>
      </trkpt>
      <trkpt lat="59.806291732737" lon="17.638353280589">
        <ele>70</ele>
        <time>2017-10-14T17:03:36Z</time>
      </trkpt>
      <trkpt lat="59.806335989169" lon="17.638297540954">
        <ele>70.2</ele>
        <time>2017-10-14T17:03:37Z</time>
      </trkpt>
      <trkpt lat="59.806389046596" lon="17.638234676704">
        <ele>70.4</ele>
        <time>2017-10-14T17:03:38Z</time>
      </trkpt>
      <trkpt lat="59.806434895589" lon="17.638176673956">
        <ele>70.6</ele>
        <time>2017-10-14T17:03:39Z</time>
      </trkpt>
      <trkpt lat="59.80648007403" lon="17.638120766683">
        <ele>70.6</ele>
        <time>2017-10-14T17:03:40Z</time>
      </trkpt>
      <trkpt lat="59.806531957991" lon="17.638057399519">
        <ele>70.6</ele>
        <time>2017-10-14T17:03:41Z</time>
      </trkpt>
      <trkpt lat="59.806581997934" lon="17.637998558581">
        <ele>70.4</ele>
        <time>2017-10-14T17:03:42Z</time>
      </trkpt>
      <trkpt lat="59.806633798076" lon="17.63794332186">
        <ele>70.6</ele>
        <time>2017-10-14T17:03:43Z</time>
      </trkpt>
      <trkpt lat="59.806684676209" lon="17.63788716313">
        <ele>70.6</ele>
        <time>2017-10-14T17:03:44Z</time>
      </trkpt>
      <trkpt lat="59.806733877962" lon="17.637834943893">
        <ele>70.6</ele>
        <time>2017-10-14T17:03:45Z</time>
      </trkpt>
      <trkpt lat="59.806791629253" lon="17.637775516222">
        <ele>70.6</ele>
        <time>2017-10-14T17:03:46Z</time>
      </trkpt>
      <trkpt lat="59.806843261757" lon="17.637723799899">
        <ele>70.6</ele>
        <time>2017-10-14T17:03:47Z</time>
      </trkpt>
      <trkpt lat="59.806897241193" lon="17.637669820463">
        <ele>70.4</ele>
        <time>2017-10-14T17:03:48Z</time>
      </trkpt>
      <trkpt lat="59.806953232285" lon="17.637620870167">
        <ele>70.4</ele>
        <time>2017-10-14T17:03:49Z</time>
      </trkpt>
      <trkpt lat="59.807009893929" lon="17.637576027002">
        <ele>70.4</ele>
        <time>2017-10-14T17:03:50Z</time>
      </trkpt>
      <trkpt lat="59.807065717383" lon="17.637527160525">
        <ele>70.2</ele>
        <time>2017-10-14T17:03:51Z</time>
      </trkpt>
      <trkpt lat="59.807117852801" lon="17.637478210229">
        <ele>70.2</ele>
        <time>2017-10-14T17:03:52Z</time>
      </trkpt>
      <trkpt lat="59.80718247725" lon="17.637423895517">
        <ele>70.2</ele>
        <time>2017-10-14T17:03:53Z</time>
      </trkpt>
      <trkpt lat="59.80724198874" lon="17.637378297981">
        <ele>70.2</ele>
        <time>2017-10-14T17:03:54Z</time>
      </trkpt>
      <trkpt lat="59.807298063651" lon="17.637337561947">
        <ele>70</ele>
        <time>2017-10-14T17:03:55Z</time>
      </trkpt>
      <trkpt lat="59.807360257349" lon="17.637291126221">
        <ele>70</ele>
        <time>2017-10-14T17:03:56Z</time>
      </trkpt>
      <trkpt lat="59.807419433563" lon="17.637248546169">
        <ele>69.8</ele>
        <time>2017-10-14T17:03:57Z</time>
      </trkpt>
      <trkpt lat="59.807462516529" lon="17.637215437664">
        <ele>69.8</ele>
        <time>2017-10-14T17:03:58Z</time>
      </trkpt>
      <trkpt lat="59.807538372724" lon="17.637163050789">
        <ele>69.6</ele>
        <time>2017-10-14T17:03:59Z</time>
      </trkpt>
      <trkpt lat="59.807596375472" lon="17.637126421886">
        <ele>69.6</ele>
        <time>2017-10-14T17:04:00Z</time>
      </trkpt>
      <trkpt lat="59.807661167559" lon="17.637086859318">
        <ele>69.8</ele>
        <time>2017-10-14T17:04:01Z</time>
      </trkpt>
      <trkpt lat="59.807723528895" lon="17.637051236243">
        <ele>69.8</ele>
        <time>2017-10-14T17:04:02Z</time>
      </trkpt>
      <trkpt lat="59.80778345948" lon="17.637016702815">
        <ele>69.8</ele>
        <time>2017-10-14T17:04:03Z</time>
      </trkpt>
      <trkpt lat="59.807845904635" lon="17.636982169387">
        <ele>70</ele>
        <time>2017-10-14T17:04:04Z</time>
      </trkpt>
      <trkpt lat="59.807908517428" lon="17.636951826909">
        <ele>70</ele>
        <time>2017-10-14T17:04:05Z</time>
      </trkpt>
      <trkpt lat="59.807975153533" lon="17.636918466947">
        <ele>70</ele>
        <time>2017-10-14T17:04:06Z</time>
      </trkpt>
      <trkpt lat="59.808034245928" lon="17.636887034822">
        <ele>69.8</ele>
        <time>2017-10-14T17:04:07Z</time>
      </trkpt>
      <trkpt lat="59.808101887861" lon="17.636852669032">
        <ele>69.8</ele>
        <time>2017-10-14T17:04:08Z</time>
      </trkpt>
      <trkpt lat="59.808163411007" lon="17.636821320726">
        <ele>69.8</ele>
        <time>2017-10-14T17:04:09Z</time>
      </trkpt>
      <trkpt lat="59.808223593049" lon="17.636791564981">
        <ele>69.6</ele>
        <time>2017-10-14T17:04:10Z</time>
      </trkpt>
      <trkpt lat="59.808291737896" lon="17.636759210847">
        <ele>69.6</ele>
        <time>2017-10-14T17:04:11Z</time>
      </trkpt>
      <trkpt lat="59.808355021241" lon="17.636727778722">
        <ele>69.4</ele>
        <time>2017-10-14T17:04:12Z</time>
      </trkpt>
      <trkpt lat="59.808418220767" lon="17.63670196247">
        <ele>69.4</ele>
        <time>2017-10-14T17:04:13Z</time>
      </trkpt>
      <trkpt lat="59.808481168836" lon="17.636676146218">
        <ele>69.2</ele>
        <time>2017-10-14T17:04:14Z</time>
      </trkpt>
      <trkpt lat="59.808538920127" lon="17.636649659414">
        <ele>69.2</ele>
        <time>2017-10-14T17:04:15Z</time>
      </trkpt>
      <trkpt lat="59.808607903164" lon="17.636615209805">
        <ele>69.2</ele>
        <time>2017-10-14T17:04:16Z</time>
      </trkpt>
      <trkpt lat="59.808672527613" lon="17.63658461587">
        <ele>69.2</ele>
        <time>2017-10-14T17:04:17Z</time>
      </trkpt>
      <trkpt lat="59.80873564332" lon="17.636554692487">
        <ele>69.4</ele>
        <time>2017-10-14T17:04:18Z</time>
      </trkpt>
      <trkpt lat="59.80879934576" lon="17.636524601466">
        <ele>69.2</ele>
        <time>2017-10-14T17:04:19Z</time>
      </trkpt>
      <trkpt lat="59.80886053363" lon="17.636498701395">
        <ele>69.2</ele>
        <time>2017-10-14T17:04:20Z</time>
      </trkpt>
      <trkpt lat="59.808925744812" lon="17.636471711677">
        <ele>69.2</ele>
        <time>2017-10-14T17:04:21Z</time>
      </trkpt>
      <trkpt lat="59.808986429768" lon="17.636443464674">
        <ele>69</ele>
        <time>2017-10-14T17:04:22Z</time>
      </trkpt>
      <trkpt lat="59.809054574615" lon="17.636409769436">
        <ele>69</ele>
        <time>2017-10-14T17:04:23Z</time>
      </trkpt>
      <trkpt lat="59.809117941779" lon="17.636377247664">
        <ele>69</ele>
        <time>2017-10-14T17:04:24Z</time>
      </trkpt>
      <trkpt lat="59.809177537088" lon="17.636346066996">
        <ele>69</ele>
        <time>2017-10-14T17:04:25Z</time>
      </trkpt>
      <trkpt lat="59.809245765754" lon="17.636315221604">
        <ele>69.2</ele>
        <time>2017-10-14T17:04:26Z</time>
      </trkpt>
      <trkpt lat="59.809311144574" lon="17.63628957299">
        <ele>69.2</ele>
        <time>2017-10-14T17:04:27Z</time>
      </trkpt>
      <trkpt lat="59.809376607213" lon="17.636262583272">
        <ele>69.2</ele>
        <time>2017-10-14T17:04:28Z</time>
      </trkpt>
      <trkpt lat="59.809443410956" lon="17.636231821699">
        <ele>69.2</ele>
        <time>2017-10-14T17:04:29Z</time>
      </trkpt>
      <trkpt lat="59.809504850283" lon="17.636199719022">
        <ele>69.4</ele>
        <time>2017-10-14T17:04:30Z</time>
      </trkpt>
      <trkpt lat="59.809574420053" lon="17.636166023784">
        <ele>69.4</ele>
        <time>2017-10-14T17:04:31Z</time>
      </trkpt>
      <trkpt lat="59.80964005033" lon="17.636129311062">
        <ele>69.4</ele>
        <time>2017-10-14T17:04:32Z</time>
      </trkpt>
      <trkpt lat="59.809705093874" lon="17.636097711299">
        <ele>69.4</ele>
        <time>2017-10-14T17:04:33Z</time>
      </trkpt>
      <trkpt lat="59.809770388875" lon="17.636066949726">
        <ele>69.4</ele>
        <time>2017-10-14T17:04:34Z</time>
      </trkpt>
      <trkpt lat="59.809834929505" lon="17.636039373275">
        <ele>69.4</ele>
        <time>2017-10-14T17:04:35Z</time>
      </trkpt>
      <trkpt lat="59.809905505103" lon="17.636004672209">
        <ele>69.4</ele>
        <time>2017-10-14T17:04:36Z</time>
      </trkpt>
      <trkpt lat="59.809967531163" lon="17.635969049134">
        <ele>69.2</ele>
        <time>2017-10-14T17:04:37Z</time>
      </trkpt>
      <trkpt lat="59.810035843648" lon="17.635930492394">
        <ele>69</ele>
        <time>2017-10-14T17:04:38Z</time>
      </trkpt>
      <trkpt lat="59.810099797545" lon="17.635889923998">
        <ele>69</ele>
        <time>2017-10-14T17:04:39Z</time>
      </trkpt>
      <trkpt lat="59.810157884112" lon="17.635849020326">
        <ele>68.8</ele>
        <time>2017-10-14T17:04:40Z</time>
      </trkpt>
      <trkpt lat="59.810229046443" lon="17.635797890736">
        <ele>68.6</ele>
        <time>2017-10-14T17:04:41Z</time>
      </trkpt>
      <trkpt lat="59.810292665064" lon="17.635752796114">
        <ele>68.6</ele>
        <time>2017-10-14T17:04:42Z</time>
      </trkpt>
      <trkpt lat="59.810355194038" lon="17.6357020018">
        <ele>68.6</ele>
        <time>2017-10-14T17:04:43Z</time>
      </trkpt>
      <trkpt lat="59.810418142107" lon="17.635645256337">
        <ele>68.6</ele>
        <time>2017-10-14T17:04:44Z</time>
      </trkpt>
      <trkpt lat="59.810476061036" lon="17.635591193082">
        <ele>68.6</ele>
        <time>2017-10-14T17:04:45Z</time>
      </trkpt>
      <trkpt lat="59.810540517847" lon="17.635532184506">
        <ele>68.6</ele>
        <time>2017-10-14T17:04:46Z</time>
      </trkpt>
      <trkpt lat="59.810601370441" lon="17.635470074627">
        <ele>68.4</ele>
        <time>2017-10-14T17:04:47Z</time>
      </trkpt>
      <trkpt lat="59.810665072881" lon="17.635405701635">
        <ele>68.2</ele>
        <time>2017-10-14T17:04:48Z</time>
      </trkpt>
      <trkpt lat="59.81071796267" lon="17.635350632552">
        <ele>68.2</ele>
        <time>2017-10-14T17:04:49Z</time>
      </trkpt>
      <trkpt lat="59.810775630142" lon="17.635290282872">
        <ele>68.2</ele>
        <time>2017-10-14T17:04:50Z</time>
      </trkpt>
      <trkpt lat="59.810834722537" lon="17.635223143853">
        <ele>68.2</ele>
        <time>2017-10-14T17:04:51Z</time>
      </trkpt>
      <trkpt lat="59.810890713629" lon="17.635155753377">
        <ele>68.2</ele>
        <time>2017-10-14T17:04:52Z</time>
      </trkpt>
      <trkpt lat="59.810952320594" lon="17.635079561906">
        <ele>68.2</ele>
        <time>2017-10-14T17:04:53Z</time>
      </trkpt>
      <trkpt lat="59.811007808772" lon="17.635006974652">
        <ele>68.4</ele>
        <time>2017-10-14T17:04:54Z</time>
      </trkpt>
      <trkpt lat="59.811060530923" lon="17.634935393226">
        <ele>68.4</ele>
        <time>2017-10-14T17:04:55Z</time>
      </trkpt>
      <trkpt lat="59.811119288042" lon="17.634852747692">
        <ele>68.6</ele>
        <time>2017-10-14T17:04:56Z</time>
      </trkpt>
      <trkpt lat="59.811172429288" lon="17.634775550393">
        <ele>68.6</ele>
        <time>2017-10-14T17:04:57Z</time>
      </trkpt>
      <trkpt lat="59.811228755656" lon="17.634694832696">
        <ele>68.6</ele>
        <time>2017-10-14T17:04:58Z</time>
      </trkpt>
      <trkpt lat="59.811284662929" lon="17.634613779723">
        <ele>68.6</ele>
        <time>2017-10-14T17:04:59Z</time>
      </trkpt>
      <trkpt lat="59.811336630709" lon="17.634534486949">
        <ele>68.6</ele>
        <time>2017-10-14T17:05:00Z</time>
      </trkpt>
      <trkpt lat="59.811388430851" lon="17.634447147551">
        <ele>68.6</ele>
        <time>2017-10-14T17:05:01Z</time>
      </trkpt>
      <trkpt lat="59.81143964426" lon="17.634359389058">
        <ele>68.6</ele>
        <time>2017-10-14T17:05:02Z</time>
      </trkpt>
      <trkpt lat="59.811486834357" lon="17.634281605026">
        <ele>68.4</ele>
        <time>2017-10-14T17:05:03Z</time>
      </trkpt>
      <trkpt lat="59.811537125757" lon="17.634194768542">
        <ele>68.4</ele>
        <time>2017-10-14T17:05:04Z</time>
      </trkpt>
      <trkpt lat="59.811582723293" lon="17.634112709741">
        <ele>68.2</ele>
        <time>2017-10-14T17:05:05Z</time>
      </trkpt>
      <trkpt lat="59.811630332485" lon="17.634021179393">
        <ele>68.2</ele>
        <time>2017-10-14T17:05:06Z</time>
      </trkpt>
      <trkpt lat="59.811670900881" lon="17.633938114764">
        <ele>68.2</ele>
        <time>2017-10-14T17:05:07Z</time>
      </trkpt>
      <trkpt lat="59.811711050182" lon="17.633843902208">
        <ele>68.2</ele>
        <time>2017-10-14T17:05:08Z</time>
      </trkpt>
      <trkpt lat="59.811747427628" lon="17.633757065724">
        <ele>68.2</ele>
        <time>2017-10-14T17:05:09Z</time>
      </trkpt>
      <trkpt lat="59.811785565273" lon="17.633678862597">
        <ele>68.4</ele>
        <time>2017-10-14T17:05:10Z</time>
      </trkpt>
      <trkpt lat="59.811835102302" lon="17.633600491832">
        <ele>68.8</ele>
        <time>2017-10-14T17:05:11Z</time>
      </trkpt>
      <trkpt lat="59.81188388496" lon="17.633549781337">
        <ele>69</ele>
        <time>2017-10-14T17:05:12Z</time>
      </trkpt>
      <trkpt lat="59.811935266007" lon="17.633514409719">
        <ele>69.2</ele>
        <time>2017-10-14T17:05:13Z</time>
      </trkpt>
      <trkpt lat="59.811985892683" lon="17.633484905431">
        <ele>69.2</ele>
        <time>2017-10-14T17:05:14Z</time>
      </trkpt>
      <trkpt lat="59.812028724192" lon="17.633455401143">
        <ele>69.6</ele>
        <time>2017-10-14T17:05:15Z</time>
      </trkpt>
      <trkpt lat="59.812074070271" lon="17.633411312349">
        <ele>69.6</ele>
        <time>2017-10-14T17:05:16Z</time>
      </trkpt>
      <trkpt lat="59.812109693346" lon="17.633366301546">
        <ele>69.8</ele>
        <time>2017-10-14T17:05:17Z</time>
      </trkpt>
      <trkpt lat="59.81214120929" lon="17.633322128933">
        <ele>70.2</ele>
        <time>2017-10-14T17:05:18Z</time>
      </trkpt>
      <trkpt lat="59.812167863732" lon="17.633275693207">
        <ele>70.4</ele>
        <time>2017-10-14T17:05:19Z</time>
      </trkpt>
      <trkpt lat="59.812194518174" lon="17.633225653264">
        <ele>70.6</ele>
        <time>2017-10-14T17:05:20Z</time>
      </trkpt>
      <trkpt lat="59.812222597539" lon="17.633175613321">
        <ele>70.8</ele>
        <time>2017-10-14T17:05:21Z</time>
      </trkpt>
      <trkpt lat="59.812254029664" lon="17.633133117088">
        <ele>71.2</ele>
        <time>2017-10-14T17:05:22Z</time>
      </trkpt>
      <trkpt lat="59.812290155653" lon="17.633097074918">
        <ele>71.4</ele>
        <time>2017-10-14T17:05:23Z</time>
      </trkpt>
      <trkpt lat="59.812331729877" lon="17.633084502068">
        <ele>71.6</ele>
        <time>2017-10-14T17:05:24Z</time>
      </trkpt>
      <trkpt lat="59.81237171154" lon="17.633087771009">
        <ele>71.6</ele>
        <time>2017-10-14T17:05:25Z</time>
      </trkpt>
      <trkpt lat="59.812418063447" lon="17.633089279751">
        <ele>71.6</ele>
        <time>2017-10-14T17:05:26Z</time>
      </trkpt>
      <trkpt lat="59.812460056766" lon="17.633090034122">
        <ele>71.6</ele>
        <time>2017-10-14T17:05:27Z</time>
      </trkpt>
      <trkpt lat="59.812505989578" lon="17.633103026067">
        <ele>71.4</ele>
        <time>2017-10-14T17:05:28Z</time>
      </trkpt>
      <trkpt lat="59.812545719784" lon="17.633143343006">
        <ele>71.2</ele>
        <time>2017-10-14T17:05:29Z</time>
      </trkpt>
      <trkpt lat="59.81257287714" lon="17.633203692686">
        <ele>71.2</ele>
        <time>2017-10-14T17:05:30Z</time>
      </trkpt>
      <trkpt lat="59.812597855202" lon="17.633310813368">
        <ele>71</ele>
        <time>2017-10-14T17:05:31Z</time>
      </trkpt>
      <trkpt lat="59.812604393084" lon="17.633409468331">
        <ele>71</ele>
        <time>2017-10-14T17:05:32Z</time>
      </trkpt>
      <trkpt lat="59.812602800523" lon="17.63351097314">
        <ele>71.2</ele>
        <time>2017-10-14T17:05:33Z</time>
      </trkpt>
      <trkpt lat="59.812594334804" lon="17.633619267288">
        <ele>71.2</ele>
        <time>2017-10-14T17:05:34Z</time>
      </trkpt>
      <trkpt lat="59.812588970388" lon="17.633729405454">
        <ele>71.2</ele>
        <time>2017-10-14T17:05:35Z</time>
      </trkpt>
      <trkpt lat="59.812586204361" lon="17.633848176977">
        <ele>71.2</ele>
        <time>2017-10-14T17:05:36Z</time>
      </trkpt>
      <trkpt lat="59.812584360343" lon="17.633966864681">
        <ele>71.2</ele>
        <time>2017-10-14T17:05:37Z</time>
      </trkpt>
      <trkpt lat="59.812585701447" lon="17.634088988964">
        <ele>71.2</ele>
        <time>2017-10-14T17:05:38Z</time>
      </trkpt>
      <trkpt lat="59.812587880741" lon="17.63421086179">
        <ele>71.2</ele>
        <time>2017-10-14T17:05:39Z</time>
      </trkpt>
      <trkpt lat="59.812592826062" lon="17.634334662453">
        <ele>71</ele>
        <time>2017-10-14T17:05:40Z</time>
      </trkpt>
      <trkpt lat="59.812599866858" lon="17.634477825305">
        <ele>70.8</ele>
        <time>2017-10-14T17:05:41Z</time>
      </trkpt>
      <trkpt lat="59.812609422224" lon="17.634614617913">
        <ele>70.4</ele>
        <time>2017-10-14T17:05:42Z</time>
      </trkpt>
      <trkpt lat="59.812621408341" lon="17.634732467427">
        <ele>70</ele>
        <time>2017-10-14T17:05:43Z</time>
      </trkpt>
      <trkpt lat="59.812640938168" lon="17.634879234496">
        <ele>69.4</ele>
        <time>2017-10-14T17:05:44Z</time>
      </trkpt>
      <trkpt lat="59.812664156031" lon="17.635010075955">
        <ele>69</ele>
        <time>2017-10-14T17:05:45Z</time>
      </trkpt>
      <trkpt lat="59.812689553188" lon="17.635151981522">
        <ele>68.4</ele>
        <time>2017-10-14T17:05:46Z</time>
      </trkpt>
      <trkpt lat="59.812717464915" lon="17.635288271216">
        <ele>68</ele>
        <time>2017-10-14T17:05:47Z</time>
      </trkpt>
      <trkpt lat="59.812749232316" lon="17.635418609761">
        <ele>67.8</ele>
        <time>2017-10-14T17:05:48Z</time>
      </trkpt>
      <trkpt lat="59.812778568966" lon="17.635545176451">
        <ele>67.6</ele>
        <time>2017-10-14T17:05:49Z</time>
      </trkpt>
      <trkpt lat="59.812799942811" lon="17.635645340156">
        <ele>67.6</ele>
        <time>2017-10-14T17:05:50Z</time>
      </trkpt>
      <trkpt lat="59.812816119878" lon="17.635724549111">
        <ele>67.4</ele>
        <time>2017-10-14T17:05:51Z</time>
      </trkpt>
      <trkpt lat="59.812829950013" lon="17.635770984837">
        <ele>67.4</ele>
        <time>2017-10-14T17:05:52Z</time>
      </trkpt>
      <trkpt lat="59.812846294718" lon="17.635812307604">
        <ele>67.4</ele>
        <time>2017-10-14T17:05:53Z</time>
      </trkpt>
      <trkpt lat="59.812853084057" lon="17.635850529068">
        <ele>67.4</ele>
        <time>2017-10-14T17:05:54Z</time>
      </trkpt>
      <trkpt lat="59.812847552003" lon="17.635882715564">
        <ele>67.4</ele>
        <time>2017-10-14T17:05:55Z</time>
      </trkpt>
      <trkpt lat="59.812831374936" lon="17.635915321155">
        <ele>67.4</ele>
        <time>2017-10-14T17:05:56Z</time>
      </trkpt>
      <trkpt lat="59.812814024403" lon="17.635939628665">
        <ele>67.4</ele>
        <time>2017-10-14T17:05:57Z</time>
      </trkpt>
      <trkpt lat="59.81279332111" lon="17.635950441316">
        <ele>67.4</ele>
        <time>2017-10-14T17:05:58Z</time>
      </trkpt>
      <trkpt lat="59.812774545654" lon="17.635949016393">
        <ele>67.4</ele>
        <time>2017-10-14T17:05:59Z</time>
      </trkpt>
      <trkpt lat="59.812752585076" lon="17.635947423832">
        <ele>67.4</ele>
        <time>2017-10-14T17:06:00Z</time>
      </trkpt>
      <trkpt lat="59.812730792136" lon="17.635948764936">
        <ele>67.2</ele>
        <time>2017-10-14T17:06:01Z</time>
      </trkpt>
      <trkpt lat="59.81271117849" lon="17.635968881496">
        <ele>67.2</ele>
        <time>2017-10-14T17:06:02Z</time>
      </trkpt>
      <trkpt lat="59.812694917604" lon="17.635994446291">
        <ele>67.2</ele>
        <time>2017-10-14T17:06:03Z</time>
      </trkpt>
      <trkpt lat="59.812689553188" lon="17.63601967581">
        <ele>67.2</ele>
        <time>2017-10-14T17:06:04Z</time>
      </trkpt>
      <trkpt lat="59.812696845441" lon="17.636040798198">
        <ele>67.4</ele>
        <time>2017-10-14T17:06:05Z</time>
      </trkpt>
      <trkpt lat="59.81271117849" lon="17.636058567826">
        <ele>67.4</ele>
        <time>2017-10-14T17:06:06Z</time>
      </trkpt>
      <trkpt lat="59.812728696661" lon="17.636065943898">
        <ele>67.4</ele>
        <time>2017-10-14T17:06:07Z</time>
      </trkpt>
      <trkpt lat="59.812748226488" lon="17.63604733608">
        <ele>67.4</ele>
        <time>2017-10-14T17:06:08Z</time>
      </trkpt>
      <trkpt lat="59.812764487374" lon="17.636011964462">
        <ele>67.2</ele>
        <time>2017-10-14T17:06:09Z</time>
      </trkpt>
      <trkpt lat="59.812774461835" lon="17.63597357536">
        <ele>67.2</ele>
        <time>2017-10-14T17:06:10Z</time>
      </trkpt>
      <trkpt lat="59.812779490975" lon="17.635926133806">
        <ele>67.2</ele>
        <time>2017-10-14T17:06:11Z</time>
      </trkpt>
      <trkpt lat="59.81278829197" lon="17.635891097464">
        <ele>67.2</ele>
        <time>2017-10-14T17:06:12Z</time>
      </trkpt>
      <trkpt lat="59.812798769345" lon="17.635868214877">
        <ele>67.2</ele>
        <time>2017-10-14T17:06:13Z</time>
      </trkpt>
      <trkpt lat="59.81280673215" lon="17.635857569864">
        <ele>67.2</ele>
        <time>2017-10-14T17:06:14Z</time>
      </trkpt>
      <trkpt lat="59.812809749634" lon="17.63584281772">
        <ele>67.2</ele>
        <time>2017-10-14T17:06:15Z</time>
      </trkpt>
      <trkpt lat="59.812810252548" lon="17.635819180762">
        <ele>67.2</ele>
        <time>2017-10-14T17:06:16Z</time>
      </trkpt>
      <trkpt lat="59.81281595224" lon="17.635796381994">
        <ele>67.2</ele>
        <time>2017-10-14T17:06:17Z</time>
      </trkpt>
      <trkpt lat="59.812821484294" lon="17.635782300402">
        <ele>67.2</ele>
        <time>2017-10-14T17:06:18Z</time>
      </trkpt>
      <trkpt lat="59.812825759063" lon="17.635773080312">
        <ele>67.4</ele>
        <time>2017-10-14T17:06:19Z</time>
      </trkpt>
      <trkpt lat="59.812836823171" lon="17.63577073338">
        <ele>67.4</ele>
        <time>2017-10-14T17:06:20Z</time>
      </trkpt>
      <trkpt lat="59.812852497324" lon="17.635780204927">
        <ele>67.4</ele>
        <time>2017-10-14T17:06:21Z</time>
      </trkpt>
      <trkpt lat="59.81287881649" lon="17.63577995347">
        <ele>67.6</ele>
        <time>2017-10-14T17:06:22Z</time>
      </trkpt>
      <trkpt lat="59.812910080977" lon="17.635761345652">
        <ele>67.6</ele>
        <time>2017-10-14T17:06:23Z</time>
      </trkpt>
      <trkpt lat="59.81294419531" lon="17.63574139673">
        <ele>67.4</ele>
        <time>2017-10-14T17:06:24Z</time>
      </trkpt>
      <trkpt lat="59.812978896376" lon="17.635746844965">
        <ele>67.4</ele>
        <time>2017-10-14T17:06:25Z</time>
      </trkpt>
      <trkpt lat="59.81301376508" lon="17.635791269035">
        <ele>67.2</ele>
        <time>2017-10-14T17:06:26Z</time>
      </trkpt>
      <trkpt lat="59.813038407866" lon="17.635858994787">
        <ele>67</ele>
        <time>2017-10-14T17:06:27Z</time>
      </trkpt>
      <trkpt lat="59.813066068136" lon="17.635946082728">
        <ele>67</ele>
        <time>2017-10-14T17:06:28Z</time>
      </trkpt>
      <trkpt lat="59.813089285999" lon="17.636036020515">
        <ele>66.8</ele>
        <time>2017-10-14T17:06:29Z</time>
      </trkpt>
      <trkpt lat="59.813113174414" lon="17.63613702241">
        <ele>66.4</ele>
        <time>2017-10-14T17:06:30Z</time>
      </trkpt>
      <trkpt lat="59.813138236295" lon="17.636249926603">
        <ele>66.2</ele>
        <time>2017-10-14T17:06:31Z</time>
      </trkpt>
      <trkpt lat="59.813159861597" lon="17.636362411701">
        <ele>65.8</ele>
        <time>2017-10-14T17:06:32Z</time>
      </trkpt>
      <trkpt lat="59.81317888851" lon="17.636473304238">
        <ele>65.6</ele>
        <time>2017-10-14T17:06:33Z</time>
      </trkpt>
      <trkpt lat="59.813195149396" lon="17.636592746313">
        <ele>65.2</ele>
        <time>2017-10-14T17:06:34Z</time>
      </trkpt>
      <trkpt lat="59.813211158825" lon="17.636698022977">
        <ele>65</ele>
        <time>2017-10-14T17:06:35Z</time>
      </trkpt>
      <trkpt lat="59.813227335892" lon="17.63680422165">
        <ele>65</ele>
        <time>2017-10-14T17:06:36Z</time>
      </trkpt>
      <trkpt lat="59.813240830751" lon="17.636884939347">
        <ele>65</ele>
        <time>2017-10-14T17:06:37Z</time>
      </trkpt>
      <trkpt lat="59.813253990334" lon="17.636942187724">
        <ele>64.8</ele>
        <time>2017-10-14T17:06:38Z</time>
      </trkpt>
      <trkpt lat="59.813264132433" lon="17.63698024155">
        <ele>64.8</ele>
        <time>2017-10-14T17:06:39Z</time>
      </trkpt>
      <trkpt lat="59.813274525989" lon="17.637012595684">
        <ele>65</ele>
        <time>2017-10-14T17:06:40Z</time>
      </trkpt>
      <trkpt lat="59.813294391092" lon="17.637045368913">
        <ele>65.2</ele>
        <time>2017-10-14T17:06:41Z</time>
      </trkpt>
      <trkpt lat="59.813320123525" lon="17.63707495702">
        <ele>65.2</ele>
        <time>2017-10-14T17:06:42Z</time>
      </trkpt>
      <trkpt lat="59.813341581189" lon="17.637096079408">
        <ele>65.2</ele>
        <time>2017-10-14T17:06:43Z</time>
      </trkpt>
      <trkpt lat="59.813358428808" lon="17.637112340294">
        <ele>65.2</ele>
        <time>2017-10-14T17:06:44Z</time>
      </trkpt>
      <trkpt lat="59.813377623359" lon="17.637129774646">
        <ele>65</ele>
        <time>2017-10-14T17:06:45Z</time>
      </trkpt>
      <trkpt lat="59.813402433783" lon="17.637157267278">
        <ele>65</ele>
        <time>2017-10-14T17:06:46Z</time>
      </trkpt>
      <trkpt lat="59.813426489836" lon="17.637189621412">
        <ele>65</ele>
        <time>2017-10-14T17:06:47Z</time>
      </trkpt>
      <trkpt lat="59.813447528405" lon="17.637229519256">
        <ele>64.8</ele>
        <time>2017-10-14T17:06:48Z</time>
      </trkpt>
      <trkpt lat="59.813468650793" lon="17.637275535887">
        <ele>64.4</ele>
        <time>2017-10-14T17:06:49Z</time>
      </trkpt>
      <trkpt lat="59.813488012982" lon="17.637319457043">
        <ele>64.4</ele>
        <time>2017-10-14T17:06:50Z</time>
      </trkpt>
      <trkpt lat="59.813502765126" lon="17.637371760099">
        <ele>64</ele>
        <time>2017-10-14T17:06:51Z</time>
      </trkpt>
      <trkpt lat="59.813508045723" lon="17.637433115607">
        <ele>64</ele>
        <time>2017-10-14T17:06:52Z</time>
      </trkpt>
      <trkpt lat="59.813509386827" lon="17.637493465287">
        <ele>63.8</ele>
        <time>2017-10-14T17:06:53Z</time>
      </trkpt>
      <trkpt lat="59.813507878085" lon="17.637556161899">
        <ele>63.8</ele>
        <time>2017-10-14T17:06:54Z</time>
      </trkpt>
      <trkpt lat="59.813505531153" lon="17.637616930674">
        <ele>63.8</ele>
        <time>2017-10-14T17:06:55Z</time>
      </trkpt>
      <trkpt lat="59.813503519497" lon="17.637684488788">
        <ele>63.8</ele>
        <time>2017-10-14T17:06:56Z</time>
      </trkpt>
      <trkpt lat="59.813501340203" lon="17.637743665002">
        <ele>63.8</ele>
        <time>2017-10-14T17:06:57Z</time>
      </trkpt>
      <trkpt lat="59.813497903624" lon="17.637798231171">
        <ele>63.8</ele>
        <time>2017-10-14T17:06:58Z</time>
      </trkpt>
      <trkpt lat="59.813493796493" lon="17.63783435716">
        <ele>63.8</ele>
        <time>2017-10-14T17:06:59Z</time>
      </trkpt>
      <trkpt lat="59.813490779009" lon="17.637899065428">
        <ele>63.8</ele>
        <time>2017-10-14T17:07:00Z</time>
      </trkpt>
      <trkpt lat="59.813484241127" lon="17.637949859742">
        <ele>63.8</ele>
        <time>2017-10-14T17:07:01Z</time>
      </trkpt>
      <trkpt lat="59.81347896053" lon="17.637997217477">
        <ele>63.8</ele>
        <time>2017-10-14T17:07:02Z</time>
      </trkpt>
      <trkpt lat="59.813479463444" lon="17.638037869692">
        <ele>63.8</ele>
        <time>2017-10-14T17:07:03Z</time>
      </trkpt>
      <trkpt lat="59.813479714901" lon="17.63805647751">
        <ele>64</ele>
        <time>2017-10-14T17:07:04Z</time>
      </trkpt>
      <trkpt lat="59.813484073489" lon="17.638064943229">
        <ele>64</ele>
        <time>2017-10-14T17:07:05Z</time>
      </trkpt>
      <trkpt lat="59.813480972186" lon="17.638068715084">
        <ele>64.2</ele>
        <time>2017-10-14T17:07:06Z</time>
      </trkpt>
      <trkpt lat="59.813486085145" lon="17.638079443916">
        <ele>64.2</ele>
        <time>2017-10-14T17:07:07Z</time>
      </trkpt>
      <trkpt lat="59.813484408765" lon="17.638093106413">
        <ele>64.4</ele>
        <time>2017-10-14T17:07:08Z</time>
      </trkpt>
      <trkpt lat="59.813487929163" lon="17.638111211317">
        <ele>64.4</ele>
        <time>2017-10-14T17:07:09Z</time>
      </trkpt>
      <trkpt lat="59.813488096801" lon="17.638125544366">
        <ele>64.6</ele>
        <time>2017-10-14T17:07:10Z</time>
      </trkpt>
      <trkpt lat="59.813492203932" lon="17.638144738917">
        <ele>64.8</ele>
        <time>2017-10-14T17:07:11Z</time>
      </trkpt>
      <trkpt lat="59.813500669651" lon="17.638157730862">
        <ele>65</ele>
        <time>2017-10-14T17:07:12Z</time>
      </trkpt>
      <trkpt lat="59.813505950248" lon="17.638173907929">
        <ele>65.2</ele>
        <time>2017-10-14T17:07:13Z</time>
      </trkpt>
      <trkpt lat="59.81350494442" lon="17.638187989521">
        <ele>65.4</ele>
        <time>2017-10-14T17:07:14Z</time>
      </trkpt>
      <trkpt lat="59.813508548637" lon="17.638200394733">
        <ele>65.4</ele>
        <time>2017-10-14T17:07:15Z</time>
      </trkpt>
      <trkpt lat="59.81350913537" lon="17.638214141049">
        <ele>65.6</ele>
        <time>2017-10-14T17:07:16Z</time>
      </trkpt>
      <trkpt lat="59.813514583605" lon="17.638232916505">
        <ele>65.8</ele>
        <time>2017-10-14T17:07:17Z</time>
      </trkpt>
      <trkpt lat="59.813515673252" lon="17.638246579002">
        <ele>66</ele>
        <time>2017-10-14T17:07:18Z</time>
      </trkpt>
      <trkpt lat="59.813518439279" lon="17.63826267225">
        <ele>66.2</ele>
        <time>2017-10-14T17:07:19Z</time>
      </trkpt>
      <trkpt lat="59.813522043496" lon="17.638275580376">
        <ele>66.4</ele>
        <time>2017-10-14T17:07:20Z</time>
      </trkpt>
      <trkpt lat="59.813527072636" lon="17.638286476846">
        <ele>66.4</ele>
        <time>2017-10-14T17:07:21Z</time>
      </trkpt>
      <trkpt lat="59.813530676853" lon="17.638303156827">
        <ele>66.6</ele>
        <time>2017-10-14T17:07:22Z</time>
      </trkpt>
      <trkpt lat="59.813534029613" lon="17.638318160428">
        <ele>66.6</ele>
        <time>2017-10-14T17:07:23Z</time>
      </trkpt>
      <trkpt lat="59.813532688509" lon="17.638335930056">
        <ele>66.8</ele>
        <time>2017-10-14T17:07:24Z</time>
      </trkpt>
      <trkpt lat="59.813534532527" lon="17.638351101295">
        <ele>67</ele>
        <time>2017-10-14T17:07:25Z</time>
      </trkpt>
      <trkpt lat="59.813539645486" lon="17.638371469312">
        <ele>67</ele>
        <time>2017-10-14T17:07:26Z</time>
      </trkpt>
      <trkpt lat="59.813538220563" lon="17.638382868696">
        <ele>67</ele>
        <time>2017-10-14T17:07:27Z</time>
      </trkpt>
      <trkpt lat="59.813541154228" lon="17.638402314704">
        <ele>67</ele>
        <time>2017-10-14T17:07:28Z</time>
      </trkpt>
      <trkpt lat="59.813542579151" lon="17.638414887554">
        <ele>67.2</ele>
        <time>2017-10-14T17:07:29Z</time>
      </trkpt>
      <trkpt lat="59.813541573323" lon="17.63842947206">
        <ele>67.2</ele>
        <time>2017-10-14T17:07:30Z</time>
      </trkpt>
      <trkpt lat="59.813541573323" lon="17.638454114846">
        <ele>67.4</ele>
        <time>2017-10-14T17:07:31Z</time>
      </trkpt>
      <trkpt lat="59.813539729305" lon="17.638474901958">
        <ele>67.6</ele>
        <time>2017-10-14T17:07:32Z</time>
      </trkpt>
      <trkpt lat="59.813541908599" lon="17.638492671586">
        <ele>68</ele>
        <time>2017-10-14T17:07:33Z</time>
      </trkpt>
      <trkpt lat="59.81355439763" lon="17.638516979096">
        <ele>68</ele>
        <time>2017-10-14T17:07:34Z</time>
      </trkpt>
      <trkpt lat="59.813556325467" lon="17.638536341285">
        <ele>68</ele>
        <time>2017-10-14T17:07:35Z</time>
      </trkpt>
      <trkpt lat="59.813555068182" lon="17.638554446189">
        <ele>68.2</ele>
        <time>2017-10-14T17:07:36Z</time>
      </trkpt>
      <trkpt lat="59.813555152001" lon="17.638568863057">
        <ele>68.4</ele>
        <time>2017-10-14T17:07:37Z</time>
      </trkpt>
      <trkpt lat="59.813558756218" lon="17.638580010984">
        <ele>68.4</ele>
        <time>2017-10-14T17:07:38Z</time>
      </trkpt>
      <trkpt lat="59.813560181141" lon="17.638594846947">
        <ele>68.6</ele>
        <time>2017-10-14T17:07:39Z</time>
      </trkpt>
      <trkpt lat="59.81356110315" lon="17.638611862204">
        <ele>68.8</ele>
        <time>2017-10-14T17:07:40Z</time>
      </trkpt>
      <trkpt lat="59.813563533901" lon="17.638630889117">
        <ele>68.8</ele>
        <time>2017-10-14T17:07:41Z</time>
      </trkpt>
      <trkpt lat="59.813571329068" lon="17.638646982365">
        <ele>69</ele>
        <time>2017-10-14T17:07:42Z</time>
      </trkpt>
      <trkpt lat="59.813571329068" lon="17.638661063957">
        <ele>69</ele>
        <time>2017-10-14T17:07:43Z</time>
      </trkpt>
      <trkpt lat="59.81357535238" lon="17.638673050074">
        <ele>69.2</ele>
        <time>2017-10-14T17:07:44Z</time>
      </trkpt>
      <trkpt lat="59.813579375692" lon="17.638684030363">
        <ele>69.4</ele>
        <time>2017-10-14T17:07:45Z</time>
      </trkpt>
      <trkpt lat="59.813583399004" lon="17.638702135267">
        <ele>69.4</ele>
        <time>2017-10-14T17:07:46Z</time>
      </trkpt>
      <trkpt lat="59.813587589954" lon="17.638720407809">
        <ele>69.6</ele>
        <time>2017-10-14T17:07:47Z</time>
      </trkpt>
      <trkpt lat="59.813596223311" lon="17.638732645383">
        <ele>69.8</ele>
        <time>2017-10-14T17:07:48Z</time>
      </trkpt>
      <trkpt lat="59.813602006822" lon="17.638748068079">
        <ele>69.8</ele>
        <time>2017-10-14T17:07:49Z</time>
      </trkpt>
      <trkpt lat="59.813607287419" lon="17.638763826051">
        <ele>70</ele>
        <time>2017-10-14T17:07:50Z</time>
      </trkpt>
      <trkpt lat="59.813606030134" lon="17.638764496603">
        <ele>70.2</ele>
        <time>2017-10-14T17:07:51Z</time>
      </trkpt>
      <trkpt lat="59.813606281591" lon="17.6387613953">
        <ele>70.4</ele>
        <time>2017-10-14T17:07:52Z</time>
      </trkpt>
      <trkpt lat="59.813646682349" lon="17.639155093143">
        <ele>70.4</ele>
        <time>2017-10-14T17:08:17Z</time>
      </trkpt>
      <trkpt lat="59.813648023453" lon="17.639204211077">
        <ele>70.4</ele>
        <time>2017-10-14T17:08:18Z</time>
      </trkpt>
      <trkpt lat="59.813648358729" lon="17.639251401174">
        <ele>70.2</ele>
        <time>2017-10-14T17:08:19Z</time>
      </trkpt>
      <trkpt lat="59.813647604358" lon="17.639302698402">
        <ele>70.2</ele>
        <time>2017-10-14T17:08:20Z</time>
      </trkpt>
      <trkpt lat="59.813652884955" lon="17.639358689494">
        <ele>69.8</ele>
        <time>2017-10-14T17:08:21Z</time>
      </trkpt>
      <trkpt lat="59.813657327362" lon="17.639420464097">
        <ele>69.8</ele>
        <time>2017-10-14T17:08:22Z</time>
      </trkpt>
      <trkpt lat="59.813658081733" lon="17.639460864855">
        <ele>69.6</ele>
        <time>2017-10-14T17:08:23Z</time>
      </trkpt>
      <trkpt lat="59.813662775597" lon="17.639494392455">
        <ele>69.6</ele>
        <time>2017-10-14T17:08:24Z</time>
      </trkpt>
      <trkpt lat="59.813668056194" lon="17.639526327494">
        <ele>69.6</ele>
        <time>2017-10-14T17:08:25Z</time>
      </trkpt>
      <trkpt lat="59.813671073678" lon="17.639563878406">
        <ele>69.8</ele>
        <time>2017-10-14T17:08:26Z</time>
      </trkpt>
      <trkpt lat="59.81367677337" lon="17.639601345499">
        <ele>69.8</ele>
        <time>2017-10-14T17:08:27Z</time>
      </trkpt>
      <trkpt lat="59.813676018999" lon="17.639639566963">
        <ele>70</ele>
        <time>2017-10-14T17:08:28Z</time>
      </trkpt>
      <trkpt lat="59.813678533569" lon="17.639681057368">
        <ele>70.2</ele>
        <time>2017-10-14T17:08:29Z</time>
      </trkpt>
      <trkpt lat="59.813678868845" lon="17.639715004063">
        <ele>70.2</ele>
        <time>2017-10-14T17:08:30Z</time>
      </trkpt>
      <trkpt lat="59.813680293768" lon="17.639748447844">
        <ele>70.4</ele>
        <time>2017-10-14T17:08:31Z</time>
      </trkpt>
      <trkpt lat="59.813683814166" lon="17.639796643769">
        <ele>70.6</ele>
        <time>2017-10-14T17:08:32Z</time>
      </trkpt>
      <trkpt lat="59.813690938781" lon="17.639848276273">
        <ele>70.8</ele>
        <time>2017-10-14T17:08:33Z</time>
      </trkpt>
      <trkpt lat="59.813690938781" lon="17.63988289352">
        <ele>70.8</ele>
        <time>2017-10-14T17:08:34Z</time>
      </trkpt>
      <trkpt lat="59.813691525514" lon="17.639925976486">
        <ele>70.8</ele>
        <time>2017-10-14T17:08:35Z</time>
      </trkpt>
      <trkpt lat="59.813696638473" lon="17.639976267886">
        <ele>70.6</ele>
        <time>2017-10-14T17:08:36Z</time>
      </trkpt>
      <trkpt lat="59.813697979577" lon="17.640031504607">
        <ele>70.4</ele>
        <time>2017-10-14T17:08:37Z</time>
      </trkpt>
      <trkpt lat="59.81369688993" lon="17.64006980989">
        <ele>70.2</ele>
        <time>2017-10-14T17:08:38Z</time>
      </trkpt>
      <trkpt lat="59.813695632645" lon="17.640104427137">
        <ele>70</ele>
        <time>2017-10-14T17:08:39Z</time>
      </trkpt>
      <trkpt lat="59.813694040084" lon="17.640126471534">
        <ele>69.8</ele>
        <time>2017-10-14T17:08:40Z</time>
      </trkpt>
      <trkpt lat="59.813688927125" lon="17.640149689397">
        <ele>69.6</ele>
        <time>2017-10-14T17:08:41Z</time>
      </trkpt>
      <trkpt lat="59.813688675668" lon="17.640171063242">
        <ele>69.4</ele>
        <time>2017-10-14T17:08:42Z</time>
      </trkpt>
      <trkpt lat="59.813688424211" lon="17.640200399892">
        <ele>69.2</ele>
        <time>2017-10-14T17:08:43Z</time>
      </trkpt>
      <trkpt lat="59.813689178582" lon="17.640220013538">
        <ele>69</ele>
        <time>2017-10-14T17:08:44Z</time>
      </trkpt>
      <trkpt lat="59.813690603505" lon="17.640242141754">
        <ele>68.8</ele>
        <time>2017-10-14T17:08:45Z</time>
      </trkpt>
      <trkpt lat="59.813693118075" lon="17.640262258314">
        <ele>68.6</ele>
        <time>2017-10-14T17:08:46Z</time>
      </trkpt>
      <trkpt lat="59.813696806111" lon="17.640278183924">
        <ele>68.6</ele>
        <time>2017-10-14T17:08:47Z</time>
      </trkpt>
      <trkpt lat="59.813698482491" lon="17.640296288828">
        <ele>68.4</ele>
        <time>2017-10-14T17:08:48Z</time>
      </trkpt>
      <trkpt lat="59.813695297369" lon="17.640302742891">
        <ele>68.4</ele>
        <time>2017-10-14T17:08:49Z</time>
      </trkpt>
      <trkpt lat="59.813694040084" lon="17.640333336826">
        <ele>68.2</ele>
        <time>2017-10-14T17:08:50Z</time>
      </trkpt>
      <trkpt lat="59.81369269898" lon="17.640328726781">
        <ele>68.2</ele>
        <time>2017-10-14T17:08:51Z</time>
      </trkpt>
      <trkpt lat="59.81368850803" lon="17.64035814725">
        <ele>68</ele>
        <time>2017-10-14T17:08:52Z</time>
      </trkpt>
      <trkpt lat="59.81368347889" lon="17.640382035665">
        <ele>67.8</ele>
        <time>2017-10-14T17:08:53Z</time>
      </trkpt>
      <trkpt lat="59.813680042311" lon="17.640402487501">
        <ele>67.6</ele>
        <time>2017-10-14T17:08:54Z</time>
      </trkpt>
      <trkpt lat="59.813679120302" lon="17.64042352607">
        <ele>67.2</ele>
        <time>2017-10-14T17:08:55Z</time>
      </trkpt>
      <trkpt lat="59.813672666239" lon="17.640443391173">
        <ele>66.8</ele>
        <time>2017-10-14T17:08:56Z</time>
      </trkpt>
      <trkpt lat="59.813664284339" lon="17.640473649832">
        <ele>66.4</ele>
        <time>2017-10-14T17:08:57Z</time>
      </trkpt>
      <trkpt lat="59.813657578819" lon="17.640514385866">
        <ele>66.2</ele>
        <time>2017-10-14T17:08:58Z</time>
      </trkpt>
      <trkpt lat="59.813652214403" lon="17.640557720289">
        <ele>66</ele>
        <time>2017-10-14T17:08:59Z</time>
      </trkpt>
      <trkpt lat="59.813641904666" lon="17.640605245662">
        <ele>65.8</ele>
        <time>2017-10-14T17:09:00Z</time>
      </trkpt>
      <trkpt lat="59.8136239674" lon="17.640662326401">
        <ele>65.6</ele>
        <time>2017-10-14T17:09:01Z</time>
      </trkpt>
      <trkpt lat="59.813603180288" lon="17.640725525927">
        <ele>65.4</ele>
        <time>2017-10-14T17:09:02Z</time>
      </trkpt>
      <trkpt lat="59.813586919402" lon="17.640786546159">
        <ele>65.2</ele>
        <time>2017-10-14T17:09:03Z</time>
      </trkpt>
      <trkpt lat="59.81356948505" lon="17.640862569992">
        <ele>64.8</ele>
        <time>2017-10-14T17:09:04Z</time>
      </trkpt>
      <trkpt lat="59.813552972707" lon="17.640931972124">
        <ele>64.6</ele>
        <time>2017-10-14T17:09:05Z</time>
      </trkpt>
      <trkpt lat="59.813545931911" lon="17.641021490816">
        <ele>64.2</ele>
        <time>2017-10-14T17:09:06Z</time>
      </trkpt>
      <trkpt lat="59.813541321866" lon="17.641116038648">
        <ele>63.6</ele>
        <time>2017-10-14T17:09:07Z</time>
      </trkpt>
      <trkpt lat="59.813540818952" lon="17.641205641159">
        <ele>63.2</ele>
        <time>2017-10-14T17:09:08Z</time>
      </trkpt>
      <trkpt lat="59.813543333522" lon="17.641292477643">
        <ele>62.8</ele>
        <time>2017-10-14T17:09:09Z</time>
      </trkpt>
      <trkpt lat="59.81355355944" lon="17.641374536444">
        <ele>62.4</ele>
        <time>2017-10-14T17:09:10Z</time>
      </trkpt>
      <trkpt lat="59.813574262733" lon="17.64145785253">
        <ele>62</ele>
        <time>2017-10-14T17:09:11Z</time>
      </trkpt>
      <trkpt lat="59.813600078985" lon="17.641515771459">
        <ele>61.6</ele>
        <time>2017-10-14T17:09:12Z</time>
      </trkpt>
      <trkpt lat="59.813625979056" lon="17.641568242153">
        <ele>61.2</ele>
        <time>2017-10-14T17:09:13Z</time>
      </trkpt>
      <trkpt lat="59.813653974602" lon="17.641632866602">
        <ele>60.8</ele>
        <time>2017-10-14T17:09:14Z</time>
      </trkpt>
      <trkpt lat="59.813682473062" lon="17.641696149947">
        <ele>60.2</ele>
        <time>2017-10-14T17:09:15Z</time>
      </trkpt>
      <trkpt lat="59.813717257947" lon="17.641774939807">
        <ele>59.8</ele>
        <time>2017-10-14T17:09:16Z</time>
      </trkpt>
      <trkpt lat="59.81375388685" lon="17.641848029975">
        <ele>59.6</ele>
        <time>2017-10-14T17:09:17Z</time>
      </trkpt>
      <trkpt lat="59.813790348115" lon="17.641928328577">
        <ele>59.4</ele>
        <time>2017-10-14T17:09:18Z</time>
      </trkpt>
      <trkpt lat="59.813825887371" lon="17.642011979939">
        <ele>59</ele>
        <time>2017-10-14T17:09:19Z</time>
      </trkpt>
      <trkpt lat="59.813855810754" lon="17.642100073708">
        <ele>58.8</ele>
        <time>2017-10-14T17:09:20Z</time>
      </trkpt>
      <trkpt lat="59.813879112436" lon="17.642198393395">
        <ele>58.6</ele>
        <time>2017-10-14T17:09:21Z</time>
      </trkpt>
      <trkpt lat="59.813894283675" lon="17.642315907633">
        <ele>58.4</ele>
        <time>2017-10-14T17:09:22Z</time>
      </trkpt>
      <trkpt lat="59.813904509593" lon="17.642436439355">
        <ele>58.2</ele>
        <time>2017-10-14T17:09:23Z</time>
      </trkpt>
      <trkpt lat="59.813911634208" lon="17.642567448452">
        <ele>58</ele>
        <time>2017-10-14T17:09:24Z</time>
      </trkpt>
      <trkpt lat="59.813919932289" lon="17.642689824192">
        <ele>58</ele>
        <time>2017-10-14T17:09:25Z</time>
      </trkpt>
      <trkpt lat="59.813927978913" lon="17.64283164594">
        <ele>57.8</ele>
        <time>2017-10-14T17:09:26Z</time>
      </trkpt>
      <trkpt lat="59.813935103528" lon="17.642959134639">
        <ele>57.8</ele>
        <time>2017-10-14T17:09:27Z</time>
      </trkpt>
      <trkpt lat="59.81393661227" lon="17.643075810687">
        <ele>57.4</ele>
        <time>2017-10-14T17:09:28Z</time>
      </trkpt>
      <trkpt lat="59.81394667055" lon="17.643243029592">
        <ele>57.2</ele>
        <time>2017-10-14T17:09:29Z</time>
      </trkpt>
      <trkpt lat="59.813955723002" lon="17.643367165531">
        <ele>56.8</ele>
        <time>2017-10-14T17:09:30Z</time>
      </trkpt>
      <trkpt lat="59.813971900069" lon="17.643511920944">
        <ele>56.4</ele>
        <time>2017-10-14T17:09:31Z</time>
      </trkpt>
      <trkpt lat="59.813988077136" lon="17.643638906729">
        <ele>56</ele>
        <time>2017-10-14T17:09:32Z</time>
      </trkpt>
      <trkpt lat="59.813996626674" lon="17.643765641057">
        <ele>55.8</ele>
        <time>2017-10-14T17:09:33Z</time>
      </trkpt>
      <trkpt lat="59.813993106276" lon="17.643874270481">
        <ele>55.4</ele>
        <time>2017-10-14T17:09:34Z</time>
      </trkpt>
      <trkpt lat="59.813977348304" lon="17.643951300142">
        <ele>55.2</ele>
        <time>2017-10-14T17:09:35Z</time>
      </trkpt>
      <trkpt lat="59.813954381898" lon="17.644007710329">
        <ele>55.2</ele>
        <time>2017-10-14T17:09:36Z</time>
      </trkpt>
      <trkpt lat="59.813939210659" lon="17.644050541838">
        <ele>55</ele>
        <time>2017-10-14T17:09:37Z</time>
      </trkpt>
      <trkpt lat="59.813940635582" lon="17.644102425799">
        <ele>55.2</ele>
        <time>2017-10-14T17:09:38Z</time>
      </trkpt>
      <trkpt lat="59.813956058278" lon="17.644141904548">
        <ele>55.2</ele>
        <time>2017-10-14T17:09:39Z</time>
      </trkpt>
      <trkpt lat="59.813978018856" lon="17.644176605614">
        <ele>55.2</ele>
        <time>2017-10-14T17:09:40Z</time>
      </trkpt>
      <trkpt lat="59.814004421841" lon="17.644226477919">
        <ele>55.4</ele>
        <time>2017-10-14T17:09:41Z</time>
      </trkpt>
      <trkpt lat="59.814024035487" lon="17.644284396848">
        <ele>55.4</ele>
        <time>2017-10-14T17:09:42Z</time>
      </trkpt>
      <trkpt lat="59.814034764319" lon="17.644350530039">
        <ele>55.4</ele>
        <time>2017-10-14T17:09:43Z</time>
      </trkpt>
      <trkpt lat="59.814034009948" lon="17.644424374578">
        <ele>55.4</ele>
        <time>2017-10-14T17:09:44Z</time>
      </trkpt>
      <trkpt lat="59.814024538401" lon="17.64449042395">
        <ele>55.4</ele>
        <time>2017-10-14T17:09:45Z</time>
      </trkpt>
      <trkpt lat="59.814006098221" lon="17.644567621249">
        <ele>55.4</ele>
        <time>2017-10-14T17:09:46Z</time>
      </trkpt>
      <trkpt lat="59.813988160955" lon="17.644634341173">
        <ele>55.4</ele>
        <time>2017-10-14T17:09:47Z</time>
      </trkpt>
      <trkpt lat="59.813945999998" lon="17.644656888484">
        <ele>55.4</ele>
        <time>2017-10-14T17:09:48Z</time>
      </trkpt>
      <trkpt lat="59.813898809901" lon="17.644682872374">
        <ele>55.2</ele>
        <time>2017-10-14T17:09:49Z</time>
      </trkpt>
      <trkpt lat="59.813853799098" lon="17.644696702509">
        <ele>55.2</ele>
        <time>2017-10-14T17:09:50Z</time>
      </trkpt>
      <trkpt lat="59.813806944277" lon="17.644704413857">
        <ele>55.2</ele>
        <time>2017-10-14T17:09:51Z</time>
      </trkpt>
      <trkpt lat="59.813750031176" lon="17.644721010019">
        <ele>55.2</ele>
        <time>2017-10-14T17:09:52Z</time>
      </trkpt>
      <trkpt lat="59.813696973749" lon="17.644747077728">
        <ele>55</ele>
        <time>2017-10-14T17:09:53Z</time>
      </trkpt>
      <trkpt lat="59.813641401752" lon="17.644771720514">
        <ele>54.8</ele>
        <time>2017-10-14T17:09:54Z</time>
      </trkpt>
      <trkpt lat="59.813588679601" lon="17.644794016368">
        <ele>54.6</ele>
        <time>2017-10-14T17:09:55Z</time>
      </trkpt>
      <trkpt lat="59.813528497559" lon="17.644825029398">
        <ele>54.4</ele>
        <time>2017-10-14T17:09:56Z</time>
      </trkpt>
      <trkpt lat="59.813474182847" lon="17.644854282229">
        <ele>54.2</ele>
        <time>2017-10-14T17:09:57Z</time>
      </trkpt>
      <trkpt lat="59.813415174271" lon="17.644874817884">
        <ele>53.8</ele>
        <time>2017-10-14T17:09:58Z</time>
      </trkpt>
      <trkpt lat="59.813360189007" lon="17.644896527005">
        <ele>53.4</ele>
        <time>2017-10-14T17:09:59Z</time>
      </trkpt>
      <trkpt lat="59.81330880796" lon="17.644923097628">
        <ele>53.2</ele>
        <time>2017-10-14T17:10:00Z</time>
      </trkpt>
      <trkpt lat="59.813250889031" lon="17.6449556194">
        <ele>53</ele>
        <time>2017-10-14T17:10:01Z</time>
      </trkpt>
      <trkpt lat="59.813194227387" lon="17.644982106204">
        <ele>52.8</ele>
        <time>2017-10-14T17:10:02Z</time>
      </trkpt>
      <trkpt lat="59.813140247951" lon="17.645000546384">
        <ele>52.8</ele>
        <time>2017-10-14T17:10:03Z</time>
      </trkpt>
      <trkpt lat="59.813080233547" lon="17.645023428971">
        <ele>53</ele>
        <time>2017-10-14T17:10:04Z</time>
      </trkpt>
      <trkpt lat="59.813028349586" lon="17.645043796988">
        <ele>52.8</ele>
        <time>2017-10-14T17:10:05Z</time>
      </trkpt>
      <trkpt lat="59.812974789245" lon="17.645058800589">
        <ele>53</ele>
        <time>2017-10-14T17:10:06Z</time>
      </trkpt>
      <trkpt lat="59.812920055438" lon="17.645078917149">
        <ele>52.8</ele>
        <time>2017-10-14T17:10:07Z</time>
      </trkpt>
      <trkpt lat="59.81287294916" lon="17.645105571591">
        <ele>52.8</ele>
        <time>2017-10-14T17:10:08Z</time>
      </trkpt>
      <trkpt lat="59.812831542574" lon="17.645126442522">
        <ele>52.8</ele>
        <time>2017-10-14T17:10:09Z</time>
      </trkpt>
      <trkpt lat="59.812793069653" lon="17.645142954865">
        <ele>52.8</ele>
        <time>2017-10-14T17:10:10Z</time>
      </trkpt>
      <trkpt lat="59.812762978632" lon="17.645161478864">
        <ele>53</ele>
        <time>2017-10-14T17:10:11Z</time>
      </trkpt>
      <trkpt lat="59.812754009999" lon="17.645189055315">
        <ele>53</ele>
        <time>2017-10-14T17:10:12Z</time>
      </trkpt>
      <trkpt lat="59.812756608388" lon="17.645231635367">
        <ele>53</ele>
        <time>2017-10-14T17:10:13Z</time>
      </trkpt>
      <trkpt lat="59.812761721347" lon="17.645273377229">
        <ele>53.2</ele>
        <time>2017-10-14T17:10:14Z</time>
      </trkpt>
      <trkpt lat="59.812767672496" lon="17.645319896774">
        <ele>53.2</ele>
        <time>2017-10-14T17:10:15Z</time>
      </trkpt>
      <trkpt lat="59.812770187066" lon="17.645393657494">
        <ele>53.4</ele>
        <time>2017-10-14T17:10:16Z</time>
      </trkpt>
      <trkpt lat="59.812770941437" lon="17.64547864996">
        <ele>53.6</ele>
        <time>2017-10-14T17:10:17Z</time>
      </trkpt>
      <trkpt lat="59.8127773955" lon="17.645571102317">
        <ele>53.6</ele>
        <time>2017-10-14T17:10:18Z</time>
      </trkpt>
      <trkpt lat="59.812788124332" lon="17.645670427832">
        <ele>53.8</ele>
        <time>2017-10-14T17:10:19Z</time>
      </trkpt>
      <trkpt lat="59.812796841508" lon="17.645769585709">
        <ele>53.8</ele>
        <time>2017-10-14T17:10:20Z</time>
      </trkpt>
      <trkpt lat="59.812807067426" lon="17.645876203477">
        <ele>53.6</ele>
        <time>2017-10-14T17:10:21Z</time>
      </trkpt>
      <trkpt lat="59.812817544801" lon="17.645992795706">
        <ele>53.4</ele>
        <time>2017-10-14T17:10:22Z</time>
      </trkpt>
      <trkpt lat="59.812828692728" lon="17.646112070143">
        <ele>53.2</ele>
        <time>2017-10-14T17:10:23Z</time>
      </trkpt>
      <trkpt lat="59.812838834827" lon="17.646227572725">
        <ele>53</ele>
        <time>2017-10-14T17:10:24Z</time>
      </trkpt>
      <trkpt lat="59.81284864165" lon="17.646332011199">
        <ele>52.8</ele>
        <time>2017-10-14T17:10:25Z</time>
      </trkpt>
      <trkpt lat="59.812860795405" lon="17.646452040007">
        <ele>52.6</ele>
        <time>2017-10-14T17:10:26Z</time>
      </trkpt>
      <trkpt lat="59.812870350771" lon="17.646565866209">
        <ele>52.4</ele>
        <time>2017-10-14T17:10:27Z</time>
      </trkpt>
      <trkpt lat="59.812880157594" lon="17.646677848393">
        <ele>52.6</ele>
        <time>2017-10-14T17:10:28Z</time>
      </trkpt>
      <trkpt lat="59.812891137883" lon="17.646788824749">
        <ele>52.6</ele>
        <time>2017-10-14T17:10:29Z</time>
      </trkpt>
      <trkpt lat="59.81290144762" lon="17.646890832472">
        <ele>52.6</ele>
        <time>2017-10-14T17:10:30Z</time>
      </trkpt>
      <trkpt lat="59.812914271927" lon="17.647005413045">
        <ele>52.8</ele>
        <time>2017-10-14T17:10:31Z</time>
      </trkpt>
      <trkpt lat="59.812927180053" lon="17.647115970306">
        <ele>53</ele>
        <time>2017-10-14T17:10:32Z</time>
      </trkpt>
      <trkpt lat="59.81294000436" lon="17.647225605558">
        <ele>53.2</ele>
        <time>2017-10-14T17:10:33Z</time>
      </trkpt>
      <trkpt lat="59.812950481735" lon="17.647342197787">
        <ele>53</ele>
        <time>2017-10-14T17:10:34Z</time>
      </trkpt>
      <trkpt lat="59.812960456196" lon="17.647455521075">
        <ele>53</ele>
        <time>2017-10-14T17:10:35Z</time>
      </trkpt>
      <trkpt lat="59.812970598295" lon="17.647571358933">
        <ele>53</ele>
        <time>2017-10-14T17:10:36Z</time>
      </trkpt>
      <trkpt lat="59.812982500593" lon="17.647696668338">
        <ele>53</ele>
        <time>2017-10-14T17:10:37Z</time>
      </trkpt>
      <trkpt lat="59.812995157262" lon="17.647810997454">
        <ele>53</ele>
        <time>2017-10-14T17:10:38Z</time>
      </trkpt>
      <trkpt lat="59.813008233026" lon="17.647926835312">
        <ele>53</ele>
        <time>2017-10-14T17:10:39Z</time>
      </trkpt>
      <trkpt lat="59.813018458944" lon="17.648037392573">
        <ele>52.8</ele>
        <time>2017-10-14T17:10:40Z</time>
      </trkpt>
      <trkpt lat="59.813029858328" lon="17.648162953435">
        <ele>52.8</ele>
        <time>2017-10-14T17:10:41Z</time>
      </trkpt>
      <trkpt lat="59.813041006255" lon="17.648278791293">
        <ele>52.8</ele>
        <time>2017-10-14T17:10:42Z</time>
      </trkpt>
      <trkpt lat="59.813052992372" lon="17.648390354382">
        <ele>52.8</ele>
        <time>2017-10-14T17:10:43Z</time>
      </trkpt>
      <trkpt lat="59.813064810851" lon="17.648500073453">
        <ele>52.8</ele>
        <time>2017-10-14T17:10:44Z</time>
      </trkpt>
      <trkpt lat="59.813075958778" lon="17.648597052036">
        <ele>53</ele>
        <time>2017-10-14T17:10:45Z</time>
      </trkpt>
      <trkpt lat="59.813088112533" lon="17.648704424175">
        <ele>53</ele>
        <time>2017-10-14T17:10:46Z</time>
      </trkpt>
      <trkpt lat="59.813100853021" lon="17.648808611192">
        <ele>53.4</ele>
        <time>2017-10-14T17:10:47Z</time>
      </trkpt>
      <trkpt lat="59.813113844966" lon="17.648897878427">
        <ele>53.6</ele>
        <time>2017-10-14T17:10:48Z</time>
      </trkpt>
      <trkpt lat="59.813126417816" lon="17.648988402947">
        <ele>53.8</ele>
        <time>2017-10-14T17:10:49Z</time>
      </trkpt>
      <trkpt lat="59.81313697901" lon="17.649062498943">
        <ele>54</ele>
        <time>2017-10-14T17:10:50Z</time>
      </trkpt>
      <trkpt lat="59.813148797489" lon="17.649129218867">
        <ele>54</ele>
        <time>2017-10-14T17:10:51Z</time>
      </trkpt>
      <trkpt lat="59.813156425018" lon="17.649200465017">
        <ele>54.2</ele>
        <time>2017-10-14T17:10:52Z</time>
      </trkpt>
      <trkpt lat="59.813154497181" lon="17.649258803041">
        <ele>54.2</ele>
        <time>2017-10-14T17:10:53Z</time>
      </trkpt>
      <trkpt lat="59.81315206643" lon="17.649314542676">
        <ele>54.2</ele>
        <time>2017-10-14T17:10:54Z</time>
      </trkpt>
      <trkpt lat="59.81315206643" lon="17.649375562908">
        <ele>54.2</ele>
        <time>2017-10-14T17:10:55Z</time>
      </trkpt>
      <trkpt lat="59.813142930159" lon="17.64945167056">
        <ele>54.4</ele>
        <time>2017-10-14T17:10:56Z</time>
      </trkpt>
      <trkpt lat="59.813117030088" lon="17.649514618629">
        <ele>54.4</ele>
        <time>2017-10-14T17:10:57Z</time>
      </trkpt>
      <trkpt lat="59.813079562995" lon="17.649565999676">
        <ele>54.4</ele>
        <time>2017-10-14T17:10:58Z</time>
      </trkpt>
      <trkpt lat="59.813045700119" lon="17.649640850043">
        <ele>54.4</ele>
        <time>2017-10-14T17:10:59Z</time>
      </trkpt>
      <trkpt lat="59.813026840844" lon="17.649730955468">
        <ele>54.4</ele>
        <time>2017-10-14T17:11:00Z</time>
      </trkpt>
      <trkpt lat="59.813023236627" lon="17.649844111118">
        <ele>54.4</ele>
        <time>2017-10-14T17:11:01Z</time>
      </trkpt>
      <trkpt lat="59.813038156409" lon="17.649950561248">
        <ele>54.4</ele>
        <time>2017-10-14T17:11:02Z</time>
      </trkpt>
      <trkpt lat="59.813062631557" lon="17.650054580627">
        <ele>54.4</ele>
        <time>2017-10-14T17:11:03Z</time>
      </trkpt>
      <trkpt lat="59.813092638759" lon="17.65015826473">
        <ele>54.2</ele>
        <time>2017-10-14T17:11:04Z</time>
      </trkpt>
      <trkpt lat="59.813114599337" lon="17.650265972145">
        <ele>54.2</ele>
        <time>2017-10-14T17:11:05Z</time>
      </trkpt>
      <trkpt lat="59.81312608254" lon="17.650389269894">
        <ele>54</ele>
        <time>2017-10-14T17:11:06Z</time>
      </trkpt>
      <trkpt lat="59.813133123336" lon="17.650525140493">
        <ele>53.6</ele>
        <time>2017-10-14T17:11:07Z</time>
      </trkpt>
      <trkpt lat="59.813140080313" lon="17.650644917844">
        <ele>53.4</ele>
        <time>2017-10-14T17:11:08Z</time>
      </trkpt>
      <trkpt lat="59.813145277091" lon="17.65077433438">
        <ele>53.2</ele>
        <time>2017-10-14T17:11:09Z</time>
      </trkpt>
      <trkpt lat="59.813146785833" lon="17.650901152527">
        <ele>53.2</ele>
        <time>2017-10-14T17:11:10Z</time>
      </trkpt>
      <trkpt lat="59.813147456385" lon="17.651049512157">
        <ele>53</ele>
        <time>2017-10-14T17:11:11Z</time>
      </trkpt>
      <trkpt lat="59.813151060602" lon="17.651188986973">
        <ele>53</ele>
        <time>2017-10-14T17:11:12Z</time>
      </trkpt>
      <trkpt lat="59.813154832457" lon="17.651326114857">
        <ele>53</ele>
        <time>2017-10-14T17:11:13Z</time>
      </trkpt>
      <trkpt lat="59.813153575172" lon="17.651464583845">
        <ele>52.8</ele>
        <time>2017-10-14T17:11:14Z</time>
      </trkpt>
      <trkpt lat="59.813152988439" lon="17.651592491639">
        <ele>52.8</ele>
        <time>2017-10-14T17:11:15Z</time>
      </trkpt>
      <trkpt lat="59.813150641507" lon="17.651747556789">
        <ele>52.6</ele>
        <time>2017-10-14T17:11:16Z</time>
      </trkpt>
      <trkpt lat="59.813150306231" lon="17.651895329686">
        <ele>52.4</ele>
        <time>2017-10-14T17:11:17Z</time>
      </trkpt>
      <trkpt lat="59.813148629851" lon="17.652031367923">
        <ele>52.6</ele>
        <time>2017-10-14T17:11:18Z</time>
      </trkpt>
      <trkpt lat="59.813149635679" lon="17.65217662625">
        <ele>52.8</ele>
        <time>2017-10-14T17:11:19Z</time>
      </trkpt>
      <trkpt lat="59.81315290462" lon="17.652308557356">
        <ele>52.8</ele>
        <time>2017-10-14T17:11:20Z</time>
      </trkpt>
      <trkpt lat="59.813156341199" lon="17.65244652343">
        <ele>52.8</ele>
        <time>2017-10-14T17:11:21Z</time>
      </trkpt>
      <trkpt lat="59.813158688131" lon="17.65260494134">
        <ele>53</ele>
        <time>2017-10-14T17:11:22Z</time>
      </trkpt>
      <trkpt lat="59.81315961014" lon="17.652740811939">
        <ele>53</ele>
        <time>2017-10-14T17:11:23Z</time>
      </trkpt>
      <trkpt lat="59.813158939588" lon="17.652884980619">
        <ele>52.8</ele>
        <time>2017-10-14T17:11:24Z</time>
      </trkpt>
      <trkpt lat="59.813157430846" lon="17.653015905897">
        <ele>52.8</ele>
        <time>2017-10-14T17:11:25Z</time>
      </trkpt>
      <trkpt lat="59.813158604312" lon="17.653156051265">
        <ele>52.4</ele>
        <time>2017-10-14T17:11:26Z</time>
      </trkpt>
      <trkpt lat="59.813159861597" lon="17.653303488886">
        <ele>52.2</ele>
        <time>2017-10-14T17:11:27Z</time>
      </trkpt>
      <trkpt lat="59.813160783606" lon="17.653438437476">
        <ele>52.2</ele>
        <time>2017-10-14T17:11:28Z</time>
      </trkpt>
      <trkpt lat="59.81316212471" lon="17.653580678319">
        <ele>52.2</ele>
        <time>2017-10-14T17:11:29Z</time>
      </trkpt>
      <trkpt lat="59.8131629629" lon="17.653707077371">
        <ele>52.4</ele>
        <time>2017-10-14T17:11:30Z</time>
      </trkpt>
      <trkpt lat="59.813164220185" lon="17.653849988766">
        <ele>52.4</ele>
        <time>2017-10-14T17:11:31Z</time>
      </trkpt>
      <trkpt lat="59.81316631566" lon="17.653975633447">
        <ele>52.6</ele>
        <time>2017-10-14T17:11:32Z</time>
      </trkpt>
      <trkpt lat="59.813168075859" lon="17.654111084951">
        <ele>52.6</ele>
        <time>2017-10-14T17:11:33Z</time>
      </trkpt>
      <trkpt lat="59.813168578773" lon="17.654257349106">
        <ele>52.6</ele>
        <time>2017-10-14T17:11:34Z</time>
      </trkpt>
      <trkpt lat="59.813169081687" lon="17.654386681823">
        <ele>52.6</ele>
        <time>2017-10-14T17:11:35Z</time>
      </trkpt>
      <trkpt lat="59.813171260981" lon="17.654515930721">
        <ele>52.6</ele>
        <time>2017-10-14T17:11:36Z</time>
      </trkpt>
      <trkpt lat="59.813172602085" lon="17.65466269779">
        <ele>52.8</ele>
        <time>2017-10-14T17:11:37Z</time>
      </trkpt>
      <trkpt lat="59.81317218299" lon="17.654799993312">
        <ele>52.8</ele>
        <time>2017-10-14T17:11:38Z</time>
      </trkpt>
      <trkpt lat="59.813173607913" lon="17.65492253669">
        <ele>52.8</ele>
        <time>2017-10-14T17:11:39Z</time>
      </trkpt>
      <trkpt lat="59.813174781379" lon="17.655051534131">
        <ele>52.8</ele>
        <time>2017-10-14T17:11:40Z</time>
      </trkpt>
      <trkpt lat="59.813177295949" lon="17.655195870449">
        <ele>52.8</ele>
        <time>2017-10-14T17:11:41Z</time>
      </trkpt>
      <trkpt lat="59.813182325089" lon="17.65533324979">
        <ele>52.6</ele>
        <time>2017-10-14T17:11:42Z</time>
      </trkpt>
      <trkpt lat="59.813183247098" lon="17.655468366018">
        <ele>52.6</ele>
        <time>2017-10-14T17:11:43Z</time>
      </trkpt>
      <trkpt lat="59.813181067804" lon="17.655585377342">
        <ele>52.6</ele>
        <time>2017-10-14T17:11:44Z</time>
      </trkpt>
      <trkpt lat="59.813178217958" lon="17.655703394494">
        <ele>52.8</ele>
        <time>2017-10-14T17:11:45Z</time>
      </trkpt>
      <trkpt lat="59.813177379768" lon="17.655826608424">
        <ele>53</ele>
        <time>2017-10-14T17:11:46Z</time>
      </trkpt>
      <trkpt lat="59.813177966501" lon="17.655951666372">
        <ele>53</ele>
        <time>2017-10-14T17:11:47Z</time>
      </trkpt>
      <trkpt lat="59.813177882682" lon="17.656072449551">
        <ele>53.4</ele>
        <time>2017-10-14T17:11:48Z</time>
      </trkpt>
      <trkpt lat="59.813175703388" lon="17.656188035952">
        <ele>53.6</ele>
        <time>2017-10-14T17:11:49Z</time>
      </trkpt>
      <trkpt lat="59.813176625397" lon="17.656295994824">
        <ele>53.8</ele>
        <time>2017-10-14T17:11:50Z</time>
      </trkpt>
      <trkpt lat="59.813167656764" lon="17.656403786058">
        <ele>54</ele>
        <time>2017-10-14T17:11:51Z</time>
      </trkpt>
      <trkpt lat="59.81316799204" lon="17.656524150142">
        <ele>54</ele>
        <time>2017-10-14T17:11:52Z</time>
      </trkpt>
      <trkpt lat="59.813168914049" lon="17.656633785394">
        <ele>54</ele>
        <time>2017-10-14T17:11:53Z</time>
      </trkpt>
      <trkpt lat="59.813168914049" lon="17.656732021262">
        <ele>54</ele>
        <time>2017-10-14T17:11:54Z</time>
      </trkpt>
      <trkpt lat="59.813170003696" lon="17.656829251302">
        <ele>54.2</ele>
        <time>2017-10-14T17:11:55Z</time>
      </trkpt>
      <trkpt lat="59.813171847714" lon="17.656932097215">
        <ele>54</ele>
        <time>2017-10-14T17:11:56Z</time>
      </trkpt>
      <trkpt lat="59.813173272637" lon="17.657027147961">
        <ele>54.2</ele>
        <time>2017-10-14T17:11:57Z</time>
      </trkpt>
      <trkpt lat="59.813176038664" lon="17.657125467648">
        <ele>54.2</ele>
        <time>2017-10-14T17:11:58Z</time>
      </trkpt>
      <trkpt lat="59.81317888851" lon="17.657218925833">
        <ele>54.2</ele>
        <time>2017-10-14T17:11:59Z</time>
      </trkpt>
      <trkpt lat="59.813180648709" lon="17.657307606335">
        <ele>54.4</ele>
        <time>2017-10-14T17:12:00Z</time>
      </trkpt>
      <trkpt lat="59.813182660365" lon="17.657410368429">
        <ele>54.6</ele>
        <time>2017-10-14T17:12:01Z</time>
      </trkpt>
      <trkpt lat="59.813180816347" lon="17.657504329528">
        <ele>54.6</ele>
        <time>2017-10-14T17:12:02Z</time>
      </trkpt>
      <trkpt lat="59.813173775551" lon="17.657596781885">
        <ele>54.8</ele>
        <time>2017-10-14T17:12:03Z</time>
      </trkpt>
      <trkpt lat="59.81316799204" lon="17.657688312233">
        <ele>54.8</ele>
        <time>2017-10-14T17:12:04Z</time>
      </trkpt>
      <trkpt lat="59.813165896565" lon="17.657778501477">
        <ele>54.8</ele>
        <time>2017-10-14T17:12:05Z</time>
      </trkpt>
      <trkpt lat="59.813163717271" lon="17.657870367101">
        <ele>55</ele>
        <time>2017-10-14T17:12:06Z</time>
      </trkpt>
      <trkpt lat="59.813164136366" lon="17.657968351512">
        <ele>55</ele>
        <time>2017-10-14T17:12:07Z</time>
      </trkpt>
      <trkpt lat="59.813163717271" lon="17.658061222964">
        <ele>55</ele>
        <time>2017-10-14T17:12:08Z</time>
      </trkpt>
      <trkpt lat="59.813163884909" lon="17.658153423864">
        <ele>55</ele>
        <time>2017-10-14T17:12:09Z</time>
      </trkpt>
      <trkpt lat="59.813165645108" lon="17.658241852909">
        <ele>55.2</ele>
        <time>2017-10-14T17:12:10Z</time>
      </trkpt>
      <trkpt lat="59.813166064203" lon="17.65834319008">
        <ele>55.2</ele>
        <time>2017-10-14T17:12:11Z</time>
      </trkpt>
      <trkpt lat="59.813166148022" lon="17.658436983541">
        <ele>55.4</ele>
        <time>2017-10-14T17:12:12Z</time>
      </trkpt>
      <trkpt lat="59.813167656764" lon="17.658532788658">
        <ele>55.4</ele>
        <time>2017-10-14T17:12:13Z</time>
      </trkpt>
      <trkpt lat="59.813172518266" lon="17.658628007042">
        <ele>55.4</ele>
        <time>2017-10-14T17:12:14Z</time>
      </trkpt>
      <trkpt lat="59.813175368112" lon="17.658716352268">
        <ele>55.4</ele>
        <time>2017-10-14T17:12:15Z</time>
      </trkpt>
      <trkpt lat="59.813177463587" lon="17.658818527629">
        <ele>55.4</ele>
        <time>2017-10-14T17:12:16Z</time>
      </trkpt>
      <trkpt lat="59.813180397252" lon="17.658916260583">
        <ele>55.4</ele>
        <time>2017-10-14T17:12:17Z</time>
      </trkpt>
      <trkpt lat="59.81318391765" lon="17.659014747908">
        <ele>55.4</ele>
        <time>2017-10-14T17:12:18Z</time>
      </trkpt>
      <trkpt lat="59.813187605686" lon="17.659113570509">
        <ele>55.4</ele>
        <time>2017-10-14T17:12:19Z</time>
      </trkpt>
      <trkpt lat="59.813191209903" lon="17.659214656223">
        <ele>55.4</ele>
        <time>2017-10-14T17:12:20Z</time>
      </trkpt>
      <trkpt lat="59.813194143568" lon="17.659312305358">
        <ele>55.4</ele>
        <time>2017-10-14T17:12:21Z</time>
      </trkpt>
      <trkpt lat="59.813197244871" lon="17.659424203723">
        <ele>55.4</ele>
        <time>2017-10-14T17:12:22Z</time>
      </trkpt>
      <trkpt lat="59.813199507984" lon="17.65953258169">
        <ele>55.4</ele>
        <time>2017-10-14T17:12:23Z</time>
      </trkpt>
      <trkpt lat="59.813201603459" lon="17.659639786191">
        <ele>55.2</ele>
        <time>2017-10-14T17:12:24Z</time>
      </trkpt>
      <trkpt lat="59.813201184364" lon="17.659733914928">
        <ele>55.2</ele>
        <time>2017-10-14T17:12:25Z</time>
      </trkpt>
      <trkpt lat="59.813202274011" lon="17.659848998415">
        <ele>55.2</ele>
        <time>2017-10-14T17:12:26Z</time>
      </trkpt>
      <trkpt lat="59.813204369486" lon="17.659927536818">
        <ele>55.2</ele>
        <time>2017-10-14T17:12:27Z</time>
      </trkpt>
      <trkpt lat="59.81320654878" lon="17.660061144304">
        <ele>55.2</ele>
        <time>2017-10-14T17:12:28Z</time>
      </trkpt>
      <trkpt lat="59.813208392798" lon="17.660172372117">
        <ele>55</ele>
        <time>2017-10-14T17:12:29Z</time>
      </trkpt>
      <trkpt lat="59.813209985359" lon="17.660268009596">
        <ele>55.2</ele>
        <time>2017-10-14T17:12:30Z</time>
      </trkpt>
      <trkpt lat="59.813214008671" lon="17.660384601825">
        <ele>55.2</ele>
        <time>2017-10-14T17:12:31Z</time>
      </trkpt>
      <trkpt lat="59.813217109974" lon="17.660495913457">
        <ele>55</ele>
        <time>2017-10-14T17:12:32Z</time>
      </trkpt>
      <trkpt lat="59.813217361431" lon="17.660607057451">
        <ele>54.8</ele>
        <time>2017-10-14T17:12:33Z</time>
      </trkpt>
      <trkpt lat="59.813219624544" lon="17.660725912793">
        <ele>54.6</ele>
        <time>2017-10-14T17:12:34Z</time>
      </trkpt>
      <trkpt lat="59.813224234589" lon="17.660845606325">
        <ele>54.4</ele>
        <time>2017-10-14T17:12:35Z</time>
      </trkpt>
      <trkpt lat="59.813226749159" lon="17.660973933214">
        <ele>54</ele>
        <time>2017-10-14T17:12:36Z</time>
      </trkpt>
      <trkpt lat="59.813228257901" lon="17.661110642003">
        <ele>53.6</ele>
        <time>2017-10-14T17:12:37Z</time>
      </trkpt>
      <trkpt lat="59.813229012272" lon="17.661242908385">
        <ele>53.2</ele>
        <time>2017-10-14T17:12:38Z</time>
      </trkpt>
      <trkpt lat="59.81323253267" lon="17.661370145627">
        <ele>52.8</ele>
        <time>2017-10-14T17:12:39Z</time>
      </trkpt>
      <trkpt lat="59.813231526842" lon="17.66149143172">
        <ele>52.4</ele>
        <time>2017-10-14T17:12:40Z</time>
      </trkpt>
      <trkpt lat="59.813234292869" lon="17.661639623712">
        <ele>52</ele>
        <time>2017-10-14T17:12:41Z</time>
      </trkpt>
      <trkpt lat="59.813235633973" lon="17.661769962257">
        <ele>51.8</ele>
        <time>2017-10-14T17:12:42Z</time>
      </trkpt>
      <trkpt lat="59.813236472163" lon="17.661901474268">
        <ele>51.4</ele>
        <time>2017-10-14T17:12:43Z</time>
      </trkpt>
      <trkpt lat="59.813240411656" lon="17.662034075926">
        <ele>51</ele>
        <time>2017-10-14T17:12:44Z</time>
      </trkpt>
      <trkpt lat="59.813243680597" lon="17.662164330652">
        <ele>50.6</ele>
        <time>2017-10-14T17:12:45Z</time>
      </trkpt>
      <trkpt lat="59.813245021701" lon="17.662314282843">
        <ele>50</ele>
        <time>2017-10-14T17:12:46Z</time>
      </trkpt>
      <trkpt lat="59.81324259095" lon="17.662460714636">
        <ele>49.6</ele>
        <time>2017-10-14T17:12:47Z</time>
      </trkpt>
      <trkpt lat="59.813242507131" lon="17.662621479478">
        <ele>48.6</ele>
        <time>2017-10-14T17:12:48Z</time>
      </trkpt>
      <trkpt lat="59.813242926226" lon="17.662802109423">
        <ele>48</ele>
        <time>2017-10-14T17:12:49Z</time>
      </trkpt>
      <trkpt lat="59.813244518787" lon="17.662958348039">
        <ele>47</ele>
        <time>2017-10-14T17:12:50Z</time>
      </trkpt>
      <trkpt lat="59.813244015873" lon="17.66313093136">
        <ele>46</ele>
        <time>2017-10-14T17:12:51Z</time>
      </trkpt>
      <trkpt lat="59.813243261502" lon="17.663325056164">
        <ele>44.8</ele>
        <time>2017-10-14T17:12:52Z</time>
      </trkpt>
      <trkpt lat="59.813244686425" lon="17.663515576751">
        <ele>43.2</ele>
        <time>2017-10-14T17:12:53Z</time>
      </trkpt>
      <trkpt lat="59.813247033357" lon="17.663697715438">
        <ele>42.4</ele>
        <time>2017-10-14T17:12:54Z</time>
      </trkpt>
      <trkpt lat="59.81324845828" lon="17.663866694542">
        <ele>41.6</ele>
        <time>2017-10-14T17:12:55Z</time>
      </trkpt>
      <trkpt lat="59.813248542099" lon="17.664053107998">
        <ele>41</ele>
        <time>2017-10-14T17:12:56Z</time>
      </trkpt>
      <trkpt lat="59.813248374461" lon="17.664225775138">
        <ele>40.6</ele>
        <time>2017-10-14T17:12:57Z</time>
      </trkpt>
      <trkpt lat="59.813247703909" lon="17.664392239672">
        <ele>40.2</ele>
        <time>2017-10-14T17:12:58Z</time>
      </trkpt>
      <trkpt lat="59.813250469936" lon="17.664563984803">
        <ele>39.8</ele>
        <time>2017-10-14T17:12:59Z</time>
      </trkpt>
      <trkpt lat="59.813254241791" lon="17.664728689138">
        <ele>40</ele>
        <time>2017-10-14T17:13:00Z</time>
      </trkpt>
      <trkpt lat="59.81325767837" lon="17.664892220007">
        <ele>40</ele>
        <time>2017-10-14T17:13:01Z</time>
      </trkpt>
      <trkpt lat="59.813261534044" lon="17.665045944053">
        <ele>40</ele>
        <time>2017-10-14T17:13:02Z</time>
      </trkpt>
      <trkpt lat="59.813265054442" lon="17.665200338651">
        <ele>40</ele>
        <time>2017-10-14T17:13:03Z</time>
      </trkpt>
      <trkpt lat="59.813269580668" lon="17.665353978878">
        <ele>40</ele>
        <time>2017-10-14T17:13:04Z</time>
      </trkpt>
      <trkpt lat="59.813273184885" lon="17.66550636182">
        <ele>40</ele>
        <time>2017-10-14T17:13:05Z</time>
      </trkpt>
      <trkpt lat="59.813275112722" lon="17.665649859948">
        <ele>39.8</ele>
        <time>2017-10-14T17:13:06Z</time>
      </trkpt>
      <trkpt lat="59.813272095238" lon="17.665814480464">
        <ele>39.8</ele>
        <time>2017-10-14T17:13:07Z</time>
      </trkpt>
      <trkpt lat="59.81326773665" lon="17.665961415171">
        <ele>39.6</ele>
        <time>2017-10-14T17:13:08Z</time>
      </trkpt>
      <trkpt lat="59.813263964795" lon="17.666102482548">
        <ele>39.6</ele>
        <time>2017-10-14T17:13:09Z</time>
      </trkpt>
      <trkpt lat="59.813260109121" lon="17.666228211048">
        <ele>39.6</ele>
        <time>2017-10-14T17:13:10Z</time>
      </trkpt>
      <trkpt lat="59.813259103293" lon="17.666371960633">
        <ele>39.6</ele>
        <time>2017-10-14T17:13:11Z</time>
      </trkpt>
      <trkpt lat="59.813256253447" lon="17.66649374964">
        <ele>40</ele>
        <time>2017-10-14T17:13:12Z</time>
      </trkpt>
      <trkpt lat="59.813259606207" lon="17.666608749308">
        <ele>40.2</ele>
        <time>2017-10-14T17:13:13Z</time>
      </trkpt>
      <trkpt lat="59.813262288415" lon="17.666726431184">
        <ele>40.8</ele>
        <time>2017-10-14T17:13:14Z</time>
      </trkpt>
      <trkpt lat="59.813264551528" lon="17.666825086147">
        <ele>41.4</ele>
        <time>2017-10-14T17:13:15Z</time>
      </trkpt>
      <trkpt lat="59.813266563184" lon="17.666933296476">
        <ele>42.2</ele>
        <time>2017-10-14T17:13:16Z</time>
      </trkpt>
      <trkpt lat="59.813271005591" lon="17.667042177357">
        <ele>42.8</ele>
        <time>2017-10-14T17:13:17Z</time>
      </trkpt>
      <trkpt lat="59.813276789102" lon="17.667145442365">
        <ele>43.2</ele>
        <time>2017-10-14T17:13:18Z</time>
      </trkpt>
      <trkpt lat="59.813282321156" lon="17.667250048477">
        <ele>43.6</ele>
        <time>2017-10-14T17:13:19Z</time>
      </trkpt>
      <trkpt lat="59.813286093011" lon="17.667349038716">
        <ele>44</ele>
        <time>2017-10-14T17:13:20Z</time>
      </trkpt>
      <trkpt lat="59.813285673916" lon="17.667450878801">
        <ele>44.2</ele>
        <time>2017-10-14T17:13:21Z</time>
      </trkpt>
      <trkpt lat="59.81328366226" lon="17.667557580388">
        <ele>44.4</ele>
        <time>2017-10-14T17:13:22Z</time>
      </trkpt>
      <trkpt lat="59.813281650604" lon="17.667662689414">
        <ele>44.4</ele>
        <time>2017-10-14T17:13:23Z</time>
      </trkpt>
      <trkpt lat="59.813279219853" lon="17.667765451508">
        <ele>44.8</ele>
        <time>2017-10-14T17:13:24Z</time>
      </trkpt>
      <trkpt lat="59.813277627292" lon="17.667858742055">
        <ele>44.8</ele>
        <time>2017-10-14T17:13:25Z</time>
      </trkpt>
      <trkpt lat="59.813277040559" lon="17.667961839425">
        <ele>45</ele>
        <time>2017-10-14T17:13:26Z</time>
      </trkpt>
      <trkpt lat="59.813282656432" lon="17.66805781218">
        <ele>45</ele>
        <time>2017-10-14T17:13:27Z</time>
      </trkpt>
      <trkpt lat="59.813301431888" lon="17.668149593985">
        <ele>45.2</ele>
        <time>2017-10-14T17:13:28Z</time>
      </trkpt>
      <trkpt lat="59.813333702203" lon="17.668233161528">
        <ele>45.2</ele>
        <time>2017-10-14T17:13:29Z</time>
      </trkpt>
      <trkpt lat="59.813373851504" lon="17.668290493724">
        <ele>45.2</ele>
        <time>2017-10-14T17:13:30Z</time>
      </trkpt>
      <trkpt lat="59.813425567827" lon="17.668330559206">
        <ele>45.2</ele>
        <time>2017-10-14T17:13:31Z</time>
      </trkpt>
      <trkpt lat="59.813477870883" lon="17.668347155368">
        <ele>45</ele>
        <time>2017-10-14T17:13:32Z</time>
      </trkpt>
      <trkpt lat="59.813527743188" lon="17.668352184508">
        <ele>44.8</ele>
        <time>2017-10-14T17:13:33Z</time>
      </trkpt>
      <trkpt lat="59.813582225538" lon="17.668350508128">
        <ele>44.6</ele>
        <time>2017-10-14T17:13:34Z</time>
      </trkpt>
      <trkpt lat="59.813634696232" lon="17.668346065721">
        <ele>44.2</ele>
        <time>2017-10-14T17:13:35Z</time>
      </trkpt>
      <trkpt lat="59.813689849134" lon="17.668341790952">
        <ele>44.2</ele>
        <time>2017-10-14T17:13:36Z</time>
      </trkpt>
      <trkpt lat="59.813748438615" lon="17.66833860583">
        <ele>44</ele>
        <time>2017-10-14T17:13:37Z</time>
      </trkpt>
      <trkpt lat="59.81380166368" lon="17.668338773468">
        <ele>44</ele>
        <time>2017-10-14T17:13:38Z</time>
      </trkpt>
      <trkpt lat="59.813857068039" lon="17.66834028221">
        <ele>44.2</ele>
        <time>2017-10-14T17:13:39Z</time>
      </trkpt>
      <trkpt lat="59.81390643743" lon="17.668345730445">
        <ele>44.2</ele>
        <time>2017-10-14T17:13:40Z</time>
      </trkpt>
      <trkpt lat="59.813963350531" lon="17.668365763186">
        <ele>44.4</ele>
        <time>2017-10-14T17:13:41Z</time>
      </trkpt>
      <trkpt lat="59.81401456394" lon="17.668407756505">
        <ele>44.4</ele>
        <time>2017-10-14T17:13:42Z</time>
      </trkpt>
      <trkpt lat="59.814057646906" lon="17.668459221371">
        <ele>44.4</ele>
        <time>2017-10-14T17:13:43Z</time>
      </trkpt>
      <trkpt lat="59.814108105944" lon="17.668522756173">
        <ele>44.4</ele>
        <time>2017-10-14T17:13:44Z</time>
      </trkpt>
      <trkpt lat="59.814149680168" lon="17.668590817201">
        <ele>44.4</ele>
        <time>2017-10-14T17:13:45Z</time>
      </trkpt>
      <trkpt lat="59.814189829469" lon="17.668686370861">
        <ele>44.2</ele>
        <time>2017-10-14T17:13:46Z</time>
      </trkpt>
      <trkpt lat="59.814220423404" lon="17.668780499598">
        <ele>44</ele>
        <time>2017-10-14T17:13:47Z</time>
      </trkpt>
      <trkpt lat="59.81425009533" lon="17.668864821512">
        <ele>43.8</ele>
        <time>2017-10-14T17:13:48Z</time>
      </trkpt>
      <trkpt lat="59.814288149156" lon="17.668947299408">
        <ele>43.6</ele>
        <time>2017-10-14T17:13:49Z</time>
      </trkpt>
      <trkpt lat="59.814321090023" lon="17.669018042644">
        <ele>43.4</ele>
        <time>2017-10-14T17:13:50Z</time>
      </trkpt>
      <trkpt lat="59.814356713098" lon="17.669094820848">
        <ele>43</ele>
        <time>2017-10-14T17:13:51Z</time>
      </trkpt>
      <trkpt lat="59.814394850743" lon="17.669173694527">
        <ele>42.8</ele>
        <time>2017-10-14T17:13:52Z</time>
      </trkpt>
      <trkpt lat="59.814429635628" lon="17.669249047808">
        <ele>42.6</ele>
        <time>2017-10-14T17:13:53Z</time>
      </trkpt>
      <trkpt lat="59.814462492676" lon="17.669314426628">
        <ele>42.4</ele>
        <time>2017-10-14T17:13:54Z</time>
      </trkpt>
      <trkpt lat="59.814503144891" lon="17.669351474626">
        <ele>42.2</ele>
        <time>2017-10-14T17:13:55Z</time>
      </trkpt>
      <trkpt lat="59.814550418807" lon="17.669378045249">
        <ele>42.2</ele>
        <time>2017-10-14T17:13:56Z</time>
      </trkpt>
      <trkpt lat="59.814593417954" lon="17.669404112958">
        <ele>42.2</ele>
        <time>2017-10-14T17:13:57Z</time>
      </trkpt>
      <trkpt lat="59.814639769861" lon="17.669422301681">
        <ele>42.2</ele>
        <time>2017-10-14T17:13:58Z</time>
      </trkpt>
      <trkpt lat="59.814682098456" lon="17.669458260032">
        <ele>42.2</ele>
        <time>2017-10-14T17:13:59Z</time>
      </trkpt>
      <trkpt lat="59.814712105658" lon="17.669509054346">
        <ele>42</ele>
        <time>2017-10-14T17:14:00Z</time>
      </trkpt>
      <trkpt lat="59.814733395684" lon="17.669579881401">
        <ele>42</ele>
        <time>2017-10-14T17:14:01Z</time>
      </trkpt>
      <trkpt lat="59.814743621602" lon="17.669647104239">
        <ele>42</ele>
        <time>2017-10-14T17:14:02Z</time>
      </trkpt>
      <trkpt lat="59.814752506416" lon="17.669701670408">
        <ele>42</ele>
        <time>2017-10-14T17:14:03Z</time>
      </trkpt>
      <trkpt lat="59.814767174741" lon="17.669751961808">
        <ele>42</ele>
        <time>2017-10-14T17:14:04Z</time>
      </trkpt>
      <trkpt lat="59.814796092296" lon="17.669787081969">
        <ele>42</ele>
        <time>2017-10-14T17:14:05Z</time>
      </trkpt>
      <trkpt lat="59.814829452258" lon="17.669813233497">
        <ele>42.2</ele>
        <time>2017-10-14T17:14:06Z</time>
      </trkpt>
      <trkpt lat="59.814861638754" lon="17.669850281495">
        <ele>42.2</ele>
        <time>2017-10-14T17:14:07Z</time>
      </trkpt>
      <trkpt lat="59.814888879929" lon="17.66989009552">
        <ele>42.2</ele>
        <time>2017-10-14T17:14:08Z</time>
      </trkpt>
      <trkpt lat="59.814919222407" lon="17.669920437998">
        <ele>42.2</ele>
        <time>2017-10-14T17:14:09Z</time>
      </trkpt>
      <trkpt lat="59.814946798858" lon="17.669926305328">
        <ele>42.2</ele>
        <time>2017-10-14T17:14:10Z</time>
      </trkpt>
      <trkpt lat="59.814969932902" lon="17.669909290071">
        <ele>42.2</ele>
        <time>2017-10-14T17:14:11Z</time>
      </trkpt>
      <trkpt lat="59.81497932063" lon="17.669873247901">
        <ele>42.2</ele>
        <time>2017-10-14T17:14:12Z</time>
      </trkpt>
      <trkpt lat="59.814978985354" lon="17.669819436103">
        <ele>42.2</ele>
        <time>2017-10-14T17:14:13Z</time>
      </trkpt>
      <trkpt lat="59.814972028377" lon="17.66975011779">
        <ele>42.4</ele>
        <time>2017-10-14T17:14:14Z</time>
      </trkpt>
      <trkpt lat="59.814967837427" lon="17.669678955459">
        <ele>42.6</ele>
        <time>2017-10-14T17:14:15Z</time>
      </trkpt>
      <trkpt lat="59.814972782748" lon="17.669592705708">
        <ele>42.8</ele>
        <time>2017-10-14T17:14:16Z</time>
      </trkpt>
      <trkpt lat="59.814993066946" lon="17.669506707414">
        <ele>43</ele>
        <time>2017-10-14T17:14:17Z</time>
      </trkpt>
      <trkpt lat="59.815028857659" lon="17.669439065481">
        <ele>43</ele>
        <time>2017-10-14T17:14:18Z</time>
      </trkpt>
      <trkpt lat="59.815071689168" lon="17.669383996398">
        <ele>42.8</ele>
        <time>2017-10-14T17:14:19Z</time>
      </trkpt>
      <trkpt lat="59.815118627808" lon="17.669340913432">
        <ele>42.6</ele>
        <time>2017-10-14T17:14:20Z</time>
      </trkpt>
      <trkpt lat="59.815171517597" lon="17.669308726936">
        <ele>42.4</ele>
        <time>2017-10-14T17:14:21Z</time>
      </trkpt>
      <trkpt lat="59.815227089594" lon="17.669288107462">
        <ele>42.2</ele>
        <time>2017-10-14T17:14:22Z</time>
      </trkpt>
      <trkpt lat="59.815287355455" lon="17.669264638142">
        <ele>42</ele>
        <time>2017-10-14T17:14:23Z</time>
      </trkpt>
      <trkpt lat="59.815341670167" lon="17.669236391139">
        <ele>41.8</ele>
        <time>2017-10-14T17:14:24Z</time>
      </trkpt>
      <trkpt lat="59.815396152517" lon="17.669210742525">
        <ele>41.8</ele>
        <time>2017-10-14T17:14:25Z</time>
      </trkpt>
      <trkpt lat="59.815461615156" lon="17.669183920445">
        <ele>41.6</ele>
        <time>2017-10-14T17:14:26Z</time>
      </trkpt>
      <trkpt lat="59.815520372275" lon="17.669168916844">
        <ele>41.6</ele>
        <time>2017-10-14T17:14:27Z</time>
      </trkpt>
      <trkpt lat="59.81557611191" lon="17.669158439469">
        <ele>41.4</ele>
        <time>2017-10-14T17:14:28Z</time>
      </trkpt>
      <trkpt lat="59.815641909825" lon="17.66914829737">
        <ele>41.2</ele>
        <time>2017-10-14T17:14:29Z</time>
      </trkpt>
      <trkpt lat="59.815697481822" lon="17.669142932954">
        <ele>41.2</ele>
        <time>2017-10-14T17:14:30Z</time>
      </trkpt>
      <trkpt lat="59.815760681348" lon="17.669146285714">
        <ele>41</ele>
        <time>2017-10-14T17:14:31Z</time>
      </trkpt>
      <trkpt lat="59.815816923897" lon="17.669156092537">
        <ele>41</ele>
        <time>2017-10-14T17:14:32Z</time>
      </trkpt>
      <trkpt lat="59.815872747351" lon="17.669163300971">
        <ele>41</ele>
        <time>2017-10-14T17:14:33Z</time>
      </trkpt>
      <trkpt lat="59.815928822262" lon="17.669174784174">
        <ele>41</ele>
        <time>2017-10-14T17:14:34Z</time>
      </trkpt>
      <trkpt lat="59.815989171942" lon="17.669189284861">
        <ele>41</ele>
        <time>2017-10-14T17:14:35Z</time>
      </trkpt>
      <trkpt lat="59.816054131667" lon="17.669207725041">
        <ele>41.2</ele>
        <time>2017-10-14T17:14:36Z</time>
      </trkpt>
      <trkpt lat="59.816115235718" lon="17.669229853257">
        <ele>41</ele>
        <time>2017-10-14T17:14:37Z</time>
      </trkpt>
      <trkpt lat="59.816178183787" lon="17.669252652025">
        <ele>41</ele>
        <time>2017-10-14T17:14:38Z</time>
      </trkpt>
      <trkpt lat="59.816241131856" lon="17.669273942051">
        <ele>41</ele>
        <time>2017-10-14T17:14:39Z</time>
      </trkpt>
      <trkpt lat="59.816289663057" lon="17.669288107462">
        <ele>40.8</ele>
        <time>2017-10-14T17:14:40Z</time>
      </trkpt>
      <trkpt lat="59.816350180375" lon="17.669308224022">
        <ele>40.8</ele>
        <time>2017-10-14T17:14:41Z</time>
      </trkpt>
      <trkpt lat="59.816409105132" lon="17.669322221795">
        <ele>40.8</ele>
        <time>2017-10-14T17:14:42Z</time>
      </trkpt>
      <trkpt lat="59.816465766776" lon="17.669333369722">
        <ele>40.8</ele>
        <time>2017-10-14T17:14:43Z</time>
      </trkpt>
      <trkpt lat="59.816528966302" lon="17.669347954228">
        <ele>40.8</ele>
        <time>2017-10-14T17:14:44Z</time>
      </trkpt>
      <trkpt lat="59.81658445448" lon="17.669364215114">
        <ele>40.8</ele>
        <time>2017-10-14T17:14:45Z</time>
      </trkpt>
      <trkpt lat="59.816644720341" lon="17.669376536507">
        <ele>40.8</ele>
        <time>2017-10-14T17:14:46Z</time>
      </trkpt>
      <trkpt lat="59.816704148012" lon="17.669363460743">
        <ele>40.6</ele>
        <time>2017-10-14T17:14:47Z</time>
      </trkpt>
      <trkpt lat="59.816754020317" lon="17.669307972565">
        <ele>40.6</ele>
        <time>2017-10-14T17:14:48Z</time>
      </trkpt>
      <trkpt lat="59.816793666704" lon="17.669229266524">
        <ele>40.6</ele>
        <time>2017-10-14T17:14:49Z</time>
      </trkpt>
      <trkpt lat="59.816830714702" lon="17.6691457828">
        <ele>40.6</ele>
        <time>2017-10-14T17:14:50Z</time>
      </trkpt>
      <trkpt lat="59.816868852347" lon="17.669065232741">
        <ele>40.6</ele>
        <time>2017-10-14T17:14:51Z</time>
      </trkpt>
      <trkpt lat="59.816905984164" lon="17.668990298555">
        <ele>40.6</ele>
        <time>2017-10-14T17:14:52Z</time>
      </trkpt>
      <trkpt lat="59.81695325808" lon="17.668933636911">
        <ele>40.6</ele>
        <time>2017-10-14T17:14:53Z</time>
      </trkpt>
      <trkpt lat="59.81700522586" lon="17.668892146506">
        <ele>40.8</ele>
        <time>2017-10-14T17:14:54Z</time>
      </trkpt>
      <trkpt lat="59.817055265803" lon="17.668868844824">
        <ele>40.8</ele>
        <time>2017-10-14T17:14:55Z</time>
      </trkpt>
      <trkpt lat="59.81711419056" lon="17.668838921441">
        <ele>41</ele>
        <time>2017-10-14T17:14:56Z</time>
      </trkpt>
      <trkpt lat="59.817166493616" lon="17.668804052737">
        <ele>41</ele>
        <time>2017-10-14T17:14:57Z</time>
      </trkpt>
      <trkpt lat="59.817215443912" lon="17.668768848757">
        <ele>41.2</ele>
        <time>2017-10-14T17:14:58Z</time>
      </trkpt>
      <trkpt lat="59.817269088072" lon="17.668716294244">
        <ele>41.4</ele>
        <time>2017-10-14T17:14:59Z</time>
      </trkpt>
      <trkpt lat="59.817312506314" lon="17.668667679224">
        <ele>41.4</ele>
        <time>2017-10-14T17:15:00Z</time>
      </trkpt>
      <trkpt lat="59.817357768574" lon="17.668612861598">
        <ele>41.6</ele>
        <time>2017-10-14T17:15:01Z</time>
      </trkpt>
      <trkpt lat="59.817401019178" lon="17.668569275718">
        <ele>41.8</ele>
        <time>2017-10-14T17:15:02Z</time>
      </trkpt>
      <trkpt lat="59.817442090488" lon="17.668537340679">
        <ele>42</ele>
        <time>2017-10-14T17:15:03Z</time>
      </trkpt>
      <trkpt lat="59.81748886149" lon="17.668517307938">
        <ele>42.4</ele>
        <time>2017-10-14T17:15:04Z</time>
      </trkpt>
      <trkpt lat="59.81753747651" lon="17.668505992373">
        <ele>42.8</ele>
        <time>2017-10-14T17:15:05Z</time>
      </trkpt>
      <trkpt lat="59.817591036851" lon="17.668499035396">
        <ele>43</ele>
        <time>2017-10-14T17:15:06Z</time>
      </trkpt>
      <trkpt lat="59.817643591364" lon="17.668495012084">
        <ele>43</ele>
        <time>2017-10-14T17:15:07Z</time>
      </trkpt>
      <trkpt lat="59.817696564972" lon="17.668504232174">
        <ele>43</ele>
        <time>2017-10-14T17:15:08Z</time>
      </trkpt>
      <trkpt lat="59.817747778381" lon="17.66852719858">
        <ele>43</ele>
        <time>2017-10-14T17:15:09Z</time>
      </trkpt>
      <trkpt lat="59.81779480084" lon="17.668549159158">
        <ele>43</ele>
        <time>2017-10-14T17:15:10Z</time>
      </trkpt>
      <trkpt lat="59.817853557959" lon="17.668573885763">
        <ele>43</ele>
        <time>2017-10-14T17:15:11Z</time>
      </trkpt>
      <trkpt lat="59.817904687549" lon="17.668598025635">
        <ele>43</ele>
        <time>2017-10-14T17:15:12Z</time>
      </trkpt>
      <trkpt lat="59.81795489513" lon="17.668624596258">
        <ele>42.8</ele>
        <time>2017-10-14T17:15:13Z</time>
      </trkpt>
      <trkpt lat="59.818011724412" lon="17.668643287895">
        <ele>43</ele>
        <time>2017-10-14T17:15:14Z</time>
      </trkpt>
      <trkpt lat="59.818054053007" lon="17.668666589577">
        <ele>43</ele>
        <time>2017-10-14T17:15:15Z</time>
      </trkpt>
      <trkpt lat="59.818118258361" lon="17.66870238029">
        <ele>42.8</ele>
        <time>2017-10-14T17:15:16Z</time>
      </trkpt>
      <trkpt lat="59.818175003824" lon="17.668736997537">
        <ele>42.8</ele>
        <time>2017-10-14T17:15:17Z</time>
      </trkpt>
      <trkpt lat="59.818227558337" lon="17.668771279508">
        <ele>42.6</ele>
        <time>2017-10-14T17:15:18Z</time>
      </trkpt>
      <trkpt lat="59.818286315456" lon="17.668804471832">
        <ele>42.6</ele>
        <time>2017-10-14T17:15:19Z</time>
      </trkpt>
      <trkpt lat="59.818342725643" lon="17.668830790998">
        <ele>42.6</ele>
        <time>2017-10-14T17:15:20Z</time>
      </trkpt>
      <trkpt lat="59.818404416427" lon="17.668858786544">
        <ele>42.6</ele>
        <time>2017-10-14T17:15:21Z</time>
      </trkpt>
      <trkpt lat="59.818467448315" lon="17.668880411846">
        <ele>42.2</ele>
        <time>2017-10-14T17:15:22Z</time>
      </trkpt>
      <trkpt lat="59.818532575678" lon="17.66889516399">
        <ele>42</ele>
        <time>2017-10-14T17:15:23Z</time>
      </trkpt>
      <trkpt lat="59.818590829883" lon="17.668893152334">
        <ele>41.8</ele>
        <time>2017-10-14T17:15:24Z</time>
      </trkpt>
      <trkpt lat="59.818649922278" lon="17.668895834542">
        <ele>41.8</ele>
        <time>2017-10-14T17:15:25Z</time>
      </trkpt>
      <trkpt lat="59.818715217279" lon="17.668889883393">
        <ele>41.6</ele>
        <time>2017-10-14T17:15:26Z</time>
      </trkpt>
      <trkpt lat="59.818775147864" lon="17.668884099882">
        <ele>41.6</ele>
        <time>2017-10-14T17:15:27Z</time>
      </trkpt>
      <trkpt lat="59.818818733744" lon="17.668881501493">
        <ele>41.6</ele>
        <time>2017-10-14T17:15:28Z</time>
      </trkpt>
      <trkpt lat="59.818899116165" lon="17.668873287231">
        <ele>41.6</ele>
        <time>2017-10-14T17:15:29Z</time>
      </trkpt>
      <trkpt lat="59.8189548558" lon="17.668862558399">
        <ele>41.6</ele>
        <time>2017-10-14T17:15:30Z</time>
      </trkpt>
      <trkpt lat="59.819018390602" lon="17.668851326653">
        <ele>41.8</ele>
        <time>2017-10-14T17:15:31Z</time>
      </trkpt>
      <trkpt lat="59.81907639335" lon="17.668833473206">
        <ele>41.8</ele>
        <time>2017-10-14T17:15:32Z</time>
      </trkpt>
      <trkpt lat="59.819131965347" lon="17.668816793225">
        <ele>41.8</ele>
        <time>2017-10-14T17:15:33Z</time>
      </trkpt>
      <trkpt lat="59.819190638647" lon="17.668807573135">
        <ele>42</ele>
        <time>2017-10-14T17:15:34Z</time>
      </trkpt>
      <trkpt lat="59.819246378282" lon="17.668792820991">
        <ele>42</ele>
        <time>2017-10-14T17:15:35Z</time>
      </trkpt>
      <trkpt lat="59.819305470677" lon="17.668772536793">
        <ele>42.2</ele>
        <time>2017-10-14T17:15:36Z</time>
      </trkpt>
      <trkpt lat="59.819361210312" lon="17.668755772993">
        <ele>42.2</ele>
        <time>2017-10-14T17:15:37Z</time>
      </trkpt>
      <trkpt lat="59.819418542508" lon="17.668746552903">
        <ele>42.4</ele>
        <time>2017-10-14T17:15:38Z</time>
      </trkpt>
      <trkpt lat="59.819477215808" lon="17.668745714713">
        <ele>42.6</ele>
        <time>2017-10-14T17:15:39Z</time>
      </trkpt>
      <trkpt lat="59.819533961271" lon="17.668751162948">
        <ele>42.8</ele>
        <time>2017-10-14T17:15:40Z</time>
      </trkpt>
      <trkpt lat="59.819601603204" lon="17.66874848074">
        <ele>42.8</ele>
        <time>2017-10-14T17:15:41Z</time>
      </trkpt>
      <trkpt lat="59.819664383635" lon="17.668735321157">
        <ele>42.6</ele>
        <time>2017-10-14T17:15:42Z</time>
      </trkpt>
      <trkpt lat="59.819728253713" lon="17.668717132434">
        <ele>42.6</ele>
        <time>2017-10-14T17:15:43Z</time>
      </trkpt>
      <trkpt lat="59.819791285601" lon="17.668693244019">
        <ele>42.4</ele>
        <time>2017-10-14T17:15:44Z</time>
      </trkpt>
      <trkpt lat="59.81984752815" lon="17.668673798011">
        <ele>42.2</ele>
        <time>2017-10-14T17:15:45Z</time>
      </trkpt>
      <trkpt lat="59.819913828979" lon="17.668642952619">
        <ele>42</ele>
        <time>2017-10-14T17:15:46Z</time>
      </trkpt>
      <trkpt lat="59.819973843383" lon="17.66861017939">
        <ele>42</ele>
        <time>2017-10-14T17:15:47Z</time>
      </trkpt>
      <trkpt lat="59.820033019597" lon="17.668575143048">
        <ele>42</ele>
        <time>2017-10-14T17:15:48Z</time>
      </trkpt>
      <trkpt lat="59.820091273802" lon="17.668539184697">
        <ele>42</ele>
        <time>2017-10-14T17:15:49Z</time>
      </trkpt>
      <trkpt lat="59.820144498867" lon="17.668504902726">
        <ele>42</ele>
        <time>2017-10-14T17:15:50Z</time>
      </trkpt>
      <trkpt lat="59.820201076692" lon="17.668468776737">
        <ele>42</ele>
        <time>2017-10-14T17:15:51Z</time>
      </trkpt>
      <trkpt lat="59.820259163259" lon="17.668438769535">
        <ele>42</ele>
        <time>2017-10-14T17:15:52Z</time>
      </trkpt>
      <trkpt lat="59.820315908722" lon="17.668412031274">
        <ele>42.4</ele>
        <time>2017-10-14T17:15:53Z</time>
      </trkpt>
      <trkpt lat="59.820370474891" lon="17.668383784271">
        <ele>42.4</ele>
        <time>2017-10-14T17:15:54Z</time>
      </trkpt>
      <trkpt lat="59.820422861766" lon="17.668355201992">
        <ele>42.6</ele>
        <time>2017-10-14T17:15:55Z</time>
      </trkpt>
      <trkpt lat="59.820481954161" lon="17.66832184203">
        <ele>42.8</ele>
        <time>2017-10-14T17:15:56Z</time>
      </trkpt>
      <trkpt lat="59.820534676312" lon="17.668288230611">
        <ele>42.8</ele>
        <time>2017-10-14T17:15:57Z</time>
      </trkpt>
      <trkpt lat="59.820592092327" lon="17.668256882305">
        <ele>42.8</ele>
        <time>2017-10-14T17:15:58Z</time>
      </trkpt>
      <trkpt lat="59.82065135236" lon="17.668231066053">
        <ele>42.8</ele>
        <time>2017-10-14T17:15:59Z</time>
      </trkpt>
      <trkpt lat="59.820706253805" lon="17.668203908697">
        <ele>42.8</ele>
        <time>2017-10-14T17:16:00Z</time>
      </trkpt>
      <trkpt lat="59.820770626797" lon="17.668174991142">
        <ele>42.8</ele>
        <time>2017-10-14T17:16:01Z</time>
      </trkpt>
      <trkpt lat="59.820832149943" lon="17.668143978112">
        <ele>42.6</ele>
        <time>2017-10-14T17:16:02Z</time>
      </trkpt>
      <trkpt lat="59.820892080528" lon="17.668114641462">
        <ele>42.4</ele>
        <time>2017-10-14T17:16:03Z</time>
      </trkpt>
      <trkpt lat="59.82095645352" lon="17.668084382803">
        <ele>42.2</ele>
        <time>2017-10-14T17:16:04Z</time>
      </trkpt>
      <trkpt lat="59.821015629734" lon="17.668055716705">
        <ele>42</ele>
        <time>2017-10-14T17:16:05Z</time>
      </trkpt>
      <trkpt lat="59.821080086545" lon="17.668025793322">
        <ele>41.6</ele>
        <time>2017-10-14T17:16:06Z</time>
      </trkpt>
      <trkpt lat="59.821142615519" lon="17.667994445016">
        <ele>41.4</ele>
        <time>2017-10-14T17:16:07Z</time>
      </trkpt>
      <trkpt lat="59.82120371957" lon="17.667968209669">
        <ele>41.2</ele>
        <time>2017-10-14T17:16:08Z</time>
      </trkpt>
      <trkpt lat="59.821263147241" lon="17.667943985978">
        <ele>41</ele>
        <time>2017-10-14T17:16:09Z</time>
      </trkpt>
      <trkpt lat="59.821321736722" lon="17.667919091735">
        <ele>41</ele>
        <time>2017-10-14T17:16:10Z</time>
      </trkpt>
      <trkpt lat="59.821385690619" lon="17.66789268875">
        <ele>41.2</ele>
        <time>2017-10-14T17:16:11Z</time>
      </trkpt>
      <trkpt lat="59.821447129946" lon="17.667870141439">
        <ele>41.2</ele>
        <time>2017-10-14T17:16:12Z</time>
      </trkpt>
      <trkpt lat="59.821503456314" lon="17.667847175033">
        <ele>41.2</ele>
        <time>2017-10-14T17:16:13Z</time>
      </trkpt>
      <trkpt lat="59.821569505686" lon="17.667822448428">
        <ele>41.2</ele>
        <time>2017-10-14T17:16:14Z</time>
      </trkpt>
      <trkpt lat="59.821625161502" lon="17.667803086239">
        <ele>41.2</ele>
        <time>2017-10-14T17:16:15Z</time>
      </trkpt>
      <trkpt lat="59.821690959417" lon="17.667781041842">
        <ele>41.2</ele>
        <time>2017-10-14T17:16:16Z</time>
      </trkpt>
      <trkpt lat="59.821753907486" lon="17.667766541155">
        <ele>41.2</ele>
        <time>2017-10-14T17:16:17Z</time>
      </trkpt>
      <trkpt lat="59.821814927718" lon="17.667751705192">
        <ele>41.2</ele>
        <time>2017-10-14T17:16:18Z</time>
      </trkpt>
      <trkpt lat="59.821874858303" lon="17.667739719075">
        <ele>41.2</ele>
        <time>2017-10-14T17:16:19Z</time>
      </trkpt>
      <trkpt lat="59.821930765576" lon="17.667728152053">
        <ele>41.2</ele>
        <time>2017-10-14T17:16:20Z</time>
      </trkpt>
      <trkpt lat="59.821991115256" lon="17.667712896995">
        <ele>41.4</ele>
        <time>2017-10-14T17:16:21Z</time>
      </trkpt>
      <trkpt lat="59.822051548755" lon="17.667699988869">
        <ele>41.4</ele>
        <time>2017-10-14T17:16:22Z</time>
      </trkpt>
      <trkpt lat="59.822115837928" lon="17.667688505666">
        <ele>41.4</ele>
        <time>2017-10-14T17:16:23Z</time>
      </trkpt>
      <trkpt lat="59.822177612531" lon="17.667684566173">
        <ele>41.4</ele>
        <time>2017-10-14T17:16:24Z</time>
      </trkpt>
      <trkpt lat="59.822237710754" lon="17.667680291404">
        <ele>41.6</ele>
        <time>2017-10-14T17:16:25Z</time>
      </trkpt>
      <trkpt lat="59.822303257212" lon="17.667679369395">
        <ele>41.8</ele>
        <time>2017-10-14T17:16:26Z</time>
      </trkpt>
      <trkpt lat="59.822362852521" lon="17.667675010807">
        <ele>41.8</ele>
        <time>2017-10-14T17:16:27Z</time>
      </trkpt>
      <trkpt lat="59.822421106726" lon="17.667669059658">
        <ele>41.8</ele>
        <time>2017-10-14T17:16:28Z</time>
      </trkpt>
      <trkpt lat="59.822488161926" lon="17.667660845396">
        <ele>42</ele>
        <time>2017-10-14T17:16:29Z</time>
      </trkpt>
      <trkpt lat="59.822545075027" lon="17.667654978066">
        <ele>41.8</ele>
        <time>2017-10-14T17:16:30Z</time>
      </trkpt>
      <trkpt lat="59.822609280381" lon="17.667649446012">
        <ele>41.8</ele>
        <time>2017-10-14T17:16:31Z</time>
      </trkpt>
      <trkpt lat="59.822667702224" lon="17.667644835967">
        <ele>42</ele>
        <time>2017-10-14T17:16:32Z</time>
      </trkpt>
      <trkpt lat="59.822726543162" lon="17.667637962809">
        <ele>42.2</ele>
        <time>2017-10-14T17:16:33Z</time>
      </trkpt>
      <trkpt lat="59.82278622229" lon="17.667629664728">
        <ele>42.2</ele>
        <time>2017-10-14T17:16:34Z</time>
      </trkpt>
      <trkpt lat="59.822843805943" lon="17.667617008059">
        <ele>42.4</ele>
        <time>2017-10-14T17:16:35Z</time>
      </trkpt>
      <trkpt lat="59.822905161451" lon="17.667597142956">
        <ele>42.6</ele>
        <time>2017-10-14T17:16:36Z</time>
      </trkpt>
      <trkpt lat="59.822964170027" lon="17.66757501474">
        <ele>42.6</ele>
        <time>2017-10-14T17:16:37Z</time>
      </trkpt>
      <trkpt lat="59.823024100612" lon="17.667555065818">
        <ele>42.6</ele>
        <time>2017-10-14T17:16:38Z</time>
      </trkpt>
      <trkpt lat="59.823083025369" lon="17.667535871267">
        <ele>42.6</ele>
        <time>2017-10-14T17:16:39Z</time>
      </trkpt>
      <trkpt lat="59.823141195755" lon="17.66751634144">
        <ele>42.8</ele>
        <time>2017-10-14T17:16:40Z</time>
      </trkpt>
      <trkpt lat="59.823209340602" lon="17.667493458853">
        <ele>42.8</ele>
        <time>2017-10-14T17:16:41Z</time>
      </trkpt>
      <trkpt lat="59.823272037214" lon="17.667471330637">
        <ele>42.6</ele>
        <time>2017-10-14T17:16:42Z</time>
      </trkpt>
      <trkpt lat="59.823334985283" lon="17.667446436394">
        <ele>42.6</ele>
        <time>2017-10-14T17:16:43Z</time>
      </trkpt>
      <trkpt lat="59.823397011343" lon="17.66741492045">
        <ele>42.4</ele>
        <time>2017-10-14T17:16:44Z</time>
      </trkpt>
      <trkpt lat="59.823453337711" lon="17.667381728126">
        <ele>42.2</ele>
        <time>2017-10-14T17:16:45Z</time>
      </trkpt>
      <trkpt lat="59.823520141454" lon="17.667337723151">
        <ele>42.2</ele>
        <time>2017-10-14T17:16:46Z</time>
      </trkpt>
      <trkpt lat="59.823584514446" lon="17.667288856674">
        <ele>42</ele>
        <time>2017-10-14T17:16:47Z</time>
      </trkpt>
      <trkpt lat="59.823648133067" lon="17.667240660749">
        <ele>41.8</ele>
        <time>2017-10-14T17:16:48Z</time>
      </trkpt>
      <trkpt lat="59.82370906948" lon="17.667190201711">
        <ele>41.6</ele>
        <time>2017-10-14T17:16:49Z</time>
      </trkpt>
      <trkpt lat="59.823765982581" lon="17.667144604175">
        <ele>41.6</ele>
        <time>2017-10-14T17:16:50Z</time>
      </trkpt>
      <trkpt lat="59.82382725427" lon="17.667096994983">
        <ele>41.6</ele>
        <time>2017-10-14T17:16:51Z</time>
      </trkpt>
      <trkpt lat="59.823889615606" lon="17.667051900361">
        <ele>41.4</ele>
        <time>2017-10-14T17:16:52Z</time>
      </trkpt>
      <trkpt lat="59.823950552019" lon="17.667006554282">
        <ele>41.6</ele>
        <time>2017-10-14T17:16:53Z</time>
      </trkpt>
      <trkpt lat="59.824008135672" lon="17.666961375841">
        <ele>41.6</ele>
        <time>2017-10-14T17:16:54Z</time>
      </trkpt>
      <trkpt lat="59.824061193099" lon="17.666918879608">
        <ele>41.6</ele>
        <time>2017-10-14T17:16:55Z</time>
      </trkpt>
      <trkpt lat="59.824120536951" lon="17.666869677855">
        <ele>41.6</ele>
        <time>2017-10-14T17:16:56Z</time>
      </trkpt>
      <trkpt lat="59.824175019301" lon="17.666830199106">
        <ele>41.6</ele>
        <time>2017-10-14T17:16:57Z</time>
      </trkpt>
      <trkpt lat="59.824230758936" lon="17.666798347886">
        <ele>41.8</ele>
        <time>2017-10-14T17:16:58Z</time>
      </trkpt>
      <trkpt lat="59.824296473032" lon="17.666766245209">
        <ele>41.8</ele>
        <time>2017-10-14T17:16:59Z</time>
      </trkpt>
      <trkpt lat="59.82435615216" lon="17.666742440613">
        <ele>42</ele>
        <time>2017-10-14T17:17:00Z</time>
      </trkpt>
      <trkpt lat="59.824426727758" lon="17.666725509175">
        <ele>41.8</ele>
        <time>2017-10-14T17:17:01Z</time>
      </trkpt>
      <trkpt lat="59.824494788786" lon="17.666712601049">
        <ele>41.8</ele>
        <time>2017-10-14T17:17:02Z</time>
      </trkpt>
      <trkpt lat="59.824557485398" lon="17.666695921068">
        <ele>41.6</ele>
        <time>2017-10-14T17:17:03Z</time>
      </trkpt>
      <trkpt lat="59.824624121503" lon="17.666683934951">
        <ele>41.2</ele>
        <time>2017-10-14T17:17:04Z</time>
      </trkpt>
      <trkpt lat="59.824687488667" lon="17.666664321305">
        <ele>41</ele>
        <time>2017-10-14T17:17:05Z</time>
      </trkpt>
      <trkpt lat="59.824753789496" lon="17.666627273307">
        <ele>40.8</ele>
        <time>2017-10-14T17:17:06Z</time>
      </trkpt>
      <trkpt lat="59.824814474452" lon="17.666587962196">
        <ele>40.6</ele>
        <time>2017-10-14T17:17:07Z</time>
      </trkpt>
      <trkpt lat="59.824874488856" lon="17.66655326113">
        <ele>40.4</ele>
        <time>2017-10-14T17:17:08Z</time>
      </trkpt>
      <trkpt lat="59.824929725577" lon="17.666511938363">
        <ele>40.4</ele>
        <time>2017-10-14T17:17:09Z</time>
      </trkpt>
      <trkpt lat="59.824980436072" lon="17.666463323343">
        <ele>40.4</ele>
        <time>2017-10-14T17:17:10Z</time>
      </trkpt>
      <trkpt lat="59.825036678621" lon="17.666399117989">
        <ele>40.6</ele>
        <time>2017-10-14T17:17:11Z</time>
      </trkpt>
      <trkpt lat="59.825087472935" lon="17.666331811332">
        <ele>40.8</ele>
        <time>2017-10-14T17:17:12Z</time>
      </trkpt>
      <trkpt lat="59.825137093783" lon="17.666268108892">
        <ele>40.8</ele>
        <time>2017-10-14T17:17:13Z</time>
      </trkpt>
      <trkpt lat="59.825195767083" lon="17.666200886054">
        <ele>41</ele>
        <time>2017-10-14T17:17:14Z</time>
      </trkpt>
      <trkpt lat="59.825251003804" lon="17.666158725097">
        <ele>41</ele>
        <time>2017-10-14T17:17:15Z</time>
      </trkpt>
      <trkpt lat="59.825313029864" lon="17.66610650586">
        <ele>40.8</ele>
        <time>2017-10-14T17:17:16Z</time>
      </trkpt>
      <trkpt lat="59.825372541354" lon="17.666055543908">
        <ele>40.8</ele>
        <time>2017-10-14T17:17:17Z</time>
      </trkpt>
      <trkpt lat="59.825433310129" lon="17.666010616924">
        <ele>40.6</ele>
        <time>2017-10-14T17:17:18Z</time>
      </trkpt>
      <trkpt lat="59.825491564334" lon="17.665955799298">
        <ele>40.4</ele>
        <time>2017-10-14T17:17:19Z</time>
      </trkpt>
      <trkpt lat="59.825541017544" lon="17.665899808206">
        <ele>40.4</ele>
        <time>2017-10-14T17:17:20Z</time>
      </trkpt>
      <trkpt lat="59.82560002612" lon="17.665840548173">
        <ele>40.4</ele>
        <time>2017-10-14T17:17:21Z</time>
      </trkpt>
      <trkpt lat="59.825656017212" lon="17.665781455778">
        <ele>40.2</ele>
        <time>2017-10-14T17:17:22Z</time>
      </trkpt>
      <trkpt lat="59.825712427399" lon="17.665723201573">
        <ele>40.2</ele>
        <time>2017-10-14T17:17:23Z</time>
      </trkpt>
      <trkpt lat="59.825766909749" lon="17.66566897068">
        <ele>40.2</ele>
        <time>2017-10-14T17:17:24Z</time>
      </trkpt>
      <trkpt lat="59.825818123158" lon="17.665612895769">
        <ele>40.2</ele>
        <time>2017-10-14T17:17:25Z</time>
      </trkpt>
      <trkpt lat="59.825874365707" lon="17.665551121166">
        <ele>40.2</ele>
        <time>2017-10-14T17:17:26Z</time>
      </trkpt>
      <trkpt lat="59.825925998211" lon="17.665497057911">
        <ele>40.2</ele>
        <time>2017-10-14T17:17:27Z</time>
      </trkpt>
      <trkpt lat="59.82597637343" lon="17.665448107615">
        <ele>40.2</ele>
        <time>2017-10-14T17:17:28Z</time>
      </trkpt>
      <trkpt lat="59.826033537988" lon="17.665388260849">
        <ele>40.2</ele>
        <time>2017-10-14T17:17:29Z</time>
      </trkpt>
      <trkpt lat="59.826082655922" lon="17.66533872382">
        <ele>40.2</ele>
        <time>2017-10-14T17:17:30Z</time>
      </trkpt>
      <trkpt lat="59.826137641186" lon="17.665282397452">
        <ele>40.2</ele>
        <time>2017-10-14T17:17:31Z</time>
      </trkpt>
      <trkpt lat="59.826188519319" lon="17.665229172387">
        <ele>40.4</ele>
        <time>2017-10-14T17:17:32Z</time>
      </trkpt>
      <trkpt lat="59.826240319461" lon="17.665179551539">
        <ele>40.4</ele>
        <time>2017-10-14T17:17:33Z</time>
      </trkpt>
      <trkpt lat="59.826292035784" lon="17.66512079442">
        <ele>40.6</ele>
        <time>2017-10-14T17:17:34Z</time>
      </trkpt>
      <trkpt lat="59.826339980252" lon="17.665066144432">
        <ele>40.6</ele>
        <time>2017-10-14T17:17:35Z</time>
      </trkpt>
      <trkpt lat="59.826393372955" lon="17.665008728417">
        <ele>40.8</ele>
        <time>2017-10-14T17:17:36Z</time>
      </trkpt>
      <trkpt lat="59.826444167269" lon="17.66495315642">
        <ele>40.6</ele>
        <time>2017-10-14T17:17:37Z</time>
      </trkpt>
      <trkpt lat="59.826495045402" lon="17.664898590251">
        <ele>40.6</ele>
        <time>2017-10-14T17:17:38Z</time>
      </trkpt>
      <trkpt lat="59.826543576603" lon="17.664843102073">
        <ele>40.6</ele>
        <time>2017-10-14T17:17:39Z</time>
      </trkpt>
      <trkpt lat="59.826592107804" lon="17.66478887118">
        <ele>40.6</ele>
        <time>2017-10-14T17:17:40Z</time>
      </trkpt>
      <trkpt lat="59.826647428344" lon="17.664732293355">
        <ele>40.6</ele>
        <time>2017-10-14T17:17:41Z</time>
      </trkpt>
      <trkpt lat="59.826698390296" lon="17.664679655023">
        <ele>40.6</ele>
        <time>2017-10-14T17:17:42Z</time>
      </trkpt>
      <trkpt lat="59.82674667004" lon="17.664624502121">
        <ele>40.6</ele>
        <time>2017-10-14T17:17:43Z</time>
      </trkpt>
      <trkpt lat="59.826800817114" lon="17.664568511029">
        <ele>40.6</ele>
        <time>2017-10-14T17:17:44Z</time>
      </trkpt>
      <trkpt lat="59.82684809103" lon="17.664515705059">
        <ele>40.8</ele>
        <time>2017-10-14T17:17:45Z</time>
      </trkpt>
      <trkpt lat="59.826906848149" lon="17.664458121406">
        <ele>40.8</ele>
        <time>2017-10-14T17:17:46Z</time>
      </trkpt>
      <trkpt lat="59.826962336327" lon="17.664409841662">
        <ele>40.8</ele>
        <time>2017-10-14T17:17:47Z</time>
      </trkpt>
      <trkpt lat="59.827017237772" lon="17.664352006552">
        <ele>40.8</ele>
        <time>2017-10-14T17:17:48Z</time>
      </trkpt>
      <trkpt lat="59.827072055398" lon="17.664291070139">
        <ele>40.6</ele>
        <time>2017-10-14T17:17:49Z</time>
      </trkpt>
      <trkpt lat="59.827122514436" lon="17.664237509798">
        <ele>40.6</ele>
        <time>2017-10-14T17:17:50Z</time>
      </trkpt>
      <trkpt lat="59.827179930451" lon="17.664181518706">
        <ele>40.6</ele>
        <time>2017-10-14T17:17:51Z</time>
      </trkpt>
      <trkpt lat="59.827237430285" lon="17.664131227306">
        <ele>40.4</ele>
        <time>2017-10-14T17:17:52Z</time>
      </trkpt>
      <trkpt lat="59.827295935947" lon="17.664077666965">
        <ele>40.4</ele>
        <time>2017-10-14T17:17:53Z</time>
      </trkpt>
      <trkpt lat="59.827353184324" lon="17.66402360371">
        <ele>40.6</ele>
        <time>2017-10-14T17:17:54Z</time>
      </trkpt>
      <trkpt lat="59.827407918131" lon="17.663972893215">
        <ele>40.6</ele>
        <time>2017-10-14T17:17:55Z</time>
      </trkpt>
      <trkpt lat="59.827470782381" lon="17.663922685634">
        <ele>40.4</ele>
        <time>2017-10-14T17:17:56Z</time>
      </trkpt>
      <trkpt lat="59.827529288043" lon="17.663880776134">
        <ele>40.4</ele>
        <time>2017-10-14T17:17:57Z</time>
      </trkpt>
      <trkpt lat="59.827587123153" lon="17.663844147231">
        <ele>40.2</ele>
        <time>2017-10-14T17:17:58Z</time>
      </trkpt>
      <trkpt lat="59.827654932724" lon="17.663799471704">
        <ele>40.2</ele>
        <time>2017-10-14T17:17:59Z</time>
      </trkpt>
      <trkpt lat="59.827712348739" lon="17.663757646023">
        <ele>40.2</ele>
        <time>2017-10-14T17:18:00Z</time>
      </trkpt>
      <trkpt lat="59.827776721731" lon="17.663712048487">
        <ele>40</ele>
        <time>2017-10-14T17:18:01Z</time>
      </trkpt>
      <trkpt lat="59.827840256533" lon="17.663677095964">
        <ele>40</ele>
        <time>2017-10-14T17:18:02Z</time>
      </trkpt>
      <trkpt lat="59.827899768023" lon="17.66364558002">
        <ele>40</ele>
        <time>2017-10-14T17:18:03Z</time>
      </trkpt>
      <trkpt lat="59.827962213178" lon="17.663609956945">
        <ele>40</ele>
        <time>2017-10-14T17:18:04Z</time>
      </trkpt>
      <trkpt lat="59.828019545374" lon="17.663567879807">
        <ele>40</ele>
        <time>2017-10-14T17:18:05Z</time>
      </trkpt>
      <trkpt lat="59.82808358309" lon="17.663524796841">
        <ele>40</ele>
        <time>2017-10-14T17:18:06Z</time>
      </trkpt>
      <trkpt lat="59.828143010761" lon="17.663482887341">
        <ele>40</ele>
        <time>2017-10-14T17:18:07Z</time>
      </trkpt>
      <trkpt lat="59.828202103156" lon="17.663441145479">
        <ele>40</ele>
        <time>2017-10-14T17:18:08Z</time>
      </trkpt>
      <trkpt lat="59.828258932438" lon="17.663402421101">
        <ele>40</ele>
        <time>2017-10-14T17:18:09Z</time>
      </trkpt>
      <trkpt lat="59.828314672073" lon="17.663363696723">
        <ele>39.8</ele>
        <time>2017-10-14T17:18:10Z</time>
      </trkpt>
      <trkpt lat="59.828376698133" lon="17.663313572961">
        <ele>39.8</ele>
        <time>2017-10-14T17:18:11Z</time>
      </trkpt>
      <trkpt lat="59.828431767216" lon="17.663266969597">
        <ele>39.8</ele>
        <time>2017-10-14T17:18:12Z</time>
      </trkpt>
      <trkpt lat="59.828483734996" lon="17.663229083409">
        <ele>39.8</ele>
        <time>2017-10-14T17:18:13Z</time>
      </trkpt>
      <trkpt lat="59.828541486287" lon="17.663183066778">
        <ele>39.8</ele>
        <time>2017-10-14T17:18:14Z</time>
      </trkpt>
      <trkpt lat="59.828588927841" lon="17.663142246925">
        <ele>40</ele>
        <time>2017-10-14T17:18:15Z</time>
      </trkpt>
      <trkpt lat="59.828646511494" lon="17.663098493407">
        <ele>40</ele>
        <time>2017-10-14T17:18:16Z</time>
      </trkpt>
      <trkpt lat="59.828700658568" lon="17.663053734061">
        <ele>40</ele>
        <time>2017-10-14T17:18:17Z</time>
      </trkpt>
      <trkpt lat="59.828753129262" lon="17.663009561448">
        <ele>40.2</ele>
        <time>2017-10-14T17:18:18Z</time>
      </trkpt>
      <trkpt lat="59.828805935232" lon="17.662968154862">
        <ele>40.4</ele>
        <time>2017-10-14T17:18:19Z</time>
      </trkpt>
      <trkpt lat="59.828855136985" lon="17.662931106864">
        <ele>40.4</ele>
        <time>2017-10-14T17:18:20Z</time>
      </trkpt>
      <trkpt lat="59.828909535516" lon="17.6628928854">
        <ele>40.6</ele>
        <time>2017-10-14T17:18:21Z</time>
      </trkpt>
      <trkpt lat="59.828963850228" lon="17.662857597601">
        <ele>40.8</ele>
        <time>2017-10-14T17:18:22Z</time>
      </trkpt>
      <trkpt lat="59.829020428053" lon="17.662826752209">
        <ele>40.8</ele>
        <time>2017-10-14T17:18:23Z</time>
      </trkpt>
      <trkpt lat="59.829075078041" lon="17.662797834654">
        <ele>41</ele>
        <time>2017-10-14T17:18:24Z</time>
      </trkpt>
      <trkpt lat="59.829125872355" lon="17.662772688954">
        <ele>41</ele>
        <time>2017-10-14T17:18:25Z</time>
      </trkpt>
      <trkpt lat="59.829184880931" lon="17.662750896014">
        <ele>41</ele>
        <time>2017-10-14T17:18:26Z</time>
      </trkpt>
      <trkpt lat="59.829237686901" lon="17.662729103074">
        <ele>41</ele>
        <time>2017-10-14T17:18:27Z</time>
      </trkpt>
      <trkpt lat="59.829289403224" lon="17.662709154152">
        <ele>41</ele>
        <time>2017-10-14T17:18:28Z</time>
      </trkpt>
      <trkpt lat="59.829335922769" lon="17.662687193574">
        <ele>41</ele>
        <time>2017-10-14T17:18:29Z</time>
      </trkpt>
      <trkpt lat="59.829401636865" lon="17.662658611295">
        <ele>41</ele>
        <time>2017-10-14T17:18:30Z</time>
      </trkpt>
      <trkpt lat="59.829461148355" lon="17.66263556107">
        <ele>41</ele>
        <time>2017-10-14T17:18:31Z</time>
      </trkpt>
      <trkpt lat="59.829518983465" lon="17.662618042899">
        <ele>41</ele>
        <time>2017-10-14T17:18:32Z</time>
      </trkpt>
      <trkpt lat="59.829573130539" lon="17.66259281338">
        <ele>41</ele>
        <time>2017-10-14T17:18:33Z</time>
      </trkpt>
      <trkpt lat="59.829629959821" lon="17.662562387083">
        <ele>41</ele>
        <time>2017-10-14T17:18:34Z</time>
      </trkpt>
      <trkpt lat="59.829685867094" lon="17.662539755953">
        <ele>41</ele>
        <time>2017-10-14T17:18:35Z</time>
      </trkpt>
      <trkpt lat="59.829746216774" lon="17.662509413475">
        <ele>40.8</ele>
        <time>2017-10-14T17:18:36Z</time>
      </trkpt>
      <trkpt lat="59.829803046056" lon="17.662479154816">
        <ele>40.8</ele>
        <time>2017-10-14T17:18:37Z</time>
      </trkpt>
      <trkpt lat="59.829860797347" lon="17.662455014944">
        <ele>40.8</ele>
        <time>2017-10-14T17:18:38Z</time>
      </trkpt>
      <trkpt lat="59.829914944421" lon="17.662431377986">
        <ele>40.8</ele>
        <time>2017-10-14T17:18:39Z</time>
      </trkpt>
      <trkpt lat="59.829968169486" lon="17.662402711888">
        <ele>40.8</ele>
        <time>2017-10-14T17:18:40Z</time>
      </trkpt>
      <trkpt lat="59.83002902208" lon="17.662371866496">
        <ele>40.6</ele>
        <time>2017-10-14T17:18:41Z</time>
      </trkpt>
      <trkpt lat="59.830085348448" lon="17.66234135638">
        <ele>40.6</ele>
        <time>2017-10-14T17:18:42Z</time>
      </trkpt>
      <trkpt lat="59.830137064771" lon="17.662307158228">
        <ele>40.6</ele>
        <time>2017-10-14T17:18:43Z</time>
      </trkpt>
      <trkpt lat="59.830192133854" lon="17.662273043895">
        <ele>40.6</ele>
        <time>2017-10-14T17:18:44Z</time>
      </trkpt>
      <trkpt lat="59.830241167969" lon="17.662245551263">
        <ele>40.6</ele>
        <time>2017-10-14T17:18:45Z</time>
      </trkpt>
      <trkpt lat="59.830299170717" lon="17.662209676731">
        <ele>40.6</ele>
        <time>2017-10-14T17:18:46Z</time>
      </trkpt>
      <trkpt lat="59.8303542398" lon="17.662173299285">
        <ele>40.8</ele>
        <time>2017-10-14T17:18:47Z</time>
      </trkpt>
      <trkpt lat="59.830410147073" lon="17.662132563251">
        <ele>40.8</ele>
        <time>2017-10-14T17:18:48Z</time>
      </trkpt>
      <trkpt lat="59.830464964699" lon="17.662096940176">
        <ele>40.8</ele>
        <time>2017-10-14T17:18:49Z</time>
      </trkpt>
      <trkpt lat="59.83051684866" lon="17.662064502223">
        <ele>40.8</ele>
        <time>2017-10-14T17:18:50Z</time>
      </trkpt>
      <trkpt lat="59.830572839752" lon="17.662023179456">
        <ele>41</ele>
        <time>2017-10-14T17:18:51Z</time>
      </trkpt>
      <trkpt lat="59.830628495568" lon="17.661984706535">
        <ele>40.8</ele>
        <time>2017-10-14T17:18:52Z</time>
      </trkpt>
      <trkpt lat="59.830683397013" lon="17.661945227786">
        <ele>41</ele>
        <time>2017-10-14T17:18:53Z</time>
      </trkpt>
      <trkpt lat="59.830735532431" lon="17.661902563915">
        <ele>41</ele>
        <time>2017-10-14T17:18:54Z</time>
      </trkpt>
      <trkpt lat="59.830783644537" lon="17.661859229492">
        <ele>40.8</ele>
        <time>2017-10-14T17:18:55Z</time>
      </trkpt>
      <trkpt lat="59.830837707792" lon="17.661809608644">
        <ele>41</ele>
        <time>2017-10-14T17:18:56Z</time>
      </trkpt>
      <trkpt lat="59.830887747735" lon="17.661766860954">
        <ele>41.2</ele>
        <time>2017-10-14T17:18:57Z</time>
      </trkpt>
      <trkpt lat="59.830937033307" lon="17.66172361035">
        <ele>41.4</ele>
        <time>2017-10-14T17:18:58Z</time>
      </trkpt>
      <trkpt lat="59.830990761286" lon="17.66166828981">
        <ele>41.4</ele>
        <time>2017-10-14T17:18:59Z</time>
      </trkpt>
      <trkpt lat="59.831036777917" lon="17.661614980926">
        <ele>41.6</ele>
        <time>2017-10-14T17:19:00Z</time>
      </trkpt>
      <trkpt lat="59.831085392937" lon="17.661544740604">
        <ele>41.6</ele>
        <time>2017-10-14T17:19:01Z</time>
      </trkpt>
      <trkpt lat="59.831130319921" lon="17.661470225513">
        <ele>41.6</ele>
        <time>2017-10-14T17:19:02Z</time>
      </trkpt>
      <trkpt lat="59.831173235249" lon="17.66140174539">
        <ele>41.6</ele>
        <time>2017-10-14T17:19:03Z</time>
      </trkpt>
      <trkpt lat="59.831216569672" lon="17.661325889195">
        <ele>41.6</ele>
        <time>2017-10-14T17:19:04Z</time>
      </trkpt>
      <trkpt lat="59.831258143896" lon="17.661248775715">
        <ele>41.6</ele>
        <time>2017-10-14T17:19:05Z</time>
      </trkpt>
      <trkpt lat="59.831303238518" lon="17.661159759937">
        <ele>41.6</ele>
        <time>2017-10-14T17:19:06Z</time>
      </trkpt>
      <trkpt lat="59.83134414219" lon="17.661076108575">
        <ele>41.8</ele>
        <time>2017-10-14T17:19:07Z</time>
      </trkpt>
      <trkpt lat="59.831383872396" lon="17.660989104453">
        <ele>41.8</ele>
        <time>2017-10-14T17:19:08Z</time>
      </trkpt>
      <trkpt lat="59.831423099688" lon="17.66090134596">
        <ele>41.6</ele>
        <time>2017-10-14T17:19:09Z</time>
      </trkpt>
      <trkpt lat="59.831465847378" lon="17.660827166145">
        <ele>41.6</ele>
        <time>2017-10-14T17:19:10Z</time>
      </trkpt>
      <trkpt lat="59.831519742995" lon="17.660758266927">
        <ele>41.6</ele>
        <time>2017-10-14T17:19:11Z</time>
      </trkpt>
      <trkpt lat="59.831569363843" lon="17.660704455129">
        <ele>41.6</ele>
        <time>2017-10-14T17:19:12Z</time>
      </trkpt>
      <trkpt lat="59.831617056854" lon="17.660655253376">
        <ele>41.6</ele>
        <time>2017-10-14T17:19:13Z</time>
      </trkpt>
      <trkpt lat="59.831673634679" lon="17.660610242573">
        <ele>41.6</ele>
        <time>2017-10-14T17:19:14Z</time>
      </trkpt>
      <trkpt lat="59.83172384226" lon="17.660576463516">
        <ele>41.6</ele>
        <time>2017-10-14T17:19:15Z</time>
      </trkpt>
      <trkpt lat="59.831779078981" lon="17.660531620351">
        <ele>41.6</ele>
        <time>2017-10-14T17:19:16Z</time>
      </trkpt>
      <trkpt lat="59.831834064245" lon="17.660483172969">
        <ele>41.8</ele>
        <time>2017-10-14T17:19:17Z</time>
      </trkpt>
      <trkpt lat="59.831884942378" lon="17.660428103886">
        <ele>41.8</ele>
        <time>2017-10-14T17:19:18Z</time>
      </trkpt>
      <trkpt lat="59.831935485235" lon="17.660372280432">
        <ele>41.8</ele>
        <time>2017-10-14T17:19:19Z</time>
      </trkpt>
      <trkpt lat="59.831981501866" lon="17.660311679295">
        <ele>41.8</ele>
        <time>2017-10-14T17:19:20Z</time>
      </trkpt>
      <trkpt lat="59.832030535981" lon="17.660243534448">
        <ele>41.8</ele>
        <time>2017-10-14T17:19:21Z</time>
      </trkpt>
      <trkpt lat="59.832078312811" lon="17.660166001873">
        <ele>42</ele>
        <time>2017-10-14T17:19:22Z</time>
      </trkpt>
      <trkpt lat="59.832126592555" lon="17.660087798746">
        <ele>41.8</ele>
        <time>2017-10-14T17:19:23Z</time>
      </trkpt>
      <trkpt lat="59.832170932806" lon="17.660013535112">
        <ele>41.6</ele>
        <time>2017-10-14T17:19:24Z</time>
      </trkpt>
      <trkpt lat="59.832217871446" lon="17.659938852383">
        <ele>41.6</ele>
        <time>2017-10-14T17:19:25Z</time>
      </trkpt>
      <trkpt lat="59.83227034214" lon="17.659859727247">
        <ele>41.6</ele>
        <time>2017-10-14T17:19:26Z</time>
      </trkpt>
      <trkpt lat="59.832318538065" lon="17.659785966527">
        <ele>41.4</ele>
        <time>2017-10-14T17:19:27Z</time>
      </trkpt>
      <trkpt lat="59.832364470877" lon="17.659717318766">
        <ele>41.2</ele>
        <time>2017-10-14T17:19:28Z</time>
      </trkpt>
      <trkpt lat="59.832413002078" lon="17.659630817558">
        <ele>41.2</ele>
        <time>2017-10-14T17:19:29Z</time>
      </trkpt>
      <trkpt lat="59.832455079216" lon="17.659561331607">
        <ele>41.2</ele>
        <time>2017-10-14T17:19:30Z</time>
      </trkpt>
      <trkpt lat="59.832505538254" lon="17.659482206471">
        <ele>41.2</ele>
        <time>2017-10-14T17:19:31Z</time>
      </trkpt>
      <trkpt lat="59.832553315084" lon="17.659406937009">
        <ele>41</ele>
        <time>2017-10-14T17:19:32Z</time>
      </trkpt>
      <trkpt lat="59.832599415534" lon="17.659335020307">
        <ele>41.2</ele>
        <time>2017-10-14T17:19:33Z</time>
      </trkpt>
      <trkpt lat="59.832646940907" lon="17.659258409741">
        <ele>41.2</ele>
        <time>2017-10-14T17:19:34Z</time>
      </trkpt>
      <trkpt lat="59.832696897031" lon="17.659193869111">
        <ele>41.2</ele>
        <time>2017-10-14T17:19:35Z</time>
      </trkpt>
      <trkpt lat="59.832755570331" lon="17.659130585766">
        <ele>41.4</ele>
        <time>2017-10-14T17:19:36Z</time>
      </trkpt>
      <trkpt lat="59.832816255287" lon="17.659089933551">
        <ele>41.4</ele>
        <time>2017-10-14T17:19:37Z</time>
      </trkpt>
      <trkpt lat="59.832879538632" lon="17.659060261625">
        <ele>41.4</ele>
        <time>2017-10-14T17:19:38Z</time>
      </trkpt>
      <trkpt lat="59.832942486701" lon="17.659042072902">
        <ele>41.6</ele>
        <time>2017-10-14T17:19:39Z</time>
      </trkpt>
      <trkpt lat="59.833004261304" lon="17.659030254423">
        <ele>41.4</ele>
        <time>2017-10-14T17:19:40Z</time>
      </trkpt>
      <trkpt lat="59.833075339816" lon="17.65902296217">
        <ele>41.4</ele>
        <time>2017-10-14T17:19:41Z</time>
      </trkpt>
      <trkpt lat="59.83313870698" lon="17.659020028505">
        <ele>41.4</ele>
        <time>2017-10-14T17:19:42Z</time>
      </trkpt>
      <trkpt lat="59.833199643393" lon="17.659016591926">
        <ele>41.2</ele>
        <time>2017-10-14T17:19:43Z</time>
      </trkpt>
      <trkpt lat="59.833266866231" lon="17.65901290389">
        <ele>41.2</ele>
        <time>2017-10-14T17:19:44Z</time>
      </trkpt>
      <trkpt lat="59.833324030789" lon="17.659002258877">
        <ele>41.2</ele>
        <time>2017-10-14T17:19:45Z</time>
      </trkpt>
      <trkpt lat="59.833392594731" lon="17.658978286643">
        <ele>41.2</ele>
        <time>2017-10-14T17:19:46Z</time>
      </trkpt>
      <trkpt lat="59.833457470637" lon="17.658948614717">
        <ele>41.4</ele>
        <time>2017-10-14T17:19:47Z</time>
      </trkpt>
      <trkpt lat="59.83352092162" lon="17.658916176764">
        <ele>41.4</ele>
        <time>2017-10-14T17:19:48Z</time>
      </trkpt>
      <trkpt lat="59.833583031499" lon="17.658886504838">
        <ele>41.4</ele>
        <time>2017-10-14T17:19:49Z</time>
      </trkpt>
      <trkpt lat="59.833639860781" lon="17.658860101853">
        <ele>41.4</ele>
        <time>2017-10-14T17:19:50Z</time>
      </trkpt>
      <trkpt lat="59.833702725031" lon="17.658830262289">
        <ele>41.6</ele>
        <time>2017-10-14T17:19:51Z</time>
      </trkpt>
      <trkpt lat="59.833762655616" lon="17.658798075793">
        <ele>41.6</ele>
        <time>2017-10-14T17:19:52Z</time>
      </trkpt>
      <trkpt lat="59.833825268409" lon="17.658766224573">
        <ele>41.6</ele>
        <time>2017-10-14T17:19:53Z</time>
      </trkpt>
      <trkpt lat="59.833884193166" lon="17.658739067217">
        <ele>41.6</ele>
        <time>2017-10-14T17:19:54Z</time>
      </trkpt>
      <trkpt lat="59.833940687172" lon="17.658710065843">
        <ele>41.6</ele>
        <time>2017-10-14T17:19:55Z</time>
      </trkpt>
      <trkpt lat="59.834003970517" lon="17.658681483564">
        <ele>41.8</ele>
        <time>2017-10-14T17:19:56Z</time>
      </trkpt>
      <trkpt lat="59.834058033772" lon="17.658652901285">
        <ele>41.6</ele>
        <time>2017-10-14T17:19:57Z</time>
      </trkpt>
      <trkpt lat="59.834113941045" lon="17.658619457504">
        <ele>41.6</ele>
        <time>2017-10-14T17:19:58Z</time>
      </trkpt>
      <trkpt lat="59.834178314037" lon="17.658582660963">
        <ele>41.4</ele>
        <time>2017-10-14T17:19:59Z</time>
      </trkpt>
      <trkpt lat="59.834231874378" lon="17.658555671245">
        <ele>41.4</ele>
        <time>2017-10-14T17:20:00Z</time>
      </trkpt>
      <trkpt lat="59.834294822447" lon="17.658526502233">
        <ele>41.4</ele>
        <time>2017-10-14T17:20:01Z</time>
      </trkpt>
      <trkpt lat="59.83435408248" lon="17.658500434524">
        <ele>41.4</ele>
        <time>2017-10-14T17:20:02Z</time>
      </trkpt>
      <trkpt lat="59.834409738296" lon="17.658475121186">
        <ele>41.6</ele>
        <time>2017-10-14T17:20:03Z</time>
      </trkpt>
      <trkpt lat="59.834470339433" lon="17.658449807848">
        <ele>41.8</ele>
        <time>2017-10-14T17:20:04Z</time>
      </trkpt>
      <trkpt lat="59.834526498163" lon="17.658430278021">
        <ele>41.6</ele>
        <time>2017-10-14T17:20:05Z</time>
      </trkpt>
      <trkpt lat="59.834588691861" lon="17.658405802873">
        <ele>41.8</ele>
        <time>2017-10-14T17:20:06Z</time>
      </trkpt>
      <trkpt lat="59.834647868075" lon="17.658385602494">
        <ele>41.8</ele>
        <time>2017-10-14T17:20:07Z</time>
      </trkpt>
      <trkpt lat="59.834706792832" lon="17.658363809554">
        <ele>41.8</ele>
        <time>2017-10-14T17:20:08Z</time>
      </trkpt>
      <trkpt lat="59.83476395739" lon="17.658339921139">
        <ele>41.8</ele>
        <time>2017-10-14T17:20:09Z</time>
      </trkpt>
      <trkpt lat="59.834821205767" lon="17.65831720619">
        <ele>41.8</ele>
        <time>2017-10-14T17:20:10Z</time>
      </trkpt>
      <trkpt lat="59.834887255139" lon="17.658296083802">
        <ele>41.8</ele>
        <time>2017-10-14T17:20:11Z</time>
      </trkpt>
      <trkpt lat="59.834947604819" lon="17.658276805432">
        <ele>42</ele>
        <time>2017-10-14T17:20:12Z</time>
      </trkpt>
      <trkpt lat="59.835003595911" lon="17.658258365252">
        <ele>41.8</ele>
        <time>2017-10-14T17:20:13Z</time>
      </trkpt>
      <trkpt lat="59.835066460161" lon="17.658234309199">
        <ele>41.8</ele>
        <time>2017-10-14T17:20:14Z</time>
      </trkpt>
      <trkpt lat="59.835121613063" lon="17.658220646702">
        <ele>42</ele>
        <time>2017-10-14T17:20:15Z</time>
      </trkpt>
      <trkpt lat="59.835183136209" lon="17.658206732748">
        <ele>41.8</ele>
        <time>2017-10-14T17:20:16Z</time>
      </trkpt>
      <trkpt lat="59.835241558052" lon="17.658189382215">
        <ele>42</ele>
        <time>2017-10-14T17:20:17Z</time>
      </trkpt>
      <trkpt lat="59.835300063714" lon="17.658167002542">
        <ele>41.8</ele>
        <time>2017-10-14T17:20:18Z</time>
      </trkpt>
      <trkpt lat="59.835356473901" lon="17.658151915122">
        <ele>41.8</ele>
        <time>2017-10-14T17:20:19Z</time>
      </trkpt>
      <trkpt lat="59.835410034242" lon="17.658134061675">
        <ele>41.8</ele>
        <time>2017-10-14T17:20:20Z</time>
      </trkpt>
      <trkpt lat="59.835468623723" lon="17.658115872952">
        <ele>41.8</ele>
        <time>2017-10-14T17:20:21Z</time>
      </trkpt>
      <trkpt lat="59.835526207376" lon="17.658097768048">
        <ele>41.8</ele>
        <time>2017-10-14T17:20:22Z</time>
      </trkpt>
      <trkpt lat="59.835586892332" lon="17.658077316212">
        <ele>42</ele>
        <time>2017-10-14T17:20:23Z</time>
      </trkpt>
      <trkpt lat="59.835644643623" lon="17.658055439453">
        <ele>42</ele>
        <time>2017-10-14T17:20:24Z</time>
      </trkpt>
      <trkpt lat="59.835699796525" lon="17.65803473616">
        <ele>42.2</ele>
        <time>2017-10-14T17:20:25Z</time>
      </trkpt>
      <trkpt lat="59.83575972711" lon="17.658011769754">
        <ele>42</ele>
        <time>2017-10-14T17:20:26Z</time>
      </trkpt>
      <trkpt lat="59.835817897496" lon="17.657984863855">
        <ele>42</ele>
        <time>2017-10-14T17:20:27Z</time>
      </trkpt>
      <trkpt lat="59.83587204457" lon="17.657957455042">
        <ele>42</ele>
        <time>2017-10-14T17:20:28Z</time>
      </trkpt>
      <trkpt lat="59.835939770322" lon="17.6579308006">
        <ele>42.2</ele>
        <time>2017-10-14T17:20:29Z</time>
      </trkpt>
      <trkpt lat="59.835996012871" lon="17.657911019316">
        <ele>42.2</ele>
        <time>2017-10-14T17:20:30Z</time>
      </trkpt>
      <trkpt lat="59.836060134406" lon="17.65788805291">
        <ele>42</ele>
        <time>2017-10-14T17:20:31Z</time>
      </trkpt>
      <trkpt lat="59.83612014881" lon="17.657857123699">
        <ele>42</ele>
        <time>2017-10-14T17:20:32Z</time>
      </trkpt>
      <trkpt lat="59.836177229549" lon="17.657828625239">
        <ele>42.2</ele>
        <time>2017-10-14T17:20:33Z</time>
      </trkpt>
      <trkpt lat="59.836237243953" lon="17.65780339572">
        <ele>42</ele>
        <time>2017-10-14T17:20:34Z</time>
      </trkpt>
      <trkpt lat="59.836293905597" lon="17.657778585296">
        <ele>42</ele>
        <time>2017-10-14T17:20:35Z</time>
      </trkpt>
      <trkpt lat="59.8363556802" lon="17.657755954166">
        <ele>42</ele>
        <time>2017-10-14T17:20:36Z</time>
      </trkpt>
      <trkpt lat="59.836411922749" lon="17.657729970276">
        <ele>42</ele>
        <time>2017-10-14T17:20:37Z</time>
      </trkpt>
      <trkpt lat="59.836468584393" lon="17.657706249499">
        <ele>42</ele>
        <time>2017-10-14T17:20:38Z</time>
      </trkpt>
      <trkpt lat="59.836523653476" lon="17.657681271437">
        <ele>42.2</ele>
        <time>2017-10-14T17:20:39Z</time>
      </trkpt>
      <trkpt lat="59.836576459446" lon="17.657648833484">
        <ele>42.4</ele>
        <time>2017-10-14T17:20:40Z</time>
      </trkpt>
      <trkpt lat="59.836635132746" lon="17.657611785486">
        <ele>42.4</ele>
        <time>2017-10-14T17:20:41Z</time>
      </trkpt>
      <trkpt lat="59.836687100526" lon="17.657577587334">
        <ele>42.4</ele>
        <time>2017-10-14T17:20:42Z</time>
      </trkpt>
      <trkpt lat="59.836739487401" lon="17.657550010883">
        <ele>42.4</ele>
        <time>2017-10-14T17:20:43Z</time>
      </trkpt>
      <trkpt lat="59.83679908271" lon="17.65751841112">
        <ele>42.4</ele>
        <time>2017-10-14T17:20:44Z</time>
      </trkpt>
      <trkpt lat="59.836848703558" lon="17.657493097782">
        <ele>42.6</ele>
        <time>2017-10-14T17:20:45Z</time>
      </trkpt>
      <trkpt lat="59.836906119573" lon="17.657465688969">
        <ele>42.6</ele>
        <time>2017-10-14T17:20:46Z</time>
      </trkpt>
      <trkpt lat="59.836964122321" lon="17.657435765586">
        <ele>42.6</ele>
        <time>2017-10-14T17:20:47Z</time>
      </trkpt>
      <trkpt lat="59.837019191404" lon="17.657408524411">
        <ele>42.6</ele>
        <time>2017-10-14T17:20:48Z</time>
      </trkpt>
      <trkpt lat="59.837077194152" lon="17.657384216901">
        <ele>42.6</ele>
        <time>2017-10-14T17:20:49Z</time>
      </trkpt>
      <trkpt lat="59.837127066457" lon="17.657364435617">
        <ele>42.6</ele>
        <time>2017-10-14T17:20:50Z</time>
      </trkpt>
      <trkpt lat="59.837189092517" lon="17.657338787003">
        <ele>42.6</ele>
        <time>2017-10-14T17:20:51Z</time>
      </trkpt>
      <trkpt lat="59.837246759989" lon="17.657313473665">
        <ele>42.6</ele>
        <time>2017-10-14T17:20:52Z</time>
      </trkpt>
      <trkpt lat="59.837305181832" lon="17.657287489775">
        <ele>42.6</ele>
        <time>2017-10-14T17:20:53Z</time>
      </trkpt>
      <trkpt lat="59.83735899363" lon="17.657271228889">
        <ele>42.8</ele>
        <time>2017-10-14T17:20:54Z</time>
      </trkpt>
      <trkpt lat="59.837411883419" lon="17.657263098446">
        <ele>42.6</ele>
        <time>2017-10-14T17:20:55Z</time>
      </trkpt>
      <trkpt lat="59.837471897823" lon="17.657242227515">
        <ele>42.6</ele>
        <time>2017-10-14T17:20:56Z</time>
      </trkpt>
      <trkpt lat="59.837526128716" lon="17.657231833959">
        <ele>42.8</ele>
        <time>2017-10-14T17:20:57Z</time>
      </trkpt>
      <trkpt lat="59.837581533075" lon="17.657223284421">
        <ele>42.8</ele>
        <time>2017-10-14T17:20:58Z</time>
      </trkpt>
      <trkpt lat="59.837644397325" lon="17.657227475371">
        <ele>42.6</ele>
        <time>2017-10-14T17:20:59Z</time>
      </trkpt>
      <trkpt lat="59.83769762239" lon="17.657212555589">
        <ele>42.6</ele>
        <time>2017-10-14T17:21:00Z</time>
      </trkpt>
      <trkpt lat="59.837757301518" lon="17.657201240024">
        <ele>42.8</ele>
        <time>2017-10-14T17:21:01Z</time>
      </trkpt>
      <trkpt lat="59.837818489388" lon="17.657184560043">
        <ele>42.6</ele>
        <time>2017-10-14T17:21:02Z</time>
      </trkpt>
      <trkpt lat="59.837871379177" lon="17.65717726779">
        <ele>43</ele>
        <time>2017-10-14T17:21:03Z</time>
      </trkpt>
      <trkpt lat="59.837930052477" lon="17.657164192026">
        <ele>43.2</ele>
        <time>2017-10-14T17:21:04Z</time>
      </trkpt>
      <trkpt lat="59.837988809596" lon="17.65714793114">
        <ele>43.2</ele>
        <time>2017-10-14T17:21:05Z</time>
      </trkpt>
      <trkpt lat="59.838052092941" lon="17.657132759901">
        <ele>43</ele>
        <time>2017-10-14T17:21:06Z</time>
      </trkpt>
      <trkpt lat="59.838112861716" lon="17.657124378001">
        <ele>43</ele>
        <time>2017-10-14T17:21:07Z</time>
      </trkpt>
      <trkpt lat="59.838177737622" lon="17.657116666653">
        <ele>42.8</ele>
        <time>2017-10-14T17:21:08Z</time>
      </trkpt>
      <trkpt lat="59.838238674035" lon="17.65711188897">
        <ele>42.6</ele>
        <time>2017-10-14T17:21:09Z</time>
      </trkpt>
      <trkpt lat="59.838300951552" lon="17.657096969188">
        <ele>42.6</ele>
        <time>2017-10-14T17:21:10Z</time>
      </trkpt>
      <trkpt lat="59.838373035892" lon="17.657083139053">
        <ele>42.4</ele>
        <time>2017-10-14T17:21:11Z</time>
      </trkpt>
      <trkpt lat="59.838437325065" lon="17.65707752318">
        <ele>42.2</ele>
        <time>2017-10-14T17:21:12Z</time>
      </trkpt>
      <trkpt lat="59.838501278962" lon="17.657067883995">
        <ele>42.2</ele>
        <time>2017-10-14T17:21:13Z</time>
      </trkpt>
      <trkpt lat="59.838572776569" lon="17.657060256466">
        <ele>42</ele>
        <time>2017-10-14T17:21:14Z</time>
      </trkpt>
      <trkpt lat="59.83863471881" lon="17.657056400792">
        <ele>42</ele>
        <time>2017-10-14T17:21:15Z</time>
      </trkpt>
      <trkpt lat="59.838706048779" lon="17.657049527634">
        <ele>42</ele>
        <time>2017-10-14T17:21:16Z</time>
      </trkpt>
      <trkpt lat="59.838774277445" lon="17.65703729006">
        <ele>42</ele>
        <time>2017-10-14T17:21:17Z</time>
      </trkpt>
      <trkpt lat="59.838840578274" lon="17.657026058314">
        <ele>42</ele>
        <time>2017-10-14T17:21:18Z</time>
      </trkpt>
      <trkpt lat="59.838905286542" lon="17.657019855708">
        <ele>42.2</ele>
        <time>2017-10-14T17:21:19Z</time>
      </trkpt>
      <trkpt lat="59.838967144964" lon="17.657014072197">
        <ele>42.2</ele>
        <time>2017-10-14T17:21:20Z</time>
      </trkpt>
      <trkpt lat="59.839033529612" lon="17.65700711522">
        <ele>42.2</ele>
        <time>2017-10-14T17:21:21Z</time>
      </trkpt>
      <trkpt lat="59.839098740794" lon="17.657000744976">
        <ele>42</ele>
        <time>2017-10-14T17:21:22Z</time>
      </trkpt>
      <trkpt lat="59.839163113786" lon="17.656995715836">
        <ele>42</ele>
        <time>2017-10-14T17:21:23Z</time>
      </trkpt>
      <trkpt lat="59.839217093222" lon="17.656989680868">
        <ele>42</ele>
        <time>2017-10-14T17:21:24Z</time>
      </trkpt>
      <trkpt lat="59.83927425778" lon="17.65698532228">
        <ele>42</ele>
        <time>2017-10-14T17:21:25Z</time>
      </trkpt>
      <trkpt lat="59.839339217505" lon="17.656981634244">
        <ele>42</ele>
        <time>2017-10-14T17:21:26Z</time>
      </trkpt>
      <trkpt lat="59.839386072326" lon="17.656983981176">
        <ele>42.2</ele>
        <time>2017-10-14T17:21:27Z</time>
      </trkpt>
      <trkpt lat="59.83944105759" lon="17.656974677267">
        <ele>42.2</ele>
        <time>2017-10-14T17:21:28Z</time>
      </trkpt>
      <trkpt lat="59.839503586564" lon="17.656968893756">
        <ele>42.4</ele>
        <time>2017-10-14T17:21:29Z</time>
      </trkpt>
      <trkpt lat="59.839546837168" lon="17.656962858788">
        <ele>42.4</ele>
        <time>2017-10-14T17:21:30Z</time>
      </trkpt>
      <trkpt lat="59.839617412766" lon="17.656952213775">
        <ele>42.4</ele>
        <time>2017-10-14T17:21:31Z</time>
      </trkpt>
      <trkpt lat="59.839679355007" lon="17.656947016997">
        <ele>42.4</ele>
        <time>2017-10-14T17:21:32Z</time>
      </trkpt>
      <trkpt lat="59.83973610047" lon="17.656941317305">
        <ele>42.6</ele>
        <time>2017-10-14T17:21:33Z</time>
      </trkpt>
      <trkpt lat="59.839791504829" lon="17.65693251631">
        <ele>42.4</ele>
        <time>2017-10-14T17:21:34Z</time>
      </trkpt>
      <trkpt lat="59.839850764862" lon="17.656924469686">
        <ele>42.6</ele>
        <time>2017-10-14T17:21:35Z</time>
      </trkpt>
      <trkpt lat="59.839918406795" lon="17.656917009795">
        <ele>42.4</ele>
        <time>2017-10-14T17:21:36Z</time>
      </trkpt>
      <trkpt lat="59.839979259389" lon="17.656928241541">
        <ele>42.4</ele>
        <time>2017-10-14T17:21:37Z</time>
      </trkpt>
      <trkpt lat="59.840039860526" lon="17.656922541849">
        <ele>42.6</ele>
        <time>2017-10-14T17:21:38Z</time>
      </trkpt>
      <trkpt lat="59.840094761971" lon="17.65691742889">
        <ele>42.4</ele>
        <time>2017-10-14T17:21:39Z</time>
      </trkpt>
      <trkpt lat="59.840147987036" lon="17.656915668691">
        <ele>42.4</ele>
        <time>2017-10-14T17:21:40Z</time>
      </trkpt>
      <trkpt lat="59.840210683648" lon="17.656905191316">
        <ele>42.4</ele>
        <time>2017-10-14T17:21:41Z</time>
      </trkpt>
      <trkpt lat="59.840268183482" lon="17.656895384493">
        <ele>42.4</ele>
        <time>2017-10-14T17:21:42Z</time>
      </trkpt>
      <trkpt lat="59.840325264221" lon="17.656890271534">
        <ele>42.2</ele>
        <time>2017-10-14T17:21:43Z</time>
      </trkpt>
      <trkpt lat="59.840390307765" lon="17.656884907118">
        <ele>42.4</ele>
        <time>2017-10-14T17:21:44Z</time>
      </trkpt>
      <trkpt lat="59.840443700468" lon="17.656878955969">
        <ele>42.4</ele>
        <time>2017-10-14T17:21:45Z</time>
      </trkpt>
      <trkpt lat="59.840509079288" lon="17.656870322612">
        <ele>42.4</ele>
        <time>2017-10-14T17:21:46Z</time>
      </trkpt>
      <trkpt lat="59.840574625746" lon="17.656862192169">
        <ele>42.4</ele>
        <time>2017-10-14T17:21:47Z</time>
      </trkpt>
      <trkpt lat="59.840635226883" lon="17.656865544929">
        <ele>42.4</ele>
        <time>2017-10-14T17:21:48Z</time>
      </trkpt>
      <trkpt lat="59.840697839676" lon="17.656861437798">
        <ele>42.6</ele>
        <time>2017-10-14T17:21:49Z</time>
      </trkpt>
      <trkpt lat="59.840754166044" lon="17.656853894088">
        <ele>42.4</ele>
        <time>2017-10-14T17:21:50Z</time>
      </trkpt>
      <trkpt lat="59.840818036122" lon="17.656847356206">
        <ele>42.6</ele>
        <time>2017-10-14T17:21:51Z</time>
      </trkpt>
      <trkpt lat="59.840878218164" lon="17.65684282998">
        <ele>42.6</ele>
        <time>2017-10-14T17:21:52Z</time>
      </trkpt>
      <trkpt lat="59.840943345527" lon="17.656832520243">
        <ele>42.6</ele>
        <time>2017-10-14T17:21:53Z</time>
      </trkpt>
      <trkpt lat="59.841006293596" lon="17.65681181695">
        <ele>42.6</ele>
        <time>2017-10-14T17:21:54Z</time>
      </trkpt>
      <trkpt lat="59.841061781774" lon="17.656774014581">
        <ele>42.6</ele>
        <time>2017-10-14T17:21:55Z</time>
      </trkpt>
      <trkpt lat="59.841124729843" lon="17.656726824484">
        <ele>42.6</ele>
        <time>2017-10-14T17:21:56Z</time>
      </trkpt>
      <trkpt lat="59.841180720935" lon="17.656678460921">
        <ele>42.6</ele>
        <time>2017-10-14T17:21:57Z</time>
      </trkpt>
      <trkpt lat="59.841228581584" lon="17.656619703802">
        <ele>42.6</ele>
        <time>2017-10-14T17:21:58Z</time>
      </trkpt>
      <trkpt lat="59.841284991771" lon="17.656545021073">
        <ele>42.6</ele>
        <time>2017-10-14T17:21:59Z</time>
      </trkpt>
      <trkpt lat="59.841330002574" lon="17.656488107972">
        <ele>42.4</ele>
        <time>2017-10-14T17:22:00Z</time>
      </trkpt>
      <trkpt lat="59.841381132164" lon="17.656420130763">
        <ele>42.4</ele>
        <time>2017-10-14T17:22:01Z</time>
      </trkpt>
      <trkpt lat="59.841430501555" lon="17.656353913753">
        <ele>42.6</ele>
        <time>2017-10-14T17:22:02Z</time>
      </trkpt>
      <trkpt lat="59.841478446023" lon="17.656288618752">
        <ele>42.8</ele>
        <time>2017-10-14T17:22:03Z</time>
      </trkpt>
      <trkpt lat="59.841526558129" lon="17.656214774213">
        <ele>43</ele>
        <time>2017-10-14T17:22:04Z</time>
      </trkpt>
      <trkpt lat="59.841565785421" lon="17.656133637421">
        <ele>43</ele>
        <time>2017-10-14T17:22:05Z</time>
      </trkpt>
      <trkpt lat="59.841611047681" lon="17.656046884756">
        <ele>43</ele>
        <time>2017-10-14T17:22:06Z</time>
      </trkpt>
      <trkpt lat="59.841654382104" lon="17.655962646661">
        <ele>43</ele>
        <time>2017-10-14T17:22:07Z</time>
      </trkpt>
      <trkpt lat="59.841694363767" lon="17.655891149054">
        <ele>43</ele>
        <time>2017-10-14T17:22:08Z</time>
      </trkpt>
      <trkpt lat="59.841732249955" lon="17.655825686415">
        <ele>43</ele>
        <time>2017-10-14T17:22:09Z</time>
      </trkpt>
      <trkpt lat="59.841771980161" lon="17.655756451921">
        <ele>43</ele>
        <time>2017-10-14T17:22:10Z</time>
      </trkpt>
      <trkpt lat="59.841821265733" lon="17.65566684941">
        <ele>43.2</ele>
        <time>2017-10-14T17:22:11Z</time>
      </trkpt>
      <trkpt lat="59.841866527993" lon="17.655594681251">
        <ele>43.2</ele>
        <time>2017-10-14T17:22:12Z</time>
      </trkpt>
      <trkpt lat="59.841910449149" lon="17.655527961327">
        <ele>43.2</ele>
        <time>2017-10-14T17:22:13Z</time>
      </trkpt>
      <trkpt lat="59.84195981854" lon="17.655455876987">
        <ele>43.2</ele>
        <time>2017-10-14T17:22:14Z</time>
      </trkpt>
      <trkpt lat="59.842001644221" lon="17.655397958058">
        <ele>43.4</ele>
        <time>2017-10-14T17:22:15Z</time>
      </trkpt>
      <trkpt lat="59.842054617829" lon="17.655325622261">
        <ele>43.4</ele>
        <time>2017-10-14T17:22:16Z</time>
      </trkpt>
      <trkpt lat="59.842104154858" lon="17.655260578717">
        <ele>43.4</ele>
        <time>2017-10-14T17:22:17Z</time>
      </trkpt>
      <trkpt lat="59.842150842041" lon="17.655195870449">
        <ele>43.4</ele>
        <time>2017-10-14T17:22:18Z</time>
      </trkpt>
      <trkpt lat="59.842198283595" lon="17.655131246">
        <ele>43.2</ele>
        <time>2017-10-14T17:22:19Z</time>
      </trkpt>
      <trkpt lat="59.842244048769" lon="17.655074584356">
        <ele>43.4</ele>
        <time>2017-10-14T17:22:20Z</time>
      </trkpt>
      <trkpt lat="59.842292663789" lon="17.655011301011">
        <ele>43.4</ele>
        <time>2017-10-14T17:22:21Z</time>
      </trkpt>
      <trkpt lat="59.842342200818" lon="17.654946676562">
        <ele>43.2</ele>
        <time>2017-10-14T17:22:22Z</time>
      </trkpt>
      <trkpt lat="59.842388888001" lon="17.654884399045">
        <ele>43.2</ele>
        <time>2017-10-14T17:22:23Z</time>
      </trkpt>
      <trkpt lat="59.842436078098" lon="17.654820361329">
        <ele>43.2</ele>
        <time>2017-10-14T17:22:24Z</time>
      </trkpt>
      <trkpt lat="59.842480418349" lon="17.654761855667">
        <ele>43.2</ele>
        <time>2017-10-14T17:22:25Z</time>
      </trkpt>
      <trkpt lat="59.842528278998" lon="17.654693040268">
        <ele>43.4</ele>
        <time>2017-10-14T17:22:26Z</time>
      </trkpt>
      <trkpt lat="59.842573122163" lon="17.654631936217">
        <ele>43.6</ele>
        <time>2017-10-14T17:22:27Z</time>
      </trkpt>
      <trkpt lat="59.842620647536" lon="17.65457049689">
        <ele>43.6</ele>
        <time>2017-10-14T17:22:28Z</time>
      </trkpt>
      <trkpt lat="59.842673285868" lon="17.654501513853">
        <ele>43.8</ele>
        <time>2017-10-14T17:22:29Z</time>
      </trkpt>
      <trkpt lat="59.842718799585" lon="17.654439990707">
        <ele>43.8</ele>
        <time>2017-10-14T17:22:30Z</time>
      </trkpt>
      <trkpt lat="59.842768755709" lon="17.654367235815">
        <ele>43.8</ele>
        <time>2017-10-14T17:22:31Z</time>
      </trkpt>
      <trkpt lat="59.842818376557" lon="17.654304455384">
        <ele>43.8</ele>
        <time>2017-10-14T17:22:32Z</time>
      </trkpt>
      <trkpt lat="59.842867243034" lon="17.654248296654">
        <ele>43.6</ele>
        <time>2017-10-14T17:22:33Z</time>
      </trkpt>
      <trkpt lat="59.842920300461" lon="17.654189707173">
        <ele>43.8</ele>
        <time>2017-10-14T17:22:34Z</time>
      </trkpt>
      <trkpt lat="59.842970508042" lon="17.654131369149">
        <ele>43.8</ele>
        <time>2017-10-14T17:22:35Z</time>
      </trkpt>
      <trkpt lat="59.843024655116" lon="17.6540667447">
        <ele>43.8</ele>
        <time>2017-10-14T17:22:36Z</time>
      </trkpt>
      <trkpt lat="59.843075281792" lon="17.65400304226">
        <ele>43.8</ele>
        <time>2017-10-14T17:22:37Z</time>
      </trkpt>
      <trkpt lat="59.843127752486" lon="17.653937831078">
        <ele>43.8</ele>
        <time>2017-10-14T17:22:38Z</time>
      </trkpt>
      <trkpt lat="59.843178127705" lon="17.653877732855">
        <ele>43.8</ele>
        <time>2017-10-14T17:22:39Z</time>
      </trkpt>
      <trkpt lat="59.843229089657" lon="17.653821071211">
        <ele>43.8</ele>
        <time>2017-10-14T17:22:40Z</time>
      </trkpt>
      <trkpt lat="59.843287595319" lon="17.653753764554">
        <ele>43.8</ele>
        <time>2017-10-14T17:22:41Z</time>
      </trkpt>
      <trkpt lat="59.843340149832" lon="17.653690648847">
        <ele>44</ele>
        <time>2017-10-14T17:22:42Z</time>
      </trkpt>
      <trkpt lat="59.843390189775" lon="17.653630634443">
        <ele>44</ele>
        <time>2017-10-14T17:22:43Z</time>
      </trkpt>
      <trkpt lat="59.843446516143" lon="17.65356466889">
        <ele>44</ele>
        <time>2017-10-14T17:22:44Z</time>
      </trkpt>
      <trkpt lat="59.843495047344" lon="17.653507839608">
        <ele>44</ele>
        <time>2017-10-14T17:22:45Z</time>
      </trkpt>
      <trkpt lat="59.843552128083" lon="17.653444975358">
        <ele>44</ele>
        <time>2017-10-14T17:22:46Z</time>
      </trkpt>
      <trkpt lat="59.843611136659" lon="17.653394600139">
        <ele>44</ele>
        <time>2017-10-14T17:22:47Z</time>
      </trkpt>
      <trkpt lat="59.843667463027" lon="17.653344392558">
        <ele>44</ele>
        <time>2017-10-14T17:22:48Z</time>
      </trkpt>
      <trkpt lat="59.84372169392" lon="17.653283204688">
        <ele>44</ele>
        <time>2017-10-14T17:22:49Z</time>
      </trkpt>
      <trkpt lat="59.843771733863" lon="17.653223944655">
        <ele>44.2</ele>
        <time>2017-10-14T17:22:50Z</time>
      </trkpt>
      <trkpt lat="59.843827138222" lon="17.65316401407">
        <ele>44</ele>
        <time>2017-10-14T17:22:51Z</time>
      </trkpt>
      <trkpt lat="59.843881620572" lon="17.653106011322">
        <ele>44.2</ele>
        <time>2017-10-14T17:22:52Z</time>
      </trkpt>
      <trkpt lat="59.843937863121" lon="17.65304834385">
        <ele>44</ele>
        <time>2017-10-14T17:22:53Z</time>
      </trkpt>
      <trkpt lat="59.843993435118" lon="17.652985228143">
        <ele>44</ele>
        <time>2017-10-14T17:22:54Z</time>
      </trkpt>
      <trkpt lat="59.844042385414" lon="17.652924459368">
        <ele>44</ele>
        <time>2017-10-14T17:22:55Z</time>
      </trkpt>
      <trkpt lat="59.844100639619" lon="17.652856482159">
        <ele>44</ele>
        <time>2017-10-14T17:22:56Z</time>
      </trkpt>
      <trkpt lat="59.844153529408" lon="17.652791606253">
        <ele>44</ele>
        <time>2017-10-14T17:22:57Z</time>
      </trkpt>
      <trkpt lat="59.844203820808" lon="17.652730586021">
        <ele>44</ele>
        <time>2017-10-14T17:22:58Z</time>
      </trkpt>
      <trkpt lat="59.844264170488" lon="17.652659926604">
        <ele>44.2</ele>
        <time>2017-10-14T17:22:59Z</time>
      </trkpt>
      <trkpt lat="59.844313120784" lon="17.65260158858">
        <ele>44.2</ele>
        <time>2017-10-14T17:23:00Z</time>
      </trkpt>
      <trkpt lat="59.844369111876" lon="17.65253201881">
        <ele>44.2</ele>
        <time>2017-10-14T17:23:01Z</time>
      </trkpt>
      <trkpt lat="59.844420241466" lon="17.652464209239">
        <ele>44.2</ele>
        <time>2017-10-14T17:23:02Z</time>
      </trkpt>
      <trkpt lat="59.844470532866" lon="17.652399249514">
        <ele>44.2</ele>
        <time>2017-10-14T17:23:03Z</time>
      </trkpt>
      <trkpt lat="59.844522584465" lon="17.652331272305">
        <ele>44.2</ele>
        <time>2017-10-14T17:23:04Z</time>
      </trkpt>
      <trkpt lat="59.844569858381" lon="17.652265055295">
        <ele>44.2</ele>
        <time>2017-10-14T17:23:05Z</time>
      </trkpt>
      <trkpt lat="59.844621826161" lon="17.652186349254">
        <ele>44.2</ele>
        <time>2017-10-14T17:23:06Z</time>
      </trkpt>
      <trkpt lat="59.844671698466" lon="17.652115773656">
        <ele>44.2</ele>
        <time>2017-10-14T17:23:07Z</time>
      </trkpt>
      <trkpt lat="59.844722576599" lon="17.652054753424">
        <ele>44.2</ele>
        <time>2017-10-14T17:23:08Z</time>
      </trkpt>
      <trkpt lat="59.844768928506" lon="17.651990464251">
        <ele>44.4</ele>
        <time>2017-10-14T17:23:09Z</time>
      </trkpt>
      <trkpt lat="59.844814945137" lon="17.65192852201">
        <ele>44.4</ele>
        <time>2017-10-14T17:23:10Z</time>
      </trkpt>
      <trkpt lat="59.844870433315" lon="17.651853252548">
        <ele>44.4</ele>
        <time>2017-10-14T17:23:11Z</time>
      </trkpt>
      <trkpt lat="59.844920137982" lon="17.651783347502">
        <ele>44.6</ele>
        <time>2017-10-14T17:23:12Z</time>
      </trkpt>
      <trkpt lat="59.844966741346" lon="17.651714699741">
        <ele>44.6</ele>
        <time>2017-10-14T17:23:13Z</time>
      </trkpt>
      <trkpt lat="59.845018960583" lon="17.651642447763">
        <ele>44.4</ele>
        <time>2017-10-14T17:23:14Z</time>
      </trkpt>
      <trkpt lat="59.84506363611" lon="17.651582852454">
        <ele>44.4</ele>
        <time>2017-10-14T17:23:15Z</time>
      </trkpt>
      <trkpt lat="59.845118872831" lon="17.651516048711">
        <ele>44.4</ele>
        <time>2017-10-14T17:23:16Z</time>
      </trkpt>
      <trkpt lat="59.845171846439" lon="17.651449664063">
        <ele>44.2</ele>
        <time>2017-10-14T17:23:17Z</time>
      </trkpt>
      <trkpt lat="59.845226077332" lon="17.651384871976">
        <ele>44.4</ele>
        <time>2017-10-14T17:23:18Z</time>
      </trkpt>
      <trkpt lat="59.845279218578" lon="17.651322594459">
        <ele>44.4</ele>
        <time>2017-10-14T17:23:19Z</time>
      </trkpt>
      <trkpt lat="59.845331940729" lon="17.651270961955">
        <ele>44.4</ele>
        <time>2017-10-14T17:23:20Z</time>
      </trkpt>
      <trkpt lat="59.845390781667" lon="17.651212288655">
        <ele>44.4</ele>
        <time>2017-10-14T17:23:21Z</time>
      </trkpt>
      <trkpt lat="59.845444509646" lon="17.651157973943">
        <ele>44.4</ele>
        <time>2017-10-14T17:23:22Z</time>
      </trkpt>
      <trkpt lat="59.845506703344" lon="17.651095864064">
        <ele>44.4</ele>
        <time>2017-10-14T17:23:23Z</time>
      </trkpt>
      <trkpt lat="59.84556571192" lon="17.651028054493">
        <ele>44.2</ele>
        <time>2017-10-14T17:23:24Z</time>
      </trkpt>
      <trkpt lat="59.845617763519" lon="17.650962005121">
        <ele>44.2</ele>
        <time>2017-10-14T17:23:25Z</time>
      </trkpt>
      <trkpt lat="59.84566964748" lon="17.650902325993">
        <ele>44</ele>
        <time>2017-10-14T17:23:26Z</time>
      </trkpt>
      <trkpt lat="59.845722034355" lon="17.650851196403">
        <ele>44</ele>
        <time>2017-10-14T17:23:27Z</time>
      </trkpt>
      <trkpt lat="59.845775762334" lon="17.650799060985">
        <ele>43.8</ele>
        <time>2017-10-14T17:23:28Z</time>
      </trkpt>
      <trkpt lat="59.845834267996" lon="17.650736867287">
        <ele>43.8</ele>
        <time>2017-10-14T17:23:29Z</time>
      </trkpt>
      <trkpt lat="59.845884307939" lon="17.650683558403">
        <ele>43.8</ele>
        <time>2017-10-14T17:23:30Z</time>
      </trkpt>
      <trkpt lat="59.845942813601" lon="17.650625304198">
        <ele>43.8</ele>
        <time>2017-10-14T17:23:31Z</time>
      </trkpt>
      <trkpt lat="59.845995619571" lon="17.650574677522">
        <ele>43.8</ele>
        <time>2017-10-14T17:23:32Z</time>
      </trkpt>
      <trkpt lat="59.846045910971" lon="17.650523380294">
        <ele>43.6</ele>
        <time>2017-10-14T17:23:33Z</time>
      </trkpt>
      <trkpt lat="59.846096705285" lon="17.650465629003">
        <ele>43.8</ele>
        <time>2017-10-14T17:23:34Z</time>
      </trkpt>
      <trkpt lat="59.846144482115" lon="17.650413745042">
        <ele>43.6</ele>
        <time>2017-10-14T17:23:35Z</time>
      </trkpt>
      <trkpt lat="59.846206340537" lon="17.650357586312">
        <ele>43.8</ele>
        <time>2017-10-14T17:23:36Z</time>
      </trkpt>
      <trkpt lat="59.846261996353" lon="17.650309390387">
        <ele>43.8</ele>
        <time>2017-10-14T17:23:37Z</time>
      </trkpt>
      <trkpt lat="59.84632092111" lon="17.650261278281">
        <ele>43.8</ele>
        <time>2017-10-14T17:23:38Z</time>
      </trkpt>
      <trkpt lat="59.846378420944" lon="17.650218027677">
        <ele>43.8</ele>
        <time>2017-10-14T17:23:39Z</time>
      </trkpt>
      <trkpt lat="59.846429466715" lon="17.650168406829">
        <ele>44</ele>
        <time>2017-10-14T17:23:40Z</time>
      </trkpt>
      <trkpt lat="59.846487050368" lon="17.650104704389">
        <ele>44</ele>
        <time>2017-10-14T17:23:41Z</time>
      </trkpt>
      <trkpt lat="59.846540945985" lon="17.650049970582">
        <ele>44</ele>
        <time>2017-10-14T17:23:42Z</time>
      </trkpt>
      <trkpt lat="59.846593835774" lon="17.64999481768">
        <ele>43.8</ele>
        <time>2017-10-14T17:23:43Z</time>
      </trkpt>
      <trkpt lat="59.846645803554" lon="17.649934132724">
        <ele>44</ele>
        <time>2017-10-14T17:23:44Z</time>
      </trkpt>
      <trkpt lat="59.846693496565" lon="17.649882416401">
        <ele>44</ele>
        <time>2017-10-14T17:23:45Z</time>
      </trkpt>
      <trkpt lat="59.846751834589" lon="17.649819719789">
        <ele>44</ele>
        <time>2017-10-14T17:23:46Z</time>
      </trkpt>
      <trkpt lat="59.846807155129" lon="17.649759453928">
        <ele>44</ele>
        <time>2017-10-14T17:23:47Z</time>
      </trkpt>
      <trkpt lat="59.846861972755" lon="17.649704384845">
        <ele>44</ele>
        <time>2017-10-14T17:23:48Z</time>
      </trkpt>
      <trkpt lat="59.846915281639" lon="17.649651075961">
        <ele>44</ele>
        <time>2017-10-14T17:23:49Z</time>
      </trkpt>
      <trkpt lat="59.846961549727" lon="17.649604388778">
        <ele>44</ele>
        <time>2017-10-14T17:23:50Z</time>
      </trkpt>
      <trkpt lat="59.847017457" lon="17.649550493161">
        <ele>44.2</ele>
        <time>2017-10-14T17:23:51Z</time>
      </trkpt>
      <trkpt lat="59.847068251314" lon="17.649491652223">
        <ele>44.2</ele>
        <time>2017-10-14T17:23:52Z</time>
      </trkpt>
      <trkpt lat="59.84709457048" lon="17.649459298089">
        <ele>44.2</ele>
        <time>2017-10-14T17:23:53Z</time>
      </trkpt>
      <trkpt lat="59.847172857426" lon="17.649374892356">
        <ele>44.2</ele>
        <time>2017-10-14T17:23:54Z</time>
      </trkpt>
      <trkpt lat="59.847223567921" lon="17.64932594206">
        <ele>44.2</ele>
        <time>2017-10-14T17:23:55Z</time>
      </trkpt>
      <trkpt lat="59.847277212081" lon="17.64926894514">
        <ele>44.4</ele>
        <time>2017-10-14T17:23:56Z</time>
      </trkpt>
      <trkpt lat="59.847325156549" lon="17.649218150826">
        <ele>44.4</ele>
        <time>2017-10-14T17:23:57Z</time>
      </trkpt>
      <trkpt lat="59.847375196492" lon="17.649164255209">
        <ele>44.4</ele>
        <time>2017-10-14T17:23:58Z</time>
      </trkpt>
      <trkpt lat="59.84742733191" lon="17.649110191954">
        <ele>44.4</ele>
        <time>2017-10-14T17:23:59Z</time>
      </trkpt>
      <trkpt lat="59.847475192559" lon="17.649060822563">
        <ele>44.4</ele>
        <time>2017-10-14T17:24:00Z</time>
      </trkpt>
      <trkpt lat="59.847530261642" lon="17.649004747652">
        <ele>44.4</ele>
        <time>2017-10-14T17:24:01Z</time>
      </trkpt>
      <trkpt lat="59.847581726508" lon="17.648956384089">
        <ele>44.4</ele>
        <time>2017-10-14T17:24:02Z</time>
      </trkpt>
      <trkpt lat="59.847628078415" lon="17.648923275584">
        <ele>44.4</ele>
        <time>2017-10-14T17:24:03Z</time>
      </trkpt>
      <trkpt lat="59.847680130014" lon="17.648881533722">
        <ele>44.4</ele>
        <time>2017-10-14T17:24:04Z</time>
      </trkpt>
      <trkpt lat="59.847727152473" lon="17.648843479896">
        <ele>44.6</ele>
        <time>2017-10-14T17:24:05Z</time>
      </trkpt>
      <trkpt lat="59.847789010895" lon="17.648800899844">
        <ele>44.6</ele>
        <time>2017-10-14T17:24:06Z</time>
      </trkpt>
      <trkpt lat="59.847844163797" lon="17.648765025312">
        <ele>44.4</ele>
        <time>2017-10-14T17:24:07Z</time>
      </trkpt>
      <trkpt lat="59.847893952283" lon="17.648729821332">
        <ele>44.4</ele>
        <time>2017-10-14T17:24:08Z</time>
      </trkpt>
      <trkpt lat="59.847944662778" lon="17.648697048103">
        <ele>44.6</ele>
        <time>2017-10-14T17:24:09Z</time>
      </trkpt>
      <trkpt lat="59.847995708549" lon="17.648667040901">
        <ele>44.6</ele>
        <time>2017-10-14T17:24:10Z</time>
      </trkpt>
      <trkpt lat="59.848054717125" lon="17.648628987075">
        <ele>44.6</ele>
        <time>2017-10-14T17:24:11Z</time>
      </trkpt>
      <trkpt lat="59.848109786208" lon="17.648597303493">
        <ele>44.8</ele>
        <time>2017-10-14T17:24:12Z</time>
      </trkpt>
      <trkpt lat="59.84816661549" lon="17.648567799205">
        <ele>44.8</ele>
        <time>2017-10-14T17:24:13Z</time>
      </trkpt>
      <trkpt lat="59.848222103668" lon="17.648534858338">
        <ele>44.8</ele>
        <time>2017-10-14T17:24:14Z</time>
      </trkpt>
      <trkpt lat="59.848270970145" lon="17.648500073453">
        <ele>44.6</ele>
        <time>2017-10-14T17:24:15Z</time>
      </trkpt>
      <trkpt lat="59.848326206866" lon="17.648459085962">
        <ele>44.4</ele>
        <time>2017-10-14T17:24:16Z</time>
      </trkpt>
      <trkpt lat="59.848377336456" lon="17.648413488426">
        <ele>44.4</ele>
        <time>2017-10-14T17:24:17Z</time>
      </trkpt>
      <trkpt lat="59.848425364743" lon="17.648364873406">
        <ele>44.4</ele>
        <time>2017-10-14T17:24:18Z</time>
      </trkpt>
      <trkpt lat="59.848473644487" lon="17.648317096576">
        <ele>44.6</ele>
        <time>2017-10-14T17:24:19Z</time>
      </trkpt>
      <trkpt lat="59.848518236195" lon="17.648277114913">
        <ele>44.6</ele>
        <time>2017-10-14T17:24:20Z</time>
      </trkpt>
      <trkpt lat="59.848575233115" lon="17.648230343911">
        <ele>44.6</ele>
        <time>2017-10-14T17:24:21Z</time>
      </trkpt>
      <trkpt lat="59.848626530343" lon="17.648185416927">
        <ele>44.6</ele>
        <time>2017-10-14T17:24:22Z</time>
      </trkpt>
      <trkpt lat="59.848677743752" lon="17.648134371156">
        <ele>44.6</ele>
        <time>2017-10-14T17:24:23Z</time>
      </trkpt>
      <trkpt lat="59.848720994356" lon="17.648081313729">
        <ele>44.8</ele>
        <time>2017-10-14T17:24:24Z</time>
      </trkpt>
      <trkpt lat="59.848760808381" lon="17.648028256302">
        <ele>45</ele>
        <time>2017-10-14T17:24:25Z</time>
      </trkpt>
      <trkpt lat="59.848810010134" lon="17.647965978785">
        <ele>45</ele>
        <time>2017-10-14T17:24:26Z</time>
      </trkpt>
      <trkpt lat="59.8488530931" lon="17.647912586082">
        <ele>45</ele>
        <time>2017-10-14T17:24:27Z</time>
      </trkpt>
      <trkpt lat="59.848898522998" lon="17.647859863931">
        <ele>45.2</ele>
        <time>2017-10-14T17:24:28Z</time>
      </trkpt>
      <trkpt lat="59.848942863249" lon="17.647800855355">
        <ele>45.4</ele>
        <time>2017-10-14T17:24:29Z</time>
      </trkpt>
      <trkpt lat="59.848976223211" lon="17.647753078525">
        <ele>45.4</ele>
        <time>2017-10-14T17:24:30Z</time>
      </trkpt>
      <trkpt lat="59.849032968674" lon="17.647678563434">
        <ele>45.4</ele>
        <time>2017-10-14T17:24:31Z</time>
      </trkpt>
      <trkpt lat="59.849077644201" lon="17.647622572342">
        <ele>45.4</ele>
        <time>2017-10-14T17:24:32Z</time>
      </trkpt>
      <trkpt lat="59.849119721339" lon="17.647564234318">
        <ele>45.4</ele>
        <time>2017-10-14T17:24:33Z</time>
      </trkpt>
      <trkpt lat="59.849165151237" lon="17.647504974285">
        <ele>45.2</ele>
        <time>2017-10-14T17:24:34Z</time>
      </trkpt>
      <trkpt lat="59.849205049081" lon="17.64745007284">
        <ele>45.2</ele>
        <time>2017-10-14T17:24:35Z</time>
      </trkpt>
      <trkpt lat="59.849249305513" lon="17.647376395939">
        <ele>45.4</ele>
        <time>2017-10-14T17:24:36Z</time>
      </trkpt>
      <trkpt lat="59.849292137022" lon="17.64731596244">
        <ele>45.6</ele>
        <time>2017-10-14T17:24:37Z</time>
      </trkpt>
      <trkpt lat="59.849340249128" lon="17.647266173954">
        <ele>45.6</ele>
        <time>2017-10-14T17:24:38Z</time>
      </trkpt>
      <trkpt lat="59.849386014302" lon="17.647222420436">
        <ele>45.8</ele>
        <time>2017-10-14T17:24:39Z</time>
      </trkpt>
      <trkpt lat="59.849432952942" lon="17.647167267534">
        <ele>45.8</ele>
        <time>2017-10-14T17:24:40Z</time>
      </trkpt>
      <trkpt lat="59.84948676474" lon="17.647109348605">
        <ele>45.8</ele>
        <time>2017-10-14T17:24:41Z</time>
      </trkpt>
      <trkpt lat="59.849539486891" lon="17.647061320318">
        <ele>45.8</ele>
        <time>2017-10-14T17:24:42Z</time>
      </trkpt>
      <trkpt lat="59.849589107739" lon="17.647012370022">
        <ele>45.8</ele>
        <time>2017-10-14T17:24:43Z</time>
      </trkpt>
      <trkpt lat="59.849640488786" lon="17.646957636215">
        <ele>45.8</ele>
        <time>2017-10-14T17:24:44Z</time>
      </trkpt>
      <trkpt lat="59.849686924512" lon="17.646907009539">
        <ele>45.6</ele>
        <time>2017-10-14T17:24:45Z</time>
      </trkpt>
      <trkpt lat="59.849742664147" lon="17.646852778646">
        <ele>45.6</ele>
        <time>2017-10-14T17:24:46Z</time>
      </trkpt>
      <trkpt lat="59.849797146497" lon="17.646799469762">
        <ele>45.6</ele>
        <time>2017-10-14T17:24:47Z</time>
      </trkpt>
      <trkpt lat="59.849849449553" lon="17.646739539177">
        <ele>45.8</ele>
        <time>2017-10-14T17:24:48Z</time>
      </trkpt>
      <trkpt lat="59.849900914419" lon="17.646681033515">
        <ele>45.8</ele>
        <time>2017-10-14T17:24:49Z</time>
      </trkpt>
      <trkpt lat="59.849949110344" lon="17.646635771255">
        <ele>45.8</ele>
        <time>2017-10-14T17:24:50Z</time>
      </trkpt>
      <trkpt lat="59.850004095608" lon="17.646584725484">
        <ele>45.6</ele>
        <time>2017-10-14T17:24:51Z</time>
      </trkpt>
      <trkpt lat="59.850054638465" lon="17.646532003333">
        <ele>45.6</ele>
        <time>2017-10-14T17:24:52Z</time>
      </trkpt>
      <trkpt lat="59.850104175494" lon="17.64648028701">
        <ele>45.8</ele>
        <time>2017-10-14T17:24:53Z</time>
      </trkpt>
      <trkpt lat="59.850156562369" lon="17.646431085257">
        <ele>45.6</ele>
        <time>2017-10-14T17:24:54Z</time>
      </trkpt>
      <trkpt lat="59.850201405534" lon="17.646382554056">
        <ele>45.8</ele>
        <time>2017-10-14T17:24:55Z</time>
      </trkpt>
      <trkpt lat="59.850250774925" lon="17.646328742258">
        <ele>45.8</ele>
        <time>2017-10-14T17:24:56Z</time>
      </trkpt>
      <trkpt lat="59.850299892859" lon="17.646283479998">
        <ele>45.8</ele>
        <time>2017-10-14T17:24:57Z</time>
      </trkpt>
      <trkpt lat="59.850350016621" lon="17.646248443656">
        <ele>45.8</ele>
        <time>2017-10-14T17:24:58Z</time>
      </trkpt>
      <trkpt lat="59.850406510627" lon="17.646205612147">
        <ele>46</ele>
        <time>2017-10-14T17:24:59Z</time>
      </trkpt>
      <trkpt lat="59.850454958009" lon="17.646159092602">
        <ele>46</ele>
        <time>2017-10-14T17:25:00Z</time>
      </trkpt>
      <trkpt lat="59.85050348921" lon="17.646114165618">
        <ele>45.8</ele>
        <time>2017-10-14T17:25:01Z</time>
      </trkpt>
      <trkpt lat="59.850547829461" lon="17.64607208848">
        <ele>46</ele>
        <time>2017-10-14T17:25:02Z</time>
      </trkpt>
      <trkpt lat="59.85059149916" lon="17.64603017898">
        <ele>46</ele>
        <time>2017-10-14T17:25:03Z</time>
      </trkpt>
      <trkpt lat="59.850637851067" lon="17.645991370783">
        <ele>46</ele>
        <time>2017-10-14T17:25:04Z</time>
      </trkpt>
      <trkpt lat="59.850676826902" lon="17.645953568414">
        <ele>46</ele>
        <time>2017-10-14T17:25:05Z</time>
      </trkpt>
      <trkpt lat="59.850721670067" lon="17.645902019729">
        <ele>46.2</ele>
        <time>2017-10-14T17:25:06Z</time>
      </trkpt>
      <trkpt lat="59.850758215151" lon="17.645843514067">
        <ele>46.4</ele>
        <time>2017-10-14T17:25:07Z</time>
      </trkpt>
      <trkpt lat="59.850796604253" lon="17.64578710388">
        <ele>46.4</ele>
        <time>2017-10-14T17:25:08Z</time>
      </trkpt>
      <trkpt lat="59.8508228396" lon="17.645727340933">
        <ele>46.4</ele>
        <time>2017-10-14T17:25:09Z</time>
      </trkpt>
      <trkpt lat="59.850839016667" lon="17.645660285733">
        <ele>46.4</ele>
        <time>2017-10-14T17:25:10Z</time>
      </trkpt>
      <trkpt lat="59.850848404395" lon="17.645578059294">
        <ele>46.4</ele>
        <time>2017-10-14T17:25:11Z</time>
      </trkpt>
      <trkpt lat="59.850850164594" lon="17.645502370737">
        <ele>46.4</ele>
        <time>2017-10-14T17:25:12Z</time>
      </trkpt>
      <trkpt lat="59.850844716359" lon="17.645437411012">
        <ele>46.4</ele>
        <time>2017-10-14T17:25:13Z</time>
      </trkpt>
      <trkpt lat="59.850844883997" lon="17.645377061332">
        <ele>46.2</ele>
        <time>2017-10-14T17:25:14Z</time>
      </trkpt>
      <trkpt lat="59.850849410223" lon="17.645324925914">
        <ele>46</ele>
        <time>2017-10-14T17:25:15Z</time>
      </trkpt>
      <trkpt lat="59.850857289209" lon="17.645285782441">
        <ele>46</ele>
        <time>2017-10-14T17:25:16Z</time>
      </trkpt>
      <trkpt lat="59.850859133227" lon="17.645271114116">
        <ele>46</ele>
        <time>2017-10-14T17:25:17Z</time>
      </trkpt>
      <trkpt lat="59.850856199562" lon="17.64527832255">
        <ele>46</ele>
        <time>2017-10-14T17:25:18Z</time>
      </trkpt>
      <trkpt lat="59.850860222874" lon="17.645275305066">
        <ele>46.2</ele>
        <time>2017-10-14T17:25:19Z</time>
      </trkpt>
      <trkpt lat="59.850870113516" lon="17.645249907909">
        <ele>46.2</ele>
        <time>2017-10-14T17:25:21Z</time>
      </trkpt>
      <trkpt lat="59.850867012213" lon="17.645246387511">
        <ele>46.4</ele>
        <time>2017-10-14T17:25:22Z</time>
      </trkpt>
      <trkpt lat="59.850866676937" lon="17.645253931221">
        <ele>46.4</ele>
        <time>2017-10-14T17:25:23Z</time>
      </trkpt>
      <trkpt lat="59.850804483239" lon="17.645308665028">
        <ele>46.4</ele>
        <time>2017-10-14T17:26:28Z</time>
      </trkpt>
      <trkpt lat="59.850801968669" lon="17.645310509046">
        <ele>46.4</ele>
        <time>2017-10-14T17:26:29Z</time>
      </trkpt>
      <trkpt lat="59.850794844054" lon="17.645297349463">
        <ele>46.4</ele>
        <time>2017-10-14T17:26:30Z</time>
      </trkpt>
      <trkpt lat="59.850799454099" lon="17.645338253135">
        <ele>46.4</ele>
        <time>2017-10-14T17:26:31Z</time>
      </trkpt>
      <trkpt lat="59.850790317828" lon="17.645301540413">
        <ele>46.4</ele>
        <time>2017-10-14T17:26:32Z</time>
      </trkpt>
      <trkpt lat="59.850825857084" lon="17.645262816035">
        <ele>46.4</ele>
        <time>2017-10-14T17:26:33Z</time>
      </trkpt>
      <trkpt lat="59.850799202642" lon="17.64530849739">
        <ele>46.6</ele>
        <time>2017-10-14T17:26:34Z</time>
      </trkpt>
      <trkpt lat="59.850811775492" lon="17.64529173359">
        <ele>46.6</ele>
        <time>2017-10-14T17:26:35Z</time>
      </trkpt>
      <trkpt lat="59.850786545973" lon="17.645297517101">
        <ele>46.6</ele>
        <time>2017-10-14T17:26:36Z</time>
      </trkpt>
      <trkpt lat="59.850776320055" lon="17.645293242332">
        <ele>46.6</ele>
        <time>2017-10-14T17:26:37Z</time>
      </trkpt>
      <trkpt lat="59.850738852962" lon="17.645327356665">
        <ele>46.4</ele>
        <time>2017-10-14T17:26:38Z</time>
      </trkpt>
      <trkpt lat="59.850798615909" lon="17.645267174623">
        <ele>46.4</ele>
        <time>2017-10-14T17:26:39Z</time>
      </trkpt>
      <trkpt lat="59.850768524888" lon="17.645276394713">
        <ele>46.4</ele>
        <time>2017-10-14T17:26:40Z</time>
      </trkpt>
      <trkpt lat="59.850799873194" lon="17.645267006985">
        <ele>46.4</ele>
        <time>2017-10-14T17:26:41Z</time>
      </trkpt>
      <trkpt lat="59.850781097738" lon="17.645337582583">
        <ele>46.4</ele>
        <time>2017-10-14T17:26:42Z</time>
      </trkpt>
      <trkpt lat="59.850797358624" lon="17.645287039726">
        <ele>46.4</ele>
        <time>2017-10-14T17:26:43Z</time>
      </trkpt>
      <trkpt lat="59.850802639221" lon="17.645755085022">
        <ele>45.8</ele>
        <time>2017-10-14T17:28:32Z</time>
      </trkpt>
      <trkpt lat="59.85082535417" lon="17.645776877962">
        <ele>45.8</ele>
        <time>2017-10-14T17:28:33Z</time>
      </trkpt>
      <trkpt lat="59.850851673336" lon="17.645780649817">
        <ele>45.8</ele>
        <time>2017-10-14T17:28:34Z</time>
      </trkpt>
      <trkpt lat="59.850881429081" lon="17.645769753347">
        <ele>46</ele>
        <time>2017-10-14T17:28:35Z</time>
      </trkpt>
      <trkpt lat="59.850914872862" lon="17.645744020914">
        <ele>46</ele>
        <time>2017-10-14T17:28:36Z</time>
      </trkpt>
      <trkpt lat="59.850954519249" lon="17.645706721459">
        <ele>46</ele>
        <time>2017-10-14T17:28:37Z</time>
      </trkpt>
      <trkpt lat="59.850997015482" lon="17.645669086728">
        <ele>46</ele>
        <time>2017-10-14T17:28:38Z</time>
      </trkpt>
      <trkpt lat="59.851039344077" lon="17.645630949083">
        <ele>46</ele>
        <time>2017-10-14T17:28:39Z</time>
      </trkpt>
      <trkpt lat="59.851080834482" lon="17.645592224705">
        <ele>45.8</ele>
        <time>2017-10-14T17:28:40Z</time>
      </trkpt>
      <trkpt lat="59.851126012923" lon="17.6455507343">
        <ele>45.8</ele>
        <time>2017-10-14T17:28:41Z</time>
      </trkpt>
      <trkpt lat="59.851164904939" lon="17.645519134537">
        <ele>45.4</ele>
        <time>2017-10-14T17:28:42Z</time>
      </trkpt>
      <trkpt lat="59.851206898258" lon="17.645483260005">
        <ele>45.4</ele>
        <time>2017-10-14T17:28:43Z</time>
      </trkpt>
      <trkpt lat="59.851247047559" lon="17.645447469292">
        <ele>45.4</ele>
        <time>2017-10-14T17:28:44Z</time>
      </trkpt>
      <trkpt lat="59.851284514652" lon="17.645414863701">
        <ele>45.4</ele>
        <time>2017-10-14T17:28:45Z</time>
      </trkpt>
      <trkpt lat="59.851323490487" lon="17.645375636409">
        <ele>45.4</ele>
        <time>2017-10-14T17:28:46Z</time>
      </trkpt>
      <trkpt lat="59.851356347535" lon="17.645348562872">
        <ele>45.4</ele>
        <time>2017-10-14T17:28:47Z</time>
      </trkpt>
      <trkpt lat="59.851390713325" lon="17.645342192628">
        <ele>45.2</ele>
        <time>2017-10-14T17:28:48Z</time>
      </trkpt>
      <trkpt lat="59.851421055803" lon="17.645361219541">
        <ele>45.2</ele>
        <time>2017-10-14T17:28:49Z</time>
      </trkpt>
      <trkpt lat="59.851445195675" lon="17.645397680806">
        <ele>45</ele>
        <time>2017-10-14T17:28:50Z</time>
      </trkpt>
      <trkpt lat="59.851466150425" lon="17.645447804568">
        <ele>45</ele>
        <time>2017-10-14T17:28:51Z</time>
      </trkpt>
      <trkpt lat="59.851487021356" lon="17.645502454556">
        <ele>45</ele>
        <time>2017-10-14T17:28:52Z</time>
      </trkpt>
      <trkpt lat="59.851510239219" lon="17.645564229159">
        <ele>44.8</ele>
        <time>2017-10-14T17:28:53Z</time>
      </trkpt>
      <trkpt lat="59.851532451254" lon="17.645627177228">
        <ele>44.8</ele>
        <time>2017-10-14T17:28:54Z</time>
      </trkpt>
      <trkpt lat="59.851553238366" lon="17.645687946003">
        <ele>44.8</ele>
        <time>2017-10-14T17:28:55Z</time>
      </trkpt>
      <trkpt lat="59.851575031306" lon="17.64575692904">
        <ele>44.8</ele>
        <time>2017-10-14T17:28:56Z</time>
      </trkpt>
      <trkpt lat="59.85159481259" lon="17.645814428874">
        <ele>44.6</ele>
        <time>2017-10-14T17:28:57Z</time>
      </trkpt>
      <trkpt lat="59.851619706833" lon="17.645877209305">
        <ele>44.4</ele>
        <time>2017-10-14T17:28:58Z</time>
      </trkpt>
      <trkpt lat="59.851650636044" lon="17.645921717194">
        <ele>44.6</ele>
        <time>2017-10-14T17:28:59Z</time>
      </trkpt>
      <trkpt lat="59.851685840024" lon="17.645935631148">
        <ele>44.4</ele>
        <time>2017-10-14T17:29:00Z</time>
      </trkpt>
      <trkpt lat="59.851728503895" lon="17.645914592579">
        <ele>44.4</ele>
        <time>2017-10-14T17:29:01Z</time>
      </trkpt>
      <trkpt lat="59.851772005956" lon="17.645872347803">
        <ele>44.4</ele>
        <time>2017-10-14T17:29:02Z</time>
      </trkpt>
      <trkpt lat="59.851815172741" lon="17.645825157706">
        <ele>44.2</ele>
        <time>2017-10-14T17:29:03Z</time>
      </trkpt>
      <trkpt lat="59.851859512992" lon="17.645770842994">
        <ele>44</ele>
        <time>2017-10-14T17:29:04Z</time>
      </trkpt>
      <trkpt lat="59.851904020881" lon="17.645713175522">
        <ele>43.8</ele>
        <time>2017-10-14T17:29:05Z</time>
      </trkpt>
      <trkpt lat="59.851954228462" lon="17.645651149462">
        <ele>43.4</ele>
        <time>2017-10-14T17:29:06Z</time>
      </trkpt>
      <trkpt lat="59.8520046875" lon="17.645595242189">
        <ele>43.4</ele>
        <time>2017-10-14T17:29:07Z</time>
      </trkpt>
      <trkpt lat="59.852053637796" lon="17.645539502554">
        <ele>43.2</ele>
        <time>2017-10-14T17:29:08Z</time>
      </trkpt>
      <trkpt lat="59.852101749902" lon="17.645481835082">
        <ele>43</ele>
        <time>2017-10-14T17:29:09Z</time>
      </trkpt>
      <trkpt lat="59.852147012162" lon="17.645427939465">
        <ele>42.8</ele>
        <time>2017-10-14T17:29:10Z</time>
      </trkpt>
      <trkpt lat="59.852200572503" lon="17.645355603668">
        <ele>42.6</ele>
        <time>2017-10-14T17:29:11Z</time>
      </trkpt>
      <trkpt lat="59.852247511143" lon="17.645287961735">
        <ele>42.6</ele>
        <time>2017-10-14T17:29:12Z</time>
      </trkpt>
      <trkpt lat="59.852301155303" lon="17.645219397793">
        <ele>42.6</ele>
        <time>2017-10-14T17:29:13Z</time>
      </trkpt>
      <trkpt lat="59.85235337454" lon="17.645158712837">
        <ele>42.8</ele>
        <time>2017-10-14T17:29:14Z</time>
      </trkpt>
      <trkpt lat="59.852399977904" lon="17.645104481944">
        <ele>43</ele>
        <time>2017-10-14T17:29:15Z</time>
      </trkpt>
      <trkpt lat="59.852453454426" lon="17.645039103124">
        <ele>43.2</ele>
        <time>2017-10-14T17:29:16Z</time>
      </trkpt>
      <trkpt lat="59.852506176577" lon="17.644977999073">
        <ele>43.2</ele>
        <time>2017-10-14T17:29:17Z</time>
      </trkpt>
      <trkpt lat="59.852558479633" lon="17.644916643565">
        <ele>43</ele>
        <time>2017-10-14T17:29:18Z</time>
      </trkpt>
      <trkpt lat="59.852607597567" lon="17.644856293885">
        <ele>42.8</ele>
        <time>2017-10-14T17:29:19Z</time>
      </trkpt>
      <trkpt lat="59.852652440732" lon="17.644801727716">
        <ele>42.6</ele>
        <time>2017-10-14T17:29:20Z</time>
      </trkpt>
      <trkpt lat="59.852703318865" lon="17.644739282561">
        <ele>42.4</ele>
        <time>2017-10-14T17:29:21Z</time>
      </trkpt>
      <trkpt lat="59.852752185342" lon="17.644680525442">
        <ele>42.2</ele>
        <time>2017-10-14T17:29:22Z</time>
      </trkpt>
      <trkpt lat="59.852802979656" lon="17.644621265409">
        <ele>42.4</ele>
        <time>2017-10-14T17:29:23Z</time>
      </trkpt>
      <trkpt lat="59.852850840305" lon="17.64456418467">
        <ele>42.4</ele>
        <time>2017-10-14T17:29:24Z</time>
      </trkpt>
      <trkpt lat="59.852893336538" lon="17.644512300709">
        <ele>42.4</ele>
        <time>2017-10-14T17:29:25Z</time>
      </trkpt>
      <trkpt lat="59.852941113368" lon="17.644453208314">
        <ele>42.6</ele>
        <time>2017-10-14T17:29:26Z</time>
      </trkpt>
      <trkpt lat="59.852979586289" lon="17.644410963538">
        <ele>42.6</ele>
        <time>2017-10-14T17:29:27Z</time>
      </trkpt>
      <trkpt lat="59.853025519101" lon="17.644379112318">
        <ele>42.6</ele>
        <time>2017-10-14T17:29:28Z</time>
      </trkpt>
      <trkpt lat="59.853072625379" lon="17.644361510328">
        <ele>42.6</ele>
        <time>2017-10-14T17:29:29Z</time>
      </trkpt>
      <trkpt lat="59.853114367241" lon="17.644345165623">
        <ele>42.8</ele>
        <time>2017-10-14T17:29:30Z</time>
      </trkpt>
      <trkpt lat="59.85316222789" lon="17.644321277208">
        <ele>42.8</ele>
        <time>2017-10-14T17:29:31Z</time>
      </trkpt>
      <trkpt lat="59.853206065227" lon="17.644294203671">
        <ele>43</ele>
        <time>2017-10-14T17:29:32Z</time>
      </trkpt>
      <trkpt lat="59.853245376338" lon="17.6442515398">
        <ele>43</ele>
        <time>2017-10-14T17:29:33Z</time>
      </trkpt>
      <trkpt lat="59.853280580318" lon="17.644189262283">
        <ele>43</ele>
        <time>2017-10-14T17:29:34Z</time>
      </trkpt>
      <trkpt lat="59.853312850633" lon="17.644112986993">
        <ele>43</ele>
        <time>2017-10-14T17:29:35Z</time>
      </trkpt>
      <trkpt lat="59.853348808984" lon="17.644026401966">
        <ele>43</ele>
        <time>2017-10-14T17:29:36Z</time>
      </trkpt>
      <trkpt lat="59.853387449543" lon="17.64394811502">
        <ele>43</ele>
        <time>2017-10-14T17:29:37Z</time>
      </trkpt>
      <trkpt lat="59.853430700147" lon="17.643875695404">
        <ele>42.8</ele>
        <time>2017-10-14T17:29:38Z</time>
      </trkpt>
      <trkpt lat="59.853476046226" lon="17.643812831154">
        <ele>42.6</ele>
        <time>2017-10-14T17:29:39Z</time>
      </trkpt>
      <trkpt lat="59.853522230495" lon="17.643752313836">
        <ele>42.6</ele>
        <time>2017-10-14T17:29:40Z</time>
      </trkpt>
      <trkpt lat="59.853572354257" lon="17.64368827612">
        <ele>42.4</ele>
        <time>2017-10-14T17:29:41Z</time>
      </trkpt>
      <trkpt lat="59.853614599033" lon="17.643637397987">
        <ele>42.2</ele>
        <time>2017-10-14T17:29:42Z</time>
      </trkpt>
      <trkpt lat="59.853663716967" lon="17.643579395239">
        <ele>42.2</ele>
        <time>2017-10-14T17:29:43Z</time>
      </trkpt>
      <trkpt lat="59.853707470485" lon="17.643524493794">
        <ele>42.2</ele>
        <time>2017-10-14T17:29:44Z</time>
      </trkpt>
      <trkpt lat="59.853749212347" lon="17.643471520186">
        <ele>42.2</ele>
        <time>2017-10-14T17:29:45Z</time>
      </trkpt>
      <trkpt lat="59.853795228978" lon="17.643409913221">
        <ele>42.2</ele>
        <time>2017-10-14T17:29:46Z</time>
      </trkpt>
      <trkpt lat="59.853837557573" lon="17.643351742835">
        <ele>42.2</ele>
        <time>2017-10-14T17:29:47Z</time>
      </trkpt>
      <trkpt lat="59.853879886168" lon="17.643304049824">
        <ele>42.2</ele>
        <time>2017-10-14T17:29:48Z</time>
      </trkpt>
      <trkpt lat="59.853921963306" lon="17.64326582836">
        <ele>42.4</ele>
        <time>2017-10-14T17:29:49Z</time>
      </trkpt>
      <trkpt lat="59.853964124263" lon="17.643246801447">
        <ele>42.4</ele>
        <time>2017-10-14T17:29:50Z</time>
      </trkpt>
      <trkpt lat="59.854015337672" lon="17.643250657121">
        <ele>42.6</ele>
        <time>2017-10-14T17:29:51Z</time>
      </trkpt>
      <trkpt lat="59.854062360131" lon="17.64326415198">
        <ele>42.8</ele>
        <time>2017-10-14T17:29:52Z</time>
      </trkpt>
      <trkpt lat="59.854110304599" lon="17.643276641011">
        <ele>43</ele>
        <time>2017-10-14T17:29:53Z</time>
      </trkpt>
      <trkpt lat="59.854157746153" lon="17.643270186948">
        <ele>43</ele>
        <time>2017-10-14T17:29:54Z</time>
      </trkpt>
      <trkpt lat="59.854201499671" lon="17.643237078443">
        <ele>43.2</ele>
        <time>2017-10-14T17:29:55Z</time>
      </trkpt>
      <trkpt lat="59.854251707252" lon="17.643178740419">
        <ele>43.4</ele>
        <time>2017-10-14T17:29:56Z</time>
      </trkpt>
      <trkpt lat="59.85429462258" lon="17.643126605001">
        <ele>43.4</ele>
        <time>2017-10-14T17:29:57Z</time>
      </trkpt>
      <trkpt lat="59.85434491398" lon="17.643067009692">
        <ele>43.2</ele>
        <time>2017-10-14T17:29:58Z</time>
      </trkpt>
      <trkpt lat="59.85439604357" lon="17.643006073279">
        <ele>43.2</ele>
        <time>2017-10-14T17:29:59Z</time>
      </trkpt>
      <trkpt lat="59.854437869251" lon="17.642952596757">
        <ele>43</ele>
        <time>2017-10-14T17:30:00Z</time>
      </trkpt>
      <trkpt lat="59.854486819547" lon="17.642887469394">
        <ele>42.8</ele>
        <time>2017-10-14T17:30:01Z</time>
      </trkpt>
      <trkpt lat="59.854526130658" lon="17.642836758899">
        <ele>42.6</ele>
        <time>2017-10-14T17:30:02Z</time>
      </trkpt>
      <trkpt lat="59.854569967995" lon="17.642777247409">
        <ele>42.6</ele>
        <time>2017-10-14T17:30:03Z</time>
      </trkpt>
      <trkpt lat="59.854614978798" lon="17.642715891901">
        <ele>42.6</ele>
        <time>2017-10-14T17:30:04Z</time>
      </trkpt>
      <trkpt lat="59.8546533679" lon="17.642661241913">
        <ele>42.8</ele>
        <time>2017-10-14T17:30:05Z</time>
      </trkpt>
      <trkpt lat="59.854691505545" lon="17.642613800359">
        <ele>43.2</ele>
        <time>2017-10-14T17:30:06Z</time>
      </trkpt>
      <trkpt lat="59.854724362593" lon="17.642570633574">
        <ele>43.4</ele>
        <time>2017-10-14T17:30:07Z</time>
      </trkpt>
      <trkpt lat="59.854755710899" lon="17.642519252527">
        <ele>44</ele>
        <time>2017-10-14T17:30:08Z</time>
      </trkpt>
      <trkpt lat="59.854787226843" lon="17.64247206243">
        <ele>44.4</ele>
        <time>2017-10-14T17:30:09Z</time>
      </trkpt>
      <trkpt lat="59.854820251529" lon="17.64242931474">
        <ele>44.8</ele>
        <time>2017-10-14T17:30:10Z</time>
      </trkpt>
      <trkpt lat="59.854860987563" lon="17.642378771883">
        <ele>45</ele>
        <time>2017-10-14T17:30:11Z</time>
      </trkpt>
      <trkpt lat="59.854892000593" lon="17.642335856555">
        <ele>45.2</ele>
        <time>2017-10-14T17:30:12Z</time>
      </trkpt>
      <trkpt lat="59.854925276736" lon="17.642285229879">
        <ele>45.4</ele>
        <time>2017-10-14T17:30:13Z</time>
      </trkpt>
      <trkpt lat="59.854951679721" lon="17.642235189936">
        <ele>45.2</ele>
        <time>2017-10-14T17:30:14Z</time>
      </trkpt>
      <trkpt lat="59.854969868444" lon="17.64218372507">
        <ele>45.2</ele>
        <time>2017-10-14T17:30:15Z</time>
      </trkpt>
      <trkpt lat="59.854982692751" lon="17.642122621019">
        <ele>45.2</ele>
        <time>2017-10-14T17:30:16Z</time>
      </trkpt>
      <trkpt lat="59.854991409927" lon="17.642072664895">
        <ele>45</ele>
        <time>2017-10-14T17:30:17Z</time>
      </trkpt>
      <trkpt lat="59.854997612533" lon="17.642040143123">
        <ele>45</ele>
        <time>2017-10-14T17:30:18Z</time>
      </trkpt>
      <trkpt lat="59.855002138759" lon="17.642021535305">
        <ele>45</ele>
        <time>2017-10-14T17:30:19Z</time>
      </trkpt>
      <trkpt lat="59.85500373132" lon="17.642020780934">
        <ele>45.2</ele>
        <time>2017-10-14T17:30:20Z</time>
      </trkpt>
      <trkpt lat="59.855004234234" lon="17.642019523649">
        <ele>45.2</ele>
        <time>2017-10-14T17:30:21Z</time>
      </trkpt>
      <trkpt lat="59.855188384577" lon="17.641803857362">
        <ele>46</ele>
        <time>2017-10-14T17:30:45Z</time>
      </trkpt>
      <trkpt lat="59.855224594385" lon="17.64173194066">
        <ele>45.8</ele>
        <time>2017-10-14T17:30:46Z</time>
      </trkpt>
      <trkpt lat="59.855267844989" lon="17.641662203252">
        <ele>45.8</ele>
        <time>2017-10-14T17:30:47Z</time>
      </trkpt>
      <trkpt lat="59.855312688154" lon="17.641595231871">
        <ele>45.8</ele>
        <time>2017-10-14T17:30:48Z</time>
      </trkpt>
      <trkpt lat="59.855358704785" lon="17.641529517775">
        <ele>45.8</ele>
        <time>2017-10-14T17:30:49Z</time>
      </trkpt>
      <trkpt lat="59.85540187157" lon="17.641473359045">
        <ele>45.6</ele>
        <time>2017-10-14T17:30:50Z</time>
      </trkpt>
      <trkpt lat="59.855458114119" lon="17.641403118723">
        <ele>45.4</ele>
        <time>2017-10-14T17:30:51Z</time>
      </trkpt>
      <trkpt lat="59.855509495166" lon="17.641335644428">
        <ele>45.2</ele>
        <time>2017-10-14T17:30:52Z</time>
      </trkpt>
      <trkpt lat="59.855567665552" lon="17.641232630877">
        <ele>44.8</ele>
        <time>2017-10-14T17:30:53Z</time>
      </trkpt>
      <trkpt lat="59.855606473749" lon="17.641158953976">
        <ele>44.6</ele>
        <time>2017-10-14T17:30:54Z</time>
      </trkpt>
      <trkpt lat="59.855648467068" lon="17.641080247935">
        <ele>44.6</ele>
        <time>2017-10-14T17:30:55Z</time>
      </trkpt>
      <trkpt lat="59.855698004097" lon="17.641010510527">
        <ele>44.4</ele>
        <time>2017-10-14T17:30:56Z</time>
      </trkpt>
      <trkpt lat="59.8557430149" lon="17.640939264377">
        <ele>44.2</ele>
        <time>2017-10-14T17:30:57Z</time>
      </trkpt>
      <trkpt lat="59.855790372635" lon="17.640866593304">
        <ele>44.2</ele>
        <time>2017-10-14T17:30:58Z</time>
      </trkpt>
      <trkpt lat="59.855841334587" lon="17.640797526448">
        <ele>44</ele>
        <time>2017-10-14T17:30:59Z</time>
      </trkpt>
      <trkpt lat="59.855889279055" lon="17.640737428225">
        <ele>43.8</ele>
        <time>2017-10-14T17:31:00Z</time>
      </trkpt>
      <trkpt lat="59.855940995378" lon="17.640670624482">
        <ele>43.8</ele>
        <time>2017-10-14T17:31:01Z</time>
      </trkpt>
      <trkpt lat="59.855987514923" lon="17.64060289873">
        <ele>44</ele>
        <time>2017-10-14T17:31:02Z</time>
      </trkpt>
      <trkpt lat="59.856033615373" lon="17.640542381412">
        <ele>44</ele>
        <time>2017-10-14T17:31:03Z</time>
      </trkpt>
      <trkpt lat="59.856081140746" lon="17.640484797759">
        <ele>44</ele>
        <time>2017-10-14T17:31:04Z</time>
      </trkpt>
      <trkpt lat="59.856113075785" lon="17.640409025383">
        <ele>44</ele>
        <time>2017-10-14T17:31:05Z</time>
      </trkpt>
      <trkpt lat="59.856165295022" lon="17.640336186672">
        <ele>44</ele>
        <time>2017-10-14T17:31:06Z</time>
      </trkpt>
      <trkpt lat="59.856210054368" lon="17.640270053481">
        <ele>44</ele>
        <time>2017-10-14T17:31:07Z</time>
      </trkpt>
      <trkpt lat="59.856253053515" lon="17.640209117068">
        <ele>44</ele>
        <time>2017-10-14T17:31:08Z</time>
      </trkpt>
      <trkpt lat="59.856301584716" lon="17.640159077125">
        <ele>44.4</ele>
        <time>2017-10-14T17:31:09Z</time>
      </trkpt>
      <trkpt lat="59.856349361546" lon="17.640114569236">
        <ele>44.4</ele>
        <time>2017-10-14T17:31:10Z</time>
      </trkpt>
      <trkpt lat="59.856409040674" lon="17.640059416334">
        <ele>44.8</ele>
        <time>2017-10-14T17:31:11Z</time>
      </trkpt>
      <trkpt lat="59.85646050554" lon="17.640014656988">
        <ele>45</ele>
        <time>2017-10-14T17:31:12Z</time>
      </trkpt>
      <trkpt lat="59.856503588506" lon="17.639966796339">
        <ele>45.4</ele>
        <time>2017-10-14T17:31:13Z</time>
      </trkpt>
      <trkpt lat="59.856547593481" lon="17.639914241826">
        <ele>45.6</ele>
        <time>2017-10-14T17:31:14Z</time>
      </trkpt>
      <trkpt lat="59.856590676447" lon="17.639863531331">
        <ele>45.6</ele>
        <time>2017-10-14T17:31:15Z</time>
      </trkpt>
      <trkpt lat="59.856629065549" lon="17.639807624058">
        <ele>46</ele>
        <time>2017-10-14T17:31:16Z</time>
      </trkpt>
      <trkpt lat="59.856671477963" lon="17.639748531663">
        <ele>45.8</ele>
        <time>2017-10-14T17:31:17Z</time>
      </trkpt>
      <trkpt lat="59.856707687771" lon="17.639687679069">
        <ele>46</ele>
        <time>2017-10-14T17:31:18Z</time>
      </trkpt>
      <trkpt lat="59.85674213738" lon="17.639633699633">
        <ele>46</ele>
        <time>2017-10-14T17:31:19Z</time>
      </trkpt>
      <trkpt lat="59.856784549794" lon="17.639573014677">
        <ele>45.8</ele>
        <time>2017-10-14T17:31:20Z</time>
      </trkpt>
      <trkpt lat="59.856823190353" lon="17.639520124888">
        <ele>45.8</ele>
        <time>2017-10-14T17:31:21Z</time>
      </trkpt>
      <trkpt lat="59.856857891419" lon="17.63947218042">
        <ele>46</ele>
        <time>2017-10-14T17:31:22Z</time>
      </trkpt>
      <trkpt lat="59.856893430675" lon="17.639432114938">
        <ele>46</ele>
        <time>2017-10-14T17:31:23Z</time>
      </trkpt>
      <trkpt lat="59.856931652139" lon="17.639394731664">
        <ele>46.2</ele>
        <time>2017-10-14T17:31:24Z</time>
      </trkpt>
      <trkpt lat="59.856970544155" lon="17.639358354218">
        <ele>46.2</ele>
        <time>2017-10-14T17:31:25Z</time>
      </trkpt>
      <trkpt lat="59.857004323212" lon="17.639307978999">
        <ele>46.2</ele>
        <time>2017-10-14T17:31:26Z</time>
      </trkpt>
      <trkpt lat="59.857041790305" lon="17.63925425102">
        <ele>46.4</ele>
        <time>2017-10-14T17:31:27Z</time>
      </trkpt>
      <trkpt lat="59.857079425036" lon="17.639198511385">
        <ele>46.2</ele>
        <time>2017-10-14T17:31:28Z</time>
      </trkpt>
      <trkpt lat="59.857118568509" lon="17.639139754266">
        <ele>46.4</ele>
        <time>2017-10-14T17:31:29Z</time>
      </trkpt>
      <trkpt lat="59.857154275403" lon="17.639083930812">
        <ele>46.4</ele>
        <time>2017-10-14T17:31:30Z</time>
      </trkpt>
      <trkpt lat="59.857189311745" lon="17.639019222544">
        <ele>46.4</ele>
        <time>2017-10-14T17:31:31Z</time>
      </trkpt>
      <trkpt lat="59.8572182293" lon="17.638955687742">
        <ele>46.4</ele>
        <time>2017-10-14T17:31:32Z</time>
      </trkpt>
      <trkpt lat="59.857246141027" lon="17.63889382932">
        <ele>46.4</ele>
        <time>2017-10-14T17:31:33Z</time>
      </trkpt>
      <trkpt lat="59.857275393858" lon="17.638829959242">
        <ele>46.4</ele>
        <time>2017-10-14T17:31:34Z</time>
      </trkpt>
      <trkpt lat="59.857309424372" lon="17.638766927354">
        <ele>46.4</ele>
        <time>2017-10-14T17:31:35Z</time>
      </trkpt>
      <trkpt lat="59.857343454886" lon="17.638699536878">
        <ele>46.4</ele>
        <time>2017-10-14T17:31:36Z</time>
      </trkpt>
      <trkpt lat="59.857378155952" lon="17.638633068411">
        <ele>46.4</ele>
        <time>2017-10-14T17:31:37Z</time>
      </trkpt>
      <trkpt lat="59.857411013" lon="17.638569198333">
        <ele>46.4</ele>
        <time>2017-10-14T17:31:38Z</time>
      </trkpt>
      <trkpt lat="59.857443283315" lon="17.638501640219">
        <ele>46.2</ele>
        <time>2017-10-14T17:31:39Z</time>
      </trkpt>
      <trkpt lat="59.857475721268" lon="17.638437602503">
        <ele>46</ele>
        <time>2017-10-14T17:31:40Z</time>
      </trkpt>
      <trkpt lat="59.857510589972" lon="17.638366943086">
        <ele>45.8</ele>
        <time>2017-10-14T17:31:41Z</time>
      </trkpt>
      <trkpt lat="59.85754177064" lon="17.638300139343">
        <ele>45.8</ele>
        <time>2017-10-14T17:31:42Z</time>
      </trkpt>
      <trkpt lat="59.857572616032" lon="17.638232078315">
        <ele>45.6</ele>
        <time>2017-10-14T17:31:43Z</time>
      </trkpt>
      <trkpt lat="59.857603712881" lon="17.638163514373">
        <ele>45.6</ele>
        <time>2017-10-14T17:31:44Z</time>
      </trkpt>
      <trkpt lat="59.857633217169" lon="17.638095620983">
        <ele>45.6</ele>
        <time>2017-10-14T17:31:45Z</time>
      </trkpt>
      <trkpt lat="59.857663727285" lon="17.638030828896">
        <ele>46</ele>
        <time>2017-10-14T17:31:46Z</time>
      </trkpt>
      <trkpt lat="59.8576959976" lon="17.637966372085">
        <ele>46.2</ele>
        <time>2017-10-14T17:31:47Z</time>
      </trkpt>
      <trkpt lat="59.857725669526" lon="17.637904848939">
        <ele>46.6</ele>
        <time>2017-10-14T17:31:48Z</time>
      </trkpt>
      <trkpt lat="59.857754084167" lon="17.637845085992">
        <ele>46.8</ele>
        <time>2017-10-14T17:31:49Z</time>
      </trkpt>
      <trkpt lat="59.857779062229" lon="17.637797141524">
        <ele>47</ele>
        <time>2017-10-14T17:31:50Z</time>
      </trkpt>
      <trkpt lat="59.857806806318" lon="17.637734444912">
        <ele>47.2</ele>
        <time>2017-10-14T17:31:51Z</time>
      </trkpt>
      <trkpt lat="59.857829521267" lon="17.637683315322">
        <ele>47.4</ele>
        <time>2017-10-14T17:31:52Z</time>
      </trkpt>
      <trkpt lat="59.857851146569" lon="17.637634448845">
        <ele>47.6</ele>
        <time>2017-10-14T17:31:53Z</time>
      </trkpt>
      <trkpt lat="59.85786782655" lon="17.637584744178">
        <ele>47.8</ele>
        <time>2017-10-14T17:31:54Z</time>
      </trkpt>
      <trkpt lat="59.857889870947" lon="17.637545935981">
        <ele>47.8</ele>
        <time>2017-10-14T17:31:55Z</time>
      </trkpt>
      <trkpt lat="59.857911915344" lon="17.637487597957">
        <ele>48</ele>
        <time>2017-10-14T17:31:56Z</time>
      </trkpt>
      <trkpt lat="59.857937480139" lon="17.637435713996">
        <ele>48.2</ele>
        <time>2017-10-14T17:31:57Z</time>
      </trkpt>
      <trkpt lat="59.857966816789" lon="17.637379722904">
        <ele>48.2</ele>
        <time>2017-10-14T17:31:58Z</time>
      </trkpt>
      <trkpt lat="59.85800026057" lon="17.637326246382">
        <ele>48.4</ele>
        <time>2017-10-14T17:31:59Z</time>
      </trkpt>
      <trkpt lat="59.858034039627" lon="17.637278972466">
        <ele>48.4</ele>
        <time>2017-10-14T17:32:00Z</time>
      </trkpt>
      <trkpt lat="59.858064298286" lon="17.637212671637">
        <ele>48.4</ele>
        <time>2017-10-14T17:32:01Z</time>
      </trkpt>
      <trkpt lat="59.858095646592" lon="17.637148466283">
        <ele>48.2</ele>
        <time>2017-10-14T17:32:02Z</time>
      </trkpt>
      <trkpt lat="59.858127330174" lon="17.637085518214">
        <ele>48.2</ele>
        <time>2017-10-14T17:32:03Z</time>
      </trkpt>
      <trkpt lat="59.858160019584" lon="17.637020893765">
        <ele>48</ele>
        <time>2017-10-14T17:32:04Z</time>
      </trkpt>
      <trkpt lat="59.858196229392" lon="17.636954676755">
        <ele>47.6</ele>
        <time>2017-10-14T17:32:05Z</time>
      </trkpt>
      <trkpt lat="59.858229337897" lon="17.636882424777">
        <ele>47.6</ele>
        <time>2017-10-14T17:32:06Z</time>
      </trkpt>
      <trkpt lat="59.85826261404" lon="17.636808664057">
        <ele>47.4</ele>
        <time>2017-10-14T17:32:07Z</time>
      </trkpt>
      <trkpt lat="59.858295890183" lon="17.63673381369">
        <ele>47.2</ele>
        <time>2017-10-14T17:32:08Z</time>
      </trkpt>
      <trkpt lat="59.858329753059" lon="17.63666340573">
        <ele>47.2</ele>
        <time>2017-10-14T17:32:09Z</time>
      </trkpt>
      <trkpt lat="59.858365879048" lon="17.636594171236">
        <ele>47</ele>
        <time>2017-10-14T17:32:10Z</time>
      </trkpt>
      <trkpt lat="59.858397897906" lon="17.636511106607">
        <ele>47</ele>
        <time>2017-10-14T17:32:11Z</time>
      </trkpt>
      <trkpt lat="59.858432431334" lon="17.636434244584">
        <ele>47</ele>
        <time>2017-10-14T17:32:12Z</time>
      </trkpt>
      <trkpt lat="59.858466378029" lon="17.6363641719">
        <ele>47</ele>
        <time>2017-10-14T17:32:13Z</time>
      </trkpt>
      <trkpt lat="59.858498480706" lon="17.636297451976">
        <ele>47.2</ele>
        <time>2017-10-14T17:32:14Z</time>
      </trkpt>
      <trkpt lat="59.858529661374" lon="17.636233330441">
        <ele>47.2</ele>
        <time>2017-10-14T17:32:15Z</time>
      </trkpt>
      <trkpt lat="59.858551370495" lon="17.636179099548">
        <ele>47.6</ele>
        <time>2017-10-14T17:32:16Z</time>
      </trkpt>
      <trkpt lat="59.858572911978" lon="17.63611606766">
        <ele>47.8</ele>
        <time>2017-10-14T17:32:17Z</time>
      </trkpt>
      <trkpt lat="59.858588837588" lon="17.636055969437">
        <ele>48.2</ele>
        <time>2017-10-14T17:32:18Z</time>
      </trkpt>
      <trkpt lat="59.858600991343" lon="17.635995619757">
        <ele>48.2</ele>
        <time>2017-10-14T17:32:19Z</time>
      </trkpt>
      <trkpt lat="59.858597219488" lon="17.635938958113">
        <ele>48.4</ele>
        <time>2017-10-14T17:32:20Z</time>
      </trkpt>
      <trkpt lat="59.858577605842" lon="17.635891684197">
        <ele>48.8</ele>
        <time>2017-10-14T17:32:21Z</time>
      </trkpt>
      <trkpt lat="59.858556315816" lon="17.635852121629">
        <ele>49</ele>
        <time>2017-10-14T17:32:22Z</time>
      </trkpt>
      <trkpt lat="59.858528152632" lon="17.635815828002">
        <ele>49.2</ele>
        <time>2017-10-14T17:32:23Z</time>
      </trkpt>
      <trkpt lat="59.858496636688" lon="17.635780624022">
        <ele>49.6</ele>
        <time>2017-10-14T17:32:24Z</time>
      </trkpt>
      <trkpt lat="59.858467467676" lon="17.635750113906">
        <ele>50</ele>
        <time>2017-10-14T17:32:25Z</time>
      </trkpt>
      <trkpt lat="59.858434526809" lon="17.635715077564">
        <ele>50.2</ele>
        <time>2017-10-14T17:32:26Z</time>
      </trkpt>
      <trkpt lat="59.858407872367" lon="17.635676269367">
        <ele>50.4</ele>
        <time>2017-10-14T17:32:27Z</time>
      </trkpt>
      <trkpt lat="59.858387085255" lon="17.635635365695">
        <ele>50.4</ele>
        <time>2017-10-14T17:32:28Z</time>
      </trkpt>
      <trkpt lat="59.85837074055" lon="17.635596892774">
        <ele>50.4</ele>
        <time>2017-10-14T17:32:29Z</time>
      </trkpt>
      <trkpt lat="59.858355234035" lon="17.635558419853">
        <ele>50.2</ele>
        <time>2017-10-14T17:32:30Z</time>
      </trkpt>
      <trkpt lat="59.858337799683" lon="17.635515755982">
        <ele>50.2</ele>
        <time>2017-10-14T17:32:31Z</time>
      </trkpt>
      <trkpt lat="59.85831458182" lon="17.635470912817">
        <ele>50.2</ele>
        <time>2017-10-14T17:32:32Z</time>
      </trkpt>
      <trkpt lat="59.858291280138" lon="17.635426321109">
        <ele>50.4</ele>
        <time>2017-10-14T17:32:33Z</time>
      </trkpt>
      <trkpt lat="59.858268146094" lon="17.635376951718">
        <ele>50.4</ele>
        <time>2017-10-14T17:32:34Z</time>
      </trkpt>
      <trkpt lat="59.85823411558" lon="17.635345268136">
        <ele>50.6</ele>
        <time>2017-10-14T17:32:35Z</time>
      </trkpt>
      <trkpt lat="59.858201845265" lon="17.635303693912">
        <ele>50.4</ele>
        <time>2017-10-14T17:32:36Z</time>
      </trkpt>
      <trkpt lat="59.858172676253" lon="17.635269076665">
        <ele>50.6</ele>
        <time>2017-10-14T17:32:37Z</time>
      </trkpt>
      <trkpt lat="59.85814610563" lon="17.635224065862">
        <ele>50.8</ele>
        <time>2017-10-14T17:32:38Z</time>
      </trkpt>
      <trkpt lat="59.858121127568" lon="17.635180144706">
        <ele>51</ele>
        <time>2017-10-14T17:32:39Z</time>
      </trkpt>
      <trkpt lat="59.858102352112" lon="17.635140330681">
        <ele>51.2</ele>
        <time>2017-10-14T17:32:40Z</time>
      </trkpt>
      <trkpt lat="59.858075446213" lon="17.635090374557">
        <ele>51.4</ele>
        <time>2017-10-14T17:32:41Z</time>
      </trkpt>
      <trkpt lat="59.858046612477" lon="17.635049387066">
        <ele>51.6</ele>
        <time>2017-10-14T17:32:42Z</time>
      </trkpt>
      <trkpt lat="59.858018784569" lon="17.635010411231">
        <ele>51.8</ele>
        <time>2017-10-14T17:32:43Z</time>
      </trkpt>
      <trkpt lat="59.857994644697" lon="17.634977302726">
        <ele>52</ele>
        <time>2017-10-14T17:32:44Z</time>
      </trkpt>
      <trkpt lat="59.857967906436" lon="17.634941260556">
        <ele>52</ele>
        <time>2017-10-14T17:32:45Z</time>
      </trkpt>
      <trkpt lat="59.857938150691" lon="17.634901111255">
        <ele>52.4</ele>
        <time>2017-10-14T17:32:46Z</time>
      </trkpt>
      <trkpt lat="59.85791141243" lon="17.634856435728">
        <ele>52.8</ele>
        <time>2017-10-14T17:32:47Z</time>
      </trkpt>
      <trkpt lat="59.857889284214" lon="17.634821650843">
        <ele>53</ele>
        <time>2017-10-14T17:32:48Z</time>
      </trkpt>
      <trkpt lat="59.857867910369" lon="17.634799354989">
        <ele>53</ele>
        <time>2017-10-14T17:32:49Z</time>
      </trkpt>
      <trkpt lat="59.857845698334" lon="17.634778064963">
        <ele>53</ele>
        <time>2017-10-14T17:32:50Z</time>
      </trkpt>
      <trkpt lat="59.857816613141" lon="17.634751075245">
        <ele>53.2</ele>
        <time>2017-10-14T17:32:51Z</time>
      </trkpt>
      <trkpt lat="59.857792640907" lon="17.634706902632">
        <ele>53</ele>
        <time>2017-10-14T17:32:52Z</time>
      </trkpt>
      <trkpt lat="59.857764058628" lon="17.634640098889">
        <ele>53</ele>
        <time>2017-10-14T17:32:53Z</time>
      </trkpt>
      <trkpt lat="59.85774125986" lon="17.634571870223">
        <ele>52.8</ele>
        <time>2017-10-14T17:32:54Z</time>
      </trkpt>
      <trkpt lat="59.857723993146" lon="17.634507161955">
        <ele>52.8</ele>
        <time>2017-10-14T17:32:55Z</time>
      </trkpt>
      <trkpt lat="59.857710414468" lon="17.634432814502">
        <ele>52.8</ele>
        <time>2017-10-14T17:32:56Z</time>
      </trkpt>
      <trkpt lat="59.857702032568" lon="17.634365256388">
        <ele>52.8</ele>
        <time>2017-10-14T17:32:57Z</time>
      </trkpt>
      <trkpt lat="59.857690381727" lon="17.634295183704">
        <ele>53</ele>
        <time>2017-10-14T17:32:58Z</time>
      </trkpt>
      <trkpt lat="59.857682754198" lon="17.634219662785">
        <ele>53.2</ele>
        <time>2017-10-14T17:32:59Z</time>
      </trkpt>
      <trkpt lat="59.857680239628" lon="17.634148668092">
        <ele>53.6</ele>
        <time>2017-10-14T17:33:00Z</time>
      </trkpt>
      <trkpt lat="59.857677054506" lon="17.634066609291">
        <ele>53.6</ele>
        <time>2017-10-14T17:33:01Z</time>
      </trkpt>
      <trkpt lat="59.857673031194" lon="17.633985640137">
        <ele>53.8</ele>
        <time>2017-10-14T17:33:02Z</time>
      </trkpt>
      <trkpt lat="59.857671857728" lon="17.633913136702">
        <ele>53.8</ele>
        <time>2017-10-14T17:33:03Z</time>
      </trkpt>
      <trkpt lat="59.857672779737" lon="17.633835101213">
        <ele>53.8</ele>
        <time>2017-10-14T17:33:04Z</time>
      </trkpt>
      <trkpt lat="59.857674707574" lon="17.633757568638">
        <ele>53.6</ele>
        <time>2017-10-14T17:33:05Z</time>
      </trkpt>
      <trkpt lat="59.857673115013" lon="17.63367274381">
        <ele>53.8</ele>
        <time>2017-10-14T17:33:06Z</time>
      </trkpt>
      <trkpt lat="59.857668253511" lon="17.633593618674">
        <ele>53.8</ele>
        <time>2017-10-14T17:33:07Z</time>
      </trkpt>
      <trkpt lat="59.85766163181" lon="17.633515415547">
        <ele>53.8</ele>
        <time>2017-10-14T17:33:08Z</time>
      </trkpt>
      <trkpt lat="59.857655932118" lon="17.633441487189">
        <ele>54</ele>
        <time>2017-10-14T17:33:09Z</time>
      </trkpt>
      <trkpt lat="59.857655345385" lon="17.633367055917">
        <ele>54</ele>
        <time>2017-10-14T17:33:10Z</time>
      </trkpt>
      <trkpt lat="59.857651489711" lon="17.633299665441">
        <ele>54</ele>
        <time>2017-10-14T17:33:11Z</time>
      </trkpt>
      <trkpt lat="59.857646041476" lon="17.633213583328">
        <ele>54.2</ele>
        <time>2017-10-14T17:33:12Z</time>
      </trkpt>
      <trkpt lat="59.857642101983" lon="17.633146025214">
        <ele>54.4</ele>
        <time>2017-10-14T17:33:13Z</time>
      </trkpt>
      <trkpt lat="59.857640509422" lon="17.633085926991">
        <ele>54.6</ele>
        <time>2017-10-14T17:33:14Z</time>
      </trkpt>
      <trkpt lat="59.857639252137" lon="17.633025912587">
        <ele>54.8</ele>
        <time>2017-10-14T17:33:15Z</time>
      </trkpt>
      <trkpt lat="59.857637994852" lon="17.632963718889">
        <ele>55</ele>
        <time>2017-10-14T17:33:16Z</time>
      </trkpt>
      <trkpt lat="59.857632043703" lon="17.632888700884">
        <ele>55.4</ele>
        <time>2017-10-14T17:33:17Z</time>
      </trkpt>
      <trkpt lat="59.857626679287" lon="17.63280940811">
        <ele>55.6</ele>
        <time>2017-10-14T17:33:18Z</time>
      </trkpt>
      <trkpt lat="59.857620476681" lon="17.632727768404">
        <ele>56</ele>
        <time>2017-10-14T17:33:19Z</time>
      </trkpt>
      <trkpt lat="59.857616034274" lon="17.632650571105">
        <ele>56.2</ele>
        <time>2017-10-14T17:33:20Z</time>
      </trkpt>
      <trkpt lat="59.857612765333" lon="17.63257806767">
        <ele>56.2</ele>
        <time>2017-10-14T17:33:21Z</time>
      </trkpt>
      <trkpt lat="59.857609077297" lon="17.632515287239">
        <ele>56.4</ele>
        <time>2017-10-14T17:33:22Z</time>
      </trkpt>
      <trkpt lat="59.857604383433" lon="17.632461140165">
        <ele>56.6</ele>
        <time>2017-10-14T17:33:23Z</time>
      </trkpt>
      <trkpt lat="59.857593403144" lon="17.632420068855">
        <ele>56.8</ele>
        <time>2017-10-14T17:33:24Z</time>
      </trkpt>
      <trkpt lat="59.857580830294" lon="17.632384613418">
        <ele>57.2</ele>
        <time>2017-10-14T17:33:25Z</time>
      </trkpt>
      <trkpt lat="59.857571274928" lon="17.63234588904">
        <ele>57.6</ele>
        <time>2017-10-14T17:33:26Z</time>
      </trkpt>
      <trkpt lat="59.857567503073" lon="17.632298531305">
        <ele>57.8</ele>
        <time>2017-10-14T17:33:27Z</time>
      </trkpt>
      <trkpt lat="59.857568257444" lon="17.632243378403">
        <ele>58</ele>
        <time>2017-10-14T17:33:28Z</time>
      </trkpt>
      <trkpt lat="59.857566748702" lon="17.632186716759">
        <ele>58.2</ele>
        <time>2017-10-14T17:33:29Z</time>
      </trkpt>
      <trkpt lat="59.857563647399" lon="17.632131815314">
        <ele>58.4</ele>
        <time>2017-10-14T17:33:30Z</time>
      </trkpt>
      <trkpt lat="59.857541183907" lon="17.63209862299">
        <ele>58.6</ele>
        <time>2017-10-14T17:33:31Z</time>
      </trkpt>
      <trkpt lat="59.857519390967" lon="17.63207766824">
        <ele>58.8</ele>
        <time>2017-10-14T17:33:32Z</time>
      </trkpt>
      <trkpt lat="59.857493742353" lon="17.63206760996">
        <ele>58.8</ele>
        <time>2017-10-14T17:33:33Z</time>
      </trkpt>
      <trkpt lat="59.85746633354" lon="17.632058976603">
        <ele>59</ele>
        <time>2017-10-14T17:33:34Z</time>
      </trkpt>
      <trkpt lat="59.857446049342" lon="17.632021258053">
        <ele>59</ele>
        <time>2017-10-14T17:33:35Z</time>
      </trkpt>
      <trkpt lat="59.857418305253" lon="17.631977588354">
        <ele>59.2</ele>
        <time>2017-10-14T17:33:36Z</time>
      </trkpt>
      <trkpt lat="59.857391315535" lon="17.631948503161">
        <ele>59.2</ele>
        <time>2017-10-14T17:33:37Z</time>
      </trkpt>
      <trkpt lat="59.857362230342" lon="17.631925033841">
        <ele>59.4</ele>
        <time>2017-10-14T17:33:38Z</time>
      </trkpt>
      <trkpt lat="59.857332390778" lon="17.631908856774">
        <ele>59.6</ele>
        <time>2017-10-14T17:33:39Z</time>
      </trkpt>
      <trkpt lat="59.857300623377" lon="17.631893014983">
        <ele>59.6</ele>
        <time>2017-10-14T17:33:40Z</time>
      </trkpt>
      <trkpt lat="59.857274639487" lon="17.631885387454">
        <ele>59.6</ele>
        <time>2017-10-14T17:33:41Z</time>
      </trkpt>
      <trkpt lat="59.857239686964" lon="17.63186728255">
        <ele>59.8</ele>
        <time>2017-10-14T17:33:42Z</time>
      </trkpt>
      <trkpt lat="59.857207584287" lon="17.631849177646">
        <ele>60</ele>
        <time>2017-10-14T17:33:43Z</time>
      </trkpt>
      <trkpt lat="59.857177493266" lon="17.631835263692">
        <ele>60</ele>
        <time>2017-10-14T17:33:44Z</time>
      </trkpt>
      <trkpt lat="59.857146899331" lon="17.631818164616">
        <ele>60.2</ele>
        <time>2017-10-14T17:33:45Z</time>
      </trkpt>
      <trkpt lat="59.857118568509" lon="17.631806010861">
        <ele>60.2</ele>
        <time>2017-10-14T17:33:46Z</time>
      </trkpt>
      <trkpt lat="59.857079257398" lon="17.631798802427">
        <ele>60.4</ele>
        <time>2017-10-14T17:33:47Z</time>
      </trkpt>
      <trkpt lat="59.857044640151" lon="17.631788408871">
        <ele>60.4</ele>
        <time>2017-10-14T17:33:48Z</time>
      </trkpt>
      <trkpt lat="59.8570086818" lon="17.631782541541">
        <ele>60.4</ele>
        <time>2017-10-14T17:33:49Z</time>
      </trkpt>
      <trkpt lat="59.856971466164" lon="17.631775249288">
        <ele>60.4</ele>
        <time>2017-10-14T17:33:50Z</time>
      </trkpt>
      <trkpt lat="59.856937351831" lon="17.63178681631">
        <ele>60.6</ele>
        <time>2017-10-14T17:33:51Z</time>
      </trkpt>
      <trkpt lat="59.85690139348" lon="17.631789247061">
        <ele>60.6</ele>
        <time>2017-10-14T17:33:52Z</time>
      </trkpt>
      <trkpt lat="59.856866021862" lon="17.631790504346">
        <ele>60.8</ele>
        <time>2017-10-14T17:33:53Z</time>
      </trkpt>
      <trkpt lat="59.85681673629" lon="17.631806262318">
        <ele>60.8</ele>
        <time>2017-10-14T17:33:54Z</time>
      </trkpt>
      <trkpt lat="59.856776922265" lon="17.631811626734">
        <ele>60.6</ele>
        <time>2017-10-14T17:33:55Z</time>
      </trkpt>
      <trkpt lat="59.856741550647" lon="17.631816236779">
        <ele>60.4</ele>
        <time>2017-10-14T17:33:56Z</time>
      </trkpt>
      <trkpt lat="59.856692013618" lon="17.631822187928">
        <ele>60.6</ele>
        <time>2017-10-14T17:33:57Z</time>
      </trkpt>
      <trkpt lat="59.856635351974" lon="17.63183962228">
        <ele>60.6</ele>
        <time>2017-10-14T17:33:58Z</time>
      </trkpt>
      <trkpt lat="59.856582294547" lon="17.631853200958">
        <ele>60.2</ele>
        <time>2017-10-14T17:33:59Z</time>
      </trkpt>
      <trkpt lat="59.856535020631" lon="17.631862504867">
        <ele>60</ele>
        <time>2017-10-14T17:34:00Z</time>
      </trkpt>
      <trkpt lat="59.856484226317" lon="17.631870551491">
        <ele>59.8</ele>
        <time>2017-10-14T17:34:01Z</time>
      </trkpt>
      <trkpt lat="59.85643535984" lon="17.631878681934">
        <ele>59.8</ele>
        <time>2017-10-14T17:34:02Z</time>
      </trkpt>
      <trkpt lat="59.856384733164" lon="17.631888153481">
        <ele>59.6</ele>
        <time>2017-10-14T17:34:03Z</time>
      </trkpt>
      <trkpt lat="59.856336956334" lon="17.631898547037">
        <ele>59.4</ele>
        <time>2017-10-14T17:34:04Z</time>
      </trkpt>
      <trkpt lat="59.856291945531" lon="17.631904498186">
        <ele>59.4</ele>
        <time>2017-10-14T17:34:05Z</time>
      </trkpt>
      <trkpt lat="59.856238971923" lon="17.631917490131">
        <ele>59.4</ele>
        <time>2017-10-14T17:34:06Z</time>
      </trkpt>
      <trkpt lat="59.856194715491" lon="17.631928638058">
        <ele>59.4</ele>
        <time>2017-10-14T17:34:07Z</time>
      </trkpt>
      <trkpt lat="59.856152638353" lon="17.631940037442">
        <ele>59.4</ele>
        <time>2017-10-14T17:34:08Z</time>
      </trkpt>
      <trkpt lat="59.856107040817" lon="17.631950430998">
        <ele>59.4</ele>
        <time>2017-10-14T17:34:09Z</time>
      </trkpt>
      <trkpt lat="59.856060856548" lon="17.631959818726">
        <ele>59.6</ele>
        <time>2017-10-14T17:34:10Z</time>
      </trkpt>
      <trkpt lat="59.856031687536" lon="17.631971972481">
        <ele>59.8</ele>
        <time>2017-10-14T17:34:11Z</time>
      </trkpt>
      <trkpt lat="59.855981396136" lon="17.631992591955">
        <ele>60</ele>
        <time>2017-10-14T17:34:12Z</time>
      </trkpt>
      <trkpt lat="59.85594334231" lon="17.63200390752">
        <ele>60.2</ele>
        <time>2017-10-14T17:34:13Z</time>
      </trkpt>
      <trkpt lat="59.855906126674" lon="17.632013714343">
        <ele>60.6</ele>
        <time>2017-10-14T17:34:14Z</time>
      </trkpt>
      <trkpt lat="59.855870671237" lon="17.632021593329">
        <ele>60.8</ele>
        <time>2017-10-14T17:34:15Z</time>
      </trkpt>
      <trkpt lat="59.855843430062" lon="17.632027795935">
        <ele>61</ele>
        <time>2017-10-14T17:34:16Z</time>
      </trkpt>
      <trkpt lat="59.85580336458" lon="17.632052773997">
        <ele>61.6</ele>
        <time>2017-10-14T17:34:17Z</time>
      </trkpt>
      <trkpt lat="59.855770172256" lon="17.632070627444">
        <ele>62</ele>
        <time>2017-10-14T17:34:18Z</time>
      </trkpt>
      <trkpt lat="59.855737399027" lon="17.632087307425">
        <ele>62.2</ele>
        <time>2017-10-14T17:34:19Z</time>
      </trkpt>
      <trkpt lat="59.855705631626" lon="17.632103484492">
        <ele>62.2</ele>
        <time>2017-10-14T17:34:20Z</time>
      </trkpt>
      <trkpt lat="59.855680402107" lon="17.632119829197">
        <ele>62.4</ele>
        <time>2017-10-14T17:34:21Z</time>
      </trkpt>
      <trkpt lat="59.855647545059" lon="17.632117817541">
        <ele>62.6</ele>
        <time>2017-10-14T17:34:22Z</time>
      </trkpt>
      <trkpt lat="59.855630529802" lon="17.632052606359">
        <ele>62.8</ele>
        <time>2017-10-14T17:34:23Z</time>
      </trkpt>
      <trkpt lat="59.855632457639" lon="17.631996950543">
        <ele>63</ele>
        <time>2017-10-14T17:34:24Z</time>
      </trkpt>
      <trkpt lat="59.855642515919" lon="17.631943893116">
        <ele>63.2</ele>
        <time>2017-10-14T17:34:25Z</time>
      </trkpt>
      <trkpt lat="59.855656094597" lon="17.631913047724">
        <ele>63.4</ele>
        <time>2017-10-14T17:34:26Z</time>
      </trkpt>
      <trkpt lat="59.855665230868" lon="17.631874993898">
        <ele>63.8</ele>
        <time>2017-10-14T17:34:27Z</time>
      </trkpt>
      <trkpt lat="59.855670511465" lon="17.631841466298">
        <ele>64.2</ele>
        <time>2017-10-14T17:34:28Z</time>
      </trkpt>
      <trkpt lat="59.855654418217" lon="17.631801987549">
        <ele>64.8</ele>
        <time>2017-10-14T17:34:29Z</time>
      </trkpt>
      <trkpt lat="59.855640420444" lon="17.631770723062">
        <ele>65</ele>
        <time>2017-10-14T17:34:30Z</time>
      </trkpt>
      <trkpt lat="59.855600354962" lon="17.631716827445">
        <ele>65.4</ele>
        <time>2017-10-14T17:34:31Z</time>
      </trkpt>
      <trkpt lat="59.855570599217" lon="17.631664189113">
        <ele>65.6</ele>
        <time>2017-10-14T17:34:32Z</time>
      </trkpt>
      <trkpt lat="59.855544196232" lon="17.631610209677">
        <ele>65.8</ele>
        <time>2017-10-14T17:34:33Z</time>
      </trkpt>
      <trkpt lat="59.855522151835" lon="17.631558493354">
        <ele>65.8</ele>
        <time>2017-10-14T17:34:34Z</time>
      </trkpt>
      <trkpt lat="59.855493737194" lon="17.631519014605">
        <ele>65.8</ele>
        <time>2017-10-14T17:34:35Z</time>
      </trkpt>
      <trkpt lat="59.855462640345" lon="17.631473752345">
        <ele>65.8</ele>
        <time>2017-10-14T17:34:36Z</time>
      </trkpt>
      <trkpt lat="59.855445373631" lon="17.631419605271">
        <ele>66</ele>
        <time>2017-10-14T17:34:37Z</time>
      </trkpt>
      <trkpt lat="59.85544042831" lon="17.631360261419">
        <ele>66.2</ele>
        <time>2017-10-14T17:34:38Z</time>
      </trkpt>
      <trkpt lat="59.855438668111" lon="17.631308126001">
        <ele>66.4</ele>
        <time>2017-10-14T17:34:39Z</time>
      </trkpt>
      <trkpt lat="59.85543707555" lon="17.63126043299">
        <ele>66.6</ele>
        <time>2017-10-14T17:34:40Z</time>
      </trkpt>
      <trkpt lat="59.855439003387" lon="17.63122774358">
        <ele>66.6</ele>
        <time>2017-10-14T17:34:41Z</time>
      </trkpt>
      <trkpt lat="59.855439171025" lon="17.631185247347">
        <ele>66.8</ele>
        <time>2017-10-14T17:34:42Z</time>
      </trkpt>
      <trkpt lat="59.855437410826" lon="17.631133950119">
        <ele>66.8</ele>
        <time>2017-10-14T17:34:43Z</time>
      </trkpt>
      <trkpt lat="59.855441015043" lon="17.631070666774">
        <ele>67</ele>
        <time>2017-10-14T17:34:44Z</time>
      </trkpt>
      <trkpt lat="59.855448642572" lon="17.631005287954">
        <ele>67</ele>
        <time>2017-10-14T17:34:45Z</time>
      </trkpt>
      <trkpt lat="59.855474542643" lon="17.63095365545">
        <ele>67</ele>
        <time>2017-10-14T17:34:46Z</time>
      </trkpt>
      <trkpt lat="59.855486277303" lon="17.630877715436">
        <ele>67</ele>
        <time>2017-10-14T17:34:47Z</time>
      </trkpt>
      <trkpt lat="59.855484768561" lon="17.630812085159">
        <ele>67</ele>
        <time>2017-10-14T17:34:48Z</time>
      </trkpt>
      <trkpt lat="59.855477141032" lon="17.630746538701">
        <ele>67</ele>
        <time>2017-10-14T17:34:49Z</time>
      </trkpt>
      <trkpt lat="59.855467166571" lon="17.630679064406">
        <ele>67</ele>
        <time>2017-10-14T17:34:50Z</time>
      </trkpt>
      <trkpt lat="59.855447050011" lon="17.630610249007">
        <ele>66.8</ele>
        <time>2017-10-14T17:34:51Z</time>
      </trkpt>
      <trkpt lat="59.855424167424" lon="17.630538164667">
        <ele>66.6</ele>
        <time>2017-10-14T17:34:52Z</time>
      </trkpt>
      <trkpt lat="59.855382425562" lon="17.63046750525">
        <ele>66.4</ele>
        <time>2017-10-14T17:34:53Z</time>
      </trkpt>
      <trkpt lat="59.855344539374" lon="17.630397767842">
        <ele>66.2</ele>
        <time>2017-10-14T17:34:54Z</time>
      </trkpt>
      <trkpt lat="59.855306737005" lon="17.630327946615">
        <ele>66.2</ele>
        <time>2017-10-14T17:34:55Z</time>
      </trkpt>
      <trkpt lat="59.855278741459" lon="17.630267345478">
        <ele>65.8</ele>
        <time>2017-10-14T17:34:56Z</time>
      </trkpt>
      <trkpt lat="59.855253260483" lon="17.630160643891">
        <ele>65.6</ele>
        <time>2017-10-14T17:34:57Z</time>
      </trkpt>
      <trkpt lat="59.85524513004" lon="17.63006182129">
        <ele>65.4</ele>
        <time>2017-10-14T17:34:58Z</time>
      </trkpt>
      <trkpt lat="59.855243872755" lon="17.629957634273">
        <ele>65.2</ele>
        <time>2017-10-14T17:34:59Z</time>
      </trkpt>
      <trkpt lat="59.855243286022" lon="17.629862918803">
        <ele>65</ele>
        <time>2017-10-14T17:35:00Z</time>
      </trkpt>
      <trkpt lat="59.855221409263" lon="17.629775411767">
        <ele>65</ele>
        <time>2017-10-14T17:35:01Z</time>
      </trkpt>
      <trkpt lat="59.855218056503" lon="17.629689162016">
        <ele>64.8</ele>
        <time>2017-10-14T17:35:02Z</time>
      </trkpt>
      <trkpt lat="59.855231719" lon="17.629611126527">
        <ele>64.6</ele>
        <time>2017-10-14T17:35:03Z</time>
      </trkpt>
      <trkpt lat="59.855259463089" lon="17.629541389119">
        <ele>64.8</ele>
        <time>2017-10-14T17:35:04Z</time>
      </trkpt>
      <trkpt lat="59.855290811395" lon="17.629477938136">
        <ele>64.6</ele>
        <time>2017-10-14T17:35:05Z</time>
      </trkpt>
      <trkpt lat="59.855338085311" lon="17.62943066422">
        <ele>64.8</ele>
        <time>2017-10-14T17:35:06Z</time>
      </trkpt>
      <trkpt lat="59.855378318431" lon="17.629367045599">
        <ele>64.8</ele>
        <time>2017-10-14T17:35:07Z</time>
      </trkpt>
      <trkpt lat="59.855415114972" lon="17.629297056734">
        <ele>64.8</ele>
        <time>2017-10-14T17:35:08Z</time>
      </trkpt>
      <trkpt lat="59.855451827694" lon="17.629222374005">
        <ele>64.8</ele>
        <time>2017-10-14T17:35:09Z</time>
      </trkpt>
      <trkpt lat="59.855488121321" lon="17.629150541122">
        <ele>64.8</ele>
        <time>2017-10-14T17:35:10Z</time>
      </trkpt>
      <trkpt lat="59.855524331129" lon="17.629095052944">
        <ele>64.6</ele>
        <time>2017-10-14T17:35:11Z</time>
      </trkpt>
      <trkpt lat="59.85556448043" lon="17.629015257256">
        <ele>64.4</ele>
        <time>2017-10-14T17:35:12Z</time>
      </trkpt>
      <trkpt lat="59.855594571451" lon="17.628944430201">
        <ele>64.2</ele>
        <time>2017-10-14T17:35:13Z</time>
      </trkpt>
      <trkpt lat="59.855607479577" lon="17.628861281753">
        <ele>64.2</ele>
        <time>2017-10-14T17:35:14Z</time>
      </trkpt>
      <trkpt lat="59.855611838165" lon="17.628778384762">
        <ele>64.2</ele>
        <time>2017-10-14T17:35:15Z</time>
      </trkpt>
      <trkpt lat="59.85557789147" lon="17.628695068676">
        <ele>64.2</ele>
        <time>2017-10-14T17:35:16Z</time>
      </trkpt>
      <trkpt lat="59.855547465173" lon="17.628616027359">
        <ele>64.2</ele>
        <time>2017-10-14T17:35:17Z</time>
      </trkpt>
      <trkpt lat="59.85551335084" lon="17.628537069861">
        <ele>64.2</ele>
        <time>2017-10-14T17:35:18Z</time>
      </trkpt>
      <trkpt lat="59.855477895403" lon="17.628458950553">
        <ele>64</ele>
        <time>2017-10-14T17:35:19Z</time>
      </trkpt>
      <trkpt lat="59.855443613432" lon="17.628379238684">
        <ele>63.8</ele>
        <time>2017-10-14T17:35:20Z</time>
      </trkpt>
      <trkpt lat="59.855408074176" lon="17.628292905114">
        <ele>63.6</ele>
        <time>2017-10-14T17:35:21Z</time>
      </trkpt>
      <trkpt lat="59.855374630395" lon="17.628209672847">
        <ele>63.4</ele>
        <time>2017-10-14T17:35:22Z</time>
      </trkpt>
      <trkpt lat="59.855334732551" lon="17.628127697865">
        <ele>63.2</ele>
        <time>2017-10-14T17:35:23Z</time>
      </trkpt>
      <trkpt lat="59.855294918526" lon="17.628039185001">
        <ele>63</ele>
        <time>2017-10-14T17:35:24Z</time>
      </trkpt>
      <trkpt lat="59.855256529424" lon="17.627953605802">
        <ele>62.8</ele>
        <time>2017-10-14T17:35:25Z</time>
      </trkpt>
      <trkpt lat="59.855215374295" lon="17.627874229209">
        <ele>62.8</ele>
        <time>2017-10-14T17:35:26Z</time>
      </trkpt>
      <trkpt lat="59.855173800071" lon="17.627781609214">
        <ele>62.6</ele>
        <time>2017-10-14T17:35:27Z</time>
      </trkpt>
      <trkpt lat="59.85513448896" lon="17.627693180169">
        <ele>62.6</ele>
        <time>2017-10-14T17:35:28Z</time>
      </trkpt>
      <trkpt lat="59.855092495641" lon="17.627599889622">
        <ele>62.8</ele>
        <time>2017-10-14T17:35:29Z</time>
      </trkpt>
      <trkpt lat="59.855052597797" lon="17.627507604903">
        <ele>62.6</ele>
        <time>2017-10-14T17:35:30Z</time>
      </trkpt>
      <trkpt lat="59.855009431012" lon="17.627410291044">
        <ele>62.6</ele>
        <time>2017-10-14T17:35:31Z</time>
      </trkpt>
      <trkpt lat="59.854965006942" lon="17.627319682705">
        <ele>62.4</ele>
        <time>2017-10-14T17:35:32Z</time>
      </trkpt>
      <trkpt lat="59.854919493225" lon="17.627229325823">
        <ele>62</ele>
        <time>2017-10-14T17:35:33Z</time>
      </trkpt>
      <trkpt lat="59.854871632576" lon="17.627139807131">
        <ele>61.8</ele>
        <time>2017-10-14T17:35:34Z</time>
      </trkpt>
      <trkpt lat="59.854821927909" lon="17.627056407226">
        <ele>61.4</ele>
        <time>2017-10-14T17:35:35Z</time>
      </trkpt>
      <trkpt lat="59.854776833287" lon="17.626977952642">
        <ele>61.2</ele>
        <time>2017-10-14T17:35:36Z</time>
      </trkpt>
      <trkpt lat="59.854722853851" lon="17.626885165009">
        <ele>61</ele>
        <time>2017-10-14T17:35:37Z</time>
      </trkpt>
      <trkpt lat="59.854671556623" lon="17.626801848923">
        <ele>60.8</ele>
        <time>2017-10-14T17:35:38Z</time>
      </trkpt>
      <trkpt lat="59.854621349042" lon="17.62671828138">
        <ele>60.8</ele>
        <time>2017-10-14T17:35:39Z</time>
      </trkpt>
      <trkpt lat="59.854570890004" lon="17.626632953638">
        <ele>61</ele>
        <time>2017-10-14T17:35:40Z</time>
      </trkpt>
      <trkpt lat="59.854525041011" lon="17.626556594529">
        <ele>60.8</ele>
        <time>2017-10-14T17:35:41Z</time>
      </trkpt>
      <trkpt lat="59.854475587801" lon="17.626462717249">
        <ele>60.8</ele>
        <time>2017-10-14T17:35:42Z</time>
      </trkpt>
      <trkpt lat="59.854431415188" lon="17.626367582684">
        <ele>60.6</ele>
        <time>2017-10-14T17:35:43Z</time>
      </trkpt>
      <trkpt lat="59.854388835136" lon="17.626271274653">
        <ele>60.6</ele>
        <time>2017-10-14T17:35:44Z</time>
      </trkpt>
      <trkpt lat="59.854346506541" lon="17.626176056269">
        <ele>60.8</ele>
        <time>2017-10-14T17:35:45Z</time>
      </trkpt>
      <trkpt lat="59.854301914833" lon="17.626073126537">
        <ele>60.8</ele>
        <time>2017-10-14T17:35:46Z</time>
      </trkpt>
      <trkpt lat="59.854260508247" lon="17.625981763827">
        <ele>61</ele>
        <time>2017-10-14T17:35:47Z</time>
      </trkpt>
      <trkpt lat="59.854215748901" lon="17.625892831868">
        <ele>61</ele>
        <time>2017-10-14T17:35:48Z</time>
      </trkpt>
      <trkpt lat="59.854174426134" lon="17.625807587945">
        <ele>60.8</ele>
        <time>2017-10-14T17:35:49Z</time>
      </trkpt>
      <trkpt lat="59.854137461955" lon="17.625723182212">
        <ele>60.8</ele>
        <time>2017-10-14T17:35:50Z</time>
      </trkpt>
      <trkpt lat="59.854095887731" lon="17.625629053475">
        <ele>61</ele>
        <time>2017-10-14T17:35:51Z</time>
      </trkpt>
      <trkpt lat="59.854057330991" lon="17.625545737389">
        <ele>61.2</ele>
        <time>2017-10-14T17:35:52Z</time>
      </trkpt>
      <trkpt lat="59.854017768423" lon="17.625446160417">
        <ele>61.2</ele>
        <time>2017-10-14T17:35:53Z</time>
      </trkpt>
      <trkpt lat="59.853986336298" lon="17.625342895409">
        <ele>61.2</ele>
        <time>2017-10-14T17:35:54Z</time>
      </trkpt>
      <trkpt lat="59.853959598037" lon="17.625254634002">
        <ele>61.2</ele>
        <time>2017-10-14T17:35:55Z</time>
      </trkpt>
      <trkpt lat="59.853929004102" lon="17.625168300432">
        <ele>61</ele>
        <time>2017-10-14T17:35:56Z</time>
      </trkpt>
      <trkpt lat="59.853889357715" lon="17.625080122844">
        <ele>61.2</ele>
        <time>2017-10-14T17:35:57Z</time>
      </trkpt>
      <trkpt lat="59.853851471527" lon="17.625000662432">
        <ele>61.2</ele>
        <time>2017-10-14T17:35:58Z</time>
      </trkpt>
      <trkpt lat="59.853815094081" lon="17.624914580319">
        <ele>61.2</ele>
        <time>2017-10-14T17:35:59Z</time>
      </trkpt>
      <trkpt lat="59.853782656128" lon="17.624839143219">
        <ele>61.4</ele>
        <time>2017-10-14T17:36:00Z</time>
      </trkpt>
      <trkpt lat="59.853745272854" lon="17.624750546536">
        <ele>61.6</ele>
        <time>2017-10-14T17:36:01Z</time>
      </trkpt>
      <trkpt lat="59.853709230684" lon="17.624668403916">
        <ele>61.8</ele>
        <time>2017-10-14T17:36:02Z</time>
      </trkpt>
      <trkpt lat="59.853676457455" lon="17.624602186906">
        <ele>62</ele>
        <time>2017-10-14T17:36:03Z</time>
      </trkpt>
      <trkpt lat="59.853640331466" lon="17.624532952412">
        <ele>62.2</ele>
        <time>2017-10-14T17:36:04Z</time>
      </trkpt>
      <trkpt lat="59.853603032011" lon="17.624466819221">
        <ele>62.4</ele>
        <time>2017-10-14T17:36:05Z</time>
      </trkpt>
      <trkpt lat="59.853565145823" lon="17.624396243623">
        <ele>62.6</ele>
        <time>2017-10-14T17:36:06Z</time>
      </trkpt>
      <trkpt lat="59.853527259635" lon="17.624324326921">
        <ele>62.8</ele>
        <time>2017-10-14T17:36:07Z</time>
      </trkpt>
      <trkpt lat="59.853488535257" lon="17.62424478269">
        <ele>62.8</ele>
        <time>2017-10-14T17:36:08Z</time>
      </trkpt>
      <trkpt lat="59.853453331277" lon="17.624168842676">
        <ele>62.8</ele>
        <time>2017-10-14T17:36:09Z</time>
      </trkpt>
      <trkpt lat="59.853419971315" lon="17.624095920146">
        <ele>62.8</ele>
        <time>2017-10-14T17:36:10Z</time>
      </trkpt>
      <trkpt lat="59.853383174774" lon="17.624004054522">
        <ele>62.8</ele>
        <time>2017-10-14T17:36:11Z</time>
      </trkpt>
      <trkpt lat="59.853348138432" lon="17.623924426472">
        <ele>62.6</ele>
        <time>2017-10-14T17:36:12Z</time>
      </trkpt>
      <trkpt lat="59.853315700479" lon="17.623844798422">
        <ele>62.4</ele>
        <time>2017-10-14T17:36:13Z</time>
      </trkpt>
      <trkpt lat="59.853290638598" lon="17.623768104037">
        <ele>62</ele>
        <time>2017-10-14T17:36:14Z</time>
      </trkpt>
      <trkpt lat="59.853266750183" lon="17.623702892855">
        <ele>61.8</ele>
        <time>2017-10-14T17:36:15Z</time>
      </trkpt>
      <trkpt lat="59.853269097115" lon="17.623637262578">
        <ele>61.6</ele>
        <time>2017-10-14T17:36:16Z</time>
      </trkpt>
      <trkpt lat="59.853274210074" lon="17.62357255431">
        <ele>61.6</ele>
        <time>2017-10-14T17:36:17Z</time>
      </trkpt>
      <trkpt lat="59.85329047096" lon="17.623517401408">
        <ele>61.8</ele>
        <time>2017-10-14T17:36:18Z</time>
      </trkpt>
      <trkpt lat="59.853314107918" lon="17.623464343981">
        <ele>61.8</ele>
        <time>2017-10-14T17:36:19Z</time>
      </trkpt>
      <trkpt lat="59.853341181455" lon="17.623411873287">
        <ele>62</ele>
        <time>2017-10-14T17:36:20Z</time>
      </trkpt>
      <trkpt lat="59.853367919716" lon="17.623340878594">
        <ele>62.2</ele>
        <time>2017-10-14T17:36:21Z</time>
      </trkpt>
      <trkpt lat="59.853397256366" lon="17.62327248229">
        <ele>62.2</ele>
        <time>2017-10-14T17:36:22Z</time>
      </trkpt>
      <trkpt lat="59.853430532509" lon="17.623202158149">
        <ele>62.2</ele>
        <time>2017-10-14T17:36:23Z</time>
      </trkpt>
      <trkpt lat="59.853466155584" lon="17.623135270587">
        <ele>62.2</ele>
        <time>2017-10-14T17:36:24Z</time>
      </trkpt>
      <trkpt lat="59.853503203582" lon="17.623069891767">
        <ele>62</ele>
        <time>2017-10-14T17:36:25Z</time>
      </trkpt>
      <trkpt lat="59.853533881336" lon="17.623005351137">
        <ele>62</ele>
        <time>2017-10-14T17:36:26Z</time>
      </trkpt>
      <trkpt lat="59.853570342601" lon="17.622938798851">
        <ele>61.8</ele>
        <time>2017-10-14T17:36:27Z</time>
      </trkpt>
      <trkpt lat="59.853611246273" lon="17.622852046186">
        <ele>61.8</ele>
        <time>2017-10-14T17:36:28Z</time>
      </trkpt>
      <trkpt lat="59.853648210452" lon="17.622776357629">
        <ele>61.6</ele>
        <time>2017-10-14T17:36:29Z</time>
      </trkpt>
      <trkpt lat="59.853686264278" lon="17.62270335128">
        <ele>61.6</ele>
        <time>2017-10-14T17:36:30Z</time>
      </trkpt>
      <trkpt lat="59.853731610357" lon="17.62264803074">
        <ele>61.4</ele>
        <time>2017-10-14T17:36:31Z</time>
      </trkpt>
      <trkpt lat="59.853772933124" lon="17.622581729911">
        <ele>61.4</ele>
        <time>2017-10-14T17:36:32Z</time>
      </trkpt>
      <trkpt lat="59.853810232579" lon="17.622511657227">
        <ele>61.2</ele>
        <time>2017-10-14T17:36:33Z</time>
      </trkpt>
      <trkpt lat="59.853848118767" lon="17.622440578715">
        <ele>61.2</ele>
        <time>2017-10-14T17:36:34Z</time>
      </trkpt>
      <trkpt lat="59.853886088774" lon="17.622370841307">
        <ele>61.2</ele>
        <time>2017-10-14T17:36:35Z</time>
      </trkpt>
      <trkpt lat="59.853923639686" lon="17.622300349528">
        <ele>61.2</ele>
        <time>2017-10-14T17:36:36Z</time>
      </trkpt>
      <trkpt lat="59.853959849494" lon="17.622231282672">
        <ele>61.4</ele>
        <time>2017-10-14T17:36:37Z</time>
      </trkpt>
      <trkpt lat="59.853994969655" lon="17.622159952703">
        <ele>61.4</ele>
        <time>2017-10-14T17:36:38Z</time>
      </trkpt>
      <trkpt lat="59.854026066504" lon="17.622081498119">
        <ele>61.6</ele>
        <time>2017-10-14T17:36:39Z</time>
      </trkpt>
      <trkpt lat="59.854055906068" lon="17.621997343843">
        <ele>61.6</ele>
        <time>2017-10-14T17:36:40Z</time>
      </trkpt>
      <trkpt lat="59.854087673469" lon="17.621927606435">
        <ele>61.8</ele>
        <time>2017-10-14T17:36:41Z</time>
      </trkpt>
      <trkpt lat="59.854146095312" lon="17.621859713045">
        <ele>61.8</ele>
        <time>2017-10-14T17:36:42Z</time>
      </trkpt>
      <trkpt lat="59.8541923634" lon="17.621793244578">
        <ele>62</ele>
        <time>2017-10-14T17:36:43Z</time>
      </trkpt>
      <trkpt lat="59.854233853805" lon="17.621723423351">
        <ele>61.8</ele>
        <time>2017-10-14T17:36:44Z</time>
      </trkpt>
      <trkpt lat="59.854275260391" lon="17.621650165545">
        <ele>61.8</ele>
        <time>2017-10-14T17:36:45Z</time>
      </trkpt>
      <trkpt lat="59.854310296733" lon="17.621571710961">
        <ele>61.8</ele>
        <time>2017-10-14T17:36:46Z</time>
      </trkpt>
      <trkpt lat="59.854348434378" lon="17.621492585825">
        <ele>61.8</ele>
        <time>2017-10-14T17:36:47Z</time>
      </trkpt>
      <trkpt lat="59.854384392729" lon="17.621415388526">
        <ele>61.8</ele>
        <time>2017-10-14T17:36:48Z</time>
      </trkpt>
      <trkpt lat="59.854420770175" lon="17.621344142376">
        <ele>61.8</ele>
        <time>2017-10-14T17:36:49Z</time>
      </trkpt>
      <trkpt lat="59.85445890782" lon="17.621276165167">
        <ele>61.8</ele>
        <time>2017-10-14T17:36:50Z</time>
      </trkpt>
      <trkpt lat="59.854491010497" lon="17.621211205442">
        <ele>61.8</ele>
        <time>2017-10-14T17:36:51Z</time>
      </trkpt>
      <trkpt lat="59.854523029355" lon="17.621139121102">
        <ele>62</ele>
        <time>2017-10-14T17:36:52Z</time>
      </trkpt>
      <trkpt lat="59.854555467308" lon="17.6210672044">
        <ele>62.2</ele>
        <time>2017-10-14T17:36:53Z</time>
      </trkpt>
      <trkpt lat="59.854586983252" lon="17.62099763463">
        <ele>62.2</ele>
        <time>2017-10-14T17:36:54Z</time>
      </trkpt>
      <trkpt lat="59.854612799504" lon="17.620953964931">
        <ele>62.4</ele>
        <time>2017-10-14T17:36:55Z</time>
      </trkpt>
      <trkpt lat="59.854652026796" lon="17.62087693527">
        <ele>62.6</ele>
        <time>2017-10-14T17:36:56Z</time>
      </trkpt>
      <trkpt lat="59.854690164441" lon="17.620798061591">
        <ele>62.8</ele>
        <time>2017-10-14T17:36:57Z</time>
      </trkpt>
      <trkpt lat="59.854725703697" lon="17.620726396346">
        <ele>63.2</ele>
        <time>2017-10-14T17:36:58Z</time>
      </trkpt>
      <trkpt lat="59.854759985668" lon="17.620653641454">
        <ele>63.2</ele>
        <time>2017-10-14T17:36:59Z</time>
      </trkpt>
      <trkpt lat="59.85479334563" lon="17.620579964553">
        <ele>63.2</ele>
        <time>2017-10-14T17:37:00Z</time>
      </trkpt>
      <trkpt lat="59.8548293878" lon="17.620508383127">
        <ele>63.4</ele>
        <time>2017-10-14T17:37:01Z</time>
      </trkpt>
      <trkpt lat="59.854866603436" lon="17.620437136977">
        <ele>63.2</ele>
        <time>2017-10-14T17:37:02Z</time>
      </trkpt>
      <trkpt lat="59.854904489624" lon="17.620365136456">
        <ele>63</ele>
        <time>2017-10-14T17:37:03Z</time>
      </trkpt>
      <trkpt lat="59.854942962545" lon="17.620295315229">
        <ele>63</ele>
        <time>2017-10-14T17:37:04Z</time>
      </trkpt>
      <trkpt lat="59.854982692751" lon="17.620226080735">
        <ele>63</ele>
        <time>2017-10-14T17:37:05Z</time>
      </trkpt>
      <trkpt lat="59.855024350794" lon="17.62015190092">
        <ele>62.8</ele>
        <time>2017-10-14T17:37:06Z</time>
      </trkpt>
      <trkpt lat="59.85506491919" lon="17.620081241503">
        <ele>62.8</ele>
        <time>2017-10-14T17:37:07Z</time>
      </trkpt>
      <trkpt lat="59.855106577233" lon="17.620011420276">
        <ele>62.8</ele>
        <time>2017-10-14T17:37:08Z</time>
      </trkpt>
      <trkpt lat="59.855146977991" lon="17.619944113619">
        <ele>62.6</ele>
        <time>2017-10-14T17:37:09Z</time>
      </trkpt>
      <trkpt lat="59.855188300758" lon="17.619876555505">
        <ele>62.6</ele>
        <time>2017-10-14T17:37:10Z</time>
      </trkpt>
      <trkpt lat="59.855220403435" lon="17.619817882205">
        <ele>62.4</ele>
        <time>2017-10-14T17:37:11Z</time>
      </trkpt>
      <trkpt lat="59.855262899668" lon="17.619740433449">
        <ele>62.2</ele>
        <time>2017-10-14T17:37:12Z</time>
      </trkpt>
      <trkpt lat="59.855293493603" lon="17.619667510919">
        <ele>62.2</ele>
        <time>2017-10-14T17:37:13Z</time>
      </trkpt>
      <trkpt lat="59.855325177185" lon="17.619593414923">
        <ele>62.4</ele>
        <time>2017-10-14T17:37:14Z</time>
      </trkpt>
      <trkpt lat="59.85535828569" lon="17.619520660031">
        <ele>62.4</ele>
        <time>2017-10-14T17:37:15Z</time>
      </trkpt>
      <trkpt lat="59.855403883226" lon="17.619468273156">
        <ele>62.8</ele>
        <time>2017-10-14T17:37:16Z</time>
      </trkpt>
      <trkpt lat="59.85545467754" lon="17.619439187963">
        <ele>63</ele>
        <time>2017-10-14T17:37:17Z</time>
      </trkpt>
      <trkpt lat="59.855504298388" lon="17.619440780524">
        <ele>63.2</ele>
        <time>2017-10-14T17:37:18Z</time>
      </trkpt>
      <trkpt lat="59.855556433806" lon="17.619464082206">
        <ele>63.2</ele>
        <time>2017-10-14T17:37:19Z</time>
      </trkpt>
      <trkpt lat="59.855607060482" lon="17.619493167399">
        <ele>63.4</ele>
        <time>2017-10-14T17:37:20Z</time>
      </trkpt>
      <trkpt lat="59.855651903647" lon="17.619502806584">
        <ele>63.4</ele>
        <time>2017-10-14T17:37:21Z</time>
      </trkpt>
      <trkpt lat="59.855699345201" lon="17.619479588721">
        <ele>63.4</ele>
        <time>2017-10-14T17:37:22Z</time>
      </trkpt>
      <trkpt lat="59.855734884457" lon="17.619429716416">
        <ele>63.4</ele>
        <time>2017-10-14T17:37:23Z</time>
      </trkpt>
      <trkpt lat="59.855752737904" lon="17.619356626248">
        <ele>63.4</ele>
        <time>2017-10-14T17:37:24Z</time>
      </trkpt>
      <trkpt lat="59.855748546954" lon="17.619272304334">
        <ele>63.4</ele>
        <time>2017-10-14T17:37:25Z</time>
      </trkpt>
      <trkpt lat="59.855735722647" lon="17.619185803126">
        <ele>63.4</ele>
        <time>2017-10-14T17:37:26Z</time>
      </trkpt>
      <trkpt lat="59.855712672422" lon="17.619100307746">
        <ele>63.4</ele>
        <time>2017-10-14T17:37:27Z</time>
      </trkpt>
      <trkpt lat="59.855707727101" lon="17.618987738829">
        <ele>63.2</ele>
        <time>2017-10-14T17:37:28Z</time>
      </trkpt>
      <trkpt lat="59.855697836459" lon="17.618882965079">
        <ele>62.8</ele>
        <time>2017-10-14T17:37:29Z</time>
      </trkpt>
      <trkpt lat="59.855688784007" lon="17.618780454442">
        <ele>62.6</ele>
        <time>2017-10-14T17:37:30Z</time>
      </trkpt>
      <trkpt lat="59.855675456786" lon="17.618674255769">
        <ele>62.2</ele>
        <time>2017-10-14T17:37:31Z</time>
      </trkpt>
      <trkpt lat="59.855663722126" lon="17.618566632173">
        <ele>62.2</ele>
        <time>2017-10-14T17:37:32Z</time>
      </trkpt>
      <trkpt lat="59.855656010778" lon="17.618459679129">
        <ele>62</ele>
        <time>2017-10-14T17:37:33Z</time>
      </trkpt>
      <trkpt lat="59.855648215611" lon="17.618349960058">
        <ele>62</ele>
        <time>2017-10-14T17:37:34Z</time>
      </trkpt>
      <trkpt lat="59.855640168987" lon="17.618241079177">
        <ele>62</ele>
        <time>2017-10-14T17:37:35Z</time>
      </trkpt>
      <trkpt lat="59.855636732408" lon="17.6181251575">
        <ele>61.8</ele>
        <time>2017-10-14T17:37:36Z</time>
      </trkpt>
      <trkpt lat="59.855631870906" lon="17.618010828384">
        <ele>61.6</ele>
        <time>2017-10-14T17:37:37Z</time>
      </trkpt>
      <trkpt lat="59.855624411015" lon="17.617895577259">
        <ele>61.2</ele>
        <time>2017-10-14T17:37:38Z</time>
      </trkpt>
      <trkpt lat="59.855617454038" lon="17.617782589247">
        <ele>61</ele>
        <time>2017-10-14T17:37:39Z</time>
      </trkpt>
      <trkpt lat="59.855611754346" lon="17.617669852692">
        <ele>60.6</ele>
        <time>2017-10-14T17:37:40Z</time>
      </trkpt>
      <trkpt lat="59.855603288627" lon="17.617568264064">
        <ele>60.2</ele>
        <time>2017-10-14T17:37:41Z</time>
      </trkpt>
      <trkpt lat="59.855592643614" lon="17.617432309646">
        <ele>59.8</ele>
        <time>2017-10-14T17:37:42Z</time>
      </trkpt>
      <trkpt lat="59.855583004429" lon="17.617315549779">
        <ele>59.6</ele>
        <time>2017-10-14T17:37:43Z</time>
      </trkpt>
      <trkpt lat="59.855572443235" lon="17.617197448808">
        <ele>59.4</ele>
        <time>2017-10-14T17:37:44Z</time>
      </trkpt>
      <trkpt lat="59.85556280405" lon="17.617081024217">
        <ele>59.4</ele>
        <time>2017-10-14T17:37:45Z</time>
      </trkpt>
      <trkpt lat="59.855551320847" lon="17.616959151391">
        <ele>59.4</ele>
        <time>2017-10-14T17:37:46Z</time>
      </trkpt>
      <trkpt lat="59.855540675834" lon="17.616839625497">
        <ele>59.4</ele>
        <time>2017-10-14T17:37:47Z</time>
      </trkpt>
      <trkpt lat="59.855529611726" lon="17.616714902825">
        <ele>59.4</ele>
        <time>2017-10-14T17:37:48Z</time>
      </trkpt>
      <trkpt lat="59.855519804903" lon="17.616592191809">
        <ele>59.4</ele>
        <time>2017-10-14T17:37:49Z</time>
      </trkpt>
      <trkpt lat="59.855511087727" lon="17.616470654259">
        <ele>59.4</ele>
        <time>2017-10-14T17:37:50Z</time>
      </trkpt>
      <trkpt lat="59.855502789646" lon="17.616343668474">
        <ele>59.2</ele>
        <time>2017-10-14T17:37:51Z</time>
      </trkpt>
      <trkpt lat="59.855495078298" lon="17.616220706001">
        <ele>59</ele>
        <time>2017-10-14T17:37:52Z</time>
      </trkpt>
      <trkpt lat="59.855486947855" lon="17.616094139311">
        <ele>58.8</ele>
        <time>2017-10-14T17:37:53Z</time>
      </trkpt>
      <trkpt lat="59.85547898505" lon="17.615975032512">
        <ele>58.6</ele>
        <time>2017-10-14T17:37:54Z</time>
      </trkpt>
      <trkpt lat="59.855472028073" lon="17.61585533898">
        <ele>58.6</ele>
        <time>2017-10-14T17:37:55Z</time>
      </trkpt>
      <trkpt lat="59.8554664122" lon="17.615747128651">
        <ele>58.4</ele>
        <time>2017-10-14T17:37:56Z</time>
      </trkpt>
      <trkpt lat="59.855456605377" lon="17.615613185889">
        <ele>58.4</ele>
        <time>2017-10-14T17:37:57Z</time>
      </trkpt>
      <trkpt lat="59.855447636744" lon="17.615501874257">
        <ele>58.4</ele>
        <time>2017-10-14T17:37:58Z</time>
      </trkpt>
      <trkpt lat="59.855439087206" lon="17.615391484634">
        <ele>58.4</ele>
        <time>2017-10-14T17:37:59Z</time>
      </trkpt>
      <trkpt lat="59.855433052238" lon="17.615285705056">
        <ele>58.4</ele>
        <time>2017-10-14T17:38:00Z</time>
      </trkpt>
      <trkpt lat="59.855424670338" lon="17.615194258527">
        <ele>58.4</ele>
        <time>2017-10-14T17:38:01Z</time>
      </trkpt>
      <trkpt lat="59.855418383913" lon="17.615102392903">
        <ele>58.4</ele>
        <time>2017-10-14T17:38:02Z</time>
      </trkpt>
      <trkpt lat="59.855412097488" lon="17.615016729885">
        <ele>58.2</ele>
        <time>2017-10-14T17:38:03Z</time>
      </trkpt>
      <trkpt lat="59.855405727244" lon="17.614938778215">
        <ele>58.2</ele>
        <time>2017-10-14T17:38:04Z</time>
      </trkpt>
      <trkpt lat="59.855398434991" lon="17.614852696102">
        <ele>58.2</ele>
        <time>2017-10-14T17:38:05Z</time>
      </trkpt>
      <trkpt lat="59.855401284837" lon="17.614738450805">
        <ele>58.2</ele>
        <time>2017-10-14T17:38:06Z</time>
      </trkpt>
      <trkpt lat="59.8554161208" lon="17.614634515245">
        <ele>58</ele>
        <time>2017-10-14T17:38:07Z</time>
      </trkpt>
      <trkpt lat="59.855431040582" lon="17.614525718183">
        <ele>57.8</ele>
        <time>2017-10-14T17:38:08Z</time>
      </trkpt>
      <trkpt lat="59.855434058066" lon="17.614409209773">
        <ele>57.6</ele>
        <time>2017-10-14T17:38:09Z</time>
      </trkpt>
      <trkpt lat="59.855419976474" lon="17.614291444078">
        <ele>57.4</ele>
        <time>2017-10-14T17:38:10Z</time>
      </trkpt>
      <trkpt lat="59.855392400023" lon="17.614172337279">
        <ele>57</ele>
        <time>2017-10-14T17:38:11Z</time>
      </trkpt>
      <trkpt lat="59.855362309002" lon="17.614054571584">
        <ele>56.8</ele>
        <time>2017-10-14T17:38:12Z</time>
      </trkpt>
      <trkpt lat="59.855333726723" lon="17.61393085474">
        <ele>56.6</ele>
        <time>2017-10-14T17:38:13Z</time>
      </trkpt>
      <trkpt lat="59.855310592679" lon="17.613809987742">
        <ele>56.4</ele>
        <time>2017-10-14T17:38:14Z</time>
      </trkpt>
      <trkpt lat="59.855288464463" lon="17.613684929794">
        <ele>56.2</ele>
        <time>2017-10-14T17:38:15Z</time>
      </trkpt>
      <trkpt lat="59.855268515541" lon="17.613558866018">
        <ele>56.2</ele>
        <time>2017-10-14T17:38:16Z</time>
      </trkpt>
      <trkpt lat="59.855248734257" lon="17.613438418115">
        <ele>56</ele>
        <time>2017-10-14T17:38:17Z</time>
      </trkpt>
      <trkpt lat="59.85523004262" lon="17.613315539461">
        <ele>56</ele>
        <time>2017-10-14T17:38:18Z</time>
      </trkpt>
      <trkpt lat="59.855211686259" lon="17.613199701603">
        <ele>56</ele>
        <time>2017-10-14T17:38:19Z</time>
      </trkpt>
      <trkpt lat="59.855193329898" lon="17.613085623944">
        <ele>56</ele>
        <time>2017-10-14T17:38:20Z</time>
      </trkpt>
      <trkpt lat="59.855177823383" lon="17.612982694212">
        <ele>56</ele>
        <time>2017-10-14T17:38:21Z</time>
      </trkpt>
      <trkpt lat="59.855158209737" lon="17.612853026219">
        <ele>56</ele>
        <time>2017-10-14T17:38:22Z</time>
      </trkpt>
      <trkpt lat="59.855139937195" lon="17.612734003239">
        <ele>56.2</ele>
        <time>2017-10-14T17:38:23Z</time>
      </trkpt>
      <trkpt lat="59.855121497015" lon="17.612625960548">
        <ele>56.2</ele>
        <time>2017-10-14T17:38:24Z</time>
      </trkpt>
      <trkpt lat="59.855103978844" lon="17.612519091323">
        <ele>56.2</ele>
        <time>2017-10-14T17:38:25Z</time>
      </trkpt>
      <trkpt lat="59.855086041578" lon="17.612412725012">
        <ele>56.4</ele>
        <time>2017-10-14T17:38:26Z</time>
      </trkpt>
      <trkpt lat="59.855069696873" lon="17.612305771968">
        <ele>56.4</ele>
        <time>2017-10-14T17:38:27Z</time>
      </trkpt>
      <trkpt lat="59.855053938901" lon="17.612196891087">
        <ele>56.6</ele>
        <time>2017-10-14T17:38:28Z</time>
      </trkpt>
      <trkpt lat="59.855037342739" lon="17.612086585283">
        <ele>56.6</ele>
        <time>2017-10-14T17:38:29Z</time>
      </trkpt>
      <trkpt lat="59.855020998034" lon="17.611980973343">
        <ele>56.8</ele>
        <time>2017-10-14T17:38:30Z</time>
      </trkpt>
      <trkpt lat="59.855005240062" lon="17.611879133258">
        <ele>57</ele>
        <time>2017-10-14T17:38:31Z</time>
      </trkpt>
      <trkpt lat="59.8549886439" lon="17.611771593481">
        <ele>57</ele>
        <time>2017-10-14T17:38:32Z</time>
      </trkpt>
      <trkpt lat="59.854973640299" lon="17.611671345957">
        <ele>57.2</ele>
        <time>2017-10-14T17:38:33Z</time>
      </trkpt>
      <trkpt lat="59.854958552879" lon="17.611569086777">
        <ele>57.4</ele>
        <time>2017-10-14T17:38:34Z</time>
      </trkpt>
      <trkpt lat="59.854946231486" lon="17.611477891705">
        <ele>57.6</ele>
        <time>2017-10-14T17:38:35Z</time>
      </trkpt>
      <trkpt lat="59.854926785478" lon="17.61136347877">
        <ele>57.4</ele>
        <time>2017-10-14T17:38:36Z</time>
      </trkpt>
      <trkpt lat="59.854909602583" lon="17.611258285925">
        <ele>57.6</ele>
        <time>2017-10-14T17:38:37Z</time>
      </trkpt>
      <trkpt lat="59.854892922602" lon="17.611155691469">
        <ele>57.8</ele>
        <time>2017-10-14T17:38:38Z</time>
      </trkpt>
      <trkpt lat="59.854875823526" lon="17.611052677918">
        <ele>57.8</ele>
        <time>2017-10-14T17:38:39Z</time>
      </trkpt>
      <trkpt lat="59.854857718622" lon="17.610957543353">
        <ele>57.8</ele>
        <time>2017-10-14T17:38:40Z</time>
      </trkpt>
      <trkpt lat="59.854835925682" lon="17.610857882562">
        <ele>57.8</ele>
        <time>2017-10-14T17:38:41Z</time>
      </trkpt>
      <trkpt lat="59.854813965104" lon="17.610728885121">
        <ele>58</ele>
        <time>2017-10-14T17:38:42Z</time>
      </trkpt>
      <trkpt lat="59.854794351458" lon="17.610614639824">
        <ele>58</ele>
        <time>2017-10-14T17:38:43Z</time>
      </trkpt>
      <trkpt lat="59.854774402536" lon="17.610499807794">
        <ele>57.8</ele>
        <time>2017-10-14T17:38:44Z</time>
      </trkpt>
      <trkpt lat="59.854754453614" lon="17.610385562497">
        <ele>57.8</ele>
        <time>2017-10-14T17:38:45Z</time>
      </trkpt>
      <trkpt lat="59.854731151932" lon="17.61027299358">
        <ele>57.8</ele>
        <time>2017-10-14T17:38:46Z</time>
      </trkpt>
      <trkpt lat="59.854707095879" lon="17.610151875125">
        <ele>57.8</ele>
        <time>2017-10-14T17:38:47Z</time>
      </trkpt>
      <trkpt lat="59.854684464749" lon="17.610033438878">
        <ele>57.8</ele>
        <time>2017-10-14T17:38:48Z</time>
      </trkpt>
      <trkpt lat="59.854661498343" lon="17.609925312368">
        <ele>58</ele>
        <time>2017-10-14T17:38:49Z</time>
      </trkpt>
      <trkpt lat="59.854636771738" lon="17.609819868066">
        <ele>58</ele>
        <time>2017-10-14T17:38:50Z</time>
      </trkpt>
      <trkpt lat="59.854610452572" lon="17.60971140628">
        <ele>58.2</ele>
        <time>2017-10-14T17:38:51Z</time>
      </trkpt>
      <trkpt lat="59.854588911089" lon="17.609600094648">
        <ele>58.4</ele>
        <time>2017-10-14T17:38:52Z</time>
      </trkpt>
      <trkpt lat="59.854566950511" lon="17.609482664229">
        <ele>58.4</ele>
        <time>2017-10-14T17:38:53Z</time>
      </trkpt>
      <trkpt lat="59.854545492847" lon="17.609376549375">
        <ele>58.4</ele>
        <time>2017-10-14T17:38:54Z</time>
      </trkpt>
      <trkpt lat="59.854522107346" lon="17.609264315734">
        <ele>58.4</ele>
        <time>2017-10-14T17:38:55Z</time>
      </trkpt>
      <trkpt lat="59.854497967474" lon="17.609165660771">
        <ele>58.4</ele>
        <time>2017-10-14T17:38:56Z</time>
      </trkpt>
      <trkpt lat="59.854462595856" lon="17.609036411873">
        <ele>58.2</ele>
        <time>2017-10-14T17:38:57Z</time>
      </trkpt>
      <trkpt lat="59.85443292393" lon="17.608922753309">
        <ele>58.2</ele>
        <time>2017-10-14T17:38:58Z</time>
      </trkpt>
      <trkpt lat="59.854403922556" lon="17.608812698962">
        <ele>58</ele>
        <time>2017-10-14T17:38:59Z</time>
      </trkpt>
      <trkpt lat="59.854376346105" lon="17.608706500289">
        <ele>57.8</ele>
        <time>2017-10-14T17:39:00Z</time>
      </trkpt>
      <trkpt lat="59.854354553165" lon="17.608597200313">
        <ele>57.8</ele>
        <time>2017-10-14T17:39:01Z</time>
      </trkpt>
      <trkpt lat="59.854332257311" lon="17.608483877025">
        <ele>57.8</ele>
        <time>2017-10-14T17:39:02Z</time>
      </trkpt>
      <trkpt lat="59.854311470199" lon="17.608374577049">
        <ele>57.8</ele>
        <time>2017-10-14T17:39:03Z</time>
      </trkpt>
      <trkpt lat="59.854294371123" lon="17.608281621778">
        <ele>57.8</ele>
        <time>2017-10-14T17:39:04Z</time>
      </trkpt>
      <trkpt lat="59.854271237079" lon="17.608182380082">
        <ele>57.8</ele>
        <time>2017-10-14T17:39:05Z</time>
      </trkpt>
      <trkpt lat="59.85423259652" lon="17.608087161698">
        <ele>58</ele>
        <time>2017-10-14T17:39:06Z</time>
      </trkpt>
      <trkpt lat="59.854193033952" lon="17.608007868924">
        <ele>58.2</ele>
        <time>2017-10-14T17:39:07Z</time>
      </trkpt>
      <trkpt lat="59.854151878823" lon="17.607931258358">
        <ele>58.4</ele>
        <time>2017-10-14T17:39:08Z</time>
      </trkpt>
      <trkpt lat="59.854110388418" lon="17.607854312516">
        <ele>58.2</ele>
        <time>2017-10-14T17:39:09Z</time>
      </trkpt>
      <trkpt lat="59.854079375388" lon="17.607783317823">
        <ele>58.2</ele>
        <time>2017-10-14T17:39:10Z</time>
      </trkpt>
      <trkpt lat="59.854044087589" lon="17.607703186859">
        <ele>58.2</ele>
        <time>2017-10-14T17:39:11Z</time>
      </trkpt>
      <trkpt lat="59.853991365438" lon="17.607607381742">
        <ele>58</ele>
        <time>2017-10-14T17:39:12Z</time>
      </trkpt>
      <trkpt lat="59.853949623576" lon="17.607523646561">
        <ele>57.8</ele>
        <time>2017-10-14T17:39:13Z</time>
      </trkpt>
      <trkpt lat="59.853911485931" lon="17.607436726258">
        <ele>57.6</ele>
        <time>2017-10-14T17:39:14Z</time>
      </trkpt>
      <trkpt lat="59.853875779037" lon="17.607348632489">
        <ele>57.8</ele>
        <time>2017-10-14T17:39:15Z</time>
      </trkpt>
      <trkpt lat="59.85385205826" lon="17.607244110196">
        <ele>58</ele>
        <time>2017-10-14T17:39:16Z</time>
      </trkpt>
      <trkpt lat="59.853824230352" lon="17.60714235393">
        <ele>58</ele>
        <time>2017-10-14T17:39:17Z</time>
      </trkpt>
      <trkpt lat="59.853798833195" lon="17.607041687311">
        <ele>58.2</ele>
        <time>2017-10-14T17:39:18Z</time>
      </trkpt>
      <trkpt lat="59.853775028599" lon="17.606934315172">
        <ele>58.4</ele>
        <time>2017-10-14T17:39:19Z</time>
      </trkpt>
      <trkpt lat="59.853756336962" lon="17.606836917494">
        <ele>58.4</ele>
        <time>2017-10-14T17:39:20Z</time>
      </trkpt>
      <trkpt lat="59.853740243714" lon="17.606731808468">
        <ele>58.6</ele>
        <time>2017-10-14T17:39:21Z</time>
      </trkpt>
      <trkpt lat="59.853723731371" lon="17.606623011406">
        <ele>58.6</ele>
        <time>2017-10-14T17:39:22Z</time>
      </trkpt>
      <trkpt lat="59.853705961743" lon="17.606517399466">
        <ele>58.8</ele>
        <time>2017-10-14T17:39:23Z</time>
      </trkpt>
      <trkpt lat="59.853687270106" lon="17.60640809949">
        <ele>58.8</ele>
        <time>2017-10-14T17:39:24Z</time>
      </trkpt>
      <trkpt lat="59.853668746107" lon="17.606300392075">
        <ele>59</ele>
        <time>2017-10-14T17:39:25Z</time>
      </trkpt>
      <trkpt lat="59.853654077782" lon="17.606205341329">
        <ele>59</ele>
        <time>2017-10-14T17:39:26Z</time>
      </trkpt>
      <trkpt lat="59.853634547955" lon="17.606088078548">
        <ele>59</ele>
        <time>2017-10-14T17:39:27Z</time>
      </trkpt>
      <trkpt lat="59.853612671196" lon="17.605982382789">
        <ele>59</ele>
        <time>2017-10-14T17:39:28Z</time>
      </trkpt>
      <trkpt lat="59.853590207704" lon="17.605872328442">
        <ele>59.2</ele>
        <time>2017-10-14T17:39:29Z</time>
      </trkpt>
      <trkpt lat="59.853569839687" lon="17.605765543036">
        <ele>59.2</ele>
        <time>2017-10-14T17:39:30Z</time>
      </trkpt>
      <trkpt lat="59.853553830258" lon="17.605652638843">
        <ele>59.4</ele>
        <time>2017-10-14T17:39:31Z</time>
      </trkpt>
      <trkpt lat="59.853538659019" lon="17.605545937256">
        <ele>59.6</ele>
        <time>2017-10-14T17:39:32Z</time>
      </trkpt>
      <trkpt lat="59.853524661246" lon="17.60543999004">
        <ele>59.8</ele>
        <time>2017-10-14T17:39:33Z</time>
      </trkpt>
      <trkpt lat="59.853507897446" lon="17.605329013684">
        <ele>59.8</ele>
        <time>2017-10-14T17:39:34Z</time>
      </trkpt>
      <trkpt lat="59.853493396759" lon="17.605227844151">
        <ele>60</ele>
        <time>2017-10-14T17:39:35Z</time>
      </trkpt>
      <trkpt lat="59.853477806425" lon="17.605107982981">
        <ele>60.2</ele>
        <time>2017-10-14T17:39:36Z</time>
      </trkpt>
      <trkpt lat="59.853462802824" lon="17.604999856471">
        <ele>60.4</ele>
        <time>2017-10-14T17:39:37Z</time>
      </trkpt>
      <trkpt lat="59.853446122843" lon="17.604893238703">
        <ele>60.4</ele>
        <time>2017-10-14T17:39:38Z</time>
      </trkpt>
      <trkpt lat="59.853428017939" lon="17.604788548772">
        <ele>60.6</ele>
        <time>2017-10-14T17:39:39Z</time>
      </trkpt>
      <trkpt lat="59.853410415949" lon="17.604684110298">
        <ele>60.6</ele>
        <time>2017-10-14T17:39:40Z</time>
      </trkpt>
      <trkpt lat="59.853392143407" lon="17.604570032639">
        <ele>60.8</ele>
        <time>2017-10-14T17:39:41Z</time>
      </trkpt>
      <trkpt lat="59.853377977996" lon="17.604465677984">
        <ele>61</ele>
        <time>2017-10-14T17:39:42Z</time>
      </trkpt>
      <trkpt lat="59.853365405146" lon="17.604370627238">
        <ele>60.8</ele>
        <time>2017-10-14T17:39:43Z</time>
      </trkpt>
      <trkpt lat="59.85334998245" lon="17.604273983931">
        <ele>60.8</ele>
        <time>2017-10-14T17:39:44Z</time>
      </trkpt>
      <trkpt lat="59.853334727392" lon="17.60418019047">
        <ele>60.8</ele>
        <time>2017-10-14T17:39:45Z</time>
      </trkpt>
      <trkpt lat="59.853307653855" lon="17.604086648466">
        <ele>60.6</ele>
        <time>2017-10-14T17:39:46Z</time>
      </trkpt>
      <trkpt lat="59.853285860915" lon="17.604011127547">
        <ele>60.6</ele>
        <time>2017-10-14T17:39:47Z</time>
      </trkpt>
      <trkpt lat="59.85326029612" lon="17.603939965216">
        <ele>60.6</ele>
        <time>2017-10-14T17:39:48Z</time>
      </trkpt>
      <trkpt lat="59.853231294746" lon="17.603873245292">
        <ele>61.2</ele>
        <time>2017-10-14T17:39:49Z</time>
      </trkpt>
      <trkpt lat="59.853202125734" lon="17.603808788481">
        <ele>61.2</ele>
        <time>2017-10-14T17:39:50Z</time>
      </trkpt>
      <trkpt lat="59.853168681953" lon="17.603755144321">
        <ele>61.8</ele>
        <time>2017-10-14T17:39:51Z</time>
      </trkpt>
      <trkpt lat="59.853126018082" lon="17.603728070784">
        <ele>62</ele>
        <time>2017-10-14T17:39:52Z</time>
      </trkpt>
      <trkpt lat="59.853077235424" lon="17.603729495707">
        <ele>62.2</ele>
        <time>2017-10-14T17:39:53Z</time>
      </trkpt>
      <trkpt lat="59.85302644111" lon="17.603743661118">
        <ele>62.2</ele>
        <time>2017-10-14T17:39:54Z</time>
      </trkpt>
      <trkpt lat="59.852976065891" lon="17.603760760194">
        <ele>62.2</ele>
        <time>2017-10-14T17:39:55Z</time>
      </trkpt>
      <trkpt lat="59.852923259921" lon="17.603784480971">
        <ele>62</ele>
        <time>2017-10-14T17:39:56Z</time>
      </trkpt>
      <trkpt lat="59.852871543598" lon="17.603800741857">
        <ele>62</ele>
        <time>2017-10-14T17:39:57Z</time>
      </trkpt>
      <trkpt lat="59.8528177318" lon="17.603818595304">
        <ele>61.8</ele>
        <time>2017-10-14T17:39:58Z</time>
      </trkpt>
      <trkpt lat="59.852761824527" lon="17.60383653257">
        <ele>61.6</ele>
        <time>2017-10-14T17:39:59Z</time>
      </trkpt>
      <trkpt lat="59.852707258358" lon="17.603852290542">
        <ele>61.6</ele>
        <time>2017-10-14T17:40:00Z</time>
      </trkpt>
      <trkpt lat="59.852651099628" lon="17.603861845908">
        <ele>61.2</ele>
        <time>2017-10-14T17:40:01Z</time>
      </trkpt>
      <trkpt lat="59.852596365821" lon="17.603873077654">
        <ele>61.2</ele>
        <time>2017-10-14T17:40:02Z</time>
      </trkpt>
      <trkpt lat="59.852543727489" lon="17.603884896133">
        <ele>61.2</ele>
        <time>2017-10-14T17:40:03Z</time>
      </trkpt>
      <trkpt lat="59.852488909863" lon="17.603905599426">
        <ele>61</ele>
        <time>2017-10-14T17:40:04Z</time>
      </trkpt>
      <trkpt lat="59.852434595151" lon="17.603921776493">
        <ele>61.2</ele>
        <time>2017-10-14T17:40:05Z</time>
      </trkpt>
      <trkpt lat="59.852378687878" lon="17.603926135081">
        <ele>61.2</ele>
        <time>2017-10-14T17:40:06Z</time>
      </trkpt>
      <trkpt lat="59.852326468641" lon="17.603927560004">
        <ele>61.4</ele>
        <time>2017-10-14T17:40:07Z</time>
      </trkpt>
      <trkpt lat="59.85227709925" lon="17.603927811461">
        <ele>61.6</ele>
        <time>2017-10-14T17:40:08Z</time>
      </trkpt>
      <trkpt lat="59.852231501714" lon="17.603929655479">
        <ele>61.6</ele>
        <time>2017-10-14T17:40:09Z</time>
      </trkpt>
      <trkpt lat="59.852186071816" lon="17.603932337687">
        <ele>61.6</ele>
        <time>2017-10-14T17:40:10Z</time>
      </trkpt>
      <trkpt lat="59.852128991077" lon="17.603917082629">
        <ele>61.8</ele>
        <time>2017-10-14T17:40:11Z</time>
      </trkpt>
      <trkpt lat="59.852078615858" lon="17.603904928874">
        <ele>62</ele>
        <time>2017-10-14T17:40:12Z</time>
      </trkpt>
      <trkpt lat="59.852041651679" lon="17.603897888078">
        <ele>62</ele>
        <time>2017-10-14T17:40:13Z</time>
      </trkpt>
      <trkpt lat="59.852016925074" lon="17.603905515607">
        <ele>62.2</ele>
        <time>2017-10-14T17:40:14Z</time>
      </trkpt>
      <trkpt lat="59.851995299772" lon="17.603919429561">
        <ele>62.4</ele>
        <time>2017-10-14T17:40:15Z</time>
      </trkpt>
      <trkpt lat="59.851968310054" lon="17.603917334086">
        <ele>62.8</ele>
        <time>2017-10-14T17:40:16Z</time>
      </trkpt>
      <trkpt lat="59.851939979232" lon="17.603913981326">
        <ele>63</ele>
        <time>2017-10-14T17:40:17Z</time>
      </trkpt>
      <trkpt lat="59.851913660066" lon="17.603909622738">
        <ele>63.2</ele>
        <time>2017-10-14T17:40:18Z</time>
      </trkpt>
      <trkpt lat="59.851885496882" lon="17.603845836479">
        <ele>63.4</ele>
        <time>2017-10-14T17:40:19Z</time>
      </trkpt>
      <trkpt lat="59.851860937915" lon="17.603793952518">
        <ele>63.6</ele>
        <time>2017-10-14T17:40:20Z</time>
      </trkpt>
      <trkpt lat="59.851829589609" lon="17.603748103525">
        <ele>63.6</ele>
        <time>2017-10-14T17:40:21Z</time>
      </trkpt>
      <trkpt lat="59.851782064236" lon="17.603698985591">
        <ele>63.6</ele>
        <time>2017-10-14T17:40:22Z</time>
      </trkpt>
      <trkpt lat="59.851745854428" lon="17.603654142426">
        <ele>63.4</ele>
        <time>2017-10-14T17:40:23Z</time>
      </trkpt>
      <trkpt lat="59.851701681815" lon="17.603605527406">
        <ele>63.2</ele>
        <time>2017-10-14T17:40:24Z</time>
      </trkpt>
      <trkpt lat="59.851660275229" lon="17.603559426956">
        <ele>63.2</ele>
        <time>2017-10-14T17:40:25Z</time>
      </trkpt>
      <trkpt lat="59.851621969946" lon="17.603501508027">
        <ele>63</ele>
        <time>2017-10-14T17:40:26Z</time>
      </trkpt>
      <trkpt lat="59.851584921948" lon="17.603448785876">
        <ele>62.8</ele>
        <time>2017-10-14T17:40:27Z</time>
      </trkpt>
      <trkpt lat="59.851551059072" lon="17.603390783128">
        <ele>62.8</ele>
        <time>2017-10-14T17:40:28Z</time>
      </trkpt>
      <trkpt lat="59.851508981934" lon="17.603327248326">
        <ele>62.8</ele>
        <time>2017-10-14T17:40:29Z</time>
      </trkpt>
      <trkpt lat="59.851471263384" lon="17.603270167587">
        <ele>62.8</ele>
        <time>2017-10-14T17:40:30Z</time>
      </trkpt>
      <trkpt lat="59.851434215386" lon="17.603221636386">
        <ele>63</ele>
        <time>2017-10-14T17:40:31Z</time>
      </trkpt>
      <trkpt lat="59.85139951432" lon="17.60317436247">
        <ele>63</ele>
        <time>2017-10-14T17:40:32Z</time>
      </trkpt>
      <trkpt lat="59.851364477978" lon="17.603125495993">
        <ele>63.2</ele>
        <time>2017-10-14T17:40:33Z</time>
      </trkpt>
      <trkpt lat="59.851325083048" lon="17.60308216157">
        <ele>63.4</ele>
        <time>2017-10-14T17:40:34Z</time>
      </trkpt>
      <trkpt lat="59.851287029222" lon="17.603036564034">
        <ele>63.6</ele>
        <time>2017-10-14T17:40:35Z</time>
      </trkpt>
      <trkpt lat="59.851251573785" lon="17.602985182987">
        <ele>63.6</ele>
        <time>2017-10-14T17:40:36Z</time>
      </trkpt>
      <trkpt lat="59.851220393117" lon="17.602929275714">
        <ele>63.6</ele>
        <time>2017-10-14T17:40:37Z</time>
      </trkpt>
      <trkpt lat="59.851185272956" lon="17.602867333473">
        <ele>63.4</ele>
        <time>2017-10-14T17:40:38Z</time>
      </trkpt>
      <trkpt lat="59.851148141139" lon="17.602808995449">
        <ele>63.4</ele>
        <time>2017-10-14T17:40:39Z</time>
      </trkpt>
      <trkpt lat="59.851109332942" lon="17.60274940014">
        <ele>63.2</ele>
        <time>2017-10-14T17:40:40Z</time>
      </trkpt>
      <trkpt lat="59.851079074283" lon="17.602706987726">
        <ele>63</ele>
        <time>2017-10-14T17:40:41Z</time>
      </trkpt>
      <trkpt lat="59.851050994918" lon="17.602690056288">
        <ele>62.8</ele>
        <time>2017-10-14T17:40:42Z</time>
      </trkpt>
      <trkpt lat="59.851027777055" lon="17.602708664106">
        <ele>62.6</ele>
        <time>2017-10-14T17:40:43Z</time>
      </trkpt>
      <trkpt lat="59.85101310873" lon="17.602742946077">
        <ele>62.6</ele>
        <time>2017-10-14T17:40:44Z</time>
      </trkpt>
      <trkpt lat="59.851002296079" lon="17.602778820609">
        <ele>62.6</ele>
        <time>2017-10-14T17:40:45Z</time>
      </trkpt>
      <trkpt lat="59.850984107356" lon="17.602841014307">
        <ele>62.8</ele>
        <time>2017-10-14T17:40:46Z</time>
      </trkpt>
      <trkpt lat="59.850966505366" lon="17.602907734231">
        <ele>63</ele>
        <time>2017-10-14T17:40:47Z</time>
      </trkpt>
      <trkpt lat="59.850949825385" lon="17.602977974553">
        <ele>63.2</ele>
        <time>2017-10-14T17:40:48Z</time>
      </trkpt>
      <trkpt lat="59.850925685513" lon="17.603053495472">
        <ele>63.4</ele>
        <time>2017-10-14T17:40:49Z</time>
      </trkpt>
      <trkpt lat="59.850903389659" lon="17.603128429658">
        <ele>63.4</ele>
        <time>2017-10-14T17:40:50Z</time>
      </trkpt>
      <trkpt lat="59.850876735217" lon="17.603209314993">
        <ele>63.4</ele>
        <time>2017-10-14T17:40:51Z</time>
      </trkpt>
      <trkpt lat="59.850850332232" lon="17.603289781233">
        <ele>63.2</ele>
        <time>2017-10-14T17:40:52Z</time>
      </trkpt>
      <trkpt lat="59.850822671962" lon="17.603372342948">
        <ele>63</ele>
        <time>2017-10-14T17:40:53Z</time>
      </trkpt>
      <trkpt lat="59.850793838226" lon="17.603454988482">
        <ele>63</ele>
        <time>2017-10-14T17:40:54Z</time>
      </trkpt>
      <trkpt lat="59.850765507404" lon="17.603536879645">
        <ele>62.8</ele>
        <time>2017-10-14T17:40:55Z</time>
      </trkpt>
      <trkpt lat="59.850737428039" lon="17.60361944136">
        <ele>62.6</ele>
        <time>2017-10-14T17:40:56Z</time>
      </trkpt>
      <trkpt lat="59.850713371986" lon="17.603690519872">
        <ele>62.4</ele>
        <time>2017-10-14T17:40:57Z</time>
      </trkpt>
      <trkpt lat="59.850692668693" lon="17.603753719398">
        <ele>62.4</ele>
        <time>2017-10-14T17:40:58Z</time>
      </trkpt>
      <trkpt lat="59.850675234341" lon="17.603804010798">
        <ele>62.4</ele>
        <time>2017-10-14T17:40:59Z</time>
      </trkpt>
      <trkpt lat="59.850659644007" lon="17.603847680497">
        <ele>62.4</ele>
        <time>2017-10-14T17:41:00Z</time>
      </trkpt>
      <trkpt lat="59.850646568243" lon="17.603887494522">
        <ele>62.6</ele>
        <time>2017-10-14T17:41:01Z</time>
      </trkpt>
      <trkpt lat="59.850630474995" lon="17.603924123425">
        <ele>62.6</ele>
        <time>2017-10-14T17:41:02Z</time>
      </trkpt>
      <trkpt lat="59.850613375919" lon="17.603960249414">
        <ele>62.8</ele>
        <time>2017-10-14T17:41:03Z</time>
      </trkpt>
      <trkpt lat="59.850589738961" lon="17.603984473105">
        <ele>63</ele>
        <time>2017-10-14T17:41:04Z</time>
      </trkpt>
      <trkpt lat="59.850569454763" lon="17.604008780615">
        <ele>63</ele>
        <time>2017-10-14T17:41:05Z</time>
      </trkpt>
      <trkpt lat="59.850537603543" lon="17.604024706225">
        <ele>63</ele>
        <time>2017-10-14T17:41:06Z</time>
      </trkpt>
      <trkpt lat="59.850509105083" lon="17.604046499165">
        <ele>63</ele>
        <time>2017-10-14T17:41:07Z</time>
      </trkpt>
      <trkpt lat="59.850477840596" lon="17.604063933517">
        <ele>63</ele>
        <time>2017-10-14T17:41:08Z</time>
      </trkpt>
      <trkpt lat="59.850447498118" lon="17.604079942946">
        <ele>62.8</ele>
        <time>2017-10-14T17:41:09Z</time>
      </trkpt>
      <trkpt lat="59.850418580563" lon="17.604096455289">
        <ele>62.8</ele>
        <time>2017-10-14T17:41:10Z</time>
      </trkpt>
      <trkpt lat="59.850385220601" lon="17.604137778056">
        <ele>62.6</ele>
        <time>2017-10-14T17:41:11Z</time>
      </trkpt>
      <trkpt lat="59.850355883951" lon="17.60417348495">
        <ele>62.6</ele>
        <time>2017-10-14T17:41:12Z</time>
      </trkpt>
      <trkpt lat="59.850326798758" lon="17.604210449129">
        <ele>62.6</ele>
        <time>2017-10-14T17:41:13Z</time>
      </trkpt>
      <trkpt lat="59.850298216479" lon="17.604246323661">
        <ele>62.6</ele>
        <time>2017-10-14T17:41:14Z</time>
      </trkpt>
      <trkpt lat="59.850270556209" lon="17.60428161146">
        <ele>62.8</ele>
        <time>2017-10-14T17:41:15Z</time>
      </trkpt>
      <trkpt lat="59.850239962274" lon="17.604311534843">
        <ele>62.8</ele>
        <time>2017-10-14T17:41:16Z</time>
      </trkpt>
      <trkpt lat="59.85020844633" lon="17.604336345267">
        <ele>62.8</ele>
        <time>2017-10-14T17:41:17Z</time>
      </trkpt>
      <trkpt lat="59.850178020033" lon="17.604357719112">
        <ele>62.8</ele>
        <time>2017-10-14T17:41:18Z</time>
      </trkpt>
      <trkpt lat="59.850150695039" lon="17.604353192886">
        <ele>62.6</ele>
        <time>2017-10-14T17:41:19Z</time>
      </trkpt>
      <trkpt lat="59.850125297882" lon="17.604350426859">
        <ele>62.6</ele>
        <time>2017-10-14T17:41:20Z</time>
      </trkpt>
      <trkpt lat="59.850099984544" lon="17.604328717738">
        <ele>62.6</ele>
        <time>2017-10-14T17:41:21Z</time>
      </trkpt>
      <trkpt lat="59.850077353414" lon="17.604295944509">
        <ele>62.8</ele>
        <time>2017-10-14T17:41:22Z</time>
      </trkpt>
      <trkpt lat="59.850059332329" lon="17.60424640748">
        <ele>62.6</ele>
        <time>2017-10-14T17:41:23Z</time>
      </trkpt>
      <trkpt lat="59.850052459171" lon="17.604188404732">
        <ele>62.8</ele>
        <time>2017-10-14T17:41:24Z</time>
      </trkpt>
      <trkpt lat="59.850050950429" lon="17.604128641785">
        <ele>62.8</ele>
        <time>2017-10-14T17:41:25Z</time>
      </trkpt>
      <trkpt lat="59.850071988998" lon="17.604068124467">
        <ele>63</ele>
        <time>2017-10-14T17:41:26Z</time>
      </trkpt>
      <trkpt lat="59.850082885468" lon="17.604014815583">
        <ele>63</ele>
        <time>2017-10-14T17:41:27Z</time>
      </trkpt>
      <trkpt lat="59.850088668979" lon="17.603961674337">
        <ele>62.8</ele>
        <time>2017-10-14T17:41:28Z</time>
      </trkpt>
      <trkpt lat="59.850082550192" lon="17.603913143136">
        <ele>62.8</ele>
        <time>2017-10-14T17:41:29Z</time>
      </trkpt>
      <trkpt lat="59.850069055333" lon="17.603868970523">
        <ele>62.8</ele>
        <time>2017-10-14T17:41:30Z</time>
      </trkpt>
      <trkpt lat="59.850052794447" lon="17.603836197294">
        <ele>62.8</ele>
        <time>2017-10-14T17:41:31Z</time>
      </trkpt>
      <trkpt lat="59.850033599896" lon="17.603812057422">
        <ele>62.8</ele>
        <time>2017-10-14T17:41:32Z</time>
      </trkpt>
      <trkpt lat="59.850014740621" lon="17.603790683577">
        <ele>62.8</ele>
        <time>2017-10-14T17:41:33Z</time>
      </trkpt>
      <trkpt lat="59.849999317925" lon="17.603765537877">
        <ele>63</ele>
        <time>2017-10-14T17:41:34Z</time>
      </trkpt>
      <trkpt lat="59.849977441166" lon="17.603735195399">
        <ele>63</ele>
        <time>2017-10-14T17:41:35Z</time>
      </trkpt>
      <trkpt lat="59.849952127828" lon="17.603728489879">
        <ele>63</ele>
        <time>2017-10-14T17:41:36Z</time>
      </trkpt>
      <trkpt lat="59.849931675992" lon="17.603734692485">
        <ele>63</ele>
        <time>2017-10-14T17:41:37Z</time>
      </trkpt>
      <trkpt lat="59.849915582744" lon="17.603757407434">
        <ele>63</ele>
        <time>2017-10-14T17:41:38Z</time>
      </trkpt>
      <trkpt lat="59.849902590799" lon="17.603788671921">
        <ele>63</ele>
        <time>2017-10-14T17:41:39Z</time>
      </trkpt>
      <trkpt lat="59.849891778148" lon="17.603820104046">
        <ele>63</ele>
        <time>2017-10-14T17:41:40Z</time>
      </trkpt>
      <trkpt lat="59.849877445099" lon="17.603862684098">
        <ele>63</ele>
        <time>2017-10-14T17:41:41Z</time>
      </trkpt>
      <trkpt lat="59.849868560285" lon="17.603893194214">
        <ele>63.2</ele>
        <time>2017-10-14T17:41:42Z</time>
      </trkpt>
      <trkpt lat="59.849871745407" lon="17.603894535318">
        <ele>63.2</ele>
        <time>2017-10-14T17:41:43Z</time>
      </trkpt>
      <trkpt lat="59.849867470638" lon="17.603892439843">
        <ele>63</ele>
        <time>2017-10-14T17:41:44Z</time>
      </trkpt>
    </trkseg>
  </trk>
</gpx>